<?xml version='1.0' encoding='UTF-8'?><gpx version="1.1" creator="JPX - https://github.com/jenetics/jpx" xmlns="http://www.topografix.com/GPX/1/1"><trk><trkseg><trkpt lat="43.882824455887715" lon="11.180710665683351"><ele>91.0</ele><time>2026-04-11T07:38:00.971Z</time></trkpt><trkpt lat="43.88288695225433" lon="11.180631380997857"><ele>91.0</ele><time>2026-04-11T07:38:17.97Z</time></trkpt><trkpt lat="43.88296634504924" lon="11.180633821230268"><ele>91.0</ele><time>2026-04-11T07:38:18.97Z</time></trkpt><trkpt lat="43.88306711003815" lon="11.180675755575656"><ele>91.0</ele><time>2026-04-11T07:38:20.97Z</time></trkpt><trkpt lat="43.883153215513694" lon="11.180716700722906"><ele>91.0</ele><time>2026-04-11T07:38:22.97Z</time></trkpt><trkpt lat="43.88327003514286" lon="11.180761835881935"><ele>91.0</ele><time>2026-04-11T07:38:24.97Z</time></trkpt><trkpt lat="43.88333213010717" lon="11.180796542274702"><ele>91.0</ele><time>2026-04-11T07:38:25.97Z</time></trkpt><trkpt lat="43.883385692200385" lon="11.180851147588617"><ele>91.0</ele><time>2026-04-11T07:38:26.97Z</time></trkpt><trkpt lat="43.88342952349325" lon="11.180927699713779"><ele>91.0</ele><time>2026-04-11T07:38:27.97Z</time></trkpt><trkpt lat="43.883460232164005" lon="11.181039156984442"><ele>91.0</ele><time>2026-04-11T07:38:28.97Z</time></trkpt><trkpt lat="43.88349141579813" lon="11.181131133713684"><ele>91.0</ele><time>2026-04-11T07:38:29.97Z</time></trkpt><trkpt lat="43.88352397833601" lon="11.181246875298989"><ele>91.0</ele><time>2026-04-11T07:38:30.97Z</time></trkpt><trkpt lat="43.88353820715627" lon="11.181381418189057"><ele>91.0</ele><time>2026-04-11T07:38:31.97Z</time></trkpt><trkpt lat="43.88354868153805" lon="11.181524808275412"><ele>91.0</ele><time>2026-04-11T07:38:32.97Z</time></trkpt><trkpt lat="43.88357688884281" lon="11.181689892432098"><ele>91.0</ele><time>2026-04-11T07:38:33.97Z</time></trkpt><trkpt lat="43.88361213917675" lon="11.181835046417206"><ele>91.0</ele><time>2026-04-11T07:38:34.97Z</time></trkpt><trkpt lat="43.88364372235341" lon="11.181982156144276"><ele>91.5</ele><time>2026-04-11T07:38:35.97Z</time></trkpt><trkpt lat="43.88370685485269" lon="11.182139277212247"><ele>92.0</ele><time>2026-04-11T07:38:36.97Z</time></trkpt><trkpt lat="43.88377290244034" lon="11.182309230867359"><ele>92.5</ele><time>2026-04-11T07:38:37.97Z</time></trkpt><trkpt lat="43.883836307134644" lon="11.182484619741668"><ele>93.0</ele><time>2026-04-11T07:38:38.97Z</time></trkpt><trkpt lat="43.883894013162305" lon="11.182667692301518"><ele>93.25</ele><time>2026-04-11T07:38:39.97Z</time></trkpt><trkpt lat="43.88396488779677" lon="11.18285125487932"><ele>93.5</ele><time>2026-04-11T07:38:40.97Z</time></trkpt><trkpt lat="43.88403185051882" lon="11.183030474523871"><ele>93.75</ele><time>2026-04-11T07:38:41.97Z</time></trkpt><trkpt lat="43.884089649548905" lon="11.183189447476927"><ele>94.0</ele><time>2026-04-11T07:38:42.97Z</time></trkpt><trkpt lat="43.88415146187825" lon="11.183338985667664"><ele>94.0</ele><time>2026-04-11T07:38:43.97Z</time></trkpt><trkpt lat="43.88420070778722" lon="11.183480002942654"><ele>94.0</ele><time>2026-04-11T07:38:44.97Z</time></trkpt><trkpt lat="43.88424960307349" lon="11.18362125133097"><ele>94.0</ele><time>2026-04-11T07:38:45.97Z</time></trkpt><trkpt lat="43.884312122581306" lon="11.183771063149633"><ele>94.0</ele><time>2026-04-11T07:38:46.97Z</time></trkpt><trkpt lat="43.884358680911646" lon="11.183915416214603"><ele>94.25</ele><time>2026-04-11T07:38:47.97Z</time></trkpt><trkpt lat="43.88442475189762" lon="11.184048136692722"><ele>94.5</ele><time>2026-04-11T07:38:48.97Z</time></trkpt><trkpt lat="43.88448892873412" lon="11.184204825476801"><ele>94.75</ele><time>2026-04-11T07:38:49.97Z</time></trkpt><trkpt lat="43.8845515604784" lon="11.184375422601605"><ele>95.0</ele><time>2026-04-11T07:38:50.97Z</time></trkpt><trkpt lat="43.88461696429652" lon="11.184541269594442"><ele>95.0</ele><time>2026-04-11T07:38:51.97Z</time></trkpt><trkpt lat="43.88468486126027" lon="11.184709685156044"><ele>95.0</ele><time>2026-04-11T07:38:52.97Z</time></trkpt><trkpt lat="43.88475566708485" lon="11.184875039089128"><ele>95.0</ele><time>2026-04-11T07:38:53.97Z</time></trkpt><trkpt lat="43.88483393581544" lon="11.185041076517072"><ele>95.0</ele><time>2026-04-11T07:38:54.97Z</time></trkpt><trkpt lat="43.88491486995214" lon="11.185189949206588"><ele>95.5</ele><time>2026-04-11T07:38:55.97Z</time></trkpt><trkpt lat="43.885004589887885" lon="11.185337016159632"><ele>96.0</ele><time>2026-04-11T07:38:56.97Z</time></trkpt><trkpt lat="43.885106025240404" lon="11.185468711428578"><ele>96.5</ele><time>2026-04-11T07:38:57.97Z</time></trkpt><trkpt lat="43.88521327328818" lon="11.185577439474113"><ele>97.0</ele><time>2026-04-11T07:38:58.97Z</time></trkpt><trkpt lat="43.88531917973181" lon="11.185673103150398"><ele>97.0</ele><time>2026-04-11T07:38:59.97Z</time></trkpt><trkpt lat="43.88543592405503" lon="11.18572631867355"><ele>97.0</ele><time>2026-04-11T07:39:00.97Z</time></trkpt><trkpt lat="43.885550541937164" lon="11.185800102083633"><ele>97.0</ele><time>2026-04-11T07:39:01.97Z</time></trkpt><trkpt lat="43.88565409132273" lon="11.185869317313413"><ele>97.0</ele><time>2026-04-11T07:39:02.97Z</time></trkpt><trkpt lat="43.885752390016954" lon="11.185945294909045"><ele>97.0</ele><time>2026-04-11T07:39:03.97Z</time></trkpt><trkpt lat="43.88585977604617" lon="11.186040366028946"><ele>97.0</ele><time>2026-04-11T07:39:04.97Z</time></trkpt><trkpt lat="43.8859577488412" lon="11.186147125025023"><ele>97.0</ele><time>2026-04-11T07:39:05.97Z</time></trkpt><trkpt lat="43.88605055732678" lon="11.186279772378974"><ele>97.0</ele><time>2026-04-11T07:39:06.97Z</time></trkpt><trkpt lat="43.886143392900884" lon="11.18640831170037"><ele>98.25</ele><time>2026-04-11T07:39:07.97Z</time></trkpt><trkpt lat="43.88623719722819" lon="11.186543564572194"><ele>99.5</ele><time>2026-04-11T07:39:08.97Z</time></trkpt><trkpt lat="43.886327529908876" lon="11.186677578189421"><ele>100.75</ele><time>2026-04-11T07:39:09.97Z</time></trkpt><trkpt lat="43.88642066575636" lon="11.186817816884423"><ele>102.0</ele><time>2026-04-11T07:39:10.97Z</time></trkpt><trkpt lat="43.8865133713803" lon="11.18695692801446"><ele>102.0</ele><time>2026-04-11T07:39:11.97Z</time></trkpt><trkpt lat="43.88661312502073" lon="11.18709519147074"><ele>102.0</ele><time>2026-04-11T07:39:12.97Z</time></trkpt><trkpt lat="43.886721482373986" lon="11.187249171323566"><ele>102.0</ele><time>2026-04-11T07:39:13.97Z</time></trkpt><trkpt lat="43.88683411967915" lon="11.18741745962016"><ele>104.66666666666666</ele><time>2026-04-11T07:39:14.97Z</time></trkpt><trkpt lat="43.886964468956904" lon="11.187595916863733"><ele>107.33333333333333</ele><time>2026-04-11T07:39:15.97Z</time></trkpt><trkpt lat="43.88706221023804" lon="11.187806741415722"><ele>110.0</ele><time>2026-04-11T07:39:16.97Z</time></trkpt><trkpt lat="43.887134015856525" lon="11.188032293898356"><ele>110.0</ele><time>2026-04-11T07:39:17.97Z</time></trkpt><trkpt lat="43.8871804034809" lon="11.188266187506352"><ele>110.0</ele><time>2026-04-11T07:39:18.97Z</time></trkpt><trkpt lat="43.88719750958132" lon="11.188522088958493"><ele>110.0</ele><time>2026-04-11T07:39:19.97Z</time></trkpt><trkpt lat="43.887193470424606" lon="11.18876378313227"><ele>109.0</ele><time>2026-04-11T07:39:20.97Z</time></trkpt><trkpt lat="43.88717608834726" lon="11.189030516109355"><ele>108.0</ele><time>2026-04-11T07:39:21.97Z</time></trkpt><trkpt lat="43.887158199664846" lon="11.189290936156436"><ele>107.0</ele><time>2026-04-11T07:39:22.971Z</time></trkpt><trkpt lat="43.88714869770744" lon="11.189539722583687"><ele>107.0</ele><time>2026-04-11T07:39:23.97Z</time></trkpt><trkpt lat="43.88715198504592" lon="11.189781402645817"><ele>107.0</ele><time>2026-04-11T07:39:24.97Z</time></trkpt><trkpt lat="43.887171817114684" lon="11.190022226315104"><ele>107.0</ele><time>2026-04-11T07:39:25.97Z</time></trkpt><trkpt lat="43.88720457955096" lon="11.19025683837796"><ele>107.0</ele><time>2026-04-11T07:39:26.971Z</time></trkpt><trkpt lat="43.88725833293349" lon="11.190490286704392"><ele>107.0</ele><time>2026-04-11T07:39:27.971Z</time></trkpt><trkpt lat="43.88732219722008" lon="11.19070514802622"><ele>107.0</ele><time>2026-04-11T07:39:28.971Z</time></trkpt><trkpt lat="43.88740142381486" lon="11.19091397048615"><ele>107.0</ele><time>2026-04-11T07:39:29.97Z</time></trkpt><trkpt lat="43.88748959766709" lon="11.191114887436694"><ele>107.0</ele><time>2026-04-11T07:39:30.97Z</time></trkpt><trkpt lat="43.8875818665031" lon="11.191313968247384"><ele>107.0</ele><time>2026-04-11T07:39:31.971Z</time></trkpt><trkpt lat="43.887678184956" lon="11.191515777905328"><ele>109.33333333333333</ele><time>2026-04-11T07:39:32.971Z</time></trkpt><trkpt lat="43.88777165952499" lon="11.191721395579544"><ele>111.66666666666666</ele><time>2026-04-11T07:39:33.971Z</time></trkpt><trkpt lat="43.887869463512565" lon="11.191915959158617"><ele>114.0</ele><time>2026-04-11T07:39:34.97Z</time></trkpt><trkpt lat="43.88796678692945" lon="11.192117939281482"><ele>114.0</ele><time>2026-04-11T07:39:35.971Z</time></trkpt><trkpt lat="43.888066224604735" lon="11.192321770019847"><ele>114.0</ele><time>2026-04-11T07:39:36.971Z</time></trkpt><trkpt lat="43.88816383609004" lon="11.192519818447701"><ele>114.0</ele><time>2026-04-11T07:39:37.971Z</time></trkpt><trkpt lat="43.888269404531805" lon="11.192725985296972"><ele>114.33333333333334</ele><time>2026-04-11T07:39:38.971Z</time></trkpt><trkpt lat="43.8883618167032" lon="11.192936171448457"><ele>114.66666666666667</ele><time>2026-04-11T07:39:39.971Z</time></trkpt><trkpt lat="43.8884710378512" lon="11.193128970009775"><ele>115.0</ele><time>2026-04-11T07:39:40.971Z</time></trkpt><trkpt lat="43.888577356014515" lon="11.193313998648211"><ele>122.66666666666667</ele><time>2026-04-11T07:39:41.971Z</time></trkpt><trkpt lat="43.888679740670234" lon="11.193493059958318"><ele>130.33333333333334</ele><time>2026-04-11T07:39:42.971Z</time></trkpt><trkpt lat="43.888775210132394" lon="11.193677219513528"><ele>138.0</ele><time>2026-04-11T07:39:43.971Z</time></trkpt><trkpt lat="43.888861201966556" lon="11.19387596082526"><ele>133.33333333333334</ele><time>2026-04-11T07:39:44.971Z</time></trkpt><trkpt lat="43.888943875937294" lon="11.194086634390231"><ele>128.66666666666669</ele><time>2026-04-11T07:39:45.971Z</time></trkpt><trkpt lat="43.8890248120099" lon="11.194289437279867"><ele>124.0</ele><time>2026-04-11T07:39:46.971Z</time></trkpt><trkpt lat="43.8891130026339" lon="11.194481940624751"><ele>124.0</ele><time>2026-04-11T07:39:47.971Z</time></trkpt><trkpt lat="43.88920780419153" lon="11.194663673075402"><ele>124.0</ele><time>2026-04-11T07:39:48.971Z</time></trkpt><trkpt lat="43.88933134809995" lon="11.194833228795305"><ele>124.0</ele><time>2026-04-11T07:39:49.971Z</time></trkpt><trkpt lat="43.889437242508805" lon="11.195009335474689"><ele>127.66666666666667</ele><time>2026-04-11T07:39:50.971Z</time></trkpt><trkpt lat="43.88955861741475" lon="11.195179124587092"><ele>131.33333333333334</ele><time>2026-04-11T07:39:51.971Z</time></trkpt><trkpt lat="43.88967611920423" lon="11.195347110396616"><ele>135.0</ele><time>2026-04-11T07:39:52.971Z</time></trkpt><trkpt lat="43.889796278904704" lon="11.19550567977164"><ele>132.33333333333334</ele><time>2026-04-11T07:39:53.971Z</time></trkpt><trkpt lat="43.889913308332325" lon="11.195672266322314"><ele>129.66666666666669</ele><time>2026-04-11T07:39:54.971Z</time></trkpt><trkpt lat="43.89001936822044" lon="11.195826646357213"><ele>127.0</ele><time>2026-04-11T07:39:55.971Z</time></trkpt><trkpt lat="43.89011090758538" lon="11.195988652255258"><ele>133.33333333333334</ele><time>2026-04-11T07:39:56.971Z</time></trkpt><trkpt lat="43.89015727350885" lon="11.196175521548044"><ele>139.66666666666666</ele><time>2026-04-11T07:39:57.971Z</time></trkpt><trkpt lat="43.890193532360506" lon="11.196384074301156"><ele>146.0</ele><time>2026-04-11T07:39:58.971Z</time></trkpt><trkpt lat="43.89024618151718" lon="11.196609812267534"><ele>146.0</ele><time>2026-04-11T07:39:59.971Z</time></trkpt><trkpt lat="43.890279140337356" lon="11.196827043914913"><ele>146.0</ele><time>2026-04-11T07:40:00.971Z</time></trkpt><trkpt lat="43.890321367001114" lon="11.197027779822362"><ele>146.0</ele><time>2026-04-11T07:40:01.97Z</time></trkpt><trkpt lat="43.890370113236166" lon="11.197216162856758"><ele>141.75</ele><time>2026-04-11T07:40:02.97Z</time></trkpt><trkpt lat="43.890428622279174" lon="11.197393160346289"><ele>137.5</ele><time>2026-04-11T07:40:03.97Z</time></trkpt><trkpt lat="43.89051736686206" lon="11.197557080315875"><ele>133.25</ele><time>2026-04-11T07:40:04.97Z</time></trkpt><trkpt lat="43.8906358572329" lon="11.1976914761291"><ele>129.0</ele><time>2026-04-11T07:40:05.97Z</time></trkpt><trkpt lat="43.89076614032768" lon="11.197763567613768"><ele>129.0</ele><time>2026-04-11T07:40:06.97Z</time></trkpt><trkpt lat="43.89090837711515" lon="11.197821299243405"><ele>129.0</ele><time>2026-04-11T07:40:07.97Z</time></trkpt><trkpt lat="43.89105702347386" lon="11.197886313166952"><ele>129.0</ele><time>2026-04-11T07:40:08.97Z</time></trkpt><trkpt lat="43.89120371587803" lon="11.19794763397114"><ele>127.66666666666666</ele><time>2026-04-11T07:40:09.97Z</time></trkpt><trkpt lat="43.89132890171454" lon="11.198047254436567"><ele>126.33333333333333</ele><time>2026-04-11T07:40:10.97Z</time></trkpt><trkpt lat="43.89146285541489" lon="11.198205528871508"><ele>125.0</ele><time>2026-04-11T07:40:11.97Z</time></trkpt><trkpt lat="43.891573726621985" lon="11.19840663285792"><ele>125.0</ele><time>2026-04-11T07:40:12.97Z</time></trkpt><trkpt lat="43.89167863164311" lon="11.198588983945477"><ele>125.0</ele><time>2026-04-11T07:40:13.97Z</time></trkpt><trkpt lat="43.89178150721962" lon="11.198779621291918"><ele>125.0</ele><time>2026-04-11T07:40:14.97Z</time></trkpt><trkpt lat="43.891886883326556" lon="11.198974305898906"><ele>124.66666666666666</ele><time>2026-04-11T07:40:15.97Z</time></trkpt><trkpt lat="43.892002817094756" lon="11.199138084708569"><ele>124.33333333333334</ele><time>2026-04-11T07:40:16.97Z</time></trkpt><trkpt lat="43.89213225173168" lon="11.199282078424758"><ele>124.0</ele><time>2026-04-11T07:40:17.97Z</time></trkpt><trkpt lat="43.89226708900189" lon="11.199414401027754"><ele>124.0</ele><time>2026-04-11T07:40:18.97Z</time></trkpt><trkpt lat="43.892404979949234" lon="11.199548995523564"><ele>124.0</ele><time>2026-04-11T07:40:19.97Z</time></trkpt><trkpt lat="43.89254847923178" lon="11.199683025847587"><ele>124.0</ele><time>2026-04-11T07:40:20.97Z</time></trkpt><trkpt lat="43.89269502081889" lon="11.19980840030578"><ele>125.66666666666667</ele><time>2026-04-11T07:40:21.97Z</time></trkpt><trkpt lat="43.892848416146215" lon="11.199928645568296"><ele>127.33333333333334</ele><time>2026-04-11T07:40:22.97Z</time></trkpt><trkpt lat="43.89301045102967" lon="11.200034623030495"><ele>129.0</ele><time>2026-04-11T07:40:23.97Z</time></trkpt><trkpt lat="43.89317019709517" lon="11.200121157465627"><ele>129.0</ele><time>2026-04-11T07:40:24.97Z</time></trkpt><trkpt lat="43.89332166826923" lon="11.200181251675785"><ele>129.0</ele><time>2026-04-11T07:40:25.97Z</time></trkpt><trkpt lat="43.89347869633549" lon="11.200214949595331"><ele>129.0</ele><time>2026-04-11T07:40:26.97Z</time></trkpt><trkpt lat="43.89363077950465" lon="11.200214857598565"><ele>135.33333333333334</ele><time>2026-04-11T07:40:27.97Z</time></trkpt><trkpt lat="43.893779303519565" lon="11.200186043110676"><ele>141.66666666666669</ele><time>2026-04-11T07:40:28.97Z</time></trkpt><trkpt lat="43.89393621421375" lon="11.20016619431485"><ele>148.0</ele><time>2026-04-11T07:40:29.97Z</time></trkpt><trkpt lat="43.89409706277037" lon="11.200181512285594"><ele>156.0</ele><time>2026-04-11T07:40:30.97Z</time></trkpt><trkpt lat="43.8942548625695" lon="11.200223616281084"><ele>164.0</ele><time>2026-04-11T07:40:31.97Z</time></trkpt><trkpt lat="43.89441031368056" lon="11.20027604385991"><ele>172.0</ele><time>2026-04-11T07:40:32.97Z</time></trkpt><trkpt lat="43.894558527798296" lon="11.200322501376537"><ele>172.0</ele><time>2026-04-11T07:40:33.97Z</time></trkpt><trkpt lat="43.89470078566868" lon="11.200379877167073"><ele>172.0</ele><time>2026-04-11T07:40:34.97Z</time></trkpt><trkpt lat="43.894833541152515" lon="11.200447679132337"><ele>172.0</ele><time>2026-04-11T07:40:35.97Z</time></trkpt><trkpt lat="43.89495761411665" lon="11.20054113769235"><ele>172.0</ele><time>2026-04-11T07:40:36.97Z</time></trkpt><trkpt lat="43.8950650297431" lon="11.200645352711666"><ele>168.5</ele><time>2026-04-11T07:40:37.97Z</time></trkpt><trkpt lat="43.895152789749424" lon="11.200786712223534"><ele>165.0</ele><time>2026-04-11T07:40:38.97Z</time></trkpt><trkpt lat="43.895241732300235" lon="11.200912343185625"><ele>161.5</ele><time>2026-04-11T07:40:39.97Z</time></trkpt><trkpt lat="43.89532710954302" lon="11.201047514445339"><ele>158.0</ele><time>2026-04-11T07:40:40.97Z</time></trkpt><trkpt lat="43.89541861930923" lon="11.20114937594524"><ele>158.0</ele><time>2026-04-11T07:40:41.97Z</time></trkpt><trkpt lat="43.89553507270837" lon="11.201211770665989"><ele>158.0</ele><time>2026-04-11T07:40:42.97Z</time></trkpt><trkpt lat="43.895670978886784" lon="11.201229885473996"><ele>158.0</ele><time>2026-04-11T07:40:43.97Z</time></trkpt><trkpt lat="43.89581986762393" lon="11.201223727513037"><ele>158.0</ele><time>2026-04-11T07:40:44.97Z</time></trkpt><trkpt lat="43.89596611387775" lon="11.201249914149091"><ele>154.33333333333331</ele><time>2026-04-11T07:40:45.97Z</time></trkpt><trkpt lat="43.8961174261794" lon="11.201323876015755"><ele>150.66666666666666</ele><time>2026-04-11T07:40:46.97Z</time></trkpt><trkpt lat="43.89626854840186" lon="11.201428111936078"><ele>147.0</ele><time>2026-04-11T07:40:47.97Z</time></trkpt><trkpt lat="43.89641050874012" lon="11.201565004467257"><ele>147.0</ele><time>2026-04-11T07:40:48.97Z</time></trkpt><trkpt lat="43.8965696260466" lon="11.20166990529411"><ele>147.0</ele><time>2026-04-11T07:40:49.97Z</time></trkpt><trkpt lat="43.89672635293671" lon="11.201798470285537"><ele>147.0</ele><time>2026-04-11T07:40:50.97Z</time></trkpt><trkpt lat="43.89686835641685" lon="11.201906400902002"><ele>154.33333333333334</ele><time>2026-04-11T07:40:51.97Z</time></trkpt><trkpt lat="43.89700672231564" lon="11.202023140790882"><ele>161.66666666666669</ele><time>2026-04-11T07:40:52.968Z</time></trkpt><trkpt lat="43.89714422156575" lon="11.2021383888381"><ele>169.0</ele><time>2026-04-11T07:40:53.967Z</time></trkpt><trkpt lat="43.897291215179905" lon="11.202252638673261"><ele>163.0</ele><time>2026-04-11T07:40:54.965Z</time></trkpt><trkpt lat="43.89744774372129" lon="11.202356425415301"><ele>157.0</ele><time>2026-04-11T07:40:55.964Z</time></trkpt><trkpt lat="43.8976132669668" lon="11.202432241940567"><ele>151.0</ele><time>2026-04-11T07:40:56.963Z</time></trkpt><trkpt lat="43.897768344090785" lon="11.20250637579054"><ele>151.0</ele><time>2026-04-11T07:40:57.961Z</time></trkpt><trkpt lat="43.89792640898605" lon="11.202577766834063"><ele>151.0</ele><time>2026-04-11T07:40:58.96Z</time></trkpt><trkpt lat="43.898075577809585" lon="11.202640982905002"><ele>151.0</ele><time>2026-04-11T07:40:59.959Z</time></trkpt><trkpt lat="43.898249344580776" lon="11.202693917556111"><ele>153.0</ele><time>2026-04-11T07:41:00.958Z</time></trkpt><trkpt lat="43.89843091091476" lon="11.202718337465415"><ele>155.0</ele><time>2026-04-11T07:41:01.957Z</time></trkpt><trkpt lat="43.89860832777561" lon="11.202731091510081"><ele>157.0</ele><time>2026-04-11T07:41:02.956Z</time></trkpt><trkpt lat="43.89879570290558" lon="11.202738645680602"><ele>157.0</ele><time>2026-04-11T07:41:03.956Z</time></trkpt><trkpt lat="43.89898021233477" lon="11.202742376451896"><ele>157.0</ele><time>2026-04-11T07:41:04.955Z</time></trkpt><trkpt lat="43.899163274646135" lon="11.202774730341103"><ele>157.0</ele><time>2026-04-11T07:41:05.954Z</time></trkpt><trkpt lat="43.89933298677578" lon="11.202795343121371"><ele>162.33333333333334</ele><time>2026-04-11T07:41:06.954Z</time></trkpt><trkpt lat="43.89950853738516" lon="11.202812500358675"><ele>167.66666666666666</ele><time>2026-04-11T07:41:07.953Z</time></trkpt><trkpt lat="43.899679940893165" lon="11.202832007228263"><ele>173.0</ele><time>2026-04-11T07:41:08.952Z</time></trkpt><trkpt lat="43.89984994532241" lon="11.20285695623646"><ele>173.0</ele><time>2026-04-11T07:41:09.952Z</time></trkpt><trkpt lat="43.89999948140269" lon="11.202860218154477"><ele>173.0</ele><time>2026-04-11T07:41:10.951Z</time></trkpt><trkpt lat="43.900139857436734" lon="11.202906379685771"><ele>173.0</ele><time>2026-04-11T07:41:11.951Z</time></trkpt><trkpt lat="43.90027163056054" lon="11.202986307919476"><ele>173.0</ele><time>2026-04-11T07:41:12.95Z</time></trkpt><trkpt lat="43.900388500529175" lon="11.203090524221519"><ele>169.66666666666666</ele><time>2026-04-11T07:41:13.95Z</time></trkpt><trkpt lat="43.90050458379083" lon="11.20322437600725"><ele>166.33333333333334</ele><time>2026-04-11T07:41:14.949Z</time></trkpt><trkpt lat="43.90062704281831" lon="11.203373989220474"><ele>163.0</ele><time>2026-04-11T07:41:15.949Z</time></trkpt><trkpt lat="43.900723010298854" lon="11.203569777997014"><ele>163.0</ele><time>2026-04-11T07:41:16.949Z</time></trkpt><trkpt lat="43.9007989016324" lon="11.20377019743515"><ele>163.0</ele><time>2026-04-11T07:41:17.948Z</time></trkpt><trkpt lat="43.90087470744782" lon="11.20397005029817"><ele>163.0</ele><time>2026-04-11T07:41:18.948Z</time></trkpt><trkpt lat="43.90094634083368" lon="11.20417158515164"><ele>166.0</ele><time>2026-04-11T07:41:19.948Z</time></trkpt><trkpt lat="43.9010299357609" lon="11.204406350257907"><ele>169.0</ele><time>2026-04-11T07:41:20.947Z</time></trkpt><trkpt lat="43.90111007947821" lon="11.204649228488794"><ele>172.0</ele><time>2026-04-11T07:41:21.947Z</time></trkpt><trkpt lat="43.90119850040583" lon="11.204891925731575"><ele>172.0</ele><time>2026-04-11T07:41:22.947Z</time></trkpt><trkpt lat="43.90128778902762" lon="11.2051292285995"><ele>172.0</ele><time>2026-04-11T07:41:23.947Z</time></trkpt><trkpt lat="43.90137405316908" lon="11.20537565739988"><ele>172.0</ele><time>2026-04-11T07:41:24.946Z</time></trkpt><trkpt lat="43.901463607441855" lon="11.205613074631971"><ele>168.33333333333334</ele><time>2026-04-11T07:41:25.946Z</time></trkpt><trkpt lat="43.90155439446353" lon="11.205841968526583"><ele>164.66666666666666</ele><time>2026-04-11T07:41:26.946Z</time></trkpt><trkpt lat="43.90164822092159" lon="11.206039098267077"><ele>161.0</ele><time>2026-04-11T07:41:27.946Z</time></trkpt><trkpt lat="43.901754236569374" lon="11.206245253446378"><ele>166.0</ele><time>2026-04-11T07:41:28.945Z</time></trkpt><trkpt lat="43.901844611778124" lon="11.206459906871642"><ele>171.0</ele><time>2026-04-11T07:41:29.945Z</time></trkpt><trkpt lat="43.90193110547979" lon="11.20666369943559"><ele>176.0</ele><time>2026-04-11T07:41:30.945Z</time></trkpt><trkpt lat="43.90203233293597" lon="11.206859127218689"><ele>176.0</ele><time>2026-04-11T07:41:31.944Z</time></trkpt><trkpt lat="43.902141664734486" lon="11.207009470947655"><ele>176.0</ele><time>2026-04-11T07:41:32.944Z</time></trkpt><trkpt lat="43.90226831601752" lon="11.207160523858402"><ele>176.0</ele><time>2026-04-11T07:41:33.945Z</time></trkpt><trkpt lat="43.902414978944456" lon="11.207274780221566"><ele>180.33333333333331</ele><time>2026-04-11T07:41:34.945Z</time></trkpt><trkpt lat="43.90255542998443" lon="11.207413568455117"><ele>184.66666666666666</ele><time>2026-04-11T07:41:35.945Z</time></trkpt><trkpt lat="43.90268771768086" lon="11.207578762611996"><ele>189.0</ele><time>2026-04-11T07:41:36.945Z</time></trkpt><trkpt lat="43.9028024288321" lon="11.207773450456052"><ele>189.0</ele><time>2026-04-11T07:41:37.944Z</time></trkpt><trkpt lat="43.90289857563448" lon="11.207982077752733"><ele>189.0</ele><time>2026-04-11T07:41:38.944Z</time></trkpt><trkpt lat="43.902971067379895" lon="11.2081996238932"><ele>189.0</ele><time>2026-04-11T07:41:39.944Z</time></trkpt><trkpt lat="43.903022269371334" lon="11.208421079861528"><ele>181.33333333333334</ele><time>2026-04-11T07:41:40.944Z</time></trkpt><trkpt lat="43.90304511833393" lon="11.208638791568397"><ele>173.66666666666669</ele><time>2026-04-11T07:41:41.944Z</time></trkpt><trkpt lat="43.90308117544629" lon="11.208846492773011"><ele>166.0</ele><time>2026-04-11T07:41:42.944Z</time></trkpt><trkpt lat="43.90314891796222" lon="11.209021090460862"><ele>165.0</ele><time>2026-04-11T07:41:43.944Z</time></trkpt><trkpt lat="43.90322377153117" lon="11.209150691978497"><ele>164.0</ele><time>2026-04-11T07:41:44.944Z</time></trkpt><trkpt lat="43.90332599138394" lon="11.209240299962984"><ele>163.0</ele><time>2026-04-11T07:41:45.944Z</time></trkpt><trkpt lat="43.90345844948086" lon="11.209306869935796"><ele>162.0</ele><time>2026-04-11T07:41:46.944Z</time></trkpt><trkpt lat="43.90360846265548" lon="11.209358195905875"><ele>166.0</ele><time>2026-04-11T07:41:47.944Z</time></trkpt><trkpt lat="43.903758590786225" lon="11.209413787253723"><ele>170.0</ele><time>2026-04-11T07:41:48.944Z</time></trkpt><trkpt lat="43.90392135286374" lon="11.209492440014532"><ele>174.0</ele><time>2026-04-11T07:41:49.943Z</time></trkpt><trkpt lat="43.90408052375508" lon="11.209551351090028"><ele>174.0</ele><time>2026-04-11T07:41:50.943Z</time></trkpt><trkpt lat="43.90423830607873" lon="11.209605417044768"><ele>174.0</ele><time>2026-04-11T07:41:51.943Z</time></trkpt><trkpt lat="43.90439504421229" lon="11.209655393614064"><ele>174.0</ele><time>2026-04-11T07:41:52.943Z</time></trkpt><trkpt lat="43.90454571846878" lon="11.209696997459147"><ele>172.75</ele><time>2026-04-11T07:41:53.943Z</time></trkpt><trkpt lat="43.90467954985925" lon="11.209747125293115"><ele>171.5</ele><time>2026-04-11T07:41:54.943Z</time></trkpt><trkpt lat="43.90482286350782" lon="11.209813098867894"><ele>170.25</ele><time>2026-04-11T07:41:55.943Z</time></trkpt><trkpt lat="43.904951188440506" lon="11.209878633587785"><ele>169.0</ele><time>2026-04-11T07:41:56.943Z</time></trkpt><trkpt lat="43.905058368295336" lon="11.209959515111944"><ele>175.5</ele><time>2026-04-11T07:41:57.943Z</time></trkpt><trkpt lat="43.9051157820564" lon="11.210076979139714"><ele>182.0</ele><time>2026-04-11T07:41:58.943Z</time></trkpt><trkpt lat="43.90512664067162" lon="11.210212363577556"><ele>188.5</ele><time>2026-04-11T07:41:59.943Z</time></trkpt><trkpt lat="43.90513176318806" lon="11.210406743075017"><ele>195.0</ele><time>2026-04-11T07:42:00.943Z</time></trkpt><trkpt lat="43.90512949631572" lon="11.210650059716158"><ele>188.0</ele><time>2026-04-11T07:42:01.943Z</time></trkpt><trkpt lat="43.90512494442482" lon="11.21088592645333"><ele>181.0</ele><time>2026-04-11T07:42:02.943Z</time></trkpt><trkpt lat="43.905119265573546" lon="11.211091137869904"><ele>174.0</ele><time>2026-04-11T07:42:03.943Z</time></trkpt><trkpt lat="43.905127980345824" lon="11.211293988112676"><ele>174.0</ele><time>2026-04-11T07:42:04.943Z</time></trkpt><trkpt lat="43.90511025827798" lon="11.21148288901261"><ele>174.0</ele><time>2026-04-11T07:42:05.943Z</time></trkpt><trkpt lat="43.905114990817694" lon="11.211680226226424"><ele>174.0</ele><time>2026-04-11T07:42:06.943Z</time></trkpt><trkpt lat="43.905128920348005" lon="11.211869204362506"><ele>174.0</ele><time>2026-04-11T07:42:07.943Z</time></trkpt><trkpt lat="43.90515325146723" lon="11.212050633697304"><ele>172.25</ele><time>2026-04-11T07:42:08.943Z</time></trkpt><trkpt lat="43.90520877580238" lon="11.21219546445141"><ele>170.5</ele><time>2026-04-11T07:42:09.943Z</time></trkpt><trkpt lat="43.90529809399062" lon="11.21228535416475"><ele>168.75</ele><time>2026-04-11T07:42:10.943Z</time></trkpt><trkpt lat="43.90540408556172" lon="11.212350203444908"><ele>167.0</ele><time>2026-04-11T07:42:11.943Z</time></trkpt><trkpt lat="43.905546376125194" lon="11.212403640237037"><ele>166.25</ele><time>2026-04-11T07:42:12.943Z</time></trkpt><trkpt lat="43.90569654880798" lon="11.21244743955636"><ele>165.5</ele><time>2026-04-11T07:42:13.943Z</time></trkpt><trkpt lat="43.90584086947559" lon="11.212493729742402"><ele>164.75</ele><time>2026-04-11T07:42:14.943Z</time></trkpt><trkpt lat="43.90597625866647" lon="11.212557011811276"><ele>164.0</ele><time>2026-04-11T07:42:15.942Z</time></trkpt><trkpt lat="43.9060970753653" lon="11.21263728877033"><ele>168.33333333333331</ele><time>2026-04-11T07:42:16.942Z</time></trkpt><trkpt lat="43.90621951201669" lon="11.212754905373817"><ele>172.66666666666666</ele><time>2026-04-11T07:42:17.942Z</time></trkpt><trkpt lat="43.90631367556408" lon="11.212916261225741"><ele>177.0</ele><time>2026-04-11T07:42:18.942Z</time></trkpt><trkpt lat="43.906415237436704" lon="11.213096431325571"><ele>175.33333333333334</ele><time>2026-04-11T07:42:19.942Z</time></trkpt><trkpt lat="43.90649816308302" lon="11.21331119146933"><ele>173.66666666666669</ele><time>2026-04-11T07:42:20.942Z</time></trkpt><trkpt lat="43.90657850118858" lon="11.21351969737064"><ele>172.0</ele><time>2026-04-11T07:42:21.942Z</time></trkpt><trkpt lat="43.9066539969371" lon="11.21372698203331"><ele>172.0</ele><time>2026-04-11T07:42:22.942Z</time></trkpt><trkpt lat="43.90672489029009" lon="11.213935782548258"><ele>172.0</ele><time>2026-04-11T07:42:23.942Z</time></trkpt><trkpt lat="43.906789053646364" lon="11.214152990540967"><ele>172.0</ele><time>2026-04-11T07:42:24.942Z</time></trkpt><trkpt lat="43.90684651107809" lon="11.214358520250443"><ele>173.66666666666669</ele><time>2026-04-11T07:42:25.942Z</time></trkpt><trkpt lat="43.90691000834365" lon="11.214570775771985"><ele>175.33333333333334</ele><time>2026-04-11T07:42:26.942Z</time></trkpt><trkpt lat="43.906974209995006" lon="11.214782569854686"><ele>177.0</ele><time>2026-04-11T07:42:27.942Z</time></trkpt><trkpt lat="43.907049942385726" lon="11.214988956937635"><ele>177.0</ele><time>2026-04-11T07:42:28.942Z</time></trkpt><trkpt lat="43.907125756492306" lon="11.215178383035958"><ele>177.0</ele><time>2026-04-11T07:42:29.942Z</time></trkpt><trkpt lat="43.90722699265543" lon="11.21532875718227"><ele>177.0</ele><time>2026-04-11T07:42:30.942Z</time></trkpt><trkpt lat="43.90733542296424" lon="11.215445771516368"><ele>177.0</ele><time>2026-04-11T07:42:31.942Z</time></trkpt><trkpt lat="43.90744755472542" lon="11.215556603656113"><ele>177.0</ele><time>2026-04-11T07:42:32.942Z</time></trkpt><trkpt lat="43.907555647645246" lon="11.215647224404018"><ele>177.0</ele><time>2026-04-11T07:42:33.942Z</time></trkpt><trkpt lat="43.907668801426446" lon="11.215743166680591"><ele>177.0</ele><time>2026-04-11T07:42:34.942Z</time></trkpt><trkpt lat="43.90778204094798" lon="11.215822357043491"><ele>177.0</ele><time>2026-04-11T07:42:35.942Z</time></trkpt><trkpt lat="43.907903796451976" lon="11.215917264885102"><ele>177.5</ele><time>2026-04-11T07:42:36.942Z</time></trkpt><trkpt lat="43.908009142396445" lon="11.216012228780162"><ele>178.0</ele><time>2026-04-11T07:42:37.942Z</time></trkpt><trkpt lat="43.908112889813225" lon="11.216111152045732"><ele>178.5</ele><time>2026-04-11T07:42:38.942Z</time></trkpt><trkpt lat="43.90820534445639" lon="11.216191453725285"><ele>179.0</ele><time>2026-04-11T07:42:39.942Z</time></trkpt><trkpt lat="43.90828925214845" lon="11.216273374178009"><ele>179.0</ele><time>2026-04-11T07:42:40.942Z</time></trkpt><trkpt lat="43.90836087061304" lon="11.216355756156156"><ele>179.0</ele><time>2026-04-11T07:42:41.942Z</time></trkpt><trkpt lat="43.908423780601616" lon="11.216436852486625"><ele>179.0</ele><time>2026-04-11T07:42:42.942Z</time></trkpt><trkpt lat="43.90847031072413" lon="11.216500188887977"><ele>179.0</ele><time>2026-04-11T07:42:43.942Z</time></trkpt><trkpt lat="43.90854898324156" lon="11.216575002390249"><ele>179.0</ele><time>2026-04-11T07:42:45.942Z</time></trkpt><trkpt lat="43.90865120829505" lon="11.216467930202791"><ele>178.79999999999998</ele><time>2026-04-11T07:42:49.942Z</time></trkpt><trkpt lat="43.90868002049451" lon="11.21672297237346"><ele>178.6</ele><time>2026-04-11T07:42:52.942Z</time></trkpt><trkpt lat="43.90873916082313" lon="11.216786935013278"><ele>178.4</ele><time>2026-04-11T07:42:53.942Z</time></trkpt><trkpt lat="43.908796981024636" lon="11.216849469187425"><ele>178.2</ele><time>2026-04-11T07:42:54.942Z</time></trkpt><trkpt lat="43.9088519461176" lon="11.21690891546283"><ele>178.0</ele><time>2026-04-11T07:42:55.942Z</time></trkpt><trkpt lat="43.9089064668766" lon="11.216967881190216"><ele>178.0</ele><time>2026-04-11T07:42:56.942Z</time></trkpt><trkpt lat="43.90896125927329" lon="11.217027140716073"><ele>178.0</ele><time>2026-04-11T07:42:57.942Z</time></trkpt><trkpt lat="43.90901163991136" lon="11.217082526739205"><ele>178.0</ele><time>2026-04-11T07:42:58.942Z</time></trkpt><trkpt lat="43.90906357269896" lon="11.217140924435311"><ele>178.0</ele><time>2026-04-11T07:42:59.941Z</time></trkpt><trkpt lat="43.909164131457565" lon="11.21725271935815"><ele>178.0</ele><time>2026-04-11T07:43:01.941Z</time></trkpt><trkpt lat="43.90923900012626" lon="11.217332246619094"><ele>178.0</ele><time>2026-04-11T07:43:03.941Z</time></trkpt><trkpt lat="43.90947687824705" lon="11.217116936303942"><ele>179.25</ele><time>2026-04-11T07:43:05.941Z</time></trkpt><trkpt lat="43.90954657469673" lon="11.217204858927673"><ele>180.5</ele><time>2026-04-11T07:43:07.941Z</time></trkpt><trkpt lat="43.90958148906151" lon="11.217292204793415"><ele>181.75</ele><time>2026-04-11T07:43:10.941Z</time></trkpt><trkpt lat="43.90949902559383" lon="11.217571758444974"><ele>183.0</ele><time>2026-04-11T07:43:19.941Z</time></trkpt><trkpt lat="43.90955942161783" lon="11.217433364878074"><ele>183.0</ele><time>2026-04-11T07:43:20.941Z</time></trkpt><trkpt lat="43.90951018362065" lon="11.217580336390965"><ele>183.0</ele><time>2026-04-11T07:43:21.941Z</time></trkpt><trkpt lat="43.90944673613127" lon="11.217618972853103"><ele>183.0</ele><time>2026-04-11T07:43:28.941Z</time></trkpt><trkpt lat="43.90939922296039" lon="11.217686180578287"><ele>183.0</ele><time>2026-04-11T07:43:29.941Z</time></trkpt><trkpt lat="43.90933648972491" lon="11.21776045898334"><ele>183.0</ele><time>2026-04-11T07:43:30.941Z</time></trkpt><trkpt lat="43.90927311998198" lon="11.217828297099675"><ele>183.0</ele><time>2026-04-11T07:43:31.941Z</time></trkpt><trkpt lat="43.909213118164274" lon="11.217890994945645"><ele>182.0</ele><time>2026-04-11T07:43:32.941Z</time></trkpt><trkpt lat="43.90915308680832" lon="11.217950465871116"><ele>181.0</ele><time>2026-04-11T07:43:33.941Z</time></trkpt><trkpt lat="43.90910104636645" lon="11.218025330515635"><ele>180.0</ele><time>2026-04-11T07:43:34.94Z</time></trkpt><trkpt lat="43.90903368044337" lon="11.218089516972212"><ele>179.0</ele><time>2026-04-11T07:43:35.94Z</time></trkpt><trkpt lat="43.908970017069954" lon="11.218160772768996"><ele>178.0</ele><time>2026-04-11T07:43:36.94Z</time></trkpt><trkpt lat="43.90889322988249" lon="11.218237832945135"><ele>177.0</ele><time>2026-04-11T07:43:37.94Z</time></trkpt><trkpt lat="43.90881047748034" lon="11.21829975586652"><ele>177.0</ele><time>2026-04-11T07:43:38.94Z</time></trkpt><trkpt lat="43.90873350230772" lon="11.218395256180713"><ele>177.0</ele><time>2026-04-11T07:43:39.941Z</time></trkpt><trkpt lat="43.90865393094408" lon="11.21846873767342"><ele>177.0</ele><time>2026-04-11T07:43:40.94Z</time></trkpt><trkpt lat="43.90858716703022" lon="11.218518833976908"><ele>177.0</ele><time>2026-04-11T07:43:41.94Z</time></trkpt><trkpt lat="43.908520309078604" lon="11.218599854240429"><ele>177.0</ele><time>2026-04-11T07:43:42.94Z</time></trkpt><trkpt lat="43.908435511937896" lon="11.218655154720711"><ele>177.0</ele><time>2026-04-11T07:43:43.94Z</time></trkpt><trkpt lat="43.90835048410483" lon="11.21873396957054"><ele>177.0</ele><time>2026-04-11T07:43:44.94Z</time></trkpt><trkpt lat="43.90826875534467" lon="11.21880968026626"><ele>177.0</ele><time>2026-04-11T07:43:45.94Z</time></trkpt><trkpt lat="43.90818997052584" lon="11.218887005242594"><ele>177.0</ele><time>2026-04-11T07:43:46.94Z</time></trkpt><trkpt lat="43.90811506154028" lon="11.218963075763499"><ele>177.0</ele><time>2026-04-11T07:43:47.94Z</time></trkpt><trkpt lat="43.908047472687876" lon="11.21905223639341"><ele>177.0</ele><time>2026-04-11T07:43:48.94Z</time></trkpt><trkpt lat="43.90797793977874" lon="11.219139550073846"><ele>177.0</ele><time>2026-04-11T07:43:49.94Z</time></trkpt><trkpt lat="43.90790265999495" lon="11.21920714577182"><ele>177.0</ele><time>2026-04-11T07:43:50.94Z</time></trkpt><trkpt lat="43.907850387225785" lon="11.219294040009686"><ele>177.0</ele><time>2026-04-11T07:43:51.94Z</time></trkpt><trkpt lat="43.907812749833276" lon="11.219388003844172"><ele>177.0</ele><time>2026-04-11T07:43:52.94Z</time></trkpt><trkpt lat="43.90777930933678" lon="11.219476077281898"><ele>177.0</ele><time>2026-04-11T07:43:53.94Z</time></trkpt><trkpt lat="43.90769619216347" lon="11.219609000037032"><ele>177.0</ele><time>2026-04-11T07:43:55.94Z</time></trkpt><trkpt lat="43.90762779835096" lon="11.219633767018975"><ele>177.0</ele><time>2026-04-11T07:43:56.94Z</time></trkpt><trkpt lat="43.90755240014599" lon="11.219635434691117"><ele>177.0</ele><time>2026-04-11T07:43:57.94Z</time></trkpt><trkpt lat="43.907479100201094" lon="11.219623002489264"><ele>177.0</ele><time>2026-04-11T07:43:58.94Z</time></trkpt><trkpt lat="43.907392406142534" lon="11.21960246867571"><ele>177.0</ele><time>2026-04-11T07:43:59.94Z</time></trkpt><trkpt lat="43.90729509319121" lon="11.219598312614378"><ele>177.0</ele><time>2026-04-11T07:44:00.94Z</time></trkpt><trkpt lat="43.90720644732277" lon="11.219596656751895"><ele>178.6</ele><time>2026-04-11T07:44:01.94Z</time></trkpt><trkpt lat="43.90711461958934" lon="11.219596671567455"><ele>180.2</ele><time>2026-04-11T07:44:02.94Z</time></trkpt><trkpt lat="43.90703988490097" lon="11.219598159418142"><ele>181.8</ele><time>2026-04-11T07:44:03.94Z</time></trkpt><trkpt lat="43.906951085281726" lon="11.219562001899673"><ele>183.4</ele><time>2026-04-11T07:44:04.94Z</time></trkpt><trkpt lat="43.9068571175831" lon="11.219563056978377"><ele>185.0</ele><time>2026-04-11T07:44:05.94Z</time></trkpt><trkpt lat="43.90675621091152" lon="11.219584298561186"><ele>188.4</ele><time>2026-04-11T07:44:06.94Z</time></trkpt><trkpt lat="43.90665791402962" lon="11.219625768941603"><ele>191.8</ele><time>2026-04-11T07:44:07.94Z</time></trkpt><trkpt lat="43.906568098696674" lon="11.219677821621323"><ele>195.2</ele><time>2026-04-11T07:44:08.94Z</time></trkpt><trkpt lat="43.90647434053667" lon="11.219755670655944"><ele>198.6</ele><time>2026-04-11T07:44:09.94Z</time></trkpt><trkpt lat="43.90638246880517" lon="11.219828033099947"><ele>202.0</ele><time>2026-04-11T07:44:10.94Z</time></trkpt><trkpt lat="43.90628703163653" lon="11.219913659512034"><ele>203.5</ele><time>2026-04-11T07:44:11.94Z</time></trkpt><trkpt lat="43.90617528181938" lon="11.219965128728434"><ele>205.0</ele><time>2026-04-11T07:44:12.94Z</time></trkpt><trkpt lat="43.906065452416584" lon="11.22000895513708"><ele>206.5</ele><time>2026-04-11T07:44:13.94Z</time></trkpt><trkpt lat="43.90595339952519" lon="11.220039808487362"><ele>208.0</ele><time>2026-04-11T07:44:14.94Z</time></trkpt><trkpt lat="43.90582737487028" lon="11.220052163570875"><ele>210.2</ele><time>2026-04-11T07:44:15.94Z</time></trkpt><trkpt lat="43.90571122544178" lon="11.220063119478413"><ele>212.4</ele><time>2026-04-11T07:44:16.94Z</time></trkpt><trkpt lat="43.90559923143859" lon="11.220072604057016"><ele>214.59999999999997</ele><time>2026-04-11T07:44:17.94Z</time></trkpt><trkpt lat="43.905511763639396" lon="11.220083097227807"><ele>216.79999999999998</ele><time>2026-04-11T07:44:18.94Z</time></trkpt><trkpt lat="43.905415405142634" lon="11.220079310849284"><ele>219.0</ele><time>2026-04-11T07:44:19.94Z</time></trkpt><trkpt lat="43.90534643537349" lon="11.220067221227488"><ele>219.0</ele><time>2026-04-11T07:44:20.94Z</time></trkpt><trkpt lat="43.90527066683039" lon="11.220046246037262"><ele>219.0</ele><time>2026-04-11T07:44:21.94Z</time></trkpt><trkpt lat="43.905187332704585" lon="11.220069892625833"><ele>219.0</ele><time>2026-04-11T07:44:23.94Z</time></trkpt><trkpt lat="43.90522384205986" lon="11.22020500014979"><ele>219.0</ele><time>2026-04-11T07:44:29.939Z</time></trkpt><trkpt lat="43.90524738681292" lon="11.220296041876027"><ele>219.0</ele><time>2026-04-11T07:44:30.939Z</time></trkpt><trkpt lat="43.90530489751804" lon="11.220377003029654"><ele>219.0</ele><time>2026-04-11T07:44:31.939Z</time></trkpt><trkpt lat="43.905377618979415" lon="11.220463977059461"><ele>219.0</ele><time>2026-04-11T07:44:32.939Z</time></trkpt><trkpt lat="43.905470904702675" lon="11.220561729036623"><ele>218.99999999999997</ele><time>2026-04-11T07:44:33.939Z</time></trkpt><trkpt lat="43.90554704308644" lon="11.220621565557902"><ele>218.99999999999997</ele><time>2026-04-11T07:44:34.939Z</time></trkpt><trkpt lat="43.905637893900966" lon="11.22072837254969"><ele>219.0</ele><time>2026-04-11T07:44:35.939Z</time></trkpt><trkpt lat="43.905722649180355" lon="11.220821053858957"><ele>219.0</ele><time>2026-04-11T07:44:36.939Z</time></trkpt><trkpt lat="43.90580418144337" lon="11.220896462859654"><ele>219.16666666666666</ele><time>2026-04-11T07:44:37.939Z</time></trkpt><trkpt lat="43.905874370984385" lon="11.220970149303835"><ele>219.33333333333331</ele><time>2026-04-11T07:44:38.939Z</time></trkpt><trkpt lat="43.905947720154174" lon="11.221039185882914"><ele>219.5</ele><time>2026-04-11T07:44:39.939Z</time></trkpt><trkpt lat="43.90601880445897" lon="11.221110576056535"><ele>219.66666666666666</ele><time>2026-04-11T07:44:40.939Z</time></trkpt><trkpt lat="43.90609669432324" lon="11.221181930789202"><ele>219.83333333333331</ele><time>2026-04-11T07:44:41.939Z</time></trkpt><trkpt lat="43.90614877068487" lon="11.221231681385541"><ele>220.0</ele><time>2026-04-11T07:44:42.939Z</time></trkpt><trkpt lat="43.9062104844484" lon="11.221275623153414"><ele>219.99999999999997</ele><time>2026-04-11T07:44:43.939Z</time></trkpt><trkpt lat="43.90625500944944" lon="11.221369873862976"><ele>220.0</ele><time>2026-04-11T07:44:44.939Z</time></trkpt><trkpt lat="43.9062571091628" lon="11.221479203763158"><ele>220.0</ele><time>2026-04-11T07:44:45.939Z</time></trkpt><trkpt lat="43.90623416157208" lon="11.221562617757174"><ele>220.0</ele><time>2026-04-11T07:44:46.939Z</time></trkpt><trkpt lat="43.90613913214384" lon="11.221628431324502"><ele>219.99999999999997</ele><time>2026-04-11T07:44:48.939Z</time></trkpt><trkpt lat="43.906040618747426" lon="11.221628344578376"><ele>220.0</ele><time>2026-04-11T07:44:50.939Z</time></trkpt><trkpt lat="43.90597752259059" lon="11.221596166541831"><ele>224.8</ele><time>2026-04-11T07:44:51.939Z</time></trkpt><trkpt lat="43.905853910165305" lon="11.221578485519924"><ele>229.6</ele><time>2026-04-11T07:44:53.939Z</time></trkpt><trkpt lat="43.90575627699462" lon="11.221576146597648"><ele>234.39999999999998</ele><time>2026-04-11T07:44:55.939Z</time></trkpt><trkpt lat="43.905651052473786" lon="11.221647889596854"><ele>239.2</ele><time>2026-04-11T07:44:57.939Z</time></trkpt><trkpt lat="43.90556026284752" lon="11.221683105288898"><ele>244.0</ele><time>2026-04-11T07:44:58.939Z</time></trkpt><trkpt lat="43.90547710535392" lon="11.221714838459324"><ele>244.0</ele><time>2026-04-11T07:44:59.939Z</time></trkpt><trkpt lat="43.90539180751166" lon="11.221768957838442"><ele>243.99999999999997</ele><time>2026-04-11T07:45:00.939Z</time></trkpt><trkpt lat="43.90529441513107" lon="11.221802690756387"><ele>243.99999999999997</ele><time>2026-04-11T07:45:01.939Z</time></trkpt><trkpt lat="43.905202270716664" lon="11.221845832083513"><ele>244.0</ele><time>2026-04-11T07:45:02.939Z</time></trkpt><trkpt lat="43.90510528605878" lon="11.221850872345811"><ele>244.0</ele><time>2026-04-11T07:45:03.939Z</time></trkpt><trkpt lat="43.905028751121804" lon="11.221854487758353"><ele>246.0</ele><time>2026-04-11T07:45:04.939Z</time></trkpt><trkpt lat="43.90494681040891" lon="11.221867735465466"><ele>247.99999999999997</ele><time>2026-04-11T07:45:05.939Z</time></trkpt><trkpt lat="43.90486178052234" lon="11.221894015269985"><ele>249.99999999999997</ele><time>2026-04-11T07:45:06.939Z</time></trkpt><trkpt lat="43.90476383403982" lon="11.221922902663184"><ele>252.0</ele><time>2026-04-11T07:45:07.939Z</time></trkpt><trkpt lat="43.90466630029742" lon="11.221954712768671"><ele>254.0</ele><time>2026-04-11T07:45:08.939Z</time></trkpt><trkpt lat="43.90455951858367" lon="11.222015838379388"><ele>254.00000000000003</ele><time>2026-04-11T07:45:09.939Z</time></trkpt><trkpt lat="43.90446268180631" lon="11.2220837377585"><ele>254.0</ele><time>2026-04-11T07:45:10.939Z</time></trkpt><trkpt lat="43.90437784879577" lon="11.222167968154363"><ele>254.0</ele><time>2026-04-11T07:45:11.939Z</time></trkpt><trkpt lat="43.90432428471468" lon="11.222263600055744"><ele>254.0</ele><time>2026-04-11T07:45:12.939Z</time></trkpt><trkpt lat="43.90427787786985" lon="11.222354147790082"><ele>254.00000000000003</ele><time>2026-04-11T07:45:13.939Z</time></trkpt><trkpt lat="43.90421675532533" lon="11.222383774900967"><ele>254.0</ele><time>2026-04-11T07:45:14.939Z</time></trkpt><trkpt lat="43.90415915032056" lon="11.222431551528539"><ele>254.25</ele><time>2026-04-11T07:45:15.939Z</time></trkpt><trkpt lat="43.904070001764914" lon="11.222438513842379"><ele>254.5</ele><time>2026-04-11T07:45:17.938Z</time></trkpt><trkpt lat="43.9039352386737" lon="11.222367632977411"><ele>254.75</ele><time>2026-04-11T07:45:19.938Z</time></trkpt><trkpt lat="43.903850304414135" lon="11.222309447731972"><ele>255.0</ele><time>2026-04-11T07:45:20.938Z</time></trkpt><trkpt lat="43.9037368497014" lon="11.222244372000073"><ele>255.0</ele><time>2026-04-11T07:45:21.938Z</time></trkpt><trkpt lat="43.90363567542282" lon="11.222220510826014"><ele>255.0</ele><time>2026-04-11T07:45:22.938Z</time></trkpt><trkpt lat="43.90352856124071" lon="11.222171775509697"><ele>255.0</ele><time>2026-04-11T07:45:23.938Z</time></trkpt><trkpt lat="43.903427549804064" lon="11.222137563427026"><ele>255.0</ele><time>2026-04-11T07:45:24.938Z</time></trkpt><trkpt lat="43.903319225125486" lon="11.22210441494996"><ele>255.0</ele><time>2026-04-11T07:45:25.938Z</time></trkpt><trkpt lat="43.90320836367549" lon="11.222068275288771"><ele>256.4</ele><time>2026-04-11T07:45:26.938Z</time></trkpt><trkpt lat="43.90310797720897" lon="11.22202207093239"><ele>257.8</ele><time>2026-04-11T07:45:27.938Z</time></trkpt><trkpt lat="43.90301071846591" lon="11.222009129293175"><ele>259.2</ele><time>2026-04-11T07:45:28.938Z</time></trkpt><trkpt lat="43.90293493755806" lon="11.221976629628685"><ele>260.6</ele><time>2026-04-11T07:45:29.938Z</time></trkpt><trkpt lat="43.902813561841235" lon="11.221972730381566"><ele>262.0</ele><time>2026-04-11T07:45:31.938Z</time></trkpt><trkpt lat="43.90273531561507" lon="11.221982725673968"><ele>262.0</ele><time>2026-04-11T07:45:32.938Z</time></trkpt><trkpt lat="43.902659506907995" lon="11.221975603100258"><ele>262.0</ele><time>2026-04-11T07:45:33.938Z</time></trkpt><trkpt lat="43.90256642953178" lon="11.221989565381028"><ele>262.0</ele><time>2026-04-11T07:45:34.938Z</time></trkpt><trkpt lat="43.90246822389488" lon="11.222006086372785"><ele>262.0</ele><time>2026-04-11T07:45:35.938Z</time></trkpt><trkpt lat="43.90238923523561" lon="11.222023385056477"><ele>262.0</ele><time>2026-04-11T07:45:36.938Z</time></trkpt><trkpt lat="43.90232690123594" lon="11.222037483343039"><ele>262.0</ele><time>2026-04-11T07:45:37.938Z</time></trkpt><trkpt lat="43.90221286922281" lon="11.222028463939859"><ele>264.5</ele><time>2026-04-11T07:45:39.938Z</time></trkpt><trkpt lat="43.90215140558507" lon="11.222001268686924"><ele>267.0</ele><time>2026-04-11T07:45:40.938Z</time></trkpt><trkpt lat="43.90207701470823" lon="11.221957031884717"><ele>269.5</ele><time>2026-04-11T07:45:41.937Z</time></trkpt><trkpt lat="43.90198887028996" lon="11.221936179874584"><ele>272.0</ele><time>2026-04-11T07:45:42.938Z</time></trkpt><trkpt lat="43.9018984627044" lon="11.221864092152115"><ele>274.5</ele><time>2026-04-11T07:45:43.937Z</time></trkpt><trkpt lat="43.90179953457448" lon="11.221806977675131"><ele>277.0</ele><time>2026-04-11T07:45:44.937Z</time></trkpt><trkpt lat="43.901681803016515" lon="11.221774719509925"><ele>277.66666666666663</ele><time>2026-04-11T07:45:45.938Z</time></trkpt><trkpt lat="43.90159117982636" lon="11.221745033609844"><ele>278.3333333333333</ele><time>2026-04-11T07:45:46.937Z</time></trkpt><trkpt lat="43.90149828731399" lon="11.221732117973477"><ele>279.0</ele><time>2026-04-11T07:45:47.937Z</time></trkpt><trkpt lat="43.90142406764636" lon="11.22173600767325"><ele>279.6666666666667</ele><time>2026-04-11T07:45:48.938Z</time></trkpt><trkpt lat="43.90135335172155" lon="11.22173151067126"><ele>280.33333333333337</ele><time>2026-04-11T07:45:49.937Z</time></trkpt><trkpt lat="43.901284476534144" lon="11.22174882899039"><ele>281.0</ele><time>2026-04-11T07:45:50.937Z</time></trkpt><trkpt lat="43.9012125611035" lon="11.221797763284888"><ele>281.0</ele><time>2026-04-11T07:45:51.938Z</time></trkpt><trkpt lat="43.90115361050198" lon="11.2218873041057"><ele>281.0</ele><time>2026-04-11T07:45:52.937Z</time></trkpt><trkpt lat="43.901089339904956" lon="11.221988860919257"><ele>281.0</ele><time>2026-04-11T07:45:53.937Z</time></trkpt><trkpt lat="43.90102264764697" lon="11.222083905421147"><ele>281.0</ele><time>2026-04-11T07:45:54.937Z</time></trkpt><trkpt lat="43.900970676543665" lon="11.222173127054505"><ele>281.0</ele><time>2026-04-11T07:45:55.937Z</time></trkpt><trkpt lat="43.90093640317572" lon="11.222258862570085"><ele>281.0</ele><time>2026-04-11T07:45:56.937Z</time></trkpt><trkpt lat="43.90090382928023" lon="11.222336164063261"><ele>280.0</ele><time>2026-04-11T07:45:57.937Z</time></trkpt><trkpt lat="43.90081485901605" lon="11.222398258997327"><ele>279.0</ele><time>2026-04-11T07:45:59.937Z</time></trkpt><trkpt lat="43.90074577378448" lon="11.222372509757182"><ele>278.0</ele><time>2026-04-11T07:46:00.937Z</time></trkpt><trkpt lat="43.90067682232815" lon="11.222346788710277"><ele>277.0</ele><time>2026-04-11T07:46:01.937Z</time></trkpt><trkpt lat="43.900598481253645" lon="11.222321063028277"><ele>276.0</ele><time>2026-04-11T07:46:02.937Z</time></trkpt><trkpt lat="43.90051442309763" lon="11.222359892415723"><ele>275.0</ele><time>2026-04-11T07:46:04.937Z</time></trkpt><trkpt lat="43.900487375654066" lon="11.222463497425023"><ele>275.0</ele><time>2026-04-11T07:46:05.937Z</time></trkpt><trkpt lat="43.90047243287553" lon="11.222565541393053"><ele>275.0</ele><time>2026-04-11T07:46:06.937Z</time></trkpt><trkpt lat="43.90044612965192" lon="11.222680517036249"><ele>275.0</ele><time>2026-04-11T07:46:07.937Z</time></trkpt><trkpt lat="43.900406171255696" lon="11.222784094623126"><ele>275.0</ele><time>2026-04-11T07:46:08.937Z</time></trkpt><trkpt lat="43.90035041456963" lon="11.222882235655643"><ele>275.0</ele><time>2026-04-11T07:46:09.937Z</time></trkpt><trkpt lat="43.90028880157296" lon="11.222973589744136"><ele>275.0</ele><time>2026-04-11T07:46:10.937Z</time></trkpt><trkpt lat="43.90021705921758" lon="11.223056891301752"><ele>275.0</ele><time>2026-04-11T07:46:11.937Z</time></trkpt><trkpt lat="43.90014300465612" lon="11.223113408598447"><ele>275.0</ele><time>2026-04-11T07:46:12.937Z</time></trkpt><trkpt lat="43.900077062962474" lon="11.223167947275114"><ele>275.0</ele><time>2026-04-11T07:46:13.937Z</time></trkpt><trkpt lat="43.900015199691694" lon="11.223197989707767"><ele>275.0</ele><time>2026-04-11T07:46:14.937Z</time></trkpt><trkpt lat="43.89989917761543" lon="11.223241303855579"><ele>275.0</ele><time>2026-04-11T07:46:16.937Z</time></trkpt><trkpt lat="43.899834629053835" lon="11.223272182561265"><ele>275.0</ele><time>2026-04-11T07:46:17.937Z</time></trkpt><trkpt lat="43.899772189842274" lon="11.223313147397784"><ele>278.8</ele><time>2026-04-11T07:46:18.937Z</time></trkpt><trkpt lat="43.89970149143345" lon="11.223379326062693"><ele>282.6</ele><time>2026-04-11T07:46:19.937Z</time></trkpt><trkpt lat="43.899647592767195" lon="11.223480119284217"><ele>286.4</ele><time>2026-04-11T07:46:20.937Z</time></trkpt><trkpt lat="43.89960292637731" lon="11.22360908278605"><ele>290.2</ele><time>2026-04-11T07:46:21.937Z</time></trkpt><trkpt lat="43.89958331038899" lon="11.223769151194299"><ele>294.0</ele><time>2026-04-11T07:46:22.937Z</time></trkpt><trkpt lat="43.89956930657227" lon="11.22392415544131"><ele>293.8</ele><time>2026-04-11T07:46:23.937Z</time></trkpt><trkpt lat="43.899597100426064" lon="11.224072503917567"><ele>293.59999999999997</ele><time>2026-04-11T07:46:24.937Z</time></trkpt><trkpt lat="43.89962342862473" lon="11.224222013732161"><ele>293.4</ele><time>2026-04-11T07:46:25.937Z</time></trkpt><trkpt lat="43.89963798563679" lon="11.224347146916676"><ele>293.2</ele><time>2026-04-11T07:46:26.937Z</time></trkpt><trkpt lat="43.899631560589086" lon="11.224455943053865"><ele>293.0</ele><time>2026-04-11T07:46:27.937Z</time></trkpt><trkpt lat="43.89961742699928" lon="11.224582073827316"><ele>293.0</ele><time>2026-04-11T07:46:28.937Z</time></trkpt><trkpt lat="43.899591753789075" lon="11.224669631065025"><ele>293.0</ele><time>2026-04-11T07:46:29.937Z</time></trkpt><trkpt lat="43.89955598112557" lon="11.224777358317853"><ele>293.0</ele><time>2026-04-11T07:46:30.937Z</time></trkpt><trkpt lat="43.899526578934776" lon="11.22488027348233"><ele>293.0</ele><time>2026-04-11T07:46:31.937Z</time></trkpt><trkpt lat="43.899497327068225" lon="11.224986839654415"><ele>293.0</ele><time>2026-04-11T07:46:32.937Z</time></trkpt><trkpt lat="43.89949443501647" lon="11.225094198544465"><ele>293.0</ele><time>2026-04-11T07:46:33.937Z</time></trkpt><trkpt lat="43.899461266645645" lon="11.225231823112878"><ele>295.0</ele><time>2026-04-11T07:46:35.936Z</time></trkpt><trkpt lat="43.899549031784595" lon="11.225333256521933"><ele>297.0</ele><time>2026-04-11T07:46:37.936Z</time></trkpt><trkpt lat="43.899617357541615" lon="11.225391944388292"><ele>299.0</ele><time>2026-04-11T07:46:38.936Z</time></trkpt><trkpt lat="43.89966250382795" lon="11.225466748007602"><ele>301.0</ele><time>2026-04-11T07:46:39.936Z</time></trkpt><trkpt lat="43.89966324841828" lon="11.225577260520476"><ele>303.0</ele><time>2026-04-11T07:46:41.936Z</time></trkpt><trkpt lat="43.899587175726786" lon="11.225680440414404"><ele>303.5</ele><time>2026-04-11T07:46:43.936Z</time></trkpt><trkpt lat="43.89950740729061" lon="11.225806436497543"><ele>304.0</ele><time>2026-04-11T07:46:45.936Z</time></trkpt><trkpt lat="43.89945306308285" lon="11.22586138628063"><ele>304.5</ele><time>2026-04-11T07:46:46.936Z</time></trkpt><trkpt lat="43.899348304753154" lon="11.225917445643741"><ele>305.0</ele><time>2026-04-11T07:46:48.936Z</time></trkpt><trkpt lat="43.89927719407778" lon="11.225943497306767"><ele>305.5</ele><time>2026-04-11T07:46:49.936Z</time></trkpt><trkpt lat="43.899211677845514" lon="11.225963021341153"><ele>306.0</ele><time>2026-04-11T07:46:50.936Z</time></trkpt><trkpt lat="43.89915048237568" lon="11.225989504017324"><ele>309.3333333333333</ele><time>2026-04-11T07:46:51.936Z</time></trkpt><trkpt lat="43.899062322581" lon="11.226040807345573"><ele>312.6666666666667</ele><time>2026-04-11T07:46:53.936Z</time></trkpt><trkpt lat="43.898993517990334" lon="11.226139262480503"><ele>316.0</ele><time>2026-04-11T07:46:55.936Z</time></trkpt><trkpt lat="43.89894930918826" lon="11.226201609724972"><ele>319.33333333333337</ele><time>2026-04-11T07:46:56.936Z</time></trkpt><trkpt lat="43.89891672905693" lon="11.226278281413501"><ele>322.6666666666667</ele><time>2026-04-11T07:46:57.936Z</time></trkpt><trkpt lat="43.89886044591976" lon="11.226431842668253"><ele>326.0</ele><time>2026-04-11T07:46:59.936Z</time></trkpt><trkpt lat="43.89880247467175" lon="11.226523193048811"><ele>326.0</ele><time>2026-04-11T07:47:01.936Z</time></trkpt><trkpt lat="43.898691282676374" lon="11.226609671624692"><ele>326.0</ele><time>2026-04-11T07:47:03.936Z</time></trkpt><trkpt lat="43.89858297785913" lon="11.226691382684294"><ele>326.0</ele><time>2026-04-11T07:47:05.936Z</time></trkpt><trkpt lat="43.89849951256203" lon="11.226716841710532"><ele>326.0</ele><time>2026-04-11T07:47:06.936Z</time></trkpt><trkpt lat="43.89842928445341" lon="11.2267548072246"><ele>326.0</ele><time>2026-04-11T07:47:07.936Z</time></trkpt><trkpt lat="43.89834501674392" lon="11.22678749099507"><ele>331.0</ele><time>2026-04-11T07:47:08.936Z</time></trkpt><trkpt lat="43.898247298757056" lon="11.226815884799118"><ele>336.0</ele><time>2026-04-11T07:47:09.936Z</time></trkpt><trkpt lat="43.89817312857555" lon="11.22683057830402"><ele>341.0</ele><time>2026-04-11T07:47:10.936Z</time></trkpt><trkpt lat="43.89807146664928" lon="11.22688874226921"><ele>346.0</ele><time>2026-04-11T07:47:12.936Z</time></trkpt><trkpt lat="43.898007295115065" lon="11.226969198616198"><ele>351.0</ele><time>2026-04-11T07:47:14.936Z</time></trkpt><trkpt lat="43.89792591739099" lon="11.227120579316278"><ele>351.0</ele><time>2026-04-11T07:47:16.936Z</time></trkpt><trkpt lat="43.89786931763942" lon="11.227189116614372"><ele>351.0</ele><time>2026-04-11T07:47:17.936Z</time></trkpt><trkpt lat="43.89781195275248" lon="11.227239332961148"><ele>351.0</ele><time>2026-04-11T07:47:18.936Z</time></trkpt><trkpt lat="43.89769577920486" lon="11.227389373649975"><ele>351.0</ele><time>2026-04-11T07:47:20.936Z</time></trkpt><trkpt lat="43.89761623264227" lon="11.227469602709265"><ele>351.0</ele><time>2026-04-11T07:47:21.936Z</time></trkpt><trkpt lat="43.897542546845955" lon="11.227545352247885"><ele>354.8</ele><time>2026-04-11T07:47:22.936Z</time></trkpt><trkpt lat="43.89743812436432" lon="11.227620138510929"><ele>358.6</ele><time>2026-04-11T07:47:24.936Z</time></trkpt><trkpt lat="43.89732934137923" lon="11.22770877784316"><ele>362.4</ele><time>2026-04-11T07:47:26.935Z</time></trkpt><trkpt lat="43.89723275873195" lon="11.227783795632371"><ele>366.2</ele><time>2026-04-11T07:47:28.935Z</time></trkpt><trkpt lat="43.897169329754334" lon="11.227853130717625"><ele>370.0</ele><time>2026-04-11T07:47:29.935Z</time></trkpt><trkpt lat="43.89710024544096" lon="11.227906738664009"><ele>370.0</ele><time>2026-04-11T07:47:30.935Z</time></trkpt><trkpt lat="43.89707364403799" lon="11.227998948038909"><ele>370.0</ele><time>2026-04-11T07:47:32.935Z</time></trkpt><trkpt lat="43.89713817886444" lon="11.228116720730535"><ele>370.0</ele><time>2026-04-11T07:47:34.935Z</time></trkpt><trkpt lat="43.89716923832324" lon="11.22828688184554"><ele>370.0</ele><time>2026-04-11T07:47:36.935Z</time></trkpt><trkpt lat="43.897196682504315" lon="11.228527727065137"><ele>369.66666666666663</ele><time>2026-04-11T07:47:38.935Z</time></trkpt><trkpt lat="43.89720067858211" lon="11.228665907269594"><ele>369.3333333333333</ele><time>2026-04-11T07:47:39.935Z</time></trkpt><trkpt lat="43.89719130082653" lon="11.228782198794216"><ele>369.0</ele><time>2026-04-11T07:47:40.935Z</time></trkpt><trkpt lat="43.897165661939916" lon="11.22889774875358"><ele>368.6666666666667</ele><time>2026-04-11T07:47:41.935Z</time></trkpt><trkpt lat="43.89715016518667" lon="11.2290039236194"><ele>368.33333333333337</ele><time>2026-04-11T07:47:42.935Z</time></trkpt><trkpt lat="43.897114683092404" lon="11.229107127599484"><ele>368.0</ele><time>2026-04-11T07:47:43.935Z</time></trkpt><trkpt lat="43.89708127648094" lon="11.229189716208717"><ele>368.0</ele><time>2026-04-11T07:47:44.935Z</time></trkpt><trkpt lat="43.89699712193763" lon="11.229316710357363"><ele>368.0</ele><time>2026-04-11T07:47:46.935Z</time></trkpt><trkpt lat="43.89688525049669" lon="11.229382772875104"><ele>368.0</ele><time>2026-04-11T07:47:48.935Z</time></trkpt><trkpt lat="43.896815806636745" lon="11.229428493616032"><ele>368.0</ele><time>2026-04-11T07:47:49.935Z</time></trkpt><trkpt lat="43.896726910455726" lon="11.229539618146944"><ele>368.0</ele><time>2026-04-11T07:47:51.935Z</time></trkpt><trkpt lat="43.896734700407094" lon="11.229666244258588"><ele>373.75</ele><time>2026-04-11T07:47:53.935Z</time></trkpt><trkpt lat="43.89670128207813" lon="11.22984262440965"><ele>379.5</ele><time>2026-04-11T07:47:55.935Z</time></trkpt><trkpt lat="43.896647483754265" lon="11.230036480320555"><ele>385.25</ele><time>2026-04-11T07:47:57.935Z</time></trkpt><trkpt lat="43.89660753113031" lon="11.230169709562164"><ele>391.0</ele><time>2026-04-11T07:47:58.935Z</time></trkpt><trkpt lat="43.896571123616276" lon="11.230303911904471"><ele>391.00000000000006</ele><time>2026-04-11T07:47:59.935Z</time></trkpt><trkpt lat="43.89654321527443" lon="11.230416095437496"><ele>391.0</ele><time>2026-04-11T07:48:00.935Z</time></trkpt><trkpt lat="43.896492961807944" lon="11.230519426497759"><ele>391.0</ele><time>2026-04-11T07:48:01.935Z</time></trkpt><trkpt lat="43.89644422737273" lon="11.23061135332592"><ele>391.0</ele><time>2026-04-11T07:48:02.935Z</time></trkpt><trkpt lat="43.896385525477996" lon="11.230705330664978"><ele>391.00000000000006</ele><time>2026-04-11T07:48:03.935Z</time></trkpt><trkpt lat="43.89632549320272" lon="11.230810020723313"><ele>391.0</ele><time>2026-04-11T07:48:04.935Z</time></trkpt><trkpt lat="43.89626784172813" lon="11.230916467104612"><ele>390.6666666666667</ele><time>2026-04-11T07:48:05.935Z</time></trkpt><trkpt lat="43.8962096437001" lon="11.23103110045261"><ele>390.33333333333337</ele><time>2026-04-11T07:48:06.934Z</time></trkpt><trkpt lat="43.896166804499096" lon="11.23112817682477"><ele>390.0</ele><time>2026-04-11T07:48:07.934Z</time></trkpt><trkpt lat="43.89611516956816" lon="11.231220043076762"><ele>389.66666666666663</ele><time>2026-04-11T07:48:08.934Z</time></trkpt><trkpt lat="43.896079099430985" lon="11.231336273075472"><ele>389.3333333333333</ele><time>2026-04-11T07:48:10.934Z</time></trkpt><trkpt lat="43.89614391255629" lon="11.231422302006695"><ele>389.0</ele><time>2026-04-11T07:48:12.934Z</time></trkpt><trkpt lat="43.89620751726848" lon="11.231485319841395"><ele>390.4</ele><time>2026-04-11T07:48:13.934Z</time></trkpt><trkpt lat="43.89626822808695" lon="11.231535031014014"><ele>391.79999999999995</ele><time>2026-04-11T07:48:14.934Z</time></trkpt><trkpt lat="43.89635283084186" lon="11.231588650381298"><ele>393.20000000000005</ele><time>2026-04-11T07:48:15.934Z</time></trkpt><trkpt lat="43.89643327573212" lon="11.231682844966015"><ele>394.6</ele><time>2026-04-11T07:48:16.934Z</time></trkpt><trkpt lat="43.896510065528226" lon="11.231786698462425"><ele>396.0</ele><time>2026-04-11T07:48:17.934Z</time></trkpt><trkpt lat="43.89659380228156" lon="11.231901690085033"><ele>396.0</ele><time>2026-04-11T07:48:18.934Z</time></trkpt><trkpt lat="43.89665008472989" lon="11.231983820166885"><ele>396.0</ele><time>2026-04-11T07:48:19.934Z</time></trkpt><trkpt lat="43.89672278618899" lon="11.23212762225487"><ele>396.0</ele><time>2026-04-11T07:48:21.934Z</time></trkpt><trkpt lat="43.896762322751826" lon="11.23220024785781"><ele>396.0</ele><time>2026-04-11T07:48:22.934Z</time></trkpt><trkpt lat="43.89679638535165" lon="11.232305494614845"><ele>396.0</ele><time>2026-04-11T07:48:23.934Z</time></trkpt><trkpt lat="43.89680558185679" lon="11.23240349205064"><ele>396.0</ele><time>2026-04-11T07:48:24.934Z</time></trkpt><trkpt lat="43.8967911308891" lon="11.232502411610696"><ele>399.0</ele><time>2026-04-11T07:48:25.934Z</time></trkpt><trkpt lat="43.89677257182753" lon="11.232601788646106"><ele>402.0</ele><time>2026-04-11T07:48:26.934Z</time></trkpt><trkpt lat="43.89675035038139" lon="11.232686309908631"><ele>405.0</ele><time>2026-04-11T07:48:27.934Z</time></trkpt><trkpt lat="43.896721925192054" lon="11.232784684776059"><ele>408.0</ele><time>2026-04-11T07:48:28.934Z</time></trkpt><trkpt lat="43.89670696919722" lon="11.232876845704999"><ele>411.0</ele><time>2026-04-11T07:48:29.934Z</time></trkpt><trkpt lat="43.89669282858536" lon="11.23297806617682"><ele>414.0</ele><time>2026-04-11T07:48:30.934Z</time></trkpt><trkpt lat="43.89663789705065" lon="11.233158903532079"><ele>415.4</ele><time>2026-04-11T07:48:32.934Z</time></trkpt><trkpt lat="43.89660059342958" lon="11.233284248856421"><ele>416.79999999999995</ele><time>2026-04-11T07:48:33.934Z</time></trkpt><trkpt lat="43.89656856556462" lon="11.233437927491233"><ele>418.20000000000005</ele><time>2026-04-11T07:48:34.934Z</time></trkpt><trkpt lat="43.89653347307497" lon="11.233565144694449"><ele>419.6</ele><time>2026-04-11T07:48:35.934Z</time></trkpt><trkpt lat="43.89650102334388" lon="11.233701136282646"><ele>421.0</ele><time>2026-04-11T07:48:36.934Z</time></trkpt><trkpt lat="43.896473676795274" lon="11.233804437715023"><ele>421.0</ele><time>2026-04-11T07:48:37.934Z</time></trkpt><trkpt lat="43.896441428048874" lon="11.233919132716485"><ele>421.0</ele><time>2026-04-11T07:48:38.934Z</time></trkpt><trkpt lat="43.89641403116807" lon="11.234075389211215"><ele>421.0</ele><time>2026-04-11T07:48:40.934Z</time></trkpt><trkpt lat="43.896453506987676" lon="11.234181548959468"><ele>421.0</ele><time>2026-04-11T07:48:43.934Z</time></trkpt><trkpt lat="43.89655413044184" lon="11.234222880946472"><ele>421.0</ele><time>2026-04-11T07:48:45.934Z</time></trkpt><trkpt lat="43.896627235445905" lon="11.234252442271305"><ele>421.50000000000006</ele><time>2026-04-11T07:48:46.934Z</time></trkpt><trkpt lat="43.89669020145915" lon="11.234301241467714"><ele>422.0</ele><time>2026-04-11T07:48:47.934Z</time></trkpt><trkpt lat="43.896736872022" lon="11.234369239467933"><ele>422.5</ele><time>2026-04-11T07:48:48.934Z</time></trkpt><trkpt lat="43.89677999492749" lon="11.234441796838075"><ele>423.0</ele><time>2026-04-11T07:48:49.934Z</time></trkpt><trkpt lat="43.89684707724917" lon="11.234599623329077"><ele>423.50000000000006</ele><time>2026-04-11T07:48:51.934Z</time></trkpt><trkpt lat="43.89686158888539" lon="11.234725933962725"><ele>424.0</ele><time>2026-04-11T07:48:53.934Z</time></trkpt><trkpt lat="43.89686058412349" lon="11.234817093733987"><ele>421.83333333333337</ele><time>2026-04-11T07:48:54.934Z</time></trkpt><trkpt lat="43.89686552823445" lon="11.234943520998701"><ele>419.6666666666667</ele><time>2026-04-11T07:48:55.934Z</time></trkpt><trkpt lat="43.896873263362124" lon="11.235074784108676"><ele>417.5</ele><time>2026-04-11T07:48:56.933Z</time></trkpt><trkpt lat="43.896878766196885" lon="11.235185544293754"><ele>415.33333333333337</ele><time>2026-04-11T07:48:57.933Z</time></trkpt><trkpt lat="43.89686918679432" lon="11.235291388069662"><ele>413.1666666666667</ele><time>2026-04-11T07:48:58.933Z</time></trkpt><trkpt lat="43.89684669974953" lon="11.235412276317163"><ele>411.0</ele><time>2026-04-11T07:48:59.933Z</time></trkpt><trkpt lat="43.896843942645766" lon="11.235512187534958"><ele>411.0</ele><time>2026-04-11T07:49:00.933Z</time></trkpt><trkpt lat="43.89683518722923" lon="11.235619316138703"><ele>411.0</ele><time>2026-04-11T07:49:01.933Z</time></trkpt><trkpt lat="43.89685462924854" lon="11.235734295978181"><ele>411.0</ele><time>2026-04-11T07:49:02.933Z</time></trkpt><trkpt lat="43.896851691302196" lon="11.2358291706937"><ele>411.0</ele><time>2026-04-11T07:49:03.933Z</time></trkpt><trkpt lat="43.89683865910725" lon="11.235971002937108"><ele>411.0</ele><time>2026-04-11T07:49:05.933Z</time></trkpt><trkpt lat="43.89682572424774" lon="11.236059840074182"><ele>411.0</ele><time>2026-04-11T07:49:06.933Z</time></trkpt><trkpt lat="43.89680385205941" lon="11.236143343357744"><ele>411.8333333333333</ele><time>2026-04-11T07:49:07.933Z</time></trkpt><trkpt lat="43.896765790295014" lon="11.23627385696656"><ele>412.66666666666663</ele><time>2026-04-11T07:49:08.933Z</time></trkpt><trkpt lat="43.89675605083318" lon="11.236421048453112"><ele>413.5</ele><time>2026-04-11T07:49:10.933Z</time></trkpt><trkpt lat="43.89679925377923" lon="11.23649135776418"><ele>414.3333333333333</ele><time>2026-04-11T07:49:11.933Z</time></trkpt><trkpt lat="43.89683778715744" lon="11.236584072358282"><ele>415.16666666666663</ele><time>2026-04-11T07:49:12.933Z</time></trkpt><trkpt lat="43.89687287738257" lon="11.23670125885197"><ele>416.0</ele><time>2026-04-11T07:49:13.933Z</time></trkpt><trkpt lat="43.896891092354444" lon="11.236787764910908"><ele>417.4</ele><time>2026-04-11T07:49:14.933Z</time></trkpt><trkpt lat="43.896882303271816" lon="11.236895993879642"><ele>418.8</ele><time>2026-04-11T07:49:15.933Z</time></trkpt><trkpt lat="43.89686515786415" lon="11.23702280518375"><ele>420.2</ele><time>2026-04-11T07:49:16.933Z</time></trkpt><trkpt lat="43.89685657781006" lon="11.237181770930974"><ele>421.59999999999997</ele><time>2026-04-11T07:49:17.933Z</time></trkpt><trkpt lat="43.8968490823998" lon="11.237363113886207"><ele>423.0</ele><time>2026-04-11T07:49:18.933Z</time></trkpt><trkpt lat="43.89683267088892" lon="11.237533895918515"><ele>426.79999999999995</ele><time>2026-04-11T07:49:19.933Z</time></trkpt><trkpt lat="43.89683179288594" lon="11.237701919173608"><ele>430.6</ele><time>2026-04-11T07:49:20.933Z</time></trkpt><trkpt lat="43.89682759834012" lon="11.237859223008616"><ele>434.40000000000003</ele><time>2026-04-11T07:49:21.933Z</time></trkpt><trkpt lat="43.896841340126755" lon="11.237989136394903"><ele>438.20000000000005</ele><time>2026-04-11T07:49:22.933Z</time></trkpt><trkpt lat="43.8968318728233" lon="11.238091250630296"><ele>442.0</ele><time>2026-04-11T07:49:23.933Z</time></trkpt><trkpt lat="43.896869388251176" lon="11.238167489066948"><ele>442.00000000000006</ele><time>2026-04-11T07:49:25.933Z</time></trkpt><trkpt lat="43.896959682081516" lon="11.238164904185464"><ele>442.0</ele><time>2026-04-11T07:49:27.933Z</time></trkpt><trkpt lat="43.89702962803071" lon="11.238121281045945"><ele>442.0</ele><time>2026-04-11T07:49:28.933Z</time></trkpt><trkpt lat="43.8971060329509" lon="11.238085028468648"><ele>442.0</ele><time>2026-04-11T07:49:29.933Z</time></trkpt><trkpt lat="43.89719720618103" lon="11.238049432019046"><ele>442.00000000000006</ele><time>2026-04-11T07:49:30.933Z</time></trkpt><trkpt lat="43.8972880464963" lon="11.238041539174022"><ele>442.0</ele><time>2026-04-11T07:49:31.933Z</time></trkpt><trkpt lat="43.89737317670119" lon="11.23804572180413"><ele>442.0</ele><time>2026-04-11T07:49:32.933Z</time></trkpt><trkpt lat="43.897462675983206" lon="11.238055354458924"><ele>442.00000000000006</ele><time>2026-04-11T07:49:33.933Z</time></trkpt><trkpt lat="43.89757113587897" lon="11.23810951154723"><ele>442.00000000000006</ele><time>2026-04-11T07:49:34.933Z</time></trkpt><trkpt lat="43.897657652742005" lon="11.238146440399342"><ele>442.0</ele><time>2026-04-11T07:49:35.933Z</time></trkpt><trkpt lat="43.89772628908933" lon="11.23819976629292"><ele>442.0</ele><time>2026-04-11T07:49:36.933Z</time></trkpt><trkpt lat="43.897824353708415" lon="11.238275274807114"><ele>442.6</ele><time>2026-04-11T07:49:37.933Z</time></trkpt><trkpt lat="43.897884243315175" lon="11.238362923004583"><ele>443.20000000000005</ele><time>2026-04-11T07:49:38.933Z</time></trkpt><trkpt lat="43.89792153052458" lon="11.238459735329736"><ele>443.8</ele><time>2026-04-11T07:49:39.933Z</time></trkpt><trkpt lat="43.89796034963596" lon="11.23855420613528"><ele>444.4</ele><time>2026-04-11T07:49:40.933Z</time></trkpt><trkpt lat="43.8979862481203" lon="11.23867090752698"><ele>445.0</ele><time>2026-04-11T07:49:41.933Z</time></trkpt><trkpt lat="43.8980059351437" lon="11.238857353133485"><ele>447.0</ele><time>2026-04-11T07:49:43.933Z</time></trkpt><trkpt lat="43.89799178607612" lon="11.23900946331006"><ele>449.0</ele><time>2026-04-11T07:49:45.933Z</time></trkpt><trkpt lat="43.897977377977384" lon="11.239131488467644"><ele>451.0</ele><time>2026-04-11T07:49:46.933Z</time></trkpt><trkpt lat="43.89796667604839" lon="11.23926745308682"><ele>453.0</ele><time>2026-04-11T07:49:47.932Z</time></trkpt><trkpt lat="43.89793823270631" lon="11.23938221119618"><ele>455.0</ele><time>2026-04-11T07:49:48.932Z</time></trkpt><trkpt lat="43.89791697649279" lon="11.239520536687113"><ele>455.0</ele><time>2026-04-11T07:49:49.932Z</time></trkpt><trkpt lat="43.89786517620187" lon="11.239630008408579"><ele>455.0</ele><time>2026-04-11T07:49:50.932Z</time></trkpt><trkpt lat="43.897807254691564" lon="11.239747882092688"><ele>455.0</ele><time>2026-04-11T07:49:51.933Z</time></trkpt><trkpt lat="43.89775312616126" lon="11.239881934689526"><ele>455.0</ele><time>2026-04-11T07:49:52.933Z</time></trkpt><trkpt lat="43.89768962271584" lon="11.240021239020662"><ele>455.0</ele><time>2026-04-11T07:49:53.933Z</time></trkpt><trkpt lat="43.89761366545208" lon="11.24014186505935"><ele>455.0</ele><time>2026-04-11T07:49:54.932Z</time></trkpt><trkpt lat="43.897571507997476" lon="11.24027596748718"><ele>455.0</ele><time>2026-04-11T07:49:55.932Z</time></trkpt><trkpt lat="43.89755460017099" lon="11.240397022366759"><ele>455.0</ele><time>2026-04-11T07:49:56.932Z</time></trkpt><trkpt lat="43.89754403909874" lon="11.240529781599417"><ele>455.0</ele><time>2026-04-11T07:49:57.933Z</time></trkpt><trkpt lat="43.8975545288345" lon="11.240684109732126"><ele>455.0</ele><time>2026-04-11T07:49:58.932Z</time></trkpt><trkpt lat="43.89759193618499" lon="11.240850090540532"><ele>455.0</ele><time>2026-04-11T07:49:59.932Z</time></trkpt><trkpt lat="43.89759238523736" lon="11.24101431470588"><ele>455.0</ele><time>2026-04-11T07:50:00.932Z</time></trkpt><trkpt lat="43.89760884043754" lon="11.241185404690077"><ele>455.0</ele><time>2026-04-11T07:50:01.932Z</time></trkpt><trkpt lat="43.89761904920985" lon="11.241365028076274"><ele>455.0</ele><time>2026-04-11T07:50:02.932Z</time></trkpt><trkpt lat="43.897631070652395" lon="11.241535281980534"><ele>456.4</ele><time>2026-04-11T07:50:03.932Z</time></trkpt><trkpt lat="43.897625128470416" lon="11.241691966730945"><ele>457.8</ele><time>2026-04-11T07:50:04.932Z</time></trkpt><trkpt lat="43.89762135368901" lon="11.241851148639089"><ele>459.20000000000005</ele><time>2026-04-11T07:50:05.932Z</time></trkpt><trkpt lat="43.8976282526334" lon="11.241995548461174"><ele>460.6</ele><time>2026-04-11T07:50:06.932Z</time></trkpt><trkpt lat="43.89765231004628" lon="11.24214573123312"><ele>462.0</ele><time>2026-04-11T07:50:07.932Z</time></trkpt><trkpt lat="43.89764103765345" lon="11.242256323916257"><ele>463.5</ele><time>2026-04-11T07:50:08.932Z</time></trkpt><trkpt lat="43.897665331915896" lon="11.242358215100493"><ele>465.0</ele><time>2026-04-11T07:50:09.932Z</time></trkpt><trkpt lat="43.89767362465118" lon="11.242449217758987"><ele>466.5</ele><time>2026-04-11T07:50:10.932Z</time></trkpt><trkpt lat="43.897726718820124" lon="11.242521654294631"><ele>468.0</ele><time>2026-04-11T07:50:11.932Z</time></trkpt><trkpt lat="43.89780874783651" lon="11.242567945059232"><ele>469.5</ele><time>2026-04-11T07:50:12.932Z</time></trkpt><trkpt lat="43.897883447047484" lon="11.24262257643349"><ele>471.0</ele><time>2026-04-11T07:50:13.932Z</time></trkpt><trkpt lat="43.8979579235631" lon="11.242706853520716"><ele>471.0</ele><time>2026-04-11T07:50:14.932Z</time></trkpt><trkpt lat="43.89804556886768" lon="11.242770577377915"><ele>471.0</ele><time>2026-04-11T07:50:15.932Z</time></trkpt><trkpt lat="43.8981099265717" lon="11.242859432013752"><ele>471.0</ele><time>2026-04-11T07:50:16.932Z</time></trkpt><trkpt lat="43.898174333672294" lon="11.242931160409356"><ele>471.0</ele><time>2026-04-11T07:50:17.932Z</time></trkpt><trkpt lat="43.898261616252285" lon="11.243020787516919"><ele>471.0</ele><time>2026-04-11T07:50:18.932Z</time></trkpt><trkpt lat="43.89833401930227" lon="11.243104082360212"><ele>470.4</ele><time>2026-04-11T07:50:19.932Z</time></trkpt><trkpt lat="43.898415160955366" lon="11.243217492326558"><ele>469.8</ele><time>2026-04-11T07:50:20.932Z</time></trkpt><trkpt lat="43.89848215385879" lon="11.243334772516457"><ele>469.19999999999993</ele><time>2026-04-11T07:50:21.932Z</time></trkpt><trkpt lat="43.89853529637459" lon="11.243438731063595"><ele>468.59999999999997</ele><time>2026-04-11T07:50:22.932Z</time></trkpt><trkpt lat="43.89857720437024" lon="11.243552329185444"><ele>468.0</ele><time>2026-04-11T07:50:23.932Z</time></trkpt><trkpt lat="43.898597043413425" lon="11.24366745412527"><ele>468.0</ele><time>2026-04-11T07:50:24.932Z</time></trkpt><trkpt lat="43.89858088340269" lon="11.243771794472543"><ele>468.0</ele><time>2026-04-11T07:50:25.932Z</time></trkpt><trkpt lat="43.898588845209964" lon="11.243887512703804"><ele>468.0</ele><time>2026-04-11T07:50:26.932Z</time></trkpt><trkpt lat="43.89858735407993" lon="11.24401650852239"><ele>468.0</ele><time>2026-04-11T07:50:27.932Z</time></trkpt><trkpt lat="43.89858631786886" lon="11.244121434617574"><ele>468.0</ele><time>2026-04-11T07:50:28.932Z</time></trkpt><trkpt lat="43.898586474271596" lon="11.244260145467464"><ele>468.0</ele><time>2026-04-11T07:50:29.931Z</time></trkpt><trkpt lat="43.898588684937344" lon="11.244397540177172"><ele>469.79999999999995</ele><time>2026-04-11T07:50:30.931Z</time></trkpt><trkpt lat="43.898592951944906" lon="11.244517479714743"><ele>471.59999999999997</ele><time>2026-04-11T07:50:31.931Z</time></trkpt><trkpt lat="43.898638016397484" lon="11.244619980200667"><ele>473.40000000000003</ele><time>2026-04-11T07:50:32.931Z</time></trkpt><trkpt lat="43.898709514776215" lon="11.244681106082025"><ele>475.20000000000005</ele><time>2026-04-11T07:50:33.931Z</time></trkpt><trkpt lat="43.89878020253866" lon="11.24476619215944"><ele>477.0</ele><time>2026-04-11T07:50:34.931Z</time></trkpt><trkpt lat="43.89885827223894" lon="11.244887386640247"><ele>479.20000000000005</ele><time>2026-04-11T07:50:35.931Z</time></trkpt><trkpt lat="43.89892313781901" lon="11.244993949159316"><ele>481.40000000000003</ele><time>2026-04-11T07:50:36.931Z</time></trkpt><trkpt lat="43.89898563501119" lon="11.245116507197205"><ele>483.59999999999997</ele><time>2026-04-11T07:50:37.931Z</time></trkpt><trkpt lat="43.89903358256" lon="11.245238579508754"><ele>485.79999999999995</ele><time>2026-04-11T07:50:38.931Z</time></trkpt><trkpt lat="43.89908358895926" lon="11.245331141029656"><ele>488.0</ele><time>2026-04-11T07:50:39.931Z</time></trkpt><trkpt lat="43.899136262051094" lon="11.245405625052689"><ele>487.99999999999994</ele><time>2026-04-11T07:50:40.931Z</time></trkpt><trkpt lat="43.89917970540733" lon="11.245473442851106"><ele>488.0</ele><time>2026-04-11T07:50:41.931Z</time></trkpt><trkpt lat="43.89921221304547" lon="11.245558189008824"><ele>488.0</ele><time>2026-04-11T07:50:42.931Z</time></trkpt><trkpt lat="43.89924542387757" lon="11.245664234897564"><ele>488.0</ele><time>2026-04-11T07:50:43.931Z</time></trkpt><trkpt lat="43.89927811992875" lon="11.245749521684877"><ele>487.99999999999994</ele><time>2026-04-11T07:50:44.931Z</time></trkpt><trkpt lat="43.89931757520845" lon="11.24584331214574"><ele>488.0</ele><time>2026-04-11T07:50:45.931Z</time></trkpt><trkpt lat="43.89943364837522" lon="11.245935390755255"><ele>489.49999999999994</ele><time>2026-04-11T07:50:47.931Z</time></trkpt><trkpt lat="43.899502129549724" lon="11.245976697108395"><ele>491.0</ele><time>2026-04-11T07:50:48.931Z</time></trkpt><trkpt lat="43.8995808409708" lon="11.246009982384695"><ele>492.5</ele><time>2026-04-11T07:50:49.931Z</time></trkpt><trkpt lat="43.89971908152391" lon="11.246060762116443"><ele>494.0</ele><time>2026-04-11T07:50:51.931Z</time></trkpt><trkpt lat="43.899775477815304" lon="11.246111453559196"><ele>495.49999999999994</ele><time>2026-04-11T07:50:52.931Z</time></trkpt><trkpt lat="43.89984777835783" lon="11.24615002516492"><ele>497.0</ele><time>2026-04-11T07:50:54.931Z</time></trkpt><trkpt lat="43.899928617639965" lon="11.246181052473998"><ele>496.99999999999994</ele><time>2026-04-11T07:50:56.931Z</time></trkpt><trkpt lat="43.899956529744294" lon="11.246280961445382"><ele>497.0</ele><time>2026-04-11T07:51:01.931Z</time></trkpt><trkpt lat="43.899908018170585" lon="11.24636759049008"><ele>497.0</ele><time>2026-04-11T07:51:04.931Z</time></trkpt><trkpt lat="43.89984781758838" lon="11.2464189913611"><ele>497.0</ele><time>2026-04-11T07:51:06.931Z</time></trkpt><trkpt lat="43.89981350472246" lon="11.246506458951204"><ele>496.99999999999994</ele><time>2026-04-11T07:51:08.931Z</time></trkpt><trkpt lat="43.89973418296274" lon="11.2465936824634"><ele>497.0</ele><time>2026-04-11T07:51:10.931Z</time></trkpt><trkpt lat="43.8996851180093" lon="11.24667328667709"><ele>499.0</ele><time>2026-04-11T07:51:12.931Z</time></trkpt><trkpt lat="43.899631139229264" lon="11.246798873241705"><ele>501.0</ele><time>2026-04-11T07:51:14.931Z</time></trkpt><trkpt lat="43.899529117558615" lon="11.246904968176946"><ele>503.0</ele><time>2026-04-11T07:51:16.931Z</time></trkpt><trkpt lat="43.89942444488986" lon="11.247015704124431"><ele>505.0</ele><time>2026-04-11T07:51:18.931Z</time></trkpt><trkpt lat="43.89935125730819" lon="11.247106861506825"><ele>505.00000000000006</ele><time>2026-04-11T07:51:20.93Z</time></trkpt><trkpt lat="43.89931000127875" lon="11.247176811371002"><ele>505.0</ele><time>2026-04-11T07:51:22.93Z</time></trkpt><trkpt lat="43.89932156827183" lon="11.24727966521658"><ele>505.0</ele><time>2026-04-11T07:51:24.93Z</time></trkpt><trkpt lat="43.8992822870431" lon="11.247400833633026"><ele>505.0</ele><time>2026-04-11T07:51:28.93Z</time></trkpt><trkpt lat="43.89923375536709" lon="11.247510687357416"><ele>505.00000000000006</ele><time>2026-04-11T07:51:30.93Z</time></trkpt><trkpt lat="43.89916149103683" lon="11.247579051731227"><ele>505.0</ele><time>2026-04-11T07:51:32.93Z</time></trkpt><trkpt lat="43.899065168878046" lon="11.247586370247916"><ele>507.2</ele><time>2026-04-11T07:51:34.93Z</time></trkpt><trkpt lat="43.898981514574956" lon="11.247586640804137"><ele>509.4</ele><time>2026-04-11T07:51:36.93Z</time></trkpt><trkpt lat="43.89891451980412" lon="11.247578732630132"><ele>511.6</ele><time>2026-04-11T07:51:37.93Z</time></trkpt><trkpt lat="43.89881900505108" lon="11.247575774587128"><ele>513.8</ele><time>2026-04-11T07:51:39.93Z</time></trkpt><trkpt lat="43.89873937426097" lon="11.247670072190056"><ele>516.0</ele><time>2026-04-11T07:51:41.93Z</time></trkpt><trkpt lat="43.898673378751944" lon="11.247792006209703"><ele>516.0</ele><time>2026-04-11T07:51:43.93Z</time></trkpt><trkpt lat="43.89856831681502" lon="11.247892506763527"><ele>516.0</ele><time>2026-04-11T07:51:45.93Z</time></trkpt><trkpt lat="43.89850875516372" lon="11.2479520052974"><ele>516.0</ele><time>2026-04-11T07:51:46.93Z</time></trkpt><trkpt lat="43.8984362881487" lon="11.247983562163043"><ele>516.0</ele><time>2026-04-11T07:51:47.93Z</time></trkpt><trkpt lat="43.89836727464275" lon="11.24803188369943"><ele>516.0</ele><time>2026-04-11T07:51:48.93Z</time></trkpt><trkpt lat="43.89828349862268" lon="11.248076415628548"><ele>516.0</ele><time>2026-04-11T07:51:49.93Z</time></trkpt><trkpt lat="43.898206305868094" lon="11.248119023769954"><ele>519.5</ele><time>2026-04-11T07:51:50.93Z</time></trkpt><trkpt lat="43.898134239766414" lon="11.24818013799967"><ele>523.0</ele><time>2026-04-11T07:51:51.93Z</time></trkpt><trkpt lat="43.8980733649087" lon="11.248224043293996"><ele>526.5</ele><time>2026-04-11T07:51:52.93Z</time></trkpt><trkpt lat="43.89800786672203" lon="11.248259894379181"><ele>530.0</ele><time>2026-04-11T07:51:53.93Z</time></trkpt><trkpt lat="43.89793956566102" lon="11.248337066509542"><ele>533.5</ele><time>2026-04-11T07:51:54.93Z</time></trkpt><trkpt lat="43.8978756630165" lon="11.248384523204276"><ele>537.0</ele><time>2026-04-11T07:51:55.93Z</time></trkpt><trkpt lat="43.89781452723237" lon="11.248458919821958"><ele>537.0</ele><time>2026-04-11T07:51:56.93Z</time></trkpt><trkpt lat="43.89774262919383" lon="11.248502339004904"><ele>537.0</ele><time>2026-04-11T07:51:57.93Z</time></trkpt><trkpt lat="43.897648894861725" lon="11.248569865187614"><ele>537.0</ele><time>2026-04-11T07:51:59.93Z</time></trkpt><trkpt lat="43.89758076268595" lon="11.248617027705484"><ele>537.0</ele><time>2026-04-11T07:52:01.929Z</time></trkpt><trkpt lat="43.897530099361674" lon="11.248669601414086"><ele>537.0</ele><time>2026-04-11T07:52:07.93Z</time></trkpt><trkpt lat="43.89746267151448" lon="11.248692238515346"><ele>537.0</ele><time>2026-04-11T07:52:43.928Z</time></trkpt><trkpt lat="43.89737682472607" lon="11.248674178398014"><ele>541.0</ele><time>2026-04-11T07:52:46.928Z</time></trkpt><trkpt lat="43.897313949735135" lon="11.248650264823347"><ele>541.0</ele><time>2026-04-11T07:52:57.928Z</time></trkpt><trkpt lat="43.89723906322055" lon="11.24865474725482"><ele>541.0</ele><time>2026-04-11T07:53:00.928Z</time></trkpt><trkpt lat="43.897192746967576" lon="11.248573024561521"><ele>541.0</ele><time>2026-04-11T07:53:04.928Z</time></trkpt><trkpt lat="43.897136393445074" lon="11.248532780443345"><ele>541.0</ele><time>2026-04-11T07:53:17.928Z</time></trkpt></trkseg><trkseg><trkpt lat="43.89707059167467" lon="11.248435464472873"><ele>541.0</ele><time>2026-04-11T08:04:09.915Z</time></trkpt><trkpt lat="43.89698420307821" lon="11.248374446679792"><ele>541.0</ele><time>2026-04-11T08:04:11.915Z</time></trkpt><trkpt lat="43.8969285652331" lon="11.248325136261354"><ele>541.0</ele><time>2026-04-11T08:04:12.915Z</time></trkpt><trkpt lat="43.896845461345805" lon="11.248241818245367"><ele>541.0</ele><time>2026-04-11T08:04:14.915Z</time></trkpt><trkpt lat="43.8967766645887" lon="11.24820173484139"><ele>541.0</ele><time>2026-04-11T08:04:17.915Z</time></trkpt><trkpt lat="43.8967172966837" lon="11.248142288034707"><ele>541.0</ele><time>2026-04-11T08:04:21.915Z</time></trkpt><trkpt lat="43.896637156836874" lon="11.248056661479998"><ele>542.2</ele><time>2026-04-11T08:04:24.914Z</time></trkpt><trkpt lat="43.89654340313394" lon="11.248009033302244"><ele>543.4000000000001</ele><time>2026-04-11T08:04:26.914Z</time></trkpt><trkpt lat="43.896475468366695" lon="11.247914584160487"><ele>544.6</ele><time>2026-04-11T08:04:28.914Z</time></trkpt><trkpt lat="43.896382271423406" lon="11.247874316537157"><ele>545.8000000000001</ele><time>2026-04-11T08:04:31.915Z</time></trkpt><trkpt lat="43.896286974240454" lon="11.247840601780432"><ele>547.0</ele><time>2026-04-11T08:04:33.914Z</time></trkpt><trkpt lat="43.89620030495525" lon="11.247750529260975"><ele>547.0</ele><time>2026-04-11T08:04:35.914Z</time></trkpt><trkpt lat="43.896106573585975" lon="11.247684901076235"><ele>547.0</ele><time>2026-04-11T08:04:37.914Z</time></trkpt><trkpt lat="43.89603449352657" lon="11.247650894392153"><ele>547.0</ele><time>2026-04-11T08:04:38.914Z</time></trkpt><trkpt lat="43.895961182539814" lon="11.247630926546844"><ele>547.0</ele><time>2026-04-11T08:04:39.914Z</time></trkpt><trkpt lat="43.89589022524001" lon="11.24761072048837"><ele>547.0</ele><time>2026-04-11T08:04:40.914Z</time></trkpt><trkpt lat="43.895800367894076" lon="11.247609044315285"><ele>547.0</ele><time>2026-04-11T08:04:42.914Z</time></trkpt><trkpt lat="43.89569841279739" lon="11.247627195052017"><ele>547.4285714285714</ele><time>2026-04-11T08:04:44.914Z</time></trkpt><trkpt lat="43.895631135994314" lon="11.24763998163926"><ele>547.8571428571428</ele><time>2026-04-11T08:04:45.914Z</time></trkpt><trkpt lat="43.89554802238535" lon="11.247639687448508"><ele>548.2857142857142</ele><time>2026-04-11T08:04:46.914Z</time></trkpt><trkpt lat="43.89547069488022" lon="11.247652074753153"><ele>548.7142857142857</ele><time>2026-04-11T08:04:47.914Z</time></trkpt><trkpt lat="43.89540025931936" lon="11.24767759950227"><ele>549.1428571428571</ele><time>2026-04-11T08:04:48.914Z</time></trkpt><trkpt lat="43.89534186117522" lon="11.247724812191748"><ele>549.5714285714286</ele><time>2026-04-11T08:04:49.914Z</time></trkpt><trkpt lat="43.89526821079319" lon="11.247761611899273"><ele>550.0</ele><time>2026-04-11T08:04:51.914Z</time></trkpt><trkpt lat="43.89519797301423" lon="11.247761596529333"><ele>550.0</ele><time>2026-04-11T08:05:08.913Z</time></trkpt><trkpt lat="43.895138385368085" lon="11.247790779602681"><ele>550.0</ele><time>2026-04-11T08:05:10.913Z</time></trkpt><trkpt lat="43.895075893756626" lon="11.247824356577535"><ele>550.0</ele><time>2026-04-11T08:05:12.913Z</time></trkpt><trkpt lat="43.895009665498264" lon="11.2478716883634"><ele>550.0</ele><time>2026-04-11T08:05:14.913Z</time></trkpt><trkpt lat="43.89495534028161" lon="11.247920553194309"><ele>550.0</ele><time>2026-04-11T08:05:16.913Z</time></trkpt><trkpt lat="43.89483613893261" lon="11.247919650196442"><ele>550.0</ele><time>2026-04-11T08:05:18.913Z</time></trkpt><trkpt lat="43.89472915750929" lon="11.247901808250969"><ele>548.5</ele><time>2026-04-11T08:05:20.913Z</time></trkpt><trkpt lat="43.894653217932685" lon="11.247928280285727"><ele>547.0</ele><time>2026-04-11T08:05:22.913Z</time></trkpt><trkpt lat="43.894569515579775" lon="11.24805084051569"><ele>545.5</ele><time>2026-04-11T08:05:24.913Z</time></trkpt><trkpt lat="43.894521693239966" lon="11.248122572448596"><ele>544.0</ele><time>2026-04-11T08:05:25.913Z</time></trkpt><trkpt lat="43.89443895388848" lon="11.24816630348487"><ele>542.5</ele><time>2026-04-11T08:05:26.913Z</time></trkpt><trkpt lat="43.8943929725586" lon="11.248264934101453"><ele>541.0</ele><time>2026-04-11T08:05:27.913Z</time></trkpt><trkpt lat="43.8943499378328" lon="11.248372038332482"><ele>539.7142857142858</ele><time>2026-04-11T08:05:28.913Z</time></trkpt><trkpt lat="43.89428349407915" lon="11.248430267446382"><ele>538.4285714285714</ele><time>2026-04-11T08:05:29.913Z</time></trkpt><trkpt lat="43.8942235151785" lon="11.248495985314804"><ele>537.1428571428571</ele><time>2026-04-11T08:05:30.913Z</time></trkpt><trkpt lat="43.894177740810235" lon="11.248578216347465"><ele>535.8571428571429</ele><time>2026-04-11T08:05:31.913Z</time></trkpt><trkpt lat="43.89412945438847" lon="11.248661344324448"><ele>534.5714285714286</ele><time>2026-04-11T08:05:32.913Z</time></trkpt><trkpt lat="43.89406839703545" lon="11.2486854228974"><ele>533.2857142857143</ele><time>2026-04-11T08:05:33.913Z</time></trkpt><trkpt lat="43.8940033472867" lon="11.248743035119215"><ele>532.0</ele><time>2026-04-11T08:05:34.913Z</time></trkpt><trkpt lat="43.89393642396478" lon="11.24879931243683"><ele>531.1666666666667</ele><time>2026-04-11T08:05:35.913Z</time></trkpt><trkpt lat="43.8938752023278" lon="11.248850474423536"><ele>530.3333333333334</ele><time>2026-04-11T08:05:36.913Z</time></trkpt><trkpt lat="43.89380513554173" lon="11.248900923848076"><ele>529.5</ele><time>2026-04-11T08:05:37.913Z</time></trkpt><trkpt lat="43.89375287365303" lon="11.248985108721559"><ele>528.6666666666666</ele><time>2026-04-11T08:05:38.913Z</time></trkpt><trkpt lat="43.89366758277509" lon="11.249041261947868"><ele>527.8333333333333</ele><time>2026-04-11T08:05:40.913Z</time></trkpt><trkpt lat="43.89360111059647" lon="11.249011305987663"><ele>527.0</ele><time>2026-04-11T08:05:42.913Z</time></trkpt><trkpt lat="43.89352948618984" lon="11.24902356910187"><ele>526.2</ele><time>2026-04-11T08:05:45.913Z</time></trkpt><trkpt lat="43.89352980905683" lon="11.249227378106392"><ele>525.4000000000001</ele><time>2026-04-11T08:05:47.913Z</time></trkpt><trkpt lat="43.893585682474374" lon="11.249305028010411"><ele>524.5999999999999</ele><time>2026-04-11T08:05:48.913Z</time></trkpt><trkpt lat="43.89365345778832" lon="11.24935332598365"><ele>523.8</ele><time>2026-04-11T08:05:49.913Z</time></trkpt><trkpt lat="43.893717017168264" lon="11.24938924728654"><ele>523.0</ele><time>2026-04-11T08:05:50.913Z</time></trkpt><trkpt lat="43.893792172749535" lon="11.249441071197221"><ele>523.0</ele><time>2026-04-11T08:05:51.913Z</time></trkpt><trkpt lat="43.89384987436913" lon="11.249501028120799"><ele>523.0</ele><time>2026-04-11T08:05:52.913Z</time></trkpt><trkpt lat="43.893919512547626" lon="11.24962540347708"><ele>523.0</ele><time>2026-04-11T08:05:54.912Z</time></trkpt><trkpt lat="43.89398670625913" lon="11.249802891139824"><ele>523.0</ele><time>2026-04-11T08:05:56.912Z</time></trkpt><trkpt lat="43.89405871662764" lon="11.249931283076174"><ele>523.0</ele><time>2026-04-11T08:05:58.912Z</time></trkpt><trkpt lat="43.89410669517584" lon="11.249988096970181"><ele>520.5</ele><time>2026-04-11T08:05:59.912Z</time></trkpt><trkpt lat="43.89416273419857" lon="11.250031664540126"><ele>518.0</ele><time>2026-04-11T08:06:00.912Z</time></trkpt><trkpt lat="43.89423535658859" lon="11.250054264583499"><ele>515.5</ele><time>2026-04-11T08:06:01.912Z</time></trkpt><trkpt lat="43.89431308401856" lon="11.25004558078336"><ele>513.0</ele><time>2026-04-11T08:06:02.912Z</time></trkpt><trkpt lat="43.89437520504469" lon="11.250008349349677"><ele>510.50000000000006</ele><time>2026-04-11T08:06:03.912Z</time></trkpt><trkpt lat="43.8944298317788" lon="11.249939608529905"><ele>508.0</ele><time>2026-04-11T08:06:04.912Z</time></trkpt><trkpt lat="43.894515211428754" lon="11.249822063030148"><ele>507.00000000000006</ele><time>2026-04-11T08:06:06.912Z</time></trkpt><trkpt lat="43.89463361863573" lon="11.24977484927098"><ele>506.0</ele><time>2026-04-11T08:06:09.912Z</time></trkpt><trkpt lat="43.894715703359566" lon="11.249799923672407"><ele>505.0</ele><time>2026-04-11T08:06:10.912Z</time></trkpt><trkpt lat="43.89477421800701" lon="11.249867159917017"><ele>504.0</ele><time>2026-04-11T08:06:11.912Z</time></trkpt><trkpt lat="43.89483345734562" lon="11.24992032646262"><ele>503.00000000000006</ele><time>2026-04-11T08:06:12.912Z</time></trkpt><trkpt lat="43.894892634638765" lon="11.249977329206066"><ele>502.0</ele><time>2026-04-11T08:06:13.912Z</time></trkpt><trkpt lat="43.89495347297448" lon="11.25004138134996"><ele>502.00000000000006</ele><time>2026-04-11T08:06:14.912Z</time></trkpt><trkpt lat="43.894998114679794" lon="11.250103659215748"><ele>502.0</ele><time>2026-04-11T08:06:15.912Z</time></trkpt><trkpt lat="43.89503888215154" lon="11.250207751131091"><ele>502.0</ele><time>2026-04-11T08:06:17.912Z</time></trkpt><trkpt lat="43.89496314056929" lon="11.250366777519062"><ele>502.0</ele><time>2026-04-11T08:06:19.912Z</time></trkpt><trkpt lat="43.89492923293274" lon="11.25046774764333"><ele>502.00000000000006</ele><time>2026-04-11T08:06:20.912Z</time></trkpt><trkpt lat="43.89488531061127" lon="11.250540480470015"><ele>502.0</ele><time>2026-04-11T08:06:21.912Z</time></trkpt><trkpt lat="43.89483836782958" lon="11.250616951382646"><ele>500.83333333333337</ele><time>2026-04-11T08:06:22.912Z</time></trkpt><trkpt lat="43.894793568206104" lon="11.250704502054313"><ele>499.6666666666667</ele><time>2026-04-11T08:06:23.912Z</time></trkpt><trkpt lat="43.894725580310805" lon="11.250805646306183"><ele>498.5</ele><time>2026-04-11T08:06:24.912Z</time></trkpt><trkpt lat="43.894671344235334" lon="11.250900621489405"><ele>497.33333333333337</ele><time>2026-04-11T08:06:25.912Z</time></trkpt><trkpt lat="43.89463104323721" lon="11.25099054620031"><ele>496.1666666666667</ele><time>2026-04-11T08:06:26.912Z</time></trkpt><trkpt lat="43.894581578143246" lon="11.251089161152654"><ele>495.0</ele><time>2026-04-11T08:06:27.912Z</time></trkpt><trkpt lat="43.89453188347764" lon="11.25118820230794"><ele>495.0</ele><time>2026-04-11T08:06:28.912Z</time></trkpt><trkpt lat="43.89449544906793" lon="11.251291029505275"><ele>495.0</ele><time>2026-04-11T08:06:29.912Z</time></trkpt><trkpt lat="43.894469153312855" lon="11.251383977762766"><ele>495.0</ele><time>2026-04-11T08:06:30.912Z</time></trkpt><trkpt lat="43.89442961296079" lon="11.25147060487686"><ele>495.0</ele><time>2026-04-11T08:06:31.912Z</time></trkpt><trkpt lat="43.894384376479515" lon="11.251620206665121"><ele>495.0</ele><time>2026-04-11T08:06:33.912Z</time></trkpt><trkpt lat="43.8943326881034" lon="11.251753791277196"><ele>493.6666666666667</ele><time>2026-04-11T08:06:35.912Z</time></trkpt><trkpt lat="43.894266944392186" lon="11.251902347527997"><ele>492.33333333333337</ele><time>2026-04-11T08:06:37.911Z</time></trkpt><trkpt lat="43.89423822153464" lon="11.251985322682119"><ele>491.0</ele><time>2026-04-11T08:06:38.911Z</time></trkpt><trkpt lat="43.89420349430486" lon="11.25206340835465"><ele>489.6666666666667</ele><time>2026-04-11T08:06:39.911Z</time></trkpt><trkpt lat="43.894161369702566" lon="11.252137820649283"><ele>488.33333333333337</ele><time>2026-04-11T08:06:40.911Z</time></trkpt><trkpt lat="43.89409642613243" lon="11.252209497206616"><ele>487.0</ele><time>2026-04-11T08:06:41.911Z</time></trkpt><trkpt lat="43.89403955191358" lon="11.252279789488858"><ele>483.7142857142857</ele><time>2026-04-11T08:06:42.911Z</time></trkpt><trkpt lat="43.89397453709137" lon="11.25234746866424"><ele>480.42857142857144</ele><time>2026-04-11T08:06:43.911Z</time></trkpt><trkpt lat="43.893925572590724" lon="11.252420986354636"><ele>477.14285714285717</ele><time>2026-04-11T08:06:44.91Z</time></trkpt><trkpt lat="43.893885414230475" lon="11.252500324936307"><ele>473.8571428571429</ele><time>2026-04-11T08:06:45.91Z</time></trkpt><trkpt lat="43.8938611542109" lon="11.252587672332172"><ele>470.57142857142856</ele><time>2026-04-11T08:06:46.91Z</time></trkpt><trkpt lat="43.89384312748529" lon="11.252684109110232"><ele>467.28571428571433</ele><time>2026-04-11T08:06:47.911Z</time></trkpt><trkpt lat="43.89380517606686" lon="11.252791166809907"><ele>464.00000000000006</ele><time>2026-04-11T08:06:48.911Z</time></trkpt><trkpt lat="43.89379747416082" lon="11.252914636328263"><ele>463.99999999999994</ele><time>2026-04-11T08:06:49.911Z</time></trkpt><trkpt lat="43.893796506784156" lon="11.253005270752686"><ele>464.0</ele><time>2026-04-11T08:06:50.91Z</time></trkpt><trkpt lat="43.89386436403441" lon="11.253111880069705"><ele>464.0</ele><time>2026-04-11T08:06:52.91Z</time></trkpt><trkpt lat="43.8939347319859" lon="11.25319532583344"><ele>464.0</ele><time>2026-04-11T08:06:54.91Z</time></trkpt><trkpt lat="43.89394573285047" lon="11.253362652850884"><ele>463.99999999999994</ele><time>2026-04-11T08:06:56.91Z</time></trkpt><trkpt lat="43.89390924946108" lon="11.25343754069318"><ele>464.0</ele><time>2026-04-11T08:06:57.91Z</time></trkpt><trkpt lat="43.893860169132815" lon="11.253496094841761"><ele>462.16666666666663</ele><time>2026-04-11T08:06:58.91Z</time></trkpt><trkpt lat="43.89377882423738" lon="11.253537470065506"><ele>460.3333333333333</ele><time>2026-04-11T08:06:59.91Z</time></trkpt><trkpt lat="43.89369491147546" lon="11.253584017306009"><ele>458.5</ele><time>2026-04-11T08:07:00.91Z</time></trkpt><trkpt lat="43.89361399384337" lon="11.253629890525634"><ele>456.66666666666663</ele><time>2026-04-11T08:07:01.91Z</time></trkpt><trkpt lat="43.893549993629144" lon="11.253670386451452"><ele>454.8333333333333</ele><time>2026-04-11T08:07:02.91Z</time></trkpt><trkpt lat="43.893483752654674" lon="11.25372220756398"><ele>453.0</ele><time>2026-04-11T08:07:03.91Z</time></trkpt><trkpt lat="43.89342791227076" lon="11.253775814537375"><ele>451.5</ele><time>2026-04-11T08:07:04.91Z</time></trkpt><trkpt lat="43.893370148473096" lon="11.253856900671634"><ele>450.0</ele><time>2026-04-11T08:07:06.91Z</time></trkpt><trkpt lat="43.89332097914423" lon="11.25393675731456"><ele>448.5</ele><time>2026-04-11T08:07:08.91Z</time></trkpt><trkpt lat="43.893337992351356" lon="11.254047910596876"><ele>447.0</ele><time>2026-04-11T08:07:10.91Z</time></trkpt><trkpt lat="43.89333310527578" lon="11.254178720351048"><ele>445.5</ele><time>2026-04-11T08:07:12.91Z</time></trkpt><trkpt lat="43.89329243164612" lon="11.254283119696176"><ele>444.0</ele><time>2026-04-11T08:07:14.91Z</time></trkpt><trkpt lat="43.89321401968342" lon="11.254393845512466"><ele>443.6666666666667</ele><time>2026-04-11T08:07:17.91Z</time></trkpt><trkpt lat="43.89316650142339" lon="11.254465193824542"><ele>443.33333333333337</ele><time>2026-04-11T08:07:18.91Z</time></trkpt><trkpt lat="43.893113800555916" lon="11.254547560988597"><ele>443.0</ele><time>2026-04-11T08:07:19.91Z</time></trkpt><trkpt lat="43.89305361854396" lon="11.25462105689297"><ele>442.6666666666667</ele><time>2026-04-11T08:07:20.91Z</time></trkpt><trkpt lat="43.892993822327064" lon="11.254695273649519"><ele>442.33333333333337</ele><time>2026-04-11T08:07:21.91Z</time></trkpt><trkpt lat="43.89294702240438" lon="11.254758705668568"><ele>442.0</ele><time>2026-04-11T08:07:22.91Z</time></trkpt><trkpt lat="43.89289381699575" lon="11.254830819637942"><ele>440.6666666666667</ele><time>2026-04-11T08:07:23.91Z</time></trkpt><trkpt lat="43.892844703159724" lon="11.254893863336246"><ele>439.33333333333337</ele><time>2026-04-11T08:07:24.91Z</time></trkpt><trkpt lat="43.892812077543496" lon="11.254990025472384"><ele>438.0</ele><time>2026-04-11T08:07:25.911Z</time></trkpt><trkpt lat="43.89278176330526" lon="11.25507647389096"><ele>436.66666666666663</ele><time>2026-04-11T08:07:26.913Z</time></trkpt><trkpt lat="43.89276601798681" lon="11.255187927078266"><ele>435.3333333333333</ele><time>2026-04-11T08:07:27.914Z</time></trkpt><trkpt lat="43.892764585967356" lon="11.25528446971291"><ele>434.0</ele><time>2026-04-11T08:07:28.915Z</time></trkpt><trkpt lat="43.892749893524304" lon="11.255411029220738"><ele>433.99999999999994</ele><time>2026-04-11T08:07:29.916Z</time></trkpt><trkpt lat="43.892733910864116" lon="11.25551896297802"><ele>434.0</ele><time>2026-04-11T08:07:30.917Z</time></trkpt><trkpt lat="43.89269556962942" lon="11.255630462469217"><ele>434.0</ele><time>2026-04-11T08:07:31.918Z</time></trkpt><trkpt lat="43.89264554820791" lon="11.25573360270455"><ele>434.0</ele><time>2026-04-11T08:07:32.918Z</time></trkpt><trkpt lat="43.89259149218909" lon="11.255844108409885"><ele>433.99999999999994</ele><time>2026-04-11T08:07:33.919Z</time></trkpt><trkpt lat="43.892517129664355" lon="11.255890229566392"><ele>434.0</ele><time>2026-04-11T08:07:34.92Z</time></trkpt><trkpt lat="43.89244567948258" lon="11.25592913976552"><ele>431.6</ele><time>2026-04-11T08:07:35.921Z</time></trkpt><trkpt lat="43.89234687432776" lon="11.255979150228583"><ele>429.2</ele><time>2026-04-11T08:07:37.922Z</time></trkpt><trkpt lat="43.892275223303734" lon="11.25610186360446"><ele>426.8</ele><time>2026-04-11T08:07:39.923Z</time></trkpt><trkpt lat="43.89229856632252" lon="11.25619119272915"><ele>424.40000000000003</ele><time>2026-04-11T08:07:40.923Z</time></trkpt><trkpt lat="43.892390706036885" lon="11.256256413228229"><ele>422.0</ele><time>2026-04-11T08:07:41.924Z</time></trkpt><trkpt lat="43.8925036037433" lon="11.256270030026986"><ele>421.20000000000005</ele><time>2026-04-11T08:07:42.924Z</time></trkpt><trkpt lat="43.89260785724683" lon="11.256285409064478"><ele>420.4</ele><time>2026-04-11T08:07:43.925Z</time></trkpt><trkpt lat="43.89272412121151" lon="11.256300439578217"><ele>419.6</ele><time>2026-04-11T08:07:44.925Z</time></trkpt><trkpt lat="43.89282540637081" lon="11.256330813138295"><ele>418.79999999999995</ele><time>2026-04-11T08:07:45.925Z</time></trkpt><trkpt lat="43.8929209684673" lon="11.256336293210335"><ele>418.0</ele><time>2026-04-11T08:07:46.926Z</time></trkpt><trkpt lat="43.89301792967297" lon="11.256336434493251"><ele>418.0</ele><time>2026-04-11T08:07:47.926Z</time></trkpt><trkpt lat="43.89310978643878" lon="11.256327345468675"><ele>418.0</ele><time>2026-04-11T08:07:48.926Z</time></trkpt><trkpt lat="43.893198638409665" lon="11.256319182557215"><ele>418.0</ele><time>2026-04-11T08:07:49.927Z</time></trkpt><trkpt lat="43.89327510380191" lon="11.256324510913712"><ele>418.0</ele><time>2026-04-11T08:07:50.927Z</time></trkpt><trkpt lat="43.893358052682146" lon="11.256393412782629"><ele>418.0</ele><time>2026-04-11T08:07:52.927Z</time></trkpt><trkpt lat="43.89326823077815" lon="11.256500388258905"><ele>414.6666666666667</ele><time>2026-04-11T08:07:54.928Z</time></trkpt><trkpt lat="43.89320362160905" lon="11.256570588862228"><ele>411.33333333333337</ele><time>2026-04-11T08:07:55.928Z</time></trkpt><trkpt lat="43.8931394810497" lon="11.256657179066858"><ele>408.0</ele><time>2026-04-11T08:07:56.928Z</time></trkpt><trkpt lat="43.89308134726763" lon="11.256748060719998"><ele>404.66666666666663</ele><time>2026-04-11T08:07:57.928Z</time></trkpt><trkpt lat="43.89300506846222" lon="11.25681683553414"><ele>401.3333333333333</ele><time>2026-04-11T08:07:58.928Z</time></trkpt><trkpt lat="43.89292509431674" lon="11.256881663828814"><ele>398.0</ele><time>2026-04-11T08:07:59.928Z</time></trkpt><trkpt lat="43.89284240297232" lon="11.256930856470616"><ele>398.0</ele><time>2026-04-11T08:08:00.928Z</time></trkpt><trkpt lat="43.89275060781308" lon="11.256978154016473"><ele>398.0</ele><time>2026-04-11T08:08:01.929Z</time></trkpt><trkpt lat="43.89264957541805" lon="11.257010840540376"><ele>398.0</ele><time>2026-04-11T08:08:02.929Z</time></trkpt><trkpt lat="43.89253610116173" lon="11.257042908497176"><ele>398.0</ele><time>2026-04-11T08:08:03.929Z</time></trkpt><trkpt lat="43.8924251033765" lon="11.257065570420037"><ele>398.0</ele><time>2026-04-11T08:08:04.929Z</time></trkpt><trkpt lat="43.89231328192903" lon="11.257082766716481"><ele>398.0</ele><time>2026-04-11T08:08:05.929Z</time></trkpt><trkpt lat="43.8921898064208" lon="11.257077357424583"><ele>398.0</ele><time>2026-04-11T08:08:06.929Z</time></trkpt><trkpt lat="43.89207113677714" lon="11.257050425143241"><ele>398.0</ele><time>2026-04-11T08:08:07.929Z</time></trkpt><trkpt lat="43.89195370689024" lon="11.25701004157572"><ele>398.0</ele><time>2026-04-11T08:08:08.929Z</time></trkpt><trkpt lat="43.891857380140344" lon="11.256975186527137"><ele>394.75</ele><time>2026-04-11T08:08:09.929Z</time></trkpt><trkpt lat="43.89174622902758" lon="11.256979576764714"><ele>391.5</ele><time>2026-04-11T08:08:10.929Z</time></trkpt><trkpt lat="43.891620310526655" lon="11.25699904196845"><ele>388.25</ele><time>2026-04-11T08:08:11.929Z</time></trkpt><trkpt lat="43.89148791417305" lon="11.257037807852518"><ele>385.0</ele><time>2026-04-11T08:08:12.929Z</time></trkpt><trkpt lat="43.891366417036465" lon="11.257062337349385"><ele>385.0</ele><time>2026-04-11T08:08:13.929Z</time></trkpt><trkpt lat="43.89125741762615" lon="11.257105434980653"><ele>385.0</ele><time>2026-04-11T08:08:14.929Z</time></trkpt><trkpt lat="43.89114328449836" lon="11.257125770531303"><ele>385.0</ele><time>2026-04-11T08:08:15.93Z</time></trkpt><trkpt lat="43.89104175321401" lon="11.2571520087028"><ele>385.0</ele><time>2026-04-11T08:08:16.93Z</time></trkpt><trkpt lat="43.89094656348744" lon="11.257146225094521"><ele>385.0</ele><time>2026-04-11T08:08:17.93Z</time></trkpt><trkpt lat="43.89085254443936" lon="11.257145534025918"><ele>381.8</ele><time>2026-04-11T08:08:18.93Z</time></trkpt><trkpt lat="43.890746645437495" lon="11.257155778823565"><ele>378.6</ele><time>2026-04-11T08:08:19.93Z</time></trkpt><trkpt lat="43.89063566805353" lon="11.257192242769323"><ele>375.4</ele><time>2026-04-11T08:08:20.93Z</time></trkpt><trkpt lat="43.8905236279666" lon="11.25722795867665"><ele>372.2</ele><time>2026-04-11T08:08:21.93Z</time></trkpt><trkpt lat="43.89043275911351" lon="11.257262454480246"><ele>369.0</ele><time>2026-04-11T08:08:22.93Z</time></trkpt><trkpt lat="43.89032703350737" lon="11.257263235198515"><ele>369.6</ele><time>2026-04-11T08:08:23.93Z</time></trkpt><trkpt lat="43.89022013959059" lon="11.257308415190938"><ele>370.2</ele><time>2026-04-11T08:08:24.93Z</time></trkpt><trkpt lat="43.890126190636636" lon="11.25734709173519"><ele>370.8</ele><time>2026-04-11T08:08:25.93Z</time></trkpt><trkpt lat="43.89001593793642" lon="11.257403591211288"><ele>371.40000000000003</ele><time>2026-04-11T08:08:26.93Z</time></trkpt><trkpt lat="43.889913319427684" lon="11.257494175202195"><ele>372.0</ele><time>2026-04-11T08:08:27.93Z</time></trkpt><trkpt lat="43.889810901703754" lon="11.25759819569201"><ele>372.0</ele><time>2026-04-11T08:08:28.93Z</time></trkpt><trkpt lat="43.88970587849658" lon="11.257717954688529"><ele>372.0</ele><time>2026-04-11T08:08:29.93Z</time></trkpt><trkpt lat="43.88962274392252" lon="11.257816456171884"><ele>372.0</ele><time>2026-04-11T08:08:30.93Z</time></trkpt><trkpt lat="43.889536119715785" lon="11.257907057399079"><ele>372.0</ele><time>2026-04-11T08:08:31.93Z</time></trkpt><trkpt lat="43.88944224148394" lon="11.258003360984377"><ele>372.0</ele><time>2026-04-11T08:08:32.93Z</time></trkpt><trkpt lat="43.88935655188819" lon="11.258091264315098"><ele>372.0</ele><time>2026-04-11T08:08:33.93Z</time></trkpt><trkpt lat="43.88926745630149" lon="11.258179856535317"><ele>372.0</ele><time>2026-04-11T08:08:34.93Z</time></trkpt><trkpt lat="43.889180583627116" lon="11.25827715902613"><ele>372.0</ele><time>2026-04-11T08:08:35.93Z</time></trkpt><trkpt lat="43.8891105927182" lon="11.258405808093052"><ele>372.0</ele><time>2026-04-11T08:08:36.93Z</time></trkpt><trkpt lat="43.8890745487071" lon="11.258523043963178"><ele>371.0</ele><time>2026-04-11T08:08:37.93Z</time></trkpt><trkpt lat="43.88904970451789" lon="11.258649783681067"><ele>370.0</ele><time>2026-04-11T08:08:38.93Z</time></trkpt><trkpt lat="43.88899351340829" lon="11.25877588600141"><ele>369.0</ele><time>2026-04-11T08:08:39.93Z</time></trkpt><trkpt lat="43.88891294888154" lon="11.258898331663781"><ele>368.0</ele><time>2026-04-11T08:08:40.93Z</time></trkpt><trkpt lat="43.888856422792145" lon="11.258995412748991"><ele>367.0</ele><time>2026-04-11T08:08:41.93Z</time></trkpt><trkpt lat="43.888784856204026" lon="11.259080358592588"><ele>369.0</ele><time>2026-04-11T08:08:42.93Z</time></trkpt><trkpt lat="43.888718001578596" lon="11.259175510620173"><ele>371.0</ele><time>2026-04-11T08:08:43.929Z</time></trkpt><trkpt lat="43.88866329610207" lon="11.259293272928407"><ele>373.0</ele><time>2026-04-11T08:08:44.928Z</time></trkpt><trkpt lat="43.888602777840624" lon="11.259412693026473"><ele>375.0</ele><time>2026-04-11T08:08:45.928Z</time></trkpt><trkpt lat="43.888546148900275" lon="11.25951487335334"><ele>377.0</ele><time>2026-04-11T08:08:46.929Z</time></trkpt><trkpt lat="43.88849855012383" lon="11.259595866653818"><ele>375.0</ele><time>2026-04-11T08:08:47.929Z</time></trkpt><trkpt lat="43.888418122005575" lon="11.259686422990157"><ele>373.0</ele><time>2026-04-11T08:08:48.929Z</time></trkpt><trkpt lat="43.88835135485635" lon="11.259772255620954"><ele>371.0</ele><time>2026-04-11T08:08:49.929Z</time></trkpt><trkpt lat="43.88828786519579" lon="11.259860938761237"><ele>369.0</ele><time>2026-04-11T08:08:50.929Z</time></trkpt><trkpt lat="43.888223999171984" lon="11.259924745078438"><ele>367.0</ele><time>2026-04-11T08:08:51.929Z</time></trkpt><trkpt lat="43.88815935092329" lon="11.259987079904027"><ele>365.0</ele><time>2026-04-11T08:08:52.929Z</time></trkpt><trkpt lat="43.88810292559328" lon="11.260064124230205"><ele>365.0</ele><time>2026-04-11T08:08:53.929Z</time></trkpt><trkpt lat="43.88805409915537" lon="11.260152934203363"><ele>365.0</ele><time>2026-04-11T08:08:54.929Z</time></trkpt><trkpt lat="43.88800363374887" lon="11.2602511601854"><ele>365.0</ele><time>2026-04-11T08:08:55.929Z</time></trkpt><trkpt lat="43.88796268827475" lon="11.26038174723822"><ele>365.0</ele><time>2026-04-11T08:08:56.928Z</time></trkpt><trkpt lat="43.887917517123334" lon="11.260558955811984"><ele>365.0</ele><time>2026-04-11T08:08:57.928Z</time></trkpt><trkpt lat="43.88786138030251" lon="11.260699161041625"><ele>367.8</ele><time>2026-04-11T08:08:58.928Z</time></trkpt><trkpt lat="43.887822767587785" lon="11.260836836110066"><ele>370.6</ele><time>2026-04-11T08:08:59.928Z</time></trkpt><trkpt lat="43.88778684612474" lon="11.260970838454252"><ele>373.4</ele><time>2026-04-11T08:09:00.928Z</time></trkpt><trkpt lat="43.88774810286295" lon="11.261088392561176"><ele>376.2</ele><time>2026-04-11T08:09:01.928Z</time></trkpt><trkpt lat="43.88770886871909" lon="11.261206116863276"><ele>379.0</ele><time>2026-04-11T08:09:02.928Z</time></trkpt><trkpt lat="43.88767025424715" lon="11.261315202419667"><ele>379.0</ele><time>2026-04-11T08:09:03.928Z</time></trkpt><trkpt lat="43.88763290812793" lon="11.261425478802717"><ele>379.0</ele><time>2026-04-11T08:09:04.928Z</time></trkpt><trkpt lat="43.88759906258055" lon="11.261537956652319"><ele>379.0</ele><time>2026-04-11T08:09:05.928Z</time></trkpt><trkpt lat="43.88755610814294" lon="11.26168610414633"><ele>379.0</ele><time>2026-04-11T08:09:06.928Z</time></trkpt><trkpt lat="43.887513093727854" lon="11.261836953960222"><ele>379.0</ele><time>2026-04-11T08:09:07.928Z</time></trkpt><trkpt lat="43.88746785308436" lon="11.261995614475676"><ele>373.75</ele><time>2026-04-11T08:09:08.928Z</time></trkpt><trkpt lat="43.88742606532241" lon="11.262158078591575"><ele>368.5</ele><time>2026-04-11T08:09:09.928Z</time></trkpt><trkpt lat="43.88738672984879" lon="11.262322433494498"><ele>363.25</ele><time>2026-04-11T08:09:10.928Z</time></trkpt><trkpt lat="43.887350401913544" lon="11.262504718518539"><ele>358.0</ele><time>2026-04-11T08:09:11.928Z</time></trkpt><trkpt lat="43.88734583071501" lon="11.262704260202042"><ele>358.0</ele><time>2026-04-11T08:09:12.928Z</time></trkpt><trkpt lat="43.887319425811484" lon="11.262891896814638"><ele>358.0</ele><time>2026-04-11T08:09:13.928Z</time></trkpt><trkpt lat="43.8872990814092" lon="11.263084050977959"><ele>358.0</ele><time>2026-04-11T08:09:14.928Z</time></trkpt><trkpt lat="43.88727508612887" lon="11.263276977838464"><ele>358.0</ele><time>2026-04-11T08:09:15.928Z</time></trkpt><trkpt lat="43.887241724629156" lon="11.263471865787283"><ele>358.66666666666663</ele><time>2026-04-11T08:09:16.928Z</time></trkpt><trkpt lat="43.88719921653221" lon="11.263669139542445"><ele>359.3333333333333</ele><time>2026-04-11T08:09:17.928Z</time></trkpt><trkpt lat="43.88715187041003" lon="11.26386891199652"><ele>360.0</ele><time>2026-04-11T08:09:18.928Z</time></trkpt><trkpt lat="43.887104239563776" lon="11.264096596280382"><ele>360.0</ele><time>2026-04-11T08:09:19.928Z</time></trkpt><trkpt lat="43.8870668326997" lon="11.264334266801704"><ele>360.0</ele><time>2026-04-11T08:09:20.928Z</time></trkpt><trkpt lat="43.88704286157169" lon="11.264555825690842"><ele>360.0</ele><time>2026-04-11T08:09:21.928Z</time></trkpt><trkpt lat="43.88701699754185" lon="11.264757239782922"><ele>357.5</ele><time>2026-04-11T08:09:22.928Z</time></trkpt><trkpt lat="43.88699934699568" lon="11.264945230943828"><ele>355.0</ele><time>2026-04-11T08:09:23.928Z</time></trkpt><trkpt lat="43.88699522925198" lon="11.26513036338735"><ele>352.5</ele><time>2026-04-11T08:09:24.928Z</time></trkpt><trkpt lat="43.88700996690985" lon="11.26529859179547"><ele>350.0</ele><time>2026-04-11T08:09:25.928Z</time></trkpt><trkpt lat="43.88703693020024" lon="11.265457408017285"><ele>348.0</ele><time>2026-04-11T08:09:26.928Z</time></trkpt><trkpt lat="43.887075797504934" lon="11.265616632089607"><ele>346.0</ele><time>2026-04-11T08:09:27.928Z</time></trkpt><trkpt lat="43.88712687307578" lon="11.265761465619722"><ele>344.0</ele><time>2026-04-11T08:09:28.928Z</time></trkpt><trkpt lat="43.887179589104974" lon="11.26589300642601"><ele>342.0</ele><time>2026-04-11T08:09:29.928Z</time></trkpt><trkpt lat="43.88723626944411" lon="11.266025051108159"><ele>342.0</ele><time>2026-04-11T08:09:30.928Z</time></trkpt><trkpt lat="43.887269595763605" lon="11.26616293413614"><ele>342.0</ele><time>2026-04-11T08:09:31.928Z</time></trkpt><trkpt lat="43.887307170453" lon="11.266280597973898"><ele>342.0</ele><time>2026-04-11T08:09:32.928Z</time></trkpt><trkpt lat="43.887358274901175" lon="11.266391285301767"><ele>342.0</ele><time>2026-04-11T08:09:33.928Z</time></trkpt><trkpt lat="43.88738343399458" lon="11.266499725991665"><ele>342.0</ele><time>2026-04-11T08:09:34.928Z</time></trkpt><trkpt lat="43.887401846256886" lon="11.266601063367421"><ele>341.1666666666667</ele><time>2026-04-11T08:09:35.928Z</time></trkpt><trkpt lat="43.88741727491749" lon="11.266705205635835"><ele>340.3333333333333</ele><time>2026-04-11T08:09:36.927Z</time></trkpt><trkpt lat="43.88743610642154" lon="11.266840812563753"><ele>339.5</ele><time>2026-04-11T08:09:38.927Z</time></trkpt><trkpt lat="43.887439635960995" lon="11.266933003484677"><ele>338.66666666666663</ele><time>2026-04-11T08:09:40.927Z</time></trkpt><trkpt lat="43.887369863692605" lon="11.266898922085435"><ele>337.8333333333333</ele><time>2026-04-11T08:09:43.927Z</time></trkpt><trkpt lat="43.88730710495655" lon="11.266908625034382"><ele>337.0</ele><time>2026-04-11T08:09:45.927Z</time></trkpt><trkpt lat="43.88724015320432" lon="11.266866100904961"><ele>337.0</ele><time>2026-04-11T08:09:48.927Z</time></trkpt><trkpt lat="43.88712568649947" lon="11.266831368001554"><ele>337.0</ele><time>2026-04-11T08:16:28.92Z</time></trkpt><trkpt lat="43.8870584292688" lon="11.266786710678081"><ele>337.0</ele><time>2026-04-11T08:16:29.92Z</time></trkpt><trkpt lat="43.886982860458424" lon="11.266736247664081"><ele>337.0</ele><time>2026-04-11T08:16:30.92Z</time></trkpt><trkpt lat="43.88689473533455" lon="11.266686446569043"><ele>337.0</ele><time>2026-04-11T08:16:31.92Z</time></trkpt><trkpt lat="43.88679765407784" lon="11.26663953602185"><ele>336.8</ele><time>2026-04-11T08:16:32.92Z</time></trkpt><trkpt lat="43.88669104707674" lon="11.266592212875015"><ele>336.6</ele><time>2026-04-11T08:16:33.92Z</time></trkpt><trkpt lat="43.88659192327703" lon="11.266539845645674"><ele>336.40000000000003</ele><time>2026-04-11T08:16:34.92Z</time></trkpt><trkpt lat="43.886493784686245" lon="11.266480970671074"><ele>336.20000000000005</ele><time>2026-04-11T08:16:35.92Z</time></trkpt><trkpt lat="43.886399312886866" lon="11.266433033955241"><ele>336.0</ele><time>2026-04-11T08:16:36.92Z</time></trkpt><trkpt lat="43.88631653618133" lon="11.266374958789083"><ele>336.0</ele><time>2026-04-11T08:16:37.92Z</time></trkpt><trkpt lat="43.88623744299546" lon="11.266300996140364"><ele>336.0</ele><time>2026-04-11T08:16:38.92Z</time></trkpt><trkpt lat="43.886158867051265" lon="11.266227964055139"><ele>336.0</ele><time>2026-04-11T08:16:39.92Z</time></trkpt><trkpt lat="43.88608212310426" lon="11.266153751381115"><ele>336.0</ele><time>2026-04-11T08:16:40.92Z</time></trkpt><trkpt lat="43.886015876504935" lon="11.266092429554977"><ele>336.0</ele><time>2026-04-11T08:16:41.92Z</time></trkpt><trkpt lat="43.88595445096251" lon="11.26601283712335"><ele>336.0</ele><time>2026-04-11T08:16:42.92Z</time></trkpt><trkpt lat="43.88588967183306" lon="11.26594570883159"><ele>337.4</ele><time>2026-04-11T08:16:43.92Z</time></trkpt><trkpt lat="43.88581684884945" lon="11.265869854894193"><ele>338.8</ele><time>2026-04-11T08:16:44.92Z</time></trkpt><trkpt lat="43.88574443861295" lon="11.265793961284341"><ele>340.2</ele><time>2026-04-11T08:16:45.92Z</time></trkpt><trkpt lat="43.8856721895885" lon="11.265717971366927"><ele>341.59999999999997</ele><time>2026-04-11T08:16:46.92Z</time></trkpt><trkpt lat="43.88560746816739" lon="11.265625198479892"><ele>343.0</ele><time>2026-04-11T08:16:47.92Z</time></trkpt><trkpt lat="43.885547767943976" lon="11.265540844107493"><ele>347.4</ele><time>2026-04-11T08:16:48.919Z</time></trkpt><trkpt lat="43.885491123215616" lon="11.2654425163641"><ele>351.79999999999995</ele><time>2026-04-11T08:16:49.919Z</time></trkpt><trkpt lat="43.8854439050907" lon="11.265346900590437"><ele>356.2</ele><time>2026-04-11T08:16:50.919Z</time></trkpt><trkpt lat="43.88538934026834" lon="11.265253051094716"><ele>360.6</ele><time>2026-04-11T08:16:51.919Z</time></trkpt><trkpt lat="43.88531435782827" lon="11.265169763419909"><ele>365.0</ele><time>2026-04-11T08:16:52.919Z</time></trkpt><trkpt lat="43.88522517298004" lon="11.265103766843584"><ele>365.0</ele><time>2026-04-11T08:16:53.919Z</time></trkpt><trkpt lat="43.88513658715535" lon="11.26506292448953"><ele>365.0</ele><time>2026-04-11T08:16:54.919Z</time></trkpt><trkpt lat="43.88505412402347" lon="11.265005927034055"><ele>365.0</ele><time>2026-04-11T08:16:55.919Z</time></trkpt><trkpt lat="43.884956005370796" lon="11.264993745760014"><ele>365.0</ele><time>2026-04-11T08:16:56.919Z</time></trkpt><trkpt lat="43.88485043310917" lon="11.26498193267281"><ele>365.0</ele><time>2026-04-11T08:16:57.919Z</time></trkpt><trkpt lat="43.88474539729754" lon="11.264951985191828"><ele>364.0</ele><time>2026-04-11T08:16:58.919Z</time></trkpt><trkpt lat="43.884652330033774" lon="11.264920413305367"><ele>363.0</ele><time>2026-04-11T08:16:59.919Z</time></trkpt><trkpt lat="43.88454741384678" lon="11.264876435630386"><ele>362.0</ele><time>2026-04-11T08:17:00.919Z</time></trkpt><trkpt lat="43.8844498130397" lon="11.264806764680767"><ele>361.0</ele><time>2026-04-11T08:17:01.919Z</time></trkpt><trkpt lat="43.884345056818994" lon="11.264747955444532"><ele>360.0</ele><time>2026-04-11T08:17:02.919Z</time></trkpt><trkpt lat="43.884252593306385" lon="11.264671708150026"><ele>366.8</ele><time>2026-04-11T08:17:03.919Z</time></trkpt><trkpt lat="43.88415415568703" lon="11.264621607239514"><ele>373.6</ele><time>2026-04-11T08:17:04.919Z</time></trkpt><trkpt lat="43.88405107229985" lon="11.264578135378654"><ele>380.4</ele><time>2026-04-11T08:17:05.919Z</time></trkpt><trkpt lat="43.88394628204935" lon="11.264545829017917"><ele>387.2</ele><time>2026-04-11T08:17:06.919Z</time></trkpt><trkpt lat="43.883852423874565" lon="11.26449627851694"><ele>394.0</ele><time>2026-04-11T08:17:07.919Z</time></trkpt><trkpt lat="43.88373893721151" lon="11.26446668746312"><ele>394.0</ele><time>2026-04-11T08:17:08.919Z</time></trkpt><trkpt lat="43.88364209932198" lon="11.264436870732847"><ele>394.0</ele><time>2026-04-11T08:17:09.919Z</time></trkpt><trkpt lat="43.8835383593309" lon="11.264447398763847"><ele>394.0</ele><time>2026-04-11T08:17:10.919Z</time></trkpt><trkpt lat="43.88344101318158" lon="11.264436025846326"><ele>394.0</ele><time>2026-04-11T08:17:11.918Z</time></trkpt><trkpt lat="43.883340184318364" lon="11.264399017920015"><ele>394.0</ele><time>2026-04-11T08:17:12.918Z</time></trkpt><trkpt lat="43.883248041065805" lon="11.26432289241065"><ele>390.00000000000006</ele><time>2026-04-11T08:17:13.919Z</time></trkpt><trkpt lat="43.88315906279038" lon="11.264283095927865"><ele>386.0</ele><time>2026-04-11T08:17:14.919Z</time></trkpt><trkpt lat="43.883088276939624" lon="11.264213963714097"><ele>382.0</ele><time>2026-04-11T08:17:15.919Z</time></trkpt><trkpt lat="43.88300968168248" lon="11.264169920814629"><ele>378.0</ele><time>2026-04-11T08:17:16.919Z</time></trkpt><trkpt lat="43.88293503420315" lon="11.264129345801425"><ele>374.0</ele><time>2026-04-11T08:17:17.919Z</time></trkpt><trkpt lat="43.88285436321276" lon="11.26410871253135"><ele>370.0</ele><time>2026-04-11T08:17:18.919Z</time></trkpt><trkpt lat="43.8827689490392" lon="11.264058214729461"><ele>370.0</ele><time>2026-04-11T08:17:19.919Z</time></trkpt><trkpt lat="43.882675856931805" lon="11.264017131269902"><ele>370.0</ele><time>2026-04-11T08:17:20.919Z</time></trkpt><trkpt lat="43.882590338979256" lon="11.263974952628422"><ele>370.0</ele><time>2026-04-11T08:17:21.919Z</time></trkpt><trkpt lat="43.88250356123606" lon="11.263918954134054"><ele>370.0</ele><time>2026-04-11T08:17:22.919Z</time></trkpt><trkpt lat="43.88240787163013" lon="11.26385490861048"><ele>370.0</ele><time>2026-04-11T08:17:23.919Z</time></trkpt><trkpt lat="43.882319933708274" lon="11.263793182703509"><ele>374.6</ele><time>2026-04-11T08:17:24.919Z</time></trkpt><trkpt lat="43.88223391018626" lon="11.263734964620355"><ele>379.2</ele><time>2026-04-11T08:17:25.919Z</time></trkpt><trkpt lat="43.8821567374156" lon="11.263663681720088"><ele>383.79999999999995</ele><time>2026-04-11T08:17:26.919Z</time></trkpt><trkpt lat="43.88208665001767" lon="11.263585792387367"><ele>388.4</ele><time>2026-04-11T08:17:27.919Z</time></trkpt><trkpt lat="43.88201493236309" lon="11.263500594466578"><ele>393.0</ele><time>2026-04-11T08:17:28.919Z</time></trkpt><trkpt lat="43.88194383751614" lon="11.263397440582864"><ele>393.0</ele><time>2026-04-11T08:17:29.919Z</time></trkpt><trkpt lat="43.881883121582405" lon="11.263293531189598"><ele>393.0</ele><time>2026-04-11T08:17:30.919Z</time></trkpt><trkpt lat="43.88181979615011" lon="11.263205690116372"><ele>393.0</ele><time>2026-04-11T08:17:31.919Z</time></trkpt><trkpt lat="43.88175516271324" lon="11.263119031130389"><ele>393.0</ele><time>2026-04-11T08:17:32.919Z</time></trkpt><trkpt lat="43.881686598265134" lon="11.263065351893282"><ele>393.0</ele><time>2026-04-11T08:17:33.919Z</time></trkpt><trkpt lat="43.88160868179871" lon="11.263048011159398"><ele>393.0</ele><time>2026-04-11T08:17:34.919Z</time></trkpt><trkpt lat="43.8815124304863" lon="11.263063268502444"><ele>392.0</ele><time>2026-04-11T08:17:35.919Z</time></trkpt><trkpt lat="43.8814051025062" lon="11.263035286172414"><ele>391.0</ele><time>2026-04-11T08:17:36.919Z</time></trkpt><trkpt lat="43.881313789726015" lon="11.263054591269855"><ele>390.0</ele><time>2026-04-11T08:17:37.919Z</time></trkpt><trkpt lat="43.881227544193244" lon="11.263037454374308"><ele>389.0</ele><time>2026-04-11T08:17:38.919Z</time></trkpt><trkpt lat="43.88115070785647" lon="11.263023300129165"><ele>388.0</ele><time>2026-04-11T08:17:39.919Z</time></trkpt><trkpt lat="43.8810662469561" lon="11.26300306039087"><ele>388.0</ele><time>2026-04-11T08:17:40.919Z</time></trkpt><trkpt lat="43.88098636584724" lon="11.262951247162373"><ele>388.0</ele><time>2026-04-11T08:17:41.919Z</time></trkpt><trkpt lat="43.88090240833686" lon="11.262889440002157"><ele>388.0</ele><time>2026-04-11T08:17:42.919Z</time></trkpt><trkpt lat="43.88081592084368" lon="11.262848430836204"><ele>388.0</ele><time>2026-04-11T08:17:43.919Z</time></trkpt><trkpt lat="43.88071781378556" lon="11.262785943297205"><ele>388.0</ele><time>2026-04-11T08:17:44.919Z</time></trkpt><trkpt lat="43.88062237163402" lon="11.26277938675952"><ele>386.79999999999995</ele><time>2026-04-11T08:17:45.919Z</time></trkpt><trkpt lat="43.88052890956737" lon="11.262796662559804"><ele>385.6</ele><time>2026-04-11T08:17:46.919Z</time></trkpt><trkpt lat="43.88043659785486" lon="11.262809562514853"><ele>384.4</ele><time>2026-04-11T08:17:47.919Z</time></trkpt><trkpt lat="43.88036326819779" lon="11.262806586446251"><ele>383.20000000000005</ele><time>2026-04-11T08:17:48.919Z</time></trkpt><trkpt lat="43.88026854613821" lon="11.262807909177615"><ele>382.0</ele><time>2026-04-11T08:17:49.919Z</time></trkpt><trkpt lat="43.88018415784" lon="11.262734227045051"><ele>382.0</ele><time>2026-04-11T08:17:50.919Z</time></trkpt><trkpt lat="43.88010609673668" lon="11.262672650351485"><ele>382.0</ele><time>2026-04-11T08:17:51.919Z</time></trkpt><trkpt lat="43.880013295043604" lon="11.262596434814622"><ele>382.0</ele><time>2026-04-11T08:17:52.919Z</time></trkpt><trkpt lat="43.87989585268498" lon="11.262512854709614"><ele>382.0</ele><time>2026-04-11T08:17:53.919Z</time></trkpt><trkpt lat="43.87979646725623" lon="11.262428971553852"><ele>382.0</ele><time>2026-04-11T08:17:54.919Z</time></trkpt><trkpt lat="43.87969263029302" lon="11.26237579454917"><ele>381.20000000000005</ele><time>2026-04-11T08:17:55.919Z</time></trkpt><trkpt lat="43.87959238830424" lon="11.262351870181528"><ele>380.4</ele><time>2026-04-11T08:17:56.919Z</time></trkpt><trkpt lat="43.87951031726162" lon="11.262307995388769"><ele>379.6</ele><time>2026-04-11T08:17:57.919Z</time></trkpt><trkpt lat="43.879405009582946" lon="11.262289479431882"><ele>378.79999999999995</ele><time>2026-04-11T08:17:58.919Z</time></trkpt><trkpt lat="43.879298660603816" lon="11.262282709316157"><ele>378.0</ele><time>2026-04-11T08:17:59.919Z</time></trkpt><trkpt lat="43.87920146631282" lon="11.262283128917494"><ele>382.79999999999995</ele><time>2026-04-11T08:18:00.919Z</time></trkpt><trkpt lat="43.87911283303128" lon="11.262270267749585"><ele>387.6</ele><time>2026-04-11T08:18:01.919Z</time></trkpt><trkpt lat="43.8790210917372" lon="11.262275548226858"><ele>392.4</ele><time>2026-04-11T08:18:02.919Z</time></trkpt><trkpt lat="43.87893470873406" lon="11.262254023536729"><ele>397.20000000000005</ele><time>2026-04-11T08:18:03.919Z</time></trkpt><trkpt lat="43.87883678290237" lon="11.262214916426322"><ele>402.0</ele><time>2026-04-11T08:18:04.919Z</time></trkpt><trkpt lat="43.87874257993294" lon="11.262158556092542"><ele>402.0</ele><time>2026-04-11T08:18:05.919Z</time></trkpt><trkpt lat="43.878643144377484" lon="11.262102658518128"><ele>402.0</ele><time>2026-04-11T08:18:06.919Z</time></trkpt><trkpt lat="43.87852097495849" lon="11.262044978481965"><ele>402.0</ele><time>2026-04-11T08:18:07.919Z</time></trkpt><trkpt lat="43.878406748662414" lon="11.261975870041073"><ele>402.0</ele><time>2026-04-11T08:18:08.919Z</time></trkpt><trkpt lat="43.87828460998775" lon="11.26190784038039"><ele>399.0</ele><time>2026-04-11T08:18:09.919Z</time></trkpt><trkpt lat="43.87816243138905" lon="11.261855602617965"><ele>396.0</ele><time>2026-04-11T08:18:10.919Z</time></trkpt><trkpt lat="43.878030099329955" lon="11.261799953993156"><ele>393.0</ele><time>2026-04-11T08:18:11.918Z</time></trkpt><trkpt lat="43.87791687982733" lon="11.261763470344482"><ele>390.0</ele><time>2026-04-11T08:18:12.918Z</time></trkpt><trkpt lat="43.87780638470934" lon="11.261741792417563"><ele>390.0</ele><time>2026-04-11T08:18:13.918Z</time></trkpt><trkpt lat="43.877692586092756" lon="11.261728190354923"><ele>390.0</ele><time>2026-04-11T08:18:14.918Z</time></trkpt><trkpt lat="43.87757451056686" lon="11.261730910885143"><ele>390.0</ele><time>2026-04-11T08:18:15.918Z</time></trkpt><trkpt lat="43.87746637650449" lon="11.261745861029425"><ele>390.0</ele><time>2026-04-11T08:18:16.918Z</time></trkpt><trkpt lat="43.87733717588358" lon="11.26178529388816"><ele>389.0</ele><time>2026-04-11T08:18:17.918Z</time></trkpt><trkpt lat="43.877237385462756" lon="11.261770684922798"><ele>388.0</ele><time>2026-04-11T08:18:18.918Z</time></trkpt><trkpt lat="43.87713316335887" lon="11.261777188546665"><ele>387.0</ele><time>2026-04-11T08:18:19.918Z</time></trkpt><trkpt lat="43.877052503827926" lon="11.261763656917967"><ele>386.0</ele><time>2026-04-11T08:18:20.918Z</time></trkpt><trkpt lat="43.87695826155924" lon="11.261735380600108"><ele>385.0</ele><time>2026-04-11T08:18:21.918Z</time></trkpt><trkpt lat="43.876868201460944" lon="11.261712369903448"><ele>385.0</ele><time>2026-04-11T08:18:22.918Z</time></trkpt><trkpt lat="43.87678037625368" lon="11.26168895454404"><ele>385.0</ele><time>2026-04-11T08:18:23.918Z</time></trkpt><trkpt lat="43.87669742885274" lon="11.26168359381656"><ele>385.0</ele><time>2026-04-11T08:18:24.918Z</time></trkpt><trkpt lat="43.876615519858596" lon="11.26169532993046"><ele>385.0</ele><time>2026-04-11T08:18:25.918Z</time></trkpt><trkpt lat="43.876514406760776" lon="11.26170197112944"><ele>385.0</ele><time>2026-04-11T08:18:26.918Z</time></trkpt><trkpt lat="43.876416719744036" lon="11.261700998878329"><ele>385.8</ele><time>2026-04-11T08:18:27.918Z</time></trkpt><trkpt lat="43.87632325376939" lon="11.26170873590867"><ele>386.6</ele><time>2026-04-11T08:18:28.918Z</time></trkpt><trkpt lat="43.876236045287015" lon="11.261746576670049"><ele>387.4</ele><time>2026-04-11T08:18:29.918Z</time></trkpt><trkpt lat="43.87615238739803" lon="11.261781003486377"><ele>388.2</ele><time>2026-04-11T08:18:30.918Z</time></trkpt><trkpt lat="43.87606986430781" lon="11.261849284880498"><ele>389.0</ele><time>2026-04-11T08:18:31.918Z</time></trkpt><trkpt lat="43.87599100175087" lon="11.261936895803185"><ele>391.0</ele><time>2026-04-11T08:18:32.918Z</time></trkpt><trkpt lat="43.87589395746304" lon="11.262015022638737"><ele>393.0</ele><time>2026-04-11T08:18:33.918Z</time></trkpt><trkpt lat="43.87579069747105" lon="11.262057406547694"><ele>395.0</ele><time>2026-04-11T08:18:34.918Z</time></trkpt><trkpt lat="43.87567638088592" lon="11.262092135836893"><ele>397.0</ele><time>2026-04-11T08:18:35.918Z</time></trkpt><trkpt lat="43.875570478297384" lon="11.262107501222763"><ele>399.0</ele><time>2026-04-11T08:18:36.918Z</time></trkpt><trkpt lat="43.875462805097996" lon="11.26210932815867"><ele>399.0</ele><time>2026-04-11T08:18:37.918Z</time></trkpt><trkpt lat="43.87537312828798" lon="11.262081486161575"><ele>399.0</ele><time>2026-04-11T08:18:38.918Z</time></trkpt><trkpt lat="43.87526820208695" lon="11.262080844851612"><ele>399.0</ele><time>2026-04-11T08:18:39.918Z</time></trkpt><trkpt lat="43.875175416126524" lon="11.26208269118168"><ele>399.0</ele><time>2026-04-11T08:18:40.918Z</time></trkpt><trkpt lat="43.87508146458071" lon="11.262087378996668"><ele>399.0</ele><time>2026-04-11T08:18:41.918Z</time></trkpt><trkpt lat="43.87501777288605" lon="11.262050359244485"><ele>399.5</ele><time>2026-04-11T08:18:42.918Z</time></trkpt><trkpt lat="43.874937161075984" lon="11.26199667912527"><ele>400.0</ele><time>2026-04-11T08:18:43.918Z</time></trkpt><trkpt lat="43.87488021331674" lon="11.261929468261986"><ele>400.5</ele><time>2026-04-11T08:18:44.918Z</time></trkpt><trkpt lat="43.87483890382679" lon="11.261842159747928"><ele>401.0</ele><time>2026-04-11T08:18:45.918Z</time></trkpt><trkpt lat="43.8747959913839" lon="11.261718810074635"><ele>401.5</ele><time>2026-04-11T08:18:46.918Z</time></trkpt><trkpt lat="43.87475699113135" lon="11.261606705564303"><ele>402.0</ele><time>2026-04-11T08:18:47.918Z</time></trkpt><trkpt lat="43.87471042936024" lon="11.26147286619803"><ele>407.40000000000003</ele><time>2026-04-11T08:18:48.918Z</time></trkpt><trkpt lat="43.87466047000615" lon="11.261340186279067"><ele>412.8</ele><time>2026-04-11T08:18:49.918Z</time></trkpt><trkpt lat="43.87461506062417" lon="11.261226185145137"><ele>418.2</ele><time>2026-04-11T08:18:50.918Z</time></trkpt><trkpt lat="43.87457505177606" lon="11.261142109189349"><ele>423.6</ele><time>2026-04-11T08:18:51.918Z</time></trkpt><trkpt lat="43.874514128888684" lon="11.261024670568684"><ele>429.0</ele><time>2026-04-11T08:18:52.918Z</time></trkpt><trkpt lat="43.87445351844488" lon="11.260903015868898"><ele>429.0</ele><time>2026-04-11T08:18:53.918Z</time></trkpt><trkpt lat="43.87440642883767" lon="11.260812203970735"><ele>429.0</ele><time>2026-04-11T08:18:54.918Z</time></trkpt><trkpt lat="43.87436274807317" lon="11.260731052104767"><ele>429.0</ele><time>2026-04-11T08:18:55.918Z</time></trkpt><trkpt lat="43.87427832086811" lon="11.260641011627051"><ele>429.0</ele><time>2026-04-11T08:18:57.918Z</time></trkpt><trkpt lat="43.87418635062883" lon="11.260633527813548"><ele>429.0</ele><time>2026-04-11T08:18:58.918Z</time></trkpt><trkpt lat="43.87407878751046" lon="11.260701186410952"><ele>424.4</ele><time>2026-04-11T08:18:59.918Z</time></trkpt><trkpt lat="43.87399733109912" lon="11.26080605737969"><ele>419.79999999999995</ele><time>2026-04-11T08:19:00.918Z</time></trkpt><trkpt lat="43.87394570662635" lon="11.260888281496577"><ele>415.20000000000005</ele><time>2026-04-11T08:19:01.918Z</time></trkpt><trkpt lat="43.873891194396165" lon="11.26096902537886"><ele>410.6</ele><time>2026-04-11T08:19:02.918Z</time></trkpt><trkpt lat="43.87383124502029" lon="11.261013258345997"><ele>406.0</ele><time>2026-04-11T08:19:03.918Z</time></trkpt><trkpt lat="43.87367289833227" lon="11.260850822688163"><ele>406.0</ele><time>2026-04-11T08:19:06.918Z</time></trkpt><trkpt lat="43.87366952252606" lon="11.26075190055782"><ele>406.0</ele><time>2026-04-11T08:19:07.918Z</time></trkpt><trkpt lat="43.87371004950971" lon="11.260644134936319"><ele>406.0</ele><time>2026-04-11T08:19:08.918Z</time></trkpt><trkpt lat="43.87371558009477" lon="11.260543696986588"><ele>406.0</ele><time>2026-04-11T08:19:09.918Z</time></trkpt><trkpt lat="43.873706189295724" lon="11.260452828770505"><ele>406.0</ele><time>2026-04-11T08:19:10.918Z</time></trkpt><trkpt lat="43.87368532068803" lon="11.260359286238147"><ele>406.0</ele><time>2026-04-11T08:19:11.918Z</time></trkpt><trkpt lat="43.87362092652477" lon="11.26029583876319"><ele>406.0</ele><time>2026-04-11T08:19:13.917Z</time></trkpt><trkpt lat="43.873582008670965" lon="11.260384064754955"><ele>406.0</ele><time>2026-04-11T08:19:15.916Z</time></trkpt><trkpt lat="43.873507517992934" lon="11.260522645116549"><ele>406.0</ele><time>2026-04-11T08:19:17.916Z</time></trkpt><trkpt lat="43.873470562120296" lon="11.260596092742867"><ele>406.0</ele><time>2026-04-11T08:19:18.916Z</time></trkpt><trkpt lat="43.873449637998306" lon="11.260679763434167"><ele>406.0</ele><time>2026-04-11T08:19:19.916Z</time></trkpt><trkpt lat="43.87343735335451" lon="11.26087365024594"><ele>406.0</ele><time>2026-04-11T08:19:21.916Z</time></trkpt><trkpt lat="43.87345845045047" lon="11.260984105402642"><ele>406.0</ele><time>2026-04-11T08:19:22.916Z</time></trkpt><trkpt lat="43.87348465085845" lon="11.261092455947495"><ele>406.0</ele><time>2026-04-11T08:19:23.916Z</time></trkpt><trkpt lat="43.87351851683288" lon="11.261206575469314"><ele>406.0</ele><time>2026-04-11T08:19:24.916Z</time></trkpt><trkpt lat="43.873573742071464" lon="11.261328010421577"><ele>406.0</ele><time>2026-04-11T08:19:25.916Z</time></trkpt><trkpt lat="43.87362022124235" lon="11.26144425967058"><ele>406.0</ele><time>2026-04-11T08:19:26.916Z</time></trkpt><trkpt lat="43.87367553640299" lon="11.26155857203171"><ele>405.6666666666667</ele><time>2026-04-11T08:19:27.916Z</time></trkpt><trkpt lat="43.873710542605046" lon="11.261656481539633"><ele>405.33333333333337</ele><time>2026-04-11T08:19:28.916Z</time></trkpt><trkpt lat="43.87372204451223" lon="11.261757505068521"><ele>405.0</ele><time>2026-04-11T08:19:29.916Z</time></trkpt><trkpt lat="43.87368220557146" lon="11.261867621206536"><ele>404.66666666666663</ele><time>2026-04-11T08:19:31.916Z</time></trkpt><trkpt lat="43.873609518331094" lon="11.261841187763492"><ele>404.3333333333333</ele><time>2026-04-11T08:19:33.916Z</time></trkpt><trkpt lat="43.873562948206526" lon="11.261778941016397"><ele>404.0</ele><time>2026-04-11T08:19:34.916Z</time></trkpt><trkpt lat="43.87350846242854" lon="11.26167767776284"><ele>404.0</ele><time>2026-04-11T08:19:35.916Z</time></trkpt><trkpt lat="43.87345863907935" lon="11.26157057897837"><ele>404.0</ele><time>2026-04-11T08:19:36.916Z</time></trkpt><trkpt lat="43.87339454469571" lon="11.261455830186714"><ele>404.0</ele><time>2026-04-11T08:19:37.916Z</time></trkpt><trkpt lat="43.87331462649806" lon="11.2613310857345"><ele>404.0</ele><time>2026-04-11T08:19:38.916Z</time></trkpt><trkpt lat="43.87322471652765" lon="11.261180828745205"><ele>410.0</ele><time>2026-04-11T08:19:39.916Z</time></trkpt><trkpt lat="43.87314076695887" lon="11.26103607352617"><ele>416.0</ele><time>2026-04-11T08:19:40.916Z</time></trkpt><trkpt lat="43.87305692663971" lon="11.260889777894718"><ele>422.0</ele><time>2026-04-11T08:19:41.916Z</time></trkpt><trkpt lat="43.872992033422825" lon="11.260756476333015"><ele>428.0</ele><time>2026-04-11T08:19:42.916Z</time></trkpt><trkpt lat="43.87295051822346" lon="11.260619900945278"><ele>428.2</ele><time>2026-04-11T08:19:43.916Z</time></trkpt><trkpt lat="43.872929537855136" lon="11.260476142971308"><ele>428.4</ele><time>2026-04-11T08:19:44.916Z</time></trkpt><trkpt lat="43.87294020294905" lon="11.260319570419847"><ele>428.59999999999997</ele><time>2026-04-11T08:19:45.916Z</time></trkpt><trkpt lat="43.87293186422417" lon="11.260196330235491"><ele>428.79999999999995</ele><time>2026-04-11T08:19:46.916Z</time></trkpt><trkpt lat="43.87291523394708" lon="11.260056271277637"><ele>429.0</ele><time>2026-04-11T08:19:47.916Z</time></trkpt><trkpt lat="43.872871878027055" lon="11.259924185515914"><ele>429.0</ele><time>2026-04-11T08:19:48.916Z</time></trkpt><trkpt lat="43.87282519623052" lon="11.259815017471714"><ele>429.0</ele><time>2026-04-11T08:19:49.916Z</time></trkpt><trkpt lat="43.8727840790443" lon="11.259706943424943"><ele>429.0</ele><time>2026-04-11T08:19:50.916Z</time></trkpt><trkpt lat="43.87275336418616" lon="11.259571322277406"><ele>429.0</ele><time>2026-04-11T08:19:51.916Z</time></trkpt><trkpt lat="43.872729694272834" lon="11.259406862569266"><ele>429.0</ele><time>2026-04-11T08:19:52.915Z</time></trkpt><trkpt lat="43.87270787927442" lon="11.25921906863781"><ele>430.4</ele><time>2026-04-11T08:19:53.915Z</time></trkpt><trkpt lat="43.87268643820988" lon="11.259073958210424"><ele>431.79999999999995</ele><time>2026-04-11T08:19:54.915Z</time></trkpt><trkpt lat="43.87265299716853" lon="11.258932760010358"><ele>433.20000000000005</ele><time>2026-04-11T08:19:55.915Z</time></trkpt><trkpt lat="43.87261041153883" lon="11.258799736026246"><ele>434.6</ele><time>2026-04-11T08:19:56.915Z</time></trkpt><trkpt lat="43.872533847646764" lon="11.258656479620905"><ele>436.0</ele><time>2026-04-11T08:19:57.915Z</time></trkpt><trkpt lat="43.872466171020264" lon="11.25852249429083"><ele>440.0</ele><time>2026-04-11T08:19:58.915Z</time></trkpt><trkpt lat="43.872412919725235" lon="11.258398454034483"><ele>444.0</ele><time>2026-04-11T08:19:59.915Z</time></trkpt><trkpt lat="43.87236376653497" lon="11.25828011036393"><ele>448.0</ele><time>2026-04-11T08:20:00.915Z</time></trkpt><trkpt lat="43.87232486303652" lon="11.258176875003743"><ele>452.0</ele><time>2026-04-11T08:20:01.915Z</time></trkpt><trkpt lat="43.87224112661554" lon="11.258033129685908"><ele>456.0</ele><time>2026-04-11T08:20:03.915Z</time></trkpt><trkpt lat="43.87217294711958" lon="11.257960249038003"><ele>456.75</ele><time>2026-04-11T08:20:04.915Z</time></trkpt><trkpt lat="43.87211240562861" lon="11.257905668873466"><ele>457.5</ele><time>2026-04-11T08:20:05.915Z</time></trkpt><trkpt lat="43.871991503885525" lon="11.2578138617115"><ele>458.25</ele><time>2026-04-11T08:20:07.915Z</time></trkpt><trkpt lat="43.871864057793765" lon="11.257872481316461"><ele>459.0</ele><time>2026-04-11T08:20:08.915Z</time></trkpt><trkpt lat="43.87179779230854" lon="11.257992078411993"><ele>461.4</ele><time>2026-04-11T08:20:09.915Z</time></trkpt><trkpt lat="43.87175790931034" lon="11.258090307932502"><ele>463.79999999999995</ele><time>2026-04-11T08:20:10.915Z</time></trkpt><trkpt lat="43.87171258407543" lon="11.258196255451052"><ele>466.20000000000005</ele><time>2026-04-11T08:20:11.915Z</time></trkpt><trkpt lat="43.87165143675557" lon="11.258336262040782"><ele>468.6</ele><time>2026-04-11T08:20:12.915Z</time></trkpt><trkpt lat="43.87161409093251" lon="11.258475795143719"><ele>471.0</ele><time>2026-04-11T08:20:13.915Z</time></trkpt><trkpt lat="43.87159683102792" lon="11.258604354959935"><ele>471.0</ele><time>2026-04-11T08:20:14.915Z</time></trkpt><trkpt lat="43.87159409254066" lon="11.258718885131454"><ele>471.0</ele><time>2026-04-11T08:20:16.915Z</time></trkpt><trkpt lat="43.87150494340582" lon="11.258660256076036"><ele>471.0</ele><time>2026-04-11T08:20:20.915Z</time></trkpt><trkpt lat="43.87147287849641" lon="11.258538051484813"><ele>471.0</ele><time>2026-04-11T08:20:21.915Z</time></trkpt><trkpt lat="43.871465788355835" lon="11.258417252858862"><ele>471.0</ele><time>2026-04-11T08:20:22.915Z</time></trkpt><trkpt lat="43.871466093214366" lon="11.258269628387776"><ele>471.0</ele><time>2026-04-11T08:20:23.915Z</time></trkpt><trkpt lat="43.87146299796475" lon="11.258118909138197"><ele>471.0</ele><time>2026-04-11T08:20:24.915Z</time></trkpt><trkpt lat="43.871477478586584" lon="11.257951984919382"><ele>471.0</ele><time>2026-04-11T08:20:25.915Z</time></trkpt><trkpt lat="43.87149616826109" lon="11.257797172528264"><ele>471.0</ele><time>2026-04-11T08:20:26.915Z</time></trkpt><trkpt lat="43.871498952978754" lon="11.257650336963437"><ele>471.0</ele><time>2026-04-11T08:20:27.915Z</time></trkpt><trkpt lat="43.871532297875525" lon="11.257535511795846"><ele>472.6666666666667</ele><time>2026-04-11T08:20:28.915Z</time></trkpt><trkpt lat="43.87156501895392" lon="11.257428230816553"><ele>474.33333333333337</ele><time>2026-04-11T08:20:29.915Z</time></trkpt><trkpt lat="43.8715971190757" lon="11.257312165896257"><ele>476.0</ele><time>2026-04-11T08:20:30.915Z</time></trkpt><trkpt lat="43.87158946626176" lon="11.257217805526391"><ele>477.6666666666667</ele><time>2026-04-11T08:20:31.915Z</time></trkpt><trkpt lat="43.871568441652585" lon="11.257112946285945"><ele>479.33333333333337</ele><time>2026-04-11T08:20:32.915Z</time></trkpt><trkpt lat="43.87153361769506" lon="11.257008837218248"><ele>481.0</ele><time>2026-04-11T08:20:33.915Z</time></trkpt><trkpt lat="43.871510216684534" lon="11.256903752809675"><ele>483.1666666666667</ele><time>2026-04-11T08:20:34.915Z</time></trkpt><trkpt lat="43.87147814721008" lon="11.256789832310695"><ele>485.33333333333337</ele><time>2026-04-11T08:20:35.915Z</time></trkpt><trkpt lat="43.87146066829732" lon="11.256686406980991"><ele>487.5</ele><time>2026-04-11T08:20:36.915Z</time></trkpt><trkpt lat="43.87143453655502" lon="11.25658197307317"><ele>489.66666666666663</ele><time>2026-04-11T08:20:37.915Z</time></trkpt><trkpt lat="43.871435659562124" lon="11.256445347506487"><ele>491.8333333333333</ele><time>2026-04-11T08:20:39.915Z</time></trkpt><trkpt lat="43.87138844205802" lon="11.256370890508151"><ele>494.0</ele><time>2026-04-11T08:20:41.915Z</time></trkpt><trkpt lat="43.87134442836406" lon="11.256307257406425"><ele>495.8333333333333</ele><time>2026-04-11T08:20:42.915Z</time></trkpt><trkpt lat="43.871264195600666" lon="11.256283365752482"><ele>497.66666666666663</ele><time>2026-04-11T08:20:44.915Z</time></trkpt><trkpt lat="43.87120111743223" lon="11.256273624552415"><ele>499.5</ele><time>2026-04-11T08:20:47.915Z</time></trkpt><trkpt lat="43.87112149447179" lon="11.256268641689143"><ele>501.33333333333337</ele><time>2026-04-11T08:20:55.915Z</time></trkpt><trkpt lat="43.87100983362887" lon="11.256262519308072"><ele>503.1666666666667</ele><time>2026-04-11T08:20:57.915Z</time></trkpt><trkpt lat="43.87090276172633" lon="11.25626602079747"><ele>505.0</ele><time>2026-04-11T08:20:59.914Z</time></trkpt><trkpt lat="43.870827598503254" lon="11.25628560815644"><ele>504.00000000000006</ele><time>2026-04-11T08:21:00.914Z</time></trkpt><trkpt lat="43.87074777011811" lon="11.256337612483602"><ele>503.0</ele><time>2026-04-11T08:21:01.914Z</time></trkpt><trkpt lat="43.87067369969625" lon="11.256332849065693"><ele>502.0</ele><time>2026-04-11T08:21:02.914Z</time></trkpt><trkpt lat="43.8705989645902" lon="11.256348928496111"><ele>501.0</ele><time>2026-04-11T08:21:03.914Z</time></trkpt><trkpt lat="43.87052707780666" lon="11.25637068174725"><ele>500.00000000000006</ele><time>2026-04-11T08:21:04.914Z</time></trkpt><trkpt lat="43.870419153813344" lon="11.256417406261097"><ele>499.0</ele><time>2026-04-11T08:21:06.914Z</time></trkpt><trkpt lat="43.87036096396872" lon="11.256475246112327"><ele>499.0</ele><time>2026-04-11T08:21:07.914Z</time></trkpt><trkpt lat="43.870321405087104" lon="11.256578697912499"><ele>499.0</ele><time>2026-04-11T08:21:08.914Z</time></trkpt><trkpt lat="43.87028430679162" lon="11.256674086695705"><ele>499.0</ele><time>2026-04-11T08:21:09.914Z</time></trkpt><trkpt lat="43.87025048241489" lon="11.256766855620405"><ele>499.0</ele><time>2026-04-11T08:21:10.914Z</time></trkpt><trkpt lat="43.87020507481377" lon="11.256904982979195"><ele>499.0</ele><time>2026-04-11T08:21:12.914Z</time></trkpt><trkpt lat="43.87011910917298" lon="11.257039572634302"><ele>499.00000000000006</ele><time>2026-04-11T08:21:14.914Z</time></trkpt><trkpt lat="43.87004541792076" lon="11.257063887905812"><ele>499.0</ele><time>2026-04-11T08:21:15.914Z</time></trkpt><trkpt lat="43.86995662110329" lon="11.257062361170057"><ele>499.0</ele><time>2026-04-11T08:21:16.914Z</time></trkpt><trkpt lat="43.86987631285614" lon="11.25704683105437"><ele>499.0</ele><time>2026-04-11T08:21:17.914Z</time></trkpt><trkpt lat="43.8698034972028" lon="11.257029457101407"><ele>499.00000000000006</ele><time>2026-04-11T08:21:18.914Z</time></trkpt><trkpt lat="43.86973031965573" lon="11.257013960478371"><ele>499.0</ele><time>2026-04-11T08:21:19.914Z</time></trkpt><trkpt lat="43.86964503685571" lon="11.257019336769801"><ele>499.00000000000006</ele><time>2026-04-11T08:21:20.914Z</time></trkpt><trkpt lat="43.869568624737006" lon="11.25705495839357"><ele>499.0</ele><time>2026-04-11T08:21:21.914Z</time></trkpt><trkpt lat="43.86948024371243" lon="11.257091867053825"><ele>499.0</ele><time>2026-04-11T08:21:22.913Z</time></trkpt><trkpt lat="43.86940783864378" lon="11.257136498049507"><ele>499.0</ele><time>2026-04-11T08:21:23.914Z</time></trkpt><trkpt lat="43.8693411341249" lon="11.25715207396424"><ele>499.00000000000006</ele><time>2026-04-11T08:21:24.914Z</time></trkpt><trkpt lat="43.86923618297293" lon="11.257127876225464"><ele>499.0</ele><time>2026-04-11T08:21:26.913Z</time></trkpt><trkpt lat="43.86916586486226" lon="11.257108835722402"><ele>497.2</ele><time>2026-04-11T08:21:27.913Z</time></trkpt><trkpt lat="43.86905846037305" lon="11.257093367108292"><ele>495.4</ele><time>2026-04-11T08:21:29.913Z</time></trkpt><trkpt lat="43.8689680970242" lon="11.257084970641847"><ele>493.6</ele><time>2026-04-11T08:21:31.913Z</time></trkpt><trkpt lat="43.868893048733526" lon="11.257215723753928"><ele>491.8</ele><time>2026-04-11T08:21:33.913Z</time></trkpt><trkpt lat="43.8688129925512" lon="11.257229774214782"><ele>490.0</ele><time>2026-04-11T08:21:37.913Z</time></trkpt><trkpt lat="43.86876367453598" lon="11.257161823908586"><ele>490.0</ele><time>2026-04-11T08:21:38.913Z</time></trkpt><trkpt lat="43.86871668744443" lon="11.257085697862548"><ele>490.0</ele><time>2026-04-11T08:21:39.913Z</time></trkpt><trkpt lat="43.86864676329054" lon="11.257003507743406"><ele>490.0</ele><time>2026-04-11T08:21:40.913Z</time></trkpt><trkpt lat="43.86854912175615" lon="11.256919650377636"><ele>490.0</ele><time>2026-04-11T08:21:41.913Z</time></trkpt><trkpt lat="43.86846962853956" lon="11.256849211125981"><ele>490.0</ele><time>2026-04-11T08:21:42.913Z</time></trkpt><trkpt lat="43.86839591050231" lon="11.256793902109683"><ele>487.50000000000006</ele><time>2026-04-11T08:21:43.913Z</time></trkpt><trkpt lat="43.86834008881018" lon="11.256746458120743"><ele>485.0</ele><time>2026-04-11T08:21:44.913Z</time></trkpt><trkpt lat="43.86826239993419" lon="11.256758845809486"><ele>482.5</ele><time>2026-04-11T08:21:45.913Z</time></trkpt><trkpt lat="43.868191368637135" lon="11.256861265785803"><ele>480.0</ele><time>2026-04-11T08:21:46.913Z</time></trkpt><trkpt lat="43.868164277115504" lon="11.256972567077572"><ele>477.50000000000006</ele><time>2026-04-11T08:21:47.913Z</time></trkpt><trkpt lat="43.86812773819795" lon="11.257091088776049"><ele>475.0</ele><time>2026-04-11T08:21:48.913Z</time></trkpt><trkpt lat="43.86808130072715" lon="11.257217650327545"><ele>471.6</ele><time>2026-04-11T08:21:49.913Z</time></trkpt><trkpt lat="43.86802265510943" lon="11.257340696010367"><ele>468.2</ele><time>2026-04-11T08:21:50.913Z</time></trkpt><trkpt lat="43.867956133233825" lon="11.257436994017908"><ele>464.79999999999995</ele><time>2026-04-11T08:21:51.913Z</time></trkpt><trkpt lat="43.867882850572556" lon="11.257536733920176"><ele>461.4</ele><time>2026-04-11T08:21:52.913Z</time></trkpt><trkpt lat="43.86781558300444" lon="11.25762828714712"><ele>458.0</ele><time>2026-04-11T08:21:53.913Z</time></trkpt><trkpt lat="43.86775732219989" lon="11.257706294730845"><ele>458.0</ele><time>2026-04-11T08:21:54.913Z</time></trkpt><trkpt lat="43.86763482215303" lon="11.257779005284647"><ele>457.99999999999994</ele><time>2026-04-11T08:21:56.913Z</time></trkpt><trkpt lat="43.867529707879484" lon="11.257758059148628"><ele>457.99999999999994</ele><time>2026-04-11T08:21:57.913Z</time></trkpt><trkpt lat="43.86742965962255" lon="11.257749492845182"><ele>458.0</ele><time>2026-04-11T08:21:58.913Z</time></trkpt><trkpt lat="43.867343293979665" lon="11.257740008257457"><ele>458.0</ele><time>2026-04-11T08:21:59.913Z</time></trkpt><trkpt lat="43.86724370325462" lon="11.257729534049746"><ele>456.79999999999995</ele><time>2026-04-11T08:22:00.913Z</time></trkpt><trkpt lat="43.867164162187265" lon="11.257691642737338"><ele>455.59999999999997</ele><time>2026-04-11T08:22:01.913Z</time></trkpt><trkpt lat="43.867078503187784" lon="11.257651447619699"><ele>454.40000000000003</ele><time>2026-04-11T08:22:02.913Z</time></trkpt><trkpt lat="43.867003647926566" lon="11.25760764271925"><ele>453.20000000000005</ele><time>2026-04-11T08:22:03.913Z</time></trkpt><trkpt lat="43.866926095103345" lon="11.257550601828678"><ele>452.0</ele><time>2026-04-11T08:22:04.913Z</time></trkpt><trkpt lat="43.866835987547425" lon="11.257464654887787"><ele>454.6</ele><time>2026-04-11T08:22:05.913Z</time></trkpt><trkpt lat="43.866752042456135" lon="11.257378803952758"><ele>457.20000000000005</ele><time>2026-04-11T08:22:06.913Z</time></trkpt><trkpt lat="43.8666743168476" lon="11.257331989546454"><ele>459.8</ele><time>2026-04-11T08:22:07.913Z</time></trkpt><trkpt lat="43.86658769261099" lon="11.257284604301733"><ele>462.4</ele><time>2026-04-11T08:22:08.913Z</time></trkpt><trkpt lat="43.866475820164645" lon="11.257293967896414"><ele>465.0</ele><time>2026-04-11T08:22:09.913Z</time></trkpt><trkpt lat="43.86635823024453" lon="11.257320874820849"><ele>463.0</ele><time>2026-04-11T08:22:10.913Z</time></trkpt><trkpt lat="43.86625843832072" lon="11.257341086245049"><ele>461.0</ele><time>2026-04-11T08:22:11.913Z</time></trkpt><trkpt lat="43.866167056813985" lon="11.257367493732058"><ele>459.0</ele><time>2026-04-11T08:22:12.913Z</time></trkpt><trkpt lat="43.866078777386925" lon="11.257342183971684"><ele>457.0</ele><time>2026-04-11T08:22:13.913Z</time></trkpt><trkpt lat="43.86598403455888" lon="11.257310362904793"><ele>455.0</ele><time>2026-04-11T08:22:14.913Z</time></trkpt><trkpt lat="43.865886514280476" lon="11.257281574225003"><ele>455.0</ele><time>2026-04-11T08:22:15.912Z</time></trkpt><trkpt lat="43.865784671247916" lon="11.257239458512373"><ele>455.0</ele><time>2026-04-11T08:22:16.912Z</time></trkpt><trkpt lat="43.86567997040447" lon="11.25717986869766"><ele>455.0</ele><time>2026-04-11T08:22:17.912Z</time></trkpt><trkpt lat="43.865566681214105" lon="11.25710749014797"><ele>455.0</ele><time>2026-04-11T08:22:18.912Z</time></trkpt><trkpt lat="43.86548471127318" lon="11.257034834236807"><ele>455.0</ele><time>2026-04-11T08:22:19.912Z</time></trkpt><trkpt lat="43.86540228846698" lon="11.256981171003464"><ele>454.99999999999994</ele><time>2026-04-11T08:22:20.912Z</time></trkpt><trkpt lat="43.86533176579277" lon="11.256941218688965"><ele>455.0</ele><time>2026-04-11T08:22:21.912Z</time></trkpt><trkpt lat="43.86523832607416" lon="11.256935845891979"><ele>455.0</ele><time>2026-04-11T08:22:22.912Z</time></trkpt><trkpt lat="43.86514915886731" lon="11.256952903680567"><ele>455.0</ele><time>2026-04-11T08:22:23.912Z</time></trkpt><trkpt lat="43.86505330189756" lon="11.256969765989588"><ele>454.99999999999994</ele><time>2026-04-11T08:22:24.912Z</time></trkpt><trkpt lat="43.86497325907094" lon="11.256971480088403"><ele>455.0</ele><time>2026-04-11T08:22:25.912Z</time></trkpt><trkpt lat="43.86488145130941" lon="11.256973878145613"><ele>453.16666666666663</ele><time>2026-04-11T08:22:26.912Z</time></trkpt><trkpt lat="43.86480568596685" lon="11.256973894980616"><ele>451.3333333333333</ele><time>2026-04-11T08:22:27.912Z</time></trkpt><trkpt lat="43.864730557178525" lon="11.256982136022605"><ele>449.5</ele><time>2026-04-11T08:22:28.913Z</time></trkpt><trkpt lat="43.86465770876899" lon="11.25696373876021"><ele>447.66666666666663</ele><time>2026-04-11T08:22:29.915Z</time></trkpt><trkpt lat="43.864580451956286" lon="11.256976680785392"><ele>445.8333333333333</ele><time>2026-04-11T08:22:30.916Z</time></trkpt><trkpt lat="43.86450464021864" lon="11.257023894179692"><ele>444.0</ele><time>2026-04-11T08:22:31.918Z</time></trkpt><trkpt lat="43.86445314774363" lon="11.257095326944356"><ele>444.0</ele><time>2026-04-11T08:22:32.919Z</time></trkpt><trkpt lat="43.864404862245955" lon="11.257169053663594"><ele>444.0</ele><time>2026-04-11T08:22:33.921Z</time></trkpt><trkpt lat="43.86432943829801" lon="11.25725572455757"><ele>444.0</ele><time>2026-04-11T08:22:35.923Z</time></trkpt><trkpt lat="43.86422091749167" lon="11.25730378090307"><ele>444.0</ele><time>2026-04-11T08:22:37.925Z</time></trkpt><trkpt lat="43.864153423605906" lon="11.257325964240687"><ele>444.0</ele><time>2026-04-11T08:22:38.926Z</time></trkpt><trkpt lat="43.86405909618473" lon="11.257338274158904"><ele>444.0</ele><time>2026-04-11T08:22:39.927Z</time></trkpt><trkpt lat="43.863962796801296" lon="11.25735038292453"><ele>441.8333333333333</ele><time>2026-04-11T08:22:40.928Z</time></trkpt><trkpt lat="43.863895510253954" lon="11.257376959724539"><ele>439.66666666666663</ele><time>2026-04-11T08:22:41.929Z</time></trkpt><trkpt lat="43.863841508641165" lon="11.257433633522211"><ele>437.5</ele><time>2026-04-11T08:22:42.929Z</time></trkpt><trkpt lat="43.863801261152524" lon="11.257555959977799"><ele>435.3333333333333</ele><time>2026-04-11T08:22:43.93Z</time></trkpt><trkpt lat="43.8638249421944" lon="11.25766159384651"><ele>433.16666666666663</ele><time>2026-04-11T08:22:44.931Z</time></trkpt><trkpt lat="43.86387410371026" lon="11.257739014921503"><ele>431.0</ele><time>2026-04-11T08:22:45.931Z</time></trkpt><trkpt lat="43.863949599543595" lon="11.257890086119367"><ele>431.0</ele><time>2026-04-11T08:22:47.933Z</time></trkpt><trkpt lat="43.86397011423081" lon="11.257972914288647"><ele>431.0</ele><time>2026-04-11T08:22:48.933Z</time></trkpt><trkpt lat="43.86399904001036" lon="11.258072970702923"><ele>431.0</ele><time>2026-04-11T08:22:49.934Z</time></trkpt><trkpt lat="43.864031218848886" lon="11.258198247549306"><ele>431.0</ele><time>2026-04-11T08:22:50.934Z</time></trkpt><trkpt lat="43.86408366365216" lon="11.258358719613321"><ele>431.0</ele><time>2026-04-11T08:22:51.934Z</time></trkpt><trkpt lat="43.86418686504627" lon="11.258442595457716"><ele>430.20000000000005</ele><time>2026-04-11T08:22:52.935Z</time></trkpt><trkpt lat="43.864237758436126" lon="11.258555972956138"><ele>429.40000000000003</ele><time>2026-04-11T08:22:53.935Z</time></trkpt><trkpt lat="43.864301578457734" lon="11.258689944516266"><ele>428.6</ele><time>2026-04-11T08:22:54.936Z</time></trkpt><trkpt lat="43.86429377246884" lon="11.258808340011669"><ele>427.8</ele><time>2026-04-11T08:22:57.936Z</time></trkpt><trkpt lat="43.86418547085252" lon="11.25881401702336"><ele>427.0</ele><time>2026-04-11T08:23:00.937Z</time></trkpt><trkpt lat="43.86405492391317" lon="11.258724791288905"><ele>431.0</ele><time>2026-04-11T08:23:02.938Z</time></trkpt><trkpt lat="43.863965086695195" lon="11.258678872032302"><ele>435.00000000000006</ele><time>2026-04-11T08:23:03.938Z</time></trkpt><trkpt lat="43.8638461022948" lon="11.258681941412979"><ele>439.00000000000006</ele><time>2026-04-11T08:23:04.938Z</time></trkpt><trkpt lat="43.86374895221441" lon="11.25874134752864"><ele>443.0</ele><time>2026-04-11T08:23:05.938Z</time></trkpt><trkpt lat="43.86367243406205" lon="11.258755658936584"><ele>447.0</ele><time>2026-04-11T08:23:06.938Z</time></trkpt><trkpt lat="43.86360329686317" lon="11.258765249202606"><ele>447.0</ele><time>2026-04-11T08:23:07.938Z</time></trkpt><trkpt lat="43.86353934250128" lon="11.258658478439564"><ele>447.00000000000006</ele><time>2026-04-11T08:23:08.939Z</time></trkpt><trkpt lat="43.863458296997585" lon="11.25865921726308"><ele>447.00000000000006</ele><time>2026-04-11T08:23:09.939Z</time></trkpt><trkpt lat="43.86336250381029" lon="11.258704873963268"><ele>447.0</ele><time>2026-04-11T08:23:10.939Z</time></trkpt><trkpt lat="43.86328277936151" lon="11.258745882122458"><ele>447.0</ele><time>2026-04-11T08:23:11.939Z</time></trkpt><trkpt lat="43.86319838336829" lon="11.25878929293959"><ele>452.20000000000005</ele><time>2026-04-11T08:23:12.939Z</time></trkpt><trkpt lat="43.86312720609604" lon="11.258809311884283"><ele>457.40000000000003</ele><time>2026-04-11T08:23:13.939Z</time></trkpt><trkpt lat="43.86303697685157" lon="11.258845163788514"><ele>462.59999999999997</ele><time>2026-04-11T08:23:14.939Z</time></trkpt><trkpt lat="43.862980347097036" lon="11.258957720529063"><ele>467.79999999999995</ele><time>2026-04-11T08:23:15.939Z</time></trkpt><trkpt lat="43.86306976831881" lon="11.259135054739266"><ele>473.0</ele><time>2026-04-11T08:23:17.939Z</time></trkpt><trkpt lat="43.863164618887396" lon="11.259150185189151"><ele>476.66666666666663</ele><time>2026-04-11T08:23:18.939Z</time></trkpt><trkpt lat="43.8632601392779" lon="11.259138179053942"><ele>480.3333333333333</ele><time>2026-04-11T08:23:19.94Z</time></trkpt><trkpt lat="43.8633226630983" lon="11.259160998864195"><ele>484.0</ele><time>2026-04-11T08:23:20.94Z</time></trkpt><trkpt lat="43.86338632607959" lon="11.259209936070848"><ele>487.66666666666663</ele><time>2026-04-11T08:23:21.94Z</time></trkpt><trkpt lat="43.86344676397317" lon="11.259251181140463"><ele>491.3333333333333</ele><time>2026-04-11T08:23:23.94Z</time></trkpt><trkpt lat="43.863384755994254" lon="11.259283935927813"><ele>495.0</ele><time>2026-04-11T08:23:25.939Z</time></trkpt><trkpt lat="43.86330182944208" lon="11.259262786365682"><ele>495.0</ele><time>2026-04-11T08:23:28.939Z</time></trkpt><trkpt lat="43.86323357259917" lon="11.259288566895696"><ele>495.0</ele><time>2026-04-11T08:23:29.939Z</time></trkpt><trkpt lat="43.86315036295887" lon="11.259327874824779"><ele>495.0</ele><time>2026-04-11T08:23:30.939Z</time></trkpt><trkpt lat="43.86305418769193" lon="11.259410021105058"><ele>495.0</ele><time>2026-04-11T08:23:31.939Z</time></trkpt><trkpt lat="43.862946995948654" lon="11.259493906392088"><ele>495.0</ele><time>2026-04-11T08:23:32.939Z</time></trkpt><trkpt lat="43.86284016630697" lon="11.259495295096743"><ele>495.0</ele><time>2026-04-11T08:23:33.939Z</time></trkpt><trkpt lat="43.86276005646687" lon="11.259577839555027"><ele>495.0</ele><time>2026-04-11T08:23:34.939Z</time></trkpt><trkpt lat="43.86264670399288" lon="11.2595672762586"><ele>495.0</ele><time>2026-04-11T08:23:35.939Z</time></trkpt><trkpt lat="43.86253505310002" lon="11.259645020426595"><ele>495.0</ele><time>2026-04-11T08:23:36.939Z</time></trkpt><trkpt lat="43.86240825137474" lon="11.259740311122378"><ele>502.0</ele><time>2026-04-11T08:23:37.939Z</time></trkpt><trkpt lat="43.8622763356381" lon="11.259861144606607"><ele>509.0</ele><time>2026-04-11T08:23:38.939Z</time></trkpt><trkpt lat="43.86216735723075" lon="11.260004507275509"><ele>516.0</ele><time>2026-04-11T08:23:39.939Z</time></trkpt><trkpt lat="43.86205379678272" lon="11.260150435955335"><ele>516.0</ele><time>2026-04-11T08:23:40.939Z</time></trkpt><trkpt lat="43.861957681483695" lon="11.260281972752"><ele>516.0</ele><time>2026-04-11T08:23:41.939Z</time></trkpt><trkpt lat="43.86188243670939" lon="11.260362430025266"><ele>516.0</ele><time>2026-04-11T08:23:42.939Z</time></trkpt><trkpt lat="43.861813105811656" lon="11.260401949049381"><ele>516.0</ele><time>2026-04-11T08:23:43.939Z</time></trkpt><trkpt lat="43.86171385533544" lon="11.260403448010262"><ele>516.0</ele><time>2026-04-11T08:23:44.939Z</time></trkpt><trkpt lat="43.86157979742103" lon="11.260435599891593"><ele>517.5</ele><time>2026-04-11T08:23:45.939Z</time></trkpt><trkpt lat="43.86143201315454" lon="11.26050335234707"><ele>519.0</ele><time>2026-04-11T08:23:46.939Z</time></trkpt><trkpt lat="43.86130813425846" lon="11.260589893001324"><ele>520.5</ele><time>2026-04-11T08:23:47.939Z</time></trkpt><trkpt lat="43.861231727025945" lon="11.260681571505918"><ele>522.0</ele><time>2026-04-11T08:23:48.939Z</time></trkpt><trkpt lat="43.861150105249294" lon="11.260804754064589"><ele>525.0</ele><time>2026-04-11T08:23:49.939Z</time></trkpt><trkpt lat="43.86104054861881" lon="11.260961337672498"><ele>528.0</ele><time>2026-04-11T08:23:50.939Z</time></trkpt><trkpt lat="43.86093939567206" lon="11.261131231311335"><ele>531.0</ele><time>2026-04-11T08:23:51.939Z</time></trkpt><trkpt lat="43.86084800393915" lon="11.261272369638776"><ele>532.0</ele><time>2026-04-11T08:23:52.939Z</time></trkpt><trkpt lat="43.86077526812382" lon="11.261372498363844"><ele>533.0</ele><time>2026-04-11T08:23:53.939Z</time></trkpt><trkpt lat="43.86067750325421" lon="11.261502442100253"><ele>534.0</ele><time>2026-04-11T08:23:54.939Z</time></trkpt><trkpt lat="43.860587931952985" lon="11.26160875931846"><ele>535.0</ele><time>2026-04-11T08:23:55.939Z</time></trkpt><trkpt lat="43.860499982686434" lon="11.261694557856247"><ele>536.75</ele><time>2026-04-11T08:23:56.939Z</time></trkpt><trkpt lat="43.8603779670434" lon="11.26179815483544"><ele>538.5</ele><time>2026-04-11T08:23:57.939Z</time></trkpt><trkpt lat="43.860265365035175" lon="11.261914253364022"><ele>540.25</ele><time>2026-04-11T08:23:58.939Z</time></trkpt><trkpt lat="43.86015759570663" lon="11.261992994346286"><ele>542.0</ele><time>2026-04-11T08:23:59.939Z</time></trkpt><trkpt lat="43.860100058929184" lon="11.262098710659554"><ele>542.0</ele><time>2026-04-11T08:24:00.939Z</time></trkpt><trkpt lat="43.86002832090353" lon="11.26223032456227"><ele>542.0</ele><time>2026-04-11T08:24:01.939Z</time></trkpt><trkpt lat="43.859964296802424" lon="11.26239312859065"><ele>542.0</ele><time>2026-04-11T08:24:02.939Z</time></trkpt><trkpt lat="43.85991235876121" lon="11.262541310412054"><ele>542.0</ele><time>2026-04-11T08:24:03.939Z</time></trkpt><trkpt lat="43.85985529020476" lon="11.262701542745356"><ele>543.2</ele><time>2026-04-11T08:24:04.939Z</time></trkpt><trkpt lat="43.85980257882513" lon="11.262806993547175"><ele>544.4000000000001</ele><time>2026-04-11T08:24:05.939Z</time></trkpt><trkpt lat="43.85973985954571" lon="11.26288891822554"><ele>545.5999999999999</ele><time>2026-04-11T08:24:07.939Z</time></trkpt><trkpt lat="43.85964217883932" lon="11.262935247428636"><ele>546.8</ele><time>2026-04-11T08:24:09.939Z</time></trkpt><trkpt lat="43.85955353674771" lon="11.262914536830902"><ele>548.0</ele><time>2026-04-11T08:24:10.939Z</time></trkpt><trkpt lat="43.85942060777273" lon="11.262882463921228"><ele>548.0</ele><time>2026-04-11T08:24:11.939Z</time></trkpt><trkpt lat="43.85932586610897" lon="11.26290012767746"><ele>548.0</ele><time>2026-04-11T08:24:12.939Z</time></trkpt><trkpt lat="43.85924644916835" lon="11.262935637216604"><ele>548.0</ele><time>2026-04-11T08:24:13.939Z</time></trkpt><trkpt lat="43.8591662973786" lon="11.262949723927132"><ele>548.0</ele><time>2026-04-11T08:24:14.939Z</time></trkpt><trkpt lat="43.85910445279756" lon="11.262983650503891"><ele>548.0</ele><time>2026-04-11T08:24:15.939Z</time></trkpt><trkpt lat="43.85900534639259" lon="11.2630261328322"><ele>548.0</ele><time>2026-04-11T08:24:17.939Z</time></trkpt><trkpt lat="43.858925121325825" lon="11.26300954616959"><ele>558.0</ele><time>2026-04-11T08:24:20.939Z</time></trkpt><trkpt lat="43.858862232550806" lon="11.262996040295306"><ele>558.0</ele><time>2026-04-11T08:24:25.938Z</time></trkpt><trkpt lat="43.85885996892325" lon="11.262844661148526"><ele>558.0</ele><time>2026-04-11T08:24:28.938Z</time></trkpt><trkpt lat="43.85884229794462" lon="11.262751986871777"><ele>558.0</ele><time>2026-04-11T08:24:31.938Z</time></trkpt><trkpt lat="43.858828943824086" lon="11.262652373355712"><ele>558.0</ele><time>2026-04-11T08:24:34.938Z</time></trkpt></trkseg><trkseg><trkpt lat="43.85875762734347" lon="11.262523378365296"><ele>558.0</ele><time>2026-04-11T08:38:19Z</time></trkpt><trkpt lat="43.85870477443811" lon="11.262605851266953"><ele>558.0</ele><time>2026-04-11T08:38:22Z</time></trkpt><trkpt lat="43.85869790458108" lon="11.262706822626061"><ele>558.0</ele><time>2026-04-11T08:38:23Z</time></trkpt><trkpt lat="43.858695359441796" lon="11.262809167190774"><ele>558.0</ele><time>2026-04-11T08:38:24Z</time></trkpt><trkpt lat="43.85878785581628" lon="11.26290711964749"><ele>558.0</ele><time>2026-04-11T08:38:27Z</time></trkpt><trkpt lat="43.85876532927515" lon="11.263005805070495"><ele>558.0</ele><time>2026-04-11T08:39:31Z</time></trkpt><trkpt lat="43.858836030693396" lon="11.263031041665824"><ele>558.0</ele><time>2026-04-11T08:39:36Z</time></trkpt><trkpt lat="43.858931885980695" lon="11.263042223694272"><ele>558.0</ele><time>2026-04-11T08:39:38Z</time></trkpt><trkpt lat="43.85904534995357" lon="11.263032820640136"><ele>558.0</ele><time>2026-04-11T08:39:40Z</time></trkpt><trkpt lat="43.85911099013362" lon="11.263012828263868"><ele>558.0</ele><time>2026-04-11T08:39:41Z</time></trkpt><trkpt lat="43.85921343269972" lon="11.263023558005916"><ele>558.0</ele><time>2026-04-11T08:39:43Z</time></trkpt><trkpt lat="43.859320821256354" lon="11.263052557518522"><ele>559.3333333333334</ele><time>2026-04-11T08:39:45Z</time></trkpt><trkpt lat="43.85939630639402" lon="11.263082239486819"><ele>560.6666666666666</ele><time>2026-04-11T08:39:46Z</time></trkpt><trkpt lat="43.85947625781929" lon="11.263123564283068"><ele>562.0</ele><time>2026-04-11T08:39:47Z</time></trkpt><trkpt lat="43.85955290435838" lon="11.263181916030478"><ele>563.3333333333333</ele><time>2026-04-11T08:39:48Z</time></trkpt><trkpt lat="43.85962857176556" lon="11.26323497701519"><ele>564.6666666666666</ele><time>2026-04-11T08:39:49Z</time></trkpt><trkpt lat="43.859702432692046" lon="11.263266697225166"><ele>566.0</ele><time>2026-04-11T08:39:50Z</time></trkpt><trkpt lat="43.859787934741526" lon="11.263284119980971"><ele>566.0</ele><time>2026-04-11T08:39:51Z</time></trkpt><trkpt lat="43.85988599718611" lon="11.263278203475831"><ele>566.0</ele><time>2026-04-11T08:39:52Z</time></trkpt><trkpt lat="43.859970887359985" lon="11.2632780480545"><ele>566.0</ele><time>2026-04-11T08:39:53Z</time></trkpt><trkpt lat="43.860060739182636" lon="11.263253604509472"><ele>566.0</ele><time>2026-04-11T08:39:54Z</time></trkpt><trkpt lat="43.86014850567583" lon="11.263205953538117"><ele>566.0</ele><time>2026-04-11T08:39:55Z</time></trkpt><trkpt lat="43.86024219178127" lon="11.263134958332504"><ele>564.0</ele><time>2026-04-11T08:39:56Z</time></trkpt><trkpt lat="43.86032693940762" lon="11.263048941284849"><ele>562.0</ele><time>2026-04-11T08:39:57Z</time></trkpt><trkpt lat="43.860416265828746" lon="11.262981337392121"><ele>560.0</ele><time>2026-04-11T08:39:58.001Z</time></trkpt><trkpt lat="43.86051013052912" lon="11.262925119062663"><ele>558.0</ele><time>2026-04-11T08:39:59.001Z</time></trkpt><trkpt lat="43.86058838047723" lon="11.26284411469551"><ele>556.0</ele><time>2026-04-11T08:40:00.001Z</time></trkpt><trkpt lat="43.860675053777456" lon="11.262789086680465"><ele>556.0</ele><time>2026-04-11T08:40:01.001Z</time></trkpt><trkpt lat="43.860757037209005" lon="11.262723044975623"><ele>556.0</ele><time>2026-04-11T08:40:02.001Z</time></trkpt><trkpt lat="43.860827735990526" lon="11.262664416272992"><ele>556.0</ele><time>2026-04-11T08:40:03.001Z</time></trkpt><trkpt lat="43.86090931974181" lon="11.262629032689183"><ele>556.0</ele><time>2026-04-11T08:40:04.001Z</time></trkpt><trkpt lat="43.86100079063031" lon="11.262597243164175"><ele>556.0</ele><time>2026-04-11T08:40:05.001Z</time></trkpt><trkpt lat="43.8610873343961" lon="11.26257487855717"><ele>556.0</ele><time>2026-04-11T08:40:06.001Z</time></trkpt><trkpt lat="43.86117418924936" lon="11.262546647796713"><ele>556.6</ele><time>2026-04-11T08:40:07.001Z</time></trkpt><trkpt lat="43.86126349406818" lon="11.262527933728663"><ele>557.2</ele><time>2026-04-11T08:40:08.001Z</time></trkpt><trkpt lat="43.86135523364232" lon="11.262523116215274"><ele>557.8</ele><time>2026-04-11T08:40:09.001Z</time></trkpt><trkpt lat="43.86146915527414" lon="11.262562877738695"><ele>558.4</ele><time>2026-04-11T08:40:10.001Z</time></trkpt><trkpt lat="43.86158257539765" lon="11.262604271640676"><ele>559.0</ele><time>2026-04-11T08:40:11.001Z</time></trkpt><trkpt lat="43.86168524741563" lon="11.262660461969688"><ele>555.25</ele><time>2026-04-11T08:40:12.001Z</time></trkpt><trkpt lat="43.86178351583189" lon="11.262747587896728"><ele>551.5</ele><time>2026-04-11T08:40:13.001Z</time></trkpt><trkpt lat="43.86188070294541" lon="11.262841039463588"><ele>547.75</ele><time>2026-04-11T08:40:14Z</time></trkpt><trkpt lat="43.861967699057296" lon="11.26293105167925"><ele>544.0</ele><time>2026-04-11T08:40:15Z</time></trkpt><trkpt lat="43.86203353507317" lon="11.263063860354098"><ele>546.4</ele><time>2026-04-11T08:40:16Z</time></trkpt><trkpt lat="43.862095160148165" lon="11.263221720633634"><ele>548.8</ele><time>2026-04-11T08:40:17Z</time></trkpt><trkpt lat="43.86214566143231" lon="11.263361222513334"><ele>551.2</ele><time>2026-04-11T08:40:17.999Z</time></trkpt><trkpt lat="43.86220043836735" lon="11.263470293445142"><ele>553.6</ele><time>2026-04-11T08:40:18.999Z</time></trkpt><trkpt lat="43.86225456078301" lon="11.263595118286833"><ele>556.0</ele><time>2026-04-11T08:40:20Z</time></trkpt><trkpt lat="43.862307835263856" lon="11.26371398332331"><ele>556.0</ele><time>2026-04-11T08:40:20.999Z</time></trkpt><trkpt lat="43.86235939509556" lon="11.263829022680953"><ele>556.0</ele><time>2026-04-11T08:40:21.999Z</time></trkpt><trkpt lat="43.86240509312856" lon="11.263930797604848"><ele>556.0</ele><time>2026-04-11T08:40:23Z</time></trkpt><trkpt lat="43.86244435909415" lon="11.264000336827177"><ele>556.0</ele><time>2026-04-11T08:40:24Z</time></trkpt><trkpt lat="43.86247576252791" lon="11.264126058134288"><ele>556.0</ele><time>2026-04-11T08:40:26Z</time></trkpt><trkpt lat="43.862346294980384" lon="11.264267614021527"><ele>557.1666666666667</ele><time>2026-04-11T08:40:26.999Z</time></trkpt><trkpt lat="43.86228361463794" lon="11.264311808836581"><ele>558.3333333333334</ele><time>2026-04-11T08:40:28Z</time></trkpt><trkpt lat="43.86223293574924" lon="11.264371822355416"><ele>559.5</ele><time>2026-04-11T08:40:29Z</time></trkpt><trkpt lat="43.86220841106144" lon="11.264452320575117"><ele>560.6666666666666</ele><time>2026-04-11T08:40:30Z</time></trkpt><trkpt lat="43.86220861097701" lon="11.264549860606829"><ele>561.8333333333333</ele><time>2026-04-11T08:40:31Z</time></trkpt><trkpt lat="43.862226852039626" lon="11.264658838349064"><ele>563.0</ele><time>2026-04-11T08:40:32Z</time></trkpt><trkpt lat="43.86226944535986" lon="11.264796185052923"><ele>564.4</ele><time>2026-04-11T08:40:33Z</time></trkpt><trkpt lat="43.862315954962156" lon="11.264918324066368"><ele>565.8</ele><time>2026-04-11T08:40:34Z</time></trkpt><trkpt lat="43.862355351895275" lon="11.265049812703126"><ele>567.2</ele><time>2026-04-11T08:40:35Z</time></trkpt><trkpt lat="43.862393005008535" lon="11.26519731353878"><ele>568.6</ele><time>2026-04-11T08:40:36Z</time></trkpt><trkpt lat="43.862421838133535" lon="11.265350523490925"><ele>570.0</ele><time>2026-04-11T08:40:37Z</time></trkpt><trkpt lat="43.862438212822504" lon="11.265503486624759"><ele>570.2</ele><time>2026-04-11T08:40:38Z</time></trkpt><trkpt lat="43.862465003954306" lon="11.265623117307207"><ele>570.4</ele><time>2026-04-11T08:40:39Z</time></trkpt><trkpt lat="43.862514393186295" lon="11.26571255617779"><ele>570.6</ele><time>2026-04-11T08:40:40Z</time></trkpt><trkpt lat="43.86258303944645" lon="11.265784702499298"><ele>570.8</ele><time>2026-04-11T08:40:41Z</time></trkpt><trkpt lat="43.86267312102012" lon="11.265843762173628"><ele>571.0</ele><time>2026-04-11T08:40:42Z</time></trkpt><trkpt lat="43.862757928187534" lon="11.2658957275385"><ele>571.0</ele><time>2026-04-11T08:40:43Z</time></trkpt><trkpt lat="43.86283313051638" lon="11.265976052377919"><ele>571.0</ele><time>2026-04-11T08:40:44Z</time></trkpt><trkpt lat="43.86289386116696" lon="11.266032601532505"><ele>571.0</ele><time>2026-04-11T08:40:45Z</time></trkpt><trkpt lat="43.862921770365475" lon="11.266161200594786"><ele>571.0</ele><time>2026-04-11T08:40:47Z</time></trkpt><trkpt lat="43.86286723549044" lon="11.26632450883546"><ele>571.0</ele><time>2026-04-11T08:40:49Z</time></trkpt><trkpt lat="43.862839188407506" lon="11.266436743537794"><ele>570.3333333333334</ele><time>2026-04-11T08:40:50Z</time></trkpt><trkpt lat="43.86281621613402" lon="11.26652750131792"><ele>569.6666666666667</ele><time>2026-04-11T08:40:51Z</time></trkpt><trkpt lat="43.862786763518585" lon="11.266614947800594"><ele>569.0</ele><time>2026-04-11T08:40:52Z</time></trkpt><trkpt lat="43.862747418650805" lon="11.266713491445149"><ele>568.3333333333334</ele><time>2026-04-11T08:40:53Z</time></trkpt><trkpt lat="43.86271213648713" lon="11.266827988763541"><ele>567.6666666666666</ele><time>2026-04-11T08:40:54Z</time></trkpt><trkpt lat="43.86266050781502" lon="11.266940478345"><ele>567.0</ele><time>2026-04-11T08:40:55Z</time></trkpt><trkpt lat="43.86260993763205" lon="11.267073574237138"><ele>567.0</ele><time>2026-04-11T08:40:56Z</time></trkpt><trkpt lat="43.862586130533074" lon="11.267208111229937"><ele>567.0</ele><time>2026-04-11T08:40:57Z</time></trkpt><trkpt lat="43.8625785271357" lon="11.267326473898974"><ele>567.0</ele><time>2026-04-11T08:40:58Z</time></trkpt><trkpt lat="43.86258888384558" lon="11.26744534894227"><ele>567.0</ele><time>2026-04-11T08:40:59Z</time></trkpt><trkpt lat="43.86261925179653" lon="11.267536550695876"><ele>567.0</ele><time>2026-04-11T08:41:00Z</time></trkpt><trkpt lat="43.86266229289255" lon="11.267615831329035"><ele>567.0</ele><time>2026-04-11T08:41:01Z</time></trkpt><trkpt lat="43.86275389137012" lon="11.267657778567623"><ele>567.0</ele><time>2026-04-11T08:41:02Z</time></trkpt><trkpt lat="43.8628215816643" lon="11.267725107911753"><ele>567.0</ele><time>2026-04-11T08:41:03Z</time></trkpt><trkpt lat="43.86288611831114" lon="11.267760346913601"><ele>567.0</ele><time>2026-04-11T08:41:04Z</time></trkpt><trkpt lat="43.86294634567577" lon="11.267787161512256"><ele>567.0</ele><time>2026-04-11T08:41:05Z</time></trkpt><trkpt lat="43.86296557346097" lon="11.26792748379042"><ele>567.0</ele><time>2026-04-11T08:41:07Z</time></trkpt><trkpt lat="43.86290763123138" lon="11.2680435138315"><ele>567.0</ele><time>2026-04-11T08:41:09Z</time></trkpt><trkpt lat="43.862847400874415" lon="11.268097913875817"><ele>567.6666666666666</ele><time>2026-04-11T08:41:10Z</time></trkpt><trkpt lat="43.862805008196474" lon="11.268197608747142"><ele>568.3333333333334</ele><time>2026-04-11T08:41:11Z</time></trkpt><trkpt lat="43.862790129105484" lon="11.268309222495139"><ele>569.0</ele><time>2026-04-11T08:41:12Z</time></trkpt><trkpt lat="43.8627855823085" lon="11.268430152033654"><ele>569.6666666666667</ele><time>2026-04-11T08:41:13Z</time></trkpt><trkpt lat="43.8627773000198" lon="11.268563583449755"><ele>570.3333333333334</ele><time>2026-04-11T08:41:14Z</time></trkpt><trkpt lat="43.86275517169056" lon="11.268682844180958"><ele>571.0</ele><time>2026-04-11T08:41:15Z</time></trkpt><trkpt lat="43.86273961828962" lon="11.268798407399345"><ele>571.0</ele><time>2026-04-11T08:41:16Z</time></trkpt><trkpt lat="43.862722849061875" lon="11.268920096423482"><ele>571.0</ele><time>2026-04-11T08:41:17Z</time></trkpt><trkpt lat="43.862709607416505" lon="11.269053104467332"><ele>571.0</ele><time>2026-04-11T08:41:18Z</time></trkpt><trkpt lat="43.862731933114176" lon="11.2692238013035"><ele>571.0</ele><time>2026-04-11T08:41:19Z</time></trkpt><trkpt lat="43.86279175003221" lon="11.26940111023107"><ele>570.5</ele><time>2026-04-11T08:41:20Z</time></trkpt><trkpt lat="43.86284689917481" lon="11.269552394807654"><ele>570.0</ele><time>2026-04-11T08:41:21Z</time></trkpt><trkpt lat="43.8629043412534" lon="11.26970867563592"><ele>569.5</ele><time>2026-04-11T08:41:22Z</time></trkpt><trkpt lat="43.86295904859327" lon="11.26984956621506"><ele>569.0</ele><time>2026-04-11T08:41:23Z</time></trkpt><trkpt lat="43.86301560240425" lon="11.269957510552274"><ele>570.8</ele><time>2026-04-11T08:41:24Z</time></trkpt><trkpt lat="43.863084793730565" lon="11.270074205345448"><ele>572.5999999999999</ele><time>2026-04-11T08:41:25Z</time></trkpt><trkpt lat="43.86311280300228" lon="11.270192492423579"><ele>574.4</ele><time>2026-04-11T08:41:26Z</time></trkpt><trkpt lat="43.8631327927592" lon="11.270320462205381"><ele>576.1999999999999</ele><time>2026-04-11T08:41:27Z</time></trkpt><trkpt lat="43.86314971228093" lon="11.270432272247982"><ele>578.0</ele><time>2026-04-11T08:41:28Z</time></trkpt><trkpt lat="43.86317228721861" lon="11.270537730378157"><ele>578.1999999999999</ele><time>2026-04-11T08:41:29Z</time></trkpt><trkpt lat="43.8632117253411" lon="11.270634915322624"><ele>578.4</ele><time>2026-04-11T08:41:30Z</time></trkpt><trkpt lat="43.86325052091527" lon="11.2707417639141"><ele>578.5999999999999</ele><time>2026-04-11T08:41:31Z</time></trkpt><trkpt lat="43.86333736671289" lon="11.270786768821148"><ele>578.8</ele><time>2026-04-11T08:41:32Z</time></trkpt><trkpt lat="43.86343326039412" lon="11.270835152301267"><ele>579.0</ele><time>2026-04-11T08:41:33Z</time></trkpt><trkpt lat="43.863514214432385" lon="11.270904976697304"><ele>579.0</ele><time>2026-04-11T08:41:34Z</time></trkpt><trkpt lat="43.86359342347751" lon="11.270990477641003"><ele>579.0</ele><time>2026-04-11T08:41:35Z</time></trkpt><trkpt lat="43.86366630538236" lon="11.271084320822323"><ele>579.0</ele><time>2026-04-11T08:41:36Z</time></trkpt><trkpt lat="43.86374436641476" lon="11.271170278822144"><ele>579.0</ele><time>2026-04-11T08:41:37Z</time></trkpt><trkpt lat="43.86381655808233" lon="11.271251967078976"><ele>579.0</ele><time>2026-04-11T08:41:38Z</time></trkpt><trkpt lat="43.863886476554754" lon="11.271299540155148"><ele>579.0</ele><time>2026-04-11T08:41:39Z</time></trkpt><trkpt lat="43.86394798727516" lon="11.271377792590714"><ele>579.0</ele><time>2026-04-11T08:41:40Z</time></trkpt><trkpt lat="43.864032229748744" lon="11.271435913530555"><ele>579.0</ele><time>2026-04-11T08:41:41Z</time></trkpt><trkpt lat="43.86414411332017" lon="11.271478222488907"><ele>579.0</ele><time>2026-04-11T08:41:42Z</time></trkpt><trkpt lat="43.8642557164631" lon="11.271502989979346"><ele>579.0</ele><time>2026-04-11T08:41:43Z</time></trkpt><trkpt lat="43.8643813687814" lon="11.27153636815802"><ele>579.0</ele><time>2026-04-11T08:41:44Z</time></trkpt><trkpt lat="43.86450907918183" lon="11.27157775665851"><ele>579.0</ele><time>2026-04-11T08:41:45Z</time></trkpt><trkpt lat="43.86461545474693" lon="11.271598137893086"><ele>579.0</ele><time>2026-04-11T08:41:46Z</time></trkpt><trkpt lat="43.86470939236385" lon="11.271616136066871"><ele>579.0</ele><time>2026-04-11T08:41:47Z</time></trkpt><trkpt lat="43.86480444463038" lon="11.271615683605361"><ele>579.0</ele><time>2026-04-11T08:41:48Z</time></trkpt><trkpt lat="43.86489168527953" lon="11.271634292508349"><ele>579.0</ele><time>2026-04-11T08:41:49Z</time></trkpt><trkpt lat="43.86496123618071" lon="11.271648776736917"><ele>579.0</ele><time>2026-04-11T08:41:50Z</time></trkpt><trkpt lat="43.8650424446127" lon="11.271680977699331"><ele>579.0</ele><time>2026-04-11T08:41:51Z</time></trkpt><trkpt lat="43.865131097027174" lon="11.271722048947705"><ele>579.0</ele><time>2026-04-11T08:41:52Z</time></trkpt><trkpt lat="43.8652317816813" lon="11.271786564537152"><ele>579.0</ele><time>2026-04-11T08:41:53Z</time></trkpt><trkpt lat="43.86534347685761" lon="11.271879676885842"><ele>575.3333333333334</ele><time>2026-04-11T08:41:54Z</time></trkpt><trkpt lat="43.86547968304314" lon="11.271999832407781"><ele>571.6666666666667</ele><time>2026-04-11T08:41:55Z</time></trkpt><trkpt lat="43.86563014087453" lon="11.272122775916833"><ele>568.0</ele><time>2026-04-11T08:41:56Z</time></trkpt><trkpt lat="43.86579357062866" lon="11.272287445628981"><ele>566.0</ele><time>2026-04-11T08:41:57Z</time></trkpt><trkpt lat="43.86595965458988" lon="11.27242939381018"><ele>564.0</ele><time>2026-04-11T08:41:58Z</time></trkpt><trkpt lat="43.866126606709265" lon="11.272558668303502"><ele>562.0</ele><time>2026-04-11T08:41:59Z</time></trkpt><trkpt lat="43.866283000368895" lon="11.272681963188877"><ele>562.0</ele><time>2026-04-11T08:42:00Z</time></trkpt><trkpt lat="43.86643662991659" lon="11.272785624341896"><ele>562.0</ele><time>2026-04-11T08:42:01Z</time></trkpt><trkpt lat="43.86657476881179" lon="11.272889391092288"><ele>562.0</ele><time>2026-04-11T08:42:02Z</time></trkpt><trkpt lat="43.86669823296056" lon="11.273008642619189"><ele>561.0</ele><time>2026-04-11T08:42:03Z</time></trkpt><trkpt lat="43.86683557841678" lon="11.273095686644275"><ele>560.0</ele><time>2026-04-11T08:42:04Z</time></trkpt><trkpt lat="43.866989689865264" lon="11.273163105694918"><ele>559.0</ele><time>2026-04-11T08:42:05Z</time></trkpt><trkpt lat="43.867147493841685" lon="11.27317887793426"><ele>560.6</ele><time>2026-04-11T08:42:06Z</time></trkpt><trkpt lat="43.86728881730436" lon="11.273201648485884"><ele>562.2</ele><time>2026-04-11T08:42:07Z</time></trkpt><trkpt lat="43.867410266895426" lon="11.273214507889275"><ele>563.8000000000001</ele><time>2026-04-11T08:42:08Z</time></trkpt><trkpt lat="43.867508981693234" lon="11.27321819745248"><ele>565.4</ele><time>2026-04-11T08:42:09Z</time></trkpt><trkpt lat="43.86759054085048" lon="11.273213764203158"><ele>567.0</ele><time>2026-04-11T08:42:10Z</time></trkpt><trkpt lat="43.867695509781214" lon="11.273231402870687"><ele>566.8333333333334</ele><time>2026-04-11T08:42:12Z</time></trkpt><trkpt lat="43.86776944090517" lon="11.273236386544673"><ele>566.6666666666666</ele><time>2026-04-11T08:42:16Z</time></trkpt><trkpt lat="43.867862491170705" lon="11.273110747580212"><ele>566.5</ele><time>2026-04-11T08:42:26Z</time></trkpt><trkpt lat="43.86791116355687" lon="11.27301170225203"><ele>566.3333333333333</ele><time>2026-04-11T08:42:28Z</time></trkpt><trkpt lat="43.867954369887755" lon="11.27292377997739"><ele>566.1666666666666</ele><time>2026-04-11T08:42:30Z</time></trkpt><trkpt lat="43.86799115093798" lon="11.272850599456435"><ele>566.0</ele><time>2026-04-11T08:42:41Z</time></trkpt><trkpt lat="43.868026713995945" lon="11.272746666765608"><ele>566.0</ele><time>2026-04-11T08:42:43Z</time></trkpt><trkpt lat="43.8680792389586" lon="11.272654362764"><ele>566.0</ele><time>2026-04-11T08:42:45Z</time></trkpt><trkpt lat="43.868149973216845" lon="11.272522369429373"><ele>566.0</ele><time>2026-04-11T08:42:47Z</time></trkpt><trkpt lat="43.86819355811888" lon="11.272440400984918"><ele>566.0</ele><time>2026-04-11T08:42:48Z</time></trkpt><trkpt lat="43.868251480086144" lon="11.27234935769667"><ele>566.0</ele><time>2026-04-11T08:42:49Z</time></trkpt><trkpt lat="43.86829904899015" lon="11.272255884848466"><ele>566.0</ele><time>2026-04-11T08:42:50Z</time></trkpt><trkpt lat="43.8683593475662" lon="11.272169856601398"><ele>564.6</ele><time>2026-04-11T08:42:51Z</time></trkpt><trkpt lat="43.868399372358525" lon="11.272064797875695"><ele>563.2</ele><time>2026-04-11T08:42:52Z</time></trkpt><trkpt lat="43.86845528712227" lon="11.271963377115084"><ele>561.8</ele><time>2026-04-11T08:42:53Z</time></trkpt><trkpt lat="43.86851813537297" lon="11.271863737364093"><ele>560.4</ele><time>2026-04-11T08:42:54Z</time></trkpt><trkpt lat="43.86858787062244" lon="11.271764371194806"><ele>559.0</ele><time>2026-04-11T08:42:55Z</time></trkpt><trkpt lat="43.868655238642496" lon="11.271675006939198"><ele>559.0</ele><time>2026-04-11T08:42:56Z</time></trkpt><trkpt lat="43.868720349296574" lon="11.27158560546965"><ele>559.0</ele><time>2026-04-11T08:42:57Z</time></trkpt><trkpt lat="43.86880244277598" lon="11.27150995412767"><ele>559.0</ele><time>2026-04-11T08:42:58Z</time></trkpt><trkpt lat="43.868873187388076" lon="11.27142174198487"><ele>559.0</ele><time>2026-04-11T08:42:59Z</time></trkpt><trkpt lat="43.86894649679683" lon="11.271331449943203"><ele>559.0</ele><time>2026-04-11T08:43:00Z</time></trkpt><trkpt lat="43.869019198016" lon="11.271243845901777"><ele>556.75</ele><time>2026-04-11T08:43:01Z</time></trkpt><trkpt lat="43.86909234687729" lon="11.271131602606905"><ele>554.5</ele><time>2026-04-11T08:43:02Z</time></trkpt><trkpt lat="43.86918343856714" lon="11.271026630313"><ele>552.25</ele><time>2026-04-11T08:43:03Z</time></trkpt><trkpt lat="43.86926947373995" lon="11.270920343308312"><ele>550.0</ele><time>2026-04-11T08:43:04Z</time></trkpt><trkpt lat="43.86934905478791" lon="11.27081996182879"><ele>550.0</ele><time>2026-04-11T08:43:05Z</time></trkpt><trkpt lat="43.86942526681629" lon="11.27072233600031"><ele>550.0</ele><time>2026-04-11T08:43:06Z</time></trkpt><trkpt lat="43.8695006619003" lon="11.27061529781751"><ele>550.0</ele><time>2026-04-11T08:43:07Z</time></trkpt><trkpt lat="43.86956995593609" lon="11.270515213362861"><ele>550.0</ele><time>2026-04-11T08:43:08Z</time></trkpt><trkpt lat="43.869635029357" lon="11.270408812239213"><ele>550.0</ele><time>2026-04-11T08:43:09Z</time></trkpt><trkpt lat="43.86971073232948" lon="11.27033278348703"><ele>548.1428571428571</ele><time>2026-04-11T08:43:10Z</time></trkpt><trkpt lat="43.869772483197586" lon="11.27025748380513"><ele>546.2857142857142</ele><time>2026-04-11T08:43:11Z</time></trkpt><trkpt lat="43.86983546848007" lon="11.270188107937932"><ele>544.4285714285713</ele><time>2026-04-11T08:43:12Z</time></trkpt><trkpt lat="43.869889176075155" lon="11.270139173339086"><ele>542.5714285714286</ele><time>2026-04-11T08:43:13Z</time></trkpt><trkpt lat="43.869953846148675" lon="11.27008571633923"><ele>540.7142857142857</ele><time>2026-04-11T08:43:14Z</time></trkpt><trkpt lat="43.8700168024666" lon="11.270037483076122"><ele>538.8571428571428</ele><time>2026-04-11T08:43:15Z</time></trkpt><trkpt lat="43.87008163539202" lon="11.269993034183686"><ele>537.0</ele><time>2026-04-11T08:43:16Z</time></trkpt><trkpt lat="43.87015088672011" lon="11.26994924005756"><ele>536.1666666666666</ele><time>2026-04-11T08:43:17Z</time></trkpt><trkpt lat="43.8702249182047" lon="11.269904233157165"><ele>535.3333333333334</ele><time>2026-04-11T08:43:18Z</time></trkpt><trkpt lat="43.87030122682747" lon="11.26985501117008"><ele>534.5</ele><time>2026-04-11T08:43:19Z</time></trkpt><trkpt lat="43.87037454218445" lon="11.269801639782052"><ele>533.6666666666667</ele><time>2026-04-11T08:43:20Z</time></trkpt><trkpt lat="43.87043242241579" lon="11.26973498222057"><ele>532.8333333333334</ele><time>2026-04-11T08:43:21Z</time></trkpt><trkpt lat="43.87049805346876" lon="11.269693616357069"><ele>532.0</ele><time>2026-04-11T08:43:22Z</time></trkpt><trkpt lat="43.87060541801171" lon="11.26965341240485"><ele>530.3333333333334</ele><time>2026-04-11T08:43:24Z</time></trkpt><trkpt lat="43.87071363222275" lon="11.269636428171035"><ele>528.6666666666667</ele><time>2026-04-11T08:43:26Z</time></trkpt><trkpt lat="43.87078268855386" lon="11.269627636614143"><ele>527.0</ele><time>2026-04-11T08:43:27Z</time></trkpt><trkpt lat="43.87084781383792" lon="11.269638540569867"><ele>525.3333333333334</ele><time>2026-04-11T08:43:28Z</time></trkpt><trkpt lat="43.87095695258578" lon="11.269720875333473"><ele>523.6666666666666</ele><time>2026-04-11T08:43:30Z</time></trkpt><trkpt lat="43.870984303791595" lon="11.269800365055637"><ele>522.0</ele><time>2026-04-11T08:43:31Z</time></trkpt><trkpt lat="43.87103330737706" lon="11.269967191837846"><ele>519.1666666666666</ele><time>2026-04-11T08:43:33Z</time></trkpt><trkpt lat="43.87105843141343" lon="11.270063807104568"><ele>516.3333333333334</ele><time>2026-04-11T08:43:34Z</time></trkpt><trkpt lat="43.87109740046816" lon="11.270162403288014"><ele>513.5</ele><time>2026-04-11T08:43:35Z</time></trkpt><trkpt lat="43.87112374936537" lon="11.270277601013952"><ele>510.6666666666667</ele><time>2026-04-11T08:43:36Z</time></trkpt><trkpt lat="43.871151933612815" lon="11.270384534211724"><ele>507.83333333333337</ele><time>2026-04-11T08:43:37Z</time></trkpt><trkpt lat="43.8711833947612" lon="11.270493401786466"><ele>505.0</ele><time>2026-04-11T08:43:38Z</time></trkpt><trkpt lat="43.87120103740603" lon="11.270589738713142"><ele>505.33333333333337</ele><time>2026-04-11T08:43:39Z</time></trkpt><trkpt lat="43.87121561855352" lon="11.270700768543822"><ele>505.6666666666667</ele><time>2026-04-11T08:43:40Z</time></trkpt><trkpt lat="43.871225646908925" lon="11.270798728437354"><ele>506.0</ele><time>2026-04-11T08:43:41Z</time></trkpt><trkpt lat="43.87122675820777" lon="11.270911699338475"><ele>506.33333333333337</ele><time>2026-04-11T08:43:42Z</time></trkpt><trkpt lat="43.87121583081381" lon="11.271013395606934"><ele>506.6666666666667</ele><time>2026-04-11T08:43:43Z</time></trkpt><trkpt lat="43.8711980377293" lon="11.271102193389892"><ele>507.0</ele><time>2026-04-11T08:43:44Z</time></trkpt><trkpt lat="43.87117801474749" lon="11.271202892900073"><ele>507.0</ele><time>2026-04-11T08:43:45Z</time></trkpt><trkpt lat="43.8711550867583" lon="11.271318643167643"><ele>507.0</ele><time>2026-04-11T08:43:46Z</time></trkpt><trkpt lat="43.8711275569558" lon="11.271415081573787"><ele>507.0</ele><time>2026-04-11T08:43:47Z</time></trkpt><trkpt lat="43.8711107714048" lon="11.271536578741303"><ele>507.0</ele><time>2026-04-11T08:43:48Z</time></trkpt><trkpt lat="43.87111953974239" lon="11.271669150477182"><ele>507.0</ele><time>2026-04-11T08:43:49Z</time></trkpt><trkpt lat="43.87111774734934" lon="11.271791729824981"><ele>507.0</ele><time>2026-04-11T08:43:50Z</time></trkpt><trkpt lat="43.871102270983705" lon="11.271923894523045"><ele>507.5</ele><time>2026-04-11T08:43:51Z</time></trkpt><trkpt lat="43.87110040003564" lon="11.27204779269221"><ele>508.0</ele><time>2026-04-11T08:43:52Z</time></trkpt><trkpt lat="43.87110084740933" lon="11.272155586513355"><ele>508.5</ele><time>2026-04-11T08:43:53Z</time></trkpt><trkpt lat="43.871102520779644" lon="11.272251917345177"><ele>509.0</ele><time>2026-04-11T08:43:54Z</time></trkpt><trkpt lat="43.871102985106255" lon="11.27239412032619"><ele>509.5</ele><time>2026-04-11T08:43:56Z</time></trkpt><trkpt lat="43.8711209497465" lon="11.272487381190015"><ele>510.0</ele><time>2026-04-11T08:43:58Z</time></trkpt><trkpt lat="43.871159587921284" lon="11.272560488178579"><ele>510.0</ele><time>2026-04-11T08:44:00Z</time></trkpt><trkpt lat="43.87130892381436" lon="11.272404175027173"><ele>510.0</ele><time>2026-04-11T08:44:28.999Z</time></trkpt><trkpt lat="43.87135769920732" lon="11.272323678347325"><ele>510.0</ele><time>2026-04-11T08:44:30.999Z</time></trkpt><trkpt lat="43.87141168374664" lon="11.272234473699871"><ele>510.0</ele><time>2026-04-11T08:44:32.999Z</time></trkpt><trkpt lat="43.87146530821881" lon="11.272145665782169"><ele>510.0</ele><time>2026-04-11T08:44:34.999Z</time></trkpt><trkpt lat="43.87151576033037" lon="11.27206069419828"><ele>510.0</ele><time>2026-04-11T08:44:36.999Z</time></trkpt><trkpt lat="43.871574380049594" lon="11.271959883034137"><ele>510.0</ele><time>2026-04-11T08:44:39.999Z</time></trkpt><trkpt lat="43.87160353044727" lon="11.27187213458048"><ele>510.0</ele><time>2026-04-11T08:44:41.999Z</time></trkpt><trkpt lat="43.8716468610428" lon="11.271796980490674"><ele>510.0</ele><time>2026-04-11T08:44:45Z</time></trkpt><trkpt lat="43.87169141250915" lon="11.27170549956888"><ele>510.0</ele><time>2026-04-11T08:44:48Z</time></trkpt><trkpt lat="43.8717408453569" lon="11.271619608526649"><ele>510.0</ele><time>2026-04-11T08:44:51Z</time></trkpt><trkpt lat="43.87178010452471" lon="11.27154143596785"><ele>509.5</ele><time>2026-04-11T08:44:53Z</time></trkpt><trkpt lat="43.87181477401223" lon="11.271456715359864"><ele>509.0</ele><time>2026-04-11T08:44:55Z</time></trkpt><trkpt lat="43.87185549947901" lon="11.271359320292923"><ele>508.5</ele><time>2026-04-11T08:44:57Z</time></trkpt><trkpt lat="43.871884338127416" lon="11.271266003689874"><ele>508.0</ele><time>2026-04-11T08:44:59Z</time></trkpt><trkpt lat="43.87191205805186" lon="11.27114405759219"><ele>507.5</ele><time>2026-04-11T08:45:02Z</time></trkpt><trkpt lat="43.87195255379333" lon="11.271055184877854"><ele>507.0</ele><time>2026-04-11T08:45:04Z</time></trkpt><trkpt lat="43.871980519966435" lon="11.270952005404235"><ele>507.0</ele><time>2026-04-11T08:45:06Z</time></trkpt><trkpt lat="43.872013267623444" lon="11.270824285939366"><ele>507.00000000000006</ele><time>2026-04-11T08:45:09Z</time></trkpt><trkpt lat="43.87204648320228" lon="11.270679266819439"><ele>507.00000000000006</ele><time>2026-04-11T08:45:11Z</time></trkpt><trkpt lat="43.87206446278614" lon="11.270593658654098"><ele>507.0</ele><time>2026-04-11T08:45:12Z</time></trkpt><trkpt lat="43.87208736473384" lon="11.27047142882245"><ele>507.0</ele><time>2026-04-11T08:45:13Z</time></trkpt><trkpt lat="43.872107739551566" lon="11.270352150823934"><ele>505.20000000000005</ele><time>2026-04-11T08:45:14Z</time></trkpt><trkpt lat="43.87212230503263" lon="11.270257188377874"><ele>503.40000000000003</ele><time>2026-04-11T08:45:15Z</time></trkpt><trkpt lat="43.87214150438814" lon="11.270095017316395"><ele>501.59999999999997</ele><time>2026-04-11T08:45:17Z</time></trkpt><trkpt lat="43.872149792332735" lon="11.270004516427727"><ele>499.79999999999995</ele><time>2026-04-11T08:45:18Z</time></trkpt><trkpt lat="43.87216297953053" lon="11.26984046712005"><ele>498.0</ele><time>2026-04-11T08:45:20Z</time></trkpt><trkpt lat="43.87216353165797" lon="11.269697764925356"><ele>496.0</ele><time>2026-04-11T08:45:22Z</time></trkpt><trkpt lat="43.872160185950854" lon="11.269535764630996"><ele>493.99999999999994</ele><time>2026-04-11T08:45:24Z</time></trkpt><trkpt lat="43.87215649919109" lon="11.269403435193125"><ele>491.99999999999994</ele><time>2026-04-11T08:45:26Z</time></trkpt><trkpt lat="43.87215298568077" lon="11.26923496489051"><ele>490.0</ele><time>2026-04-11T08:45:28Z</time></trkpt><trkpt lat="43.87216135433756" lon="11.269104783803222"><ele>488.0</ele><time>2026-04-11T08:45:30Z</time></trkpt><trkpt lat="43.8721668712696" lon="11.269003843435717"><ele>486.25</ele><time>2026-04-11T08:45:31Z</time></trkpt><trkpt lat="43.872185688888656" lon="11.268827179563063"><ele>484.5</ele><time>2026-04-11T08:45:32Z</time></trkpt><trkpt lat="43.872242400393574" lon="11.268647939550354"><ele>482.75</ele><time>2026-04-11T08:45:33Z</time></trkpt><trkpt lat="43.87230940356073" lon="11.268525870870858"><ele>481.0</ele><time>2026-04-11T08:45:34Z</time></trkpt><trkpt lat="43.87238854596267" lon="11.268414562796936"><ele>481.00000000000006</ele><time>2026-04-11T08:45:35Z</time></trkpt><trkpt lat="43.8724651352898" lon="11.26832022265355"><ele>481.0</ele><time>2026-04-11T08:45:36Z</time></trkpt><trkpt lat="43.8725304621906" lon="11.268243669511346"><ele>481.0</ele><time>2026-04-11T08:45:37Z</time></trkpt><trkpt lat="43.872596536923815" lon="11.268167780645593"><ele>481.0</ele><time>2026-04-11T08:45:38Z</time></trkpt><trkpt lat="43.872653153079064" lon="11.268102755134493"><ele>481.00000000000006</ele><time>2026-04-11T08:45:39Z</time></trkpt><trkpt lat="43.872719270614795" lon="11.268027881877169"><ele>481.0</ele><time>2026-04-11T08:45:40Z</time></trkpt><trkpt lat="43.87279895188838" lon="11.26794318787799"><ele>479.5</ele><time>2026-04-11T08:45:41Z</time></trkpt><trkpt lat="43.87289955769931" lon="11.26784428724487"><ele>478.0</ele><time>2026-04-11T08:45:42Z</time></trkpt><trkpt lat="43.87297037286293" lon="11.267785539353605"><ele>476.5</ele><time>2026-04-11T08:45:43Z</time></trkpt><trkpt lat="43.87309911532944" lon="11.267691667578237"><ele>475.0</ele><time>2026-04-11T08:45:44Z</time></trkpt><trkpt lat="43.87319610989156" lon="11.267631938813107"><ele>499.0</ele><time>2026-04-11T08:45:45Z</time></trkpt><trkpt lat="43.87346252052019" lon="11.268154663601686"><ele>496.50000000000006</ele><time>2026-04-11T08:45:46Z</time></trkpt><trkpt lat="43.8735314129059" lon="11.26808907403833"><ele>494.0</ele><time>2026-04-11T08:45:47Z</time></trkpt><trkpt lat="43.873597332380605" lon="11.268028648645256"><ele>491.5</ele><time>2026-04-11T08:45:48Z</time></trkpt><trkpt lat="43.873706726025105" lon="11.267947875363161"><ele>489.0</ele><time>2026-04-11T08:45:50Z</time></trkpt><trkpt lat="43.87377148358817" lon="11.267915431161684"><ele>486.50000000000006</ele><time>2026-04-11T08:45:51Z</time></trkpt><trkpt lat="43.873854592363436" lon="11.267892874114361"><ele>484.0</ele><time>2026-04-11T08:45:52Z</time></trkpt><trkpt lat="43.87393856539907" lon="11.267881316272993"><ele>484.0</ele><time>2026-04-11T08:45:53Z</time></trkpt><trkpt lat="43.8740297861703" lon="11.267865225823464"><ele>484.0</ele><time>2026-04-11T08:45:54Z</time></trkpt><trkpt lat="43.874118547769925" lon="11.26784785986416"><ele>484.0</ele><time>2026-04-11T08:45:55Z</time></trkpt><trkpt lat="43.87420802059196" lon="11.267830989572932"><ele>484.0</ele><time>2026-04-11T08:45:56Z</time></trkpt><trkpt lat="43.874317184404106" lon="11.267818273542252"><ele>484.0</ele><time>2026-04-11T08:45:57Z</time></trkpt><trkpt lat="43.8744049344842" lon="11.267794154404779"><ele>484.2</ele><time>2026-04-11T08:45:58Z</time></trkpt><trkpt lat="43.87449628698102" lon="11.267759532274686"><ele>484.4</ele><time>2026-04-11T08:45:59Z</time></trkpt><trkpt lat="43.8745785290725" lon="11.267704572009517"><ele>484.6</ele><time>2026-04-11T08:46:00Z</time></trkpt><trkpt lat="43.874668850406316" lon="11.267653454913734"><ele>484.8</ele><time>2026-04-11T08:46:01Z</time></trkpt><trkpt lat="43.874752066283726" lon="11.267617850023278"><ele>485.0</ele><time>2026-04-11T08:46:02Z</time></trkpt><trkpt lat="43.874840452553926" lon="11.2675932529983"><ele>484.99999999999994</ele><time>2026-04-11T08:46:03Z</time></trkpt><trkpt lat="43.87492487584341" lon="11.267570595883338"><ele>485.0</ele><time>2026-04-11T08:46:04Z</time></trkpt><trkpt lat="43.874990773909055" lon="11.267551853103269"><ele>485.0</ele><time>2026-04-11T08:46:05Z</time></trkpt><trkpt lat="43.875074397925616" lon="11.267476829394829"><ele>485.0</ele><time>2026-04-11T08:46:07Z</time></trkpt><trkpt lat="43.875174527828136" lon="11.267425841456467"><ele>484.99999999999994</ele><time>2026-04-11T08:46:09Z</time></trkpt><trkpt lat="43.875236382535995" lon="11.267382761983413"><ele>485.0</ele><time>2026-04-11T08:46:10Z</time></trkpt><trkpt lat="43.875299690952964" lon="11.267341711934598"><ele>484.4</ele><time>2026-04-11T08:46:11Z</time></trkpt><trkpt lat="43.87535624146543" lon="11.267300287423723"><ele>483.8</ele><time>2026-04-11T08:46:12Z</time></trkpt><trkpt lat="43.87543087856198" lon="11.267250404416679"><ele>483.20000000000005</ele><time>2026-04-11T08:46:14Z</time></trkpt><trkpt lat="43.87551161457777" lon="11.267215633196836"><ele>482.6</ele><time>2026-04-11T08:46:16Z</time></trkpt><trkpt lat="43.87559831386101" lon="11.267142594494072"><ele>482.0</ele><time>2026-04-11T08:46:18Z</time></trkpt><trkpt lat="43.87562333695559" lon="11.266973295805698"><ele>479.49999999999994</ele><time>2026-04-11T08:46:20Z</time></trkpt><trkpt lat="43.875627715101565" lon="11.26684447495808"><ele>477.0</ele><time>2026-04-11T08:46:22Z</time></trkpt><trkpt lat="43.875650848357594" lon="11.266710102969856"><ele>474.5</ele><time>2026-04-11T08:46:24Z</time></trkpt><trkpt lat="43.87569218077865" lon="11.266595867375763"><ele>472.0</ele><time>2026-04-11T08:46:26Z</time></trkpt><trkpt lat="43.87576932657818" lon="11.266562793960954"><ele>469.49999999999994</ele><time>2026-04-11T08:46:28Z</time></trkpt><trkpt lat="43.87583408581954" lon="11.266589722543817"><ele>467.0</ele><time>2026-04-11T08:46:29Z</time></trkpt><trkpt lat="43.875917667359715" lon="11.266626066763825"><ele>465.49999999999994</ele><time>2026-04-11T08:46:30Z</time></trkpt><trkpt lat="43.87600835374396" lon="11.266667882736678"><ele>464.0</ele><time>2026-04-11T08:46:31Z</time></trkpt><trkpt lat="43.87610048573855" lon="11.266709056272022"><ele>462.5</ele><time>2026-04-11T08:46:32Z</time></trkpt><trkpt lat="43.87617850356891" lon="11.266763374256385"><ele>461.0</ele><time>2026-04-11T08:46:33Z</time></trkpt><trkpt lat="43.876258338254885" lon="11.266806398639336"><ele>459.49999999999994</ele><time>2026-04-11T08:46:34Z</time></trkpt><trkpt lat="43.87633505545901" lon="11.266846326297467"><ele>458.0</ele><time>2026-04-11T08:46:35Z</time></trkpt><trkpt lat="43.87640912473409" lon="11.266880615937485"><ele>457.99999999999994</ele><time>2026-04-11T08:46:36Z</time></trkpt><trkpt lat="43.876473022404696" lon="11.266917012811648"><ele>458.0</ele><time>2026-04-11T08:46:37Z</time></trkpt><trkpt lat="43.87657952377279" lon="11.266980558309722"><ele>458.0</ele><time>2026-04-11T08:46:39Z</time></trkpt><trkpt lat="43.87669125650018" lon="11.267029470183676"><ele>458.0</ele><time>2026-04-11T08:46:41Z</time></trkpt><trkpt lat="43.876754034904245" lon="11.267007557281064"><ele>457.99999999999994</ele><time>2026-04-11T08:46:43Z</time></trkpt><trkpt lat="43.8768168692792" lon="11.266996494112737"><ele>458.0</ele><time>2026-04-11T08:46:44Z</time></trkpt><trkpt lat="43.8769414152999" lon="11.266996818445826"><ele>456.66666666666663</ele><time>2026-04-11T08:46:46.001Z</time></trkpt><trkpt lat="43.87701364481687" lon="11.266993406832055"><ele>455.3333333333333</ele><time>2026-04-11T08:46:47.001Z</time></trkpt><trkpt lat="43.87710723211891" lon="11.266994283693194"><ele>454.0</ele><time>2026-04-11T08:46:48.001Z</time></trkpt><trkpt lat="43.877183768128184" lon="11.267007202595229"><ele>452.66666666666663</ele><time>2026-04-11T08:46:49.001Z</time></trkpt><trkpt lat="43.87724781806486" lon="11.267040938667636"><ele>451.3333333333333</ele><time>2026-04-11T08:46:50.001Z</time></trkpt><trkpt lat="43.8773325051163" lon="11.267103846385346"><ele>450.0</ele><time>2026-04-11T08:46:52.001Z</time></trkpt><trkpt lat="43.87743370039207" lon="11.26713053457062"><ele>450.0</ele><time>2026-04-11T08:46:54.001Z</time></trkpt><trkpt lat="43.87753568833415" lon="11.26711477434516"><ele>450.0</ele><time>2026-04-11T08:46:56.001Z</time></trkpt><trkpt lat="43.877615134994386" lon="11.26713314514699"><ele>450.0</ele><time>2026-04-11T08:46:58.001Z</time></trkpt><trkpt lat="43.87768473045284" lon="11.267166323898776"><ele>450.0</ele><time>2026-04-11T08:47:02.001Z</time></trkpt><trkpt lat="43.87775611943827" lon="11.267186548711358"><ele>450.0</ele><time>2026-04-11T08:47:57.001Z</time></trkpt><trkpt lat="43.8778262199434" lon="11.267226411278552"><ele>450.0</ele><time>2026-04-11T08:48:00.001Z</time></trkpt><trkpt lat="43.8778918825509" lon="11.26727319209307"><ele>450.5</ele><time>2026-04-11T08:48:02.001Z</time></trkpt><trkpt lat="43.877961886075674" lon="11.267296542790323"><ele>451.0</ele><time>2026-04-11T08:48:04.001Z</time></trkpt><trkpt lat="43.87804425858526" lon="11.267337579927096"><ele>451.5</ele><time>2026-04-11T08:48:06.001Z</time></trkpt><trkpt lat="43.87811401293288" lon="11.267396632448051"><ele>452.0</ele><time>2026-04-11T08:48:08.001Z</time></trkpt><trkpt lat="43.878193586790445" lon="11.267436760890321"><ele>452.5</ele><time>2026-04-11T08:48:10.001Z</time></trkpt><trkpt lat="43.878259843528426" lon="11.267439401179397"><ele>453.0</ele><time>2026-04-11T08:48:11.001Z</time></trkpt><trkpt lat="43.87832298356883" lon="11.267436206332436"><ele>453.0</ele><time>2026-04-11T08:48:12.001Z</time></trkpt><trkpt lat="43.87842869999611" lon="11.267423356607534"><ele>452.99999999999994</ele><time>2026-04-11T08:48:14.001Z</time></trkpt><trkpt lat="43.87852866713977" lon="11.267485160516834"><ele>452.99999999999994</ele><time>2026-04-11T08:48:16.001Z</time></trkpt><trkpt lat="43.87862888731709" lon="11.26748612421646"><ele>453.0</ele><time>2026-04-11T08:48:18.001Z</time></trkpt><trkpt lat="43.87872299806752" lon="11.267419156086811"><ele>453.0</ele><time>2026-04-11T08:48:20.001Z</time></trkpt><trkpt lat="43.8787713631746" lon="11.267345458470913"><ele>448.79999999999995</ele><time>2026-04-11T08:48:21.001Z</time></trkpt><trkpt lat="43.87886182927648" lon="11.267271484883432"><ele>444.59999999999997</ele><time>2026-04-11T08:48:23.001Z</time></trkpt><trkpt lat="43.87894373712348" lon="11.267253566127222"><ele>440.40000000000003</ele><time>2026-04-11T08:48:24.001Z</time></trkpt><trkpt lat="43.87906010084016" lon="11.267139616070537"><ele>436.20000000000005</ele><time>2026-04-11T08:48:26.001Z</time></trkpt><trkpt lat="43.87911661609889" lon="11.267072773470085"><ele>432.0</ele><time>2026-04-11T08:48:27.001Z</time></trkpt><trkpt lat="43.87922121791426" lon="11.266938275542497"><ele>431.8333333333333</ele><time>2026-04-11T08:48:29.001Z</time></trkpt><trkpt lat="43.879269428496876" lon="11.266882017641835"><ele>431.66666666666663</ele><time>2026-04-11T08:48:30.001Z</time></trkpt><trkpt lat="43.87935496661285" lon="11.266742657057156"><ele>431.5</ele><time>2026-04-11T08:48:32.001Z</time></trkpt><trkpt lat="43.87940476512349" lon="11.266642345896713"><ele>431.3333333333333</ele><time>2026-04-11T08:48:33.001Z</time></trkpt><trkpt lat="43.879459316887754" lon="11.266575625106984"><ele>431.16666666666663</ele><time>2026-04-11T08:48:34.001Z</time></trkpt><trkpt lat="43.87952384185216" lon="11.266526940561224"><ele>431.0</ele><time>2026-04-11T08:48:35.001Z</time></trkpt><trkpt lat="43.87958479154438" lon="11.266486034303457"><ele>428.8</ele><time>2026-04-11T08:48:36.001Z</time></trkpt><trkpt lat="43.87966118000325" lon="11.266439385543205"><ele>426.6</ele><time>2026-04-11T08:48:37.001Z</time></trkpt><trkpt lat="43.87973399807805" lon="11.2664304217484"><ele>424.4</ele><time>2026-04-11T08:48:38.001Z</time></trkpt><trkpt lat="43.879865839483465" lon="11.266394557659934"><ele>422.2</ele><time>2026-04-11T08:48:40.001Z</time></trkpt><trkpt lat="43.87993473955039" lon="11.266390419208202"><ele>420.0</ele><time>2026-04-11T08:48:41.001Z</time></trkpt><trkpt lat="43.88006974171668" lon="11.266365661260725"><ele>419.3333333333333</ele><time>2026-04-11T08:48:43.001Z</time></trkpt><trkpt lat="43.88015788497701" lon="11.266358669634235"><ele>418.66666666666663</ele><time>2026-04-11T08:48:44.001Z</time></trkpt><trkpt lat="43.88023146290703" lon="11.266352126071219"><ele>418.0</ele><time>2026-04-11T08:48:45.001Z</time></trkpt><trkpt lat="43.88034549123339" lon="11.266345944246986"><ele>417.3333333333333</ele><time>2026-04-11T08:48:47.001Z</time></trkpt><trkpt lat="43.88044080475165" lon="11.266304449847098"><ele>416.66666666666663</ele><time>2026-04-11T08:48:49.001Z</time></trkpt><trkpt lat="43.88049588144475" lon="11.266242611217645"><ele>416.0</ele><time>2026-04-11T08:48:50.001Z</time></trkpt><trkpt lat="43.88057593687265" lon="11.266141417325"><ele>416.0</ele><time>2026-04-11T08:48:52.002Z</time></trkpt><trkpt lat="43.88064181519139" lon="11.26608198661407"><ele>416.0</ele><time>2026-04-11T08:48:53.002Z</time></trkpt><trkpt lat="43.880735002398076" lon="11.266090070745943"><ele>416.0</ele><time>2026-04-11T08:48:56.002Z</time></trkpt><trkpt lat="43.88081745716938" lon="11.266201103489603"><ele>416.0</ele><time>2026-04-11T08:48:58.002Z</time></trkpt><trkpt lat="43.88086970934385" lon="11.266261490604982"><ele>416.0</ele><time>2026-04-11T08:48:59.002Z</time></trkpt><trkpt lat="43.880960655770494" lon="11.266364004249503"><ele>414.6</ele><time>2026-04-11T08:49:01.002Z</time></trkpt><trkpt lat="43.88104840517923" lon="11.266400089370732"><ele>413.20000000000005</ele><time>2026-04-11T08:49:03.002Z</time></trkpt><trkpt lat="43.88112026580382" lon="11.266359530198867"><ele>411.79999999999995</ele><time>2026-04-11T08:49:04.002Z</time></trkpt><trkpt lat="43.881209577874365" lon="11.266309883414397"><ele>410.4</ele><time>2026-04-11T08:49:05.002Z</time></trkpt><trkpt lat="43.88131342006234" lon="11.266270200216164"><ele>409.0</ele><time>2026-04-11T08:49:06.002Z</time></trkpt><trkpt lat="43.88139772122009" lon="11.266252073626672"><ele>409.00000000000006</ele><time>2026-04-11T08:49:07.002Z</time></trkpt><trkpt lat="43.88149080414963" lon="11.266238055448513"><ele>409.0</ele><time>2026-04-11T08:49:08.002Z</time></trkpt><trkpt lat="43.881592440524216" lon="11.266218921604896"><ele>409.0</ele><time>2026-04-11T08:49:09.002Z</time></trkpt><trkpt lat="43.881670571649316" lon="11.266192380723822"><ele>409.0</ele><time>2026-04-11T08:49:10.002Z</time></trkpt><trkpt lat="43.88173473729562" lon="11.266202541313394"><ele>409.00000000000006</ele><time>2026-04-11T08:49:11.002Z</time></trkpt><trkpt lat="43.88182420135246" lon="11.266236781084011"><ele>409.0</ele><time>2026-04-11T08:49:13.002Z</time></trkpt><trkpt lat="43.88189062984356" lon="11.266312115489871"><ele>410.2</ele><time>2026-04-11T08:49:14.002Z</time></trkpt><trkpt lat="43.881952290506966" lon="11.266393522994358"><ele>411.4</ele><time>2026-04-11T08:49:15.002Z</time></trkpt><trkpt lat="43.88202431720579" lon="11.26646727768961"><ele>412.6</ele><time>2026-04-11T08:49:16.002Z</time></trkpt><trkpt lat="43.88213782091887" lon="11.266546712778757"><ele>413.8</ele><time>2026-04-11T08:49:18.002Z</time></trkpt><trkpt lat="43.882182021402365" lon="11.26662000926577"><ele>415.0</ele><time>2026-04-11T08:49:19.002Z</time></trkpt><trkpt lat="43.88227772959596" lon="11.26668114925454"><ele>415.00000000000006</ele><time>2026-04-11T08:49:21.002Z</time></trkpt><trkpt lat="43.88234507143115" lon="11.266704623001791"><ele>415.0</ele><time>2026-04-11T08:49:22.002Z</time></trkpt><trkpt lat="43.88241012868287" lon="11.26672251970356"><ele>415.0</ele><time>2026-04-11T08:49:23.002Z</time></trkpt><trkpt lat="43.88247492297652" lon="11.266724454553344"><ele>415.0</ele><time>2026-04-11T08:49:24.002Z</time></trkpt><trkpt lat="43.88254761874559" lon="11.26672669616878"><ele>415.00000000000006</ele><time>2026-04-11T08:49:25.002Z</time></trkpt><trkpt lat="43.88265792360125" lon="11.266720822471202"><ele>415.0</ele><time>2026-04-11T08:49:27.002Z</time></trkpt><trkpt lat="43.882774702183184" lon="11.266663916145111"><ele>412.4</ele><time>2026-04-11T08:49:29.002Z</time></trkpt><trkpt lat="43.88288022071871" lon="11.266583065105536"><ele>409.8</ele><time>2026-04-11T08:49:31.002Z</time></trkpt><trkpt lat="43.88298215664133" lon="11.266536894214756"><ele>407.20000000000005</ele><time>2026-04-11T08:49:33.002Z</time></trkpt><trkpt lat="43.883045911923865" lon="11.266523397224507"><ele>404.6</ele><time>2026-04-11T08:49:34.002Z</time></trkpt><trkpt lat="43.88318296675149" lon="11.266485570708092"><ele>402.0</ele><time>2026-04-11T08:49:36.002Z</time></trkpt><trkpt lat="43.8832926893316" lon="11.266488164724423"><ele>402.0</ele><time>2026-04-11T08:49:37.002Z</time></trkpt><trkpt lat="43.88340869550596" lon="11.266483582800868"><ele>402.0</ele><time>2026-04-11T08:49:38.002Z</time></trkpt><trkpt lat="43.883483400942126" lon="11.266475131083153"><ele>402.0</ele><time>2026-04-11T08:49:39.002Z</time></trkpt><trkpt lat="43.883570957314866" lon="11.266490110730375"><ele>402.0</ele><time>2026-04-11T08:49:40.002Z</time></trkpt><trkpt lat="43.88367393045065" lon="11.26651188499888"><ele>402.0</ele><time>2026-04-11T08:49:42.002Z</time></trkpt><trkpt lat="43.883815201096574" lon="11.266528768963445"><ele>400.1666666666667</ele><time>2026-04-11T08:49:44.002Z</time></trkpt><trkpt lat="43.883897769588984" lon="11.266569538833648"><ele>398.33333333333337</ele><time>2026-04-11T08:49:45.002Z</time></trkpt><trkpt lat="43.883973017264864" lon="11.266603635681038"><ele>396.5</ele><time>2026-04-11T08:49:46.002Z</time></trkpt><trkpt lat="43.88405840563211" lon="11.266624318381377"><ele>394.6666666666667</ele><time>2026-04-11T08:49:47.002Z</time></trkpt><trkpt lat="43.884137899842294" lon="11.266642501686123"><ele>392.83333333333337</ele><time>2026-04-11T08:49:48.002Z</time></trkpt><trkpt lat="43.88423262602451" lon="11.266656548355098"><ele>391.0</ele><time>2026-04-11T08:49:49.002Z</time></trkpt><trkpt lat="43.884316253278186" lon="11.266700631689528"><ele>388.0</ele><time>2026-04-11T08:49:50.002Z</time></trkpt><trkpt lat="43.88439082903824" lon="11.266725260408224"><ele>385.0</ele><time>2026-04-11T08:49:51.002Z</time></trkpt><trkpt lat="43.88445843655378" lon="11.266747909580223"><ele>382.0</ele><time>2026-04-11T08:49:52.002Z</time></trkpt><trkpt lat="43.88452611192534" lon="11.266775321986447"><ele>379.0</ele><time>2026-04-11T08:49:53.002Z</time></trkpt><trkpt lat="43.88464678220721" lon="11.266829360731919"><ele>376.0</ele><time>2026-04-11T08:49:55.002Z</time></trkpt><trkpt lat="43.88475755984554" lon="11.266876444327924"><ele>376.0</ele><time>2026-04-11T08:49:57.002Z</time></trkpt><trkpt lat="43.88483511916495" lon="11.266871890917482"><ele>376.0</ele><time>2026-04-11T08:49:59.002Z</time></trkpt><trkpt lat="43.88486778563925" lon="11.266787462668532"><ele>376.0</ele><time>2026-04-11T08:50:01.002Z</time></trkpt><trkpt lat="43.88481912343158" lon="11.266678122888443"><ele>376.0</ele><time>2026-04-11T08:50:03.002Z</time></trkpt><trkpt lat="43.884767120285424" lon="11.266604067271174"><ele>376.0</ele><time>2026-04-11T08:50:04.002Z</time></trkpt><trkpt lat="43.884667642967955" lon="11.266435898287417"><ele>372.4</ele><time>2026-04-11T08:50:06.002Z</time></trkpt><trkpt lat="43.884597380862104" lon="11.266324672415722"><ele>368.8</ele><time>2026-04-11T08:50:07.002Z</time></trkpt><trkpt lat="43.88451797795616" lon="11.266193408695733"><ele>365.2</ele><time>2026-04-11T08:50:08.002Z</time></trkpt><trkpt lat="43.884442508736484" lon="11.26608845551873"><ele>361.59999999999997</ele><time>2026-04-11T08:50:09.002Z</time></trkpt><trkpt lat="43.884365398366526" lon="11.265996585789434"><ele>358.0</ele><time>2026-04-11T08:50:10.002Z</time></trkpt><trkpt lat="43.88429070956712" lon="11.265912724788842"><ele>358.2</ele><time>2026-04-11T08:50:11.002Z</time></trkpt><trkpt lat="43.88418797072247" lon="11.265824662839998"><ele>358.4</ele><time>2026-04-11T08:50:12.002Z</time></trkpt><trkpt lat="43.88411031398368" lon="11.265775418770565"><ele>358.59999999999997</ele><time>2026-04-11T08:50:13.002Z</time></trkpt><trkpt lat="43.884023395425444" lon="11.265724289427858"><ele>358.79999999999995</ele><time>2026-04-11T08:50:15.002Z</time></trkpt><trkpt lat="43.884020365697964" lon="11.265600653496294"><ele>359.0</ele><time>2026-04-11T08:50:17.002Z</time></trkpt><trkpt lat="43.88412565109208" lon="11.26550903322433"><ele>359.0</ele><time>2026-04-11T08:50:19.002Z</time></trkpt><trkpt lat="43.884254088407545" lon="11.265486140630735"><ele>359.0</ele><time>2026-04-11T08:50:20.002Z</time></trkpt><trkpt lat="43.88438157055601" lon="11.265498048829594"><ele>359.0</ele><time>2026-04-11T08:50:21.002Z</time></trkpt><trkpt lat="43.88451626405366" lon="11.265535498404722"><ele>359.0</ele><time>2026-04-11T08:50:22.002Z</time></trkpt><trkpt lat="43.884668568713536" lon="11.265533804444498"><ele>359.25</ele><time>2026-04-11T08:50:23.002Z</time></trkpt><trkpt lat="43.88481297642028" lon="11.265505372257824"><ele>359.5</ele><time>2026-04-11T08:50:24.002Z</time></trkpt><trkpt lat="43.88494323384499" lon="11.265532517035759"><ele>359.75</ele><time>2026-04-11T08:50:25.002Z</time></trkpt><trkpt lat="43.885060172331954" lon="11.265572480514223"><ele>360.0</ele><time>2026-04-11T08:50:26.002Z</time></trkpt><trkpt lat="43.88517052925957" lon="11.265599711208797"><ele>360.8333333333333</ele><time>2026-04-11T08:50:27.002Z</time></trkpt><trkpt lat="43.88526304895558" lon="11.265644361988905"><ele>361.6666666666667</ele><time>2026-04-11T08:50:28.002Z</time></trkpt><trkpt lat="43.88533915535296" lon="11.265680743713332"><ele>362.5</ele><time>2026-04-11T08:50:29.002Z</time></trkpt><trkpt lat="43.88540363030262" lon="11.265698669001775"><ele>363.33333333333337</ele><time>2026-04-11T08:50:30.002Z</time></trkpt><trkpt lat="43.88546720399327" lon="11.265675041414033"><ele>364.1666666666667</ele><time>2026-04-11T08:50:31.002Z</time></trkpt><trkpt lat="43.885529984432864" lon="11.265575469333179"><ele>365.0</ele><time>2026-04-11T08:50:33.002Z</time></trkpt><trkpt lat="43.88559615518566" lon="11.26555444652916"><ele>359.5</ele><time>2026-04-11T08:50:35.002Z</time></trkpt><trkpt lat="43.88567158578988" lon="11.265758573420825"><ele>354.0</ele><time>2026-04-11T08:50:36.002Z</time></trkpt><trkpt lat="43.885777454101046" lon="11.265850347841612"><ele>348.5</ele><time>2026-04-11T08:50:37.002Z</time></trkpt><trkpt lat="43.885879606517605" lon="11.265956926264451"><ele>343.0</ele><time>2026-04-11T08:50:38.002Z</time></trkpt><trkpt lat="43.88596882222154" lon="11.26608285967566"><ele>341.25</ele><time>2026-04-11T08:50:39.002Z</time></trkpt><trkpt lat="43.886071110937344" lon="11.266187283831872"><ele>339.5</ele><time>2026-04-11T08:50:40.002Z</time></trkpt><trkpt lat="43.88616791009871" lon="11.26628632341728"><ele>337.75</ele><time>2026-04-11T08:50:41.002Z</time></trkpt><trkpt lat="43.8862659387615" lon="11.266402656546825"><ele>336.0</ele><time>2026-04-11T08:50:42.002Z</time></trkpt><trkpt lat="43.886380696618176" lon="11.266482412752632"><ele>336.0</ele><time>2026-04-11T08:50:43.002Z</time></trkpt><trkpt lat="43.88649750367338" lon="11.26654416552444"><ele>336.0</ele><time>2026-04-11T08:50:44.002Z</time></trkpt><trkpt lat="43.886600158345495" lon="11.266591967292003"><ele>336.0</ele><time>2026-04-11T08:50:45.002Z</time></trkpt><trkpt lat="43.88669401838266" lon="11.266642235435658"><ele>336.0</ele><time>2026-04-11T08:50:46.002Z</time></trkpt><trkpt lat="43.886768920698266" lon="11.26667940302987"><ele>336.0</ele><time>2026-04-11T08:50:47.002Z</time></trkpt><trkpt lat="43.88683148724006" lon="11.266715154883094"><ele>336.1666666666667</ele><time>2026-04-11T08:50:48.002Z</time></trkpt><trkpt lat="43.88691689223198" lon="11.266759970029538"><ele>336.3333333333333</ele><time>2026-04-11T08:50:50.002Z</time></trkpt><trkpt lat="43.886984125216095" lon="11.266787811487372"><ele>336.5</ele><time>2026-04-11T08:50:52.002Z</time></trkpt><trkpt lat="43.88706350389729" lon="11.266837180504629"><ele>336.66666666666663</ele><time>2026-04-11T08:51:47.003Z</time></trkpt><trkpt lat="43.88713866839581" lon="11.266874626921009"><ele>336.8333333333333</ele><time>2026-04-11T08:51:49.003Z</time></trkpt><trkpt lat="43.887205857683966" lon="11.266901771183806"><ele>337.0</ele><time>2026-04-11T08:51:50.003Z</time></trkpt><trkpt lat="43.88727872383918" lon="11.266926774945304"><ele>337.0</ele><time>2026-04-11T08:51:51.003Z</time></trkpt><trkpt lat="43.88735237414563" lon="11.266945335369453"><ele>337.0</ele><time>2026-04-11T08:51:52.003Z</time></trkpt><trkpt lat="43.88743509984147" lon="11.266954594553388"><ele>337.0</ele><time>2026-04-11T08:51:53.003Z</time></trkpt><trkpt lat="43.88751530733504" lon="11.266955445657084"><ele>337.0</ele><time>2026-04-11T08:51:54.003Z</time></trkpt><trkpt lat="43.887589669124715" lon="11.267027094459884"><ele>337.0</ele><time>2026-04-11T08:51:55.003Z</time></trkpt><trkpt lat="43.88766686782424" lon="11.267118465212494"><ele>337.0</ele><time>2026-04-11T08:51:56.003Z</time></trkpt><trkpt lat="43.8877545155288" lon="11.267226015008422"><ele>336.5</ele><time>2026-04-11T08:51:57.003Z</time></trkpt><trkpt lat="43.88784115456058" lon="11.267329919726643"><ele>336.0</ele><time>2026-04-11T08:51:58.003Z</time></trkpt><trkpt lat="43.887939039989135" lon="11.26742168780759"><ele>335.5</ele><time>2026-04-11T08:51:59.003Z</time></trkpt><trkpt lat="43.88802885675987" lon="11.267518858924845"><ele>335.0</ele><time>2026-04-11T08:52:00.003Z</time></trkpt><trkpt lat="43.888133111601825" lon="11.267594273996218"><ele>335.0</ele><time>2026-04-11T08:52:01.003Z</time></trkpt><trkpt lat="43.888242082731324" lon="11.26763948443894"><ele>335.0</ele><time>2026-04-11T08:52:02.003Z</time></trkpt><trkpt lat="43.88836409740518" lon="11.267638512901089"><ele>335.0</ele><time>2026-04-11T08:52:03.003Z</time></trkpt><trkpt lat="43.88848936430557" lon="11.26759328043901"><ele>335.0</ele><time>2026-04-11T08:52:04.003Z</time></trkpt><trkpt lat="43.88859770564355" lon="11.267527062875558"><ele>335.5</ele><time>2026-04-11T08:52:05.003Z</time></trkpt><trkpt lat="43.88869710044164" lon="11.267439997127864"><ele>336.0</ele><time>2026-04-11T08:52:06.003Z</time></trkpt><trkpt lat="43.88878982839542" lon="11.267339315904401"><ele>336.5</ele><time>2026-04-11T08:52:07.003Z</time></trkpt><trkpt lat="43.88888207502038" lon="11.267230552008613"><ele>337.0</ele><time>2026-04-11T08:52:08.003Z</time></trkpt><trkpt lat="43.888972978677444" lon="11.267106431629571"><ele>338.75</ele><time>2026-04-11T08:52:09.003Z</time></trkpt><trkpt lat="43.88907848002659" lon="11.266994639171912"><ele>340.5</ele><time>2026-04-11T08:52:10.003Z</time></trkpt><trkpt lat="43.88919639739194" lon="11.266899781419557"><ele>342.25</ele><time>2026-04-11T08:52:11.003Z</time></trkpt><trkpt lat="43.88932928389538" lon="11.266862321400485"><ele>344.0</ele><time>2026-04-11T08:52:12.003Z</time></trkpt><trkpt lat="43.88946482002934" lon="11.266829928881121"><ele>344.75</ele><time>2026-04-11T08:52:13.003Z</time></trkpt><trkpt lat="43.88958455274685" lon="11.266818146898327"><ele>345.5</ele><time>2026-04-11T08:52:14.003Z</time></trkpt><trkpt lat="43.88970910214289" lon="11.266794913264725"><ele>346.25</ele><time>2026-04-11T08:52:15.003Z</time></trkpt><trkpt lat="43.889839581845855" lon="11.266840276734332"><ele>347.0</ele><time>2026-04-11T08:52:16.003Z</time></trkpt><trkpt lat="43.88997374460364" lon="11.26688016023292"><ele>346.25</ele><time>2026-04-11T08:52:17.003Z</time></trkpt><trkpt lat="43.8901148320752" lon="11.26693364558216"><ele>345.5</ele><time>2026-04-11T08:52:18.003Z</time></trkpt><trkpt lat="43.89025420586903" lon="11.266986333345246"><ele>344.75</ele><time>2026-04-11T08:52:19.003Z</time></trkpt><trkpt lat="43.8903863231992" lon="11.267018158628275"><ele>344.0</ele><time>2026-04-11T08:52:20.003Z</time></trkpt><trkpt lat="43.89050861055606" lon="11.267049370839095"><ele>344.0</ele><time>2026-04-11T08:52:21.003Z</time></trkpt><trkpt lat="43.89063155794938" lon="11.267038840275735"><ele>344.0</ele><time>2026-04-11T08:52:22.003Z</time></trkpt><trkpt lat="43.8907717891161" lon="11.266992937922383"><ele>344.0</ele><time>2026-04-11T08:52:23.003Z</time></trkpt><trkpt lat="43.89091017052286" lon="11.266897759480578"><ele>344.0</ele><time>2026-04-11T08:52:24.003Z</time></trkpt><trkpt lat="43.891051032637876" lon="11.266786041345389"><ele>342.6666666666667</ele><time>2026-04-11T08:52:25.003Z</time></trkpt><trkpt lat="43.89119690126528" lon="11.26666586665964"><ele>341.3333333333333</ele><time>2026-04-11T08:52:26.003Z</time></trkpt><trkpt lat="43.89133990670038" lon="11.266571692340188"><ele>340.0</ele><time>2026-04-11T08:52:27.003Z</time></trkpt><trkpt lat="43.891472710171534" lon="11.266483004195624"><ele>345.25</ele><time>2026-04-11T08:52:28.003Z</time></trkpt><trkpt lat="43.89161310239306" lon="11.26641188209401"><ele>350.5</ele><time>2026-04-11T08:52:29.003Z</time></trkpt><trkpt lat="43.891745459413166" lon="11.266378756067605"><ele>355.75</ele><time>2026-04-11T08:52:30.003Z</time></trkpt><trkpt lat="43.89187893754792" lon="11.26638183662681"><ele>361.0</ele><time>2026-04-11T08:52:31.003Z</time></trkpt><trkpt lat="43.89201023471088" lon="11.266419624287039"><ele>354.5</ele><time>2026-04-11T08:52:32.003Z</time></trkpt><trkpt lat="43.89213458648219" lon="11.266495378736597"><ele>348.0</ele><time>2026-04-11T08:52:33.003Z</time></trkpt><trkpt lat="43.89224360991325" lon="11.266611232458942"><ele>341.5</ele><time>2026-04-11T08:52:34.003Z</time></trkpt><trkpt lat="43.89233745661051" lon="11.26674362037049"><ele>335.0</ele><time>2026-04-11T08:52:35.003Z</time></trkpt><trkpt lat="43.89244784683093" lon="11.26688151331949"><ele>335.0</ele><time>2026-04-11T08:52:36.003Z</time></trkpt><trkpt lat="43.89255664741303" lon="11.26702233707556"><ele>335.0</ele><time>2026-04-11T08:52:37.003Z</time></trkpt><trkpt lat="43.89267446855372" lon="11.267163368596545"><ele>335.0</ele><time>2026-04-11T08:52:38.003Z</time></trkpt><trkpt lat="43.89281913893818" lon="11.267226283805961"><ele>333.6666666666667</ele><time>2026-04-11T08:52:39.003Z</time></trkpt><trkpt lat="43.89296267981146" lon="11.267269865897548"><ele>332.3333333333333</ele><time>2026-04-11T08:52:40.003Z</time></trkpt><trkpt lat="43.89312260759555" lon="11.26725808256202"><ele>331.0</ele><time>2026-04-11T08:52:41.003Z</time></trkpt><trkpt lat="43.89328256658047" lon="11.267220053072053"><ele>336.3333333333333</ele><time>2026-04-11T08:52:42.003Z</time></trkpt><trkpt lat="43.893441094397396" lon="11.2671472276402"><ele>341.6666666666667</ele><time>2026-04-11T08:52:43.003Z</time></trkpt><trkpt lat="43.893587489464146" lon="11.267072190774527"><ele>347.0</ele><time>2026-04-11T08:52:44.003Z</time></trkpt><trkpt lat="43.89372754723145" lon="11.267066909378377"><ele>347.0</ele><time>2026-04-11T08:52:45.003Z</time></trkpt><trkpt lat="43.89387939370028" lon="11.267082011071997"><ele>347.0</ele><time>2026-04-11T08:52:46.003Z</time></trkpt><trkpt lat="43.89402455379744" lon="11.267139811880734"><ele>347.0</ele><time>2026-04-11T08:52:47.003Z</time></trkpt><trkpt lat="43.89417151755801" lon="11.267235191954628"><ele>351.0</ele><time>2026-04-11T08:52:48.003Z</time></trkpt><trkpt lat="43.89428914909744" lon="11.267346288241672"><ele>355.0</ele><time>2026-04-11T08:52:49.003Z</time></trkpt><trkpt lat="43.89437454091303" lon="11.267470308031005"><ele>359.0</ele><time>2026-04-11T08:52:50.003Z</time></trkpt><trkpt lat="43.894436643878976" lon="11.26763758810751"><ele>363.0</ele><time>2026-04-11T08:52:51.003Z</time></trkpt><trkpt lat="43.89445826868949" lon="11.267841693757436"><ele>363.0</ele><time>2026-04-11T08:52:52.003Z</time></trkpt><trkpt lat="43.89444940005966" lon="11.268065365215692"><ele>363.0</ele><time>2026-04-11T08:52:53.003Z</time></trkpt><trkpt lat="43.89445295481392" lon="11.26834053357313"><ele>363.0</ele><time>2026-04-11T08:52:54.003Z</time></trkpt><trkpt lat="43.89446032703214" lon="11.268618393889536"><ele>355.6666666666667</ele><time>2026-04-11T08:52:55.003Z</time></trkpt><trkpt lat="43.894495883605046" lon="11.268888720296689"><ele>348.33333333333337</ele><time>2026-04-11T08:52:56.003Z</time></trkpt><trkpt lat="43.89455647789711" lon="11.269138730291575"><ele>341.0</ele><time>2026-04-11T08:52:57.003Z</time></trkpt><trkpt lat="43.89461309877058" lon="11.269378851162363"><ele>335.33333333333337</ele><time>2026-04-11T08:52:58.003Z</time></trkpt><trkpt lat="43.894659620065596" lon="11.26961788128993"><ele>329.6666666666667</ele><time>2026-04-11T08:52:59.003Z</time></trkpt><trkpt lat="43.89470606897485" lon="11.269847578575833"><ele>324.0</ele><time>2026-04-11T08:53:00.004Z</time></trkpt><trkpt lat="43.8947581092596" lon="11.270067942454475"><ele>322.3333333333333</ele><time>2026-04-11T08:53:01.004Z</time></trkpt><trkpt lat="43.89481979200574" lon="11.270277699911757"><ele>320.66666666666663</ele><time>2026-04-11T08:53:02.004Z</time></trkpt><trkpt lat="43.89489469134018" lon="11.270476544728812"><ele>319.0</ele><time>2026-04-11T08:53:03.004Z</time></trkpt><trkpt lat="43.89497977309162" lon="11.270673942029246"><ele>318.3333333333333</ele><time>2026-04-11T08:53:04.004Z</time></trkpt><trkpt lat="43.89506515110155" lon="11.270865757829974"><ele>317.6666666666667</ele><time>2026-04-11T08:53:05.004Z</time></trkpt><trkpt lat="43.89513608325693" lon="11.271074317403057"><ele>317.0</ele><time>2026-04-11T08:53:06.004Z</time></trkpt><trkpt lat="43.895219162861586" lon="11.271280701582768"><ele>323.0</ele><time>2026-04-11T08:53:07.004Z</time></trkpt><trkpt lat="43.89530075633657" lon="11.271485249750492"><ele>329.0</ele><time>2026-04-11T08:53:08.004Z</time></trkpt><trkpt lat="43.895371918397984" lon="11.27168931418379"><ele>335.0</ele><time>2026-04-11T08:53:09.004Z</time></trkpt><trkpt lat="43.89543772387417" lon="11.271872026248085"><ele>335.0</ele><time>2026-04-11T08:53:10.004Z</time></trkpt><trkpt lat="43.8954955744526" lon="11.272052319118965"><ele>335.0</ele><time>2026-04-11T08:53:11.004Z</time></trkpt><trkpt lat="43.89555293001735" lon="11.272225257737038"><ele>335.0</ele><time>2026-04-11T08:53:12.004Z</time></trkpt><trkpt lat="43.89560829442423" lon="11.272399432861448"><ele>335.0</ele><time>2026-04-11T08:53:13.004Z</time></trkpt><trkpt lat="43.89564198424299" lon="11.272586535117105"><ele>332.33333333333337</ele><time>2026-04-11T08:53:14.004Z</time></trkpt><trkpt lat="43.89564143910376" lon="11.272780822191594"><ele>329.6666666666667</ele><time>2026-04-11T08:53:15.004Z</time></trkpt><trkpt lat="43.895625170655535" lon="11.273002365163856"><ele>327.0</ele><time>2026-04-11T08:53:16.004Z</time></trkpt><trkpt lat="43.895611203930486" lon="11.273226545470981"><ele>324.6666666666667</ele><time>2026-04-11T08:53:17.004Z</time></trkpt><trkpt lat="43.895605699533185" lon="11.273440513118253"><ele>322.33333333333337</ele><time>2026-04-11T08:53:18.004Z</time></trkpt><trkpt lat="43.89562012048441" lon="11.273655066150676"><ele>320.0</ele><time>2026-04-11T08:53:19.004Z</time></trkpt><trkpt lat="43.895672676702375" lon="11.273865676980956"><ele>317.33333333333337</ele><time>2026-04-11T08:53:20.004Z</time></trkpt><trkpt lat="43.89574852288088" lon="11.274064111007194"><ele>314.6666666666667</ele><time>2026-04-11T08:53:21.004Z</time></trkpt><trkpt lat="43.895846083020615" lon="11.274243489010384"><ele>312.0</ele><time>2026-04-11T08:53:22.004Z</time></trkpt><trkpt lat="43.89595905041064" lon="11.27440144146947"><ele>318.6666666666667</ele><time>2026-04-11T08:53:23.004Z</time></trkpt><trkpt lat="43.89607835592856" lon="11.274545243927488"><ele>325.33333333333337</ele><time>2026-04-11T08:53:24.004Z</time></trkpt><trkpt lat="43.896174863152744" lon="11.274710532902985"><ele>332.0</ele><time>2026-04-11T08:53:25.004Z</time></trkpt><trkpt lat="43.89624567545451" lon="11.27490579707046"><ele>332.0</ele><time>2026-04-11T08:53:26.004Z</time></trkpt><trkpt lat="43.89628765275938" lon="11.275132265410784"><ele>332.0</ele><time>2026-04-11T08:53:27.004Z</time></trkpt><trkpt lat="43.896275625031834" lon="11.275369649434598"><ele>332.0</ele><time>2026-04-11T08:53:28.004Z</time></trkpt><trkpt lat="43.89626840224437" lon="11.27562735917765"><ele>330.33333333333337</ele><time>2026-04-11T08:53:29.004Z</time></trkpt><trkpt lat="43.8962699039657" lon="11.275883959872381"><ele>328.6666666666667</ele><time>2026-04-11T08:53:30.004Z</time></trkpt><trkpt lat="43.896249902901076" lon="11.27613375187007"><ele>327.0</ele><time>2026-04-11T08:53:31.004Z</time></trkpt><trkpt lat="43.89623936902133" lon="11.27636141542365"><ele>326.6666666666667</ele><time>2026-04-11T08:53:32.004Z</time></trkpt><trkpt lat="43.89623089759325" lon="11.276591217136236"><ele>326.33333333333337</ele><time>2026-04-11T08:53:33.004Z</time></trkpt><trkpt lat="43.89622630252495" lon="11.276813616263656"><ele>326.0</ele><time>2026-04-11T08:53:34.004Z</time></trkpt><trkpt lat="43.89622613326916" lon="11.277043640269227"><ele>324.6666666666667</ele><time>2026-04-11T08:53:35.004Z</time></trkpt><trkpt lat="43.89625312926221" lon="11.277274860831094"><ele>323.3333333333333</ele><time>2026-04-11T08:53:36.004Z</time></trkpt><trkpt lat="43.896298833068066" lon="11.27751062583926"><ele>322.0</ele><time>2026-04-11T08:53:37.004Z</time></trkpt><trkpt lat="43.89638123925727" lon="11.277760261984056"><ele>322.0</ele><time>2026-04-11T08:53:38.004Z</time></trkpt><trkpt lat="43.896491197305046" lon="11.278018617452197"><ele>322.0</ele><time>2026-04-11T08:53:39.004Z</time></trkpt><trkpt lat="43.896621894351576" lon="11.27826861078444"><ele>322.0</ele><time>2026-04-11T08:53:40.004Z</time></trkpt><trkpt lat="43.8967588757499" lon="11.278485766373857"><ele>323.0</ele><time>2026-04-11T08:53:41.004Z</time></trkpt><trkpt lat="43.896873485503434" lon="11.278712333380131"><ele>324.0</ele><time>2026-04-11T08:53:42.004Z</time></trkpt><trkpt lat="43.89698635581725" lon="11.278907332895168"><ele>325.0</ele><time>2026-04-11T08:53:43.004Z</time></trkpt><trkpt lat="43.89706609692616" lon="11.27913548743448"><ele>325.0</ele><time>2026-04-11T08:53:44.004Z</time></trkpt><trkpt lat="43.8971330346124" lon="11.279374727412758"><ele>325.0</ele><time>2026-04-11T08:53:45.004Z</time></trkpt><trkpt lat="43.89718673732253" lon="11.27962663821337"><ele>325.0</ele><time>2026-04-11T08:53:46.004Z</time></trkpt><trkpt lat="43.89720719557352" lon="11.279890885133025"><ele>323.0</ele><time>2026-04-11T08:53:47.004Z</time></trkpt><trkpt lat="43.89722458553032" lon="11.280153307207923"><ele>321.0</ele><time>2026-04-11T08:53:48.004Z</time></trkpt><trkpt lat="43.89724048088198" lon="11.28041229764521"><ele>319.0</ele><time>2026-04-11T08:53:49.004Z</time></trkpt><trkpt lat="43.89726334031111" lon="11.280661217635727"><ele>318.66666666666663</ele><time>2026-04-11T08:53:50.004Z</time></trkpt><trkpt lat="43.897273745377944" lon="11.280894272577507"><ele>318.3333333333333</ele><time>2026-04-11T08:53:51.004Z</time></trkpt><trkpt lat="43.89727285663328" lon="11.281113449361698"><ele>318.0</ele><time>2026-04-11T08:53:52.004Z</time></trkpt><trkpt lat="43.89726118734528" lon="11.281316244301538"><ele>318.25</ele><time>2026-04-11T08:53:53.004Z</time></trkpt><trkpt lat="43.897253552975236" lon="11.281509652699514"><ele>318.5</ele><time>2026-04-11T08:53:54.004Z</time></trkpt><trkpt lat="43.89723301785163" lon="11.281690901126534"><ele>318.75</ele><time>2026-04-11T08:53:55.004Z</time></trkpt><trkpt lat="43.89723200443594" lon="11.281868273865905"><ele>319.0</ele><time>2026-04-11T08:53:56.004Z</time></trkpt><trkpt lat="43.897220372216296" lon="11.282038209056019"><ele>319.0</ele><time>2026-04-11T08:53:57.004Z</time></trkpt><trkpt lat="43.897209149349564" lon="11.282186527865385"><ele>319.0</ele><time>2026-04-11T08:53:58.004Z</time></trkpt><trkpt lat="43.89719247896784" lon="11.282325122542007"><ele>319.0</ele><time>2026-04-11T08:53:59.004Z</time></trkpt><trkpt lat="43.89718732040278" lon="11.282439609771"><ele>319.0</ele><time>2026-04-11T08:54:00.004Z</time></trkpt><trkpt lat="43.897181608471136" lon="11.28252879091016"><ele>319.0</ele><time>2026-04-11T08:54:01.004Z</time></trkpt><trkpt lat="43.897171317621236" lon="11.282665729596133"><ele>317.5</ele><time>2026-04-11T08:54:03.004Z</time></trkpt><trkpt lat="43.8971819124272" lon="11.282774499085647"><ele>316.0</ele><time>2026-04-11T08:54:05.004Z</time></trkpt><trkpt lat="43.89718080114876" lon="11.282880658979472"><ele>314.5</ele><time>2026-04-11T08:54:07.004Z</time></trkpt><trkpt lat="43.89733299878291" lon="11.283036962336084"><ele>313.0</ele><time>2026-04-11T08:54:09.004Z</time></trkpt><trkpt lat="43.897425482080685" lon="11.283132357590986"><ele>312.75</ele><time>2026-04-11T08:54:10.004Z</time></trkpt><trkpt lat="43.89752911645157" lon="11.283231504426903"><ele>312.5</ele><time>2026-04-11T08:54:11.004Z</time></trkpt><trkpt lat="43.897649098420764" lon="11.28333906812509"><ele>312.25</ele><time>2026-04-11T08:54:12.004Z</time></trkpt><trkpt lat="43.89776559076155" lon="11.28346612729049"><ele>312.0</ele><time>2026-04-11T08:54:13.004Z</time></trkpt><trkpt lat="43.89789066797191" lon="11.283543570262971"><ele>312.0</ele><time>2026-04-11T08:54:14.004Z</time></trkpt><trkpt lat="43.89801719468704" lon="11.28360836763205"><ele>312.0</ele><time>2026-04-11T08:54:15.004Z</time></trkpt><trkpt lat="43.89816727131624" lon="11.283639891057165"><ele>312.0</ele><time>2026-04-11T08:54:16.004Z</time></trkpt><trkpt lat="43.89831883363975" lon="11.283630165346052"><ele>312.0</ele><time>2026-04-11T08:54:17.004Z</time></trkpt><trkpt lat="43.8984707489535" lon="11.283593323406269"><ele>309.0</ele><time>2026-04-11T08:54:18.004Z</time></trkpt><trkpt lat="43.898621282455544" lon="11.283534926287535"><ele>306.0</ele><time>2026-04-11T08:54:19.004Z</time></trkpt><trkpt lat="43.89875336202904" lon="11.28347951240191"><ele>303.0</ele><time>2026-04-11T08:54:20.004Z</time></trkpt><trkpt lat="43.898898124484816" lon="11.283416936689509"><ele>300.0</ele><time>2026-04-11T08:54:21.004Z</time></trkpt><trkpt lat="43.89903993025926" lon="11.283365566498073"><ele>300.0</ele><time>2026-04-11T08:54:22.004Z</time></trkpt><trkpt lat="43.89918549875981" lon="11.283323916594224"><ele>300.0</ele><time>2026-04-11T08:54:23.004Z</time></trkpt><trkpt lat="43.89933127585025" lon="11.283287040489057"><ele>300.0</ele><time>2026-04-11T08:54:24.004Z</time></trkpt><trkpt lat="43.89946668597118" lon="11.283256647069333"><ele>300.0</ele><time>2026-04-11T08:54:25.004Z</time></trkpt><trkpt lat="43.8995990666561" lon="11.28323040312599"><ele>300.0</ele><time>2026-04-11T08:54:26.004Z</time></trkpt><trkpt lat="43.89973574651498" lon="11.283204528021802"><ele>300.0</ele><time>2026-04-11T08:54:27.004Z</time></trkpt><trkpt lat="43.89986872264543" lon="11.283183101134934"><ele>300.0</ele><time>2026-04-11T08:54:28.004Z</time></trkpt><trkpt lat="43.900006479072935" lon="11.2831562008258"><ele>300.0</ele><time>2026-04-11T08:54:29.004Z</time></trkpt><trkpt lat="43.90014772412313" lon="11.283096224286965"><ele>300.0</ele><time>2026-04-11T08:54:30.004Z</time></trkpt><trkpt lat="43.90026604314769" lon="11.282989355050443"><ele>300.0</ele><time>2026-04-11T08:54:31.004Z</time></trkpt><trkpt lat="43.9003740357661" lon="11.28290036304621"><ele>300.0</ele><time>2026-04-11T08:54:32.004Z</time></trkpt><trkpt lat="43.90048074854754" lon="11.28281346719963"><ele>300.0</ele><time>2026-04-11T08:54:33.004Z</time></trkpt><trkpt lat="43.90060501041342" lon="11.282731086920485"><ele>300.0</ele><time>2026-04-11T08:54:34.004Z</time></trkpt><trkpt lat="43.90074125536208" lon="11.28267543678794"><ele>300.0</ele><time>2026-04-11T08:54:35.004Z</time></trkpt><trkpt lat="43.90088644659243" lon="11.282638371185874"><ele>300.0</ele><time>2026-04-11T08:54:36.004Z</time></trkpt><trkpt lat="43.9010534760516" lon="11.282625519552102"><ele>297.0</ele><time>2026-04-11T08:54:37.004Z</time></trkpt><trkpt lat="43.90121530709986" lon="11.282640108424717"><ele>294.0</ele><time>2026-04-11T08:54:38.004Z</time></trkpt><trkpt lat="43.90137822013924" lon="11.282687080560269"><ele>291.0</ele><time>2026-04-11T08:54:39.004Z</time></trkpt><trkpt lat="43.9015416025056" lon="11.282747347507529"><ele>291.0</ele><time>2026-04-11T08:54:40.004Z</time></trkpt><trkpt lat="43.901697290705854" lon="11.282805402108082"><ele>291.0</ele><time>2026-04-11T08:54:41.004Z</time></trkpt><trkpt lat="43.90184978272718" lon="11.282858626429784"><ele>291.0</ele><time>2026-04-11T08:54:42.004Z</time></trkpt><trkpt lat="43.90200300384175" lon="11.282917819030766"><ele>292.0</ele><time>2026-04-11T08:54:43.004Z</time></trkpt><trkpt lat="43.902150826312344" lon="11.28299278360673"><ele>293.0</ele><time>2026-04-11T08:54:44.004Z</time></trkpt><trkpt lat="43.902294284000085" lon="11.283049239841734"><ele>294.0</ele><time>2026-04-11T08:54:45.004Z</time></trkpt><trkpt lat="43.90244988665022" lon="11.283081932024974"><ele>292.3333333333333</ele><time>2026-04-11T08:54:46.004Z</time></trkpt><trkpt lat="43.902614274579726" lon="11.283117368036383"><ele>290.66666666666663</ele><time>2026-04-11T08:54:47.004Z</time></trkpt><trkpt lat="43.90278812208374" lon="11.28313898531815"><ele>289.0</ele><time>2026-04-11T08:54:48.004Z</time></trkpt><trkpt lat="43.90297054002765" lon="11.283164422701471"><ele>289.0</ele><time>2026-04-11T08:54:49.004Z</time></trkpt><trkpt lat="43.90313665293162" lon="11.283141322130936"><ele>289.0</ele><time>2026-04-11T08:54:50.004Z</time></trkpt><trkpt lat="43.90331823783479" lon="11.283159443475201"><ele>289.0</ele><time>2026-04-11T08:54:51.004Z</time></trkpt><trkpt lat="43.90349845108297" lon="11.283156908505484"><ele>288.0</ele><time>2026-04-11T08:54:52.004Z</time></trkpt><trkpt lat="43.90368587302776" lon="11.283154446763788"><ele>287.0</ele><time>2026-04-11T08:54:53.004Z</time></trkpt><trkpt lat="43.90387367862651" lon="11.283133801549416"><ele>286.0</ele><time>2026-04-11T08:54:54.004Z</time></trkpt><trkpt lat="43.90406534205784" lon="11.283138834734883"><ele>286.0</ele><time>2026-04-11T08:54:55.004Z</time></trkpt><trkpt lat="43.904246066179866" lon="11.283129964473012"><ele>286.0</ele><time>2026-04-11T08:54:56.004Z</time></trkpt><trkpt lat="43.9044227952582" lon="11.283141816421137"><ele>286.0</ele><time>2026-04-11T08:54:57.004Z</time></trkpt><trkpt lat="43.90460198493916" lon="11.283110501711498"><ele>284.66666666666663</ele><time>2026-04-11T08:54:58.004Z</time></trkpt><trkpt lat="43.90476992497262" lon="11.283042015374482"><ele>283.3333333333333</ele><time>2026-04-11T08:54:59.004Z</time></trkpt><trkpt lat="43.90493065492367" lon="11.282937970087724"><ele>282.0</ele><time>2026-04-11T08:55:00.004Z</time></trkpt><trkpt lat="43.90507284959198" lon="11.282796531500221"><ele>283.3333333333333</ele><time>2026-04-11T08:55:01.004Z</time></trkpt><trkpt lat="43.90521779238761" lon="11.28268740684212"><ele>284.66666666666663</ele><time>2026-04-11T08:55:02.004Z</time></trkpt><trkpt lat="43.90536869395323" lon="11.282597544601279"><ele>286.0</ele><time>2026-04-11T08:55:03.004Z</time></trkpt><trkpt lat="43.905529533097074" lon="11.282536187367947"><ele>286.0</ele><time>2026-04-11T08:55:04.004Z</time></trkpt><trkpt lat="43.90570432212803" lon="11.282509394950436"><ele>286.0</ele><time>2026-04-11T08:55:05.005Z</time></trkpt><trkpt lat="43.905891278207555" lon="11.282491392441873"><ele>286.0</ele><time>2026-04-11T08:55:06.005Z</time></trkpt><trkpt lat="43.90606780801872" lon="11.2824700223766"><ele>285.3333333333333</ele><time>2026-04-11T08:55:07.005Z</time></trkpt><trkpt lat="43.906260977919175" lon="11.282466730324762"><ele>284.6666666666667</ele><time>2026-04-11T08:55:08.005Z</time></trkpt><trkpt lat="43.9064262912869" lon="11.28244655834752"><ele>284.0</ele><time>2026-04-11T08:55:09.005Z</time></trkpt><trkpt lat="43.906605141626954" lon="11.282432829430139"><ele>283.33333333333337</ele><time>2026-04-11T08:55:10.005Z</time></trkpt><trkpt lat="43.90678333433747" lon="11.282425071597341"><ele>282.6666666666667</ele><time>2026-04-11T08:55:11.005Z</time></trkpt><trkpt lat="43.90695845492682" lon="11.28241205242748"><ele>282.0</ele><time>2026-04-11T08:55:12.005Z</time></trkpt><trkpt lat="43.9071485585176" lon="11.282397698849959"><ele>282.0</ele><time>2026-04-11T08:55:13.005Z</time></trkpt><trkpt lat="43.90733680204298" lon="11.282383944331256"><ele>282.0</ele><time>2026-04-11T08:55:14.005Z</time></trkpt><trkpt lat="43.90753387704593" lon="11.282369165711984"><ele>282.0</ele><time>2026-04-11T08:55:15.005Z</time></trkpt><trkpt lat="43.90772812562155" lon="11.282352944942392"><ele>282.3333333333333</ele><time>2026-04-11T08:55:16.005Z</time></trkpt><trkpt lat="43.90792433655507" lon="11.282336941575721"><ele>282.66666666666663</ele><time>2026-04-11T08:55:17.005Z</time></trkpt><trkpt lat="43.90812265780461" lon="11.282321889895794"><ele>283.0</ele><time>2026-04-11T08:55:18.005Z</time></trkpt><trkpt lat="43.90831845401145" lon="11.282304965281215"><ele>282.66666666666663</ele><time>2026-04-11T08:55:19.005Z</time></trkpt><trkpt lat="43.908511375315975" lon="11.282287492553577"><ele>282.3333333333333</ele><time>2026-04-11T08:55:20.005Z</time></trkpt><trkpt lat="43.90870804064473" lon="11.282262944373754"><ele>282.0</ele><time>2026-04-11T08:55:21.005Z</time></trkpt><trkpt lat="43.908914829968985" lon="11.28225328863258"><ele>280.3333333333333</ele><time>2026-04-11T08:55:22.005Z</time></trkpt><trkpt lat="43.90911669859109" lon="11.282228918919945"><ele>278.66666666666663</ele><time>2026-04-11T08:55:23.005Z</time></trkpt><trkpt lat="43.909319924744565" lon="11.282194954686245"><ele>277.0</ele><time>2026-04-11T08:55:24.005Z</time></trkpt><trkpt lat="43.909520920025045" lon="11.282139492486598"><ele>277.0</ele><time>2026-04-11T08:55:25.005Z</time></trkpt><trkpt lat="43.90971809513371" lon="11.282072667833221"><ele>277.0</ele><time>2026-04-11T08:55:26.005Z</time></trkpt><trkpt lat="43.90991835435603" lon="11.28199818565378"><ele>277.0</ele><time>2026-04-11T08:55:27.005Z</time></trkpt><trkpt lat="43.91011918999619" lon="11.281926152822255"><ele>276.66666666666663</ele><time>2026-04-11T08:55:28.005Z</time></trkpt><trkpt lat="43.91031968935353" lon="11.28187115666146"><ele>276.3333333333333</ele><time>2026-04-11T08:55:29.005Z</time></trkpt><trkpt lat="43.910524261256555" lon="11.281836219066667"><ele>276.0</ele><time>2026-04-11T08:55:30.005Z</time></trkpt><trkpt lat="43.91072390807522" lon="11.281819484473095"><ele>275.3333333333333</ele><time>2026-04-11T08:55:31.005Z</time></trkpt><trkpt lat="43.91092608107135" lon="11.281847540682712"><ele>274.66666666666663</ele><time>2026-04-11T08:55:32.005Z</time></trkpt><trkpt lat="43.911117057204116" lon="11.281945148348873"><ele>274.0</ele><time>2026-04-11T08:55:33.005Z</time></trkpt><trkpt lat="43.9112940278638" lon="11.28206291946279"><ele>274.0</ele><time>2026-04-11T08:55:34.005Z</time></trkpt><trkpt lat="43.911453559082744" lon="11.282211978788007"><ele>274.0</ele><time>2026-04-11T08:55:35.005Z</time></trkpt><trkpt lat="43.91159801012916" lon="11.282394973212167"><ele>274.0</ele><time>2026-04-11T08:55:36.005Z</time></trkpt><trkpt lat="43.91172916744034" lon="11.282611982976247"><ele>275.0</ele><time>2026-04-11T08:55:37.005Z</time></trkpt><trkpt lat="43.911855800112136" lon="11.282801783706232"><ele>276.0</ele><time>2026-04-11T08:55:38.005Z</time></trkpt><trkpt lat="43.91197035874123" lon="11.282991470486184"><ele>277.0</ele><time>2026-04-11T08:55:39.005Z</time></trkpt><trkpt lat="43.91210675677153" lon="11.28315798801424"><ele>276.3333333333333</ele><time>2026-04-11T08:55:40.005Z</time></trkpt><trkpt lat="43.91226202006333" lon="11.283300422383725"><ele>275.6666666666667</ele><time>2026-04-11T08:55:41.005Z</time></trkpt><trkpt lat="43.912431923551786" lon="11.28342040834814"><ele>275.0</ele><time>2026-04-11T08:55:42.005Z</time></trkpt><trkpt lat="43.91260896114128" lon="11.283527532460145"><ele>275.0</ele><time>2026-04-11T08:55:43.005Z</time></trkpt><trkpt lat="43.91278565492959" lon="11.283630729836885"><ele>275.0</ele><time>2026-04-11T08:55:44.005Z</time></trkpt><trkpt lat="43.9129638807999" lon="11.283736674542146"><ele>275.0</ele><time>2026-04-11T08:55:45.005Z</time></trkpt><trkpt lat="43.913138281628335" lon="11.283850050212703"><ele>276.33333333333337</ele><time>2026-04-11T08:55:46.005Z</time></trkpt><trkpt lat="43.91331445799499" lon="11.283950724553026"><ele>277.6666666666667</ele><time>2026-04-11T08:55:47.005Z</time></trkpt><trkpt lat="43.913497998045464" lon="11.284044247473636"><ele>279.0</ele><time>2026-04-11T08:55:48.005Z</time></trkpt><trkpt lat="43.913689222014135" lon="11.284113415864782"><ele>279.0</ele><time>2026-04-11T08:55:49.005Z</time></trkpt><trkpt lat="43.913888567649096" lon="11.284149158270111"><ele>279.0</ele><time>2026-04-11T08:55:50.005Z</time></trkpt><trkpt lat="43.914080899309766" lon="11.284158839795735"><ele>279.0</ele><time>2026-04-11T08:55:51.005Z</time></trkpt><trkpt lat="43.91427563824054" lon="11.284139043213578"><ele>277.6666666666667</ele><time>2026-04-11T08:55:52.005Z</time></trkpt><trkpt lat="43.914465954487575" lon="11.284098062549043"><ele>276.33333333333337</ele><time>2026-04-11T08:55:53.005Z</time></trkpt><trkpt lat="43.91464697298582" lon="11.284019951012391"><ele>275.0</ele><time>2026-04-11T08:55:54.005Z</time></trkpt><trkpt lat="43.91482314605222" lon="11.283913771717986"><ele>273.0</ele><time>2026-04-11T08:55:55.005Z</time></trkpt><trkpt lat="43.9149909502097" lon="11.283787758049732"><ele>271.0</ele><time>2026-04-11T08:55:56.005Z</time></trkpt><trkpt lat="43.915149623107496" lon="11.283661161937175"><ele>269.0</ele><time>2026-04-11T08:55:57.005Z</time></trkpt><trkpt lat="43.91530103128252" lon="11.28354386515621"><ele>269.0</ele><time>2026-04-11T08:55:58.005Z</time></trkpt><trkpt lat="43.915445717094116" lon="11.283432111185462"><ele>269.0</ele><time>2026-04-11T08:55:59.005Z</time></trkpt><trkpt lat="43.915578473028525" lon="11.283327244193401"><ele>269.0</ele><time>2026-04-11T08:56:00.005Z</time></trkpt><trkpt lat="43.9157022322443" lon="11.283236513145328"><ele>269.0</ele><time>2026-04-11T08:56:01.005Z</time></trkpt><trkpt lat="43.91581884120777" lon="11.283161088191871"><ele>269.0</ele><time>2026-04-11T08:56:02.005Z</time></trkpt><trkpt lat="43.91592649483974" lon="11.283092032475892"><ele>269.0</ele><time>2026-04-11T08:56:03.005Z</time></trkpt><trkpt lat="43.91602198011061" lon="11.283038864306157"><ele>269.0</ele><time>2026-04-11T08:56:04.005Z</time></trkpt><trkpt lat="43.91610463161179" lon="11.282997317427839"><ele>269.0</ele><time>2026-04-11T08:56:05.005Z</time></trkpt><trkpt lat="43.91617732965604" lon="11.282975239060887"><ele>275.75</ele><time>2026-04-11T08:56:06.005Z</time></trkpt><trkpt lat="43.91624469608927" lon="11.282978772621966"><ele>282.5</ele><time>2026-04-11T08:56:07.005Z</time></trkpt><trkpt lat="43.91635284462741" lon="11.28295812945337"><ele>289.25</ele><time>2026-04-11T08:56:09.005Z</time></trkpt><trkpt lat="43.91634195185225" lon="11.282745680581224"><ele>296.0</ele><time>2026-04-11T08:56:12.005Z</time></trkpt><trkpt lat="43.91624962076369" lon="11.282616299606946"><ele>296.0</ele><time>2026-04-11T08:56:14.005Z</time></trkpt><trkpt lat="43.9161718507904" lon="11.282608918749991"><ele>296.0</ele><time>2026-04-11T08:56:15.005Z</time></trkpt><trkpt lat="43.91608030793775" lon="11.282632941463888"><ele>296.0</ele><time>2026-04-11T08:56:16.005Z</time></trkpt><trkpt lat="43.91598150693208" lon="11.282692580367213"><ele>296.0</ele><time>2026-04-11T08:56:17.005Z</time></trkpt><trkpt lat="43.91588194441432" lon="11.282768555937478"><ele>296.0</ele><time>2026-04-11T08:56:18.005Z</time></trkpt><trkpt lat="43.91577660643708" lon="11.28283854102834"><ele>291.75</ele><time>2026-04-11T08:56:19.005Z</time></trkpt><trkpt lat="43.91565989407917" lon="11.282896208961297"><ele>287.5</ele><time>2026-04-11T08:56:20.005Z</time></trkpt><trkpt lat="43.91553447571715" lon="11.28293281194785"><ele>283.25</ele><time>2026-04-11T08:56:21.005Z</time></trkpt><trkpt lat="43.91539792811801" lon="11.282944402700966"><ele>279.0</ele><time>2026-04-11T08:56:22.005Z</time></trkpt><trkpt lat="43.91524480776482" lon="11.28294399710075"><ele>279.0</ele><time>2026-04-11T08:56:23.005Z</time></trkpt><trkpt lat="43.91508921821505" lon="11.282957942748343"><ele>279.0</ele><time>2026-04-11T08:56:24.005Z</time></trkpt><trkpt lat="43.91493373960563" lon="11.282962658697814"><ele>279.0</ele><time>2026-04-11T08:56:25.005Z</time></trkpt><trkpt lat="43.91477874782094" lon="11.28296119776751"><ele>278.3333333333333</ele><time>2026-04-11T08:56:26.005Z</time></trkpt><trkpt lat="43.914628142133324" lon="11.282953594390412"><ele>277.66666666666663</ele><time>2026-04-11T08:56:27.005Z</time></trkpt><trkpt lat="43.914467763292535" lon="11.282922509698547"><ele>277.0</ele><time>2026-04-11T08:56:28.005Z</time></trkpt><trkpt lat="43.91430827352234" lon="11.282886399100416"><ele>277.0</ele><time>2026-04-11T08:56:29.005Z</time></trkpt><trkpt lat="43.91416156820619" lon="11.282847885414258"><ele>277.0</ele><time>2026-04-11T08:56:30.005Z</time></trkpt><trkpt lat="43.91401294698669" lon="11.282807095390366"><ele>277.0</ele><time>2026-04-11T08:56:31.005Z</time></trkpt><trkpt lat="43.913867910642765" lon="11.28277907894071"><ele>277.0</ele><time>2026-04-11T08:56:32.005Z</time></trkpt><trkpt lat="43.91371460035479" lon="11.282751295884038"><ele>277.0</ele><time>2026-04-11T08:56:33.005Z</time></trkpt><trkpt lat="43.9135685795787" lon="11.28273098495405"><ele>277.0</ele><time>2026-04-11T08:56:34.005Z</time></trkpt><trkpt lat="43.91342569007537" lon="11.282698804923893"><ele>277.0</ele><time>2026-04-11T08:56:35.005Z</time></trkpt><trkpt lat="43.91329360177458" lon="11.282657015252493"><ele>277.0</ele><time>2026-04-11T08:56:36.005Z</time></trkpt><trkpt lat="43.91316465645179" lon="11.282607159082648"><ele>277.0</ele><time>2026-04-11T08:56:37.005Z</time></trkpt><trkpt lat="43.913038228046545" lon="11.282554095448736"><ele>277.0</ele><time>2026-04-11T08:56:38.005Z</time></trkpt><trkpt lat="43.91291789287062" lon="11.282493267322499"><ele>277.0</ele><time>2026-04-11T08:56:39.005Z</time></trkpt><trkpt lat="43.91280883631856" lon="11.282400310304515"><ele>277.0</ele><time>2026-04-11T08:56:40.005Z</time></trkpt><trkpt lat="43.912702706104014" lon="11.282272433786549"><ele>277.75</ele><time>2026-04-11T08:56:41.005Z</time></trkpt><trkpt lat="43.91262077805117" lon="11.282114764747922"><ele>278.5</ele><time>2026-04-11T08:56:42.005Z</time></trkpt><trkpt lat="43.91252292577124" lon="11.281953879886974"><ele>279.25</ele><time>2026-04-11T08:56:43.005Z</time></trkpt><trkpt lat="43.912438135783496" lon="11.281775926073278"><ele>280.0</ele><time>2026-04-11T08:56:44.005Z</time></trkpt><trkpt lat="43.91235875891861" lon="11.281609333914867"><ele>280.0</ele><time>2026-04-11T08:56:45.005Z</time></trkpt><trkpt lat="43.91229815453774" lon="11.28144683149203"><ele>280.0</ele><time>2026-04-11T08:56:46.005Z</time></trkpt><trkpt lat="43.91221835926375" lon="11.281300770714102"><ele>280.0</ele><time>2026-04-11T08:56:47.005Z</time></trkpt><trkpt lat="43.91214569849462" lon="11.281147738859001"><ele>280.0</ele><time>2026-04-11T08:56:48.005Z</time></trkpt><trkpt lat="43.91207585389266" lon="11.28100101453369"><ele>281.0</ele><time>2026-04-11T08:56:49.005Z</time></trkpt><trkpt lat="43.91201515808967" lon="11.280863749792655"><ele>282.0</ele><time>2026-04-11T08:56:50.005Z</time></trkpt><trkpt lat="43.911932782271144" lon="11.280753879543298"><ele>283.0</ele><time>2026-04-11T08:56:51.005Z</time></trkpt><trkpt lat="43.91184530516602" lon="11.280654608977066"><ele>284.0</ele><time>2026-04-11T08:56:52.005Z</time></trkpt><trkpt lat="43.91173595514929" lon="11.280583393062999"><ele>284.4</ele><time>2026-04-11T08:56:53.005Z</time></trkpt><trkpt lat="43.9116263678923" lon="11.280512174908816"><ele>284.79999999999995</ele><time>2026-04-11T08:56:54.005Z</time></trkpt><trkpt lat="43.911531589857624" lon="11.280453755866757"><ele>285.20000000000005</ele><time>2026-04-11T08:56:55.005Z</time></trkpt><trkpt lat="43.911438049236004" lon="11.280401051257037"><ele>285.6</ele><time>2026-04-11T08:56:56.005Z</time></trkpt><trkpt lat="43.91135487178786" lon="11.280351540512237"><ele>286.0</ele><time>2026-04-11T08:56:57.005Z</time></trkpt><trkpt lat="43.91127521749331" lon="11.280309520456058"><ele>286.0</ele><time>2026-04-11T08:56:58.005Z</time></trkpt><trkpt lat="43.911203177474476" lon="11.280267187967786"><ele>286.0</ele><time>2026-04-11T08:56:59.005Z</time></trkpt><trkpt lat="43.91113572747785" lon="11.28022658800817"><ele>286.0</ele><time>2026-04-11T08:57:00.005Z</time></trkpt><trkpt lat="43.91106854769421" lon="11.280184216008019"><ele>286.0</ele><time>2026-04-11T08:57:01.005Z</time></trkpt><trkpt lat="43.911001637522276" lon="11.280144952321141"><ele>286.0</ele><time>2026-04-11T08:57:02.005Z</time></trkpt><trkpt lat="43.910894694523705" lon="11.280078590872387"><ele>286.0</ele><time>2026-04-11T08:57:04.005Z</time></trkpt><trkpt lat="43.91083275506429" lon="11.280024913203839"><ele>286.0</ele><time>2026-04-11T08:57:06.005Z</time></trkpt><trkpt lat="43.91090259286504" lon="11.27998299151509"><ele>286.0</ele><time>2026-04-11T08:57:08.005Z</time></trkpt><trkpt lat="43.91097124384962" lon="11.279975544185115"><ele>286.0</ele><time>2026-04-11T08:57:09.005Z</time></trkpt><trkpt lat="43.91104837937514" lon="11.279958879304164"><ele>286.0</ele><time>2026-04-11T08:57:10.006Z</time></trkpt><trkpt lat="43.911119521513584" lon="11.27992543344007"><ele>286.0</ele><time>2026-04-11T08:57:11.006Z</time></trkpt><trkpt lat="43.911179188815154" lon="11.27985588050072"><ele>286.0</ele><time>2026-04-11T08:57:12.006Z</time></trkpt><trkpt lat="43.91121438367141" lon="11.27967364249617"><ele>288.5</ele><time>2026-04-11T08:57:13.006Z</time></trkpt><trkpt lat="43.91129123281706" lon="11.279500056306656"><ele>291.0</ele><time>2026-04-11T08:57:14.006Z</time></trkpt><trkpt lat="43.91135872663707" lon="11.279314980257027"><ele>293.5</ele><time>2026-04-11T08:57:15.006Z</time></trkpt><trkpt lat="43.91140850991397" lon="11.279178468691118"><ele>296.0</ele><time>2026-04-11T08:57:16.006Z</time></trkpt><trkpt lat="43.91144670201134" lon="11.27906577582466"><ele>296.0</ele><time>2026-04-11T08:57:17.006Z</time></trkpt><trkpt lat="43.91148214522463" lon="11.27894460809493"><ele>296.0</ele><time>2026-04-11T08:57:18.006Z</time></trkpt><trkpt lat="43.91151950672673" lon="11.278834664516149"><ele>296.0</ele><time>2026-04-11T08:57:19.006Z</time></trkpt><trkpt lat="43.91153048452671" lon="11.27873910737435"><ele>296.0</ele><time>2026-04-11T08:57:20.006Z</time></trkpt><trkpt lat="43.91150034738924" lon="11.278640913728085"><ele>296.0</ele><time>2026-04-11T08:57:21.006Z</time></trkpt><trkpt lat="43.911437864690846" lon="11.27852425437847"><ele>296.0</ele><time>2026-04-11T08:57:22.006Z</time></trkpt><trkpt lat="43.91137194837505" lon="11.278397778935398"><ele>297.6</ele><time>2026-04-11T08:57:23.006Z</time></trkpt><trkpt lat="43.91130997211638" lon="11.27827470693716"><ele>299.20000000000005</ele><time>2026-04-11T08:57:24.006Z</time></trkpt><trkpt lat="43.911253579408154" lon="11.278156359484592"><ele>300.79999999999995</ele><time>2026-04-11T08:57:25.006Z</time></trkpt><trkpt lat="43.91118840685692" lon="11.27802523899137"><ele>302.4</ele><time>2026-04-11T08:57:26.006Z</time></trkpt><trkpt lat="43.91113581219085" lon="11.277887524605752"><ele>304.0</ele><time>2026-04-11T08:57:27.006Z</time></trkpt><trkpt lat="43.911087874565155" lon="11.277759091781533"><ele>305.59999999999997</ele><time>2026-04-11T08:57:28.006Z</time></trkpt><trkpt lat="43.91103681174386" lon="11.277624515801016"><ele>307.2</ele><time>2026-04-11T08:57:29.006Z</time></trkpt><trkpt lat="43.910985038223544" lon="11.27749716814447"><ele>308.79999999999995</ele><time>2026-04-11T08:57:30.006Z</time></trkpt><trkpt lat="43.91093305394059" lon="11.277368159699286"><ele>310.4</ele><time>2026-04-11T08:57:31.006Z</time></trkpt><trkpt lat="43.91087628542646" lon="11.27725158875434"><ele>312.0</ele><time>2026-04-11T08:57:32.006Z</time></trkpt><trkpt lat="43.91082148969063" lon="11.277144882868914"><ele>314.4</ele><time>2026-04-11T08:57:33.006Z</time></trkpt><trkpt lat="43.91075314283343" lon="11.277061899032343"><ele>316.79999999999995</ele><time>2026-04-11T08:57:34.006Z</time></trkpt><trkpt lat="43.91068288130711" lon="11.276983477713532"><ele>319.2</ele><time>2026-04-11T08:57:35.006Z</time></trkpt><trkpt lat="43.91060243221888" lon="11.276899218364447"><ele>321.59999999999997</ele><time>2026-04-11T08:57:36.006Z</time></trkpt><trkpt lat="43.91052910981349" lon="11.276824386607345"><ele>324.0</ele><time>2026-04-11T08:57:37.006Z</time></trkpt><trkpt lat="43.910446343101206" lon="11.276732601662848"><ele>324.0</ele><time>2026-04-11T08:57:38.006Z</time></trkpt><trkpt lat="43.91038813250689" lon="11.276661336503693"><ele>324.0</ele><time>2026-04-11T08:57:39.006Z</time></trkpt><trkpt lat="43.91030402591198" lon="11.276566002105298"><ele>324.0</ele><time>2026-04-11T08:57:40.006Z</time></trkpt><trkpt lat="43.91023756500895" lon="11.276454028887548"><ele>324.0</ele><time>2026-04-11T08:57:41.006Z</time></trkpt><trkpt lat="43.91022973669653" lon="11.27629851421237"><ele>324.0</ele><time>2026-04-11T08:57:42.006Z</time></trkpt><trkpt lat="43.910217370001426" lon="11.276144285879122"><ele>326.75</ele><time>2026-04-11T08:57:43.006Z</time></trkpt><trkpt lat="43.91020415313044" lon="11.275971034019706"><ele>329.5</ele><time>2026-04-11T08:57:44.006Z</time></trkpt><trkpt lat="43.910194106894465" lon="11.275801545146084"><ele>332.25</ele><time>2026-04-11T08:57:45.006Z</time></trkpt><trkpt lat="43.91018734196559" lon="11.275644880980554"><ele>335.0</ele><time>2026-04-11T08:57:46.006Z</time></trkpt><trkpt lat="43.91019778350717" lon="11.27551453244779"><ele>337.8</ele><time>2026-04-11T08:57:47.006Z</time></trkpt><trkpt lat="43.910233361488885" lon="11.275397178247397"><ele>340.6</ele><time>2026-04-11T08:57:48.006Z</time></trkpt><trkpt lat="43.91028318796372" lon="11.275311971745232"><ele>343.4</ele><time>2026-04-11T08:57:49.006Z</time></trkpt><trkpt lat="43.91036318653466" lon="11.275257789685808"><ele>346.2</ele><time>2026-04-11T08:57:50.006Z</time></trkpt><trkpt lat="43.9104555486404" lon="11.275258533070708"><ele>349.0</ele><time>2026-04-11T08:57:51.006Z</time></trkpt><trkpt lat="43.91055909056559" lon="11.275245372853066"><ele>349.0</ele><time>2026-04-11T08:57:52.006Z</time></trkpt><trkpt lat="43.9106746205772" lon="11.275229689307096"><ele>349.0</ele><time>2026-04-11T08:57:53.006Z</time></trkpt><trkpt lat="43.910781738070185" lon="11.275215147774908"><ele>349.0</ele><time>2026-04-11T08:57:54.006Z</time></trkpt><trkpt lat="43.9108919081547" lon="11.275189668232501"><ele>349.0</ele><time>2026-04-11T08:57:55.006Z</time></trkpt><trkpt lat="43.911010045348036" lon="11.275168064186866"><ele>351.25</ele><time>2026-04-11T08:57:56.006Z</time></trkpt><trkpt lat="43.91113807170326" lon="11.275139974681169"><ele>353.5</ele><time>2026-04-11T08:57:57.006Z</time></trkpt><trkpt lat="43.91125968639136" lon="11.275134003294292"><ele>355.75</ele><time>2026-04-11T08:57:58.006Z</time></trkpt><trkpt lat="43.91137479927388" lon="11.27512871825445"><ele>358.0</ele><time>2026-04-11T08:57:59.006Z</time></trkpt><trkpt lat="43.911461101908465" lon="11.275149444868854"><ele>358.0</ele><time>2026-04-11T08:58:00.006Z</time></trkpt><trkpt lat="43.911545900501125" lon="11.275176515407507"><ele>358.0</ele><time>2026-04-11T08:58:01.006Z</time></trkpt><trkpt lat="43.911621509842966" lon="11.275195481964307"><ele>358.0</ele><time>2026-04-11T08:58:02.006Z</time></trkpt><trkpt lat="43.9117299624849" lon="11.275234716738733"><ele>358.0</ele><time>2026-04-11T08:58:04.006Z</time></trkpt><trkpt lat="43.91179502006529" lon="11.275240887456967"><ele>358.0</ele><time>2026-04-11T08:58:05.006Z</time></trkpt><trkpt lat="43.91187006741069" lon="11.275234091995525"><ele>358.0</ele><time>2026-04-11T08:58:06.006Z</time></trkpt><trkpt lat="43.911951775057595" lon="11.27524211030168"><ele>359.0</ele><time>2026-04-11T08:58:07.006Z</time></trkpt><trkpt lat="43.91204236665476" lon="11.275225105660342"><ele>360.0</ele><time>2026-04-11T08:58:08.006Z</time></trkpt><trkpt lat="43.9121287799136" lon="11.275219753059712"><ele>361.0</ele><time>2026-04-11T08:58:09.006Z</time></trkpt><trkpt lat="43.91221290996004" lon="11.275210093980355"><ele>362.0</ele><time>2026-04-11T08:58:10.006Z</time></trkpt><trkpt lat="43.9122774334751" lon="11.275180086065351"><ele>363.0</ele><time>2026-04-11T08:58:11.006Z</time></trkpt><trkpt lat="43.912346690974864" lon="11.27515547437299"><ele>364.0</ele><time>2026-04-11T08:58:12.006Z</time></trkpt><trkpt lat="43.91239703735351" lon="11.27507649048892"><ele>364.0</ele><time>2026-04-11T08:58:13.006Z</time></trkpt><trkpt lat="43.91238943810202" lon="11.274874410187023"><ele>364.0</ele><time>2026-04-11T08:58:15.006Z</time></trkpt><trkpt lat="43.912377371447825" lon="11.274728646297573"><ele>364.0</ele><time>2026-04-11T08:58:16.006Z</time></trkpt><trkpt lat="43.912350634965335" lon="11.274590108820824"><ele>364.0</ele><time>2026-04-11T08:58:17.006Z</time></trkpt><trkpt lat="43.91234673821135" lon="11.274441697848218"><ele>365.0</ele><time>2026-04-11T08:58:18.006Z</time></trkpt><trkpt lat="43.91234773693313" lon="11.274295906209758"><ele>366.0</ele><time>2026-04-11T08:58:19.006Z</time></trkpt><trkpt lat="43.91234831070009" lon="11.274147869612735"><ele>367.0</ele><time>2026-04-11T08:58:20.006Z</time></trkpt><trkpt lat="43.91234106998395" lon="11.274023147761243"><ele>368.0</ele><time>2026-04-11T08:58:21.006Z</time></trkpt><trkpt lat="43.91231503754541" lon="11.273916200063686"><ele>369.0</ele><time>2026-04-11T08:58:22.006Z</time></trkpt><trkpt lat="43.91229150813404" lon="11.273818226012969"><ele>370.6</ele><time>2026-04-11T08:58:23.006Z</time></trkpt><trkpt lat="43.91223533980662" lon="11.273748052328903"><ele>372.2</ele><time>2026-04-11T08:58:24.006Z</time></trkpt><trkpt lat="43.91215031023304" lon="11.27366639134617"><ele>373.8</ele><time>2026-04-11T08:58:25.006Z</time></trkpt><trkpt lat="43.91205533721711" lon="11.273583995839106"><ele>375.40000000000003</ele><time>2026-04-11T08:58:26.006Z</time></trkpt><trkpt lat="43.91197693823168" lon="11.27351258706192"><ele>377.0</ele><time>2026-04-11T08:58:27.006Z</time></trkpt><trkpt lat="43.911895390381574" lon="11.273426998477877"><ele>377.0</ele><time>2026-04-11T08:58:28.006Z</time></trkpt><trkpt lat="43.91182349595138" lon="11.273343345758226"><ele>377.0</ele><time>2026-04-11T08:58:29.006Z</time></trkpt><trkpt lat="43.911745032117175" lon="11.27323791716265"><ele>377.0</ele><time>2026-04-11T08:58:30.006Z</time></trkpt><trkpt lat="43.91166524251502" lon="11.273106165842503"><ele>377.0</ele><time>2026-04-11T08:58:31.006Z</time></trkpt><trkpt lat="43.9115877747461" lon="11.27295937676831"><ele>379.25</ele><time>2026-04-11T08:58:32.006Z</time></trkpt><trkpt lat="43.91154330926694" lon="11.272793058439039"><ele>381.5</ele><time>2026-04-11T08:58:33.006Z</time></trkpt><trkpt lat="43.91148216057544" lon="11.272630360794707"><ele>383.75</ele><time>2026-04-11T08:58:34.006Z</time></trkpt><trkpt lat="43.911413766068556" lon="11.272467382314792"><ele>386.0</ele><time>2026-04-11T08:58:35.006Z</time></trkpt><trkpt lat="43.91136047541042" lon="11.272347809045977"><ele>389.0</ele><time>2026-04-11T08:58:36.006Z</time></trkpt><trkpt lat="43.91131676174205" lon="11.27225086304692"><ele>392.0</ele><time>2026-04-11T08:58:37.006Z</time></trkpt><trkpt lat="43.91129538468263" lon="11.27215229053934"><ele>395.0</ele><time>2026-04-11T08:58:38.006Z</time></trkpt><trkpt lat="43.91135595960386" lon="11.271956078951867"><ele>398.0</ele><time>2026-04-11T08:58:40.006Z</time></trkpt><trkpt lat="43.91143425487288" lon="11.271873386018644"><ele>401.0</ele><time>2026-04-11T08:58:41.006Z</time></trkpt><trkpt lat="43.91150189507847" lon="11.271775861163889"><ele>401.0</ele><time>2026-04-11T08:58:42.006Z</time></trkpt><trkpt lat="43.91157368825457" lon="11.271652842749448"><ele>401.0</ele><time>2026-04-11T08:58:43.006Z</time></trkpt><trkpt lat="43.91163401831469" lon="11.271528273603517"><ele>401.0</ele><time>2026-04-11T08:58:44.006Z</time></trkpt><trkpt lat="43.91170395274545" lon="11.27139807906103"><ele>401.0</ele><time>2026-04-11T08:58:45.006Z</time></trkpt><trkpt lat="43.91176280977981" lon="11.271270702110993"><ele>401.0</ele><time>2026-04-11T08:58:46.006Z</time></trkpt><trkpt lat="43.91184951448472" lon="11.271161908682505"><ele>401.4</ele><time>2026-04-11T08:58:47.006Z</time></trkpt><trkpt lat="43.91192524483043" lon="11.27106006379081"><ele>401.8</ele><time>2026-04-11T08:58:48.006Z</time></trkpt><trkpt lat="43.911993022447234" lon="11.270952897166866"><ele>402.2</ele><time>2026-04-11T08:58:49.006Z</time></trkpt><trkpt lat="43.912058872545884" lon="11.270860412902634"><ele>402.59999999999997</ele><time>2026-04-11T08:58:50.006Z</time></trkpt><trkpt lat="43.91212326468875" lon="11.270762186390249"><ele>403.0</ele><time>2026-04-11T08:58:51.006Z</time></trkpt><trkpt lat="43.91218435449003" lon="11.270664319355488"><ele>407.59999999999997</ele><time>2026-04-11T08:58:52.006Z</time></trkpt><trkpt lat="43.91224536479407" lon="11.270570008578114"><ele>412.2</ele><time>2026-04-11T08:58:53.006Z</time></trkpt><trkpt lat="43.91232380166101" lon="11.270504570306448"><ele>416.8</ele><time>2026-04-11T08:58:54.006Z</time></trkpt><trkpt lat="43.912400744852306" lon="11.270432629986265"><ele>421.4</ele><time>2026-04-11T08:58:55.006Z</time></trkpt><trkpt lat="43.91247821383563" lon="11.27037508418272"><ele>426.0</ele><time>2026-04-11T08:58:56.006Z</time></trkpt><trkpt lat="43.91256385723509" lon="11.270309328131312"><ele>426.0</ele><time>2026-04-11T08:58:57.006Z</time></trkpt><trkpt lat="43.912653284296205" lon="11.270224637540231"><ele>426.0</ele><time>2026-04-11T08:58:58.006Z</time></trkpt><trkpt lat="43.912743865822186" lon="11.270162226164581"><ele>426.0</ele><time>2026-04-11T08:58:59.006Z</time></trkpt><trkpt lat="43.91284024617608" lon="11.270100352316087"><ele>426.0</ele><time>2026-04-11T08:59:00.006Z</time></trkpt><trkpt lat="43.912934597975706" lon="11.270036015161507"><ele>426.0</ele><time>2026-04-11T08:59:01.006Z</time></trkpt><trkpt lat="43.913034542581414" lon="11.269967003924734"><ele>426.0</ele><time>2026-04-11T08:59:02.006Z</time></trkpt><trkpt lat="43.91311594584871" lon="11.269909642120611"><ele>426.0</ele><time>2026-04-11T08:59:03.006Z</time></trkpt><trkpt lat="43.913180012714285" lon="11.269842509223082"><ele>426.0</ele><time>2026-04-11T08:59:04.006Z</time></trkpt><trkpt lat="43.913256475330144" lon="11.269802133193846"><ele>426.0</ele><time>2026-04-11T08:59:05.006Z</time></trkpt><trkpt lat="43.91333216678326" lon="11.269718923104936"><ele>426.0</ele><time>2026-04-11T08:59:06.006Z</time></trkpt><trkpt lat="43.91340104837046" lon="11.269631521021902"><ele>426.0</ele><time>2026-04-11T08:59:07.006Z</time></trkpt><trkpt lat="43.9134496368487" lon="11.26954069464964"><ele>428.3333333333333</ele><time>2026-04-11T08:59:08.006Z</time></trkpt><trkpt lat="43.91349639250863" lon="11.269440342993972"><ele>430.66666666666663</ele><time>2026-04-11T08:59:09.006Z</time></trkpt><trkpt lat="43.91351859250878" lon="11.26933750594805"><ele>433.0</ele><time>2026-04-11T08:59:10.006Z</time></trkpt><trkpt lat="43.913526549846964" lon="11.269224107052004"><ele>435.3333333333333</ele><time>2026-04-11T08:59:11.006Z</time></trkpt><trkpt lat="43.913512410617784" lon="11.269073883287701"><ele>437.66666666666663</ele><time>2026-04-11T08:59:13.006Z</time></trkpt><trkpt lat="43.91353303196031" lon="11.268976768876996"><ele>440.0</ele><time>2026-04-11T08:59:17.007Z</time></trkpt><trkpt lat="43.91362332599935" lon="11.268973094579437"><ele>439.99999999999994</ele><time>2026-04-11T08:59:18.007Z</time></trkpt><trkpt lat="43.91369540226758" lon="11.268978522933777"><ele>440.0</ele><time>2026-04-11T08:59:20.007Z</time></trkpt><trkpt lat="43.913758954364454" lon="11.268989350556058"><ele>440.0</ele><time>2026-04-11T08:59:23.007Z</time></trkpt><trkpt lat="43.91387103358501" lon="11.268954237690034"><ele>440.0</ele><time>2026-04-11T08:59:54.007Z</time></trkpt><trkpt lat="43.91394874602229" lon="11.268963302000168"><ele>439.99999999999994</ele><time>2026-04-11T08:59:55.007Z</time></trkpt><trkpt lat="43.91404706427002" lon="11.268965062771594"><ele>440.0</ele><time>2026-04-11T08:59:56.007Z</time></trkpt><trkpt lat="43.914145452331034" lon="11.26898163363465"><ele>439.6</ele><time>2026-04-11T08:59:57.007Z</time></trkpt><trkpt lat="43.91423893566596" lon="11.268986434113847"><ele>439.2</ele><time>2026-04-11T08:59:58.007Z</time></trkpt><trkpt lat="43.914328926424105" lon="11.268977727313969"><ele>438.79999999999995</ele><time>2026-04-11T08:59:59.007Z</time></trkpt><trkpt lat="43.914434678196784" lon="11.268999000491563"><ele>438.4</ele><time>2026-04-11T09:00:00.007Z</time></trkpt><trkpt lat="43.914526674353745" lon="11.26899845896389"><ele>438.0</ele><time>2026-04-11T09:00:01.007Z</time></trkpt><trkpt lat="43.914637526522796" lon="11.269016729573464"><ele>438.0</ele><time>2026-04-11T09:00:02.007Z</time></trkpt><trkpt lat="43.914754102771354" lon="11.268992325740276"><ele>437.99999999999994</ele><time>2026-04-11T09:00:03.007Z</time></trkpt><trkpt lat="43.91486016223368" lon="11.268939018000717"><ele>437.99999999999994</ele><time>2026-04-11T09:00:04.007Z</time></trkpt><trkpt lat="43.914962391465586" lon="11.268900717416969"><ele>438.0</ele><time>2026-04-11T09:00:05.007Z</time></trkpt><trkpt lat="43.91506177114982" lon="11.268873536455999"><ele>438.0</ele><time>2026-04-11T09:00:06.007Z</time></trkpt><trkpt lat="43.9151577371275" lon="11.268867319092726"><ele>437.79999999999995</ele><time>2026-04-11T09:00:07.007Z</time></trkpt><trkpt lat="43.915251236634475" lon="11.268884474006668"><ele>437.59999999999997</ele><time>2026-04-11T09:00:08.007Z</time></trkpt><trkpt lat="43.91535038265535" lon="11.268949290079151"><ele>437.40000000000003</ele><time>2026-04-11T09:00:09.007Z</time></trkpt><trkpt lat="43.91545219619543" lon="11.269004967861015"><ele>437.20000000000005</ele><time>2026-04-11T09:00:10.007Z</time></trkpt><trkpt lat="43.91557061831845" lon="11.26906766996852"><ele>437.0</ele><time>2026-04-11T09:00:11.007Z</time></trkpt><trkpt lat="43.91568914023639" lon="11.26912138510513"><ele>437.0</ele><time>2026-04-11T09:00:12.007Z</time></trkpt><trkpt lat="43.915799531663346" lon="11.269151494172279"><ele>437.0</ele><time>2026-04-11T09:00:13.007Z</time></trkpt><trkpt lat="43.91592689508146" lon="11.269167590654178"><ele>437.0</ele><time>2026-04-11T09:00:14.007Z</time></trkpt><trkpt lat="43.91604268327014" lon="11.269197813301982"><ele>437.0</ele><time>2026-04-11T09:00:15.007Z</time></trkpt><trkpt lat="43.916193757429994" lon="11.26924963259025"><ele>440.0</ele><time>2026-04-11T09:00:16.007Z</time></trkpt><trkpt lat="43.91633266938275" lon="11.269302034121937"><ele>443.0</ele><time>2026-04-11T09:00:17.007Z</time></trkpt><trkpt lat="43.916454705705554" lon="11.26936624489497"><ele>446.0</ele><time>2026-04-11T09:00:18.007Z</time></trkpt><trkpt lat="43.91658171258435" lon="11.269398036067843"><ele>449.0</ele><time>2026-04-11T09:00:19.007Z</time></trkpt><trkpt lat="43.91669915916607" lon="11.269415921042183"><ele>451.0</ele><time>2026-04-11T09:00:20.007Z</time></trkpt><trkpt lat="43.916816548583924" lon="11.269420303976931"><ele>453.0</ele><time>2026-04-11T09:00:21.007Z</time></trkpt><trkpt lat="43.916921759060536" lon="11.269384430470591"><ele>455.0</ele><time>2026-04-11T09:00:22.007Z</time></trkpt><trkpt lat="43.91703143597197" lon="11.269369172662671"><ele>457.0</ele><time>2026-04-11T09:00:23.007Z</time></trkpt><trkpt lat="43.917145541003435" lon="11.26931651210437"><ele>457.0</ele><time>2026-04-11T09:00:24.007Z</time></trkpt><trkpt lat="43.917261217930886" lon="11.269229775875765"><ele>457.0</ele><time>2026-04-11T09:00:25.007Z</time></trkpt><trkpt lat="43.91739365336981" lon="11.269209259976076"><ele>457.0</ele><time>2026-04-11T09:00:26.007Z</time></trkpt><trkpt lat="43.917538691722655" lon="11.269202304111252"><ele>457.0</ele><time>2026-04-11T09:00:27.007Z</time></trkpt><trkpt lat="43.91768741193417" lon="11.269195492094152"><ele>460.0</ele><time>2026-04-11T09:00:28.007Z</time></trkpt><trkpt lat="43.91784034801482" lon="11.269157331887529"><ele>463.0</ele><time>2026-04-11T09:00:29.007Z</time></trkpt><trkpt lat="43.917989588784884" lon="11.269178672038693"><ele>466.0</ele><time>2026-04-11T09:00:30.007Z</time></trkpt><trkpt lat="43.91810785361596" lon="11.269183844981534"><ele>469.0</ele><time>2026-04-11T09:00:31.007Z</time></trkpt><trkpt lat="43.91821348055053" lon="11.269244930433365"><ele>469.0</ele><time>2026-04-11T09:00:32.007Z</time></trkpt><trkpt lat="43.918325426074816" lon="11.269297284428882"><ele>469.0</ele><time>2026-04-11T09:00:33.007Z</time></trkpt><trkpt lat="43.91840846361342" lon="11.269320716025774"><ele>469.0</ele><time>2026-04-11T09:00:34.007Z</time></trkpt><trkpt lat="43.918491236209064" lon="11.269319590240698"><ele>469.0</ele><time>2026-04-11T09:00:35.007Z</time></trkpt><trkpt lat="43.91859502319292" lon="11.269327058896947"><ele>469.0</ele><time>2026-04-11T09:00:36.007Z</time></trkpt><trkpt lat="43.91869957026254" lon="11.269318184173006"><ele>469.6666666666667</ele><time>2026-04-11T09:00:37.007Z</time></trkpt><trkpt lat="43.918781182490484" lon="11.269301874067576"><ele>470.33333333333337</ele><time>2026-04-11T09:00:38.007Z</time></trkpt><trkpt lat="43.91887177829906" lon="11.269342248426764"><ele>471.0</ele><time>2026-04-11T09:00:40.007Z</time></trkpt><trkpt lat="43.91888035628539" lon="11.269438004882636"><ele>471.66666666666663</ele><time>2026-04-11T09:00:41.007Z</time></trkpt><trkpt lat="43.91887672627405" lon="11.269581548127"><ele>472.3333333333333</ele><time>2026-04-11T09:00:42.007Z</time></trkpt><trkpt lat="43.91889174890294" lon="11.269712413874132"><ele>473.0</ele><time>2026-04-11T09:00:43.007Z</time></trkpt><trkpt lat="43.9189237646856" lon="11.269841216678058"><ele>473.0</ele><time>2026-04-11T09:00:44.007Z</time></trkpt><trkpt lat="43.91899068530746" lon="11.269953064841047"><ele>472.99999999999994</ele><time>2026-04-11T09:00:45.007Z</time></trkpt><trkpt lat="43.919071611912536" lon="11.270060030784606"><ele>472.99999999999994</ele><time>2026-04-11T09:00:46.007Z</time></trkpt><trkpt lat="43.91911622906036" lon="11.270164747551563"><ele>473.0</ele><time>2026-04-11T09:00:47.007Z</time></trkpt><trkpt lat="43.91915972164134" lon="11.270295091916603"><ele>473.0</ele><time>2026-04-11T09:00:48.007Z</time></trkpt><trkpt lat="43.91921236730374" lon="11.27044175465593"><ele>475.75</ele><time>2026-04-11T09:00:49.007Z</time></trkpt><trkpt lat="43.91929347782902" lon="11.270590250435788"><ele>478.5</ele><time>2026-04-11T09:00:50.007Z</time></trkpt><trkpt lat="43.91936177360853" lon="11.270757261625647"><ele>481.25</ele><time>2026-04-11T09:00:51.007Z</time></trkpt><trkpt lat="43.91941324145119" lon="11.270914390746436"><ele>484.0</ele><time>2026-04-11T09:00:52.007Z</time></trkpt><trkpt lat="43.919485525126504" lon="11.271021751240315"><ele>484.0</ele><time>2026-04-11T09:00:53.007Z</time></trkpt><trkpt lat="43.919569021325316" lon="11.271078993975479"><ele>484.0</ele><time>2026-04-11T09:00:54.007Z</time></trkpt><trkpt lat="43.91965983624707" lon="11.271091187215974"><ele>484.0</ele><time>2026-04-11T09:00:55.007Z</time></trkpt><trkpt lat="43.91974653970399" lon="11.271093796585104"><ele>484.0</ele><time>2026-04-11T09:00:56.007Z</time></trkpt><trkpt lat="43.91985450783326" lon="11.271077582898595"><ele>484.0</ele><time>2026-04-11T09:00:57.007Z</time></trkpt><trkpt lat="43.91997483673476" lon="11.271030181674973"><ele>487.1666666666667</ele><time>2026-04-11T09:00:58.007Z</time></trkpt><trkpt lat="43.92008525432034" lon="11.270975677309265"><ele>490.33333333333337</ele><time>2026-04-11T09:00:59.007Z</time></trkpt><trkpt lat="43.920162795676816" lon="11.270945756729105"><ele>493.5</ele><time>2026-04-11T09:01:00.007Z</time></trkpt><trkpt lat="43.9202291652253" lon="11.270918347813684"><ele>496.66666666666663</ele><time>2026-04-11T09:01:01.007Z</time></trkpt><trkpt lat="43.92029318059743" lon="11.270961928554705"><ele>499.8333333333333</ele><time>2026-04-11T09:01:02.007Z</time></trkpt><trkpt lat="43.92036819066915" lon="11.271058682925885"><ele>503.0</ele><time>2026-04-11T09:01:03.007Z</time></trkpt><trkpt lat="43.92046455602417" lon="11.2711083742913"><ele>503.0</ele><time>2026-04-11T09:01:04.007Z</time></trkpt><trkpt lat="43.92056607698086" lon="11.27110472815282"><ele>502.99999999999994</ele><time>2026-04-11T09:01:05.007Z</time></trkpt><trkpt lat="43.92067226568157" lon="11.271119220733219"><ele>502.99999999999994</ele><time>2026-04-11T09:01:06.007Z</time></trkpt><trkpt lat="43.920783146077866" lon="11.271109430256832"><ele>503.0</ele><time>2026-04-11T09:01:07.007Z</time></trkpt><trkpt lat="43.92088272207326" lon="11.271131195196805"><ele>503.0</ele><time>2026-04-11T09:01:08.007Z</time></trkpt><trkpt lat="43.92098957035855" lon="11.271142404993924"><ele>505.0</ele><time>2026-04-11T09:01:09.007Z</time></trkpt><trkpt lat="43.92110430162658" lon="11.27115711719741"><ele>506.99999999999994</ele><time>2026-04-11T09:01:10.007Z</time></trkpt><trkpt lat="43.92120624371581" lon="11.271183680736897"><ele>508.99999999999994</ele><time>2026-04-11T09:01:11.007Z</time></trkpt><trkpt lat="43.92130960435013" lon="11.271230078852389"><ele>511.0</ele><time>2026-04-11T09:01:12.007Z</time></trkpt><trkpt lat="43.92141945313029" lon="11.27128241123694"><ele>513.0</ele><time>2026-04-11T09:01:13.007Z</time></trkpt><trkpt lat="43.921500965556476" lon="11.271333300811158"><ele>513.0</ele><time>2026-04-11T09:01:14.007Z</time></trkpt><trkpt lat="43.92157972794225" lon="11.271362476094911"><ele>513.0</ele><time>2026-04-11T09:01:15.007Z</time></trkpt><trkpt lat="43.921673907964916" lon="11.271385802680602"><ele>513.0</ele><time>2026-04-11T09:01:16.007Z</time></trkpt><trkpt lat="43.921744915289054" lon="11.27136637076632"><ele>513.0</ele><time>2026-04-11T09:01:17.007Z</time></trkpt><trkpt lat="43.92188876869351" lon="11.27129457930696"><ele>513.0</ele><time>2026-04-11T09:01:19.008Z</time></trkpt><trkpt lat="43.921994034136326" lon="11.271196346961105"><ele>512.1999999999999</ele><time>2026-04-11T09:01:20.008Z</time></trkpt><trkpt lat="43.9220837379477" lon="11.271113617542344"><ele>511.4</ele><time>2026-04-11T09:01:21.008Z</time></trkpt><trkpt lat="43.9221909605682" lon="11.271007278283664"><ele>510.59999999999997</ele><time>2026-04-11T09:01:22.008Z</time></trkpt><trkpt lat="43.92230834182181" lon="11.270969697327644"><ele>509.79999999999995</ele><time>2026-04-11T09:01:23.008Z</time></trkpt><trkpt lat="43.922371337528595" lon="11.270897378147184"><ele>509.0</ele><time>2026-04-11T09:01:24.008Z</time></trkpt><trkpt lat="43.922463239149835" lon="11.270843164241956"><ele>505.2</ele><time>2026-04-11T09:01:25.008Z</time></trkpt><trkpt lat="43.92258982192602" lon="11.270762343175315"><ele>501.4</ele><time>2026-04-11T09:01:27.008Z</time></trkpt><trkpt lat="43.922692487531926" lon="11.27069832624288"><ele>497.6</ele><time>2026-04-11T09:01:28.008Z</time></trkpt><trkpt lat="43.92280656996533" lon="11.270693909325637"><ele>493.8</ele><time>2026-04-11T09:01:29.008Z</time></trkpt><trkpt lat="43.92288337339216" lon="11.270701981339867"><ele>490.0</ele><time>2026-04-11T09:01:30.008Z</time></trkpt><trkpt lat="43.922974335395494" lon="11.270692187938034"><ele>490.0</ele><time>2026-04-11T09:01:31.008Z</time></trkpt><trkpt lat="43.923093047663215" lon="11.270710174652747"><ele>490.0</ele><time>2026-04-11T09:01:32.008Z</time></trkpt><trkpt lat="43.92319865372091" lon="11.270676211749894"><ele>490.0</ele><time>2026-04-11T09:01:33.008Z</time></trkpt><trkpt lat="43.92328624891622" lon="11.270632559644822"><ele>490.0</ele><time>2026-04-11T09:01:34.008Z</time></trkpt><trkpt lat="43.923380036852876" lon="11.270579133621583"><ele>490.0</ele><time>2026-04-11T09:01:35.008Z</time></trkpt><trkpt lat="43.92345494842796" lon="11.270511861858969"><ele>486.4</ele><time>2026-04-11T09:01:36.008Z</time></trkpt><trkpt lat="43.92351542536322" lon="11.270421124454614"><ele>482.8</ele><time>2026-04-11T09:01:37.008Z</time></trkpt><trkpt lat="43.923600260262994" lon="11.270343110801143"><ele>479.20000000000005</ele><time>2026-04-11T09:01:38.008Z</time></trkpt><trkpt lat="43.92367203915499" lon="11.27025207982807"><ele>475.6</ele><time>2026-04-11T09:01:39.008Z</time></trkpt><trkpt lat="43.92374480681241" lon="11.270151470081933"><ele>472.0</ele><time>2026-04-11T09:01:40.008Z</time></trkpt><trkpt lat="43.9238003569395" lon="11.270050986675585"><ele>472.0</ele><time>2026-04-11T09:01:41.008Z</time></trkpt><trkpt lat="43.92383754764236" lon="11.269941326779643"><ele>472.00000000000006</ele><time>2026-04-11T09:01:42.008Z</time></trkpt><trkpt lat="43.923852736631666" lon="11.269792345461587"><ele>472.00000000000006</ele><time>2026-04-11T09:01:43.008Z</time></trkpt><trkpt lat="43.92384022077766" lon="11.269647656632248"><ele>472.0</ele><time>2026-04-11T09:01:44.008Z</time></trkpt><trkpt lat="43.923824387935284" lon="11.269516223364095"><ele>472.0</ele><time>2026-04-11T09:01:45.008Z</time></trkpt><trkpt lat="43.923808841890235" lon="11.269383384935615"><ele>471.0</ele><time>2026-04-11T09:01:46.008Z</time></trkpt><trkpt lat="43.92379772257982" lon="11.269234947147323"><ele>470.00000000000006</ele><time>2026-04-11T09:01:47.008Z</time></trkpt><trkpt lat="43.92378996394622" lon="11.269092074365373"><ele>469.00000000000006</ele><time>2026-04-11T09:01:48.008Z</time></trkpt><trkpt lat="43.923782251375776" lon="11.268929283961102"><ele>468.0</ele><time>2026-04-11T09:01:49.008Z</time></trkpt><trkpt lat="43.923781913427234" lon="11.268791727908006"><ele>467.0</ele><time>2026-04-11T09:01:50.008Z</time></trkpt><trkpt lat="43.92374155036362" lon="11.268650242946343"><ele>467.20000000000005</ele><time>2026-04-11T09:01:51.008Z</time></trkpt><trkpt lat="43.92375652885016" lon="11.268495398210892"><ele>467.40000000000003</ele><time>2026-04-11T09:01:52.008Z</time></trkpt><trkpt lat="43.923806657452815" lon="11.268354754934629"><ele>467.59999999999997</ele><time>2026-04-11T09:01:53.008Z</time></trkpt><trkpt lat="43.92387941720645" lon="11.26821661435902"><ele>467.79999999999995</ele><time>2026-04-11T09:01:54.008Z</time></trkpt><trkpt lat="43.92395466956502" lon="11.268134972269504"><ele>468.0</ele><time>2026-04-11T09:01:55.008Z</time></trkpt><trkpt lat="43.92406339201144" lon="11.268038253406"><ele>468.0</ele><time>2026-04-11T09:01:56.008Z</time></trkpt><trkpt lat="43.92416120795127" lon="11.26796281400441"><ele>468.0</ele><time>2026-04-11T09:01:57.008Z</time></trkpt><trkpt lat="43.924263242216135" lon="11.267875986424897"><ele>468.0</ele><time>2026-04-11T09:01:58.008Z</time></trkpt><trkpt lat="43.92437474300945" lon="11.2678068925803"><ele>468.0</ele><time>2026-04-11T09:01:59.008Z</time></trkpt><trkpt lat="43.924487073755664" lon="11.267665197539545"><ele>466.4</ele><time>2026-04-11T09:02:00.008Z</time></trkpt><trkpt lat="43.92463104807213" lon="11.267634241200836"><ele>464.79999999999995</ele><time>2026-04-11T09:02:01.008Z</time></trkpt><trkpt lat="43.92474850980715" lon="11.267564683251758"><ele>463.2</ele><time>2026-04-11T09:02:02.008Z</time></trkpt><trkpt lat="43.92484558173365" lon="11.267513743614979"><ele>461.6</ele><time>2026-04-11T09:02:03.008Z</time></trkpt><trkpt lat="43.92490836847553" lon="11.267471221305932"><ele>460.0</ele><time>2026-04-11T09:02:04.008Z</time></trkpt><trkpt lat="43.924985573363266" lon="11.267376129201468"><ele>460.0</ele><time>2026-04-11T09:02:05.008Z</time></trkpt><trkpt lat="43.92504424950882" lon="11.267259975770084"><ele>460.0</ele><time>2026-04-11T09:02:06.008Z</time></trkpt><trkpt lat="43.92509827898087" lon="11.26713413191156"><ele>460.0</ele><time>2026-04-11T09:02:07.008Z</time></trkpt><trkpt lat="43.925152779955035" lon="11.267006440356292"><ele>460.0</ele><time>2026-04-11T09:02:08.008Z</time></trkpt><trkpt lat="43.92520736748382" lon="11.266830104938816"><ele>460.0</ele><time>2026-04-11T09:02:09.008Z</time></trkpt><trkpt lat="43.925283087707435" lon="11.266706556018978"><ele>460.0</ele><time>2026-04-11T09:02:10.008Z</time></trkpt><trkpt lat="43.92537376642822" lon="11.266606847454414"><ele>460.0</ele><time>2026-04-11T09:02:11.008Z</time></trkpt><trkpt lat="43.925478696986595" lon="11.26651924942333"><ele>460.0</ele><time>2026-04-11T09:02:12.008Z</time></trkpt><trkpt lat="43.925581067789096" lon="11.266446664717352"><ele>460.4</ele><time>2026-04-11T09:02:13.008Z</time></trkpt><trkpt lat="43.92568685100346" lon="11.266371582572665"><ele>460.8</ele><time>2026-04-11T09:02:14.008Z</time></trkpt><trkpt lat="43.925800871131436" lon="11.266340483257588"><ele>461.20000000000005</ele><time>2026-04-11T09:02:15.008Z</time></trkpt><trkpt lat="43.925895729427296" lon="11.266337745255102"><ele>461.6</ele><time>2026-04-11T09:02:16.008Z</time></trkpt><trkpt lat="43.925999771697704" lon="11.266362931047198"><ele>462.0</ele><time>2026-04-11T09:02:17.008Z</time></trkpt><trkpt lat="43.92611331321127" lon="11.266414811687463"><ele>460.5</ele><time>2026-04-11T09:02:18.008Z</time></trkpt><trkpt lat="43.92623377268814" lon="11.26647590221174"><ele>459.0</ele><time>2026-04-11T09:02:19.008Z</time></trkpt><trkpt lat="43.926355016568564" lon="11.266524842505856"><ele>457.5</ele><time>2026-04-11T09:02:20.008Z</time></trkpt><trkpt lat="43.92645168501509" lon="11.266556114691978"><ele>456.0</ele><time>2026-04-11T09:02:21.008Z</time></trkpt><trkpt lat="43.92655161216199" lon="11.266521577918194"><ele>457.20000000000005</ele><time>2026-04-11T09:02:23.008Z</time></trkpt><trkpt lat="43.92666850929957" lon="11.266417483614395"><ele>458.40000000000003</ele><time>2026-04-11T09:02:25.008Z</time></trkpt><trkpt lat="43.9267311955124" lon="11.266350968958461"><ele>459.6</ele><time>2026-04-11T09:02:26.008Z</time></trkpt><trkpt lat="43.926804223758" lon="11.26629911578022"><ele>460.8</ele><time>2026-04-11T09:02:27.008Z</time></trkpt><trkpt lat="43.92690185530326" lon="11.266273907045145"><ele>462.0</ele><time>2026-04-11T09:02:28.008Z</time></trkpt><trkpt lat="43.92701435034314" lon="11.266267517303387"><ele>463.5</ele><time>2026-04-11T09:02:29.008Z</time></trkpt><trkpt lat="43.9271388347132" lon="11.266303348243369"><ele>465.0</ele><time>2026-04-11T09:02:30.008Z</time></trkpt><trkpt lat="43.92726812627945" lon="11.266271801975813"><ele>466.5</ele><time>2026-04-11T09:02:31.008Z</time></trkpt><trkpt lat="43.92737297284915" lon="11.266234276113526"><ele>468.0</ele><time>2026-04-11T09:02:32.008Z</time></trkpt><trkpt lat="43.927479895989144" lon="11.266194002646609"><ele>470.2</ele><time>2026-04-11T09:02:33.008Z</time></trkpt><trkpt lat="43.92756772011482" lon="11.266182254141018"><ele>472.4</ele><time>2026-04-11T09:02:34.008Z</time></trkpt><trkpt lat="43.92765703597458" lon="11.266191968839715"><ele>474.59999999999997</ele><time>2026-04-11T09:02:35.008Z</time></trkpt><trkpt lat="43.9277098440298" lon="11.266291669057837"><ele>476.79999999999995</ele><time>2026-04-11T09:02:36.008Z</time></trkpt><trkpt lat="43.92780321676161" lon="11.26636739794124"><ele>479.0</ele><time>2026-04-11T09:02:37.008Z</time></trkpt><trkpt lat="43.92786987241085" lon="11.266422666106948"><ele>479.0</ele><time>2026-04-11T09:02:38.008Z</time></trkpt><trkpt lat="43.92795883981981" lon="11.266463634077443"><ele>479.0</ele><time>2026-04-11T09:02:39.008Z</time></trkpt><trkpt lat="43.928047303548524" lon="11.266425109804441"><ele>479.0</ele><time>2026-04-11T09:02:40.008Z</time></trkpt><trkpt lat="43.92813576415198" lon="11.266393353749656"><ele>479.0</ele><time>2026-04-11T09:02:41.008Z</time></trkpt><trkpt lat="43.92823055554863" lon="11.266333045909104"><ele>479.0</ele><time>2026-04-11T09:02:42.008Z</time></trkpt><trkpt lat="43.92831314285946" lon="11.266265864816123"><ele>478.8333333333333</ele><time>2026-04-11T09:02:43.008Z</time></trkpt><trkpt lat="43.92839567779154" lon="11.266209021986569"><ele>478.66666666666663</ele><time>2026-04-11T09:02:44.008Z</time></trkpt><trkpt lat="43.928483132828106" lon="11.26615119794699"><ele>478.5</ele><time>2026-04-11T09:02:45.008Z</time></trkpt><trkpt lat="43.92856280294096" lon="11.266174584504435"><ele>478.33333333333337</ele><time>2026-04-11T09:02:46.008Z</time></trkpt><trkpt lat="43.928632852078415" lon="11.266191196511517"><ele>478.1666666666667</ele><time>2026-04-11T09:02:47.008Z</time></trkpt><trkpt lat="43.928644843202484" lon="11.266286083258041"><ele>478.0</ele><time>2026-04-11T09:02:49.008Z</time></trkpt><trkpt lat="43.92867246194688" lon="11.266403590726789"><ele>475.59999999999997</ele><time>2026-04-11T09:02:51.008Z</time></trkpt><trkpt lat="43.92875163230701" lon="11.266521188026111"><ele>473.19999999999993</ele><time>2026-04-11T09:02:52.008Z</time></trkpt><trkpt lat="43.92880347872934" lon="11.266614199958532"><ele>470.8</ele><time>2026-04-11T09:02:53.008Z</time></trkpt><trkpt lat="43.928853399492844" lon="11.26669891770353"><ele>468.4</ele><time>2026-04-11T09:02:54.008Z</time></trkpt><trkpt lat="43.92890162665686" lon="11.266848686572567"><ele>466.0</ele><time>2026-04-11T09:02:55.008Z</time></trkpt><trkpt lat="43.928972680713954" lon="11.266841028455785"><ele>452.0</ele><time>2026-04-11T09:02:58.008Z</time></trkpt><trkpt lat="43.929455945607145" lon="11.266112425339617"><ele>452.0</ele><time>2026-04-11T09:02:59.008Z</time></trkpt><trkpt lat="43.92943514164009" lon="11.265997852600561"><ele>452.00000000000006</ele><time>2026-04-11T09:03:00.008Z</time></trkpt><trkpt lat="43.929452114279776" lon="11.265869595380298"><ele>452.00000000000006</ele><time>2026-04-11T09:03:01.008Z</time></trkpt><trkpt lat="43.9294684559216" lon="11.265707935448283"><ele>452.0</ele><time>2026-04-11T09:03:02.008Z</time></trkpt><trkpt lat="43.92948942123878" lon="11.265557038847417"><ele>452.0</ele><time>2026-04-11T09:03:03.008Z</time></trkpt><trkpt lat="43.929493523235465" lon="11.265415806901803"><ele>450.0</ele><time>2026-04-11T09:03:04.008Z</time></trkpt><trkpt lat="43.929474002600706" lon="11.265300271104671"><ele>448.00000000000006</ele><time>2026-04-11T09:03:05.008Z</time></trkpt><trkpt lat="43.929400842714266" lon="11.265159887184389"><ele>446.00000000000006</ele><time>2026-04-11T09:03:06.008Z</time></trkpt><trkpt lat="43.92934208631742" lon="11.265029881245887"><ele>444.0</ele><time>2026-04-11T09:03:07.008Z</time></trkpt><trkpt lat="43.929296226352236" lon="11.264903141849471"><ele>442.0</ele><time>2026-04-11T09:03:08.008Z</time></trkpt><trkpt lat="43.92925774529943" lon="11.264775548347892"><ele>441.6666666666667</ele><time>2026-04-11T09:03:09.008Z</time></trkpt><trkpt lat="43.92923915030819" lon="11.264647314327"><ele>441.33333333333337</ele><time>2026-04-11T09:03:10.008Z</time></trkpt><trkpt lat="43.92922006463335" lon="11.264541206056162"><ele>441.0</ele><time>2026-04-11T09:03:11.008Z</time></trkpt><trkpt lat="43.92922082088612" lon="11.264441269887516"><ele>440.66666666666663</ele><time>2026-04-11T09:03:12.008Z</time></trkpt><trkpt lat="43.92924073170804" lon="11.264349625328583"><ele>440.3333333333333</ele><time>2026-04-11T09:03:13.008Z</time></trkpt><trkpt lat="43.92927979606133" lon="11.264263660200976"><ele>440.0</ele><time>2026-04-11T09:03:14.008Z</time></trkpt><trkpt lat="43.92936709901961" lon="11.264185211033746"><ele>440.0</ele><time>2026-04-11T09:03:15.008Z</time></trkpt><trkpt lat="43.92945464614669" lon="11.264103401809539"><ele>440.0</ele><time>2026-04-11T09:03:16.008Z</time></trkpt><trkpt lat="43.92953061094911" lon="11.264013730959865"><ele>440.0</ele><time>2026-04-11T09:03:17.008Z</time></trkpt><trkpt lat="43.92958043271019" lon="11.26390460929602"><ele>440.0</ele><time>2026-04-11T09:03:18.008Z</time></trkpt><trkpt lat="43.92961627354127" lon="11.263788407206375"><ele>440.0</ele><time>2026-04-11T09:03:19.008Z</time></trkpt><trkpt lat="43.929636960061465" lon="11.263648919024334"><ele>442.0</ele><time>2026-04-11T09:03:20.008Z</time></trkpt><trkpt lat="43.92963016519485" lon="11.263513115574275"><ele>444.0</ele><time>2026-04-11T09:03:21.008Z</time></trkpt><trkpt lat="43.9296523730723" lon="11.263402518908682"><ele>446.0</ele><time>2026-04-11T09:03:22.008Z</time></trkpt><trkpt lat="43.92974319242117" lon="11.26329950381472"><ele>448.0</ele><time>2026-04-11T09:03:23.008Z</time></trkpt><trkpt lat="43.92981840910311" lon="11.263218722709876"><ele>450.0</ele><time>2026-04-11T09:03:24.009Z</time></trkpt><trkpt lat="43.9298908058942" lon="11.26312761552581"><ele>452.0</ele><time>2026-04-11T09:03:25.009Z</time></trkpt><trkpt lat="43.929976092766175" lon="11.263066304186111"><ele>454.0</ele><time>2026-04-11T09:03:26.009Z</time></trkpt><trkpt lat="43.930070174545236" lon="11.262984727670768"><ele>456.0</ele><time>2026-04-11T09:03:27.009Z</time></trkpt><trkpt lat="43.930158988098874" lon="11.262916741378628"><ele>458.0</ele><time>2026-04-11T09:03:28.009Z</time></trkpt><trkpt lat="43.93024200771024" lon="11.262803881928448"><ele>460.0</ele><time>2026-04-11T09:03:29.009Z</time></trkpt><trkpt lat="43.930322348773565" lon="11.262716806538421"><ele>456.33333333333337</ele><time>2026-04-11T09:03:30.009Z</time></trkpt><trkpt lat="43.93039982709695" lon="11.262634289450888"><ele>452.6666666666667</ele><time>2026-04-11T09:03:31.009Z</time></trkpt><trkpt lat="43.93047176619933" lon="11.26256610915445"><ele>449.0</ele><time>2026-04-11T09:03:32.009Z</time></trkpt><trkpt lat="43.93055156409515" lon="11.26252914308396"><ele>445.33333333333337</ele><time>2026-04-11T09:03:33.009Z</time></trkpt><trkpt lat="43.93062586727671" lon="11.262461376081209"><ele>441.6666666666667</ele><time>2026-04-11T09:03:34.009Z</time></trkpt><trkpt lat="43.93070502493224" lon="11.262399278017252"><ele>438.0</ele><time>2026-04-11T09:03:35.009Z</time></trkpt><trkpt lat="43.93078423822009" lon="11.262349566339596"><ele>438.0</ele><time>2026-04-11T09:03:36.009Z</time></trkpt><trkpt lat="43.93086968709578" lon="11.262327895794089"><ele>437.99999999999994</ele><time>2026-04-11T09:03:37.009Z</time></trkpt><trkpt lat="43.93094487191388" lon="11.262267711079021"><ele>437.99999999999994</ele><time>2026-04-11T09:03:38.009Z</time></trkpt><trkpt lat="43.93103686319818" lon="11.262238530681888"><ele>438.0</ele><time>2026-04-11T09:03:39.009Z</time></trkpt><trkpt lat="43.931120901889585" lon="11.262182619406426"><ele>438.0</ele><time>2026-04-11T09:03:40.009Z</time></trkpt><trkpt lat="43.931216695651585" lon="11.262121343466482"><ele>436.75</ele><time>2026-04-11T09:03:41.009Z</time></trkpt><trkpt lat="43.93129411249277" lon="11.261986556650259"><ele>435.5</ele><time>2026-04-11T09:03:42.009Z</time></trkpt><trkpt lat="43.93137484133378" lon="11.261877152186024"><ele>434.25</ele><time>2026-04-11T09:03:43.009Z</time></trkpt><trkpt lat="43.93144070181559" lon="11.261758373130112"><ele>433.0</ele><time>2026-04-11T09:03:44.009Z</time></trkpt><trkpt lat="43.93151916477875" lon="11.261659795485876"><ele>433.0</ele><time>2026-04-11T09:03:45.009Z</time></trkpt><trkpt lat="43.93159302390589" lon="11.261536255219603"><ele>432.99999999999994</ele><time>2026-04-11T09:03:46.009Z</time></trkpt><trkpt lat="43.93166040391125" lon="11.261413277343747"><ele>432.99999999999994</ele><time>2026-04-11T09:03:47.009Z</time></trkpt><trkpt lat="43.93172607688795" lon="11.261288093474043"><ele>433.0</ele><time>2026-04-11T09:03:48.009Z</time></trkpt><trkpt lat="43.93179024798595" lon="11.26116856747201"><ele>433.0</ele><time>2026-04-11T09:03:49.009Z</time></trkpt><trkpt lat="43.931835359725646" lon="11.261027580455508"><ele>428.6666666666667</ele><time>2026-04-11T09:03:50.009Z</time></trkpt><trkpt lat="43.93183759096069" lon="11.260881540753246"><ele>424.33333333333337</ele><time>2026-04-11T09:03:51.009Z</time></trkpt><trkpt lat="43.931838297707664" lon="11.260763064906614"><ele>420.0</ele><time>2026-04-11T09:03:52.009Z</time></trkpt><trkpt lat="43.93183284190043" lon="11.26064849028619"><ele>415.66666666666663</ele><time>2026-04-11T09:03:53.009Z</time></trkpt><trkpt lat="43.93181730937184" lon="11.260557833684626"><ele>411.3333333333333</ele><time>2026-04-11T09:03:54.009Z</time></trkpt><trkpt lat="43.93177328098695" lon="11.260463737843763"><ele>407.0</ele><time>2026-04-11T09:03:55.009Z</time></trkpt><trkpt lat="43.93172627031628" lon="11.260340200035994"><ele>411.0</ele><time>2026-04-11T09:03:56.009Z</time></trkpt><trkpt lat="43.93168220928698" lon="11.26018890473407"><ele>415.0</ele><time>2026-04-11T09:03:57.009Z</time></trkpt><trkpt lat="43.93164439212159" lon="11.260021658398752"><ele>419.00000000000006</ele><time>2026-04-11T09:03:58.009Z</time></trkpt><trkpt lat="43.93163509247484" lon="11.259871831787002"><ele>423.0</ele><time>2026-04-11T09:03:59.009Z</time></trkpt><trkpt lat="43.93160885053749" lon="11.259752960343734"><ele>427.0</ele><time>2026-04-11T09:04:00.009Z</time></trkpt><trkpt lat="43.931574538348016" lon="11.25963316581755"><ele>427.0</ele><time>2026-04-11T09:04:01.009Z</time></trkpt><trkpt lat="43.93155069191436" lon="11.259502974873268"><ele>427.00000000000006</ele><time>2026-04-11T09:04:02.009Z</time></trkpt><trkpt lat="43.93152590403767" lon="11.259366232635426"><ele>427.00000000000006</ele><time>2026-04-11T09:04:03.009Z</time></trkpt><trkpt lat="43.931498447422946" lon="11.259209572111644"><ele>427.0</ele><time>2026-04-11T09:04:04.009Z</time></trkpt><trkpt lat="43.93148228276573" lon="11.259066731474661"><ele>427.0</ele><time>2026-04-11T09:04:05.009Z</time></trkpt><trkpt lat="43.93146824682721" lon="11.25894107309217"><ele>427.50000000000006</ele><time>2026-04-11T09:04:06.009Z</time></trkpt><trkpt lat="43.931485893079106" lon="11.258815808337296"><ele>428.0</ele><time>2026-04-11T09:04:07.009Z</time></trkpt><trkpt lat="43.93151169203669" lon="11.25868888690621"><ele>428.5</ele><time>2026-04-11T09:04:08.009Z</time></trkpt><trkpt lat="43.93153520016365" lon="11.258572563791661"><ele>429.0</ele><time>2026-04-11T09:04:09.009Z</time></trkpt><trkpt lat="43.931565548516076" lon="11.25845622667373"><ele>429.50000000000006</ele><time>2026-04-11T09:04:10.009Z</time></trkpt><trkpt lat="43.93161187631362" lon="11.258355182574512"><ele>430.0</ele><time>2026-04-11T09:04:11.009Z</time></trkpt><trkpt lat="43.93168020091222" lon="11.258260195791104"><ele>423.25</ele><time>2026-04-11T09:04:12.009Z</time></trkpt><trkpt lat="43.93175596234979" lon="11.258156493637017"><ele>416.5</ele><time>2026-04-11T09:04:13.009Z</time></trkpt><trkpt lat="43.93185403608864" lon="11.258040153065227"><ele>409.75</ele><time>2026-04-11T09:04:14.009Z</time></trkpt><trkpt lat="43.93194120850734" lon="11.257908627818574"><ele>403.0</ele><time>2026-04-11T09:04:15.009Z</time></trkpt><trkpt lat="43.93201956793756" lon="11.257775525169706"><ele>402.79999999999995</ele><time>2026-04-11T09:04:16.009Z</time></trkpt><trkpt lat="43.932093281519506" lon="11.257662119141584"><ele>402.6</ele><time>2026-04-11T09:04:17.009Z</time></trkpt><trkpt lat="43.93216907834425" lon="11.257552888206696"><ele>402.4</ele><time>2026-04-11T09:04:18.009Z</time></trkpt><trkpt lat="43.93224176904039" lon="11.25743270068065"><ele>402.20000000000005</ele><time>2026-04-11T09:04:19.009Z</time></trkpt><trkpt lat="43.93230999062407" lon="11.257319449640258"><ele>402.0</ele><time>2026-04-11T09:04:20.009Z</time></trkpt><trkpt lat="43.93236745030729" lon="11.257200782943597"><ele>403.0</ele><time>2026-04-11T09:04:21.009Z</time></trkpt><trkpt lat="43.932413469278245" lon="11.257093515266886"><ele>404.0</ele><time>2026-04-11T09:04:22.009Z</time></trkpt><trkpt lat="43.932460650777266" lon="11.25698346464502"><ele>405.0</ele><time>2026-04-11T09:04:23.009Z</time></trkpt><trkpt lat="43.93251820625583" lon="11.256870437521616"><ele>406.0</ele><time>2026-04-11T09:04:24.009Z</time></trkpt><trkpt lat="43.932576691699865" lon="11.256758961222165"><ele>407.0</ele><time>2026-04-11T09:04:25.009Z</time></trkpt><trkpt lat="43.9326334422794" lon="11.256673438248358"><ele>402.16666666666663</ele><time>2026-04-11T09:04:25.993Z</time></trkpt><trkpt lat="43.9326959166375" lon="11.256572870077434"><ele>397.3333333333333</ele><time>2026-04-11T09:04:26.993Z</time></trkpt><trkpt lat="43.93274754194296" lon="11.25649171877344"><ele>392.5</ele><time>2026-04-11T09:04:27.993Z</time></trkpt><trkpt lat="43.93279705282137" lon="11.256396590165853"><ele>387.66666666666663</ele><time>2026-04-11T09:04:28.993Z</time></trkpt><trkpt lat="43.93283067659748" lon="11.256316601048336"><ele>382.8333333333333</ele><time>2026-04-11T09:04:29.993Z</time></trkpt><trkpt lat="43.932843742886135" lon="11.25617343395164"><ele>378.0</ele><time>2026-04-11T09:04:31.993Z</time></trkpt><trkpt lat="43.932803947314504" lon="11.256075300875828"><ele>374.25</ele><time>2026-04-11T09:04:32.993Z</time></trkpt><trkpt lat="43.932761473807226" lon="11.255950137102817"><ele>370.5</ele><time>2026-04-11T09:04:33.993Z</time></trkpt><trkpt lat="43.9327284705073" lon="11.255803199989094"><ele>366.75</ele><time>2026-04-11T09:04:34.993Z</time></trkpt><trkpt lat="43.932675759136565" lon="11.255652457381835"><ele>363.0</ele><time>2026-04-11T09:04:35.993Z</time></trkpt><trkpt lat="43.93263572166874" lon="11.255494708274018"><ele>361.75</ele><time>2026-04-11T09:04:36.993Z</time></trkpt><trkpt lat="43.93258409936168" lon="11.255326547151432"><ele>360.5</ele><time>2026-04-11T09:04:37.993Z</time></trkpt><trkpt lat="43.932546467035486" lon="11.255167853139623"><ele>359.25</ele><time>2026-04-11T09:04:38.993Z</time></trkpt><trkpt lat="43.9324902936364" lon="11.255015655206487"><ele>358.0</ele><time>2026-04-11T09:04:39.993Z</time></trkpt><trkpt lat="43.93243152945777" lon="11.254870074814514"><ele>361.59999999999997</ele><time>2026-04-11T09:04:40.993Z</time></trkpt><trkpt lat="43.93240066636707" lon="11.254748632397067"><ele>365.2</ele><time>2026-04-11T09:04:41.993Z</time></trkpt><trkpt lat="43.93237483455342" lon="11.254614899147045"><ele>368.8</ele><time>2026-04-11T09:04:42.993Z</time></trkpt><trkpt lat="43.932369795833885" lon="11.254480285377912"><ele>372.4</ele><time>2026-04-11T09:04:43.993Z</time></trkpt><trkpt lat="43.93235908236213" lon="11.254370487177562"><ele>376.0</ele><time>2026-04-11T09:04:44.993Z</time></trkpt><trkpt lat="43.9323422278486" lon="11.254247451404224"><ele>376.0</ele><time>2026-04-11T09:04:45.993Z</time></trkpt><trkpt lat="43.93231967931477" lon="11.254116255356728"><ele>376.0</ele><time>2026-04-11T09:04:46.993Z</time></trkpt><trkpt lat="43.932293171801035" lon="11.253988191863762"><ele>376.0</ele><time>2026-04-11T09:04:47.993Z</time></trkpt><trkpt lat="43.93227140775602" lon="11.253861104380112"><ele>376.0</ele><time>2026-04-11T09:04:48.993Z</time></trkpt><trkpt lat="43.932247839219045" lon="11.253742603649167"><ele>376.0</ele><time>2026-04-11T09:04:49.993Z</time></trkpt><trkpt lat="43.93221107623394" lon="11.253625801446752"><ele>374.4</ele><time>2026-04-11T09:04:50.993Z</time></trkpt><trkpt lat="43.93215580979598" lon="11.253526738874237"><ele>372.8</ele><time>2026-04-11T09:04:51.993Z</time></trkpt><trkpt lat="43.9321047299671" lon="11.253426516770501"><ele>371.2</ele><time>2026-04-11T09:04:52.993Z</time></trkpt><trkpt lat="43.93204589680955" lon="11.253321478566123"><ele>369.59999999999997</ele><time>2026-04-11T09:04:53.993Z</time></trkpt><trkpt lat="43.93198459204005" lon="11.253182196229167"><ele>368.0</ele><time>2026-04-11T09:04:54.993Z</time></trkpt><trkpt lat="43.931937184661486" lon="11.25306100210517"><ele>367.4</ele><time>2026-04-11T09:04:55.993Z</time></trkpt><trkpt lat="43.931875515053825" lon="11.252933244414974"><ele>366.79999999999995</ele><time>2026-04-11T09:04:56.993Z</time></trkpt><trkpt lat="43.931810843023584" lon="11.252806111255964"><ele>366.2</ele><time>2026-04-11T09:04:57.993Z</time></trkpt><trkpt lat="43.93174809884741" lon="11.252685719372332"><ele>365.6</ele><time>2026-04-11T09:04:58.993Z</time></trkpt><trkpt lat="43.93169250401636" lon="11.252564908352648"><ele>365.0</ele><time>2026-04-11T09:04:59.993Z</time></trkpt><trkpt lat="43.9316584635748" lon="11.252422657721683"><ele>366.6</ele><time>2026-04-11T09:05:00.993Z</time></trkpt><trkpt lat="43.93163130040259" lon="11.252291936152348"><ele>368.2</ele><time>2026-04-11T09:05:01.993Z</time></trkpt><trkpt lat="43.93159710865384" lon="11.252178504714161"><ele>369.79999999999995</ele><time>2026-04-11T09:05:02.993Z</time></trkpt><trkpt lat="43.9315494696921" lon="11.25205984254714"><ele>371.4</ele><time>2026-04-11T09:05:03.993Z</time></trkpt><trkpt lat="43.93149842223884" lon="11.251947435433895"><ele>373.0</ele><time>2026-04-11T09:05:04.993Z</time></trkpt><trkpt lat="43.93145238230182" lon="11.251809355795526"><ele>373.0</ele><time>2026-04-11T09:05:05.993Z</time></trkpt><trkpt lat="43.931411444402784" lon="11.251664426215756"><ele>373.0</ele><time>2026-04-11T09:05:06.993Z</time></trkpt><trkpt lat="43.931378497894364" lon="11.251509014432346"><ele>373.0</ele><time>2026-04-11T09:05:07.993Z</time></trkpt><trkpt lat="43.931342909266306" lon="11.251367735859192"><ele>373.0</ele><time>2026-04-11T09:05:08.993Z</time></trkpt><trkpt lat="43.93131405491487" lon="11.251229810461412"><ele>373.0</ele><time>2026-04-11T09:05:09.993Z</time></trkpt><trkpt lat="43.93130117284039" lon="11.251124519375333"><ele>376.0</ele><time>2026-04-11T09:05:10.993Z</time></trkpt><trkpt lat="43.93129951237645" lon="11.251015981302602"><ele>379.0</ele><time>2026-04-11T09:05:12.993Z</time></trkpt><trkpt lat="43.9312704891798" lon="11.250938021741554"><ele>382.0</ele><time>2026-04-11T09:05:37.991Z</time></trkpt><trkpt lat="43.93135331314658" lon="11.250942617504302"><ele>385.0</ele><time>2026-04-11T09:08:21.99Z</time></trkpt><trkpt lat="43.931422602442986" lon="11.250999968581452"><ele>388.00000000000006</ele><time>2026-04-11T09:08:22.99Z</time></trkpt><trkpt lat="43.93148308241071" lon="11.251105647031373"><ele>391.0</ele><time>2026-04-11T09:08:23.99Z</time></trkpt><trkpt lat="43.9314985642342" lon="11.251259717050772"><ele>391.0</ele><time>2026-04-11T09:08:24.99Z</time></trkpt><trkpt lat="43.931547383387" lon="11.251338138843598"><ele>391.0</ele><time>2026-04-11T09:08:25.99Z</time></trkpt><trkpt lat="43.93162699467551" lon="11.251466024250696"><ele>391.0</ele><time>2026-04-11T09:08:27.99Z</time></trkpt><trkpt lat="43.9316815630487" lon="11.25155069007081"><ele>391.0</ele><time>2026-04-11T09:08:28.99Z</time></trkpt><trkpt lat="43.931742255454935" lon="11.251640584834036"><ele>391.0</ele><time>2026-04-11T09:08:29.99Z</time></trkpt><trkpt lat="43.9318151946368" lon="11.25170038476685"><ele>390.2857142857143</ele><time>2026-04-11T09:08:30.99Z</time></trkpt><trkpt lat="43.931867582291396" lon="11.251784819789565"><ele>389.57142857142856</ele><time>2026-04-11T09:08:31.99Z</time></trkpt><trkpt lat="43.93191759229613" lon="11.251849179713526"><ele>388.8571428571429</ele><time>2026-04-11T09:08:32.99Z</time></trkpt><trkpt lat="43.93197392766198" lon="11.25191037497685"><ele>388.1428571428571</ele><time>2026-04-11T09:08:33.99Z</time></trkpt><trkpt lat="43.932024378709635" lon="11.251963100833809"><ele>387.42857142857144</ele><time>2026-04-11T09:08:34.99Z</time></trkpt><trkpt lat="43.932073329344156" lon="11.252032064311074"><ele>386.7142857142857</ele><time>2026-04-11T09:08:35.99Z</time></trkpt><trkpt lat="43.93212701950683" lon="11.252099956178265"><ele>386.0</ele><time>2026-04-11T09:08:36.99Z</time></trkpt><trkpt lat="43.93219240095217" lon="11.252165093883043"><ele>385.99999999999994</ele><time>2026-04-11T09:08:37.991Z</time></trkpt><trkpt lat="43.93226266322327" lon="11.2522395352242"><ele>386.0</ele><time>2026-04-11T09:08:38.991Z</time></trkpt><trkpt lat="43.932343884030495" lon="11.252298377371625"><ele>386.0</ele><time>2026-04-11T09:08:39.991Z</time></trkpt><trkpt lat="43.932404926441926" lon="11.252348281509342"><ele>386.0</ele><time>2026-04-11T09:08:40.991Z</time></trkpt><trkpt lat="43.932449941297804" lon="11.252410854783086"><ele>385.99999999999994</ele><time>2026-04-11T09:08:41.991Z</time></trkpt><trkpt lat="43.93254644555944" lon="11.252523736141002"><ele>386.0</ele><time>2026-04-11T09:08:43.991Z</time></trkpt><trkpt lat="43.93256840418124" lon="11.252606137055684"><ele>385.66666666666663</ele><time>2026-04-11T09:08:44.991Z</time></trkpt><trkpt lat="43.93260822129907" lon="11.252783637343967"><ele>385.3333333333333</ele><time>2026-04-11T09:08:46.991Z</time></trkpt><trkpt lat="43.932623571448104" lon="11.252904448328117"><ele>385.0</ele><time>2026-04-11T09:08:47.991Z</time></trkpt><trkpt lat="43.932651891014174" lon="11.253009625694435"><ele>384.66666666666663</ele><time>2026-04-11T09:08:48.991Z</time></trkpt><trkpt lat="43.932700272443334" lon="11.25308730871151"><ele>384.3333333333333</ele><time>2026-04-11T09:08:49.991Z</time></trkpt><trkpt lat="43.932755046614865" lon="11.253152207874326"><ele>384.0</ele><time>2026-04-11T09:08:50.991Z</time></trkpt><trkpt lat="43.93284447079148" lon="11.253291298650465"><ele>382.6666666666667</ele><time>2026-04-11T09:08:52.991Z</time></trkpt><trkpt lat="43.93291206530302" lon="11.253362187690891"><ele>381.3333333333333</ele><time>2026-04-11T09:08:53.991Z</time></trkpt><trkpt lat="43.932992849845036" lon="11.253446505295917"><ele>380.0</ele><time>2026-04-11T09:08:54.991Z</time></trkpt><trkpt lat="43.93305014394571" lon="11.253521020732553"><ele>378.66666666666663</ele><time>2026-04-11T09:08:55.991Z</time></trkpt><trkpt lat="43.93310797986093" lon="11.253595905973135"><ele>377.3333333333333</ele><time>2026-04-11T09:08:56.991Z</time></trkpt><trkpt lat="43.93315296979385" lon="11.253677280653257"><ele>376.0</ele><time>2026-04-11T09:08:57.991Z</time></trkpt><trkpt lat="43.933200317284644" lon="11.253779377895475"><ele>376.0</ele><time>2026-04-11T09:08:58.991Z</time></trkpt><trkpt lat="43.93323655388215" lon="11.253920173216473"><ele>376.0</ele><time>2026-04-11T09:08:59.991Z</time></trkpt><trkpt lat="43.93327307975416" lon="11.254057010396638"><ele>376.0</ele><time>2026-04-11T09:09:00.991Z</time></trkpt><trkpt lat="43.93333657181853" lon="11.25421948302236"><ele>376.0</ele><time>2026-04-11T09:09:01.991Z</time></trkpt><trkpt lat="43.93338828292007" lon="11.25437209876376"><ele>378.0</ele><time>2026-04-11T09:09:02.991Z</time></trkpt><trkpt lat="43.9334520979309" lon="11.254516551130418"><ele>380.0</ele><time>2026-04-11T09:09:03.991Z</time></trkpt><trkpt lat="43.93353913302609" lon="11.254641028278899"><ele>382.0</ele><time>2026-04-11T09:09:04.991Z</time></trkpt><trkpt lat="43.93365279777874" lon="11.254774838211185"><ele>384.0</ele><time>2026-04-11T09:09:05.991Z</time></trkpt><trkpt lat="43.93376541373122" lon="11.25491325127493"><ele>384.0</ele><time>2026-04-11T09:09:06.991Z</time></trkpt><trkpt lat="43.93388181572356" lon="11.255055537566104"><ele>384.0</ele><time>2026-04-11T09:09:07.991Z</time></trkpt><trkpt lat="43.933975449538586" lon="11.255203044387992"><ele>384.0</ele><time>2026-04-11T09:09:08.991Z</time></trkpt><trkpt lat="43.934081615373074" lon="11.255353760550173"><ele>384.0</ele><time>2026-04-11T09:09:09.991Z</time></trkpt><trkpt lat="43.93416732860828" lon="11.255484320760749"><ele>387.25</ele><time>2026-04-11T09:09:10.991Z</time></trkpt><trkpt lat="43.93426957131658" lon="11.255620685054948"><ele>390.5</ele><time>2026-04-11T09:09:11.991Z</time></trkpt><trkpt lat="43.934360871731556" lon="11.255737513093091"><ele>393.75</ele><time>2026-04-11T09:09:12.991Z</time></trkpt><trkpt lat="43.93442382674368" lon="11.255836123748518"><ele>397.0</ele><time>2026-04-11T09:09:13.991Z</time></trkpt><trkpt lat="43.934504389657704" lon="11.25595186667382"><ele>397.0</ele><time>2026-04-11T09:09:14.991Z</time></trkpt><trkpt lat="43.9345781876568" lon="11.256071161887192"><ele>397.0</ele><time>2026-04-11T09:09:15.991Z</time></trkpt><trkpt lat="43.93462834314373" lon="11.256179491336942"><ele>397.0</ele><time>2026-04-11T09:09:16.991Z</time></trkpt><trkpt lat="43.93468859498079" lon="11.256306003465726"><ele>397.0</ele><time>2026-04-11T09:09:17.991Z</time></trkpt><trkpt lat="43.93472899855313" lon="11.25641719043657"><ele>397.0</ele><time>2026-04-11T09:09:18.991Z</time></trkpt><trkpt lat="43.93477799385489" lon="11.25653932869236"><ele>392.8</ele><time>2026-04-11T09:09:19.991Z</time></trkpt><trkpt lat="43.93482381979816" lon="11.256673718884876"><ele>388.6</ele><time>2026-04-11T09:09:20.991Z</time></trkpt><trkpt lat="43.934856127347345" lon="11.256827964090427"><ele>384.40000000000003</ele><time>2026-04-11T09:09:21.991Z</time></trkpt><trkpt lat="43.9349057840497" lon="11.256963191238299"><ele>380.20000000000005</ele><time>2026-04-11T09:09:22.991Z</time></trkpt><trkpt lat="43.93494781633416" lon="11.257098511737093"><ele>376.0</ele><time>2026-04-11T09:09:23.991Z</time></trkpt><trkpt lat="43.93499384409374" lon="11.257244866918859"><ele>372.5</ele><time>2026-04-11T09:09:24.991Z</time></trkpt><trkpt lat="43.93503972941461" lon="11.257379820289527"><ele>369.0</ele><time>2026-04-11T09:09:25.991Z</time></trkpt><trkpt lat="43.93508675356537" lon="11.257530389225069"><ele>365.5</ele><time>2026-04-11T09:09:26.991Z</time></trkpt><trkpt lat="43.93512616973296" lon="11.25770534821082"><ele>362.0</ele><time>2026-04-11T09:09:27.991Z</time></trkpt><trkpt lat="43.9351626330352" lon="11.257859371806349"><ele>369.20000000000005</ele><time>2026-04-11T09:09:28.991Z</time></trkpt><trkpt lat="43.9352014348664" lon="11.258020383805292"><ele>376.4</ele><time>2026-04-11T09:09:29.991Z</time></trkpt><trkpt lat="43.935239774084394" lon="11.258153330648955"><ele>383.6</ele><time>2026-04-11T09:09:30.991Z</time></trkpt><trkpt lat="43.935267418885644" lon="11.258292872707708"><ele>390.79999999999995</ele><time>2026-04-11T09:09:31.991Z</time></trkpt><trkpt lat="43.93526964396567" lon="11.258441318815375"><ele>398.0</ele><time>2026-04-11T09:09:32.991Z</time></trkpt><trkpt lat="43.93527487606476" lon="11.258582102778215"><ele>398.0</ele><time>2026-04-11T09:09:33.991Z</time></trkpt><trkpt lat="43.935255853776965" lon="11.258750358347712"><ele>398.0</ele><time>2026-04-11T09:09:34.991Z</time></trkpt><trkpt lat="43.935257504083275" lon="11.258935213855642"><ele>398.0</ele><time>2026-04-11T09:09:35.989Z</time></trkpt><trkpt lat="43.93525973160013" lon="11.259078825905874"><ele>398.0</ele><time>2026-04-11T09:09:36.989Z</time></trkpt><trkpt lat="43.935261143426764" lon="11.259169848918738"><ele>398.0</ele><time>2026-04-11T09:09:37.989Z</time></trkpt><trkpt lat="43.935262193696985" lon="11.259261955612496"><ele>396.4</ele><time>2026-04-11T09:09:38.989Z</time></trkpt><trkpt lat="43.935261098660554" lon="11.259356840392037"><ele>394.79999999999995</ele><time>2026-04-11T09:09:39.989Z</time></trkpt><trkpt lat="43.935257421289265" lon="11.259483586358952"><ele>393.2</ele><time>2026-04-11T09:09:40.989Z</time></trkpt><trkpt lat="43.93525133513516" lon="11.25961960565451"><ele>391.6</ele><time>2026-04-11T09:09:41.989Z</time></trkpt><trkpt lat="43.935243605273136" lon="11.259775506141848"><ele>390.0</ele><time>2026-04-11T09:09:42.989Z</time></trkpt><trkpt lat="43.935235109060315" lon="11.259946622843664"><ele>389.0</ele><time>2026-04-11T09:09:43.989Z</time></trkpt><trkpt lat="43.93523472534165" lon="11.260122106402248"><ele>388.0</ele><time>2026-04-11T09:09:44.989Z</time></trkpt><trkpt lat="43.93522635882025" lon="11.260284292468764"><ele>387.0</ele><time>2026-04-11T09:09:45.989Z</time></trkpt><trkpt lat="43.93521745288237" lon="11.260472078928766"><ele>386.0</ele><time>2026-04-11T09:09:46.989Z</time></trkpt><trkpt lat="43.93520592763576" lon="11.260642667785113"><ele>384.5</ele><time>2026-04-11T09:09:47.989Z</time></trkpt><trkpt lat="43.93519496115231" lon="11.260820949804446"><ele>383.0</ele><time>2026-04-11T09:09:48.989Z</time></trkpt><trkpt lat="43.93518309051889" lon="11.26102135714123"><ele>381.5</ele><time>2026-04-11T09:09:49.989Z</time></trkpt><trkpt lat="43.93516829237809" lon="11.261215376459994"><ele>380.0</ele><time>2026-04-11T09:09:50.989Z</time></trkpt><trkpt lat="43.93513063352634" lon="11.26142864451495"><ele>379.5</ele><time>2026-04-11T09:09:51.989Z</time></trkpt><trkpt lat="43.935108190348544" lon="11.261569687893617"><ele>379.0</ele><time>2026-04-11T09:09:52.989Z</time></trkpt><trkpt lat="43.93509021318062" lon="11.261726376166123"><ele>378.5</ele><time>2026-04-11T09:09:53.989Z</time></trkpt><trkpt lat="43.93507352884356" lon="11.261871275350483"><ele>378.0</ele><time>2026-04-11T09:09:54.989Z</time></trkpt><trkpt lat="43.93505432882178" lon="11.262044719319235"><ele>372.75</ele><time>2026-04-11T09:09:55.989Z</time></trkpt><trkpt lat="43.935044512355326" lon="11.262232540293093"><ele>367.5</ele><time>2026-04-11T09:09:56.989Z</time></trkpt><trkpt lat="43.93501407465004" lon="11.262408111017997"><ele>362.25</ele><time>2026-04-11T09:09:57.989Z</time></trkpt><trkpt lat="43.93498012476659" lon="11.262591778489597"><ele>357.0</ele><time>2026-04-11T09:09:58.989Z</time></trkpt><trkpt lat="43.934951049457204" lon="11.262783932118188"><ele>355.25</ele><time>2026-04-11T09:09:59.989Z</time></trkpt><trkpt lat="43.93493557035656" lon="11.262959488010573"><ele>353.5</ele><time>2026-04-11T09:10:00.989Z</time></trkpt><trkpt lat="43.934931565361154" lon="11.263129928355346"><ele>351.75</ele><time>2026-04-11T09:10:01.989Z</time></trkpt><trkpt lat="43.934917498130346" lon="11.263296040659746"><ele>350.0</ele><time>2026-04-11T09:10:02.989Z</time></trkpt><trkpt lat="43.93488151775106" lon="11.263456261749052"><ele>349.0</ele><time>2026-04-11T09:10:03.989Z</time></trkpt><trkpt lat="43.93485428453607" lon="11.2636462975958"><ele>348.0</ele><time>2026-04-11T09:10:04.989Z</time></trkpt><trkpt lat="43.93482480521608" lon="11.26383564133174"><ele>347.0</ele><time>2026-04-11T09:10:05.989Z</time></trkpt><trkpt lat="43.93480780675666" lon="11.263991380710946"><ele>346.0</ele><time>2026-04-11T09:10:06.989Z</time></trkpt><trkpt lat="43.934790774029956" lon="11.264147571004425"><ele>346.0</ele><time>2026-04-11T09:10:07.989Z</time></trkpt><trkpt lat="43.93475518658601" lon="11.264307224126021"><ele>346.0</ele><time>2026-04-11T09:10:08.989Z</time></trkpt><trkpt lat="43.93470972360787" lon="11.264478849175498"><ele>346.0</ele><time>2026-04-11T09:10:09.989Z</time></trkpt><trkpt lat="43.934679747883365" lon="11.264671462687225"><ele>346.0</ele><time>2026-04-11T09:10:10.989Z</time></trkpt><trkpt lat="43.93463587866268" lon="11.26484033101441"><ele>346.75</ele><time>2026-04-11T09:10:11.99Z</time></trkpt><trkpt lat="43.93457653301622" lon="11.264996249761234"><ele>347.5</ele><time>2026-04-11T09:10:12.99Z</time></trkpt><trkpt lat="43.93451907154653" lon="11.265144885959284"><ele>348.25</ele><time>2026-04-11T09:10:13.99Z</time></trkpt><trkpt lat="43.93446353155082" lon="11.265278415072677"><ele>349.0</ele><time>2026-04-11T09:10:14.99Z</time></trkpt><trkpt lat="43.93442672092275" lon="11.265414654542901"><ele>349.0</ele><time>2026-04-11T09:10:15.99Z</time></trkpt><trkpt lat="43.93438044882588" lon="11.265561146815795"><ele>349.0</ele><time>2026-04-11T09:10:16.99Z</time></trkpt><trkpt lat="43.934319918094644" lon="11.265709777034088"><ele>349.0</ele><time>2026-04-11T09:10:17.99Z</time></trkpt><trkpt lat="43.934289792791084" lon="11.265845947301527"><ele>349.0</ele><time>2026-04-11T09:10:18.99Z</time></trkpt><trkpt lat="43.93425823058022" lon="11.265979375420692"><ele>349.0</ele><time>2026-04-11T09:10:19.99Z</time></trkpt><trkpt lat="43.93419035779148" lon="11.266110771448503"><ele>342.5</ele><time>2026-04-11T09:10:20.99Z</time></trkpt><trkpt lat="43.93413873072023" lon="11.26626692671591"><ele>336.0</ele><time>2026-04-11T09:10:21.99Z</time></trkpt><trkpt lat="43.934090838301" lon="11.266435867197856"><ele>329.5</ele><time>2026-04-11T09:10:22.99Z</time></trkpt><trkpt lat="43.934060781167595" lon="11.266593280378999"><ele>323.0</ele><time>2026-04-11T09:10:23.99Z</time></trkpt><trkpt lat="43.93403829193618" lon="11.266732076417789"><ele>323.0</ele><time>2026-04-11T09:10:24.99Z</time></trkpt><trkpt lat="43.93403286679463" lon="11.266882125330941"><ele>323.0</ele><time>2026-04-11T09:10:25.99Z</time></trkpt><trkpt lat="43.93404654383694" lon="11.26704110770393"><ele>323.0</ele><time>2026-04-11T09:10:26.99Z</time></trkpt><trkpt lat="43.93407499527131" lon="11.267197107172754"><ele>323.0</ele><time>2026-04-11T09:10:27.99Z</time></trkpt><trkpt lat="43.93412832219322" lon="11.267362181019717"><ele>321.5</ele><time>2026-04-11T09:10:28.99Z</time></trkpt><trkpt lat="43.934210547030176" lon="11.267508876663323"><ele>320.0</ele><time>2026-04-11T09:10:29.99Z</time></trkpt><trkpt lat="43.93427189163314" lon="11.267674139397288"><ele>318.5</ele><time>2026-04-11T09:10:30.99Z</time></trkpt><trkpt lat="43.9343488728484" lon="11.267826442942361"><ele>317.0</ele><time>2026-04-11T09:10:31.99Z</time></trkpt><trkpt lat="43.934406331160865" lon="11.267981561042971"><ele>318.0</ele><time>2026-04-11T09:10:32.99Z</time></trkpt><trkpt lat="43.93446419391169" lon="11.268138574647583"><ele>319.0</ele><time>2026-04-11T09:10:33.99Z</time></trkpt><trkpt lat="43.934528076426766" lon="11.268302155180171"><ele>320.0</ele><time>2026-04-11T09:10:34.99Z</time></trkpt><trkpt lat="43.93458839276144" lon="11.268454758542104"><ele>321.0</ele><time>2026-04-11T09:10:35.99Z</time></trkpt><trkpt lat="43.93467369094077" lon="11.268637155789797"><ele>321.0</ele><time>2026-04-11T09:10:36.99Z</time></trkpt><trkpt lat="43.9347416727404" lon="11.268808775561112"><ele>321.0</ele><time>2026-04-11T09:10:37.99Z</time></trkpt><trkpt lat="43.934791854233914" lon="11.268962114676063"><ele>321.0</ele><time>2026-04-11T09:10:38.99Z</time></trkpt><trkpt lat="43.93483347171937" lon="11.269088746724863"><ele>321.0</ele><time>2026-04-11T09:10:39.99Z</time></trkpt><trkpt lat="43.9348706439173" lon="11.269191824841556"><ele>321.0</ele><time>2026-04-11T09:10:40.99Z</time></trkpt><trkpt lat="43.93487761504407" lon="11.269305035379244"><ele>319.0</ele><time>2026-04-11T09:10:41.99Z</time></trkpt><trkpt lat="43.934850658338775" lon="11.269437798288847"><ele>317.0</ele><time>2026-04-11T09:10:42.99Z</time></trkpt><trkpt lat="43.93478401305914" lon="11.26958130810368"><ele>315.0</ele><time>2026-04-11T09:10:43.99Z</time></trkpt><trkpt lat="43.934717322161454" lon="11.269727978052638"><ele>313.0</ele><time>2026-04-11T09:10:44.99Z</time></trkpt><trkpt lat="43.934648484523755" lon="11.269882462567399"><ele>313.0</ele><time>2026-04-11T09:10:45.99Z</time></trkpt><trkpt lat="43.934576609192014" lon="11.270064961657772"><ele>313.0</ele><time>2026-04-11T09:10:46.99Z</time></trkpt><trkpt lat="43.93452061430248" lon="11.270254022788684"><ele>313.0</ele><time>2026-04-11T09:10:47.99Z</time></trkpt><trkpt lat="43.93446670878688" lon="11.270438133841694"><ele>313.0</ele><time>2026-04-11T09:10:48.99Z</time></trkpt><trkpt lat="43.93444124413691" lon="11.270637671690357"><ele>315.5</ele><time>2026-04-11T09:10:49.99Z</time></trkpt><trkpt lat="43.934404306847014" lon="11.270818951093593"><ele>318.0</ele><time>2026-04-11T09:10:50.99Z</time></trkpt><trkpt lat="43.934366920567605" lon="11.27101079368692"><ele>320.5</ele><time>2026-04-11T09:10:51.99Z</time></trkpt><trkpt lat="43.93432624739847" lon="11.271209959482585"><ele>323.0</ele><time>2026-04-11T09:10:52.99Z</time></trkpt><trkpt lat="43.93428507933505" lon="11.271407028765136"><ele>325.25</ele><time>2026-04-11T09:10:53.99Z</time></trkpt><trkpt lat="43.93424430336649" lon="11.271592825997404"><ele>327.5</ele><time>2026-04-11T09:10:54.99Z</time></trkpt><trkpt lat="43.93419992068775" lon="11.271780368794165"><ele>329.75</ele><time>2026-04-11T09:10:55.99Z</time></trkpt><trkpt lat="43.93416009189055" lon="11.271948668770762"><ele>332.0</ele><time>2026-04-11T09:10:56.99Z</time></trkpt><trkpt lat="43.934116704243486" lon="11.272131039714541"><ele>327.75</ele><time>2026-04-11T09:10:57.99Z</time></trkpt><trkpt lat="43.93409224753496" lon="11.272302768516868"><ele>323.5</ele><time>2026-04-11T09:10:58.99Z</time></trkpt><trkpt lat="43.93403060265911" lon="11.272482816209259"><ele>319.25</ele><time>2026-04-11T09:10:59.99Z</time></trkpt><trkpt lat="43.93399883875161" lon="11.272680997412243"><ele>315.0</ele><time>2026-04-11T09:11:00.99Z</time></trkpt><trkpt lat="43.93395608639955" lon="11.272856318515414"><ele>315.0</ele><time>2026-04-11T09:11:01.99Z</time></trkpt><trkpt lat="43.9339094643261" lon="11.273055657031069"><ele>315.0</ele><time>2026-04-11T09:11:02.99Z</time></trkpt><trkpt lat="43.93386126923586" lon="11.27324866436905"><ele>315.0</ele><time>2026-04-11T09:11:03.99Z</time></trkpt><trkpt lat="43.93381545373506" lon="11.273427863658608"><ele>315.0</ele><time>2026-04-11T09:11:04.99Z</time></trkpt><trkpt lat="43.9337820954421" lon="11.273599849914781"><ele>314.75</ele><time>2026-04-11T09:11:05.99Z</time></trkpt><trkpt lat="43.933738877599964" lon="11.273784449789229"><ele>314.5</ele><time>2026-04-11T09:11:06.99Z</time></trkpt><trkpt lat="43.933692511473254" lon="11.273951838803624"><ele>314.25</ele><time>2026-04-11T09:11:07.99Z</time></trkpt><trkpt lat="43.93363676503627" lon="11.274136880748975"><ele>314.0</ele><time>2026-04-11T09:11:08.99Z</time></trkpt><trkpt lat="43.933595657614156" lon="11.274311629085583"><ele>314.0</ele><time>2026-04-11T09:11:09.99Z</time></trkpt><trkpt lat="43.93356491184836" lon="11.274478777886422"><ele>314.0</ele><time>2026-04-11T09:11:10.99Z</time></trkpt><trkpt lat="43.93352977724172" lon="11.27466408753597"><ele>314.0</ele><time>2026-04-11T09:11:11.99Z</time></trkpt><trkpt lat="43.933481362502015" lon="11.274836891662844"><ele>314.0</ele><time>2026-04-11T09:11:12.99Z</time></trkpt><trkpt lat="43.933451998711504" lon="11.275017467761709"><ele>315.0</ele><time>2026-04-11T09:11:13.99Z</time></trkpt><trkpt lat="43.93341504180276" lon="11.27521383765807"><ele>316.0</ele><time>2026-04-11T09:11:14.99Z</time></trkpt><trkpt lat="43.93337674762155" lon="11.275402108238492"><ele>317.0</ele><time>2026-04-11T09:11:15.99Z</time></trkpt><trkpt lat="43.933343343795144" lon="11.275596317352235"><ele>318.0</ele><time>2026-04-11T09:11:16.99Z</time></trkpt><trkpt lat="43.93329442208685" lon="11.275781275384473"><ele>311.75</ele><time>2026-04-11T09:11:17.99Z</time></trkpt><trkpt lat="43.93325081291996" lon="11.275959001662061"><ele>305.5</ele><time>2026-04-11T09:11:18.99Z</time></trkpt><trkpt lat="43.93320248242493" lon="11.276144567584245"><ele>299.25</ele><time>2026-04-11T09:11:19.99Z</time></trkpt><trkpt lat="43.933141593621244" lon="11.2763356395189"><ele>293.0</ele><time>2026-04-11T09:11:20.99Z</time></trkpt><trkpt lat="43.93306938948111" lon="11.276517746889"><ele>292.75</ele><time>2026-04-11T09:11:21.99Z</time></trkpt><trkpt lat="43.933010052717734" lon="11.276691949605938"><ele>292.5</ele><time>2026-04-11T09:11:22.99Z</time></trkpt><trkpt lat="43.9329482264864" lon="11.276849105011792"><ele>292.25</ele><time>2026-04-11T09:11:23.99Z</time></trkpt><trkpt lat="43.932859896923354" lon="11.277016346659735"><ele>292.0</ele><time>2026-04-11T09:11:24.99Z</time></trkpt><trkpt lat="43.93274880425948" lon="11.277174025314771"><ele>292.25</ele><time>2026-04-11T09:11:25.99Z</time></trkpt><trkpt lat="43.93264996914905" lon="11.277306142316126"><ele>292.5</ele><time>2026-04-11T09:11:26.99Z</time></trkpt><trkpt lat="43.93254863915468" lon="11.277447340338261"><ele>292.75</ele><time>2026-04-11T09:11:27.99Z</time></trkpt><trkpt lat="43.93244607039224" lon="11.277569270975052"><ele>293.0</ele><time>2026-04-11T09:11:28.99Z</time></trkpt><trkpt lat="43.932365616503205" lon="11.277664906235035"><ele>293.4</ele><time>2026-04-11T09:11:29.99Z</time></trkpt><trkpt lat="43.932319090166644" lon="11.277773190592077"><ele>293.8</ele><time>2026-04-11T09:11:30.99Z</time></trkpt><trkpt lat="43.93226947015645" lon="11.277882460234325"><ele>294.2</ele><time>2026-04-11T09:11:31.99Z</time></trkpt><trkpt lat="43.93220818809944" lon="11.278018434494244"><ele>294.6</ele><time>2026-04-11T09:11:32.99Z</time></trkpt><trkpt lat="43.93213456642382" lon="11.27818570579948"><ele>295.0</ele><time>2026-04-11T09:11:33.99Z</time></trkpt><trkpt lat="43.932022333612515" lon="11.278344001748387"><ele>295.0</ele><time>2026-04-11T09:11:34.99Z</time></trkpt><trkpt lat="43.93190664536405" lon="11.278493788458086"><ele>295.0</ele><time>2026-04-11T09:11:35.99Z</time></trkpt><trkpt lat="43.931794426626716" lon="11.278620262182981"><ele>295.0</ele><time>2026-04-11T09:11:36.99Z</time></trkpt><trkpt lat="43.93169389610259" lon="11.278738353184979"><ele>295.0</ele><time>2026-04-11T09:11:37.99Z</time></trkpt><trkpt lat="43.931605706546414" lon="11.27887321756458"><ele>292.25</ele><time>2026-04-11T09:11:38.99Z</time></trkpt><trkpt lat="43.931520587813274" lon="11.279012909195854"><ele>289.5</ele><time>2026-04-11T09:11:39.99Z</time></trkpt><trkpt lat="43.93142635980169" lon="11.279135568500708"><ele>286.75</ele><time>2026-04-11T09:11:40.99Z</time></trkpt><trkpt lat="43.93134054061387" lon="11.279169218460112"><ele>284.0</ele><time>2026-04-11T09:11:41.987Z</time></trkpt><trkpt lat="43.931199552811336" lon="11.279212807372602"><ele>284.0</ele><time>2026-04-11T09:11:42.988Z</time></trkpt><trkpt lat="43.9310821677008" lon="11.279311464666508"><ele>284.0</ele><time>2026-04-11T09:11:43.988Z</time></trkpt><trkpt lat="43.93095941764643" lon="11.279394337947014"><ele>284.0</ele><time>2026-04-11T09:11:44.988Z</time></trkpt><trkpt lat="43.93082868842731" lon="11.279506348578614"><ele>284.0</ele><time>2026-04-11T09:11:45.988Z</time></trkpt><trkpt lat="43.93071181205978" lon="11.279624804405797"><ele>283.5</ele><time>2026-04-11T09:11:46.988Z</time></trkpt><trkpt lat="43.930614583950195" lon="11.279743369038318"><ele>283.0</ele><time>2026-04-11T09:11:47.987Z</time></trkpt><trkpt lat="43.930511521473946" lon="11.279872515614917"><ele>282.5</ele><time>2026-04-11T09:11:48.987Z</time></trkpt><trkpt lat="43.93046298986197" lon="11.280024491227426"><ele>282.0</ele><time>2026-04-11T09:11:49.987Z</time></trkpt><trkpt lat="43.930379597534596" lon="11.280150478199246"><ele>282.0</ele><time>2026-04-11T09:11:50.988Z</time></trkpt><trkpt lat="43.930257913232445" lon="11.280194865695286"><ele>282.0</ele><time>2026-04-11T09:11:51.988Z</time></trkpt><trkpt lat="43.93019267736592" lon="11.280230754373687"><ele>282.0</ele><time>2026-04-11T09:11:52.988Z</time></trkpt><trkpt lat="43.930124603389025" lon="11.280270301874463"><ele>282.0</ele><time>2026-04-11T09:11:53.987Z</time></trkpt><trkpt lat="43.930054853669176" lon="11.280317789859897"><ele>282.0</ele><time>2026-04-11T09:11:54.987Z</time></trkpt><trkpt lat="43.9299987543386" lon="11.280386016973361"><ele>282.0</ele><time>2026-04-11T09:11:55.987Z</time></trkpt><trkpt lat="43.92988325877933" lon="11.280492321055407"><ele>282.0</ele><time>2026-04-11T09:11:56.987Z</time></trkpt><trkpt lat="43.929776049757876" lon="11.280594232091287"><ele>282.0</ele><time>2026-04-11T09:11:57.987Z</time></trkpt><trkpt lat="43.929676525581044" lon="11.280726599917287"><ele>282.0</ele><time>2026-04-11T09:11:58.987Z</time></trkpt><trkpt lat="43.92959226787115" lon="11.280884561316388"><ele>282.0</ele><time>2026-04-11T09:11:59.987Z</time></trkpt><trkpt lat="43.9294866333273" lon="11.281040875027909"><ele>280.75</ele><time>2026-04-11T09:12:00.987Z</time></trkpt><trkpt lat="43.92938703071204" lon="11.28118834451872"><ele>279.5</ele><time>2026-04-11T09:12:01.987Z</time></trkpt><trkpt lat="43.92927144273026" lon="11.281332399739394"><ele>278.25</ele><time>2026-04-11T09:12:02.987Z</time></trkpt><trkpt lat="43.92920435432951" lon="11.281479981674414"><ele>277.0</ele><time>2026-04-11T09:12:03.987Z</time></trkpt><trkpt lat="43.929092800722024" lon="11.281646485157298"><ele>276.66666666666663</ele><time>2026-04-11T09:12:04.987Z</time></trkpt><trkpt lat="43.92899896145702" lon="11.28181070864439"><ele>276.3333333333333</ele><time>2026-04-11T09:12:05.987Z</time></trkpt><trkpt lat="43.928888836952176" lon="11.281962083977565"><ele>276.0</ele><time>2026-04-11T09:12:06.987Z</time></trkpt><trkpt lat="43.92877955111168" lon="11.282133837589216"><ele>275.6666666666667</ele><time>2026-04-11T09:12:07.987Z</time></trkpt><trkpt lat="43.928671511398626" lon="11.282307357096172"><ele>275.33333333333337</ele><time>2026-04-11T09:12:08.987Z</time></trkpt><trkpt lat="43.92857307218106" lon="11.282502518815551"><ele>275.0</ele><time>2026-04-11T09:12:09.987Z</time></trkpt><trkpt lat="43.92844439057191" lon="11.282678977819906"><ele>274.0</ele><time>2026-04-11T09:12:10.987Z</time></trkpt><trkpt lat="43.92833134697445" lon="11.282864008765724"><ele>273.0</ele><time>2026-04-11T09:12:11.987Z</time></trkpt><trkpt lat="43.9282202323285" lon="11.283045406631484"><ele>272.0</ele><time>2026-04-11T09:12:12.987Z</time></trkpt><trkpt lat="43.92811478288702" lon="11.283217200204064"><ele>272.0</ele><time>2026-04-11T09:12:13.988Z</time></trkpt><trkpt lat="43.92801089307166" lon="11.283390001261225"><ele>272.0</ele><time>2026-04-11T09:12:14.988Z</time></trkpt><trkpt lat="43.9279068638198" lon="11.283574150534522"><ele>272.0</ele><time>2026-04-11T09:12:15.988Z</time></trkpt><trkpt lat="43.92781006650756" lon="11.283751296590015"><ele>272.33333333333337</ele><time>2026-04-11T09:12:16.988Z</time></trkpt><trkpt lat="43.927706825451175" lon="11.283940235079431"><ele>272.6666666666667</ele><time>2026-04-11T09:12:17.988Z</time></trkpt><trkpt lat="43.92760492933605" lon="11.284127177773525"><ele>273.0</ele><time>2026-04-11T09:12:18.988Z</time></trkpt><trkpt lat="43.92752235390922" lon="11.284311977943622"><ele>272.0</ele><time>2026-04-11T09:12:19.988Z</time></trkpt><trkpt lat="43.9274288100664" lon="11.284490946480835"><ele>271.0</ele><time>2026-04-11T09:12:20.988Z</time></trkpt><trkpt lat="43.92733279372927" lon="11.284670779289627"><ele>270.0</ele><time>2026-04-11T09:12:21.988Z</time></trkpt><trkpt lat="43.92722849739072" lon="11.284850777949941"><ele>269.0</ele><time>2026-04-11T09:12:22.988Z</time></trkpt><trkpt lat="43.92711911049364" lon="11.285030143914314"><ele>268.0</ele><time>2026-04-11T09:12:23.988Z</time></trkpt><trkpt lat="43.92701439281837" lon="11.285201164607464"><ele>267.0</ele><time>2026-04-11T09:12:24.988Z</time></trkpt><trkpt lat="43.92691201189194" lon="11.285368463453121"><ele>267.0</ele><time>2026-04-11T09:12:25.988Z</time></trkpt><trkpt lat="43.92679212329641" lon="11.285516644007007"><ele>267.0</ele><time>2026-04-11T09:12:26.988Z</time></trkpt><trkpt lat="43.92668320367785" lon="11.285677027805974"><ele>267.0</ele><time>2026-04-11T09:12:27.988Z</time></trkpt><trkpt lat="43.92656940496742" lon="11.285864488005478"><ele>266.6666666666667</ele><time>2026-04-11T09:12:28.988Z</time></trkpt><trkpt lat="43.92642668095217" lon="11.286009993749031"><ele>266.33333333333337</ele><time>2026-04-11T09:12:29.988Z</time></trkpt><trkpt lat="43.9262980535863" lon="11.28614156848758"><ele>266.0</ele><time>2026-04-11T09:12:30.988Z</time></trkpt><trkpt lat="43.92618774773406" lon="11.286255817215707"><ele>266.0</ele><time>2026-04-11T09:12:31.988Z</time></trkpt><trkpt lat="43.92610089691809" lon="11.286360642815245"><ele>266.0</ele><time>2026-04-11T09:12:32.988Z</time></trkpt><trkpt lat="43.926032612586724" lon="11.28649300859134"><ele>266.0</ele><time>2026-04-11T09:12:33.988Z</time></trkpt><trkpt lat="43.92599484673195" lon="11.286622875638923"><ele>266.0</ele><time>2026-04-11T09:12:34.988Z</time></trkpt><trkpt lat="43.92601008500762" lon="11.286762233077832"><ele>266.0</ele><time>2026-04-11T09:12:35.988Z</time></trkpt><trkpt lat="43.926016712447854" lon="11.286906915802978"><ele>266.0</ele><time>2026-04-11T09:12:36.988Z</time></trkpt><trkpt lat="43.92604224996258" lon="11.287055303759686"><ele>266.0</ele><time>2026-04-11T09:12:37.988Z</time></trkpt><trkpt lat="43.92608479070398" lon="11.287226726192522"><ele>266.0</ele><time>2026-04-11T09:12:38.988Z</time></trkpt><trkpt lat="43.92614824401584" lon="11.28740125566329"><ele>266.0</ele><time>2026-04-11T09:12:39.988Z</time></trkpt><trkpt lat="43.926186089926745" lon="11.28760895513652"><ele>267.0</ele><time>2026-04-11T09:12:40.988Z</time></trkpt><trkpt lat="43.92623693108014" lon="11.287807245878389"><ele>268.0</ele><time>2026-04-11T09:12:41.988Z</time></trkpt><trkpt lat="43.92629803662127" lon="11.28798348475096"><ele>269.0</ele><time>2026-04-11T09:12:42.988Z</time></trkpt><trkpt lat="43.92636942644004" lon="11.288154412296402"><ele>270.0</ele><time>2026-04-11T09:12:43.988Z</time></trkpt><trkpt lat="43.92639548610196" lon="11.28835766074023"><ele>270.3333333333333</ele><time>2026-04-11T09:12:44.988Z</time></trkpt><trkpt lat="43.926424714514376" lon="11.288584226256383"><ele>270.66666666666663</ele><time>2026-04-11T09:12:45.988Z</time></trkpt><trkpt lat="43.9264375431904" lon="11.288821508929397"><ele>271.0</ele><time>2026-04-11T09:12:46.988Z</time></trkpt><trkpt lat="43.92644829610436" lon="11.289028412977194"><ele>271.0</ele><time>2026-04-11T09:12:47.988Z</time></trkpt><trkpt lat="43.92644892190032" lon="11.289179783594909"><ele>271.0</ele><time>2026-04-11T09:12:48.988Z</time></trkpt><trkpt lat="43.92642170900032" lon="11.289308350126008"><ele>271.0</ele><time>2026-04-11T09:12:49.988Z</time></trkpt><trkpt lat="43.92633602777602" lon="11.289395006053818"><ele>271.0</ele><time>2026-04-11T09:12:50.988Z</time></trkpt><trkpt lat="43.92626355376227" lon="11.28951083778203"><ele>271.0</ele><time>2026-04-11T09:12:51.988Z</time></trkpt><trkpt lat="43.926198679779084" lon="11.289587574764555"><ele>271.0</ele><time>2026-04-11T09:12:52.988Z</time></trkpt><trkpt lat="43.92612621108543" lon="11.289684132855959"><ele>271.0</ele><time>2026-04-11T09:12:54.988Z</time></trkpt><trkpt lat="43.926079968797225" lon="11.28975821703559"><ele>271.0</ele><time>2026-04-11T09:14:47.986Z</time></trkpt><trkpt lat="43.92611043270516" lon="11.289956869199976"><ele>271.0</ele><time>2026-04-11T09:14:57.986Z</time></trkpt><trkpt lat="43.92621848820654" lon="11.29005921887149"><ele>271.0</ele><time>2026-04-11T09:14:59.986Z</time></trkpt><trkpt lat="43.92629268914874" lon="11.290129151491112"><ele>268.5</ele><time>2026-04-11T09:15:00.986Z</time></trkpt><trkpt lat="43.92637758009433" lon="11.290208147024842"><ele>266.0</ele><time>2026-04-11T09:15:01.986Z</time></trkpt><trkpt lat="43.92647696863117" lon="11.290273069572768"><ele>263.5</ele><time>2026-04-11T09:15:02.986Z</time></trkpt><trkpt lat="43.92657368200679" lon="11.290366248598756"><ele>261.0</ele><time>2026-04-11T09:15:03.986Z</time></trkpt><trkpt lat="43.926668729791466" lon="11.290471469675007"><ele>261.25</ele><time>2026-04-11T09:15:04.986Z</time></trkpt><trkpt lat="43.92677136668828" lon="11.29055960078499"><ele>261.5</ele><time>2026-04-11T09:15:05.986Z</time></trkpt><trkpt lat="43.926885674421364" lon="11.290629253794702"><ele>261.75</ele><time>2026-04-11T09:15:06.986Z</time></trkpt><trkpt lat="43.92700728999646" lon="11.290688801741602"><ele>262.0</ele><time>2026-04-11T09:15:07.986Z</time></trkpt><trkpt lat="43.927146721015774" lon="11.290718877141964"><ele>259.0</ele><time>2026-04-11T09:15:08.986Z</time></trkpt><trkpt lat="43.92730200047322" lon="11.290733239841638"><ele>256.0</ele><time>2026-04-11T09:15:09.986Z</time></trkpt><trkpt lat="43.92745118545008" lon="11.290723125595509"><ele>253.0</ele><time>2026-04-11T09:15:10.986Z</time></trkpt><trkpt lat="43.92761110607583" lon="11.290673256826175"><ele>253.0</ele><time>2026-04-11T09:15:11.986Z</time></trkpt><trkpt lat="43.92776960203254" lon="11.290615058971014"><ele>253.0</ele><time>2026-04-11T09:15:12.986Z</time></trkpt><trkpt lat="43.92793374983739" lon="11.290544212831554"><ele>253.0</ele><time>2026-04-11T09:15:13.986Z</time></trkpt><trkpt lat="43.928100224991326" lon="11.29046451567133"><ele>256.66666666666663</ele><time>2026-04-11T09:15:14.986Z</time></trkpt><trkpt lat="43.92826665573502" lon="11.290387742099805"><ele>260.3333333333333</ele><time>2026-04-11T09:15:15.986Z</time></trkpt><trkpt lat="43.928423936974426" lon="11.29030934488467"><ele>264.0</ele><time>2026-04-11T09:15:16.986Z</time></trkpt><trkpt lat="43.92858380540123" lon="11.290241414119054"><ele>267.3333333333333</ele><time>2026-04-11T09:15:17.986Z</time></trkpt><trkpt lat="43.92873965617425" lon="11.29017535542353"><ele>270.66666666666663</ele><time>2026-04-11T09:15:18.986Z</time></trkpt><trkpt lat="43.92889022088267" lon="11.29012591211148"><ele>274.0</ele><time>2026-04-11T09:15:19.986Z</time></trkpt><trkpt lat="43.92904404241136" lon="11.29011332655952"><ele>274.0</ele><time>2026-04-11T09:15:20.986Z</time></trkpt><trkpt lat="43.929199694974464" lon="11.290134002734526"><ele>274.0</ele><time>2026-04-11T09:15:21.986Z</time></trkpt><trkpt lat="43.92932662843667" lon="11.290201243714783"><ele>274.0</ele><time>2026-04-11T09:15:22.986Z</time></trkpt><trkpt lat="43.92948551108277" lon="11.290272488011283"><ele>276.0</ele><time>2026-04-11T09:15:23.986Z</time></trkpt><trkpt lat="43.92964829493352" lon="11.290376180326472"><ele>278.0</ele><time>2026-04-11T09:15:24.986Z</time></trkpt><trkpt lat="43.92980810376872" lon="11.290479826027193"><ele>280.0</ele><time>2026-04-11T09:15:25.986Z</time></trkpt><trkpt lat="43.92996182383525" lon="11.290579120957306"><ele>275.3333333333333</ele><time>2026-04-11T09:15:26.986Z</time></trkpt><trkpt lat="43.93011742832914" lon="11.290673367128367"><ele>270.6666666666667</ele><time>2026-04-11T09:15:27.986Z</time></trkpt><trkpt lat="43.9302632704426" lon="11.2907719371821"><ele>266.0</ele><time>2026-04-11T09:15:28.986Z</time></trkpt><trkpt lat="43.930423560860106" lon="11.290877610514029"><ele>266.0</ele><time>2026-04-11T09:15:29.986Z</time></trkpt><trkpt lat="43.93055617326128" lon="11.29099337446283"><ele>266.0</ele><time>2026-04-11T09:15:30.986Z</time></trkpt><trkpt lat="43.930685034547764" lon="11.291131287720827"><ele>266.0</ele><time>2026-04-11T09:15:31.986Z</time></trkpt><trkpt lat="43.93081019943894" lon="11.29126849250277"><ele>266.6666666666667</ele><time>2026-04-11T09:15:32.986Z</time></trkpt><trkpt lat="43.93093679369068" lon="11.291401580116933"><ele>267.3333333333333</ele><time>2026-04-11T09:15:33.987Z</time></trkpt><trkpt lat="43.93105595357276" lon="11.291555261468229"><ele>268.0</ele><time>2026-04-11T09:15:34.987Z</time></trkpt><trkpt lat="43.931163920046664" lon="11.291723393904345"><ele>268.0</ele><time>2026-04-11T09:15:35.987Z</time></trkpt><trkpt lat="43.93127165224316" lon="11.291873846142009"><ele>268.0</ele><time>2026-04-11T09:15:36.987Z</time></trkpt><trkpt lat="43.93138547952388" lon="11.291996601266993"><ele>268.0</ele><time>2026-04-11T09:15:37.987Z</time></trkpt><trkpt lat="43.93148741607663" lon="11.292134506078199"><ele>268.0</ele><time>2026-04-11T09:15:38.987Z</time></trkpt><trkpt lat="43.93158870561992" lon="11.29227204535101"><ele>266.5</ele><time>2026-04-11T09:15:39.987Z</time></trkpt><trkpt lat="43.93169197173517" lon="11.292405809918272"><ele>265.0</ele><time>2026-04-11T09:15:40.987Z</time></trkpt><trkpt lat="43.931797639472876" lon="11.292545931263898"><ele>263.5</ele><time>2026-04-11T09:15:41.987Z</time></trkpt><trkpt lat="43.93190525111365" lon="11.29268508518077"><ele>262.0</ele><time>2026-04-11T09:15:42.987Z</time></trkpt><trkpt lat="43.93201150984567" lon="11.292823157047154"><ele>263.5</ele><time>2026-04-11T09:15:43.987Z</time></trkpt><trkpt lat="43.93211722196011" lon="11.292963964516085"><ele>265.0</ele><time>2026-04-11T09:15:44.987Z</time></trkpt><trkpt lat="43.932228980817335" lon="11.293096688876988"><ele>266.5</ele><time>2026-04-11T09:15:45.987Z</time></trkpt><trkpt lat="43.93233728315449" lon="11.293239812215772"><ele>268.0</ele><time>2026-04-11T09:15:46.987Z</time></trkpt><trkpt lat="43.93243805725015" lon="11.293400289584902"><ele>272.66666666666663</ele><time>2026-04-11T09:15:47.987Z</time></trkpt><trkpt lat="43.93256089335391" lon="11.293534326620732"><ele>277.3333333333333</ele><time>2026-04-11T09:15:48.987Z</time></trkpt><trkpt lat="43.93266356712875" lon="11.293702842800121"><ele>282.0</ele><time>2026-04-11T09:15:49.987Z</time></trkpt><trkpt lat="43.93278398678628" lon="11.293861874731336"><ele>277.6666666666667</ele><time>2026-04-11T09:15:50.987Z</time></trkpt><trkpt lat="43.93290482276758" lon="11.294010998933075"><ele>273.33333333333337</ele><time>2026-04-11T09:15:51.987Z</time></trkpt><trkpt lat="43.93301697914153" lon="11.294165103778205"><ele>269.0</ele><time>2026-04-11T09:15:52.987Z</time></trkpt><trkpt lat="43.9331244112164" lon="11.294320652554736"><ele>269.0</ele><time>2026-04-11T09:15:53.986Z</time></trkpt><trkpt lat="43.93322261246557" lon="11.294472868238447"><ele>269.0</ele><time>2026-04-11T09:15:54.985Z</time></trkpt><trkpt lat="43.93331432526502" lon="11.294615155433961"><ele>269.0</ele><time>2026-04-11T09:15:55.985Z</time></trkpt><trkpt lat="43.93340407900074" lon="11.294762344563825"><ele>269.0</ele><time>2026-04-11T09:15:56.986Z</time></trkpt><trkpt lat="43.93348473415941" lon="11.29490830845644"><ele>269.25</ele><time>2026-04-11T09:15:57.985Z</time></trkpt><trkpt lat="43.933561801345896" lon="11.295041776177802"><ele>269.5</ele><time>2026-04-11T09:15:58.985Z</time></trkpt><trkpt lat="43.933637032482395" lon="11.29516914609878"><ele>269.75</ele><time>2026-04-11T09:15:59.985Z</time></trkpt><trkpt lat="43.933698272041994" lon="11.295307910719032"><ele>270.0</ele><time>2026-04-11T09:16:00.985Z</time></trkpt><trkpt lat="43.93376750605453" lon="11.295419650562419"><ele>270.0</ele><time>2026-04-11T09:16:01.985Z</time></trkpt><trkpt lat="43.93383670002018" lon="11.295527501054593"><ele>270.0</ele><time>2026-04-11T09:16:02.985Z</time></trkpt><trkpt lat="43.93389228305302" lon="11.295618973187555"><ele>270.0</ele><time>2026-04-11T09:16:03.985Z</time></trkpt><trkpt lat="43.933935382907435" lon="11.295713728796796"><ele>270.0</ele><time>2026-04-11T09:16:04.985Z</time></trkpt><trkpt lat="43.93398946041914" lon="11.29578931084286"><ele>270.0</ele><time>2026-04-11T09:16:06.986Z</time></trkpt><trkpt lat="43.93408439660275" lon="11.295655920809029"><ele>270.0</ele><time>2026-04-11T09:16:08.986Z</time></trkpt><trkpt lat="43.9340655304521" lon="11.29548891940134"><ele>270.0</ele><time>2026-04-11T09:16:10.986Z</time></trkpt><trkpt lat="43.93405571933119" lon="11.295400526926244"><ele>270.0</ele><time>2026-04-11T09:16:11.986Z</time></trkpt><trkpt lat="43.93409822608906" lon="11.295239963672623"><ele>270.0</ele><time>2026-04-11T09:16:13.986Z</time></trkpt><trkpt lat="43.934139019994205" lon="11.295165545070217"><ele>270.0</ele><time>2026-04-11T09:16:14.986Z</time></trkpt><trkpt lat="43.934199774975255" lon="11.295115433969595"><ele>270.0</ele><time>2026-04-11T09:16:15.986Z</time></trkpt><trkpt lat="43.93425898198548" lon="11.295045802788984"><ele>273.4</ele><time>2026-04-11T09:16:16.986Z</time></trkpt><trkpt lat="43.934320847923594" lon="11.294966497733233"><ele>276.8</ele><time>2026-04-11T09:16:17.986Z</time></trkpt><trkpt lat="43.93437493335011" lon="11.294866479996845"><ele>280.2</ele><time>2026-04-11T09:16:18.986Z</time></trkpt><trkpt lat="43.934420961911556" lon="11.29476128698051"><ele>283.6</ele><time>2026-04-11T09:16:19.986Z</time></trkpt><trkpt lat="43.934437829207205" lon="11.29462817413216"><ele>287.0</ele><time>2026-04-11T09:16:20.986Z</time></trkpt><trkpt lat="43.934477004080044" lon="11.29450976919898"><ele>287.2</ele><time>2026-04-11T09:16:21.986Z</time></trkpt><trkpt lat="43.93449967410322" lon="11.294395237660321"><ele>287.4</ele><time>2026-04-11T09:16:22.986Z</time></trkpt><trkpt lat="43.934518683067765" lon="11.294263975242567"><ele>287.6</ele><time>2026-04-11T09:16:23.986Z</time></trkpt><trkpt lat="43.93456195286198" lon="11.294131909350629"><ele>287.8</ele><time>2026-04-11T09:16:24.986Z</time></trkpt><trkpt lat="43.934593192516225" lon="11.29400743735896"><ele>288.0</ele><time>2026-04-11T09:16:25.986Z</time></trkpt><trkpt lat="43.93462498698976" lon="11.293870019182044"><ele>288.8</ele><time>2026-04-11T09:16:26.986Z</time></trkpt><trkpt lat="43.93465612080846" lon="11.293727602786696"><ele>289.6</ele><time>2026-04-11T09:16:27.986Z</time></trkpt><trkpt lat="43.93467708015886" lon="11.293565005413493"><ele>290.4</ele><time>2026-04-11T09:16:28.986Z</time></trkpt><trkpt lat="43.934721732639844" lon="11.293437938251545"><ele>291.2</ele><time>2026-04-11T09:16:29.986Z</time></trkpt><trkpt lat="43.93473863180861" lon="11.293307969716821"><ele>292.0</ele><time>2026-04-11T09:16:30.986Z</time></trkpt><trkpt lat="43.934768138910826" lon="11.293199326767642"><ele>292.0</ele><time>2026-04-11T09:16:31.986Z</time></trkpt><trkpt lat="43.934814144458976" lon="11.29309998757474"><ele>292.0</ele><time>2026-04-11T09:16:32.986Z</time></trkpt><trkpt lat="43.93492415156717" lon="11.293050958551545"><ele>292.0</ele><time>2026-04-11T09:16:34.986Z</time></trkpt><trkpt lat="43.9350030204974" lon="11.293029024720902"><ele>292.0</ele><time>2026-04-11T09:16:35.986Z</time></trkpt><trkpt lat="43.93510101922341" lon="11.29299500342534"><ele>292.0</ele><time>2026-04-11T09:16:36.986Z</time></trkpt><trkpt lat="43.935198734981455" lon="11.292950599847178"><ele>295.8</ele><time>2026-04-11T09:16:37.986Z</time></trkpt><trkpt lat="43.93529385692245" lon="11.292916719646495"><ele>299.6</ele><time>2026-04-11T09:16:38.986Z</time></trkpt><trkpt lat="43.93539844032121" lon="11.292862479551486"><ele>303.40000000000003</ele><time>2026-04-11T09:16:39.986Z</time></trkpt><trkpt lat="43.93550996271134" lon="11.29279953235328"><ele>307.2</ele><time>2026-04-11T09:16:40.986Z</time></trkpt><trkpt lat="43.935612210129115" lon="11.292749019393604"><ele>311.0</ele><time>2026-04-11T09:16:41.986Z</time></trkpt><trkpt lat="43.93572784552271" lon="11.29270036504955"><ele>311.0</ele><time>2026-04-11T09:16:42.986Z</time></trkpt><trkpt lat="43.935841536615506" lon="11.292656928690176"><ele>311.0</ele><time>2026-04-11T09:16:43.986Z</time></trkpt><trkpt lat="43.935944000271384" lon="11.292620554931393"><ele>311.0</ele><time>2026-04-11T09:16:44.986Z</time></trkpt><trkpt lat="43.93603071502291" lon="11.292593707795843"><ele>311.0</ele><time>2026-04-11T09:16:45.986Z</time></trkpt><trkpt lat="43.93609681767411" lon="11.292552898223471"><ele>311.0</ele><time>2026-04-11T09:16:46.986Z</time></trkpt><trkpt lat="43.93615808415332" lon="11.292407613942693"><ele>312.2</ele><time>2026-04-11T09:16:48.986Z</time></trkpt><trkpt lat="43.936171218661364" lon="11.292295341676251"><ele>313.40000000000003</ele><time>2026-04-11T09:16:49.986Z</time></trkpt><trkpt lat="43.936174977525496" lon="11.29217550832346"><ele>314.6</ele><time>2026-04-11T09:16:50.986Z</time></trkpt><trkpt lat="43.93628643607676" lon="11.29207706087239"><ele>315.8</ele><time>2026-04-11T09:16:52.986Z</time></trkpt><trkpt lat="43.93634366804757" lon="11.292016515340004"><ele>317.0</ele><time>2026-04-11T09:16:53.986Z</time></trkpt><trkpt lat="43.93642248820256" lon="11.291985317008072"><ele>320.0</ele><time>2026-04-11T09:16:54.986Z</time></trkpt><trkpt lat="43.93651985461526" lon="11.291941218116863"><ele>323.0</ele><time>2026-04-11T09:16:55.986Z</time></trkpt><trkpt lat="43.93661644009347" lon="11.29189149300035"><ele>326.0</ele><time>2026-04-11T09:16:56.986Z</time></trkpt><trkpt lat="43.936704540502284" lon="11.291858100865783"><ele>329.0</ele><time>2026-04-11T09:16:57.986Z</time></trkpt><trkpt lat="43.936796072056026" lon="11.291844900264518"><ele>332.0</ele><time>2026-04-11T09:16:58.986Z</time></trkpt><trkpt lat="43.93687358587587" lon="11.291844005311914"><ele>332.6</ele><time>2026-04-11T09:16:59.986Z</time></trkpt><trkpt lat="43.9369386019433" lon="11.291883242888385"><ele>333.20000000000005</ele><time>2026-04-11T09:17:00.986Z</time></trkpt><trkpt lat="43.93702375582164" lon="11.291918906808283"><ele>333.8</ele><time>2026-04-11T09:17:01.986Z</time></trkpt><trkpt lat="43.93708442073308" lon="11.291996590848823"><ele>334.4</ele><time>2026-04-11T09:17:02.986Z</time></trkpt><trkpt lat="43.9371702076277" lon="11.29198280804632"><ele>335.0</ele><time>2026-04-11T09:17:04.986Z</time></trkpt><trkpt lat="43.937223095601425" lon="11.291794792937498"><ele>335.0</ele><time>2026-04-11T09:17:06.986Z</time></trkpt><trkpt lat="43.93723267517702" lon="11.291673120288639"><ele>335.0</ele><time>2026-04-11T09:17:07.986Z</time></trkpt><trkpt lat="43.93724953248851" lon="11.291528275283353"><ele>335.0</ele><time>2026-04-11T09:17:08.986Z</time></trkpt><trkpt lat="43.93724600218596" lon="11.291388403588494"><ele>335.0</ele><time>2026-04-11T09:17:09.986Z</time></trkpt><trkpt lat="43.93723574525675" lon="11.291243538913308"><ele>335.0</ele><time>2026-04-11T09:17:10.986Z</time></trkpt><trkpt lat="43.93719523481157" lon="11.291090246117674"><ele>336.5</ele><time>2026-04-11T09:17:11.986Z</time></trkpt><trkpt lat="43.93714916559012" lon="11.290927649912678"><ele>338.0</ele><time>2026-04-11T09:17:12.986Z</time></trkpt><trkpt lat="43.93709493617678" lon="11.29073875520977"><ele>339.5</ele><time>2026-04-11T09:17:13.986Z</time></trkpt><trkpt lat="43.937044387947516" lon="11.290548261517708"><ele>341.0</ele><time>2026-04-11T09:17:14.986Z</time></trkpt><trkpt lat="43.93699429316005" lon="11.290371455499761"><ele>342.4</ele><time>2026-04-11T09:17:15.986Z</time></trkpt><trkpt lat="43.936954091254194" lon="11.290214293414145"><ele>343.8</ele><time>2026-04-11T09:17:16.986Z</time></trkpt><trkpt lat="43.93690425366226" lon="11.290081031947079"><ele>345.2</ele><time>2026-04-11T09:17:17.986Z</time></trkpt><trkpt lat="43.9369154103735" lon="11.28996575302756"><ele>346.59999999999997</ele><time>2026-04-11T09:17:18.986Z</time></trkpt><trkpt lat="43.936924553963316" lon="11.289850937443406"><ele>348.0</ele><time>2026-04-11T09:17:20.986Z</time></trkpt><trkpt lat="43.93705525136755" lon="11.289719612051465"><ele>349.75</ele><time>2026-04-11T09:17:22.986Z</time></trkpt><trkpt lat="43.937152386570865" lon="11.289743995872994"><ele>351.5</ele><time>2026-04-11T09:17:23.986Z</time></trkpt><trkpt lat="43.93726515897984" lon="11.289746441756414"><ele>353.25</ele><time>2026-04-11T09:17:24.986Z</time></trkpt><trkpt lat="43.93739748908374" lon="11.289755742364193"><ele>355.0</ele><time>2026-04-11T09:17:25.986Z</time></trkpt><trkpt lat="43.93752515836629" lon="11.289715397532825"><ele>357.4</ele><time>2026-04-11T09:17:26.986Z</time></trkpt><trkpt lat="43.937626312574814" lon="11.289628493211799"><ele>359.8</ele><time>2026-04-11T09:17:27.986Z</time></trkpt><trkpt lat="43.937701012472786" lon="11.2895395817018"><ele>362.20000000000005</ele><time>2026-04-11T09:17:28.986Z</time></trkpt><trkpt lat="43.93779857737249" lon="11.289414693284536"><ele>364.6</ele><time>2026-04-11T09:17:29.986Z</time></trkpt><trkpt lat="43.93787391932132" lon="11.289329628259832"><ele>367.0</ele><time>2026-04-11T09:17:30.986Z</time></trkpt><trkpt lat="43.937947456731216" lon="11.289255862977406"><ele>367.0</ele><time>2026-04-11T09:17:31.986Z</time></trkpt><trkpt lat="43.93801839578892" lon="11.289242770055361"><ele>367.0</ele><time>2026-04-11T09:17:32.986Z</time></trkpt><trkpt lat="43.93809364882704" lon="11.289265279811044"><ele>367.0</ele><time>2026-04-11T09:17:33.986Z</time></trkpt><trkpt lat="43.93817730990893" lon="11.289331871753573"><ele>367.0</ele><time>2026-04-11T09:17:34.986Z</time></trkpt><trkpt lat="43.93827655199109" lon="11.289396652171218"><ele>367.0</ele><time>2026-04-11T09:17:35.986Z</time></trkpt><trkpt lat="43.938351310572905" lon="11.28943927867475"><ele>367.0</ele><time>2026-04-11T09:17:36.986Z</time></trkpt><trkpt lat="43.938450882588086" lon="11.28952836980503"><ele>367.40000000000003</ele><time>2026-04-11T09:17:38.986Z</time></trkpt><trkpt lat="43.938524115510226" lon="11.28954675893601"><ele>367.8</ele><time>2026-04-11T09:17:39.986Z</time></trkpt><trkpt lat="43.93860705993989" lon="11.289616305245037"><ele>368.2</ele><time>2026-04-11T09:17:40.986Z</time></trkpt><trkpt lat="43.938683535237764" lon="11.28974273722015"><ele>368.6</ele><time>2026-04-11T09:17:41.986Z</time></trkpt><trkpt lat="43.9387814437362" lon="11.289841554554345"><ele>369.0</ele><time>2026-04-11T09:17:42.986Z</time></trkpt><trkpt lat="43.938860602987674" lon="11.289949963518831"><ele>369.0</ele><time>2026-04-11T09:17:43.986Z</time></trkpt><trkpt lat="43.93894934945924" lon="11.29000723177684"><ele>369.0</ele><time>2026-04-11T09:17:44.986Z</time></trkpt><trkpt lat="43.93902939273845" lon="11.29002143737034"><ele>369.0</ele><time>2026-04-11T09:17:45.986Z</time></trkpt><trkpt lat="43.93912994390915" lon="11.290016514693221"><ele>369.0</ele><time>2026-04-11T09:17:46.986Z</time></trkpt><trkpt lat="43.939217127679804" lon="11.289897569140114"><ele>369.0</ele><time>2026-04-11T09:17:47.986Z</time></trkpt><trkpt lat="43.93929328781878" lon="11.289776526438503"><ele>373.25</ele><time>2026-04-11T09:17:48.986Z</time></trkpt><trkpt lat="43.93937001393427" lon="11.289638999582824"><ele>377.5</ele><time>2026-04-11T09:17:49.986Z</time></trkpt><trkpt lat="43.93944824797099" lon="11.289518156803164"><ele>381.75</ele><time>2026-04-11T09:17:50.986Z</time></trkpt><trkpt lat="43.939538770586694" lon="11.289429717524714"><ele>386.0</ele><time>2026-04-11T09:17:51.986Z</time></trkpt><trkpt lat="43.93962375727191" lon="11.289354009104251"><ele>386.0</ele><time>2026-04-11T09:17:52.986Z</time></trkpt><trkpt lat="43.939712027827376" lon="11.289291825794143"><ele>386.0</ele><time>2026-04-11T09:17:53.986Z</time></trkpt><trkpt lat="43.93982010983272" lon="11.28923128894653"><ele>386.0</ele><time>2026-04-11T09:17:54.986Z</time></trkpt><trkpt lat="43.93992493895348" lon="11.289205943867875"><ele>386.0</ele><time>2026-04-11T09:17:55.986Z</time></trkpt><trkpt lat="43.940031297546625" lon="11.289209307932232"><ele>386.0</ele><time>2026-04-11T09:17:56.986Z</time></trkpt><trkpt lat="43.9401509211378" lon="11.28922975376071"><ele>388.20000000000005</ele><time>2026-04-11T09:17:57.986Z</time></trkpt><trkpt lat="43.94024812607349" lon="11.289269952813735"><ele>390.40000000000003</ele><time>2026-04-11T09:17:58.986Z</time></trkpt><trkpt lat="43.94032944785455" lon="11.289313365466723"><ele>392.6</ele><time>2026-04-11T09:17:59.984Z</time></trkpt><trkpt lat="43.940393755176686" lon="11.289310866850547"><ele>394.8</ele><time>2026-04-11T09:18:00.984Z</time></trkpt><trkpt lat="43.9405320923503" lon="11.289356961485682"><ele>397.0</ele><time>2026-04-11T09:18:02.984Z</time></trkpt><trkpt lat="43.94062139777192" lon="11.28938764140171"><ele>397.00000000000006</ele><time>2026-04-11T09:18:03.985Z</time></trkpt><trkpt lat="43.940692450653216" lon="11.28941205090692"><ele>397.0</ele><time>2026-04-11T09:18:04.985Z</time></trkpt><trkpt lat="43.940770797092405" lon="11.289436172236602"><ele>397.0</ele><time>2026-04-11T09:18:05.985Z</time></trkpt><trkpt lat="43.94084654938366" lon="11.289459818767545"><ele>397.0</ele><time>2026-04-11T09:18:06.984Z</time></trkpt><trkpt lat="43.940909384609874" lon="11.289478787722267"><ele>397.00000000000006</ele><time>2026-04-11T09:18:07.984Z</time></trkpt><trkpt lat="43.941006464598956" lon="11.289505240384447"><ele>397.0</ele><time>2026-04-11T09:18:08.984Z</time></trkpt><trkpt lat="43.94108963377076" lon="11.289533321819968"><ele>397.6</ele><time>2026-04-11T09:18:09.985Z</time></trkpt><trkpt lat="43.94119783872772" lon="11.289533992092702"><ele>398.20000000000005</ele><time>2026-04-11T09:18:10.985Z</time></trkpt><trkpt lat="43.94128432739735" lon="11.28952521264243"><ele>398.8</ele><time>2026-04-11T09:18:11.984Z</time></trkpt><trkpt lat="43.94138008508029" lon="11.289519314444808"><ele>399.4</ele><time>2026-04-11T09:18:12.984Z</time></trkpt><trkpt lat="43.94151134006836" lon="11.289530681503745"><ele>400.0</ele><time>2026-04-11T09:18:13.984Z</time></trkpt><trkpt lat="43.94162307897603" lon="11.289522092800667"><ele>401.8</ele><time>2026-04-11T09:18:14.984Z</time></trkpt><trkpt lat="43.94172059742981" lon="11.289513461125955"><ele>403.6</ele><time>2026-04-11T09:18:15.984Z</time></trkpt><trkpt lat="43.941839127626885" lon="11.28947952606605"><ele>405.4</ele><time>2026-04-11T09:18:16.984Z</time></trkpt><trkpt lat="43.94193482779018" lon="11.289456612377451"><ele>407.2</ele><time>2026-04-11T09:18:17.984Z</time></trkpt><trkpt lat="43.942023770024235" lon="11.289441237490369"><ele>409.0</ele><time>2026-04-11T09:18:18.984Z</time></trkpt><trkpt lat="43.94210493672431" lon="11.289438806588581"><ele>409.00000000000006</ele><time>2026-04-11T09:18:19.984Z</time></trkpt><trkpt lat="43.94218328856544" lon="11.289446582854621"><ele>409.0</ele><time>2026-04-11T09:18:20.984Z</time></trkpt><trkpt lat="43.94225256912929" lon="11.289460476277384"><ele>409.0</ele><time>2026-04-11T09:18:21.984Z</time></trkpt><trkpt lat="43.94231222873707" lon="11.289507280751959"><ele>409.0</ele><time>2026-04-11T09:18:22.984Z</time></trkpt><trkpt lat="43.94236631084105" lon="11.289598276124"><ele>409.00000000000006</ele><time>2026-04-11T09:18:23.984Z</time></trkpt><trkpt lat="43.94239906013224" lon="11.28969853317946"><ele>409.0</ele><time>2026-04-11T09:18:24.984Z</time></trkpt><trkpt lat="43.94241207849346" lon="11.289792295594609"><ele>408.79999999999995</ele><time>2026-04-11T09:18:25.984Z</time></trkpt><trkpt lat="43.942444656974445" lon="11.289873368333788"><ele>408.59999999999997</ele><time>2026-04-11T09:18:26.984Z</time></trkpt><trkpt lat="43.94256407725331" lon="11.289969108306412"><ele>408.4</ele><time>2026-04-11T09:18:28.984Z</time></trkpt><trkpt lat="43.942658076792426" lon="11.290013168426162"><ele>408.2</ele><time>2026-04-11T09:18:29.984Z</time></trkpt><trkpt lat="43.94275064087851" lon="11.290063161886183"><ele>408.0</ele><time>2026-04-11T09:18:30.984Z</time></trkpt><trkpt lat="43.94283061898999" lon="11.29014993608354"><ele>408.0</ele><time>2026-04-11T09:18:31.984Z</time></trkpt><trkpt lat="43.94289489069156" lon="11.290247960888912"><ele>408.0</ele><time>2026-04-11T09:18:32.984Z</time></trkpt><trkpt lat="43.942940669705244" lon="11.290379817894268"><ele>408.0</ele><time>2026-04-11T09:18:33.984Z</time></trkpt><trkpt lat="43.94298391496772" lon="11.290521233217481"><ele>408.0</ele><time>2026-04-11T09:18:34.984Z</time></trkpt><trkpt lat="43.94304185363091" lon="11.29066875675578"><ele>408.0</ele><time>2026-04-11T09:18:35.984Z</time></trkpt><trkpt lat="43.94310092336142" lon="11.290797120076"><ele>406.4</ele><time>2026-04-11T09:18:36.984Z</time></trkpt><trkpt lat="43.94315838445865" lon="11.290917426182537"><ele>404.79999999999995</ele><time>2026-04-11T09:18:37.984Z</time></trkpt><trkpt lat="43.94321554324291" lon="11.291009730610204"><ele>403.2</ele><time>2026-04-11T09:18:38.984Z</time></trkpt><trkpt lat="43.943285006692996" lon="11.291063494468679"><ele>401.6</ele><time>2026-04-11T09:18:39.984Z</time></trkpt><trkpt lat="43.94334592778682" lon="11.291086460180114"><ele>400.0</ele><time>2026-04-11T09:18:40.984Z</time></trkpt><trkpt lat="43.94346741447236" lon="11.29105428161556"><ele>399.2</ele><time>2026-04-11T09:18:42.984Z</time></trkpt><trkpt lat="43.943538790635046" lon="11.290997205847743"><ele>398.4</ele><time>2026-04-11T09:18:43.984Z</time></trkpt><trkpt lat="43.94362703757575" lon="11.290910318240028"><ele>397.6</ele><time>2026-04-11T09:18:44.984Z</time></trkpt><trkpt lat="43.94372439589532" lon="11.290807314612175"><ele>396.8</ele><time>2026-04-11T09:18:45.984Z</time></trkpt><trkpt lat="43.94381424584413" lon="11.290727334865537"><ele>396.0</ele><time>2026-04-11T09:18:46.984Z</time></trkpt><trkpt lat="43.94387338399113" lon="11.290615417757657"><ele>397.4</ele><time>2026-04-11T09:18:47.984Z</time></trkpt><trkpt lat="43.94390756584082" lon="11.290492035780677"><ele>398.8</ele><time>2026-04-11T09:18:48.984Z</time></trkpt><trkpt lat="43.943902816981876" lon="11.290350005245662"><ele>400.2</ele><time>2026-04-11T09:18:49.984Z</time></trkpt><trkpt lat="43.94390235832205" lon="11.290196419532036"><ele>401.59999999999997</ele><time>2026-04-11T09:18:50.984Z</time></trkpt><trkpt lat="43.943890269825516" lon="11.29001938850356"><ele>403.0</ele><time>2026-04-11T09:18:51.984Z</time></trkpt><trkpt lat="43.94386771286535" lon="11.28984635658239"><ele>404.75</ele><time>2026-04-11T09:18:52.984Z</time></trkpt><trkpt lat="43.94382780774219" lon="11.289677107226352"><ele>406.5</ele><time>2026-04-11T09:18:53.984Z</time></trkpt><trkpt lat="43.94374617122493" lon="11.289536320587127"><ele>408.25</ele><time>2026-04-11T09:18:54.984Z</time></trkpt><trkpt lat="43.94368967047625" lon="11.289390281941635"><ele>410.0</ele><time>2026-04-11T09:18:55.984Z</time></trkpt><trkpt lat="43.9436469457282" lon="11.289235008256918"><ele>410.0</ele><time>2026-04-11T09:18:56.984Z</time></trkpt><trkpt lat="43.943643501971344" lon="11.289100326148544"><ele>410.0</ele><time>2026-04-11T09:18:57.984Z</time></trkpt><trkpt lat="43.94364118014063" lon="11.288985625073526"><ele>410.0</ele><time>2026-04-11T09:18:58.984Z</time></trkpt><trkpt lat="43.94365810601752" lon="11.288867325022713"><ele>410.0</ele><time>2026-04-11T09:18:59.984Z</time></trkpt><trkpt lat="43.94370017769087" lon="11.288729542363043"><ele>410.0</ele><time>2026-04-11T09:19:00.984Z</time></trkpt><trkpt lat="43.94372426034853" lon="11.288598836481961"><ele>412.5</ele><time>2026-04-11T09:19:01.984Z</time></trkpt><trkpt lat="43.943761858237956" lon="11.28839476263039"><ele>415.0</ele><time>2026-04-11T09:19:02.984Z</time></trkpt><trkpt lat="43.943788874593515" lon="11.288186980773395"><ele>417.5</ele><time>2026-04-11T09:19:03.984Z</time></trkpt><trkpt lat="43.94381417569822" lon="11.287987705741651"><ele>420.0</ele><time>2026-04-11T09:19:04.984Z</time></trkpt><trkpt lat="43.94382652337173" lon="11.287782044616165"><ele>422.2</ele><time>2026-04-11T09:19:05.984Z</time></trkpt><trkpt lat="43.94384188154752" lon="11.287611190275374"><ele>424.4</ele><time>2026-04-11T09:19:06.984Z</time></trkpt><trkpt lat="43.943853555546546" lon="11.28747036221508"><ele>426.6</ele><time>2026-04-11T09:19:07.984Z</time></trkpt><trkpt lat="43.94387153958049" lon="11.287342216889222"><ele>428.8</ele><time>2026-04-11T09:19:08.984Z</time></trkpt><trkpt lat="43.94388337760256" lon="11.287234389336406"><ele>431.0</ele><time>2026-04-11T09:19:09.984Z</time></trkpt><trkpt lat="43.94389753020172" lon="11.28713211921285"><ele>432.0</ele><time>2026-04-11T09:19:10.984Z</time></trkpt><trkpt lat="43.94397316201055" lon="11.286953881597514"><ele>433.0</ele><time>2026-04-11T09:19:12.984Z</time></trkpt><trkpt lat="43.944036294628994" lon="11.286864539546507"><ele>434.0</ele><time>2026-04-11T09:19:13.984Z</time></trkpt><trkpt lat="43.944128563272606" lon="11.286801176994743"><ele>435.0</ele><time>2026-04-11T09:19:14.984Z</time></trkpt><trkpt lat="43.944235168121395" lon="11.286737805316001"><ele>435.0</ele><time>2026-04-11T09:19:15.984Z</time></trkpt><trkpt lat="43.94434231321443" lon="11.286660912519576"><ele>435.0</ele><time>2026-04-11T09:19:16.984Z</time></trkpt><trkpt lat="43.94442001213758" lon="11.286571113138425"><ele>435.0</ele><time>2026-04-11T09:19:17.984Z</time></trkpt><trkpt lat="43.944492605776546" lon="11.286535427538809"><ele>435.0</ele><time>2026-04-11T09:19:18.984Z</time></trkpt><trkpt lat="43.944570913507995" lon="11.286463938790618"><ele>435.0</ele><time>2026-04-11T09:19:19.984Z</time></trkpt><trkpt lat="43.94464255694971" lon="11.286404300608115"><ele>436.4</ele><time>2026-04-11T09:19:20.984Z</time></trkpt><trkpt lat="43.944736237318416" lon="11.28631721109818"><ele>437.8</ele><time>2026-04-11T09:19:21.984Z</time></trkpt><trkpt lat="43.944823650675666" lon="11.286239161739765"><ele>439.20000000000005</ele><time>2026-04-11T09:19:22.984Z</time></trkpt><trkpt lat="43.944912751061466" lon="11.286155918334737"><ele>440.6</ele><time>2026-04-11T09:19:23.984Z</time></trkpt><trkpt lat="43.94500353098291" lon="11.286101814242286"><ele>442.0</ele><time>2026-04-11T09:19:24.984Z</time></trkpt><trkpt lat="43.945075467338974" lon="11.286038534871537"><ele>442.00000000000006</ele><time>2026-04-11T09:19:25.984Z</time></trkpt><trkpt lat="43.945138711005484" lon="11.285987030338902"><ele>442.0</ele><time>2026-04-11T09:19:26.984Z</time></trkpt><trkpt lat="43.94520215046141" lon="11.285936584928672"><ele>442.0</ele><time>2026-04-11T09:19:27.984Z</time></trkpt><trkpt lat="43.94527205479698" lon="11.285885909283381"><ele>442.0</ele><time>2026-04-11T09:19:28.984Z</time></trkpt><trkpt lat="43.945336411686114" lon="11.285832031001807"><ele>442.0</ele><time>2026-04-11T09:19:29.984Z</time></trkpt><trkpt lat="43.94539774358787" lon="11.285790667812549"><ele>442.00000000000006</ele><time>2026-04-11T09:19:30.984Z</time></trkpt><trkpt lat="43.945456093964914" lon="11.28575156286641"><ele>442.0</ele><time>2026-04-11T09:19:31.984Z</time></trkpt><trkpt lat="43.945532443567636" lon="11.285718795310023"><ele>442.00000000000006</ele><time>2026-04-11T09:19:32.984Z</time></trkpt><trkpt lat="43.945607276181455" lon="11.285696135405491"><ele>442.0</ele><time>2026-04-11T09:19:33.984Z</time></trkpt><trkpt lat="43.945685269654895" lon="11.285667910090275"><ele>442.0</ele><time>2026-04-11T09:19:34.984Z</time></trkpt><trkpt lat="43.94576328400382" lon="11.285660559137604"><ele>442.0</ele><time>2026-04-11T09:19:35.984Z</time></trkpt><trkpt lat="43.945842289187425" lon="11.285659131349256"><ele>442.00000000000006</ele><time>2026-04-11T09:19:36.984Z</time></trkpt><trkpt lat="43.94593055575357" lon="11.285659532897382"><ele>442.0</ele><time>2026-04-11T09:19:37.984Z</time></trkpt><trkpt lat="43.94602549163041" lon="11.285657118281035"><ele>440.6</ele><time>2026-04-11T09:19:38.984Z</time></trkpt><trkpt lat="43.94610298833564" lon="11.28566342282447"><ele>439.20000000000005</ele><time>2026-04-11T09:19:39.984Z</time></trkpt><trkpt lat="43.9461863554881" lon="11.285686971641335"><ele>437.8</ele><time>2026-04-11T09:19:40.984Z</time></trkpt><trkpt lat="43.946277495722015" lon="11.285666551083578"><ele>436.4</ele><time>2026-04-11T09:19:41.984Z</time></trkpt><trkpt lat="43.94637748621209" lon="11.285665827646758"><ele>435.0</ele><time>2026-04-11T09:19:42.984Z</time></trkpt><trkpt lat="43.946485598385635" lon="11.285649760711827"><ele>435.0</ele><time>2026-04-11T09:19:43.984Z</time></trkpt><trkpt lat="43.94659965187063" lon="11.285643081385771"><ele>435.0</ele><time>2026-04-11T09:19:44.984Z</time></trkpt><trkpt lat="43.94671691639107" lon="11.285609054918426"><ele>435.0</ele><time>2026-04-11T09:19:45.984Z</time></trkpt><trkpt lat="43.94683249066326" lon="11.285572647540693"><ele>435.0</ele><time>2026-04-11T09:19:46.984Z</time></trkpt><trkpt lat="43.9469534106134" lon="11.285531376953145"><ele>434.4</ele><time>2026-04-11T09:19:47.984Z</time></trkpt><trkpt lat="43.947068085505464" lon="11.285489467119497"><ele>433.8</ele><time>2026-04-11T09:19:48.984Z</time></trkpt><trkpt lat="43.94717068248753" lon="11.285450426120306"><ele>433.20000000000005</ele><time>2026-04-11T09:19:49.984Z</time></trkpt><trkpt lat="43.94727190159402" lon="11.285411846138746"><ele>432.6</ele><time>2026-04-11T09:19:50.984Z</time></trkpt><trkpt lat="43.94737552425619" lon="11.285371344707489"><ele>432.0</ele><time>2026-04-11T09:19:51.984Z</time></trkpt><trkpt lat="43.94747247776486" lon="11.28533397682562"><ele>430.8</ele><time>2026-04-11T09:19:52.984Z</time></trkpt><trkpt lat="43.94757096531357" lon="11.285299971239589"><ele>429.6</ele><time>2026-04-11T09:19:53.984Z</time></trkpt><trkpt lat="43.94766075330596" lon="11.285271311174458"><ele>428.40000000000003</ele><time>2026-04-11T09:19:54.984Z</time></trkpt><trkpt lat="43.94774438314365" lon="11.285231300505568"><ele>427.20000000000005</ele><time>2026-04-11T09:19:55.984Z</time></trkpt><trkpt lat="43.94782671396415" lon="11.285214116388397"><ele>426.0</ele><time>2026-04-11T09:19:56.984Z</time></trkpt><trkpt lat="43.947916024494155" lon="11.285194771445449"><ele>426.0</ele><time>2026-04-11T09:19:57.984Z</time></trkpt><trkpt lat="43.94801128819915" lon="11.28516847575024"><ele>426.0</ele><time>2026-04-11T09:19:58.984Z</time></trkpt><trkpt lat="43.9481232858777" lon="11.28515791654143"><ele>426.0</ele><time>2026-04-11T09:19:59.984Z</time></trkpt><trkpt lat="43.9482478597381" lon="11.285147601266283"><ele>426.0</ele><time>2026-04-11T09:20:00.984Z</time></trkpt><trkpt lat="43.948377649838626" lon="11.285149905496507"><ele>424.75</ele><time>2026-04-11T09:20:01.984Z</time></trkpt><trkpt lat="43.94848681773929" lon="11.285135541053311"><ele>423.5</ele><time>2026-04-11T09:20:02.984Z</time></trkpt><trkpt lat="43.94861131516382" lon="11.285086391265784"><ele>422.25</ele><time>2026-04-11T09:20:03.984Z</time></trkpt><trkpt lat="43.94872574619041" lon="11.285044964050227"><ele>421.0</ele><time>2026-04-11T09:20:04.984Z</time></trkpt><trkpt lat="43.94883886000698" lon="11.285020077472328"><ele>421.0</ele><time>2026-04-11T09:20:05.982Z</time></trkpt><trkpt lat="43.94896374697546" lon="11.28499858323936"><ele>421.0</ele><time>2026-04-11T09:20:06.982Z</time></trkpt><trkpt lat="43.94910193874521" lon="11.284973997708137"><ele>421.0</ele><time>2026-04-11T09:20:07.982Z</time></trkpt><trkpt lat="43.949230082402174" lon="11.284965367053129"><ele>421.0</ele><time>2026-04-11T09:20:08.983Z</time></trkpt><trkpt lat="43.949334814478476" lon="11.285008161176064"><ele>422.0</ele><time>2026-04-11T09:20:09.983Z</time></trkpt><trkpt lat="43.94944611022253" lon="11.285033925785148"><ele>423.0</ele><time>2026-04-11T09:20:10.983Z</time></trkpt><trkpt lat="43.94957095772091" lon="11.285064016516897"><ele>424.0</ele><time>2026-04-11T09:20:11.982Z</time></trkpt><trkpt lat="43.949692094103554" lon="11.285094407024276"><ele>425.0</ele><time>2026-04-11T09:20:12.982Z</time></trkpt><trkpt lat="43.94982463157288" lon="11.285089767827124"><ele>425.0</ele><time>2026-04-11T09:20:13.982Z</time></trkpt><trkpt lat="43.949942634023785" lon="11.285099426165933"><ele>425.0</ele><time>2026-04-11T09:20:14.983Z</time></trkpt><trkpt lat="43.95006799971187" lon="11.285107199510051"><ele>425.0</ele><time>2026-04-11T09:20:15.983Z</time></trkpt><trkpt lat="43.95018652431771" lon="11.285121771924807"><ele>425.0</ele><time>2026-04-11T09:20:16.983Z</time></trkpt><trkpt lat="43.950294727229895" lon="11.285145787267505"><ele>429.0</ele><time>2026-04-11T09:20:17.983Z</time></trkpt><trkpt lat="43.950397266573695" lon="11.285191052469083"><ele>433.0</ele><time>2026-04-11T09:20:18.982Z</time></trkpt><trkpt lat="43.95050608873831" lon="11.285250880809384"><ele>437.0</ele><time>2026-04-11T09:20:19.982Z</time></trkpt><trkpt lat="43.95061319943746" lon="11.285308388984886"><ele>441.0</ele><time>2026-04-11T09:20:20.982Z</time></trkpt><trkpt lat="43.95071920734809" lon="11.285354657026566"><ele>441.0</ele><time>2026-04-11T09:20:21.982Z</time></trkpt><trkpt lat="43.95081977141016" lon="11.285411055570908"><ele>441.0</ele><time>2026-04-11T09:20:22.982Z</time></trkpt><trkpt lat="43.95091883124234" lon="11.285450795749998"><ele>441.0</ele><time>2026-04-11T09:20:23.982Z</time></trkpt><trkpt lat="43.95102086376928" lon="11.285489217535343"><ele>441.0</ele><time>2026-04-11T09:20:24.982Z</time></trkpt><trkpt lat="43.95112726675628" lon="11.285516029763235"><ele>441.0</ele><time>2026-04-11T09:20:25.982Z</time></trkpt><trkpt lat="43.951233648064225" lon="11.285530385603696"><ele>440.8</ele><time>2026-04-11T09:20:26.982Z</time></trkpt><trkpt lat="43.951336207269456" lon="11.285549306271939"><ele>440.6</ele><time>2026-04-11T09:20:27.982Z</time></trkpt><trkpt lat="43.95143441917149" lon="11.28556504791541"><ele>440.4</ele><time>2026-04-11T09:20:28.982Z</time></trkpt><trkpt lat="43.951531716007395" lon="11.285582882143311"><ele>440.2</ele><time>2026-04-11T09:20:29.982Z</time></trkpt><trkpt lat="43.951632019603466" lon="11.285584480046"><ele>440.0</ele><time>2026-04-11T09:20:30.982Z</time></trkpt><trkpt lat="43.95173279470684" lon="11.285595336200764"><ele>439.2</ele><time>2026-04-11T09:20:31.983Z</time></trkpt><trkpt lat="43.95183225679143" lon="11.285595221848071"><ele>438.4</ele><time>2026-04-11T09:20:32.983Z</time></trkpt><trkpt lat="43.95193011307155" lon="11.285601458891286"><ele>437.6</ele><time>2026-04-11T09:20:33.983Z</time></trkpt><trkpt lat="43.952004106507125" lon="11.285591556577216"><ele>436.8</ele><time>2026-04-11T09:20:34.983Z</time></trkpt><trkpt lat="43.95207478087569" lon="11.285573930013332"><ele>436.0</ele><time>2026-04-11T09:20:35.983Z</time></trkpt><trkpt lat="43.95218664122353" lon="11.285550583736"><ele>436.00000000000006</ele><time>2026-04-11T09:20:37.983Z</time></trkpt><trkpt lat="43.9522573315121" lon="11.285515399430418"><ele>436.0</ele><time>2026-04-11T09:20:39.983Z</time></trkpt><trkpt lat="43.952321597224326" lon="11.285483948165922"><ele>436.0</ele><time>2026-04-11T09:20:41.983Z</time></trkpt><trkpt lat="43.95237771804478" lon="11.285443589247526"><ele>436.0</ele><time>2026-04-11T09:21:08.983Z</time></trkpt><trkpt lat="43.95240907375643" lon="11.285540747681969"><ele>436.00000000000006</ele><time>2026-04-11T09:34:52.979Z</time></trkpt><trkpt lat="43.952407861015516" lon="11.285635096718863"><ele>436.0</ele><time>2026-04-11T09:34:55.979Z</time></trkpt><trkpt lat="43.95243483145814" lon="11.2857810012551"><ele>436.00000000000006</ele><time>2026-04-11T09:34:57.978Z</time></trkpt><trkpt lat="43.95246457448497" lon="11.285862892868966"><ele>436.0</ele><time>2026-04-11T09:34:58.978Z</time></trkpt><trkpt lat="43.952491462240836" lon="11.285962727195031"><ele>436.0</ele><time>2026-04-11T09:34:59.979Z</time></trkpt><trkpt lat="43.95250542480319" lon="11.286082122933749"><ele>436.0</ele><time>2026-04-11T09:35:00.978Z</time></trkpt><trkpt lat="43.952454809297194" lon="11.286188622781868"><ele>436.00000000000006</ele><time>2026-04-11T09:35:01.978Z</time></trkpt><trkpt lat="43.95246792024381" lon="11.28633815932428"><ele>436.0</ele><time>2026-04-11T09:35:03.978Z</time></trkpt><trkpt lat="43.95249357651445" lon="11.286502357555873"><ele>436.50000000000006</ele><time>2026-04-11T09:35:05.979Z</time></trkpt><trkpt lat="43.95249982853962" lon="11.286589371381288"><ele>437.0</ele><time>2026-04-11T09:35:06.979Z</time></trkpt><trkpt lat="43.952494439641605" lon="11.2866895843321"><ele>437.5</ele><time>2026-04-11T09:35:07.979Z</time></trkpt><trkpt lat="43.95249043529581" lon="11.286779723657505"><ele>438.0</ele><time>2026-04-11T09:35:08.979Z</time></trkpt><trkpt lat="43.95249068077179" lon="11.286867590223038"><ele>438.50000000000006</ele><time>2026-04-11T09:35:09.979Z</time></trkpt><trkpt lat="43.95251246048662" lon="11.286951309865398"><ele>439.0</ele><time>2026-04-11T09:35:10.979Z</time></trkpt><trkpt lat="43.952542721197744" lon="11.287130921439509"><ele>439.6</ele><time>2026-04-11T09:35:12.979Z</time></trkpt><trkpt lat="43.95257961463979" lon="11.287278688220379"><ele>440.2</ele><time>2026-04-11T09:35:14.979Z</time></trkpt><trkpt lat="43.95261530782966" lon="11.287420000144278"><ele>440.80000000000007</ele><time>2026-04-11T09:35:17.979Z</time></trkpt><trkpt lat="43.95267688623091" lon="11.287562767227564"><ele>441.40000000000003</ele><time>2026-04-11T09:35:18.979Z</time></trkpt><trkpt lat="43.95271163071879" lon="11.287641147361477"><ele>442.0</ele><time>2026-04-11T09:35:19.979Z</time></trkpt><trkpt lat="43.95277386721291" lon="11.287719669082987"><ele>442.00000000000006</ele><time>2026-04-11T09:35:20.979Z</time></trkpt><trkpt lat="43.95281567947296" lon="11.287852927505185"><ele>442.0</ele><time>2026-04-11T09:35:22.979Z</time></trkpt><trkpt lat="43.952854139936434" lon="11.287925986860863"><ele>442.0</ele><time>2026-04-11T09:35:23.979Z</time></trkpt><trkpt lat="43.95291065606927" lon="11.287975922477042"><ele>442.0</ele><time>2026-04-11T09:35:24.979Z</time></trkpt><trkpt lat="43.95297613313827" lon="11.287962846993777"><ele>442.00000000000006</ele><time>2026-04-11T09:35:25.979Z</time></trkpt><trkpt lat="43.95308360535166" lon="11.287996449956182"><ele>442.0</ele><time>2026-04-11T09:35:27.979Z</time></trkpt><trkpt lat="43.95313710086843" lon="11.288053120755091"><ele>442.0</ele><time>2026-04-11T09:35:28.979Z</time></trkpt><trkpt lat="43.95319605769185" lon="11.288092315235835"><ele>442.00000000000006</ele><time>2026-04-11T09:35:29.979Z</time></trkpt><trkpt lat="43.95330784396981" lon="11.288153354052943"><ele>442.00000000000006</ele><time>2026-04-11T09:35:31.979Z</time></trkpt><trkpt lat="43.953382479765125" lon="11.288265250665052"><ele>442.0</ele><time>2026-04-11T09:35:33.979Z</time></trkpt><trkpt lat="43.95345110005193" lon="11.28833894217401"><ele>442.0</ele><time>2026-04-11T09:35:35.979Z</time></trkpt><trkpt lat="43.95347938955543" lon="11.28843974524897"><ele>432.25</ele><time>2026-04-11T09:35:37.979Z</time></trkpt><trkpt lat="43.953573717226654" lon="11.288551014603241"><ele>422.5</ele><time>2026-04-11T09:35:39.979Z</time></trkpt><trkpt lat="43.953646116151944" lon="11.288678552169827"><ele>412.75</ele><time>2026-04-11T09:35:41.979Z</time></trkpt><trkpt lat="43.95372300415059" lon="11.288873195191504"><ele>403.0</ele><time>2026-04-11T09:35:43.979Z</time></trkpt><trkpt lat="43.953775507531006" lon="11.289003292390829"><ele>402.79999999999995</ele><time>2026-04-11T09:35:44.979Z</time></trkpt><trkpt lat="43.9538059606448" lon="11.28912132776886"><ele>402.6</ele><time>2026-04-11T09:35:45.979Z</time></trkpt><trkpt lat="43.95384477511936" lon="11.289243417257502"><ele>402.4</ele><time>2026-04-11T09:35:46.979Z</time></trkpt><trkpt lat="43.953895086702225" lon="11.289370565590543"><ele>402.20000000000005</ele><time>2026-04-11T09:35:47.979Z</time></trkpt><trkpt lat="43.953937335073704" lon="11.289496479155211"><ele>402.0</ele><time>2026-04-11T09:35:48.979Z</time></trkpt><trkpt lat="43.95398249893508" lon="11.289622171114708"><ele>402.0</ele><time>2026-04-11T09:35:49.979Z</time></trkpt><trkpt lat="43.95402505345982" lon="11.289741923389823"><ele>402.0</ele><time>2026-04-11T09:35:50.979Z</time></trkpt><trkpt lat="43.95407924886571" lon="11.289844538540898"><ele>402.0</ele><time>2026-04-11T09:35:51.979Z</time></trkpt><trkpt lat="43.954121141303396" lon="11.28995098669793"><ele>402.0</ele><time>2026-04-11T09:35:52.979Z</time></trkpt><trkpt lat="43.95416180982126" lon="11.290049199827136"><ele>402.0</ele><time>2026-04-11T09:35:53.979Z</time></trkpt><trkpt lat="43.95420678133879" lon="11.290135521355847"><ele>402.0</ele><time>2026-04-11T09:35:54.979Z</time></trkpt><trkpt lat="43.954266588070475" lon="11.290238508096126"><ele>401.1666666666667</ele><time>2026-04-11T09:35:55.979Z</time></trkpt><trkpt lat="43.95431016995544" lon="11.29033206481313"><ele>400.33333333333337</ele><time>2026-04-11T09:35:56.979Z</time></trkpt><trkpt lat="43.95432235459433" lon="11.290442499517946"><ele>399.5</ele><time>2026-04-11T09:35:57.979Z</time></trkpt><trkpt lat="43.95432908409223" lon="11.290534967419575"><ele>398.6666666666667</ele><time>2026-04-11T09:35:58.979Z</time></trkpt><trkpt lat="43.9543391813221" lon="11.29064173223756"><ele>397.83333333333337</ele><time>2026-04-11T09:35:59.979Z</time></trkpt><trkpt lat="43.954341418604265" lon="11.290742772211775"><ele>397.0</ele><time>2026-04-11T09:36:00.979Z</time></trkpt><trkpt lat="43.95433191512059" lon="11.290868437532119"><ele>397.00000000000006</ele><time>2026-04-11T09:36:01.979Z</time></trkpt><trkpt lat="43.95431936196391" lon="11.290973194021172"><ele>397.0</ele><time>2026-04-11T09:36:02.979Z</time></trkpt><trkpt lat="43.95431811271822" lon="11.291061105788174"><ele>397.0</ele><time>2026-04-11T09:36:03.979Z</time></trkpt><trkpt lat="43.954334406894944" lon="11.291208040035444"><ele>397.0</ele><time>2026-04-11T09:36:05.979Z</time></trkpt><trkpt lat="43.95432237418058" lon="11.291312314344669"><ele>397.00000000000006</ele><time>2026-04-11T09:36:06.979Z</time></trkpt><trkpt lat="43.95432483912754" lon="11.291472002479917"><ele>397.0</ele><time>2026-04-11T09:36:08.979Z</time></trkpt><trkpt lat="43.95433823293365" lon="11.291574581141965"><ele>396.1428571428571</ele><time>2026-04-11T09:36:09.979Z</time></trkpt><trkpt lat="43.95434123658358" lon="11.291673283582996"><ele>395.2857142857143</ele><time>2026-04-11T09:36:10.979Z</time></trkpt><trkpt lat="43.95434765680066" lon="11.29177371068232"><ele>394.42857142857144</ele><time>2026-04-11T09:36:11.979Z</time></trkpt><trkpt lat="43.95435502057254" lon="11.291878985473634"><ele>393.57142857142856</ele><time>2026-04-11T09:36:12.979Z</time></trkpt><trkpt lat="43.95435410961278" lon="11.29196648438011"><ele>392.7142857142857</ele><time>2026-04-11T09:36:13.979Z</time></trkpt><trkpt lat="43.95434367800841" lon="11.29207985865704"><ele>391.85714285714283</ele><time>2026-04-11T09:36:14.979Z</time></trkpt><trkpt lat="43.95434770979582" lon="11.29218939844253"><ele>391.0</ele><time>2026-04-11T09:36:15.979Z</time></trkpt><trkpt lat="43.954350183091854" lon="11.292293677295106"><ele>391.0</ele><time>2026-04-11T09:36:16.979Z</time></trkpt><trkpt lat="43.95433472397505" lon="11.292468324309707"><ele>391.0</ele><time>2026-04-11T09:36:19.979Z</time></trkpt><trkpt lat="43.95435582890887" lon="11.292625298578466"><ele>391.0</ele><time>2026-04-11T09:36:21.979Z</time></trkpt><trkpt lat="43.95439551246371" lon="11.292728704609852"><ele>391.0</ele><time>2026-04-11T09:36:22.979Z</time></trkpt><trkpt lat="43.95440787089799" lon="11.292827252567838"><ele>391.0</ele><time>2026-04-11T09:36:23.979Z</time></trkpt><trkpt lat="43.95445234845721" lon="11.293022746274078"><ele>391.50000000000006</ele><time>2026-04-11T09:36:25.979Z</time></trkpt><trkpt lat="43.95444838740574" lon="11.293131508584812"><ele>392.0</ele><time>2026-04-11T09:36:26.979Z</time></trkpt><trkpt lat="43.95446519921791" lon="11.293263883850594"><ele>392.5</ele><time>2026-04-11T09:36:27.979Z</time></trkpt><trkpt lat="43.954473818895764" lon="11.29336662498022"><ele>393.0</ele><time>2026-04-11T09:36:28.979Z</time></trkpt><trkpt lat="43.95448667440015" lon="11.29347586078163"><ele>393.50000000000006</ele><time>2026-04-11T09:36:29.979Z</time></trkpt><trkpt lat="43.95447438502551" lon="11.293591234121104"><ele>394.0</ele><time>2026-04-11T09:36:30.979Z</time></trkpt><trkpt lat="43.95444511029486" lon="11.293702495393049"><ele>394.0</ele><time>2026-04-11T09:36:31.979Z</time></trkpt><trkpt lat="43.95441767234523" lon="11.293824959090399"><ele>394.0</ele><time>2026-04-11T09:36:32.979Z</time></trkpt><trkpt lat="43.95440665669678" lon="11.293943785447684"><ele>394.0</ele><time>2026-04-11T09:36:33.979Z</time></trkpt><trkpt lat="43.9543961538952" lon="11.2940837684377"><ele>394.0</ele><time>2026-04-11T09:36:34.979Z</time></trkpt><trkpt lat="43.9543977676626" lon="11.29420986281557"><ele>394.0</ele><time>2026-04-11T09:36:35.979Z</time></trkpt><trkpt lat="43.95442173661252" lon="11.294352258103258"><ele>394.83333333333337</ele><time>2026-04-11T09:36:36.979Z</time></trkpt><trkpt lat="43.95443355050778" lon="11.294470061919151"><ele>395.6666666666667</ele><time>2026-04-11T09:36:37.979Z</time></trkpt><trkpt lat="43.95444129299898" lon="11.294572110680923"><ele>396.5</ele><time>2026-04-11T09:36:38.979Z</time></trkpt><trkpt lat="43.95443160067514" lon="11.29466632548175"><ele>397.33333333333337</ele><time>2026-04-11T09:36:39.979Z</time></trkpt><trkpt lat="43.954459194485345" lon="11.294823328907544"><ele>398.1666666666667</ele><time>2026-04-11T09:36:41.979Z</time></trkpt><trkpt lat="43.95451482469276" lon="11.294905772748022"><ele>399.0</ele><time>2026-04-11T09:36:42.979Z</time></trkpt><trkpt lat="43.95455495941706" lon="11.29498851041272"><ele>396.4</ele><time>2026-04-11T09:36:43.979Z</time></trkpt><trkpt lat="43.95463349175627" lon="11.295096203812818"><ele>393.79999999999995</ele><time>2026-04-11T09:36:44.979Z</time></trkpt><trkpt lat="43.95471035085278" lon="11.295184358726903"><ele>391.20000000000005</ele><time>2026-04-11T09:36:45.979Z</time></trkpt><trkpt lat="43.95478101676238" lon="11.295260962657508"><ele>388.6</ele><time>2026-04-11T09:36:46.979Z</time></trkpt><trkpt lat="43.95484862790917" lon="11.295369149635766"><ele>386.0</ele><time>2026-04-11T09:36:47.979Z</time></trkpt><trkpt lat="43.954919632165314" lon="11.295447014967818"><ele>386.0</ele><time>2026-04-11T09:36:48.979Z</time></trkpt><trkpt lat="43.95498518349076" lon="11.295538202761566"><ele>386.0</ele><time>2026-04-11T09:36:49.979Z</time></trkpt><trkpt lat="43.9550330864338" lon="11.295644240930379"><ele>386.0</ele><time>2026-04-11T09:36:50.979Z</time></trkpt><trkpt lat="43.95508066675066" lon="11.295794910851413"><ele>386.0</ele><time>2026-04-11T09:36:51.979Z</time></trkpt><trkpt lat="43.95509467802384" lon="11.295928983603305"><ele>386.0</ele><time>2026-04-11T09:36:52.979Z</time></trkpt><trkpt lat="43.9551061111589" lon="11.296036315050715"><ele>384.3333333333333</ele><time>2026-04-11T09:36:53.977Z</time></trkpt><trkpt lat="43.95509838178695" lon="11.296146455216055"><ele>382.66666666666663</ele><time>2026-04-11T09:36:54.977Z</time></trkpt><trkpt lat="43.95506606601496" lon="11.296245137426396"><ele>381.0</ele><time>2026-04-11T09:36:55.977Z</time></trkpt><trkpt lat="43.95503761325883" lon="11.296333193383786"><ele>379.3333333333333</ele><time>2026-04-11T09:36:56.978Z</time></trkpt><trkpt lat="43.955024962339884" lon="11.296436448720618"><ele>377.66666666666663</ele><time>2026-04-11T09:36:57.977Z</time></trkpt><trkpt lat="43.955014631143314" lon="11.296526924223361"><ele>376.0</ele><time>2026-04-11T09:36:58.977Z</time></trkpt><trkpt lat="43.955036954767465" lon="11.296643141820933"><ele>375.0</ele><time>2026-04-11T09:36:59.977Z</time></trkpt><trkpt lat="43.955072448107515" lon="11.296752820250886"><ele>374.0</ele><time>2026-04-11T09:37:00.977Z</time></trkpt><trkpt lat="43.955118226705004" lon="11.296863068122878"><ele>373.0</ele><time>2026-04-11T09:37:01.977Z</time></trkpt><trkpt lat="43.955146325905304" lon="11.29696753457664"><ele>372.0</ele><time>2026-04-11T09:37:02.977Z</time></trkpt><trkpt lat="43.95516715009788" lon="11.297064942997784"><ele>371.0</ele><time>2026-04-11T09:37:03.977Z</time></trkpt><trkpt lat="43.95518248247139" lon="11.297181758802292"><ele>370.0</ele><time>2026-04-11T09:37:04.977Z</time></trkpt><trkpt lat="43.95520492010267" lon="11.297309514759712"><ele>369.3333333333333</ele><time>2026-04-11T09:37:05.977Z</time></trkpt><trkpt lat="43.95520991211579" lon="11.29742183419181"><ele>368.66666666666663</ele><time>2026-04-11T09:37:06.977Z</time></trkpt><trkpt lat="43.95522389415944" lon="11.297534493255569"><ele>368.0</ele><time>2026-04-11T09:37:07.977Z</time></trkpt><trkpt lat="43.95522859019279" lon="11.297648357856657"><ele>367.3333333333333</ele><time>2026-04-11T09:37:08.977Z</time></trkpt><trkpt lat="43.955234714217205" lon="11.29777968868475"><ele>366.6666666666667</ele><time>2026-04-11T09:37:09.977Z</time></trkpt><trkpt lat="43.955247460599324" lon="11.297886399108817"><ele>366.0</ele><time>2026-04-11T09:37:10.977Z</time></trkpt><trkpt lat="43.95526111258323" lon="11.297993372506841"><ele>364.0</ele><time>2026-04-11T09:37:11.977Z</time></trkpt><trkpt lat="43.95526584668907" lon="11.298094791802994"><ele>362.0</ele><time>2026-04-11T09:37:12.977Z</time></trkpt><trkpt lat="43.9552576816846" lon="11.29819081664485"><ele>360.0</ele><time>2026-04-11T09:37:13.977Z</time></trkpt><trkpt lat="43.95524971067803" lon="11.298291027909313"><ele>358.0</ele><time>2026-04-11T09:37:14.977Z</time></trkpt><trkpt lat="43.9551926944949" lon="11.298420739594006"><ele>356.0</ele><time>2026-04-11T09:37:15.977Z</time></trkpt><trkpt lat="43.955159219357206" lon="11.298545976756396"><ele>354.0</ele><time>2026-04-11T09:37:16.977Z</time></trkpt><trkpt lat="43.955124851096905" lon="11.298661915383187"><ele>354.0</ele><time>2026-04-11T09:37:17.977Z</time></trkpt><trkpt lat="43.95508571284106" lon="11.298753927296202"><ele>354.0</ele><time>2026-04-11T09:37:18.977Z</time></trkpt><trkpt lat="43.955038432640166" lon="11.298844887451457"><ele>354.0</ele><time>2026-04-11T09:37:19.977Z</time></trkpt><trkpt lat="43.955008567240654" lon="11.29896131870998"><ele>354.0</ele><time>2026-04-11T09:37:20.977Z</time></trkpt><trkpt lat="43.9549568083779" lon="11.299077141061664"><ele>354.0</ele><time>2026-04-11T09:37:21.977Z</time></trkpt><trkpt lat="43.95493124629128" lon="11.299162774899425"><ele>354.0</ele><time>2026-04-11T09:37:22.977Z</time></trkpt><trkpt lat="43.954892129083476" lon="11.299247710882385"><ele>350.5</ele><time>2026-04-11T09:37:23.977Z</time></trkpt><trkpt lat="43.95485924050504" lon="11.299323005277646"><ele>347.0</ele><time>2026-04-11T09:37:24.977Z</time></trkpt><trkpt lat="43.954820774905606" lon="11.299402746804939"><ele>343.5</ele><time>2026-04-11T09:37:25.977Z</time></trkpt><trkpt lat="43.954816843733404" lon="11.299494466003745"><ele>340.0</ele><time>2026-04-11T09:37:26.977Z</time></trkpt><trkpt lat="43.95486523385325" lon="11.299628658036632"><ele>336.5</ele><time>2026-04-11T09:37:28.977Z</time></trkpt><trkpt lat="43.95499505295326" lon="11.299642768891072"><ele>333.0</ele><time>2026-04-11T09:37:30.977Z</time></trkpt><trkpt lat="43.955061178739115" lon="11.299612950245061"><ele>333.0</ele><time>2026-04-11T09:37:31.977Z</time></trkpt><trkpt lat="43.95512031549" lon="11.299560541672973"><ele>333.0</ele><time>2026-04-11T09:37:32.977Z</time></trkpt><trkpt lat="43.9551774467" lon="11.29951681855031"><ele>333.0</ele><time>2026-04-11T09:37:33.977Z</time></trkpt><trkpt lat="43.95524240296791" lon="11.29948021668669"><ele>333.0</ele><time>2026-04-11T09:37:34.977Z</time></trkpt><trkpt lat="43.9553186027129" lon="11.29946184246778"><ele>333.0</ele><time>2026-04-11T09:37:35.977Z</time></trkpt><trkpt lat="43.95539523096166" lon="11.299459947831474"><ele>333.0</ele><time>2026-04-11T09:37:36.977Z</time></trkpt><trkpt lat="43.955484658757705" lon="11.299487019510213"><ele>333.0</ele><time>2026-04-11T09:37:37.977Z</time></trkpt><trkpt lat="43.955548308487444" lon="11.299522894125476"><ele>333.0</ele><time>2026-04-11T09:37:38.977Z</time></trkpt><trkpt lat="43.95563840896968" lon="11.299678125650368"><ele>333.0</ele><time>2026-04-11T09:37:40.977Z</time></trkpt><trkpt lat="43.95565235855666" lon="11.299777107017498"><ele>333.0</ele><time>2026-04-11T09:37:41.977Z</time></trkpt><trkpt lat="43.95565172797305" lon="11.299910601378668"><ele>333.0</ele><time>2026-04-11T09:37:42.977Z</time></trkpt><trkpt lat="43.95563678220686" lon="11.300003622291925"><ele>329.3333333333333</ele><time>2026-04-11T09:37:43.977Z</time></trkpt><trkpt lat="43.95562571952104" lon="11.300115724585005"><ele>325.6666666666667</ele><time>2026-04-11T09:37:44.977Z</time></trkpt><trkpt lat="43.95561229832647" lon="11.300220214670155"><ele>322.0</ele><time>2026-04-11T09:37:45.978Z</time></trkpt><trkpt lat="43.95562080858005" lon="11.30033757886685"><ele>318.33333333333337</ele><time>2026-04-11T09:37:46.978Z</time></trkpt><trkpt lat="43.95564782858398" lon="11.300466507763568"><ele>314.6666666666667</ele><time>2026-04-11T09:37:47.978Z</time></trkpt><trkpt lat="43.95566088851471" lon="11.300561839108756"><ele>311.0</ele><time>2026-04-11T09:37:48.978Z</time></trkpt><trkpt lat="43.955669781101605" lon="11.300672651057877"><ele>308.5</ele><time>2026-04-11T09:37:49.978Z</time></trkpt><trkpt lat="43.955652486709226" lon="11.300860895594084"><ele>306.0</ele><time>2026-04-11T09:37:51.978Z</time></trkpt><trkpt lat="43.955619769169466" lon="11.30094234830621"><ele>303.5</ele><time>2026-04-11T09:37:52.978Z</time></trkpt><trkpt lat="43.95554962296426" lon="11.300988061276714"><ele>301.0</ele><time>2026-04-11T09:37:53.978Z</time></trkpt><trkpt lat="43.95548655287724" lon="11.300969523019273"><ele>298.5</ele><time>2026-04-11T09:37:54.978Z</time></trkpt><trkpt lat="43.95540822685841" lon="11.300942142655632"><ele>296.0</ele><time>2026-04-11T09:37:55.978Z</time></trkpt><trkpt lat="43.95528998182032" lon="11.301017872017354"><ele>296.0</ele><time>2026-04-11T09:37:57.978Z</time></trkpt><trkpt lat="43.95522585765275" lon="11.301130903917324"><ele>296.0</ele><time>2026-04-11T09:37:58.978Z</time></trkpt><trkpt lat="43.955180357952706" lon="11.30125041646762"><ele>296.0</ele><time>2026-04-11T09:37:59.978Z</time></trkpt><trkpt lat="43.955116654578504" lon="11.301383094070808"><ele>296.0</ele><time>2026-04-11T09:38:00.978Z</time></trkpt><trkpt lat="43.955047662093016" lon="11.30150604963691"><ele>296.0</ele><time>2026-04-11T09:38:01.978Z</time></trkpt><trkpt lat="43.954963435000984" lon="11.30158732773975"><ele>294.0</ele><time>2026-04-11T09:38:02.978Z</time></trkpt><trkpt lat="43.954889367065086" lon="11.301648922507866"><ele>292.0</ele><time>2026-04-11T09:38:03.978Z</time></trkpt><trkpt lat="43.954827398764415" lon="11.301680104268243"><ele>290.0</ele><time>2026-04-11T09:38:04.978Z</time></trkpt><trkpt lat="43.95475663377626" lon="11.301718941286804"><ele>288.0</ele><time>2026-04-11T09:38:05.978Z</time></trkpt><trkpt lat="43.95464326607767" lon="11.301777087505272"><ele>286.0</ele><time>2026-04-11T09:38:07.978Z</time></trkpt><trkpt lat="43.954585293174496" lon="11.301811407934034"><ele>284.0</ele><time>2026-04-11T09:38:08.978Z</time></trkpt><trkpt lat="43.95451699145318" lon="11.301855558409075"><ele>284.0</ele><time>2026-04-11T09:38:09.978Z</time></trkpt><trkpt lat="43.954447109838334" lon="11.30189455210976"><ele>284.0</ele><time>2026-04-11T09:38:10.978Z</time></trkpt><trkpt lat="43.95438892520942" lon="11.301941070923078"><ele>284.0</ele><time>2026-04-11T09:38:11.978Z</time></trkpt><trkpt lat="43.95431983591975" lon="11.302015756702836"><ele>284.0</ele><time>2026-04-11T09:38:12.978Z</time></trkpt><trkpt lat="43.954254877898286" lon="11.302152318567178"><ele>284.0</ele><time>2026-04-11T09:38:14.978Z</time></trkpt><trkpt lat="43.9542558627651" lon="11.302240823675183"><ele>284.0</ele><time>2026-04-11T09:38:15.978Z</time></trkpt><trkpt lat="43.95426943862904" lon="11.302346716359498"><ele>282.2</ele><time>2026-04-11T09:38:16.978Z</time></trkpt><trkpt lat="43.954297648544575" lon="11.302437575211446"><ele>280.4</ele><time>2026-04-11T09:38:17.978Z</time></trkpt><trkpt lat="43.954344974388924" lon="11.302551500072362"><ele>278.6</ele><time>2026-04-11T09:38:18.978Z</time></trkpt><trkpt lat="43.95437777550199" lon="11.302639013080178"><ele>276.8</ele><time>2026-04-11T09:38:19.978Z</time></trkpt><trkpt lat="43.95438216689005" lon="11.302807344813251"><ele>275.0</ele><time>2026-04-11T09:38:21.978Z</time></trkpt><trkpt lat="43.954418034481456" lon="11.302957887316493"><ele>275.0</ele><time>2026-04-11T09:38:23.978Z</time></trkpt><trkpt lat="43.95448035517718" lon="11.303037364040618"><ele>275.0</ele><time>2026-04-11T09:38:26.978Z</time></trkpt><trkpt lat="43.95448092233481" lon="11.303148471692726"><ele>275.0</ele><time>2026-04-11T09:40:13.977Z</time></trkpt><trkpt lat="43.95447323672597" lon="11.303282675399956"><ele>275.0</ele><time>2026-04-11T09:40:15.977Z</time></trkpt><trkpt lat="43.954519604219534" lon="11.3033979016916"><ele>275.0</ele><time>2026-04-11T09:40:18.977Z</time></trkpt><trkpt lat="43.95456175441311" lon="11.303491766148479"><ele>275.0</ele><time>2026-04-11T09:40:20.977Z</time></trkpt><trkpt lat="43.95460540747206" lon="11.303598914059375"><ele>273.2</ele><time>2026-04-11T09:40:22.977Z</time></trkpt><trkpt lat="43.954648018136155" lon="11.303697171016431"><ele>271.4</ele><time>2026-04-11T09:40:24.977Z</time></trkpt><trkpt lat="43.95468487153547" lon="11.303800814658647"><ele>269.6</ele><time>2026-04-11T09:40:26.977Z</time></trkpt><trkpt lat="43.954706653708044" lon="11.30392015180696"><ele>267.8</ele><time>2026-04-11T09:40:28.977Z</time></trkpt><trkpt lat="43.954703134222214" lon="11.304103654594911"><ele>266.0</ele><time>2026-04-11T09:40:30.977Z</time></trkpt><trkpt lat="43.95471102864399" lon="11.304206886047144"><ele>265.5</ele><time>2026-04-11T09:40:31.977Z</time></trkpt><trkpt lat="43.954732053506895" lon="11.304301208480553"><ele>265.0</ele><time>2026-04-11T09:40:32.977Z</time></trkpt><trkpt lat="43.95477606729496" lon="11.304466620528238"><ele>264.5</ele><time>2026-04-11T09:40:34.977Z</time></trkpt><trkpt lat="43.954801860292925" lon="11.304557250739892"><ele>264.0</ele><time>2026-04-11T09:40:35.977Z</time></trkpt><trkpt lat="43.954825942148574" lon="11.304638183299167"><ele>263.5</ele><time>2026-04-11T09:40:36.977Z</time></trkpt><trkpt lat="43.954851245749914" lon="11.304723221823844"><ele>263.0</ele><time>2026-04-11T09:40:37.977Z</time></trkpt><trkpt lat="43.954890740167244" lon="11.304798378104172"><ele>262.2</ele><time>2026-04-11T09:40:38.977Z</time></trkpt><trkpt lat="43.95490280574892" lon="11.304886536136776"><ele>261.4</ele><time>2026-04-11T09:40:39.977Z</time></trkpt><trkpt lat="43.95493429970754" lon="11.305043230625726"><ele>260.59999999999997</ele><time>2026-04-11T09:40:41.977Z</time></trkpt><trkpt lat="43.95495284587429" lon="11.305208872519483"><ele>259.8</ele><time>2026-04-11T09:40:43.977Z</time></trkpt><trkpt lat="43.95493813192832" lon="11.305361023356246"><ele>259.0</ele><time>2026-04-11T09:40:45.977Z</time></trkpt><trkpt lat="43.95492052797781" lon="11.30550806333661"><ele>258.5</ele><time>2026-04-11T09:40:47.977Z</time></trkpt><trkpt lat="43.95495610181843" lon="11.305652580346077"><ele>258.0</ele><time>2026-04-11T09:40:49.977Z</time></trkpt><trkpt lat="43.955004327627854" lon="11.30572692095285"><ele>257.5</ele><time>2026-04-11T09:40:50.977Z</time></trkpt><trkpt lat="43.95507172255091" lon="11.305744201100824"><ele>257.0</ele><time>2026-04-11T09:40:51.977Z</time></trkpt><trkpt lat="43.95513621057668" lon="11.305744893451653"><ele>256.5</ele><time>2026-04-11T09:40:52.977Z</time></trkpt><trkpt lat="43.95520409834912" lon="11.305715602517408"><ele>256.0</ele><time>2026-04-11T09:40:53.977Z</time></trkpt><trkpt lat="43.95527814110957" lon="11.30570422412305"><ele>254.99999999999997</ele><time>2026-04-11T09:40:54.977Z</time></trkpt><trkpt lat="43.955372619869834" lon="11.305650921594323"><ele>254.0</ele><time>2026-04-11T09:40:56.977Z</time></trkpt><trkpt lat="43.95544809745908" lon="11.305631405442501"><ele>253.0</ele><time>2026-04-11T09:40:59.977Z</time></trkpt><trkpt lat="43.95551407838668" lon="11.305644091266787"><ele>252.0</ele><time>2026-04-11T09:41:09.975Z</time></trkpt><trkpt lat="43.9554334540479" lon="11.305641101106206"><ele>250.99999999999997</ele><time>2026-04-11T09:41:14.976Z</time></trkpt><trkpt lat="43.955351502677495" lon="11.30566571488042"><ele>250.0</ele><time>2026-04-11T09:41:15.976Z</time></trkpt><trkpt lat="43.95529590020481" lon="11.305726199918723"><ele>250.0</ele><time>2026-04-11T09:41:16.976Z</time></trkpt><trkpt lat="43.95521837599094" lon="11.305756428581455"><ele>250.0</ele><time>2026-04-11T09:41:18.975Z</time></trkpt><trkpt lat="43.95515703632117" lon="11.305778357136946"><ele>250.0</ele><time>2026-04-11T09:41:21.975Z</time></trkpt><trkpt lat="43.95521123931053" lon="11.305950597904937"><ele>250.0</ele><time>2026-04-11T09:41:26.975Z</time></trkpt><trkpt lat="43.95532068529936" lon="11.305974554767392"><ele>250.0</ele><time>2026-04-11T09:41:28.975Z</time></trkpt><trkpt lat="43.95563492887042" lon="11.30588053485667"><ele>255.0</ele><time>2026-04-11T09:41:29.975Z</time></trkpt><trkpt lat="43.955587305798765" lon="11.307070371942258"><ele>255.0</ele><time>2026-04-11T09:41:36.975Z</time></trkpt><trkpt lat="43.95563398695698" lon="11.30717821134439"><ele>255.0</ele><time>2026-04-11T09:41:37.975Z</time></trkpt><trkpt lat="43.95567699465678" lon="11.307289357069852"><ele>255.0</ele><time>2026-04-11T09:41:38.975Z</time></trkpt><trkpt lat="43.95569740539149" lon="11.30741072990979"><ele>255.0</ele><time>2026-04-11T09:41:39.975Z</time></trkpt><trkpt lat="43.95575822379078" lon="11.307503774368756"><ele>255.0</ele><time>2026-04-11T09:41:40.975Z</time></trkpt><trkpt lat="43.9558280366977" lon="11.307585423305358"><ele>258.0</ele><time>2026-04-11T09:41:41.975Z</time></trkpt><trkpt lat="43.955903283494365" lon="11.307643329859728"><ele>261.0</ele><time>2026-04-11T09:41:42.975Z</time></trkpt><trkpt lat="43.955973250272045" lon="11.307716627467743"><ele>264.0</ele><time>2026-04-11T09:41:43.975Z</time></trkpt><trkpt lat="43.95602663312707" lon="11.307784577218698"><ele>267.0</ele><time>2026-04-11T09:41:44.975Z</time></trkpt><trkpt lat="43.956085227402184" lon="11.307853653687962"><ele>270.0</ele><time>2026-04-11T09:41:45.975Z</time></trkpt><trkpt lat="43.95621634379006" lon="11.307986870343274"><ele>270.0</ele><time>2026-04-11T09:41:47.975Z</time></trkpt><trkpt lat="43.956281653298554" lon="11.30802824390158"><ele>270.0</ele><time>2026-04-11T09:41:48.975Z</time></trkpt><trkpt lat="43.95636261997065" lon="11.308093052565098"><ele>270.0</ele><time>2026-04-11T09:41:50.975Z</time></trkpt><trkpt lat="43.9564367350008" lon="11.308126498001497"><ele>270.0</ele><time>2026-04-11T09:41:53.975Z</time></trkpt><trkpt lat="43.956500067560064" lon="11.308152709027688"><ele>270.0</ele><time>2026-04-11T09:41:55.975Z</time></trkpt><trkpt lat="43.95660582698038" lon="11.308104475289435"><ele>270.0</ele><time>2026-04-11T09:41:57.975Z</time></trkpt><trkpt lat="43.956675001806914" lon="11.308106874219922"><ele>271.2</ele><time>2026-04-11T09:41:58.975Z</time></trkpt><trkpt lat="43.956781393310216" lon="11.308148252210096"><ele>272.4</ele><time>2026-04-11T09:42:00.975Z</time></trkpt><trkpt lat="43.95686687882536" lon="11.308152663745382"><ele>273.6</ele><time>2026-04-11T09:42:02.975Z</time></trkpt><trkpt lat="43.956949180621756" lon="11.308192044514163"><ele>274.8</ele><time>2026-04-11T09:42:04.975Z</time></trkpt><trkpt lat="43.95704982441528" lon="11.308240928835339"><ele>276.0</ele><time>2026-04-11T09:42:06.975Z</time></trkpt><trkpt lat="43.95716780141829" lon="11.308298480278603"><ele>276.0</ele><time>2026-04-11T09:42:08.975Z</time></trkpt><trkpt lat="43.95728641745967" lon="11.30839692920844"><ele>276.0</ele><time>2026-04-11T09:42:10.975Z</time></trkpt><trkpt lat="43.95735795860428" lon="11.308472086871825"><ele>276.0</ele><time>2026-04-11T09:42:11.975Z</time></trkpt><trkpt lat="43.957421463147945" lon="11.308564493209765"><ele>276.0</ele><time>2026-04-11T09:42:12.975Z</time></trkpt><trkpt lat="43.957472049485055" lon="11.308648593916391"><ele>276.0</ele><time>2026-04-11T09:42:13.975Z</time></trkpt><trkpt lat="43.95751942157339" lon="11.308722646707817"><ele>274.40000000000003</ele><time>2026-04-11T09:42:14.975Z</time></trkpt><trkpt lat="43.9575979114815" lon="11.308814698737377"><ele>272.8</ele><time>2026-04-11T09:42:16.975Z</time></trkpt><trkpt lat="43.957708834633465" lon="11.308853865438174"><ele>271.20000000000005</ele><time>2026-04-11T09:42:18.975Z</time></trkpt><trkpt lat="43.95778785880887" lon="11.308810063234347"><ele>269.6</ele><time>2026-04-11T09:42:19.975Z</time></trkpt><trkpt lat="43.957879679778344" lon="11.308735215001526"><ele>268.0</ele><time>2026-04-11T09:42:21.975Z</time></trkpt><trkpt lat="43.95794284534268" lon="11.308676110450916"><ele>268.0</ele><time>2026-04-11T09:42:23.975Z</time></trkpt><trkpt lat="43.95804115484715" lon="11.30871066819691"><ele>268.0</ele><time>2026-04-11T09:42:25.975Z</time></trkpt><trkpt lat="43.95813624396675" lon="11.308797593637818"><ele>268.0</ele><time>2026-04-11T09:42:27.975Z</time></trkpt><trkpt lat="43.958233197922716" lon="11.308898837565714"><ele>268.0</ele><time>2026-04-11T09:42:29.975Z</time></trkpt><trkpt lat="43.958316819462986" lon="11.308944819792641"><ele>268.0</ele><time>2026-04-11T09:42:31.975Z</time></trkpt><trkpt lat="43.95839148224108" lon="11.308989328131716"><ele>267.0</ele><time>2026-04-11T09:42:33.975Z</time></trkpt><trkpt lat="43.9584619550082" lon="11.309117147446418"><ele>266.0</ele><time>2026-04-11T09:42:35.975Z</time></trkpt><trkpt lat="43.95844843957689" lon="11.309231063339974"><ele>265.0</ele><time>2026-04-11T09:42:37.975Z</time></trkpt><trkpt lat="43.95840557821581" lon="11.309333596798043"><ele>264.0</ele><time>2026-04-11T09:42:39.975Z</time></trkpt><trkpt lat="43.958362967056345" lon="11.309442698275115"><ele>263.0</ele><time>2026-04-11T09:42:41.975Z</time></trkpt><trkpt lat="43.95832515239789" lon="11.309572578549753"><ele>264.0</ele><time>2026-04-11T09:42:43.975Z</time></trkpt><trkpt lat="43.958332922459725" lon="11.309753655207166"><ele>265.0</ele><time>2026-04-11T09:42:45.975Z</time></trkpt><trkpt lat="43.95834761266554" lon="11.30985120856352"><ele>266.0</ele><time>2026-04-11T09:42:46.975Z</time></trkpt><trkpt lat="43.9583745126923" lon="11.309944138027385"><ele>267.0</ele><time>2026-04-11T09:42:47.975Z</time></trkpt><trkpt lat="43.95843479414905" lon="11.310071804896284"><ele>268.0</ele><time>2026-04-11T09:42:49.975Z</time></trkpt><trkpt lat="43.958508027400526" lon="11.310181985817112"><ele>268.0</ele><time>2026-04-11T09:42:51.975Z</time></trkpt><trkpt lat="43.95858762305852" lon="11.310286215325078"><ele>268.0</ele><time>2026-04-11T09:42:53.975Z</time></trkpt><trkpt lat="43.95864906623286" lon="11.310342411348135"><ele>268.0</ele><time>2026-04-11T09:42:55.975Z</time></trkpt><trkpt lat="43.95871385486383" lon="11.310413610773336"><ele>268.0</ele><time>2026-04-11T09:42:57.975Z</time></trkpt><trkpt lat="43.95875602828956" lon="11.310482829136063"><ele>268.0</ele><time>2026-04-11T09:42:58.975Z</time></trkpt><trkpt lat="43.95886024108363" lon="11.310571477170077"><ele>270.16666666666663</ele><time>2026-04-11T09:43:00.975Z</time></trkpt><trkpt lat="43.95891013382973" lon="11.310636618875586"><ele>272.3333333333333</ele><time>2026-04-11T09:43:01.975Z</time></trkpt><trkpt lat="43.95899670742367" lon="11.310764525967233"><ele>274.5</ele><time>2026-04-11T09:43:03.975Z</time></trkpt><trkpt lat="43.95903611542756" lon="11.310851078629202"><ele>276.6666666666667</ele><time>2026-04-11T09:43:04.975Z</time></trkpt><trkpt lat="43.95908281012168" lon="11.310918478526709"><ele>278.83333333333337</ele><time>2026-04-11T09:43:05.975Z</time></trkpt><trkpt lat="43.959127041631625" lon="11.311023013031717"><ele>281.0</ele><time>2026-04-11T09:43:06.975Z</time></trkpt><trkpt lat="43.959193569717605" lon="11.311207550743495"><ele>278.5</ele><time>2026-04-11T09:43:08.975Z</time></trkpt><trkpt lat="43.95926394501358" lon="11.311359608499098"><ele>276.0</ele><time>2026-04-11T09:43:09.975Z</time></trkpt><trkpt lat="43.95931318723942" lon="11.311457990695711"><ele>273.5</ele><time>2026-04-11T09:43:10.975Z</time></trkpt><trkpt lat="43.959354280123044" lon="11.31153791243784"><ele>271.0</ele><time>2026-04-11T09:43:11.973Z</time></trkpt><trkpt lat="43.95940540214268" lon="11.311604489915906"><ele>268.5</ele><time>2026-04-11T09:43:12.972Z</time></trkpt><trkpt lat="43.95944607466781" lon="11.311692630406219"><ele>266.0</ele><time>2026-04-11T09:43:13.972Z</time></trkpt><trkpt lat="43.95948951954388" lon="11.311783555405524"><ele>266.0</ele><time>2026-04-11T09:43:14.973Z</time></trkpt><trkpt lat="43.95953548930013" lon="11.311874391387386"><ele>266.0</ele><time>2026-04-11T09:43:15.973Z</time></trkpt><trkpt lat="43.95957692003984" lon="11.311959054533588"><ele>266.0</ele><time>2026-04-11T09:43:16.973Z</time></trkpt><trkpt lat="43.959610333982326" lon="11.31204235979206"><ele>266.0</ele><time>2026-04-11T09:43:17.973Z</time></trkpt><trkpt lat="43.959645789799445" lon="11.312141268895125"><ele>266.0</ele><time>2026-04-11T09:43:18.973Z</time></trkpt><trkpt lat="43.959680917780325" lon="11.312248644810047"><ele>266.0</ele><time>2026-04-11T09:43:19.973Z</time></trkpt><trkpt lat="43.95971357475575" lon="11.312341100976765"><ele>268.0</ele><time>2026-04-11T09:43:20.973Z</time></trkpt><trkpt lat="43.95975048990852" lon="11.312428603004575"><ele>270.0</ele><time>2026-04-11T09:43:21.973Z</time></trkpt><trkpt lat="43.95979409523727" lon="11.312526411587525"><ele>272.0</ele><time>2026-04-11T09:43:22.973Z</time></trkpt><trkpt lat="43.959841138734" lon="11.312625114499756"><ele>274.0</ele><time>2026-04-11T09:43:23.973Z</time></trkpt><trkpt lat="43.95986855776232" lon="11.312738735425006"><ele>276.0</ele><time>2026-04-11T09:43:24.973Z</time></trkpt><trkpt lat="43.959912012654875" lon="11.312847314977132"><ele>278.0</ele><time>2026-04-11T09:43:25.973Z</time></trkpt><trkpt lat="43.95995451031791" lon="11.312959887546107"><ele>277.6</ele><time>2026-04-11T09:43:26.973Z</time></trkpt><trkpt lat="43.960003689368506" lon="11.313094235287705"><ele>277.20000000000005</ele><time>2026-04-11T09:43:27.973Z</time></trkpt><trkpt lat="43.96004134278733" lon="11.313220375170449"><ele>276.8</ele><time>2026-04-11T09:43:28.973Z</time></trkpt><trkpt lat="43.960069061903596" lon="11.313325199056408"><ele>276.40000000000003</ele><time>2026-04-11T09:43:29.973Z</time></trkpt><trkpt lat="43.96009675601591" lon="11.313440046364457"><ele>276.0</ele><time>2026-04-11T09:43:30.973Z</time></trkpt><trkpt lat="43.96012567976293" lon="11.313562505085134"><ele>276.0</ele><time>2026-04-11T09:43:31.973Z</time></trkpt><trkpt lat="43.96015296808145" lon="11.31367553057204"><ele>276.0</ele><time>2026-04-11T09:43:32.973Z</time></trkpt><trkpt lat="43.960193422261455" lon="11.313776712543339"><ele>276.0</ele><time>2026-04-11T09:43:33.973Z</time></trkpt><trkpt lat="43.96022877679618" lon="11.313867284107106"><ele>276.0</ele><time>2026-04-11T09:43:34.973Z</time></trkpt><trkpt lat="43.960289771368096" lon="11.31398410186464"><ele>276.0</ele><time>2026-04-11T09:43:36.973Z</time></trkpt><trkpt lat="43.960361763700774" lon="11.314040903676274"><ele>276.0</ele><time>2026-04-11T09:43:37.973Z</time></trkpt><trkpt lat="43.96048473253049" lon="11.31405895257558"><ele>277.1666666666667</ele><time>2026-04-11T09:43:39.973Z</time></trkpt><trkpt lat="43.9605968449348" lon="11.314048060651471"><ele>278.3333333333333</ele><time>2026-04-11T09:43:41.973Z</time></trkpt><trkpt lat="43.960678823016245" lon="11.314041599104533"><ele>279.5</ele><time>2026-04-11T09:43:43.973Z</time></trkpt><trkpt lat="43.96077173956484" lon="11.314014239582484"><ele>280.66666666666663</ele><time>2026-04-11T09:43:45.973Z</time></trkpt><trkpt lat="43.96085455951033" lon="11.314025684216503"><ele>281.8333333333333</ele><time>2026-04-11T09:43:46.973Z</time></trkpt><trkpt lat="43.96092307524796" lon="11.314023511312108"><ele>283.0</ele><time>2026-04-11T09:43:47.973Z</time></trkpt><trkpt lat="43.96102201427981" lon="11.314037096865603"><ele>283.0</ele><time>2026-04-11T09:43:48.973Z</time></trkpt><trkpt lat="43.96111469704184" lon="11.314082605551768"><ele>283.0</ele><time>2026-04-11T09:43:49.973Z</time></trkpt><trkpt lat="43.96120721005359" lon="11.314154196176267"><ele>283.0</ele><time>2026-04-11T09:43:51.973Z</time></trkpt><trkpt lat="43.96128056213536" lon="11.314188811319553"><ele>283.0</ele><time>2026-04-11T09:43:54.973Z</time></trkpt><trkpt lat="43.96136400095947" lon="11.314234195344048"><ele>283.0</ele><time>2026-04-11T09:43:57.973Z</time></trkpt><trkpt lat="43.96144416538726" lon="11.314258308194722"><ele>283.0</ele><time>2026-04-11T09:44:00.973Z</time></trkpt><trkpt lat="43.961511367039165" lon="11.314268730466923"><ele>283.0</ele><time>2026-04-11T09:44:02.973Z</time></trkpt><trkpt lat="43.96157986840076" lon="11.314294544593118"><ele>283.0</ele><time>2026-04-11T09:44:10.973Z</time></trkpt><trkpt lat="43.9616564330004" lon="11.31431442780929"><ele>283.0</ele><time>2026-04-11T09:44:13.973Z</time></trkpt><trkpt lat="43.96173665105254" lon="11.314370440515573"><ele>283.0</ele><time>2026-04-11T09:44:15.973Z</time></trkpt><trkpt lat="43.96180158001345" lon="11.314457757145938"><ele>283.0</ele><time>2026-04-11T09:44:17.973Z</time></trkpt><trkpt lat="43.96186802417139" lon="11.314547313534558"><ele>284.0</ele><time>2026-04-11T09:44:19.973Z</time></trkpt><trkpt lat="43.96193500822364" lon="11.314671368208975"><ele>285.0</ele><time>2026-04-11T09:44:21.973Z</time></trkpt><trkpt lat="43.96202500176548" lon="11.314803911611895"><ele>286.0</ele><time>2026-04-11T09:44:23.973Z</time></trkpt><trkpt lat="43.96205372367791" lon="11.31490180808844"><ele>287.0</ele><time>2026-04-11T09:44:24.973Z</time></trkpt><trkpt lat="43.96208773624465" lon="11.314998674357517"><ele>288.0</ele><time>2026-04-11T09:44:25.973Z</time></trkpt><trkpt lat="43.96213405432297" lon="11.315107863937873"><ele>288.0</ele><time>2026-04-11T09:44:26.973Z</time></trkpt><trkpt lat="43.962158068362875" lon="11.31519997705212"><ele>288.0</ele><time>2026-04-11T09:44:27.973Z</time></trkpt><trkpt lat="43.96219900576923" lon="11.315371779985533"><ele>288.0</ele><time>2026-04-11T09:44:29.973Z</time></trkpt><trkpt lat="43.96223672253716" lon="11.3154590739809"><ele>288.0</ele><time>2026-04-11T09:44:30.973Z</time></trkpt><trkpt lat="43.96229126858631" lon="11.315522661392379"><ele>288.0</ele><time>2026-04-11T09:44:31.973Z</time></trkpt><trkpt lat="43.962353189008844" lon="11.315567296443731"><ele>288.0</ele><time>2026-04-11T09:44:32.973Z</time></trkpt><trkpt lat="43.96246537944728" lon="11.315633196775053"><ele>293.0</ele><time>2026-04-11T09:44:34.973Z</time></trkpt><trkpt lat="43.96258344724835" lon="11.315670956625768"><ele>298.0</ele><time>2026-04-11T09:44:36.973Z</time></trkpt><trkpt lat="43.96265395422069" lon="11.315728695994517"><ele>303.0</ele><time>2026-04-11T09:44:38.973Z</time></trkpt><trkpt lat="43.9627377286138" lon="11.31578150692081"><ele>308.0</ele><time>2026-04-11T09:44:40.973Z</time></trkpt><trkpt lat="43.9628067968995" lon="11.315808927392201"><ele>313.0</ele><time>2026-04-11T09:44:42.973Z</time></trkpt><trkpt lat="43.962918166345375" lon="11.315881428762685"><ele>313.0</ele><time>2026-04-11T09:44:44.973Z</time></trkpt><trkpt lat="43.963004352749785" lon="11.31593794208947"><ele>313.0</ele><time>2026-04-11T09:44:45.974Z</time></trkpt><trkpt lat="43.963070170975485" lon="11.315973555117617"><ele>313.0</ele><time>2026-04-11T09:44:46.974Z</time></trkpt><trkpt lat="43.9631204652045" lon="11.316028648445233"><ele>313.0</ele><time>2026-04-11T09:44:47.974Z</time></trkpt><trkpt lat="43.96321142637727" lon="11.316076530715389"><ele>313.0</ele><time>2026-04-11T09:44:49.974Z</time></trkpt><trkpt lat="43.96330677410505" lon="11.316133559965188"><ele>313.0</ele><time>2026-04-11T09:44:52.974Z</time></trkpt><trkpt lat="43.963353414585875" lon="11.316192692312923"><ele>313.0</ele><time>2026-04-11T09:44:59.974Z</time></trkpt><trkpt lat="43.96329788875374" lon="11.316139657361129"><ele>313.0</ele><time>2026-04-11T09:45:50.972Z</time></trkpt><trkpt lat="43.96321159342771" lon="11.316195289784437"><ele>313.0</ele><time>2026-04-11T09:45:53.972Z</time></trkpt><trkpt lat="43.9631115567242" lon="11.316277063924208"><ele>313.0</ele><time>2026-04-11T09:45:55.972Z</time></trkpt><trkpt lat="43.96305265459511" lon="11.316314194157622"><ele>313.0</ele><time>2026-04-11T09:45:56.972Z</time></trkpt><trkpt lat="43.96299566717166" lon="11.316357379043005"><ele>313.0</ele><time>2026-04-11T09:45:57.972Z</time></trkpt><trkpt lat="43.96290280557177" lon="11.316428501525243"><ele>315.4</ele><time>2026-04-11T09:45:59.972Z</time></trkpt><trkpt lat="43.962823154929424" lon="11.316504652233482"><ele>317.8</ele><time>2026-04-11T09:46:01.972Z</time></trkpt><trkpt lat="43.9627586319511" lon="11.316624519735031"><ele>320.2</ele><time>2026-04-11T09:46:03.972Z</time></trkpt><trkpt lat="43.962728025378276" lon="11.316731605546371"><ele>322.6</ele><time>2026-04-11T09:46:04.972Z</time></trkpt><trkpt lat="43.96269398978205" lon="11.316832212698902"><ele>325.0</ele><time>2026-04-11T09:46:06.972Z</time></trkpt><trkpt lat="43.96265572153174" lon="11.316952737588517"><ele>325.0</ele><time>2026-04-11T09:46:09.972Z</time></trkpt><trkpt lat="43.962605538799934" lon="11.31706673659179"><ele>325.0</ele><time>2026-04-11T09:46:11.972Z</time></trkpt><trkpt lat="43.96256961277436" lon="11.317190103482742"><ele>325.0</ele><time>2026-04-11T09:46:13.972Z</time></trkpt><trkpt lat="43.96257125683856" lon="11.317327487162682"><ele>325.0</ele><time>2026-04-11T09:46:15.972Z</time></trkpt><trkpt lat="43.96268199447053" lon="11.317430888219189"><ele>325.0</ele><time>2026-04-11T09:46:17.972Z</time></trkpt><trkpt lat="43.96279645729045" lon="11.317492445265556"><ele>323.8</ele><time>2026-04-11T09:46:19.972Z</time></trkpt><trkpt lat="43.96289976132924" lon="11.317551184423433"><ele>322.6</ele><time>2026-04-11T09:46:21.972Z</time></trkpt><trkpt lat="43.96300934303619" lon="11.31761313540276"><ele>321.4</ele><time>2026-04-11T09:46:23.972Z</time></trkpt><trkpt lat="43.963102692351626" lon="11.317665909197547"><ele>320.2</ele><time>2026-04-11T09:46:25.972Z</time></trkpt><trkpt lat="43.963200956211445" lon="11.317721461368247"><ele>319.0</ele><time>2026-04-11T09:46:27.972Z</time></trkpt><trkpt lat="43.96324283694063" lon="11.317865626616964"><ele>319.0</ele><time>2026-04-11T09:46:29.972Z</time></trkpt><trkpt lat="43.96330506668929" lon="11.317942082711776"><ele>319.0</ele><time>2026-04-11T09:46:31.972Z</time></trkpt><trkpt lat="43.96337306463701" lon="11.318010332671898"><ele>319.0</ele><time>2026-04-11T09:46:33.972Z</time></trkpt><trkpt lat="43.963441464337826" lon="11.318097766711112"><ele>319.0</ele><time>2026-04-11T09:46:35.972Z</time></trkpt><trkpt lat="43.96351655319763" lon="11.318169886870592"><ele>319.0</ele><time>2026-04-11T09:46:37.972Z</time></trkpt><trkpt lat="43.96358060682767" lon="11.318248969063317"><ele>319.0</ele><time>2026-04-11T09:46:39.972Z</time></trkpt><trkpt lat="43.96364116428364" lon="11.318342967082799"><ele>315.5</ele><time>2026-04-11T09:46:41.972Z</time></trkpt><trkpt lat="43.963692848317415" lon="11.318451745592709"><ele>312.0</ele><time>2026-04-11T09:46:43.972Z</time></trkpt><trkpt lat="43.96374435843464" lon="11.318545268562032"><ele>308.5</ele><time>2026-04-11T09:46:45.972Z</time></trkpt><trkpt lat="43.96379303528827" lon="11.31863711152082"><ele>305.0</ele><time>2026-04-11T09:46:47.972Z</time></trkpt><trkpt lat="43.963834368669346" lon="11.3187164904108"><ele>301.5</ele><time>2026-04-11T09:46:49.972Z</time></trkpt><trkpt lat="43.96388667471826" lon="11.318805165886724"><ele>298.0</ele><time>2026-04-11T09:46:51.972Z</time></trkpt><trkpt lat="43.96392402180309" lon="11.318888450651528"><ele>298.0</ele><time>2026-04-11T09:46:53.972Z</time></trkpt><trkpt lat="43.9639585591737" lon="11.318972546381739"><ele>298.0</ele><time>2026-04-11T09:46:55.972Z</time></trkpt><trkpt lat="43.964040080214595" lon="11.318994297761925"><ele>298.0</ele><time>2026-04-11T09:46:58.972Z</time></trkpt><trkpt lat="43.96409228609804" lon="11.31885202367065"><ele>298.0</ele><time>2026-04-11T09:47:00.972Z</time></trkpt><trkpt lat="43.964142686742605" lon="11.318724632212243"><ele>298.0</ele><time>2026-04-11T09:47:02.972Z</time></trkpt><trkpt lat="43.96420000860407" lon="11.318601547273396"><ele>294.2</ele><time>2026-04-11T09:47:04.972Z</time></trkpt><trkpt lat="43.964235967758775" lon="11.318524146742874"><ele>290.4</ele><time>2026-04-11T09:47:05.972Z</time></trkpt><trkpt lat="43.964289585887805" lon="11.318391755158364"><ele>286.59999999999997</ele><time>2026-04-11T09:47:07.972Z</time></trkpt><trkpt lat="43.96435366814607" lon="11.318263499913352"><ele>282.8</ele><time>2026-04-11T09:47:09.972Z</time></trkpt><trkpt lat="43.964445075205234" lon="11.318166680884607"><ele>279.0</ele><time>2026-04-11T09:47:11.972Z</time></trkpt><trkpt lat="43.96454309482517" lon="11.318115150790842"><ele>279.0</ele><time>2026-04-11T09:47:13.972Z</time></trkpt><trkpt lat="43.964656685490986" lon="11.318098853922715"><ele>279.0</ele><time>2026-04-11T09:47:15.972Z</time></trkpt><trkpt lat="43.96472503910317" lon="11.318081749325103"><ele>279.0</ele><time>2026-04-11T09:47:16.972Z</time></trkpt><trkpt lat="43.96478621539851" lon="11.318053069601937"><ele>279.0</ele><time>2026-04-11T09:47:17.972Z</time></trkpt><trkpt lat="43.96485164655806" lon="11.318017837591881"><ele>279.0</ele><time>2026-04-11T09:47:18.972Z</time></trkpt><trkpt lat="43.964937220464584" lon="11.317937330360989"><ele>279.0</ele><time>2026-04-11T09:47:20.972Z</time></trkpt><trkpt lat="43.96495849306692" lon="11.317841420278532"><ele>279.85714285714283</ele><time>2026-04-11T09:47:22.971Z</time></trkpt><trkpt lat="43.96496116700552" lon="11.317750230530052"><ele>280.7142857142857</ele><time>2026-04-11T09:47:24.97Z</time></trkpt><trkpt lat="43.964971943798346" lon="11.317662513469994"><ele>281.57142857142856</ele><time>2026-04-11T09:47:26.971Z</time></trkpt><trkpt lat="43.96497738353974" lon="11.317568177869024"><ele>282.42857142857144</ele><time>2026-04-11T09:47:28.971Z</time></trkpt><trkpt lat="43.96499039039715" lon="11.317469895449937"><ele>283.2857142857143</ele><time>2026-04-11T09:47:30.971Z</time></trkpt><trkpt lat="43.96499840441933" lon="11.317362212560285"><ele>284.1428571428571</ele><time>2026-04-11T09:47:32.97Z</time></trkpt><trkpt lat="43.96499997513133" lon="11.317250690393946"><ele>285.0</ele><time>2026-04-11T09:47:34.97Z</time></trkpt><trkpt lat="43.96500824003059" lon="11.317154629098154"><ele>281.0</ele><time>2026-04-11T09:47:36.971Z</time></trkpt><trkpt lat="43.96505278728366" lon="11.317082022940198"><ele>277.0</ele><time>2026-04-11T09:47:51.971Z</time></trkpt><trkpt lat="43.96507519455012" lon="11.316975253018809"><ele>273.0</ele><time>2026-04-11T09:48:00.971Z</time></trkpt><trkpt lat="43.96507251798245" lon="11.316826604770636"><ele>269.0</ele><time>2026-04-11T09:48:02.971Z</time></trkpt><trkpt lat="43.96509351374685" lon="11.316689772980537"><ele>265.0</ele><time>2026-04-11T09:48:04.971Z</time></trkpt><trkpt lat="43.96514391659604" lon="11.316592559490024"><ele>261.0</ele><time>2026-04-11T09:48:06.971Z</time></trkpt><trkpt lat="43.96515436856249" lon="11.316496354494957"><ele>261.0</ele><time>2026-04-11T09:48:10.971Z</time></trkpt><trkpt lat="43.965228519940155" lon="11.316502406352724"><ele>261.0</ele><time>2026-04-11T09:48:14.971Z</time></trkpt><trkpt lat="43.96527361207613" lon="11.31657521987329"><ele>261.0</ele><time>2026-04-11T09:48:17.971Z</time></trkpt><trkpt lat="43.965295318336864" lon="11.316678906489907"><ele>261.0</ele><time>2026-04-11T09:48:20.971Z</time></trkpt><trkpt lat="43.96533882071572" lon="11.316792506094988"><ele>261.0</ele><time>2026-04-11T09:48:22.971Z</time></trkpt><trkpt lat="43.96538183851051" lon="11.316940995517182"><ele>261.0</ele><time>2026-04-11T09:48:24.971Z</time></trkpt><trkpt lat="43.965452666804794" lon="11.317055208411398"><ele>261.0</ele><time>2026-04-11T09:48:26.971Z</time></trkpt><trkpt lat="43.96551232308514" lon="11.31718620850515"><ele>261.0</ele><time>2026-04-11T09:48:28.971Z</time></trkpt><trkpt lat="43.96555215724925" lon="11.317291000880704"><ele>261.0</ele><time>2026-04-11T09:48:30.971Z</time></trkpt><trkpt lat="43.96559018091122" lon="11.31739515758618"><ele>261.0</ele><time>2026-04-11T09:48:32.971Z</time></trkpt><trkpt lat="43.96563287792537" lon="11.317518644803899"><ele>261.0</ele><time>2026-04-11T09:48:34.971Z</time></trkpt><trkpt lat="43.965681238839615" lon="11.317625034938471"><ele>260.1666666666667</ele><time>2026-04-11T09:48:36.971Z</time></trkpt><trkpt lat="43.96572163506365" lon="11.317738499305031"><ele>259.3333333333333</ele><time>2026-04-11T09:48:38.971Z</time></trkpt><trkpt lat="43.96575950917441" lon="11.317875259555022"><ele>258.5</ele><time>2026-04-11T09:48:40.971Z</time></trkpt><trkpt lat="43.96578330441333" lon="11.317983033036189"><ele>257.66666666666663</ele><time>2026-04-11T09:48:42.971Z</time></trkpt><trkpt lat="43.96581150272028" lon="11.31809069788538"><ele>256.8333333333333</ele><time>2026-04-11T09:48:44.971Z</time></trkpt><trkpt lat="43.965844887604504" lon="11.31820557471181"><ele>256.0</ele><time>2026-04-11T09:48:46.972Z</time></trkpt><trkpt lat="43.96586207382508" lon="11.31830827775227"><ele>250.66666666666666</ele><time>2026-04-11T09:48:48.972Z</time></trkpt><trkpt lat="43.965886871855254" lon="11.318401603365267"><ele>245.33333333333331</ele><time>2026-04-11T09:48:50.972Z</time></trkpt><trkpt lat="43.96591546979582" lon="11.318513613667507"><ele>240.0</ele><time>2026-04-11T09:48:52.972Z</time></trkpt><trkpt lat="43.96592574376332" lon="11.318606386765845"><ele>234.66666666666669</ele><time>2026-04-11T09:48:54.972Z</time></trkpt><trkpt lat="43.96594421834409" lon="11.31869847389134"><ele>229.33333333333334</ele><time>2026-04-11T09:48:56.972Z</time></trkpt><trkpt lat="43.965982778859654" lon="11.31879950266415"><ele>224.0</ele><time>2026-04-11T09:48:58.972Z</time></trkpt><trkpt lat="43.96605150553892" lon="11.318892739184141"><ele>224.0</ele><time>2026-04-11T09:49:00.972Z</time></trkpt><trkpt lat="43.966157814438574" lon="11.318908139768492"><ele>223.99999999999997</ele><time>2026-04-11T09:49:03.972Z</time></trkpt><trkpt lat="43.96625809581986" lon="11.318794140549079"><ele>223.99999999999997</ele><time>2026-04-11T09:49:05.972Z</time></trkpt><trkpt lat="43.966279207467714" lon="11.318685100604315"><ele>224.0</ele><time>2026-04-11T09:49:06.972Z</time></trkpt><trkpt lat="43.96636153283108" lon="11.318616494337078"><ele>224.0</ele><time>2026-04-11T09:49:08.972Z</time></trkpt><trkpt lat="43.96638750488172" lon="11.318826095868626"><ele>223.00000000000003</ele><time>2026-04-11T09:49:11.972Z</time></trkpt><trkpt lat="43.96636432241878" lon="11.318924200702794"><ele>222.0</ele><time>2026-04-11T09:49:12.972Z</time></trkpt><trkpt lat="43.966325424119674" lon="11.319020073297512"><ele>221.0</ele><time>2026-04-11T09:49:13.972Z</time></trkpt><trkpt lat="43.96629517509703" lon="11.319124059056012"><ele>220.0</ele><time>2026-04-11T09:49:14.972Z</time></trkpt><trkpt lat="43.9662787421596" lon="11.319222447948759"><ele>219.00000000000003</ele><time>2026-04-11T09:49:15.972Z</time></trkpt><trkpt lat="43.96623907647979" lon="11.319292070632308"><ele>218.0</ele><time>2026-04-11T09:49:16.972Z</time></trkpt><trkpt lat="43.96621026786514" lon="11.319422386938966"><ele>218.0</ele><time>2026-04-11T09:49:18.972Z</time></trkpt><trkpt lat="43.966225726296635" lon="11.319519721057947"><ele>218.0</ele><time>2026-04-11T09:49:20.972Z</time></trkpt><trkpt lat="43.966354432480905" lon="11.319455685404167"><ele>218.0</ele><time>2026-04-11T09:49:23.972Z</time></trkpt><trkpt lat="43.966391376450666" lon="11.319373986099745"><ele>218.0</ele><time>2026-04-11T09:49:24.972Z</time></trkpt><trkpt lat="43.966474715127994" lon="11.31925291253947"><ele>218.0</ele><time>2026-04-11T09:49:25.972Z</time></trkpt><trkpt lat="43.96653742907073" lon="11.319169661329953"><ele>218.00000000000003</ele><time>2026-04-11T09:49:26.972Z</time></trkpt><trkpt lat="43.9665959572762" lon="11.319112922530822"><ele>218.0</ele><time>2026-04-11T09:49:27.972Z</time></trkpt><trkpt lat="43.9666457797967" lon="11.31903186336173"><ele>218.0</ele><time>2026-04-11T09:49:28.969Z</time></trkpt><trkpt lat="43.966702708179334" lon="11.318971670400112"><ele>218.0</ele><time>2026-04-11T09:49:29.97Z</time></trkpt><trkpt lat="43.966754468902664" lon="11.31891786206157"><ele>218.00000000000003</ele><time>2026-04-11T09:49:30.97Z</time></trkpt><trkpt lat="43.966805366508375" lon="11.318853735134256"><ele>218.0</ele><time>2026-04-11T09:49:31.97Z</time></trkpt><trkpt lat="43.96689783225057" lon="11.318761062888782"><ele>216.33333333333334</ele><time>2026-04-11T09:49:33.97Z</time></trkpt><trkpt lat="43.966980764109074" lon="11.318650478047243"><ele>214.66666666666669</ele><time>2026-04-11T09:49:35.97Z</time></trkpt><trkpt lat="43.967026375241176" lon="11.318558696416407"><ele>213.0</ele><time>2026-04-11T09:49:37.97Z</time></trkpt><trkpt lat="43.967092411210906" lon="11.318576112069763"><ele>211.33333333333331</ele><time>2026-04-11T09:49:40.969Z</time></trkpt><trkpt lat="43.96717685191378" lon="11.318603716490992"><ele>209.66666666666666</ele><time>2026-04-11T09:49:43.97Z</time></trkpt><trkpt lat="43.96718568603482" lon="11.318724727741696"><ele>208.0</ele><time>2026-04-11T09:49:47.97Z</time></trkpt><trkpt lat="43.96711882225867" lon="11.318818706461416"><ele>207.8</ele><time>2026-04-11T09:49:48.97Z</time></trkpt><trkpt lat="43.96706849784791" lon="11.31893588214776"><ele>207.60000000000002</ele><time>2026-04-11T09:49:49.97Z</time></trkpt><trkpt lat="43.9670197077758" lon="11.319052789860402"><ele>207.39999999999998</ele><time>2026-04-11T09:49:50.97Z</time></trkpt><trkpt lat="43.96696983219" lon="11.319161052535227"><ele>207.2</ele><time>2026-04-11T09:49:51.97Z</time></trkpt><trkpt lat="43.96693216992815" lon="11.319286894220967"><ele>207.0</ele><time>2026-04-11T09:49:52.97Z</time></trkpt><trkpt lat="43.9668741677304" lon="11.319397704677405"><ele>207.0</ele><time>2026-04-11T09:49:53.97Z</time></trkpt><trkpt lat="43.966842037465234" lon="11.319527922681985"><ele>207.0</ele><time>2026-04-11T09:49:54.97Z</time></trkpt><trkpt lat="43.96680054041424" lon="11.31965752430658"><ele>207.0</ele><time>2026-04-11T09:49:55.97Z</time></trkpt><trkpt lat="43.96675999485808" lon="11.319798015773761"><ele>207.0</ele><time>2026-04-11T09:49:56.97Z</time></trkpt><trkpt lat="43.966726810393176" lon="11.31993186251494"><ele>207.0</ele><time>2026-04-11T09:49:57.97Z</time></trkpt><trkpt lat="43.96669846373251" lon="11.320073060232003"><ele>207.5</ele><time>2026-04-11T09:49:58.97Z</time></trkpt><trkpt lat="43.96666658744389" lon="11.320217127625497"><ele>208.0</ele><time>2026-04-11T09:49:59.97Z</time></trkpt><trkpt lat="43.966627271028315" lon="11.320366278789916"><ele>208.5</ele><time>2026-04-11T09:50:00.97Z</time></trkpt><trkpt lat="43.96657224511057" lon="11.320524442456476"><ele>209.0</ele><time>2026-04-11T09:50:01.97Z</time></trkpt><trkpt lat="43.96651004068484" lon="11.32068896749597"><ele>209.0</ele><time>2026-04-11T09:50:02.97Z</time></trkpt><trkpt lat="43.9664231125601" lon="11.320850301323517"><ele>209.0</ele><time>2026-04-11T09:50:03.97Z</time></trkpt><trkpt lat="43.96634288015165" lon="11.320984896162775"><ele>209.0</ele><time>2026-04-11T09:50:04.97Z</time></trkpt><trkpt lat="43.96626791094805" lon="11.321113124934113"><ele>209.0</ele><time>2026-04-11T09:50:05.97Z</time></trkpt><trkpt lat="43.966201146941096" lon="11.321234863387762"><ele>209.0</ele><time>2026-04-11T09:50:06.97Z</time></trkpt><trkpt lat="43.96613316627696" lon="11.321363669285889"><ele>209.0</ele><time>2026-04-11T09:50:07.97Z</time></trkpt><trkpt lat="43.966060811370774" lon="11.321491224868355"><ele>209.0</ele><time>2026-04-11T09:50:08.97Z</time></trkpt><trkpt lat="43.96598978666447" lon="11.321624547105465"><ele>209.0</ele><time>2026-04-11T09:50:09.97Z</time></trkpt><trkpt lat="43.9659233638141" lon="11.321750099131796"><ele>209.6</ele><time>2026-04-11T09:50:10.97Z</time></trkpt><trkpt lat="43.96586150143199" lon="11.321882435708963"><ele>210.2</ele><time>2026-04-11T09:50:11.97Z</time></trkpt><trkpt lat="43.96578600142971" lon="11.321992382276962"><ele>210.79999999999998</ele><time>2026-04-11T09:50:12.97Z</time></trkpt><trkpt lat="43.96571501119876" lon="11.32210875119114"><ele>211.39999999999998</ele><time>2026-04-11T09:50:13.97Z</time></trkpt><trkpt lat="43.96564130668077" lon="11.322214665927591"><ele>212.0</ele><time>2026-04-11T09:50:14.97Z</time></trkpt><trkpt lat="43.965562273074205" lon="11.322316963036489"><ele>210.6</ele><time>2026-04-11T09:50:15.97Z</time></trkpt><trkpt lat="43.96548568200089" lon="11.322420336468468"><ele>209.2</ele><time>2026-04-11T09:50:16.97Z</time></trkpt><trkpt lat="43.965414926698635" lon="11.322522952830866"><ele>207.8</ele><time>2026-04-11T09:50:17.97Z</time></trkpt><trkpt lat="43.96534774041245" lon="11.322630196934035"><ele>206.4</ele><time>2026-04-11T09:50:18.97Z</time></trkpt><trkpt lat="43.965290862748304" lon="11.322737437982962"><ele>205.0</ele><time>2026-04-11T09:50:19.97Z</time></trkpt><trkpt lat="43.96524610995245" lon="11.322850357001961"><ele>205.0</ele><time>2026-04-11T09:50:20.97Z</time></trkpt><trkpt lat="43.96520594899164" lon="11.322967793229315"><ele>205.0</ele><time>2026-04-11T09:50:21.97Z</time></trkpt><trkpt lat="43.96517378237506" lon="11.32307973165703"><ele>205.0</ele><time>2026-04-11T09:50:22.97Z</time></trkpt><trkpt lat="43.96514816303134" lon="11.323200818280332"><ele>205.0</ele><time>2026-04-11T09:50:23.97Z</time></trkpt><trkpt lat="43.96512034873605" lon="11.323319740604253"><ele>205.0</ele><time>2026-04-11T09:50:24.97Z</time></trkpt><trkpt lat="43.965088845572495" lon="11.323449384458282"><ele>204.8</ele><time>2026-04-11T09:50:25.97Z</time></trkpt><trkpt lat="43.96503959271281" lon="11.323585850077825"><ele>204.6</ele><time>2026-04-11T09:50:26.97Z</time></trkpt><trkpt lat="43.96500888484085" lon="11.323717432530428"><ele>204.39999999999998</ele><time>2026-04-11T09:50:27.97Z</time></trkpt><trkpt lat="43.964991150028816" lon="11.32384722955378"><ele>204.2</ele><time>2026-04-11T09:50:28.97Z</time></trkpt><trkpt lat="43.96496887692169" lon="11.32396469350513"><ele>204.0</ele><time>2026-04-11T09:50:29.97Z</time></trkpt><trkpt lat="43.96493320288739" lon="11.324057979514123"><ele>203.6</ele><time>2026-04-11T09:50:30.97Z</time></trkpt><trkpt lat="43.96489921563644" lon="11.324223315684678"><ele>203.2</ele><time>2026-04-11T09:50:32.97Z</time></trkpt><trkpt lat="43.96488762566918" lon="11.324376488142397"><ele>202.79999999999998</ele><time>2026-04-11T09:50:34.97Z</time></trkpt><trkpt lat="43.964830954142535" lon="11.324479206143913"><ele>202.39999999999998</ele><time>2026-04-11T09:50:36.97Z</time></trkpt><trkpt lat="43.96471178119598" lon="11.324487607423736"><ele>202.0</ele><time>2026-04-11T09:50:38.97Z</time></trkpt><trkpt lat="43.96465499398252" lon="11.324446126199318"><ele>202.0</ele><time>2026-04-11T09:50:39.97Z</time></trkpt><trkpt lat="43.964553854206336" lon="11.3243783456139"><ele>202.0</ele><time>2026-04-11T09:50:41.97Z</time></trkpt><trkpt lat="43.96447006531967" lon="11.324326417454204"><ele>202.0</ele><time>2026-04-11T09:50:43.97Z</time></trkpt><trkpt lat="43.96439051516062" lon="11.324295636910675"><ele>202.0</ele><time>2026-04-11T09:50:45.97Z</time></trkpt><trkpt lat="43.96432456954025" lon="11.324266007720494"><ele>202.0</ele><time>2026-04-11T09:50:47.97Z</time></trkpt><trkpt lat="43.96427581259245" lon="11.324445308559488"><ele>202.0</ele><time>2026-04-11T09:50:49.97Z</time></trkpt><trkpt lat="43.964225979445516" lon="11.324605650617181"><ele>202.0</ele><time>2026-04-11T09:50:51.97Z</time></trkpt><trkpt lat="43.96422262709251" lon="11.324701173828482"><ele>202.0</ele><time>2026-04-11T09:50:52.97Z</time></trkpt><trkpt lat="43.96422284413648" lon="11.32479270737949"><ele>202.0</ele><time>2026-04-11T09:50:53.97Z</time></trkpt><trkpt lat="43.96423460255591" lon="11.324969147762584"><ele>202.0</ele><time>2026-04-11T09:50:55.97Z</time></trkpt><trkpt lat="43.96425292035704" lon="11.325092321989246"><ele>201.83333333333331</ele><time>2026-04-11T09:50:56.97Z</time></trkpt><trkpt lat="43.96427901317822" lon="11.325203067148692"><ele>201.66666666666666</ele><time>2026-04-11T09:50:57.97Z</time></trkpt><trkpt lat="43.964291165379656" lon="11.325321252046955"><ele>201.5</ele><time>2026-04-11T09:50:58.97Z</time></trkpt><trkpt lat="43.96429589129356" lon="11.325457543068685"><ele>201.33333333333331</ele><time>2026-04-11T09:50:59.97Z</time></trkpt><trkpt lat="43.96432783107745" lon="11.325570068513867"><ele>201.16666666666666</ele><time>2026-04-11T09:51:00.97Z</time></trkpt><trkpt lat="43.964340217952476" lon="11.325676459895918"><ele>201.0</ele><time>2026-04-11T09:51:01.97Z</time></trkpt><trkpt lat="43.96435220604194" lon="11.325782031574674"><ele>201.0</ele><time>2026-04-11T09:51:02.97Z</time></trkpt><trkpt lat="43.96434964993784" lon="11.32588989193809"><ele>201.0</ele><time>2026-04-11T09:51:03.97Z</time></trkpt><trkpt lat="43.964360920520846" lon="11.325984928232055"><ele>201.0</ele><time>2026-04-11T09:51:04.97Z</time></trkpt><trkpt lat="43.96436986526415" lon="11.326104926024023"><ele>201.0</ele><time>2026-04-11T09:51:05.97Z</time></trkpt><trkpt lat="43.964384770346754" lon="11.326228242562292"><ele>201.0</ele><time>2026-04-11T09:51:06.97Z</time></trkpt><trkpt lat="43.964409740655555" lon="11.326326029338226"><ele>201.0</ele><time>2026-04-11T09:51:07.97Z</time></trkpt><trkpt lat="43.964423860083905" lon="11.326428127907281"><ele>201.16666666666666</ele><time>2026-04-11T09:51:08.97Z</time></trkpt><trkpt lat="43.96443845546786" lon="11.326534243131348"><ele>201.33333333333331</ele><time>2026-04-11T09:51:09.97Z</time></trkpt><trkpt lat="43.96445203893701" lon="11.326625899722046"><ele>201.5</ele><time>2026-04-11T09:51:10.97Z</time></trkpt><trkpt lat="43.96446792563592" lon="11.326786196009532"><ele>201.66666666666666</ele><time>2026-04-11T09:51:12.97Z</time></trkpt><trkpt lat="43.96447219074927" lon="11.326922263243032"><ele>201.83333333333331</ele><time>2026-04-11T09:51:14.97Z</time></trkpt><trkpt lat="43.96445592353463" lon="11.327008509318679"><ele>202.0</ele><time>2026-04-11T09:51:21.97Z</time></trkpt><trkpt lat="43.96440986460977" lon="11.327128835337476"><ele>201.8</ele><time>2026-04-11T09:51:24.97Z</time></trkpt><trkpt lat="43.96440993729536" lon="11.327282348489621"><ele>201.6</ele><time>2026-04-11T09:51:26.971Z</time></trkpt><trkpt lat="43.96449908691643" lon="11.327315604195146"><ele>201.4</ele><time>2026-04-11T09:51:27.971Z</time></trkpt><trkpt lat="43.96455983418259" lon="11.327383254992021"><ele>201.20000000000002</ele><time>2026-04-11T09:51:28.971Z</time></trkpt><trkpt lat="43.96462373787844" lon="11.327466952668747"><ele>201.0</ele><time>2026-04-11T09:51:29.971Z</time></trkpt><trkpt lat="43.964690388723746" lon="11.32756388837102"><ele>201.0</ele><time>2026-04-11T09:51:30.971Z</time></trkpt><trkpt lat="43.96475810560196" lon="11.327665676709458"><ele>201.0</ele><time>2026-04-11T09:51:31.971Z</time></trkpt><trkpt lat="43.964831969482375" lon="11.327760874545932"><ele>201.0</ele><time>2026-04-11T09:51:32.971Z</time></trkpt><trkpt lat="43.96490477816372" lon="11.327854407509049"><ele>201.0</ele><time>2026-04-11T09:51:33.971Z</time></trkpt><trkpt lat="43.96496892266601" lon="11.32796286532791"><ele>201.0</ele><time>2026-04-11T09:51:34.968Z</time></trkpt><trkpt lat="43.96503595807038" lon="11.328043918018585"><ele>201.60000000000002</ele><time>2026-04-11T09:51:35.969Z</time></trkpt><trkpt lat="43.965095670058986" lon="11.32811609494421"><ele>202.2</ele><time>2026-04-11T09:51:36.969Z</time></trkpt><trkpt lat="43.96514851737479" lon="11.328179771938085"><ele>202.8</ele><time>2026-04-11T09:51:37.969Z</time></trkpt><trkpt lat="43.96524305459685" lon="11.32828227816057"><ele>203.39999999999998</ele><time>2026-04-11T09:51:39.969Z</time></trkpt><trkpt lat="43.96533749366124" lon="11.328387957546852"><ele>204.0</ele><time>2026-04-11T09:51:41.968Z</time></trkpt><trkpt lat="43.965389252486524" lon="11.328455469381957"><ele>204.0</ele><time>2026-04-11T09:51:42.968Z</time></trkpt><trkpt lat="43.96544164466596" lon="11.32851832726989"><ele>204.0</ele><time>2026-04-11T09:51:43.968Z</time></trkpt><trkpt lat="43.96549191167302" lon="11.32858384156358"><ele>204.0</ele><time>2026-04-11T09:51:44.969Z</time></trkpt><trkpt lat="43.965545333803945" lon="11.328656184997193"><ele>204.0</ele><time>2026-04-11T09:51:45.969Z</time></trkpt><trkpt lat="43.96559527566459" lon="11.328749292032109"><ele>204.0</ele><time>2026-04-11T09:51:46.968Z</time></trkpt><trkpt lat="43.96563890979964" lon="11.328857081732"><ele>204.0</ele><time>2026-04-11T09:51:47.968Z</time></trkpt><trkpt lat="43.965673926324975" lon="11.32896111808319"><ele>204.16666666666666</ele><time>2026-04-11T09:51:48.968Z</time></trkpt><trkpt lat="43.96570085257923" lon="11.32906309655483"><ele>204.33333333333331</ele><time>2026-04-11T09:51:49.968Z</time></trkpt><trkpt lat="43.96570372615025" lon="11.329168955593683"><ele>204.5</ele><time>2026-04-11T09:51:50.968Z</time></trkpt><trkpt lat="43.96568601371628" lon="11.329273397093163"><ele>204.66666666666666</ele><time>2026-04-11T09:51:51.968Z</time></trkpt><trkpt lat="43.96565158696239" lon="11.329377507214392"><ele>204.83333333333331</ele><time>2026-04-11T09:51:52.968Z</time></trkpt><trkpt lat="43.96563145390759" lon="11.329480088748536"><ele>205.0</ele><time>2026-04-11T09:51:53.968Z</time></trkpt><trkpt lat="43.965614745272134" lon="11.329587385752772"><ele>205.0</ele><time>2026-04-11T09:51:54.968Z</time></trkpt><trkpt lat="43.96566210170294" lon="11.32968667378652"><ele>205.0</ele><time>2026-04-11T09:51:55.968Z</time></trkpt><trkpt lat="43.96570845559645" lon="11.329790096007017"><ele>205.0</ele><time>2026-04-11T09:51:56.968Z</time></trkpt><trkpt lat="43.96574096970715" lon="11.329915879572521"><ele>205.0</ele><time>2026-04-11T09:51:57.968Z</time></trkpt><trkpt lat="43.96575772965143" lon="11.330051019741674"><ele>205.0</ele><time>2026-04-11T09:51:58.968Z</time></trkpt><trkpt lat="43.96576981972205" lon="11.330199416700964"><ele>206.0</ele><time>2026-04-11T09:51:59.968Z</time></trkpt><trkpt lat="43.96575725394062" lon="11.330359607088798"><ele>207.0</ele><time>2026-04-11T09:52:00.968Z</time></trkpt><trkpt lat="43.965762297780216" lon="11.33053565491163"><ele>208.0</ele><time>2026-04-11T09:52:01.968Z</time></trkpt><trkpt lat="43.96578895363126" lon="11.330715711941936"><ele>209.0</ele><time>2026-04-11T09:52:02.968Z</time></trkpt><trkpt lat="43.965789588414" lon="11.330910837554867"><ele>208.75</ele><time>2026-04-11T09:52:03.968Z</time></trkpt><trkpt lat="43.96580157872867" lon="11.331102166151338"><ele>208.5</ele><time>2026-04-11T09:52:04.968Z</time></trkpt><trkpt lat="43.96580786059046" lon="11.331298678427677"><ele>208.25</ele><time>2026-04-11T09:52:05.968Z</time></trkpt><trkpt lat="43.96580657235861" lon="11.331493619759204"><ele>208.0</ele><time>2026-04-11T09:52:06.968Z</time></trkpt><trkpt lat="43.965798762944836" lon="11.331678252729105"><ele>208.0</ele><time>2026-04-11T09:52:07.968Z</time></trkpt><trkpt lat="43.96577735167927" lon="11.331853355234633"><ele>208.0</ele><time>2026-04-11T09:52:08.969Z</time></trkpt><trkpt lat="43.9657424799548" lon="11.332031357412419"><ele>208.0</ele><time>2026-04-11T09:52:09.969Z</time></trkpt><trkpt lat="43.965703816335036" lon="11.3321947435218"><ele>208.0</ele><time>2026-04-11T09:52:10.969Z</time></trkpt><trkpt lat="43.965660997921205" lon="11.3323536729998"><ele>209.0</ele><time>2026-04-11T09:52:11.969Z</time></trkpt><trkpt lat="43.96562510860308" lon="11.332495914150561"><ele>210.0</ele><time>2026-04-11T09:52:12.969Z</time></trkpt><trkpt lat="43.96559345134827" lon="11.33262912220875"><ele>211.0</ele><time>2026-04-11T09:52:13.969Z</time></trkpt><trkpt lat="43.965551186331226" lon="11.332754882018737"><ele>212.0</ele><time>2026-04-11T09:52:14.969Z</time></trkpt><trkpt lat="43.96551502278014" lon="11.33288347568697"><ele>213.0</ele><time>2026-04-11T09:52:15.969Z</time></trkpt><trkpt lat="43.96547754837457" lon="11.33300728128593"><ele>212.4</ele><time>2026-04-11T09:52:16.969Z</time></trkpt><trkpt lat="43.9654376491658" lon="11.333121117177724"><ele>211.8</ele><time>2026-04-11T09:52:17.969Z</time></trkpt><trkpt lat="43.965405483904796" lon="11.333242978031999"><ele>211.2</ele><time>2026-04-11T09:52:18.969Z</time></trkpt><trkpt lat="43.965357243660655" lon="11.333357562639307"><ele>210.6</ele><time>2026-04-11T09:52:19.969Z</time></trkpt><trkpt lat="43.96533436129775" lon="11.333479996257957"><ele>210.0</ele><time>2026-04-11T09:52:20.969Z</time></trkpt><trkpt lat="43.96528152089828" lon="11.333592262665478"><ele>210.0</ele><time>2026-04-11T09:52:21.969Z</time></trkpt><trkpt lat="43.96523981556163" lon="11.33371595046044"><ele>210.0</ele><time>2026-04-11T09:52:22.969Z</time></trkpt><trkpt lat="43.96519914816034" lon="11.333841045986167"><ele>210.0</ele><time>2026-04-11T09:52:23.969Z</time></trkpt><trkpt lat="43.96516434503157" lon="11.33396602313902"><ele>210.0</ele><time>2026-04-11T09:52:24.969Z</time></trkpt><trkpt lat="43.96512452631207" lon="11.33409943690843"><ele>210.0</ele><time>2026-04-11T09:52:25.969Z</time></trkpt><trkpt lat="43.96508219575329" lon="11.3342303700751"><ele>208.8</ele><time>2026-04-11T09:52:26.969Z</time></trkpt><trkpt lat="43.96503788910596" lon="11.334366367311931"><ele>207.6</ele><time>2026-04-11T09:52:27.969Z</time></trkpt><trkpt lat="43.96499971048241" lon="11.334505185511162"><ele>206.39999999999998</ele><time>2026-04-11T09:52:28.969Z</time></trkpt><trkpt lat="43.964934802078716" lon="11.334638877278325"><ele>205.2</ele><time>2026-04-11T09:52:29.969Z</time></trkpt><trkpt lat="43.96488895470861" lon="11.334777405470545"><ele>204.0</ele><time>2026-04-11T09:52:30.969Z</time></trkpt><trkpt lat="43.96484543708425" lon="11.334916963406314"><ele>204.0</ele><time>2026-04-11T09:52:31.969Z</time></trkpt><trkpt lat="43.964802701470916" lon="11.335059562997097"><ele>204.0</ele><time>2026-04-11T09:52:32.969Z</time></trkpt><trkpt lat="43.96476094658659" lon="11.335201004015612"><ele>204.0</ele><time>2026-04-11T09:52:33.969Z</time></trkpt><trkpt lat="43.96471892861637" lon="11.335341208135057"><ele>204.0</ele><time>2026-04-11T09:52:34.969Z</time></trkpt><trkpt lat="43.9646739345532" lon="11.335479081601902"><ele>204.0</ele><time>2026-04-11T09:52:35.969Z</time></trkpt><trkpt lat="43.96463150296876" lon="11.335612425821138"><ele>204.0</ele><time>2026-04-11T09:52:36.969Z</time></trkpt><trkpt lat="43.96458966360301" lon="11.335747862511186"><ele>204.0</ele><time>2026-04-11T09:52:37.969Z</time></trkpt><trkpt lat="43.96454842306677" lon="11.33588329548123"><ele>204.0</ele><time>2026-04-11T09:52:38.969Z</time></trkpt><trkpt lat="43.9645047342248" lon="11.336022962845636"><ele>204.0</ele><time>2026-04-11T09:52:39.969Z</time></trkpt><trkpt lat="43.964464024251" lon="11.336162208741156"><ele>204.0</ele><time>2026-04-11T09:52:40.969Z</time></trkpt><trkpt lat="43.96442066902948" lon="11.336300575140227"><ele>204.2</ele><time>2026-04-11T09:52:41.969Z</time></trkpt><trkpt lat="43.96437911603375" lon="11.336439646011584"><ele>204.39999999999998</ele><time>2026-04-11T09:52:42.969Z</time></trkpt><trkpt lat="43.964340531199504" lon="11.336567797094302"><ele>204.6</ele><time>2026-04-11T09:52:43.969Z</time></trkpt><trkpt lat="43.964304180362014" lon="11.336688108126536"><ele>204.8</ele><time>2026-04-11T09:52:44.969Z</time></trkpt><trkpt lat="43.96427189194497" lon="11.336802833171683"><ele>205.0</ele><time>2026-04-11T09:52:45.969Z</time></trkpt><trkpt lat="43.964242797509534" lon="11.336906605417246"><ele>205.0</ele><time>2026-04-11T09:52:46.969Z</time></trkpt><trkpt lat="43.964193038227194" lon="11.336994228275321"><ele>205.0</ele><time>2026-04-11T09:52:47.969Z</time></trkpt><trkpt lat="43.964173672581424" lon="11.337078728603874"><ele>205.0</ele><time>2026-04-11T09:52:48.969Z</time></trkpt><trkpt lat="43.96413178811211" lon="11.337212186767372"><ele>205.0</ele><time>2026-04-11T09:52:50.969Z</time></trkpt><trkpt lat="43.96428436735184" lon="11.337384703758117"><ele>205.0</ele><time>2026-04-11T09:52:52.969Z</time></trkpt><trkpt lat="43.964345288756526" lon="11.337434035477587"><ele>205.49999999999997</ele><time>2026-04-11T09:52:53.969Z</time></trkpt><trkpt lat="43.964409681644106" lon="11.337482459806317"><ele>206.0</ele><time>2026-04-11T09:52:54.969Z</time></trkpt><trkpt lat="43.96446608871712" lon="11.33752390973034"><ele>206.5</ele><time>2026-04-11T09:52:55.969Z</time></trkpt><trkpt lat="43.964572464929965" lon="11.337575711933074"><ele>207.0</ele><time>2026-04-11T09:52:57.969Z</time></trkpt><trkpt lat="43.964625601474694" lon="11.337634936066152"><ele>207.49999999999997</ele><time>2026-04-11T09:52:59.969Z</time></trkpt><trkpt lat="43.9646882732328" lon="11.337678845357898"><ele>208.0</ele><time>2026-04-11T09:53:14.969Z</time></trkpt><trkpt lat="43.96477510615751" lon="11.337739396309068"><ele>207.99999999999997</ele><time>2026-04-11T09:53:16.969Z</time></trkpt><trkpt lat="43.96485135399786" lon="11.33776773554842"><ele>208.0</ele><time>2026-04-11T09:53:17.969Z</time></trkpt><trkpt lat="43.964920193928265" lon="11.337826387162737"><ele>208.0</ele><time>2026-04-11T09:53:18.969Z</time></trkpt><trkpt lat="43.96498847690892" lon="11.337871758115453"><ele>208.0</ele><time>2026-04-11T09:53:19.969Z</time></trkpt><trkpt lat="43.9650518116409" lon="11.337929011354104"><ele>207.99999999999997</ele><time>2026-04-11T09:53:20.969Z</time></trkpt><trkpt lat="43.96513565997152" lon="11.33797032670081"><ele>208.0</ele><time>2026-04-11T09:53:21.969Z</time></trkpt><trkpt lat="43.965219428400864" lon="11.338020562741304"><ele>208.4</ele><time>2026-04-11T09:53:22.969Z</time></trkpt><trkpt lat="43.9652992888994" lon="11.338073339115033"><ele>208.8</ele><time>2026-04-11T09:53:23.969Z</time></trkpt><trkpt lat="43.965374141571104" lon="11.338150993861785"><ele>209.2</ele><time>2026-04-11T09:53:24.969Z</time></trkpt><trkpt lat="43.965462762542266" lon="11.33821237340085"><ele>209.6</ele><time>2026-04-11T09:53:25.969Z</time></trkpt><trkpt lat="43.96555263621898" lon="11.338275943329073"><ele>210.0</ele><time>2026-04-11T09:53:26.969Z</time></trkpt><trkpt lat="43.96565113918225" lon="11.338340901975641"><ele>210.0</ele><time>2026-04-11T09:53:27.969Z</time></trkpt><trkpt lat="43.965737516017164" lon="11.338396700918286"><ele>210.0</ele><time>2026-04-11T09:53:28.969Z</time></trkpt><trkpt lat="43.965826098409416" lon="11.338452445143895"><ele>210.0</ele><time>2026-04-11T09:53:29.969Z</time></trkpt><trkpt lat="43.96591569646658" lon="11.338506827307267"><ele>210.0</ele><time>2026-04-11T09:53:30.969Z</time></trkpt><trkpt lat="43.96600408533328" lon="11.338563644002013"><ele>210.0</ele><time>2026-04-11T09:53:31.969Z</time></trkpt><trkpt lat="43.96608467983172" lon="11.338620794098754"><ele>211.4</ele><time>2026-04-11T09:53:32.969Z</time></trkpt><trkpt lat="43.96616668752246" lon="11.338674424737688"><ele>212.8</ele><time>2026-04-11T09:53:33.969Z</time></trkpt><trkpt lat="43.96625543013082" lon="11.33873364347583"><ele>214.2</ele><time>2026-04-11T09:53:34.969Z</time></trkpt><trkpt lat="43.96635243443508" lon="11.338798647894622"><ele>215.6</ele><time>2026-04-11T09:53:35.969Z</time></trkpt><trkpt lat="43.96643672585098" lon="11.338877490362627"><ele>217.0</ele><time>2026-04-11T09:53:36.969Z</time></trkpt><trkpt lat="43.96651768982309" lon="11.338937545349847"><ele>216.99999999999997</ele><time>2026-04-11T09:53:37.969Z</time></trkpt><trkpt lat="43.96659992512584" lon="11.339000506999781"><ele>217.0</ele><time>2026-04-11T09:53:38.969Z</time></trkpt><trkpt lat="43.96668576173927" lon="11.339057792042153"><ele>217.0</ele><time>2026-04-11T09:53:39.969Z</time></trkpt><trkpt lat="43.96677415589872" lon="11.339103473319078"><ele>217.0</ele><time>2026-04-11T09:53:40.968Z</time></trkpt><trkpt lat="43.966852674575684" lon="11.339119550241413"><ele>216.99999999999997</ele><time>2026-04-11T09:53:41.967Z</time></trkpt><trkpt lat="43.96691905029545" lon="11.339131548164522"><ele>217.0</ele><time>2026-04-11T09:53:42.967Z</time></trkpt><trkpt lat="43.96697702444512" lon="11.339071988192456"><ele>217.66666666666666</ele><time>2026-04-11T09:53:43.968Z</time></trkpt><trkpt lat="43.967024116497065" lon="11.33898657836825"><ele>218.33333333333331</ele><time>2026-04-11T09:53:44.968Z</time></trkpt><trkpt lat="43.96705840716582" lon="11.33887739875519"><ele>219.0</ele><time>2026-04-11T09:53:45.968Z</time></trkpt><trkpt lat="43.967095171888836" lon="11.338764030101132"><ele>219.66666666666669</ele><time>2026-04-11T09:53:46.968Z</time></trkpt><trkpt lat="43.96714349288213" lon="11.338663694677612"><ele>220.33333333333334</ele><time>2026-04-11T09:53:47.968Z</time></trkpt><trkpt lat="43.9671897611788" lon="11.338565847281895"><ele>221.0</ele><time>2026-04-11T09:53:48.968Z</time></trkpt><trkpt lat="43.967247806367745" lon="11.33845116445695"><ele>221.60000000000002</ele><time>2026-04-11T09:53:49.968Z</time></trkpt><trkpt lat="43.96730225396168" lon="11.338343631326024"><ele>222.20000000000002</ele><time>2026-04-11T09:53:50.968Z</time></trkpt><trkpt lat="43.96737226044683" lon="11.338238035047771"><ele>222.79999999999998</ele><time>2026-04-11T09:53:51.968Z</time></trkpt><trkpt lat="43.96743662722378" lon="11.33813752857219"><ele>223.39999999999998</ele><time>2026-04-11T09:53:52.968Z</time></trkpt><trkpt lat="43.967490541110706" lon="11.338027134310384"><ele>224.0</ele><time>2026-04-11T09:53:53.967Z</time></trkpt><trkpt lat="43.967553023697604" lon="11.33794578109606"><ele>225.16666666666669</ele><time>2026-04-11T09:53:54.967Z</time></trkpt><trkpt lat="43.96761100037967" lon="11.337871794465737"><ele>226.33333333333334</ele><time>2026-04-11T09:53:55.967Z</time></trkpt><trkpt lat="43.96767149471616" lon="11.337809668606962"><ele>227.5</ele><time>2026-04-11T09:53:56.967Z</time></trkpt><trkpt lat="43.96774323657623" lon="11.337782703108081"><ele>228.66666666666669</ele><time>2026-04-11T09:53:57.967Z</time></trkpt><trkpt lat="43.967819429482965" lon="11.337802277417348"><ele>229.83333333333334</ele><time>2026-04-11T09:53:58.967Z</time></trkpt><trkpt lat="43.96789306249302" lon="11.337882008038271"><ele>231.0</ele><time>2026-04-11T09:53:59.967Z</time></trkpt><trkpt lat="43.96798217926815" lon="11.337934362289634"><ele>231.0</ele><time>2026-04-11T09:54:00.967Z</time></trkpt><trkpt lat="43.96806280049345" lon="11.338005551002208"><ele>231.00000000000003</ele><time>2026-04-11T09:54:01.967Z</time></trkpt><trkpt lat="43.968142143512786" lon="11.338085857665472"><ele>231.00000000000003</ele><time>2026-04-11T09:54:02.967Z</time></trkpt><trkpt lat="43.968227027784" lon="11.338148993271547"><ele>231.0</ele><time>2026-04-11T09:54:03.967Z</time></trkpt><trkpt lat="43.96831405545076" lon="11.338215759683656"><ele>231.0</ele><time>2026-04-11T09:54:04.967Z</time></trkpt><trkpt lat="43.96839884277724" lon="11.338276528755978"><ele>230.8</ele><time>2026-04-11T09:54:05.967Z</time></trkpt><trkpt lat="43.96848252529808" lon="11.338342468469023"><ele>230.60000000000002</ele><time>2026-04-11T09:54:06.967Z</time></trkpt><trkpt lat="43.96856018279768" lon="11.338401033848887"><ele>230.4</ele><time>2026-04-11T09:54:07.967Z</time></trkpt><trkpt lat="43.96864698053021" lon="11.338468438347308"><ele>230.2</ele><time>2026-04-11T09:54:08.967Z</time></trkpt><trkpt lat="43.96874044161114" lon="11.33853837620502"><ele>230.0</ele><time>2026-04-11T09:54:09.967Z</time></trkpt><trkpt lat="43.96883486032925" lon="11.338614447142966"><ele>230.0</ele><time>2026-04-11T09:54:10.967Z</time></trkpt><trkpt lat="43.96893692492366" lon="11.338695899073326"><ele>230.0</ele><time>2026-04-11T09:54:11.967Z</time></trkpt><trkpt lat="43.96903216502127" lon="11.338774815556766"><ele>230.0</ele><time>2026-04-11T09:54:12.967Z</time></trkpt><trkpt lat="43.96911611846852" lon="11.338831169232467"><ele>230.0</ele><time>2026-04-11T09:54:13.967Z</time></trkpt><trkpt lat="43.9691972297719" lon="11.338893722255598"><ele>230.0</ele><time>2026-04-11T09:54:14.967Z</time></trkpt><trkpt lat="43.96926387304405" lon="11.338976077771694"><ele>230.50000000000003</ele><time>2026-04-11T09:54:15.967Z</time></trkpt><trkpt lat="43.96933210212197" lon="11.339035711577456"><ele>231.0</ele><time>2026-04-11T09:54:16.967Z</time></trkpt><trkpt lat="43.969395363555364" lon="11.339111186776831"><ele>231.5</ele><time>2026-04-11T09:54:17.967Z</time></trkpt><trkpt lat="43.96945207344808" lon="11.339175786938977"><ele>232.0</ele><time>2026-04-11T09:54:18.967Z</time></trkpt><trkpt lat="43.96951585158463" lon="11.339238540774627"><ele>232.50000000000003</ele><time>2026-04-11T09:54:19.967Z</time></trkpt><trkpt lat="43.96959455417061" lon="11.339286661243941"><ele>233.0</ele><time>2026-04-11T09:54:20.967Z</time></trkpt><trkpt lat="43.96966746609035" lon="11.339367585476689"><ele>233.0</ele><time>2026-04-11T09:54:21.967Z</time></trkpt><trkpt lat="43.969766906181555" lon="11.339419011368026"><ele>233.0</ele><time>2026-04-11T09:54:22.967Z</time></trkpt><trkpt lat="43.969857634528076" lon="11.339479710296233"><ele>233.0</ele><time>2026-04-11T09:54:23.967Z</time></trkpt><trkpt lat="43.96995498253096" lon="11.33955607890903"><ele>233.0</ele><time>2026-04-11T09:54:24.967Z</time></trkpt><trkpt lat="43.970048179215894" lon="11.339623800352387"><ele>233.0</ele><time>2026-04-11T09:54:25.967Z</time></trkpt><trkpt lat="43.97014736767123" lon="11.339689126849152"><ele>234.16666666666669</ele><time>2026-04-11T09:54:26.967Z</time></trkpt><trkpt lat="43.97022859375923" lon="11.339747074661538"><ele>235.33333333333334</ele><time>2026-04-11T09:54:27.967Z</time></trkpt><trkpt lat="43.97029931437072" lon="11.339800373326826"><ele>236.5</ele><time>2026-04-11T09:54:28.967Z</time></trkpt><trkpt lat="43.97036172412402" lon="11.339850951504502"><ele>237.66666666666669</ele><time>2026-04-11T09:54:29.967Z</time></trkpt><trkpt lat="43.97042341519392" lon="11.339902605042854"><ele>238.83333333333334</ele><time>2026-04-11T09:54:30.967Z</time></trkpt><trkpt lat="43.97048964359586" lon="11.339947786640627"><ele>240.0</ele><time>2026-04-11T09:54:31.967Z</time></trkpt><trkpt lat="43.9705648691509" lon="11.33997957806964"><ele>240.0</ele><time>2026-04-11T09:54:32.967Z</time></trkpt><trkpt lat="43.97064218042487" lon="11.339979602841957"><ele>240.0</ele><time>2026-04-11T09:54:33.967Z</time></trkpt><trkpt lat="43.970719576600516" lon="11.339976166416491"><ele>240.0</ele><time>2026-04-11T09:54:34.967Z</time></trkpt><trkpt lat="43.97080398802045" lon="11.339972211853045"><ele>240.0</ele><time>2026-04-11T09:54:35.967Z</time></trkpt><trkpt lat="43.970887738142025" lon="11.339979821271852"><ele>240.0</ele><time>2026-04-11T09:54:36.967Z</time></trkpt><trkpt lat="43.97096777514578" lon="11.33999249549538"><ele>240.0</ele><time>2026-04-11T09:54:37.967Z</time></trkpt><trkpt lat="43.9710510481058" lon="11.340001905073851"><ele>239.83333333333334</ele><time>2026-04-11T09:54:38.967Z</time></trkpt><trkpt lat="43.97113063297531" lon="11.340006252132177"><ele>239.66666666666669</ele><time>2026-04-11T09:54:39.967Z</time></trkpt><trkpt lat="43.971210635543336" lon="11.340013202238753"><ele>239.5</ele><time>2026-04-11T09:54:40.967Z</time></trkpt><trkpt lat="43.971291553289674" lon="11.34001857682404"><ele>239.33333333333334</ele><time>2026-04-11T09:54:41.967Z</time></trkpt><trkpt lat="43.9713904578171" lon="11.340026048589118"><ele>239.16666666666669</ele><time>2026-04-11T09:54:42.967Z</time></trkpt><trkpt lat="43.97147606637013" lon="11.340040975853936"><ele>239.0</ele><time>2026-04-11T09:54:43.967Z</time></trkpt><trkpt lat="43.971565002639366" lon="11.340060461315488"><ele>239.0</ele><time>2026-04-11T09:54:44.967Z</time></trkpt><trkpt lat="43.97164772402973" lon="11.340086451559566"><ele>238.99999999999997</ele><time>2026-04-11T09:54:45.967Z</time></trkpt><trkpt lat="43.97173281479858" lon="11.340121280267363"><ele>238.99999999999997</ele><time>2026-04-11T09:54:46.967Z</time></trkpt><trkpt lat="43.97183013533332" lon="11.340168804466419"><ele>239.0</ele><time>2026-04-11T09:54:47.967Z</time></trkpt><trkpt lat="43.971933852968185" lon="11.340228784405717"><ele>239.0</ele><time>2026-04-11T09:54:48.967Z</time></trkpt><trkpt lat="43.97202249508062" lon="11.340296032361795"><ele>239.0</ele><time>2026-04-11T09:54:49.967Z</time></trkpt><trkpt lat="43.97211224658571" lon="11.340362169787186"><ele>238.99999999999997</ele><time>2026-04-11T09:54:50.967Z</time></trkpt><trkpt lat="43.97221075583717" lon="11.340420300708615"><ele>238.99999999999997</ele><time>2026-04-11T09:54:51.967Z</time></trkpt><trkpt lat="43.97230778296541" lon="11.34047309934163"><ele>239.0</ele><time>2026-04-11T09:54:52.967Z</time></trkpt><trkpt lat="43.97238468105249" lon="11.3405493293192"><ele>239.0</ele><time>2026-04-11T09:54:53.967Z</time></trkpt><trkpt lat="43.97246831201164" lon="11.340607350822214"><ele>237.6</ele><time>2026-04-11T09:54:54.967Z</time></trkpt><trkpt lat="43.97257477729116" lon="11.340681214343924"><ele>236.2</ele><time>2026-04-11T09:54:55.967Z</time></trkpt><trkpt lat="43.97267181150182" lon="11.34074745612112"><ele>234.79999999999998</ele><time>2026-04-11T09:54:56.967Z</time></trkpt><trkpt lat="43.9727739416037" lon="11.340814588371169"><ele>233.39999999999998</ele><time>2026-04-11T09:54:57.968Z</time></trkpt><trkpt lat="43.97286903107276" lon="11.340877092627725"><ele>232.0</ele><time>2026-04-11T09:54:58.968Z</time></trkpt><trkpt lat="43.97295076380064" lon="11.340930817227841"><ele>231.99999999999997</ele><time>2026-04-11T09:54:59.968Z</time></trkpt><trkpt lat="43.97303505098314" lon="11.340985049465916"><ele>232.0</ele><time>2026-04-11T09:55:00.968Z</time></trkpt><trkpt lat="43.97311918392081" lon="11.341038686472254"><ele>232.0</ele><time>2026-04-11T09:55:01.968Z</time></trkpt><trkpt lat="43.97318637272097" lon="11.341078466329424"><ele>232.0</ele><time>2026-04-11T09:55:02.968Z</time></trkpt><trkpt lat="43.973277300359996" lon="11.341129689313734"><ele>231.99999999999997</ele><time>2026-04-11T09:55:03.968Z</time></trkpt><trkpt lat="43.97336842239456" lon="11.34114216459892"><ele>232.0</ele><time>2026-04-11T09:55:04.968Z</time></trkpt><trkpt lat="43.9734686146917" lon="11.34112315981619"><ele>232.6</ele><time>2026-04-11T09:55:05.968Z</time></trkpt><trkpt lat="43.97356843402023" lon="11.341106279031585"><ele>233.2</ele><time>2026-04-11T09:55:06.968Z</time></trkpt><trkpt lat="43.9736744321205" lon="11.341088533434725"><ele>233.8</ele><time>2026-04-11T09:55:07.968Z</time></trkpt><trkpt lat="43.97376497317325" lon="11.341101922863869"><ele>234.4</ele><time>2026-04-11T09:55:08.968Z</time></trkpt><trkpt lat="43.973864866995704" lon="11.341132518516982"><ele>235.0</ele><time>2026-04-11T09:55:09.968Z</time></trkpt><trkpt lat="43.97396687396816" lon="11.341174918436348"><ele>235.0</ele><time>2026-04-11T09:55:10.968Z</time></trkpt><trkpt lat="43.97406181791463" lon="11.341213031450502"><ele>235.0</ele><time>2026-04-11T09:55:11.968Z</time></trkpt><trkpt lat="43.97416125916159" lon="11.341256720638865"><ele>235.0</ele><time>2026-04-11T09:55:12.968Z</time></trkpt><trkpt lat="43.97426659155906" lon="11.34130291740825"><ele>235.0</ele><time>2026-04-11T09:55:13.968Z</time></trkpt><trkpt lat="43.97436133068098" lon="11.341344468115551"><ele>235.0</ele><time>2026-04-11T09:55:14.968Z</time></trkpt><trkpt lat="43.97444793160054" lon="11.341384249389698"><ele>235.0</ele><time>2026-04-11T09:55:15.968Z</time></trkpt><trkpt lat="43.97454766369663" lon="11.341430244999719"><ele>235.0</ele><time>2026-04-11T09:55:16.968Z</time></trkpt><trkpt lat="43.97463760092973" lon="11.341473252659735"><ele>235.0</ele><time>2026-04-11T09:55:17.968Z</time></trkpt><trkpt lat="43.97473634507654" lon="11.341522102962287"><ele>235.0</ele><time>2026-04-11T09:55:18.968Z</time></trkpt><trkpt lat="43.974867809385444" lon="11.341460877267602"><ele>235.0</ele><time>2026-04-11T09:55:19.968Z</time></trkpt><trkpt lat="43.97496105570799" lon="11.341533628407708"><ele>234.0</ele><time>2026-04-11T09:55:20.968Z</time></trkpt><trkpt lat="43.97505373647273" lon="11.341591387507629"><ele>233.0</ele><time>2026-04-11T09:55:21.968Z</time></trkpt><trkpt lat="43.97513359027849" lon="11.341650118591126"><ele>232.0</ele><time>2026-04-11T09:55:22.968Z</time></trkpt><trkpt lat="43.97520744998541" lon="11.341708717797177"><ele>231.0</ele><time>2026-04-11T09:55:23.968Z</time></trkpt><trkpt lat="43.97522234969451" lon="11.341879313901275"><ele>230.0</ele><time>2026-04-11T09:55:24.968Z</time></trkpt><trkpt lat="43.97528071670118" lon="11.341963069769891"><ele>230.0</ele><time>2026-04-11T09:55:25.968Z</time></trkpt><trkpt lat="43.97534075699864" lon="11.342052900178725"><ele>230.0</ele><time>2026-04-11T09:55:26.968Z</time></trkpt><trkpt lat="43.97540325983311" lon="11.342149036437966"><ele>230.0</ele><time>2026-04-11T09:55:27.968Z</time></trkpt><trkpt lat="43.975472787415704" lon="11.342247320322903"><ele>230.0</ele><time>2026-04-11T09:55:28.968Z</time></trkpt><trkpt lat="43.97556078887986" lon="11.342349843118912"><ele>230.0</ele><time>2026-04-11T09:55:29.968Z</time></trkpt><trkpt lat="43.97563363781545" lon="11.342432666971712"><ele>230.83333333333334</ele><time>2026-04-11T09:55:30.968Z</time></trkpt><trkpt lat="43.97569928411159" lon="11.342508314356474"><ele>231.66666666666669</ele><time>2026-04-11T09:55:31.968Z</time></trkpt><trkpt lat="43.97576512111018" lon="11.342560216912833"><ele>232.5</ele><time>2026-04-11T09:55:32.968Z</time></trkpt><trkpt lat="43.97582197249579" lon="11.342647177599822"><ele>233.33333333333331</ele><time>2026-04-11T09:55:33.968Z</time></trkpt><trkpt lat="43.97588492491522" lon="11.34272992844616"><ele>234.16666666666666</ele><time>2026-04-11T09:55:34.968Z</time></trkpt><trkpt lat="43.975940585641084" lon="11.342804454457402"><ele>235.0</ele><time>2026-04-11T09:55:35.968Z</time></trkpt><trkpt lat="43.975999896999575" lon="11.34287661959775"><ele>234.99999999999997</ele><time>2026-04-11T09:55:36.968Z</time></trkpt><trkpt lat="43.97606181669701" lon="11.34292257808283"><ele>235.0</ele><time>2026-04-11T09:55:37.968Z</time></trkpt><trkpt lat="43.976136200809655" lon="11.342939717281682"><ele>235.0</ele><time>2026-04-11T09:55:38.968Z</time></trkpt><trkpt lat="43.97621160069544" lon="11.342944389322374"><ele>235.0</ele><time>2026-04-11T09:55:39.968Z</time></trkpt><trkpt lat="43.976286451569855" lon="11.342949300776407"><ele>234.99999999999997</ele><time>2026-04-11T09:55:40.968Z</time></trkpt><trkpt lat="43.97636854977312" lon="11.342975055265743"><ele>235.0</ele><time>2026-04-11T09:55:41.968Z</time></trkpt><trkpt lat="43.97645116125543" lon="11.342989124590245"><ele>235.0</ele><time>2026-04-11T09:55:42.968Z</time></trkpt><trkpt lat="43.97654899052107" lon="11.342989305216328"><ele>235.0</ele><time>2026-04-11T09:55:43.968Z</time></trkpt><trkpt lat="43.97664584122657" lon="11.343037033378394"><ele>235.0</ele><time>2026-04-11T09:55:44.968Z</time></trkpt><trkpt lat="43.97673756683705" lon="11.34307271545274"><ele>235.0</ele><time>2026-04-11T09:55:45.968Z</time></trkpt><trkpt lat="43.97685124139755" lon="11.343104743793068"><ele>235.0</ele><time>2026-04-11T09:55:46.967Z</time></trkpt><trkpt lat="43.97696960631032" lon="11.343147510053447"><ele>237.25</ele><time>2026-04-11T09:55:47.967Z</time></trkpt><trkpt lat="43.97707107479009" lon="11.343217755250766"><ele>239.5</ele><time>2026-04-11T09:55:48.967Z</time></trkpt><trkpt lat="43.97717458762652" lon="11.343307906217447"><ele>241.75</ele><time>2026-04-11T09:55:49.966Z</time></trkpt><trkpt lat="43.977296829432525" lon="11.343427053692231"><ele>244.0</ele><time>2026-04-11T09:55:50.967Z</time></trkpt><trkpt lat="43.97740643382085" lon="11.343519318566301"><ele>244.0</ele><time>2026-04-11T09:55:51.967Z</time></trkpt><trkpt lat="43.9774982051045" lon="11.343606124628234"><ele>243.99999999999997</ele><time>2026-04-11T09:55:52.967Z</time></trkpt><trkpt lat="43.97758573373566" lon="11.343695292925082"><ele>243.99999999999997</ele><time>2026-04-11T09:55:53.966Z</time></trkpt><trkpt lat="43.97767063491913" lon="11.34377869486644"><ele>244.0</ele><time>2026-04-11T09:55:54.966Z</time></trkpt><trkpt lat="43.977753948497295" lon="11.343867801306773"><ele>244.0</ele><time>2026-04-11T09:55:55.967Z</time></trkpt><trkpt lat="43.97783729739629" lon="11.343931957562637"><ele>244.0</ele><time>2026-04-11T09:55:56.967Z</time></trkpt><trkpt lat="43.977920574026676" lon="11.344009113329873"><ele>243.99999999999997</ele><time>2026-04-11T09:55:57.967Z</time></trkpt><trkpt lat="43.97800002282904" lon="11.344081061648371"><ele>243.99999999999997</ele><time>2026-04-11T09:55:58.966Z</time></trkpt><trkpt lat="43.97807962281264" lon="11.344154415634408"><ele>244.0</ele><time>2026-04-11T09:55:59.966Z</time></trkpt><trkpt lat="43.9781618239395" lon="11.344214288783634"><ele>244.0</ele><time>2026-04-11T09:56:00.966Z</time></trkpt><trkpt lat="43.978249492366146" lon="11.34426560745322"><ele>243.99999999999997</ele><time>2026-04-11T09:56:01.966Z</time></trkpt><trkpt lat="43.9783309865771" lon="11.344278817960422"><ele>244.0</ele><time>2026-04-11T09:56:02.966Z</time></trkpt><trkpt lat="43.97840440411235" lon="11.344316323674555"><ele>244.0</ele><time>2026-04-11T09:56:03.966Z</time></trkpt><trkpt lat="43.97849067795848" lon="11.344336704887919"><ele>244.0</ele><time>2026-04-11T09:56:04.966Z</time></trkpt><trkpt lat="43.97859412764346" lon="11.344361419082436"><ele>243.99999999999997</ele><time>2026-04-11T09:56:05.966Z</time></trkpt><trkpt lat="43.978689682041434" lon="11.344378709149538"><ele>244.0</ele><time>2026-04-11T09:56:06.966Z</time></trkpt><trkpt lat="43.978783532254546" lon="11.344397765939414"><ele>243.0</ele><time>2026-04-11T09:56:07.966Z</time></trkpt><trkpt lat="43.97886322396105" lon="11.344420763962926"><ele>241.99999999999997</ele><time>2026-04-11T09:56:08.966Z</time></trkpt><trkpt lat="43.978933396462836" lon="11.344453842824974"><ele>240.99999999999997</ele><time>2026-04-11T09:56:09.966Z</time></trkpt><trkpt lat="43.97902815480672" lon="11.344513514385634"><ele>240.0</ele><time>2026-04-11T09:56:10.966Z</time></trkpt><trkpt lat="43.97912405548362" lon="11.344589019856052"><ele>239.0</ele><time>2026-04-11T09:56:11.966Z</time></trkpt><trkpt lat="43.97921980433793" lon="11.344670593584706"><ele>239.39999999999998</ele><time>2026-04-11T09:56:12.966Z</time></trkpt><trkpt lat="43.9793178475988" lon="11.344751145674046"><ele>239.79999999999998</ele><time>2026-04-11T09:56:13.966Z</time></trkpt><trkpt lat="43.97941475161418" lon="11.344824851776835"><ele>240.20000000000002</ele><time>2026-04-11T09:56:14.966Z</time></trkpt><trkpt lat="43.979515001913995" lon="11.344874937570038"><ele>240.60000000000002</ele><time>2026-04-11T09:56:15.966Z</time></trkpt><trkpt lat="43.97959877755849" lon="11.344962837569932"><ele>241.0</ele><time>2026-04-11T09:56:16.966Z</time></trkpt><trkpt lat="43.979679645075635" lon="11.34504728125199"><ele>241.0</ele><time>2026-04-11T09:56:17.966Z</time></trkpt><trkpt lat="43.97975233861574" lon="11.345117517176957"><ele>241.00000000000003</ele><time>2026-04-11T09:56:18.966Z</time></trkpt><trkpt lat="43.979849013331595" lon="11.34516223207916"><ele>241.00000000000003</ele><time>2026-04-11T09:56:19.966Z</time></trkpt><trkpt lat="43.9799258678516" lon="11.34521424232627"><ele>241.0</ele><time>2026-04-11T09:56:20.966Z</time></trkpt><trkpt lat="43.97999797493065" lon="11.345261913657698"><ele>241.0</ele><time>2026-04-11T09:56:21.966Z</time></trkpt><trkpt lat="43.980084060057635" lon="11.345315785079848"><ele>240.20000000000002</ele><time>2026-04-11T09:56:22.966Z</time></trkpt><trkpt lat="43.98018094222411" lon="11.345372439167887"><ele>239.40000000000003</ele><time>2026-04-11T09:56:23.966Z</time></trkpt><trkpt lat="43.980279373023066" lon="11.34542556209791"><ele>238.6</ele><time>2026-04-11T09:56:24.966Z</time></trkpt><trkpt lat="43.98038516055842" lon="11.345476209981102"><ele>237.8</ele><time>2026-04-11T09:56:25.966Z</time></trkpt><trkpt lat="43.980495154533315" lon="11.345523359087213"><ele>237.0</ele><time>2026-04-11T09:56:26.966Z</time></trkpt><trkpt lat="43.98059764524181" lon="11.34555926576745"><ele>238.0</ele><time>2026-04-11T09:56:27.966Z</time></trkpt><trkpt lat="43.980679116110245" lon="11.345577042827728"><ele>239.0</ele><time>2026-04-11T09:56:28.966Z</time></trkpt><trkpt lat="43.980787383439655" lon="11.345581399755426"><ele>240.0</ele><time>2026-04-11T09:56:29.966Z</time></trkpt><trkpt lat="43.98091370194374" lon="11.34560702413523"><ele>241.0</ele><time>2026-04-11T09:56:30.966Z</time></trkpt><trkpt lat="43.98103397367292" lon="11.345657823215744"><ele>242.0</ele><time>2026-04-11T09:56:31.966Z</time></trkpt><trkpt lat="43.981144754232524" lon="11.345719202464993"><ele>242.0</ele><time>2026-04-11T09:56:32.966Z</time></trkpt><trkpt lat="43.98124697241981" lon="11.345779700373473"><ele>242.0</ele><time>2026-04-11T09:56:33.966Z</time></trkpt><trkpt lat="43.98135479673639" lon="11.345824094403506"><ele>242.0</ele><time>2026-04-11T09:56:34.966Z</time></trkpt><trkpt lat="43.9814504905477" lon="11.345877628983288"><ele>242.0</ele><time>2026-04-11T09:56:35.966Z</time></trkpt><trkpt lat="43.98154092592154" lon="11.345929623726546"><ele>242.0</ele><time>2026-04-11T09:56:36.966Z</time></trkpt><trkpt lat="43.981634064614575" lon="11.345973951691397"><ele>242.00000000000003</ele><time>2026-04-11T09:56:37.966Z</time></trkpt><trkpt lat="43.98171984335285" lon="11.346014367442095"><ele>242.0</ele><time>2026-04-11T09:56:38.967Z</time></trkpt><trkpt lat="43.98179873280993" lon="11.346049925064774"><ele>242.0</ele><time>2026-04-11T09:56:39.967Z</time></trkpt><trkpt lat="43.98187119211085" lon="11.346078703152262"><ele>242.0</ele><time>2026-04-11T09:56:40.967Z</time></trkpt><trkpt lat="43.98195625108236" lon="11.346110520837437"><ele>242.00000000000003</ele><time>2026-04-11T09:56:41.967Z</time></trkpt><trkpt lat="43.98204370811907" lon="11.34614034273969"><ele>242.0</ele><time>2026-04-11T09:56:42.967Z</time></trkpt><trkpt lat="43.98213440987322" lon="11.346166837997844"><ele>242.0</ele><time>2026-04-11T09:56:43.967Z</time></trkpt><trkpt lat="43.98225145833796" lon="11.346187631016639"><ele>242.0</ele><time>2026-04-11T09:56:44.967Z</time></trkpt><trkpt lat="43.982346885135414" lon="11.346193460381611"><ele>242.0</ele><time>2026-04-11T09:56:45.967Z</time></trkpt><trkpt lat="43.98243534840966" lon="11.346197634628489"><ele>242.0</ele><time>2026-04-11T09:56:46.967Z</time></trkpt><trkpt lat="43.98254188668015" lon="11.346202240758906"><ele>242.0</ele><time>2026-04-11T09:56:47.967Z</time></trkpt><trkpt lat="43.98266358376747" lon="11.34620531842798"><ele>242.00000000000003</ele><time>2026-04-11T09:56:48.967Z</time></trkpt><trkpt lat="43.982778529106795" lon="11.34620422386827"><ele>242.0</ele><time>2026-04-11T09:56:49.967Z</time></trkpt><trkpt lat="43.98286243132387" lon="11.346206730678762"><ele>242.0</ele><time>2026-04-11T09:56:50.967Z</time></trkpt><trkpt lat="43.98294404847274" lon="11.346198979014945"><ele>242.0</ele><time>2026-04-11T09:56:51.967Z</time></trkpt><trkpt lat="43.9830155102423" lon="11.346220647160228"><ele>242.00000000000003</ele><time>2026-04-11T09:56:52.967Z</time></trkpt><trkpt lat="43.98309241887071" lon="11.346270337686018"><ele>242.0</ele><time>2026-04-11T09:56:54.967Z</time></trkpt><trkpt lat="43.983218013773104" lon="11.346402126306371"><ele>244.16666666666669</ele><time>2026-04-11T09:56:56.967Z</time></trkpt><trkpt lat="43.98327659403838" lon="11.34647212715687"><ele>246.33333333333334</ele><time>2026-04-11T09:56:57.967Z</time></trkpt><trkpt lat="43.9833371189312" lon="11.346558409259407"><ele>248.5</ele><time>2026-04-11T09:56:58.967Z</time></trkpt><trkpt lat="43.983377609191855" lon="11.346670388626727"><ele>250.66666666666669</ele><time>2026-04-11T09:56:59.967Z</time></trkpt><trkpt lat="43.983432625176356" lon="11.346780434264407"><ele>252.83333333333334</ele><time>2026-04-11T09:57:00.967Z</time></trkpt><trkpt lat="43.98347442270575" lon="11.346865236126243"><ele>255.0</ele><time>2026-04-11T09:57:01.967Z</time></trkpt><trkpt lat="43.98351732690849" lon="11.346952283198616"><ele>255.0</ele><time>2026-04-11T09:57:02.967Z</time></trkpt><trkpt lat="43.983559081649275" lon="11.347036996392152"><ele>255.0</ele><time>2026-04-11T09:57:03.967Z</time></trkpt><trkpt lat="43.98366109230781" lon="11.347058826091832"><ele>255.0</ele><time>2026-04-11T09:57:04.967Z</time></trkpt><trkpt lat="43.98372655938352" lon="11.347088919903895"><ele>255.0</ele><time>2026-04-11T09:57:05.967Z</time></trkpt><trkpt lat="43.983819047486485" lon="11.347165879731914"><ele>255.0</ele><time>2026-04-11T09:57:07.967Z</time></trkpt><trkpt lat="43.983906933313136" lon="11.34722469750486"><ele>254.2</ele><time>2026-04-11T09:57:09.967Z</time></trkpt><trkpt lat="43.98397945165844" lon="11.347259605835287"><ele>253.4</ele><time>2026-04-11T09:57:11.967Z</time></trkpt><trkpt lat="43.98404580422076" lon="11.347318374202152"><ele>252.60000000000002</ele><time>2026-04-11T09:57:38.967Z</time></trkpt><trkpt lat="43.98413608964185" lon="11.347373293721768"><ele>251.8</ele><time>2026-04-11T09:57:40.967Z</time></trkpt><trkpt lat="43.984231544121734" lon="11.347433373188695"><ele>251.0</ele><time>2026-04-11T09:57:42.967Z</time></trkpt><trkpt lat="43.98434784601245" lon="11.347520100220043"><ele>251.0</ele><time>2026-04-11T09:57:44.967Z</time></trkpt><trkpt lat="43.98447058434129" lon="11.347605356734528"><ele>251.00000000000003</ele><time>2026-04-11T09:57:46.967Z</time></trkpt><trkpt lat="43.98454031628345" lon="11.347647171006182"><ele>251.00000000000003</ele><time>2026-04-11T09:57:47.967Z</time></trkpt><trkpt lat="43.98461433653129" lon="11.347694102647798"><ele>251.0</ele><time>2026-04-11T09:57:48.967Z</time></trkpt><trkpt lat="43.98468280054672" lon="11.347739680834477"><ele>251.0</ele><time>2026-04-11T09:57:49.967Z</time></trkpt><trkpt lat="43.9847564884411" lon="11.347801367046173"><ele>251.0</ele><time>2026-04-11T09:57:50.967Z</time></trkpt><trkpt lat="43.98481559629672" lon="11.347863273843146"><ele>251.00000000000003</ele><time>2026-04-11T09:57:51.967Z</time></trkpt><trkpt lat="43.98488036901048" lon="11.347932276693657"><ele>251.00000000000003</ele><time>2026-04-11T09:57:52.965Z</time></trkpt><trkpt lat="43.984946927009425" lon="11.348034256180274"><ele>251.0</ele><time>2026-04-11T09:57:53.966Z</time></trkpt><trkpt lat="43.985017280058756" lon="11.34813635124647"><ele>251.0</ele><time>2026-04-11T09:57:54.966Z</time></trkpt><trkpt lat="43.985087727789995" lon="11.348244834032243"><ele>252.5</ele><time>2026-04-11T09:57:55.965Z</time></trkpt><trkpt lat="43.98516531066009" lon="11.348359605446461"><ele>254.0</ele><time>2026-04-11T09:57:56.965Z</time></trkpt><trkpt lat="43.985245982000926" lon="11.348474114978364"><ele>255.5</ele><time>2026-04-11T09:57:57.965Z</time></trkpt><trkpt lat="43.985324323893344" lon="11.348587766171756"><ele>257.0</ele><time>2026-04-11T09:57:58.966Z</time></trkpt><trkpt lat="43.985404578699594" lon="11.348702643751741"><ele>257.0</ele><time>2026-04-11T09:57:59.966Z</time></trkpt><trkpt lat="43.98550156959271" lon="11.34879083518154"><ele>257.0</ele><time>2026-04-11T09:58:00.966Z</time></trkpt><trkpt lat="43.98560609372953" lon="11.348879704010642"><ele>257.0</ele><time>2026-04-11T09:58:01.965Z</time></trkpt><trkpt lat="43.98570967352209" lon="11.348942477529869"><ele>257.0</ele><time>2026-04-11T09:58:02.965Z</time></trkpt><trkpt lat="43.98579698721356" lon="11.348988499904523"><ele>257.0</ele><time>2026-04-11T09:58:03.965Z</time></trkpt><trkpt lat="43.98588098619181" lon="11.34900828993177"><ele>257.8</ele><time>2026-04-11T09:58:04.966Z</time></trkpt><trkpt lat="43.9859683486468" lon="11.349028793487408"><ele>258.6</ele><time>2026-04-11T09:58:05.965Z</time></trkpt><trkpt lat="43.98608310407999" lon="11.349051575382006"><ele>259.40000000000003</ele><time>2026-04-11T09:58:06.965Z</time></trkpt><trkpt lat="43.98618569339004" lon="11.34900889791124"><ele>260.2</ele><time>2026-04-11T09:58:07.965Z</time></trkpt><trkpt lat="43.98627909431694" lon="11.348962982791997"><ele>261.0</ele><time>2026-04-11T09:58:08.965Z</time></trkpt><trkpt lat="43.98636970448289" lon="11.34894674317731"><ele>261.0</ele><time>2026-04-11T09:58:09.965Z</time></trkpt><trkpt lat="43.98645427438459" lon="11.348905307975407"><ele>261.0</ele><time>2026-04-11T09:58:10.965Z</time></trkpt><trkpt lat="43.986544938113965" lon="11.348818251582818"><ele>261.0</ele><time>2026-04-11T09:58:11.966Z</time></trkpt><trkpt lat="43.9865908216565" lon="11.348656464953592"><ele>261.0</ele><time>2026-04-11T09:58:12.966Z</time></trkpt><trkpt lat="43.98662519892394" lon="11.348497088447148"><ele>261.0</ele><time>2026-04-11T09:58:13.966Z</time></trkpt><trkpt lat="43.986644755707154" lon="11.34835190305822"><ele>261.0</ele><time>2026-04-11T09:58:14.966Z</time></trkpt><trkpt lat="43.98668761295285" lon="11.34824338451642"><ele>261.0</ele><time>2026-04-11T09:58:15.966Z</time></trkpt><trkpt lat="43.98673606807101" lon="11.34815909672497"><ele>261.0</ele><time>2026-04-11T09:58:16.966Z</time></trkpt><trkpt lat="43.986800028287384" lon="11.348120947939295"><ele>261.0</ele><time>2026-04-11T09:58:18.966Z</time></trkpt><trkpt lat="43.98686482700295" lon="11.348067070291421"><ele>261.0</ele><time>2026-04-11T09:58:23.966Z</time></trkpt><trkpt lat="43.98679751488482" lon="11.347879723814783"><ele>260.40000000000003</ele><time>2026-04-11T09:58:24.966Z</time></trkpt><trkpt lat="43.98673861746277" lon="11.347758362997851"><ele>259.8</ele><time>2026-04-11T09:58:25.966Z</time></trkpt><trkpt lat="43.98668810710444" lon="11.347640945999661"><ele>259.20000000000005</ele><time>2026-04-11T09:58:26.966Z</time></trkpt><trkpt lat="43.98662717755822" lon="11.34751780314728"><ele>258.6</ele><time>2026-04-11T09:58:27.966Z</time></trkpt><trkpt lat="43.98657374269106" lon="11.347363607757199"><ele>258.0</ele><time>2026-04-11T09:58:28.966Z</time></trkpt><trkpt lat="43.98651754343329" lon="11.347201519324475"><ele>256.0</ele><time>2026-04-11T09:58:29.966Z</time></trkpt><trkpt lat="43.98645233287293" lon="11.347017485507592"><ele>254.0</ele><time>2026-04-11T09:58:30.966Z</time></trkpt><trkpt lat="43.98638941557234" lon="11.346834438577327"><ele>252.0</ele><time>2026-04-11T09:58:31.966Z</time></trkpt><trkpt lat="43.98631948320565" lon="11.34665217148096"><ele>250.0</ele><time>2026-04-11T09:58:32.966Z</time></trkpt><trkpt lat="43.986252469306656" lon="11.34646996465185"><ele>248.25</ele><time>2026-04-11T09:58:33.966Z</time></trkpt><trkpt lat="43.98618209703365" lon="11.34628806239463"><ele>246.5</ele><time>2026-04-11T09:58:34.966Z</time></trkpt><trkpt lat="43.98611210637033" lon="11.34610792420554"><ele>244.75</ele><time>2026-04-11T09:58:35.966Z</time></trkpt><trkpt lat="43.9860408661483" lon="11.34593049011351"><ele>243.0</ele><time>2026-04-11T09:58:36.966Z</time></trkpt><trkpt lat="43.985972622584775" lon="11.3457512000701"><ele>243.0</ele><time>2026-04-11T09:58:37.966Z</time></trkpt><trkpt lat="43.98590144407102" lon="11.345568188974163"><ele>243.0</ele><time>2026-04-11T09:58:38.966Z</time></trkpt><trkpt lat="43.9858261257008" lon="11.345384466110112"><ele>243.0</ele><time>2026-04-11T09:58:39.966Z</time></trkpt><trkpt lat="43.985757276325835" lon="11.345206710732029"><ele>243.0</ele><time>2026-04-11T09:58:40.966Z</time></trkpt><trkpt lat="43.985683694740885" lon="11.34502479789255"><ele>243.0</ele><time>2026-04-11T09:58:41.966Z</time></trkpt><trkpt lat="43.98561240015303" lon="11.344848057286304"><ele>243.0</ele><time>2026-04-11T09:58:42.966Z</time></trkpt><trkpt lat="43.9855401542691" lon="11.344674422791957"><ele>243.0</ele><time>2026-04-11T09:58:43.966Z</time></trkpt><trkpt lat="43.98547224262305" lon="11.344503829762806"><ele>243.0</ele><time>2026-04-11T09:58:44.966Z</time></trkpt><trkpt lat="43.9853988529905" lon="11.344338334713887"><ele>241.25</ele><time>2026-04-11T09:58:45.966Z</time></trkpt><trkpt lat="43.98533037614145" lon="11.34416666230928"><ele>239.5</ele><time>2026-04-11T09:58:46.966Z</time></trkpt><trkpt lat="43.98526341270637" lon="11.34399575725385"><ele>237.75</ele><time>2026-04-11T09:58:47.966Z</time></trkpt><trkpt lat="43.98519567678216" lon="11.343828044673904"><ele>236.0</ele><time>2026-04-11T09:58:48.966Z</time></trkpt><trkpt lat="43.98512856746636" lon="11.343661854551998"><ele>234.5</ele><time>2026-04-11T09:58:49.966Z</time></trkpt><trkpt lat="43.98506727374876" lon="11.343499988693939"><ele>233.0</ele><time>2026-04-11T09:58:50.966Z</time></trkpt><trkpt lat="43.985001993508476" lon="11.34333454452701"><ele>231.5</ele><time>2026-04-11T09:58:51.966Z</time></trkpt><trkpt lat="43.984947729100995" lon="11.343157053683138"><ele>230.0</ele><time>2026-04-11T09:58:52.966Z</time></trkpt><trkpt lat="43.98491769330504" lon="11.342958499371317"><ele>229.0</ele><time>2026-04-11T09:58:53.966Z</time></trkpt><trkpt lat="43.98492735750997" lon="11.342735649694125"><ele>228.0</ele><time>2026-04-11T09:58:54.966Z</time></trkpt><trkpt lat="43.98495883092632" lon="11.342485063165979"><ele>227.0</ele><time>2026-04-11T09:58:55.966Z</time></trkpt><trkpt lat="43.98500683105001" lon="11.342232655342379"><ele>226.66666666666669</ele><time>2026-04-11T09:58:56.966Z</time></trkpt><trkpt lat="43.98505025516153" lon="11.341982999871494"><ele>226.33333333333331</ele><time>2026-04-11T09:58:57.966Z</time></trkpt><trkpt lat="43.98509364020841" lon="11.3417392664077"><ele>226.0</ele><time>2026-04-11T09:58:58.966Z</time></trkpt><trkpt lat="43.985127550025666" lon="11.341517903378428"><ele>226.5</ele><time>2026-04-11T09:58:59.966Z</time></trkpt><trkpt lat="43.98515705640026" lon="11.3413373359247"><ele>227.0</ele><time>2026-04-11T09:59:00.966Z</time></trkpt><trkpt lat="43.985190925138205" lon="11.341142482383221"><ele>227.5</ele><time>2026-04-11T09:59:01.966Z</time></trkpt><trkpt lat="43.98522361610527" lon="11.340931498241158"><ele>228.0</ele><time>2026-04-11T09:59:02.966Z</time></trkpt><trkpt lat="43.98525536887983" lon="11.34072400679459"><ele>229.0</ele><time>2026-04-11T09:59:03.966Z</time></trkpt><trkpt lat="43.98528820376426" lon="11.340522466016687"><ele>230.0</ele><time>2026-04-11T09:59:04.966Z</time></trkpt><trkpt lat="43.98531368816505" lon="11.340344313181701"><ele>231.0</ele><time>2026-04-11T09:59:05.966Z</time></trkpt><trkpt lat="43.98534662391379" lon="11.34018468980343"><ele>232.0</ele><time>2026-04-11T09:59:06.966Z</time></trkpt><trkpt lat="43.985397830853024" lon="11.34006845508102"><ele>232.0</ele><time>2026-04-11T09:59:07.966Z</time></trkpt><trkpt lat="43.98548194487731" lon="11.339946248064283"><ele>232.0</ele><time>2026-04-11T09:59:08.966Z</time></trkpt><trkpt lat="43.98553326060403" lon="11.339825332176577"><ele>232.0</ele><time>2026-04-11T09:59:09.966Z</time></trkpt><trkpt lat="43.98553802000224" lon="11.339694168865115"><ele>232.0</ele><time>2026-04-11T09:59:10.966Z</time></trkpt><trkpt lat="43.98550534188802" lon="11.339561394555481"><ele>232.0</ele><time>2026-04-11T09:59:11.966Z</time></trkpt><trkpt lat="43.98543831895441" lon="11.339478350338965"><ele>232.66666666666666</ele><time>2026-04-11T09:59:12.966Z</time></trkpt><trkpt lat="43.985448261650156" lon="11.339344302251986"><ele>233.33333333333331</ele><time>2026-04-11T09:59:13.966Z</time></trkpt><trkpt lat="43.9854508864324" lon="11.339233057426666"><ele>234.0</ele><time>2026-04-11T09:59:14.966Z</time></trkpt><trkpt lat="43.98546912542369" lon="11.339145585150241"><ele>234.66666666666669</ele><time>2026-04-11T09:59:15.966Z</time></trkpt><trkpt lat="43.9855073575626" lon="11.339028629926338"><ele>235.33333333333334</ele><time>2026-04-11T09:59:17.966Z</time></trkpt><trkpt lat="43.985535005114016" lon="11.33893214165998"><ele>236.0</ele><time>2026-04-11T09:59:19.966Z</time></trkpt><trkpt lat="43.985575806236206" lon="11.338815443201334"><ele>236.66666666666669</ele><time>2026-04-11T09:59:21.966Z</time></trkpt><trkpt lat="43.98563668357257" lon="11.338665844276424"><ele>237.33333333333334</ele><time>2026-04-11T09:59:23.966Z</time></trkpt><trkpt lat="43.985675256063494" lon="11.338587038781037"><ele>238.0</ele><time>2026-04-11T09:59:24.966Z</time></trkpt><trkpt lat="43.985729671979094" lon="11.338506984118686"><ele>238.66666666666669</ele><time>2026-04-11T09:59:25.966Z</time></trkpt><trkpt lat="43.98574028665408" lon="11.338380897192994"><ele>239.33333333333334</ele><time>2026-04-11T09:59:26.966Z</time></trkpt><trkpt lat="43.98577546217845" lon="11.33828532606908"><ele>240.0</ele><time>2026-04-11T09:59:27.966Z</time></trkpt><trkpt lat="43.98580597589697" lon="11.338180189507055"><ele>240.0</ele><time>2026-04-11T09:59:28.966Z</time></trkpt><trkpt lat="43.98583113257503" lon="11.338064729233142"><ele>240.0</ele><time>2026-04-11T09:59:29.966Z</time></trkpt><trkpt lat="43.9858837964456" lon="11.337970791449903"><ele>240.0</ele><time>2026-04-11T09:59:30.966Z</time></trkpt><trkpt lat="43.985914041315915" lon="11.337870579634837"><ele>240.0</ele><time>2026-04-11T09:59:31.966Z</time></trkpt><trkpt lat="43.985946341771246" lon="11.33776699398461"><ele>240.0</ele><time>2026-04-11T09:59:32.966Z</time></trkpt><trkpt lat="43.9859781332433" lon="11.337665040663726"><ele>240.0</ele><time>2026-04-11T09:59:33.966Z</time></trkpt><trkpt lat="43.98601247276791" lon="11.33755491586424"><ele>240.5</ele><time>2026-04-11T09:59:34.966Z</time></trkpt><trkpt lat="43.9860399094783" lon="11.337446212873898"><ele>241.0</ele><time>2026-04-11T09:59:35.966Z</time></trkpt><trkpt lat="43.98607739204128" lon="11.3373361012749"><ele>241.5</ele><time>2026-04-11T09:59:36.966Z</time></trkpt><trkpt lat="43.98611006810978" lon="11.337228637388158"><ele>242.0</ele><time>2026-04-11T09:59:37.966Z</time></trkpt><trkpt lat="43.98614424297712" lon="11.337122517617516"><ele>242.5</ele><time>2026-04-11T09:59:38.966Z</time></trkpt><trkpt lat="43.98617575953177" lon="11.337017054546168"><ele>243.0</ele><time>2026-04-11T09:59:39.966Z</time></trkpt><trkpt lat="43.986210281403075" lon="11.336906908302831"><ele>243.0</ele><time>2026-04-11T09:59:40.966Z</time></trkpt><trkpt lat="43.986244021909876" lon="11.336805970384678"><ele>243.0</ele><time>2026-04-11T09:59:41.966Z</time></trkpt><trkpt lat="43.98627129649769" lon="11.336713880775461"><ele>243.0</ele><time>2026-04-11T09:59:42.966Z</time></trkpt><trkpt lat="43.98629718817436" lon="11.336626391492022"><ele>243.0</ele><time>2026-04-11T09:59:43.966Z</time></trkpt><trkpt lat="43.986317674499496" lon="11.336542120114139"><ele>243.0</ele><time>2026-04-11T09:59:44.966Z</time></trkpt><trkpt lat="43.986397464847165" lon="11.336473086643101"><ele>243.0</ele><time>2026-04-11T09:59:46.966Z</time></trkpt><trkpt lat="43.98652251897865" lon="11.336522694081802"><ele>243.0</ele><time>2026-04-11T09:59:48.966Z</time></trkpt><trkpt lat="43.98662306245093" lon="11.336543033178573"><ele>243.0</ele><time>2026-04-11T09:59:49.966Z</time></trkpt><trkpt lat="43.98670509112697" lon="11.336557662645411"><ele>243.0</ele><time>2026-04-11T09:59:50.966Z</time></trkpt><trkpt lat="43.98679095720058" lon="11.336560181696381"><ele>243.0</ele><time>2026-04-11T09:59:51.966Z</time></trkpt><trkpt lat="43.98686410427906" lon="11.336582309727856"><ele>243.0</ele><time>2026-04-11T09:59:52.966Z</time></trkpt><trkpt lat="43.98693868402016" lon="11.336603070916446"><ele>243.0</ele><time>2026-04-11T09:59:53.966Z</time></trkpt><trkpt lat="43.987040285829785" lon="11.336596078465526"><ele>243.4</ele><time>2026-04-11T09:59:55.966Z</time></trkpt><trkpt lat="43.987066419119905" lon="11.33645415883548"><ele>243.8</ele><time>2026-04-11T09:59:57.966Z</time></trkpt><trkpt lat="43.98703665069047" lon="11.336369182678386"><ele>244.2</ele><time>2026-04-11T09:59:58.964Z</time></trkpt><trkpt lat="43.98698417231535" lon="11.336270995882934"><ele>244.6</ele><time>2026-04-11T09:59:59.963Z</time></trkpt><trkpt lat="43.98695492131764" lon="11.336149223444636"><ele>245.0</ele><time>2026-04-11T10:00:00.963Z</time></trkpt><trkpt lat="43.98692700927502" lon="11.336006817599973"><ele>245.75</ele><time>2026-04-11T10:00:01.964Z</time></trkpt><trkpt lat="43.9869025304299" lon="11.335853226265268"><ele>246.5</ele><time>2026-04-11T10:00:02.964Z</time></trkpt><trkpt lat="43.98688325186563" lon="11.335692795259005"><ele>247.25</ele><time>2026-04-11T10:00:03.964Z</time></trkpt><trkpt lat="43.986862353423035" lon="11.335523195384933"><ele>248.0</ele><time>2026-04-11T10:00:04.964Z</time></trkpt><trkpt lat="43.98684913846394" lon="11.335344964281047"><ele>247.75</ele><time>2026-04-11T10:00:05.965Z</time></trkpt><trkpt lat="43.986844805576325" lon="11.335169582480694"><ele>247.5</ele><time>2026-04-11T10:00:06.965Z</time></trkpt><trkpt lat="43.986844772448855" lon="11.335014096856847"><ele>247.25</ele><time>2026-04-11T10:00:07.965Z</time></trkpt><trkpt lat="43.986838128137336" lon="11.334863497841587"><ele>247.0</ele><time>2026-04-11T10:00:08.964Z</time></trkpt><trkpt lat="43.9868083815731" lon="11.334719489233562"><ele>247.0</ele><time>2026-04-11T10:00:09.964Z</time></trkpt><trkpt lat="43.98675182405391" lon="11.334602692069694"><ele>247.0</ele><time>2026-04-11T10:00:10.964Z</time></trkpt><trkpt lat="43.98668750016184" lon="11.334504255039631"><ele>247.0</ele><time>2026-04-11T10:00:11.964Z</time></trkpt><trkpt lat="43.98661392502221" lon="11.334424523647476"><ele>247.0</ele><time>2026-04-11T10:00:12.964Z</time></trkpt><trkpt lat="43.986548562724145" lon="11.33434875672433"><ele>247.0</ele><time>2026-04-11T10:00:13.964Z</time></trkpt><trkpt lat="43.98650398802715" lon="11.33425959365626"><ele>247.16666666666666</ele><time>2026-04-11T10:00:14.964Z</time></trkpt><trkpt lat="43.98647805730465" lon="11.334158321143752"><ele>247.33333333333331</ele><time>2026-04-11T10:00:15.964Z</time></trkpt><trkpt lat="43.9864730639948" lon="11.3340602988113"><ele>247.5</ele><time>2026-04-11T10:00:16.964Z</time></trkpt><trkpt lat="43.98649296504802" lon="11.333948764650478"><ele>247.66666666666669</ele><time>2026-04-11T10:00:17.964Z</time></trkpt><trkpt lat="43.986513396976385" lon="11.33383844968022"><ele>247.83333333333334</ele><time>2026-04-11T10:00:18.964Z</time></trkpt><trkpt lat="43.986548039405136" lon="11.333725036566896"><ele>248.0</ele><time>2026-04-11T10:00:19.964Z</time></trkpt><trkpt lat="43.98657811733857" lon="11.33360478598194"><ele>246.8</ele><time>2026-04-11T10:00:20.964Z</time></trkpt><trkpt lat="43.986619225732376" lon="11.333474902326635"><ele>245.60000000000002</ele><time>2026-04-11T10:00:21.964Z</time></trkpt><trkpt lat="43.98666045987231" lon="11.333348506112843"><ele>244.39999999999998</ele><time>2026-04-11T10:00:22.964Z</time></trkpt><trkpt lat="43.98671039452109" lon="11.333205868964676"><ele>243.2</ele><time>2026-04-11T10:00:23.964Z</time></trkpt><trkpt lat="43.98675599170551" lon="11.333060510534576"><ele>242.0</ele><time>2026-04-11T10:00:24.964Z</time></trkpt><trkpt lat="43.98681954383246" lon="11.332926908558052"><ele>240.5</ele><time>2026-04-11T10:00:25.964Z</time></trkpt><trkpt lat="43.98685513361006" lon="11.332779646349298"><ele>239.0</ele><time>2026-04-11T10:00:26.964Z</time></trkpt><trkpt lat="43.986887098807394" lon="11.332616604414635"><ele>237.5</ele><time>2026-04-11T10:00:27.964Z</time></trkpt><trkpt lat="43.98691464543969" lon="11.332452705763115"><ele>236.0</ele><time>2026-04-11T10:00:28.964Z</time></trkpt><trkpt lat="43.986939130109434" lon="11.332298620540644"><ele>234.5</ele><time>2026-04-11T10:00:29.964Z</time></trkpt><trkpt lat="43.98696646551814" lon="11.332156444998848"><ele>233.0</ele><time>2026-04-11T10:00:30.964Z</time></trkpt><trkpt lat="43.98699542518422" lon="11.332010572382183"><ele>231.5</ele><time>2026-04-11T10:00:31.964Z</time></trkpt><trkpt lat="43.98702732669895" lon="11.331850780088121"><ele>230.0</ele><time>2026-04-11T10:00:32.964Z</time></trkpt><trkpt lat="43.987057061114605" lon="11.331682740712111"><ele>230.0</ele><time>2026-04-11T10:00:33.964Z</time></trkpt><trkpt lat="43.98708939420525" lon="11.331514957373644"><ele>230.0</ele><time>2026-04-11T10:00:34.964Z</time></trkpt><trkpt lat="43.987122759430704" lon="11.331361886600522"><ele>230.0</ele><time>2026-04-11T10:00:35.964Z</time></trkpt><trkpt lat="43.987159697103905" lon="11.331234208268977"><ele>230.0</ele><time>2026-04-11T10:00:36.964Z</time></trkpt><trkpt lat="43.98718466811918" lon="11.33110636705271"><ele>230.0</ele><time>2026-04-11T10:00:37.964Z</time></trkpt><trkpt lat="43.987211938431216" lon="11.330968583955677"><ele>229.5</ele><time>2026-04-11T10:00:38.964Z</time></trkpt><trkpt lat="43.98725008299943" lon="11.330817602355863"><ele>229.0</ele><time>2026-04-11T10:00:39.964Z</time></trkpt><trkpt lat="43.98728252982229" lon="11.33066963509314"><ele>228.5</ele><time>2026-04-11T10:00:40.964Z</time></trkpt><trkpt lat="43.98730239341225" lon="11.330514552954813"><ele>228.0</ele><time>2026-04-11T10:00:41.964Z</time></trkpt><trkpt lat="43.98730570748046" lon="11.3303456295436"><ele>228.0</ele><time>2026-04-11T10:00:42.964Z</time></trkpt><trkpt lat="43.98729581908668" lon="11.330163440030118"><ele>228.0</ele><time>2026-04-11T10:00:43.964Z</time></trkpt><trkpt lat="43.987281059815054" lon="11.329971989701281"><ele>228.0</ele><time>2026-04-11T10:00:44.964Z</time></trkpt><trkpt lat="43.98726412592248" lon="11.32976919876888"><ele>228.0</ele><time>2026-04-11T10:00:45.964Z</time></trkpt><trkpt lat="43.98725768697443" lon="11.329573014299907"><ele>229.0</ele><time>2026-04-11T10:00:46.964Z</time></trkpt><trkpt lat="43.98726404041927" lon="11.32936606346708"><ele>230.0</ele><time>2026-04-11T10:00:47.964Z</time></trkpt><trkpt lat="43.98727590251086" lon="11.32918646512687"><ele>231.0</ele><time>2026-04-11T10:00:48.964Z</time></trkpt><trkpt lat="43.98728362166143" lon="11.32902370132754"><ele>232.0</ele><time>2026-04-11T10:00:49.964Z</time></trkpt><trkpt lat="43.98727841954127" lon="11.328860214484404"><ele>233.25</ele><time>2026-04-11T10:00:50.964Z</time></trkpt><trkpt lat="43.98726475353675" lon="11.32869233001302"><ele>234.5</ele><time>2026-04-11T10:00:51.964Z</time></trkpt><trkpt lat="43.987244865570496" lon="11.328525272995762"><ele>235.75</ele><time>2026-04-11T10:00:52.964Z</time></trkpt><trkpt lat="43.987222414227325" lon="11.328354081940782"><ele>237.0</ele><time>2026-04-11T10:00:53.964Z</time></trkpt><trkpt lat="43.987201131163445" lon="11.328177054030892"><ele>238.25</ele><time>2026-04-11T10:00:54.964Z</time></trkpt><trkpt lat="43.987179175410375" lon="11.327993496290754"><ele>239.5</ele><time>2026-04-11T10:00:55.964Z</time></trkpt><trkpt lat="43.98717570716112" lon="11.327815024947302"><ele>240.75</ele><time>2026-04-11T10:00:56.964Z</time></trkpt><trkpt lat="43.987160370958776" lon="11.327650262352973"><ele>242.0</ele><time>2026-04-11T10:00:57.964Z</time></trkpt><trkpt lat="43.98714626725735" lon="11.327488473971066"><ele>242.0</ele><time>2026-04-11T10:00:58.964Z</time></trkpt><trkpt lat="43.98711904707391" lon="11.327337531605705"><ele>242.0</ele><time>2026-04-11T10:00:59.964Z</time></trkpt><trkpt lat="43.98711748493964" lon="11.327178305446465"><ele>242.0</ele><time>2026-04-11T10:01:00.964Z</time></trkpt><trkpt lat="43.987115236564776" lon="11.327026905782496"><ele>242.0</ele><time>2026-04-11T10:01:01.964Z</time></trkpt><trkpt lat="43.98711164902172" lon="11.326890763861186"><ele>242.0</ele><time>2026-04-11T10:01:02.964Z</time></trkpt><trkpt lat="43.987103588780165" lon="11.326761938050387"><ele>243.83333333333334</ele><time>2026-04-11T10:01:03.964Z</time></trkpt><trkpt lat="43.98708135799733" lon="11.326654853084552"><ele>245.66666666666669</ele><time>2026-04-11T10:01:04.964Z</time></trkpt><trkpt lat="43.98704075745882" lon="11.326580019417989"><ele>247.5</ele><time>2026-04-11T10:01:05.964Z</time></trkpt><trkpt lat="43.98698651766105" lon="11.326533564676321"><ele>249.33333333333331</ele><time>2026-04-11T10:01:06.964Z</time></trkpt><trkpt lat="43.986850571605835" lon="11.326484225050297"><ele>251.16666666666666</ele><time>2026-04-11T10:01:08.964Z</time></trkpt><trkpt lat="43.98677613470544" lon="11.326485200936872"><ele>253.0</ele><time>2026-04-11T10:01:09.964Z</time></trkpt><trkpt lat="43.98669670903438" lon="11.326480162908842"><ele>253.2</ele><time>2026-04-11T10:01:10.964Z</time></trkpt><trkpt lat="43.98661916253582" lon="11.326462315593874"><ele>253.4</ele><time>2026-04-11T10:01:11.964Z</time></trkpt><trkpt lat="43.9865589505092" lon="11.326436392912745"><ele>253.59999999999997</ele><time>2026-04-11T10:01:12.964Z</time></trkpt><trkpt lat="43.98646161021535" lon="11.326323476849126"><ele>253.79999999999998</ele><time>2026-04-11T10:01:14.964Z</time></trkpt><trkpt lat="43.98644300363195" lon="11.326198583868017"><ele>254.0</ele><time>2026-04-11T10:01:15.964Z</time></trkpt><trkpt lat="43.98643790823748" lon="11.326059024210354"><ele>254.75</ele><time>2026-04-11T10:01:16.964Z</time></trkpt><trkpt lat="43.986424185104056" lon="11.325915819828559"><ele>255.5</ele><time>2026-04-11T10:01:17.964Z</time></trkpt><trkpt lat="43.986427246362325" lon="11.325745836834447"><ele>256.25</ele><time>2026-04-11T10:01:18.964Z</time></trkpt><trkpt lat="43.986419893122346" lon="11.32556012198893"><ele>257.0</ele><time>2026-04-11T10:01:19.964Z</time></trkpt><trkpt lat="43.9864048759356" lon="11.325361792168916"><ele>257.6666666666667</ele><time>2026-04-11T10:01:20.964Z</time></trkpt><trkpt lat="43.98638697937238" lon="11.325151731265995"><ele>258.3333333333333</ele><time>2026-04-11T10:01:21.964Z</time></trkpt><trkpt lat="43.98638875466758" lon="11.324933218002855"><ele>259.0</ele><time>2026-04-11T10:01:22.964Z</time></trkpt><trkpt lat="43.986369463509256" lon="11.324707086464132"><ele>260.66666666666663</ele><time>2026-04-11T10:01:23.964Z</time></trkpt><trkpt lat="43.98635235716072" lon="11.324479197371446"><ele>262.3333333333333</ele><time>2026-04-11T10:01:24.964Z</time></trkpt><trkpt lat="43.98634495181269" lon="11.324264911175616"><ele>264.0</ele><time>2026-04-11T10:01:25.964Z</time></trkpt><trkpt lat="43.986340293511766" lon="11.32405244310123"><ele>264.5</ele><time>2026-04-11T10:01:26.964Z</time></trkpt><trkpt lat="43.98633254501484" lon="11.323842298738958"><ele>265.0</ele><time>2026-04-11T10:01:27.964Z</time></trkpt><trkpt lat="43.98632260241498" lon="11.323643319164425"><ele>265.5</ele><time>2026-04-11T10:01:28.964Z</time></trkpt><trkpt lat="43.986308973585615" lon="11.323443011914406"><ele>266.0</ele><time>2026-04-11T10:01:29.964Z</time></trkpt><trkpt lat="43.98630272358578" lon="11.323264392941484"><ele>266.0</ele><time>2026-04-11T10:01:30.964Z</time></trkpt><trkpt lat="43.986294746605395" lon="11.323094234975413"><ele>266.0</ele><time>2026-04-11T10:01:31.964Z</time></trkpt><trkpt lat="43.98628859143138" lon="11.322926473730373"><ele>266.0</ele><time>2026-04-11T10:01:32.964Z</time></trkpt><trkpt lat="43.98628064010588" lon="11.322774260476852"><ele>266.0</ele><time>2026-04-11T10:01:33.964Z</time></trkpt><trkpt lat="43.98627197148708" lon="11.322642052443522"><ele>266.0</ele><time>2026-04-11T10:01:34.964Z</time></trkpt><trkpt lat="43.986260225928596" lon="11.322522664845092"><ele>265.6666666666667</ele><time>2026-04-11T10:01:35.964Z</time></trkpt><trkpt lat="43.98627928975182" lon="11.322403882854486"><ele>265.33333333333337</ele><time>2026-04-11T10:01:37.964Z</time></trkpt><trkpt lat="43.986368849098845" lon="11.32242226433109"><ele>265.0</ele><time>2026-04-11T10:01:40.964Z</time></trkpt><trkpt lat="43.986435367034936" lon="11.322429375593382"><ele>264.6666666666667</ele><time>2026-04-11T10:01:41.964Z</time></trkpt><trkpt lat="43.98650553151219" lon="11.322406924367257"><ele>264.3333333333333</ele><time>2026-04-11T10:01:42.965Z</time></trkpt><trkpt lat="43.98658877125259" lon="11.322412552573798"><ele>264.0</ele><time>2026-04-11T10:01:43.965Z</time></trkpt><trkpt lat="43.98668377448845" lon="11.322389825829289"><ele>265.25</ele><time>2026-04-11T10:01:44.965Z</time></trkpt><trkpt lat="43.986792250448126" lon="11.322353933171248"><ele>266.5</ele><time>2026-04-11T10:01:45.965Z</time></trkpt><trkpt lat="43.986893851727814" lon="11.322323025755843"><ele>267.75</ele><time>2026-04-11T10:01:46.965Z</time></trkpt><trkpt lat="43.98701567865266" lon="11.32228515499728"><ele>269.0</ele><time>2026-04-11T10:01:47.965Z</time></trkpt><trkpt lat="43.9871438875419" lon="11.32225405102231"><ele>267.75</ele><time>2026-04-11T10:01:48.965Z</time></trkpt><trkpt lat="43.987274233514995" lon="11.32222449923196"><ele>266.5</ele><time>2026-04-11T10:01:49.965Z</time></trkpt><trkpt lat="43.987408855216486" lon="11.322193985654396"><ele>265.25</ele><time>2026-04-11T10:01:50.965Z</time></trkpt><trkpt lat="43.987546822379194" lon="11.322192918367907"><ele>264.0</ele><time>2026-04-11T10:01:51.965Z</time></trkpt><trkpt lat="43.987684026705566" lon="11.3221943380125"><ele>262.75</ele><time>2026-04-11T10:01:52.965Z</time></trkpt><trkpt lat="43.9878345016845" lon="11.322196265356855"><ele>261.5</ele><time>2026-04-11T10:01:53.965Z</time></trkpt><trkpt lat="43.987983573582795" lon="11.322184225038852"><ele>260.25</ele><time>2026-04-11T10:01:54.965Z</time></trkpt><trkpt lat="43.98812774181006" lon="11.322162958073083"><ele>259.0</ele><time>2026-04-11T10:01:55.965Z</time></trkpt><trkpt lat="43.98826904897546" lon="11.322164424419475"><ele>258.25</ele><time>2026-04-11T10:01:56.965Z</time></trkpt><trkpt lat="43.98841048254981" lon="11.32217752041024"><ele>257.5</ele><time>2026-04-11T10:01:57.965Z</time></trkpt><trkpt lat="43.98854271871336" lon="11.322199557696424"><ele>256.75</ele><time>2026-04-11T10:01:58.965Z</time></trkpt><trkpt lat="43.988677131084465" lon="11.322236753481066"><ele>256.0</ele><time>2026-04-11T10:01:59.965Z</time></trkpt><trkpt lat="43.98881459022097" lon="11.322277904672115"><ele>257.75</ele><time>2026-04-11T10:02:00.965Z</time></trkpt><trkpt lat="43.98894859521762" lon="11.322320101068817"><ele>259.5</ele><time>2026-04-11T10:02:01.965Z</time></trkpt><trkpt lat="43.989076444604855" lon="11.32236107642706"><ele>261.25</ele><time>2026-04-11T10:02:02.965Z</time></trkpt><trkpt lat="43.989208656316016" lon="11.322380127096688"><ele>263.0</ele><time>2026-04-11T10:02:03.965Z</time></trkpt><trkpt lat="43.989328949685415" lon="11.322435870239362"><ele>263.0</ele><time>2026-04-11T10:02:04.963Z</time></trkpt><trkpt lat="43.989436734668004" lon="11.322466742819643"><ele>263.0</ele><time>2026-04-11T10:02:05.963Z</time></trkpt><trkpt lat="43.98954468918512" lon="11.322502181590323"><ele>263.0</ele><time>2026-04-11T10:02:06.963Z</time></trkpt><trkpt lat="43.989646596657096" lon="11.322533541025054"><ele>263.0</ele><time>2026-04-11T10:02:07.962Z</time></trkpt><trkpt lat="43.98975128543264" lon="11.322564856324394"><ele>263.0</ele><time>2026-04-11T10:02:08.962Z</time></trkpt><trkpt lat="43.98984473627648" lon="11.32258946059947"><ele>263.0</ele><time>2026-04-11T10:02:09.962Z</time></trkpt><trkpt lat="43.98993582446412" lon="11.322607701988126"><ele>263.0</ele><time>2026-04-11T10:02:10.963Z</time></trkpt><trkpt lat="43.99004148102496" lon="11.322607136164612"><ele>263.0</ele><time>2026-04-11T10:02:11.962Z</time></trkpt><trkpt lat="43.990145831421444" lon="11.322598992994656"><ele>263.0</ele><time>2026-04-11T10:02:12.962Z</time></trkpt><trkpt lat="43.990253907983664" lon="11.322569027451905"><ele>263.0</ele><time>2026-04-11T10:02:13.962Z</time></trkpt><trkpt lat="43.990370338076055" lon="11.322569684896225"><ele>262.0</ele><time>2026-04-11T10:02:14.962Z</time></trkpt><trkpt lat="43.99048422069396" lon="11.322533204582362"><ele>261.0</ele><time>2026-04-11T10:02:15.962Z</time></trkpt><trkpt lat="43.99059775315501" lon="11.322541625193935"><ele>260.0</ele><time>2026-04-11T10:02:16.963Z</time></trkpt><trkpt lat="43.99070831945264" lon="11.322519358105046"><ele>259.0</ele><time>2026-04-11T10:02:17.962Z</time></trkpt><trkpt lat="43.99081858262185" lon="11.322526708706146"><ele>258.75</ele><time>2026-04-11T10:02:18.962Z</time></trkpt><trkpt lat="43.99092700835007" lon="11.322537612776882"><ele>258.5</ele><time>2026-04-11T10:02:19.962Z</time></trkpt><trkpt lat="43.9910417156504" lon="11.322547018305814"><ele>258.25</ele><time>2026-04-11T10:02:20.962Z</time></trkpt><trkpt lat="43.991160460411145" lon="11.322562436853055"><ele>258.0</ele><time>2026-04-11T10:02:21.962Z</time></trkpt><trkpt lat="43.99128210935398" lon="11.322576259911736"><ele>258.0</ele><time>2026-04-11T10:02:22.962Z</time></trkpt><trkpt lat="43.99140196147369" lon="11.322595584350388"><ele>258.0</ele><time>2026-04-11T10:02:23.962Z</time></trkpt><trkpt lat="43.99152554269175" lon="11.322614539832308"><ele>258.0</ele><time>2026-04-11T10:02:24.962Z</time></trkpt><trkpt lat="43.99165122033988" lon="11.32262997478078"><ele>258.0</ele><time>2026-04-11T10:02:25.962Z</time></trkpt><trkpt lat="43.991778156346584" lon="11.32266674526461"><ele>257.5</ele><time>2026-04-11T10:02:26.962Z</time></trkpt><trkpt lat="43.991908315137636" lon="11.322682663374415"><ele>257.0</ele><time>2026-04-11T10:02:27.962Z</time></trkpt><trkpt lat="43.99203464809708" lon="11.322702101665985"><ele>256.5</ele><time>2026-04-11T10:02:28.962Z</time></trkpt><trkpt lat="43.99216093169384" lon="11.322716337583651"><ele>256.0</ele><time>2026-04-11T10:02:29.962Z</time></trkpt><trkpt lat="43.99229247980976" lon="11.322727871183393"><ele>256.0</ele><time>2026-04-11T10:02:30.962Z</time></trkpt><trkpt lat="43.99242660771165" lon="11.322737695787609"><ele>256.0</ele><time>2026-04-11T10:02:31.962Z</time></trkpt><trkpt lat="43.992566938649574" lon="11.32273814878231"><ele>256.0</ele><time>2026-04-11T10:02:32.962Z</time></trkpt><trkpt lat="43.992710912136005" lon="11.322731140360666"><ele>256.0</ele><time>2026-04-11T10:02:33.962Z</time></trkpt><trkpt lat="43.9928520600229" lon="11.322718327873972"><ele>255.75</ele><time>2026-04-11T10:02:34.962Z</time></trkpt><trkpt lat="43.99299649872413" lon="11.322691962605342"><ele>255.5</ele><time>2026-04-11T10:02:35.962Z</time></trkpt><trkpt lat="43.99313654243248" lon="11.322665801544183"><ele>255.25</ele><time>2026-04-11T10:02:36.962Z</time></trkpt><trkpt lat="43.99327754812632" lon="11.322636070446837"><ele>255.0</ele><time>2026-04-11T10:02:37.962Z</time></trkpt><trkpt lat="43.99341190348129" lon="11.322610269644485"><ele>255.5</ele><time>2026-04-11T10:02:38.962Z</time></trkpt><trkpt lat="43.99354715769732" lon="11.322583188913201"><ele>256.0</ele><time>2026-04-11T10:02:39.962Z</time></trkpt><trkpt lat="43.99366924982935" lon="11.322558216882024"><ele>256.5</ele><time>2026-04-11T10:02:40.962Z</time></trkpt><trkpt lat="43.99379029546547" lon="11.322535082805429"><ele>257.0</ele><time>2026-04-11T10:02:41.962Z</time></trkpt><trkpt lat="43.99391206148558" lon="11.322508900363909"><ele>257.0</ele><time>2026-04-11T10:02:42.962Z</time></trkpt><trkpt lat="43.9940312471528" lon="11.322491216142234"><ele>257.0</ele><time>2026-04-11T10:02:43.962Z</time></trkpt><trkpt lat="43.99414890353383" lon="11.3224767351458"><ele>257.0</ele><time>2026-04-11T10:02:44.962Z</time></trkpt><trkpt lat="43.99427180503071" lon="11.322467195462881"><ele>257.0</ele><time>2026-04-11T10:02:45.962Z</time></trkpt><trkpt lat="43.994391700551816" lon="11.322449667370293"><ele>257.5</ele><time>2026-04-11T10:02:46.962Z</time></trkpt><trkpt lat="43.994510835601176" lon="11.322416974424227"><ele>258.0</ele><time>2026-04-11T10:02:47.962Z</time></trkpt><trkpt lat="43.99462047786355" lon="11.322380038350305"><ele>258.5</ele><time>2026-04-11T10:02:48.962Z</time></trkpt><trkpt lat="43.99472522409722" lon="11.322346510302848"><ele>259.0</ele><time>2026-04-11T10:02:49.962Z</time></trkpt><trkpt lat="43.99482972356222" lon="11.322304062172813"><ele>259.0</ele><time>2026-04-11T10:02:50.962Z</time></trkpt><trkpt lat="43.99493705212459" lon="11.322272220457485"><ele>259.0</ele><time>2026-04-11T10:02:51.962Z</time></trkpt><trkpt lat="43.995048383218055" lon="11.322245500024373"><ele>259.0</ele><time>2026-04-11T10:02:52.962Z</time></trkpt><trkpt lat="43.99515922489807" lon="11.32219790786946"><ele>259.0</ele><time>2026-04-11T10:02:53.962Z</time></trkpt><trkpt lat="43.99526919060065" lon="11.322158554747286"><ele>259.5</ele><time>2026-04-11T10:02:54.962Z</time></trkpt><trkpt lat="43.995381319733575" lon="11.322116514120285"><ele>260.0</ele><time>2026-04-11T10:02:55.962Z</time></trkpt><trkpt lat="43.9954956699651" lon="11.322106982282795"><ele>260.5</ele><time>2026-04-11T10:02:56.962Z</time></trkpt><trkpt lat="43.9956125990387" lon="11.322087972265876"><ele>261.0</ele><time>2026-04-11T10:02:57.962Z</time></trkpt><trkpt lat="43.99573998953941" lon="11.32205205712151"><ele>262.0</ele><time>2026-04-11T10:02:58.962Z</time></trkpt><trkpt lat="43.995856883332486" lon="11.321958548890647"><ele>263.0</ele><time>2026-04-11T10:02:59.962Z</time></trkpt><trkpt lat="43.99597607677063" lon="11.321864548108469"><ele>264.0</ele><time>2026-04-11T10:03:00.962Z</time></trkpt><trkpt lat="43.99609155316633" lon="11.32175297542759"><ele>265.0</ele><time>2026-04-11T10:03:01.962Z</time></trkpt><trkpt lat="43.996210301291455" lon="11.321638965457979"><ele>265.0</ele><time>2026-04-11T10:03:02.962Z</time></trkpt><trkpt lat="43.99633867102389" lon="11.321542255225772"><ele>265.0</ele><time>2026-04-11T10:03:03.962Z</time></trkpt><trkpt lat="43.99647785276172" lon="11.321466869745317"><ele>265.0</ele><time>2026-04-11T10:03:04.962Z</time></trkpt><trkpt lat="43.99661459037375" lon="11.321448894205346"><ele>265.0</ele><time>2026-04-11T10:03:05.962Z</time></trkpt><trkpt lat="43.996742119973675" lon="11.321413720264768"><ele>267.25</ele><time>2026-04-11T10:03:06.962Z</time></trkpt><trkpt lat="43.996855227008986" lon="11.32136601876312"><ele>269.5</ele><time>2026-04-11T10:03:07.962Z</time></trkpt><trkpt lat="43.996965923937786" lon="11.321339642678566"><ele>271.75</ele><time>2026-04-11T10:03:08.962Z</time></trkpt><trkpt lat="43.99707490564493" lon="11.321294695990638"><ele>274.0</ele><time>2026-04-11T10:03:09.962Z</time></trkpt><trkpt lat="43.99718179319018" lon="11.321227444724974"><ele>274.0</ele><time>2026-04-11T10:03:10.962Z</time></trkpt><trkpt lat="43.99728959290709" lon="11.321154413346816"><ele>274.0</ele><time>2026-04-11T10:03:11.962Z</time></trkpt><trkpt lat="43.99740958376945" lon="11.321107955514911"><ele>274.0</ele><time>2026-04-11T10:03:12.962Z</time></trkpt><trkpt lat="43.997525856964856" lon="11.321040884783299"><ele>274.0</ele><time>2026-04-11T10:03:13.962Z</time></trkpt><trkpt lat="43.99764057193515" lon="11.32097432656277"><ele>274.25</ele><time>2026-04-11T10:03:14.962Z</time></trkpt><trkpt lat="43.997752969732225" lon="11.320914077477669"><ele>274.5</ele><time>2026-04-11T10:03:15.962Z</time></trkpt><trkpt lat="43.99787237911784" lon="11.320855691416757"><ele>274.75</ele><time>2026-04-11T10:03:16.962Z</time></trkpt><trkpt lat="43.997990338271705" lon="11.320802537531318"><ele>275.0</ele><time>2026-04-11T10:03:17.962Z</time></trkpt><trkpt lat="43.998114230350495" lon="11.320749486668804"><ele>275.0</ele><time>2026-04-11T10:03:18.962Z</time></trkpt><trkpt lat="43.99823086140885" lon="11.320714097116943"><ele>275.0</ele><time>2026-04-11T10:03:19.962Z</time></trkpt><trkpt lat="43.99834827826029" lon="11.320686350555814"><ele>275.0</ele><time>2026-04-11T10:03:20.962Z</time></trkpt><trkpt lat="43.99846034731879" lon="11.320654201322752"><ele>275.0</ele><time>2026-04-11T10:03:21.962Z</time></trkpt><trkpt lat="43.998574598340255" lon="11.32062271554467"><ele>275.4</ele><time>2026-04-11T10:03:22.962Z</time></trkpt><trkpt lat="43.99869256489772" lon="11.320595414750864"><ele>275.8</ele><time>2026-04-11T10:03:23.962Z</time></trkpt><trkpt lat="43.99880173765419" lon="11.320578518489725"><ele>276.2</ele><time>2026-04-11T10:03:24.962Z</time></trkpt><trkpt lat="43.99889918459689" lon="11.32057535657951"><ele>276.6</ele><time>2026-04-11T10:03:25.962Z</time></trkpt><trkpt lat="43.99898482214444" lon="11.320574427930326"><ele>277.0</ele><time>2026-04-11T10:03:26.962Z</time></trkpt><trkpt lat="43.99907353919642" lon="11.32055491805969"><ele>277.8</ele><time>2026-04-11T10:03:27.962Z</time></trkpt><trkpt lat="43.99917665708278" lon="11.320538276185179"><ele>278.6</ele><time>2026-04-11T10:03:28.963Z</time></trkpt><trkpt lat="43.99928591440701" lon="11.320522137850613"><ele>279.40000000000003</ele><time>2026-04-11T10:03:29.963Z</time></trkpt><trkpt lat="43.99939222357843" lon="11.320502549138611"><ele>280.2</ele><time>2026-04-11T10:03:30.963Z</time></trkpt><trkpt lat="43.99950162808193" lon="11.320458005676032"><ele>281.0</ele><time>2026-04-11T10:03:31.963Z</time></trkpt><trkpt lat="43.99961781744868" lon="11.320425043100075"><ele>281.0</ele><time>2026-04-11T10:03:32.963Z</time></trkpt><trkpt lat="43.99972692309463" lon="11.32034387311735"><ele>281.0</ele><time>2026-04-11T10:03:33.963Z</time></trkpt><trkpt lat="43.99985392340064" lon="11.320296828943508"><ele>281.0</ele><time>2026-04-11T10:03:34.963Z</time></trkpt><trkpt lat="43.99995927815432" lon="11.320266716858438"><ele>281.0</ele><time>2026-04-11T10:03:35.963Z</time></trkpt><trkpt lat="44.0000603494638" lon="11.320237542776521"><ele>281.0</ele><time>2026-04-11T10:03:36.963Z</time></trkpt><trkpt lat="44.000163346050925" lon="11.320211644105399"><ele>281.0</ele><time>2026-04-11T10:03:37.963Z</time></trkpt><trkpt lat="44.000267677083684" lon="11.32019593360376"><ele>281.0</ele><time>2026-04-11T10:03:38.963Z</time></trkpt><trkpt lat="44.00037644556994" lon="11.320189794589878"><ele>281.0</ele><time>2026-04-11T10:03:39.963Z</time></trkpt><trkpt lat="44.000481090448794" lon="11.3201864681941"><ele>281.0</ele><time>2026-04-11T10:03:40.963Z</time></trkpt><trkpt lat="44.0005755448852" lon="11.32017850265769"><ele>281.0</ele><time>2026-04-11T10:03:41.963Z</time></trkpt><trkpt lat="44.00066444953142" lon="11.32017987843267"><ele>281.0</ele><time>2026-04-11T10:03:42.963Z</time></trkpt><trkpt lat="44.000755846453025" lon="11.32020262722174"><ele>281.0</ele><time>2026-04-11T10:03:43.963Z</time></trkpt><trkpt lat="44.0008468221637" lon="11.320189479983267"><ele>281.0</ele><time>2026-04-11T10:03:44.963Z</time></trkpt><trkpt lat="44.00092786626191" lon="11.320157048605925"><ele>281.0</ele><time>2026-04-11T10:03:45.963Z</time></trkpt><trkpt lat="44.001005793556516" lon="11.320102354186595"><ele>281.0</ele><time>2026-04-11T10:03:46.963Z</time></trkpt><trkpt lat="44.001089261738535" lon="11.32002484538454"><ele>281.5</ele><time>2026-04-11T10:03:47.963Z</time></trkpt><trkpt lat="44.00117911178269" lon="11.319939030647497"><ele>282.0</ele><time>2026-04-11T10:03:48.963Z</time></trkpt><trkpt lat="44.00127284028079" lon="11.319852700632731"><ele>282.5</ele><time>2026-04-11T10:03:49.963Z</time></trkpt><trkpt lat="44.00137513791487" lon="11.31976566179457"><ele>283.0</ele><time>2026-04-11T10:03:50.963Z</time></trkpt><trkpt lat="44.001481358131294" lon="11.319681435639763"><ele>284.25</ele><time>2026-04-11T10:03:51.963Z</time></trkpt><trkpt lat="44.00158470006468" lon="11.319585424241769"><ele>285.5</ele><time>2026-04-11T10:03:52.963Z</time></trkpt><trkpt lat="44.001685996810295" lon="11.319475918020478"><ele>286.75</ele><time>2026-04-11T10:03:53.963Z</time></trkpt><trkpt lat="44.001771257089814" lon="11.319342775248893"><ele>288.0</ele><time>2026-04-11T10:03:54.963Z</time></trkpt><trkpt lat="44.00184613068492" lon="11.31919594676152"><ele>289.0</ele><time>2026-04-11T10:03:55.963Z</time></trkpt><trkpt lat="44.001915620240766" lon="11.319045794480592"><ele>290.0</ele><time>2026-04-11T10:03:56.963Z</time></trkpt><trkpt lat="44.00198396040563" lon="11.318897009483644"><ele>291.0</ele><time>2026-04-11T10:03:57.963Z</time></trkpt><trkpt lat="44.00205209079457" lon="11.318768786207933"><ele>292.0</ele><time>2026-04-11T10:03:58.963Z</time></trkpt><trkpt lat="44.002132298572896" lon="11.318666345382796"><ele>293.0</ele><time>2026-04-11T10:03:59.963Z</time></trkpt><trkpt lat="44.002229330697446" lon="11.318591055879324"><ele>294.0</ele><time>2026-04-11T10:04:00.963Z</time></trkpt><trkpt lat="44.00234210660177" lon="11.318579009436114"><ele>295.0</ele><time>2026-04-11T10:04:01.963Z</time></trkpt><trkpt lat="44.002454023595824" lon="11.318572873605355"><ele>296.0</ele><time>2026-04-11T10:04:02.963Z</time></trkpt><trkpt lat="44.00257460590287" lon="11.31854214713545"><ele>296.0</ele><time>2026-04-11T10:04:03.963Z</time></trkpt><trkpt lat="44.00269485104222" lon="11.318542751122582"><ele>296.0</ele><time>2026-04-11T10:04:04.963Z</time></trkpt><trkpt lat="44.002820853591935" lon="11.31851578958566"><ele>296.0</ele><time>2026-04-11T10:04:05.963Z</time></trkpt><trkpt lat="44.00295539739005" lon="11.318481973840877"><ele>296.0</ele><time>2026-04-11T10:04:06.963Z</time></trkpt><trkpt lat="44.00309452517546" lon="11.318443768186318"><ele>296.0</ele><time>2026-04-11T10:04:07.963Z</time></trkpt><trkpt lat="44.0032385162819" lon="11.318411702654778"><ele>296.0</ele><time>2026-04-11T10:04:08.963Z</time></trkpt><trkpt lat="44.003385267853176" lon="11.318368972311914"><ele>296.0</ele><time>2026-04-11T10:04:09.963Z</time></trkpt><trkpt lat="44.00351142139441" lon="11.318319240086804"><ele>296.0</ele><time>2026-04-11T10:04:10.961Z</time></trkpt><trkpt lat="44.00363000713461" lon="11.31827159445328"><ele>296.0</ele><time>2026-04-11T10:04:11.961Z</time></trkpt><trkpt lat="44.003733797521335" lon="11.318236437770162"><ele>296.0</ele><time>2026-04-11T10:04:12.961Z</time></trkpt><trkpt lat="44.00384692309277" lon="11.318194661956477"><ele>296.0</ele><time>2026-04-11T10:04:13.961Z</time></trkpt><trkpt lat="44.00396199717186" lon="11.318206819345502"><ele>296.0</ele><time>2026-04-11T10:04:14.961Z</time></trkpt><trkpt lat="44.00408627333808" lon="11.31822373713961"><ele>297.0</ele><time>2026-04-11T10:04:15.961Z</time></trkpt><trkpt lat="44.004216784521304" lon="11.31824486529638"><ele>298.0</ele><time>2026-04-11T10:04:16.961Z</time></trkpt><trkpt lat="44.00435354910392" lon="11.318267784350017"><ele>299.0</ele><time>2026-04-11T10:04:17.961Z</time></trkpt><trkpt lat="44.00447854071902" lon="11.31827724316435"><ele>300.0</ele><time>2026-04-11T10:04:18.961Z</time></trkpt><trkpt lat="44.00460478387218" lon="11.318284222290478"><ele>300.0</ele><time>2026-04-11T10:04:19.96Z</time></trkpt><trkpt lat="44.00472970785479" lon="11.318290538514182"><ele>300.0</ele><time>2026-04-11T10:04:20.961Z</time></trkpt><trkpt lat="44.00483679449951" lon="11.318301420547376"><ele>300.0</ele><time>2026-04-11T10:04:21.961Z</time></trkpt><trkpt lat="44.00494774353999" lon="11.318322098433049"><ele>300.0</ele><time>2026-04-11T10:04:22.961Z</time></trkpt><trkpt lat="44.00505507140279" lon="11.318338635338403"><ele>300.8</ele><time>2026-04-11T10:04:23.961Z</time></trkpt><trkpt lat="44.00514799095481" lon="11.318341305165044"><ele>301.6</ele><time>2026-04-11T10:04:24.961Z</time></trkpt><trkpt lat="44.00524069441933" lon="11.318330840484773"><ele>302.4</ele><time>2026-04-11T10:04:25.961Z</time></trkpt><trkpt lat="44.00533493163126" lon="11.318292595128703"><ele>303.2</ele><time>2026-04-11T10:04:26.961Z</time></trkpt><trkpt lat="44.00542167767957" lon="11.318222875647345"><ele>304.0</ele><time>2026-04-11T10:04:27.961Z</time></trkpt><trkpt lat="44.00550283428401" lon="11.318123598322607"><ele>303.4</ele><time>2026-04-11T10:04:28.961Z</time></trkpt><trkpt lat="44.00557673635711" lon="11.318011878418442"><ele>302.79999999999995</ele><time>2026-04-11T10:04:29.961Z</time></trkpt><trkpt lat="44.005651822699825" lon="11.31790866366891"><ele>302.20000000000005</ele><time>2026-04-11T10:04:30.961Z</time></trkpt><trkpt lat="44.00573117046121" lon="11.317815503969582"><ele>301.6</ele><time>2026-04-11T10:04:31.961Z</time></trkpt><trkpt lat="44.005812351346606" lon="11.3177312821183"><ele>301.0</ele><time>2026-04-11T10:04:32.961Z</time></trkpt><trkpt lat="44.005901750024385" lon="11.31765897679782"><ele>303.0</ele><time>2026-04-11T10:04:33.961Z</time></trkpt><trkpt lat="44.00599714327265" lon="11.317596150342826"><ele>305.0</ele><time>2026-04-11T10:04:34.961Z</time></trkpt><trkpt lat="44.00608996697535" lon="11.317536585038544"><ele>307.0</ele><time>2026-04-11T10:04:35.96Z</time></trkpt><trkpt lat="44.00617256196555" lon="11.317514693901973"><ele>309.0</ele><time>2026-04-11T10:04:36.96Z</time></trkpt><trkpt lat="44.00625523339567" lon="11.317453555290722"><ele>311.0</ele><time>2026-04-11T10:04:37.96Z</time></trkpt><trkpt lat="44.00634509795451" lon="11.317422903242711"><ele>311.0</ele><time>2026-04-11T10:04:38.96Z</time></trkpt><trkpt lat="44.006439804899" lon="11.317411425913281"><ele>311.0</ele><time>2026-04-11T10:04:39.96Z</time></trkpt><trkpt lat="44.00654012715408" lon="11.317427661095127"><ele>311.0</ele><time>2026-04-11T10:04:40.96Z</time></trkpt><trkpt lat="44.00662979878844" lon="11.317482365950408"><ele>311.0</ele><time>2026-04-11T10:04:41.96Z</time></trkpt><trkpt lat="44.006722897244195" lon="11.317518758749015"><ele>311.0</ele><time>2026-04-11T10:04:42.96Z</time></trkpt><trkpt lat="44.00680370742793" lon="11.31756372857619"><ele>311.8</ele><time>2026-04-11T10:04:43.96Z</time></trkpt><trkpt lat="44.00688209090161" lon="11.317624529842018"><ele>312.6</ele><time>2026-04-11T10:04:44.96Z</time></trkpt><trkpt lat="44.00696334142674" lon="11.317699652973614"><ele>313.4</ele><time>2026-04-11T10:04:45.96Z</time></trkpt><trkpt lat="44.007046751914075" lon="11.317800046127529"><ele>314.2</ele><time>2026-04-11T10:04:46.96Z</time></trkpt><trkpt lat="44.00712825219671" lon="11.317914452106958"><ele>315.0</ele><time>2026-04-11T10:04:47.96Z</time></trkpt><trkpt lat="44.00720906126261" lon="11.31802166332425"><ele>315.0</ele><time>2026-04-11T10:04:48.96Z</time></trkpt><trkpt lat="44.007285666894596" lon="11.318137425280346"><ele>315.0</ele><time>2026-04-11T10:04:49.96Z</time></trkpt><trkpt lat="44.00736418929045" lon="11.31824323855554"><ele>315.0</ele><time>2026-04-11T10:04:50.96Z</time></trkpt><trkpt lat="44.00743485159432" lon="11.318359898684005"><ele>315.0</ele><time>2026-04-11T10:04:51.96Z</time></trkpt><trkpt lat="44.007507184925544" lon="11.31846781988632"><ele>315.0</ele><time>2026-04-11T10:04:52.96Z</time></trkpt><trkpt lat="44.007581018224066" lon="11.318576970033686"><ele>315.0</ele><time>2026-04-11T10:04:53.96Z</time></trkpt><trkpt lat="44.0076554176367" lon="11.318679878068204"><ele>315.0</ele><time>2026-04-11T10:04:54.96Z</time></trkpt><trkpt lat="44.00773236017293" lon="11.318781394171749"><ele>315.0</ele><time>2026-04-11T10:04:55.96Z</time></trkpt><trkpt lat="44.007812298417825" lon="11.318867655318959"><ele>315.0</ele><time>2026-04-11T10:04:56.96Z</time></trkpt><trkpt lat="44.00788014274674" lon="11.318963828800548"><ele>315.0</ele><time>2026-04-11T10:04:57.96Z</time></trkpt><trkpt lat="44.00796432241326" lon="11.319041256689939"><ele>315.0</ele><time>2026-04-11T10:04:58.96Z</time></trkpt><trkpt lat="44.0080550445181" lon="11.319123187587202"><ele>315.0</ele><time>2026-04-11T10:04:59.96Z</time></trkpt><trkpt lat="44.00815934262182" lon="11.3192060721158"><ele>315.0</ele><time>2026-04-11T10:05:00.96Z</time></trkpt><trkpt lat="44.008266617590024" lon="11.31928884544622"><ele>315.0</ele><time>2026-04-11T10:05:01.96Z</time></trkpt><trkpt lat="44.00837137467893" lon="11.319377649766984"><ele>315.0</ele><time>2026-04-11T10:05:02.96Z</time></trkpt><trkpt lat="44.00848438095299" lon="11.319462957861782"><ele>315.0</ele><time>2026-04-11T10:05:03.96Z</time></trkpt><trkpt lat="44.008591605380516" lon="11.31955206233669"><ele>315.0</ele><time>2026-04-11T10:05:04.96Z</time></trkpt><trkpt lat="44.00868469877157" lon="11.31963834916582"><ele>315.0</ele><time>2026-04-11T10:05:05.96Z</time></trkpt><trkpt lat="44.00876973409594" lon="11.319710540664483"><ele>315.0</ele><time>2026-04-11T10:05:06.96Z</time></trkpt><trkpt lat="44.00885319457899" lon="11.31977927606579"><ele>315.0</ele><time>2026-04-11T10:05:07.96Z</time></trkpt><trkpt lat="44.00894405959583" lon="11.319856372697894"><ele>315.0</ele><time>2026-04-11T10:05:08.96Z</time></trkpt><trkpt lat="44.009033215824296" lon="11.31993644636142"><ele>315.0</ele><time>2026-04-11T10:05:09.96Z</time></trkpt><trkpt lat="44.00913036912735" lon="11.320014432782171"><ele>315.0</ele><time>2026-04-11T10:05:10.96Z</time></trkpt><trkpt lat="44.00922922285385" lon="11.32008917417089"><ele>315.5</ele><time>2026-04-11T10:05:11.96Z</time></trkpt><trkpt lat="44.00933141719397" lon="11.320161647509135"><ele>316.0</ele><time>2026-04-11T10:05:12.96Z</time></trkpt><trkpt lat="44.00942718243679" lon="11.320244918225917"><ele>316.5</ele><time>2026-04-11T10:05:13.96Z</time></trkpt><trkpt lat="44.00953042671783" lon="11.320316255903839"><ele>317.0</ele><time>2026-04-11T10:05:14.96Z</time></trkpt><trkpt lat="44.00963821630567" lon="11.320390079686167"><ele>317.0</ele><time>2026-04-11T10:05:15.96Z</time></trkpt><trkpt lat="44.009743716039935" lon="11.32046011569916"><ele>317.0</ele><time>2026-04-11T10:05:16.96Z</time></trkpt><trkpt lat="44.00984898975143" lon="11.320529348478887"><ele>317.0</ele><time>2026-04-11T10:05:17.96Z</time></trkpt><trkpt lat="44.00995148961147" lon="11.320618003407152"><ele>317.0</ele><time>2026-04-11T10:05:18.96Z</time></trkpt><trkpt lat="44.010053618510746" lon="11.320690724757997"><ele>318.4</ele><time>2026-04-11T10:05:19.961Z</time></trkpt><trkpt lat="44.01015562378135" lon="11.320755074287092"><ele>319.79999999999995</ele><time>2026-04-11T10:05:20.961Z</time></trkpt><trkpt lat="44.01025219833357" lon="11.320820367065922"><ele>321.2</ele><time>2026-04-11T10:05:21.961Z</time></trkpt><trkpt lat="44.010348193325" lon="11.320887711580111"><ele>322.59999999999997</ele><time>2026-04-11T10:05:22.961Z</time></trkpt><trkpt lat="44.01043016451661" lon="11.320969826249351"><ele>324.0</ele><time>2026-04-11T10:05:23.961Z</time></trkpt><trkpt lat="44.01052463661784" lon="11.321023821714224"><ele>324.0</ele><time>2026-04-11T10:05:24.961Z</time></trkpt><trkpt lat="44.010624391267356" lon="11.32106494905809"><ele>324.0</ele><time>2026-04-11T10:05:25.961Z</time></trkpt><trkpt lat="44.01072038707318" lon="11.321098182084576"><ele>324.0</ele><time>2026-04-11T10:05:26.961Z</time></trkpt><trkpt lat="44.010824134787775" lon="11.321116619143174"><ele>324.0</ele><time>2026-04-11T10:05:27.962Z</time></trkpt><trkpt lat="44.010937938232246" lon="11.32112621729522"><ele>324.0</ele><time>2026-04-11T10:05:28.962Z</time></trkpt><trkpt lat="44.011053676313594" lon="11.321139655038815"><ele>324.0</ele><time>2026-04-11T10:05:29.962Z</time></trkpt><trkpt lat="44.011187064591894" lon="11.321140368148303"><ele>324.0</ele><time>2026-04-11T10:05:30.962Z</time></trkpt><trkpt lat="44.01132056626317" lon="11.321159791730928"><ele>324.0</ele><time>2026-04-11T10:05:31.962Z</time></trkpt><trkpt lat="44.011440823722936" lon="11.321167318057546"><ele>324.0</ele><time>2026-04-11T10:05:32.962Z</time></trkpt><trkpt lat="44.011552060125794" lon="11.321177141640966"><ele>325.25</ele><time>2026-04-11T10:05:33.962Z</time></trkpt><trkpt lat="44.01166626054605" lon="11.3211729941741"><ele>326.5</ele><time>2026-04-11T10:05:34.962Z</time></trkpt><trkpt lat="44.01178333076599" lon="11.32115532047232"><ele>327.75</ele><time>2026-04-11T10:05:35.962Z</time></trkpt><trkpt lat="44.011894432870974" lon="11.321140495048313"><ele>329.0</ele><time>2026-04-11T10:05:36.962Z</time></trkpt><trkpt lat="44.01200414905596" lon="11.321170112605476"><ele>329.0</ele><time>2026-04-11T10:05:37.962Z</time></trkpt><trkpt lat="44.012099584850404" lon="11.321199871205545"><ele>329.0</ele><time>2026-04-11T10:05:38.962Z</time></trkpt><trkpt lat="44.012184839754305" lon="11.321249746064701"><ele>329.0</ele><time>2026-04-11T10:05:39.962Z</time></trkpt><trkpt lat="44.01225914720567" lon="11.321321156777909"><ele>329.0</ele><time>2026-04-11T10:05:40.962Z</time></trkpt><trkpt lat="44.012340968248274" lon="11.321397400402262"><ele>329.0</ele><time>2026-04-11T10:05:41.962Z</time></trkpt><trkpt lat="44.012426413821814" lon="11.32148176905278"><ele>330.4</ele><time>2026-04-11T10:05:42.963Z</time></trkpt><trkpt lat="44.012515454283594" lon="11.321572782771533"><ele>331.79999999999995</ele><time>2026-04-11T10:05:43.963Z</time></trkpt><trkpt lat="44.012607513170344" lon="11.3216505239351"><ele>333.20000000000005</ele><time>2026-04-11T10:05:44.963Z</time></trkpt><trkpt lat="44.012698413365065" lon="11.321719759085093"><ele>334.6</ele><time>2026-04-11T10:05:45.963Z</time></trkpt><trkpt lat="44.012784365214436" lon="11.321785370369545"><ele>336.0</ele><time>2026-04-11T10:05:46.963Z</time></trkpt><trkpt lat="44.01283920107446" lon="11.32187632807319"><ele>336.0</ele><time>2026-04-11T10:05:47.963Z</time></trkpt><trkpt lat="44.012896343286734" lon="11.321944367294167"><ele>336.0</ele><time>2026-04-11T10:05:48.963Z</time></trkpt><trkpt lat="44.012949846279206" lon="11.322006648317986"><ele>336.0</ele><time>2026-04-11T10:05:49.963Z</time></trkpt><trkpt lat="44.01303591218136" lon="11.322103870362653"><ele>336.0</ele><time>2026-04-11T10:05:51.963Z</time></trkpt><trkpt lat="44.01308983673296" lon="11.322161869389042"><ele>336.0</ele><time>2026-04-11T10:05:53.963Z</time></trkpt><trkpt lat="44.01312372245913" lon="11.322239647384345"><ele>336.0</ele><time>2026-04-11T10:06:20.961Z</time></trkpt><trkpt lat="44.013065936240146" lon="11.32234209933799"><ele>336.1666666666667</ele><time>2026-04-11T10:06:22.961Z</time></trkpt><trkpt lat="44.013027874077814" lon="11.322447120432557"><ele>336.3333333333333</ele><time>2026-04-11T10:06:24.961Z</time></trkpt><trkpt lat="44.012985015761004" lon="11.322543793656301"><ele>336.5</ele><time>2026-04-11T10:06:26.961Z</time></trkpt><trkpt lat="44.012939124044195" lon="11.322630606190526"><ele>336.66666666666663</ele><time>2026-04-11T10:06:28.961Z</time></trkpt><trkpt lat="44.012887347885815" lon="11.322703169531676"><ele>336.8333333333333</ele><time>2026-04-11T10:06:30.961Z</time></trkpt><trkpt lat="44.012832290200166" lon="11.322781073906862"><ele>337.0</ele><time>2026-04-11T10:06:32.961Z</time></trkpt><trkpt lat="44.01276990791894" lon="11.322851576586373"><ele>337.0</ele><time>2026-04-11T10:06:34.961Z</time></trkpt><trkpt lat="44.012690974074005" lon="11.322902835390543"><ele>337.0</ele><time>2026-04-11T10:06:36.961Z</time></trkpt><trkpt lat="44.01261388231661" lon="11.322956753104616"><ele>337.0</ele><time>2026-04-11T10:06:38.961Z</time></trkpt><trkpt lat="44.012505596193826" lon="11.322961785090492"><ele>337.0</ele><time>2026-04-11T10:06:40.961Z</time></trkpt><trkpt lat="44.01239985561527" lon="11.322988080159178"><ele>337.0</ele><time>2026-04-11T10:06:42.961Z</time></trkpt><trkpt lat="44.01229398974763" lon="11.323017519936332"><ele>337.3333333333333</ele><time>2026-04-11T10:06:44.961Z</time></trkpt><trkpt lat="44.012236719956725" lon="11.323056768438086"><ele>337.66666666666663</ele><time>2026-04-11T10:06:45.961Z</time></trkpt><trkpt lat="44.01214442418475" lon="11.32315130269489"><ele>338.0</ele><time>2026-04-11T10:06:47.961Z</time></trkpt><trkpt lat="44.012116287221296" lon="11.323240247979031"><ele>338.3333333333333</ele><time>2026-04-11T10:06:48.961Z</time></trkpt><trkpt lat="44.01209748365715" lon="11.323343328501082"><ele>338.6666666666667</ele><time>2026-04-11T10:06:49.961Z</time></trkpt><trkpt lat="44.01208082066847" lon="11.323440404383124"><ele>339.0</ele><time>2026-04-11T10:06:50.961Z</time></trkpt><trkpt lat="44.012053288082406" lon="11.32355387624302"><ele>338.2</ele><time>2026-04-11T10:06:51.961Z</time></trkpt><trkpt lat="44.012023283367434" lon="11.323679499171554"><ele>337.4</ele><time>2026-04-11T10:06:52.961Z</time></trkpt><trkpt lat="44.0119947666517" lon="11.323803959033507"><ele>336.6</ele><time>2026-04-11T10:06:53.961Z</time></trkpt><trkpt lat="44.01196612235322" lon="11.323928975257004"><ele>335.8</ele><time>2026-04-11T10:06:54.961Z</time></trkpt><trkpt lat="44.01193580867023" lon="11.324051873350033"><ele>335.0</ele><time>2026-04-11T10:06:55.961Z</time></trkpt><trkpt lat="44.01190464674701" lon="11.32417545910537"><ele>333.6</ele><time>2026-04-11T10:06:56.961Z</time></trkpt><trkpt lat="44.011872186141865" lon="11.32430419496163"><ele>332.2</ele><time>2026-04-11T10:06:57.961Z</time></trkpt><trkpt lat="44.01183844237561" lon="11.324425704912128"><ele>330.79999999999995</ele><time>2026-04-11T10:06:58.961Z</time></trkpt><trkpt lat="44.011805062534926" lon="11.324544137788683"><ele>329.4</ele><time>2026-04-11T10:06:59.962Z</time></trkpt><trkpt lat="44.011766918047435" lon="11.324677748314963"><ele>328.0</ele><time>2026-04-11T10:07:00.962Z</time></trkpt><trkpt lat="44.01173574807113" lon="11.324800073154329"><ele>327.16666666666663</ele><time>2026-04-11T10:07:01.962Z</time></trkpt><trkpt lat="44.011728400486554" lon="11.32490827365487"><ele>326.3333333333333</ele><time>2026-04-11T10:07:02.962Z</time></trkpt><trkpt lat="44.01170076259139" lon="11.325008118816768"><ele>325.5</ele><time>2026-04-11T10:07:03.962Z</time></trkpt><trkpt lat="44.01166978544811" lon="11.325104317471945"><ele>324.6666666666667</ele><time>2026-04-11T10:07:04.962Z</time></trkpt><trkpt lat="44.011605693836245" lon="11.32523925072724"><ele>323.83333333333337</ele><time>2026-04-11T10:07:06.962Z</time></trkpt><trkpt lat="44.011555947353415" lon="11.32530227732001"><ele>323.0</ele><time>2026-04-11T10:07:07.962Z</time></trkpt><trkpt lat="44.0114848597846" lon="11.32535034005248"><ele>322.5</ele><time>2026-04-11T10:07:08.962Z</time></trkpt><trkpt lat="44.01138189983742" lon="11.325398658153368"><ele>322.0</ele><time>2026-04-11T10:07:09.962Z</time></trkpt><trkpt lat="44.01126711159751" lon="11.325429967076891"><ele>321.5</ele><time>2026-04-11T10:07:10.962Z</time></trkpt><trkpt lat="44.01114630819132" lon="11.325459380698094"><ele>321.0</ele><time>2026-04-11T10:07:11.962Z</time></trkpt><trkpt lat="44.011030575392795" lon="11.325486892071822"><ele>321.0</ele><time>2026-04-11T10:07:12.962Z</time></trkpt><trkpt lat="44.010926236465494" lon="11.325507638132871"><ele>321.0</ele><time>2026-04-11T10:07:13.962Z</time></trkpt><trkpt lat="44.01082371337175" lon="11.32552902726319"><ele>321.0</ele><time>2026-04-11T10:07:14.962Z</time></trkpt><trkpt lat="44.010726051255354" lon="11.325526370280391"><ele>321.0</ele><time>2026-04-11T10:07:15.962Z</time></trkpt><trkpt lat="44.01063844617623" lon="11.325544618396812"><ele>321.0</ele><time>2026-04-11T10:07:16.962Z</time></trkpt><trkpt lat="44.01055578883465" lon="11.325560999420201"><ele>321.20000000000005</ele><time>2026-04-11T10:07:17.962Z</time></trkpt><trkpt lat="44.010477957738466" lon="11.325577904910476"><ele>321.40000000000003</ele><time>2026-04-11T10:07:18.962Z</time></trkpt><trkpt lat="44.01040067124675" lon="11.325591591893355"><ele>321.6</ele><time>2026-04-11T10:07:19.962Z</time></trkpt><trkpt lat="44.0103351723019" lon="11.325608196256512"><ele>321.8</ele><time>2026-04-11T10:07:20.962Z</time></trkpt><trkpt lat="44.0102457048913" lon="11.32567523578602"><ele>322.0</ele><time>2026-04-11T10:07:22.962Z</time></trkpt><trkpt lat="44.01021953796817" lon="11.325857521808205"><ele>322.0</ele><time>2026-04-11T10:07:24.962Z</time></trkpt><trkpt lat="44.010236341825724" lon="11.325989935334688"><ele>322.0</ele><time>2026-04-11T10:07:25.962Z</time></trkpt><trkpt lat="44.01026988658035" lon="11.326155394259448"><ele>322.0</ele><time>2026-04-11T10:07:26.962Z</time></trkpt><trkpt lat="44.010288950493006" lon="11.326351582767947"><ele>322.0</ele><time>2026-04-11T10:07:27.962Z</time></trkpt><trkpt lat="44.01031967792818" lon="11.326527630608286"><ele>321.6</ele><time>2026-04-11T10:07:28.962Z</time></trkpt><trkpt lat="44.010349122825104" lon="11.326682839655737"><ele>321.20000000000005</ele><time>2026-04-11T10:07:29.962Z</time></trkpt><trkpt lat="44.01038013666443" lon="11.326828490788571"><ele>320.8</ele><time>2026-04-11T10:07:30.962Z</time></trkpt><trkpt lat="44.010412103557144" lon="11.326963575206538"><ele>320.4</ele><time>2026-04-11T10:07:31.962Z</time></trkpt><trkpt lat="44.01044417821987" lon="11.327094909924467"><ele>320.0</ele><time>2026-04-11T10:07:32.962Z</time></trkpt><trkpt lat="44.0104603829819" lon="11.327228950837952"><ele>319.6666666666667</ele><time>2026-04-11T10:07:33.962Z</time></trkpt><trkpt lat="44.01048459595241" lon="11.327340331677187"><ele>319.33333333333337</ele><time>2026-04-11T10:07:34.962Z</time></trkpt><trkpt lat="44.010500636469914" lon="11.32744947515374"><ele>319.0</ele><time>2026-04-11T10:07:35.962Z</time></trkpt><trkpt lat="44.01047420599817" lon="11.327625092123283"><ele>318.6666666666667</ele><time>2026-04-11T10:07:37.962Z</time></trkpt><trkpt lat="44.01042653178777" lon="11.327706164622604"><ele>318.3333333333333</ele><time>2026-04-11T10:07:38.962Z</time></trkpt><trkpt lat="44.010362410901145" lon="11.327749980770045"><ele>318.0</ele><time>2026-04-11T10:07:39.962Z</time></trkpt><trkpt lat="44.010265793664495" lon="11.327786139396359"><ele>318.0</ele><time>2026-04-11T10:07:41.962Z</time></trkpt><trkpt lat="44.010173253445025" lon="11.32774259705387"><ele>318.0</ele><time>2026-04-11T10:07:43.962Z</time></trkpt><trkpt lat="44.010104036315305" lon="11.32772529337424"><ele>318.0</ele><time>2026-04-11T10:07:44.962Z</time></trkpt><trkpt lat="44.01002456699409" lon="11.327730371423014"><ele>318.0</ele><time>2026-04-11T10:07:45.962Z</time></trkpt><trkpt lat="44.00992222752017" lon="11.327767683201039"><ele>318.0</ele><time>2026-04-11T10:07:46.962Z</time></trkpt><trkpt lat="44.00983258548761" lon="11.327823244672523"><ele>316.8</ele><time>2026-04-11T10:07:47.962Z</time></trkpt><trkpt lat="44.009747525645594" lon="11.327869271145095"><ele>315.6</ele><time>2026-04-11T10:07:48.962Z</time></trkpt><trkpt lat="44.00965664197274" lon="11.327917084486987"><ele>314.4</ele><time>2026-04-11T10:07:49.962Z</time></trkpt><trkpt lat="44.00957429523335" lon="11.327959365047022"><ele>313.2</ele><time>2026-04-11T10:07:50.962Z</time></trkpt><trkpt lat="44.009478599536976" lon="11.327999714704646"><ele>312.0</ele><time>2026-04-11T10:07:51.962Z</time></trkpt><trkpt lat="44.009357395194215" lon="11.32801923059516"><ele>312.0</ele><time>2026-04-11T10:07:52.962Z</time></trkpt><trkpt lat="44.00921599986154" lon="11.328042486873581"><ele>312.0</ele><time>2026-04-11T10:07:53.962Z</time></trkpt><trkpt lat="44.00908220070883" lon="11.328076117704526"><ele>312.0</ele><time>2026-04-11T10:07:54.962Z</time></trkpt><trkpt lat="44.00897011120115" lon="11.328112431448684"><ele>312.0</ele><time>2026-04-11T10:07:55.962Z</time></trkpt><trkpt lat="44.008867089065035" lon="11.328146914933553"><ele>311.8</ele><time>2026-04-11T10:07:56.962Z</time></trkpt><trkpt lat="44.0087648271866" lon="11.328202998866153"><ele>311.6</ele><time>2026-04-11T10:07:57.962Z</time></trkpt><trkpt lat="44.008648555547765" lon="11.328222197161988"><ele>311.40000000000003</ele><time>2026-04-11T10:07:58.962Z</time></trkpt><trkpt lat="44.00854929960666" lon="11.328219061386685"><ele>311.2</ele><time>2026-04-11T10:07:59.962Z</time></trkpt><trkpt lat="44.008453608393125" lon="11.328239949440356"><ele>311.0</ele><time>2026-04-11T10:08:00.962Z</time></trkpt><trkpt lat="44.008351773770784" lon="11.32823835612384"><ele>311.40000000000003</ele><time>2026-04-11T10:08:01.962Z</time></trkpt><trkpt lat="44.008256723263415" lon="11.328236273085949"><ele>311.8</ele><time>2026-04-11T10:08:02.962Z</time></trkpt><trkpt lat="44.008190141372516" lon="11.32824994174597"><ele>312.20000000000005</ele><time>2026-04-11T10:08:03.962Z</time></trkpt><trkpt lat="44.00805632800593" lon="11.328275598308377"><ele>312.6</ele><time>2026-04-11T10:08:05.962Z</time></trkpt><trkpt lat="44.00799033089975" lon="11.328307029880955"><ele>313.0</ele><time>2026-04-11T10:08:06.962Z</time></trkpt><trkpt lat="44.007915362133055" lon="11.32836564477546"><ele>313.0</ele><time>2026-04-11T10:08:07.962Z</time></trkpt><trkpt lat="44.007819398575016" lon="11.328464707968708"><ele>313.0</ele><time>2026-04-11T10:08:08.962Z</time></trkpt><trkpt lat="44.00772246675262" lon="11.328544639972154"><ele>313.0</ele><time>2026-04-11T10:08:09.962Z</time></trkpt><trkpt lat="44.00761603639726" lon="11.328627249358528"><ele>313.0</ele><time>2026-04-11T10:08:10.962Z</time></trkpt><trkpt lat="44.00751672471403" lon="11.328682400928653"><ele>311.4</ele><time>2026-04-11T10:08:11.962Z</time></trkpt><trkpt lat="44.00742463427058" lon="11.328728530715747"><ele>309.8</ele><time>2026-04-11T10:08:12.962Z</time></trkpt><trkpt lat="44.00733247105896" lon="11.328745299542607"><ele>308.2</ele><time>2026-04-11T10:08:13.962Z</time></trkpt><trkpt lat="44.007229619848765" lon="11.32875369613862"><ele>306.6</ele><time>2026-04-11T10:08:14.962Z</time></trkpt><trkpt lat="44.007122518569815" lon="11.32876550743533"><ele>305.0</ele><time>2026-04-11T10:08:15.962Z</time></trkpt><trkpt lat="44.00699616901827" lon="11.32878600975516"><ele>305.0</ele><time>2026-04-11T10:08:16.962Z</time></trkpt><trkpt lat="44.006878267923845" lon="11.328792925859743"><ele>305.0</ele><time>2026-04-11T10:08:17.962Z</time></trkpt><trkpt lat="44.00674365726658" lon="11.328785049367763"><ele>305.0</ele><time>2026-04-11T10:08:18.962Z</time></trkpt><trkpt lat="44.00662470504877" lon="11.328777620432085"><ele>305.0</ele><time>2026-04-11T10:08:19.962Z</time></trkpt><trkpt lat="44.00650284510435" lon="11.32877224276085"><ele>303.0</ele><time>2026-04-11T10:08:20.962Z</time></trkpt><trkpt lat="44.00637987666321" lon="11.32879320090858"><ele>301.0</ele><time>2026-04-11T10:08:21.962Z</time></trkpt><trkpt lat="44.006258343779876" lon="11.328820460756047"><ele>299.0</ele><time>2026-04-11T10:08:22.96Z</time></trkpt><trkpt lat="44.00612162540503" lon="11.32884711604985"><ele>297.0</ele><time>2026-04-11T10:08:23.96Z</time></trkpt><trkpt lat="44.00598179158679" lon="11.328871526675961"><ele>297.0</ele><time>2026-04-11T10:08:24.96Z</time></trkpt><trkpt lat="44.005856553225186" lon="11.328892450306565"><ele>297.0</ele><time>2026-04-11T10:08:25.96Z</time></trkpt><trkpt lat="44.00574731909515" lon="11.328928043975381"><ele>297.0</ele><time>2026-04-11T10:08:26.96Z</time></trkpt><trkpt lat="44.00563117121523" lon="11.328946360229226"><ele>297.0</ele><time>2026-04-11T10:08:27.96Z</time></trkpt><trkpt lat="44.00550445728291" lon="11.32896191808715"><ele>297.0</ele><time>2026-04-11T10:08:28.96Z</time></trkpt><trkpt lat="44.005372551760374" lon="11.32898097731179"><ele>297.0</ele><time>2026-04-11T10:08:29.96Z</time></trkpt><trkpt lat="44.005235051988386" lon="11.328999659811023"><ele>297.0</ele><time>2026-04-11T10:08:30.96Z</time></trkpt><trkpt lat="44.00508797307394" lon="11.329013450092827"><ele>297.0</ele><time>2026-04-11T10:08:31.959Z</time></trkpt><trkpt lat="44.004937251020564" lon="11.329029652592212"><ele>297.0</ele><time>2026-04-11T10:08:32.959Z</time></trkpt><trkpt lat="44.00478280538055" lon="11.32903443791889"><ele>297.0</ele><time>2026-04-11T10:08:33.959Z</time></trkpt><trkpt lat="44.004641113908185" lon="11.329055527549489"><ele>297.0</ele><time>2026-04-11T10:08:34.959Z</time></trkpt><trkpt lat="44.004506795274" lon="11.329045920617073"><ele>297.0</ele><time>2026-04-11T10:08:35.96Z</time></trkpt><trkpt lat="44.00437253517744" lon="11.329056003875511"><ele>297.0</ele><time>2026-04-11T10:08:36.96Z</time></trkpt><trkpt lat="44.00424015157114" lon="11.329079750788242"><ele>297.0</ele><time>2026-04-11T10:08:37.96Z</time></trkpt><trkpt lat="44.00410085758172" lon="11.329096692617608"><ele>297.0</ele><time>2026-04-11T10:08:38.96Z</time></trkpt><trkpt lat="44.003945713672024" lon="11.329108917832666"><ele>297.0</ele><time>2026-04-11T10:08:39.96Z</time></trkpt><trkpt lat="44.00379607246621" lon="11.329113372859519"><ele>296.25</ele><time>2026-04-11T10:08:40.96Z</time></trkpt><trkpt lat="44.0036615552115" lon="11.329115246760225"><ele>295.5</ele><time>2026-04-11T10:08:41.96Z</time></trkpt><trkpt lat="44.003541369536514" lon="11.329121246393383"><ele>294.75</ele><time>2026-04-11T10:08:42.96Z</time></trkpt><trkpt lat="44.003423986994385" lon="11.329137084443785"><ele>294.0</ele><time>2026-04-11T10:08:43.96Z</time></trkpt><trkpt lat="44.0033159958451" lon="11.329152091951965"><ele>293.59999999999997</ele><time>2026-04-11T10:08:44.96Z</time></trkpt><trkpt lat="44.003217808665156" lon="11.329166207208468"><ele>293.2</ele><time>2026-04-11T10:08:45.96Z</time></trkpt><trkpt lat="44.00312485908673" lon="11.32919437478822"><ele>292.79999999999995</ele><time>2026-04-11T10:08:46.96Z</time></trkpt><trkpt lat="44.00302943678639" lon="11.329205480349765"><ele>292.4</ele><time>2026-04-11T10:08:47.96Z</time></trkpt><trkpt lat="44.0029382428331" lon="11.329250408769077"><ele>292.0</ele><time>2026-04-11T10:08:48.96Z</time></trkpt><trkpt lat="44.00284388198961" lon="11.329284802595634"><ele>292.0</ele><time>2026-04-11T10:08:49.96Z</time></trkpt><trkpt lat="44.00273624710242" lon="11.329306698334936"><ele>292.0</ele><time>2026-04-11T10:08:50.96Z</time></trkpt><trkpt lat="44.0026234049437" lon="11.329319808936905"><ele>292.0</ele><time>2026-04-11T10:08:51.96Z</time></trkpt><trkpt lat="44.002507223816316" lon="11.329335644779361"><ele>292.0</ele><time>2026-04-11T10:08:52.96Z</time></trkpt><trkpt lat="44.00238990043765" lon="11.329351669080507"><ele>290.5</ele><time>2026-04-11T10:08:53.96Z</time></trkpt><trkpt lat="44.00227654378997" lon="11.329366034937964"><ele>289.0</ele><time>2026-04-11T10:08:54.96Z</time></trkpt><trkpt lat="44.00215651130802" lon="11.329383179294407"><ele>287.5</ele><time>2026-04-11T10:08:55.96Z</time></trkpt><trkpt lat="44.00202651362832" lon="11.329387356700801"><ele>286.0</ele><time>2026-04-11T10:08:56.96Z</time></trkpt><trkpt lat="44.00189494907044" lon="11.329402986343219"><ele>286.0</ele><time>2026-04-11T10:08:57.96Z</time></trkpt><trkpt lat="44.00176890106559" lon="11.329405113606608"><ele>286.0</ele><time>2026-04-11T10:08:58.96Z</time></trkpt><trkpt lat="44.001650671834035" lon="11.329423773430799"><ele>286.0</ele><time>2026-04-11T10:08:59.96Z</time></trkpt><trkpt lat="44.001525856549875" lon="11.329436614603779"><ele>286.0</ele><time>2026-04-11T10:09:00.96Z</time></trkpt><trkpt lat="44.00140229081848" lon="11.329453742405327"><ele>286.0</ele><time>2026-04-11T10:09:01.96Z</time></trkpt><trkpt lat="44.00128557781466" lon="11.329460941913396"><ele>286.0</ele><time>2026-04-11T10:09:02.96Z</time></trkpt><trkpt lat="44.00117408797898" lon="11.32946195577814"><ele>286.0</ele><time>2026-04-11T10:09:03.96Z</time></trkpt><trkpt lat="44.00106633014877" lon="11.329447471901505"><ele>286.0</ele><time>2026-04-11T10:09:04.96Z</time></trkpt><trkpt lat="44.00099059681069" lon="11.329368530925963"><ele>286.0</ele><time>2026-04-11T10:09:05.96Z</time></trkpt><trkpt lat="44.00089939548345" lon="11.329297705826654"><ele>286.0</ele><time>2026-04-11T10:09:06.96Z</time></trkpt><trkpt lat="44.0008088125083" lon="11.329249704467543"><ele>286.0</ele><time>2026-04-11T10:09:07.96Z</time></trkpt><trkpt lat="44.00070670260361" lon="11.329210128458598"><ele>286.0</ele><time>2026-04-11T10:09:08.96Z</time></trkpt><trkpt lat="44.000593123801586" lon="11.329181372699967"><ele>286.0</ele><time>2026-04-11T10:09:09.96Z</time></trkpt><trkpt lat="44.00047052014095" lon="11.329160281970097"><ele>286.0</ele><time>2026-04-11T10:09:10.96Z</time></trkpt><trkpt lat="44.00036549124778" lon="11.32913697318227"><ele>286.0</ele><time>2026-04-11T10:09:11.96Z</time></trkpt><trkpt lat="44.000233969529354" lon="11.329101615196617"><ele>286.0</ele><time>2026-04-11T10:09:12.96Z</time></trkpt><trkpt lat="44.0001037642515" lon="11.329065487693002"><ele>286.0</ele><time>2026-04-11T10:09:13.96Z</time></trkpt><trkpt lat="43.99997212766432" lon="11.32902457106191"><ele>286.0</ele><time>2026-04-11T10:09:14.96Z</time></trkpt><trkpt lat="43.99983588516124" lon="11.32897664310091"><ele>286.0</ele><time>2026-04-11T10:09:15.96Z</time></trkpt><trkpt lat="43.999697031688115" lon="11.32893990380485"><ele>286.0</ele><time>2026-04-11T10:09:16.96Z</time></trkpt><trkpt lat="43.99955954836838" lon="11.328902805012493"><ele>286.0</ele><time>2026-04-11T10:09:17.96Z</time></trkpt><trkpt lat="43.9994272453718" lon="11.328871614670991"><ele>286.0</ele><time>2026-04-11T10:09:18.96Z</time></trkpt><trkpt lat="43.99930606649978" lon="11.328844429455074"><ele>284.5</ele><time>2026-04-11T10:09:19.96Z</time></trkpt><trkpt lat="43.999192293997964" lon="11.328807786518892"><ele>283.0</ele><time>2026-04-11T10:09:20.96Z</time></trkpt><trkpt lat="43.999073649378346" lon="11.328768337823925"><ele>281.5</ele><time>2026-04-11T10:09:21.96Z</time></trkpt><trkpt lat="43.99894823395982" lon="11.328730823591156"><ele>280.0</ele><time>2026-04-11T10:09:22.96Z</time></trkpt><trkpt lat="43.998824251033454" lon="11.328701926596494"><ele>280.0</ele><time>2026-04-11T10:09:23.96Z</time></trkpt><trkpt lat="43.998691348116154" lon="11.328669103152382"><ele>280.0</ele><time>2026-04-11T10:09:24.96Z</time></trkpt><trkpt lat="43.99856735801881" lon="11.328647576426599"><ele>280.0</ele><time>2026-04-11T10:09:25.96Z</time></trkpt><trkpt lat="43.99844312688254" lon="11.328626995000974"><ele>280.0</ele><time>2026-04-11T10:09:26.96Z</time></trkpt><trkpt lat="43.99831734215569" lon="11.328595842394336"><ele>279.25</ele><time>2026-04-11T10:09:27.96Z</time></trkpt><trkpt lat="43.99819874161806" lon="11.328561645085689"><ele>278.5</ele><time>2026-04-11T10:09:28.96Z</time></trkpt><trkpt lat="43.998086614069784" lon="11.328522643201302"><ele>277.75</ele><time>2026-04-11T10:09:29.96Z</time></trkpt><trkpt lat="43.99797478883158" lon="11.32848382287574"><ele>277.0</ele><time>2026-04-11T10:09:30.96Z</time></trkpt><trkpt lat="43.9978613459817" lon="11.328454978328594"><ele>277.0</ele><time>2026-04-11T10:09:31.96Z</time></trkpt><trkpt lat="43.99775122109351" lon="11.328429305774044"><ele>277.0</ele><time>2026-04-11T10:09:32.96Z</time></trkpt><trkpt lat="43.99764279013673" lon="11.328405048493211"><ele>277.0</ele><time>2026-04-11T10:09:33.96Z</time></trkpt><trkpt lat="43.99753868052609" lon="11.32838847080354"><ele>277.0</ele><time>2026-04-11T10:09:34.96Z</time></trkpt><trkpt lat="43.99743375628253" lon="11.328376664524516"><ele>277.0</ele><time>2026-04-11T10:09:35.96Z</time></trkpt><trkpt lat="43.9973206322296" lon="11.32836885379122"><ele>277.2</ele><time>2026-04-11T10:09:36.96Z</time></trkpt><trkpt lat="43.99721573693731" lon="11.328356497534523"><ele>277.4</ele><time>2026-04-11T10:09:37.96Z</time></trkpt><trkpt lat="43.997117491674146" lon="11.328343823374192"><ele>277.6</ele><time>2026-04-11T10:09:38.96Z</time></trkpt><trkpt lat="43.99702443725418" lon="11.328323392785608"><ele>277.8</ele><time>2026-04-11T10:09:39.96Z</time></trkpt><trkpt lat="43.996929275578374" lon="11.328324268312848"><ele>278.0</ele><time>2026-04-11T10:09:40.96Z</time></trkpt><trkpt lat="43.99683140531385" lon="11.328316149931817"><ele>278.0</ele><time>2026-04-11T10:09:41.96Z</time></trkpt><trkpt lat="43.9967413900187" lon="11.32831208839541"><ele>278.0</ele><time>2026-04-11T10:09:42.96Z</time></trkpt><trkpt lat="43.99666407370206" lon="11.328317879967393"><ele>278.0</ele><time>2026-04-11T10:09:43.96Z</time></trkpt><trkpt lat="43.99658336147378" lon="11.328321272300803"><ele>278.0</ele><time>2026-04-11T10:09:44.96Z</time></trkpt><trkpt lat="43.9965168518309" lon="11.328331465989665"><ele>278.0</ele><time>2026-04-11T10:09:45.96Z</time></trkpt><trkpt lat="43.996400404517786" lon="11.328375447531164"><ele>278.0</ele><time>2026-04-11T10:09:47.96Z</time></trkpt><trkpt lat="43.9962992439344" lon="11.328418830711364"><ele>277.6</ele><time>2026-04-11T10:09:49.96Z</time></trkpt><trkpt lat="43.99617032972061" lon="11.328471797912195"><ele>277.20000000000005</ele><time>2026-04-11T10:09:51.96Z</time></trkpt><trkpt lat="43.99611116879918" lon="11.32851589986586"><ele>276.8</ele><time>2026-04-11T10:09:52.96Z</time></trkpt><trkpt lat="43.99604637394583" lon="11.328597780076983"><ele>276.40000000000003</ele><time>2026-04-11T10:09:53.96Z</time></trkpt><trkpt lat="43.99600981971027" lon="11.328711878435469"><ele>276.0</ele><time>2026-04-11T10:09:54.96Z</time></trkpt><trkpt lat="43.99599366025598" lon="11.328813815528797"><ele>276.6666666666667</ele><time>2026-04-11T10:09:55.96Z</time></trkpt><trkpt lat="43.99597202834173" lon="11.328919466735854"><ele>277.3333333333333</ele><time>2026-04-11T10:09:56.96Z</time></trkpt><trkpt lat="43.99594888984451" lon="11.329020737082306"><ele>278.0</ele><time>2026-04-11T10:09:57.96Z</time></trkpt><trkpt lat="43.99592077334017" lon="11.329133946093846"><ele>278.66666666666663</ele><time>2026-04-11T10:09:58.96Z</time></trkpt><trkpt lat="43.99589107619019" lon="11.329245601326319"><ele>279.3333333333333</ele><time>2026-04-11T10:09:59.96Z</time></trkpt><trkpt lat="43.995865402174005" lon="11.329348703097676"><ele>280.0</ele><time>2026-04-11T10:10:00.96Z</time></trkpt><trkpt lat="43.9958397735106" lon="11.32945990409694"><ele>279.0</ele><time>2026-04-11T10:10:01.96Z</time></trkpt><trkpt lat="43.99581831673846" lon="11.32957662734849"><ele>278.0</ele><time>2026-04-11T10:10:02.96Z</time></trkpt><trkpt lat="43.99578848363297" lon="11.329681505327695"><ele>277.0</ele><time>2026-04-11T10:10:04.96Z</time></trkpt><trkpt lat="43.99573948227413" lon="11.329770454335248"><ele>276.0</ele><time>2026-04-11T10:10:09.96Z</time></trkpt><trkpt lat="43.99581187197733" lon="11.329932433108615"><ele>275.0</ele><time>2026-04-11T10:10:10.96Z</time></trkpt><trkpt lat="43.99583216192449" lon="11.330049490190996"><ele>275.5</ele><time>2026-04-11T10:10:11.96Z</time></trkpt><trkpt lat="43.99586066418059" lon="11.330147374946236"><ele>276.0</ele><time>2026-04-11T10:10:12.96Z</time></trkpt><trkpt lat="43.995886502273116" lon="11.330236109655425"><ele>276.5</ele><time>2026-04-11T10:10:13.96Z</time></trkpt><trkpt lat="43.99591741110405" lon="11.33034021979818"><ele>277.0</ele><time>2026-04-11T10:10:14.96Z</time></trkpt><trkpt lat="43.995946960631976" lon="11.33043817062566"><ele>277.5</ele><time>2026-04-11T10:10:15.96Z</time></trkpt><trkpt lat="43.99598631924684" lon="11.3305360933164"><ele>278.0</ele><time>2026-04-11T10:10:16.96Z</time></trkpt><trkpt lat="43.99603022353713" lon="11.330639609771014"><ele>278.0</ele><time>2026-04-11T10:10:17.96Z</time></trkpt><trkpt lat="43.996080869897476" lon="11.33072737740479"><ele>278.0</ele><time>2026-04-11T10:10:18.96Z</time></trkpt><trkpt lat="43.99615949095369" lon="11.330790533263109"><ele>278.0</ele><time>2026-04-11T10:10:19.96Z</time></trkpt><trkpt lat="43.99625334580564" lon="11.330798698840786"><ele>278.0</ele><time>2026-04-11T10:10:20.96Z</time></trkpt><trkpt lat="43.996342215659304" lon="11.33083004922814"><ele>278.0</ele><time>2026-04-11T10:10:21.96Z</time></trkpt><trkpt lat="43.996438311323175" lon="11.330857402579236"><ele>278.0</ele><time>2026-04-11T10:10:22.96Z</time></trkpt><trkpt lat="43.996528575317136" lon="11.330891011596615"><ele>278.0</ele><time>2026-04-11T10:10:23.96Z</time></trkpt><trkpt lat="43.99661360518047" lon="11.330944554682846"><ele>278.0</ele><time>2026-04-11T10:10:24.96Z</time></trkpt><trkpt lat="43.99669805805013" lon="11.330979937204622"><ele>278.0</ele><time>2026-04-11T10:10:25.96Z</time></trkpt><trkpt lat="43.99677039287859" lon="11.331021534742442"><ele>278.0</ele><time>2026-04-11T10:10:26.96Z</time></trkpt><trkpt lat="43.99684781447402" lon="11.33105248482843"><ele>278.0</ele><time>2026-04-11T10:10:27.96Z</time></trkpt><trkpt lat="43.99688404371375" lon="11.33116644119527"><ele>278.6666666666667</ele><time>2026-04-11T10:10:28.959Z</time></trkpt><trkpt lat="43.996945544288565" lon="11.331252539981145"><ele>279.33333333333337</ele><time>2026-04-11T10:10:29.959Z</time></trkpt><trkpt lat="43.99700734852222" lon="11.331339062717637"><ele>280.0</ele><time>2026-04-11T10:10:30.959Z</time></trkpt><trkpt lat="43.997066092619804" lon="11.331421107108099"><ele>280.6666666666667</ele><time>2026-04-11T10:10:31.959Z</time></trkpt><trkpt lat="43.99712285453734" lon="11.331500011587705"><ele>281.3333333333333</ele><time>2026-04-11T10:10:32.959Z</time></trkpt><trkpt lat="43.997194542482525" lon="11.33156216667469"><ele>282.0</ele><time>2026-04-11T10:10:33.959Z</time></trkpt><trkpt lat="43.997252762256515" lon="11.33165248539882"><ele>282.0</ele><time>2026-04-11T10:10:34.959Z</time></trkpt><trkpt lat="43.99733858829287" lon="11.331688846774936"><ele>282.0</ele><time>2026-04-11T10:10:35.958Z</time></trkpt><trkpt lat="43.99742288341741" lon="11.331736698697023"><ele>282.0</ele><time>2026-04-11T10:10:36.958Z</time></trkpt><trkpt lat="43.99749666597545" lon="11.331819062109574"><ele>282.0</ele><time>2026-04-11T10:10:37.959Z</time></trkpt><trkpt lat="43.997573331009185" lon="11.331905127923791"><ele>282.0</ele><time>2026-04-11T10:10:38.959Z</time></trkpt><trkpt lat="43.997645735357224" lon="11.33199924302451"><ele>281.8</ele><time>2026-04-11T10:10:39.959Z</time></trkpt><trkpt lat="43.9977126500434" lon="11.33209811581821"><ele>281.6</ele><time>2026-04-11T10:10:40.959Z</time></trkpt><trkpt lat="43.99777478469943" lon="11.33221215034001"><ele>281.40000000000003</ele><time>2026-04-11T10:10:41.958Z</time></trkpt><trkpt lat="43.99783272166726" lon="11.332336632484358"><ele>281.2</ele><time>2026-04-11T10:10:42.958Z</time></trkpt><trkpt lat="43.99789108493156" lon="11.332446557375457"><ele>281.0</ele><time>2026-04-11T10:10:43.958Z</time></trkpt><trkpt lat="43.99796582400649" lon="11.33251908751399"><ele>281.0</ele><time>2026-04-11T10:10:44.958Z</time></trkpt><trkpt lat="43.998031817269904" lon="11.332606776384052"><ele>281.0</ele><time>2026-04-11T10:10:45.958Z</time></trkpt><trkpt lat="43.99810846929365" lon="11.332674735040984"><ele>281.0</ele><time>2026-04-11T10:10:46.958Z</time></trkpt><trkpt lat="43.998192725549046" lon="11.332725559163384"><ele>281.0</ele><time>2026-04-11T10:10:47.958Z</time></trkpt><trkpt lat="43.998277904935804" lon="11.332791930189904"><ele>281.0</ele><time>2026-04-11T10:10:48.958Z</time></trkpt><trkpt lat="43.99837380090003" lon="11.332816133837218"><ele>281.8</ele><time>2026-04-11T10:10:49.958Z</time></trkpt><trkpt lat="43.99847455469362" lon="11.332815131527854"><ele>282.6</ele><time>2026-04-11T10:10:50.958Z</time></trkpt><trkpt lat="43.99857396632276" lon="11.33278925481"><ele>283.4</ele><time>2026-04-11T10:10:51.958Z</time></trkpt><trkpt lat="43.998675848072075" lon="11.332800752091496"><ele>284.2</ele><time>2026-04-11T10:10:52.958Z</time></trkpt><trkpt lat="43.99876929176677" lon="11.332785326473564"><ele>285.0</ele><time>2026-04-11T10:10:53.958Z</time></trkpt><trkpt lat="43.99886575627212" lon="11.332748871387667"><ele>285.0</ele><time>2026-04-11T10:10:54.958Z</time></trkpt><trkpt lat="43.99897658117531" lon="11.332751669210191"><ele>285.0</ele><time>2026-04-11T10:10:55.958Z</time></trkpt><trkpt lat="43.99908266167572" lon="11.332757800231823"><ele>285.0</ele><time>2026-04-11T10:10:56.958Z</time></trkpt><trkpt lat="43.99919632131285" lon="11.332785828551184"><ele>285.0</ele><time>2026-04-11T10:10:57.958Z</time></trkpt><trkpt lat="43.99930450929957" lon="11.332830051984077"><ele>285.0</ele><time>2026-04-11T10:10:58.958Z</time></trkpt><trkpt lat="43.99939922729441" lon="11.332882484759505"><ele>284.0</ele><time>2026-04-11T10:10:59.958Z</time></trkpt><trkpt lat="43.9994920198905" lon="11.332947173927113"><ele>283.0</ele><time>2026-04-11T10:11:00.958Z</time></trkpt><trkpt lat="43.9995699874038" lon="11.333046636454526"><ele>282.0</ele><time>2026-04-11T10:11:01.958Z</time></trkpt><trkpt lat="43.999663130955106" lon="11.333138778424411"><ele>281.0</ele><time>2026-04-11T10:11:02.958Z</time></trkpt><trkpt lat="43.9997520731482" lon="11.333221492929585"><ele>280.0</ele><time>2026-04-11T10:11:03.958Z</time></trkpt><trkpt lat="43.99983175535836" lon="11.333294615966317"><ele>280.0</ele><time>2026-04-11T10:11:04.958Z</time></trkpt><trkpt lat="43.999911499930356" lon="11.333365719477971"><ele>280.0</ele><time>2026-04-11T10:11:05.958Z</time></trkpt><trkpt lat="44.00000755261462" lon="11.333426771315375"><ele>280.0</ele><time>2026-04-11T10:11:06.959Z</time></trkpt><trkpt lat="44.000077786982594" lon="11.33352765486335"><ele>280.0</ele><time>2026-04-11T10:11:07.959Z</time></trkpt><trkpt lat="44.00011637047817" lon="11.333650421094724"><ele>280.0</ele><time>2026-04-11T10:11:08.959Z</time></trkpt><trkpt lat="44.000136223312495" lon="11.333790487326556"><ele>279.2</ele><time>2026-04-11T10:11:09.959Z</time></trkpt><trkpt lat="44.00011685978934" lon="11.333915964147199"><ele>278.4</ele><time>2026-04-11T10:11:10.959Z</time></trkpt><trkpt lat="44.0000557542861" lon="11.334027734789544"><ele>277.6</ele><time>2026-04-11T10:11:11.959Z</time></trkpt><trkpt lat="43.999966498815546" lon="11.334109518121254"><ele>276.8</ele><time>2026-04-11T10:11:12.959Z</time></trkpt><trkpt lat="43.99984587404116" lon="11.334164424060484"><ele>276.0</ele><time>2026-04-11T10:11:13.959Z</time></trkpt><trkpt lat="43.999701944053626" lon="11.334222509094902"><ele>276.0</ele><time>2026-04-11T10:11:14.959Z</time></trkpt><trkpt lat="43.999557754252706" lon="11.33427796197061"><ele>276.0</ele><time>2026-04-11T10:11:15.959Z</time></trkpt><trkpt lat="43.999423484317816" lon="11.334348577266466"><ele>276.0</ele><time>2026-04-11T10:11:16.959Z</time></trkpt><trkpt lat="43.999292759474244" lon="11.334403231461637"><ele>276.0</ele><time>2026-04-11T10:11:17.959Z</time></trkpt><trkpt lat="43.999159004167936" lon="11.334447888994484"><ele>274.75</ele><time>2026-04-11T10:11:18.959Z</time></trkpt><trkpt lat="43.99901735815068" lon="11.334478546280831"><ele>273.5</ele><time>2026-04-11T10:11:19.959Z</time></trkpt><trkpt lat="43.99888303174249" lon="11.334506626219799"><ele>272.25</ele><time>2026-04-11T10:11:20.959Z</time></trkpt><trkpt lat="43.99875417366696" lon="11.33453274398034"><ele>271.0</ele><time>2026-04-11T10:11:21.959Z</time></trkpt><trkpt lat="43.99863456563023" lon="11.33455526056933"><ele>271.0</ele><time>2026-04-11T10:11:22.959Z</time></trkpt><trkpt lat="43.9985135857903" lon="11.33455085028736"><ele>271.0</ele><time>2026-04-11T10:11:23.959Z</time></trkpt><trkpt lat="43.99841018656709" lon="11.334571545251311"><ele>271.0</ele><time>2026-04-11T10:11:24.959Z</time></trkpt><trkpt lat="43.99830517304957" lon="11.334588568513526"><ele>271.0</ele><time>2026-04-11T10:11:25.959Z</time></trkpt><trkpt lat="43.998208588528975" lon="11.334610952124242"><ele>271.0</ele><time>2026-04-11T10:11:26.959Z</time></trkpt><trkpt lat="43.99812773226704" lon="11.334646438039389"><ele>272.0</ele><time>2026-04-11T10:11:27.959Z</time></trkpt><trkpt lat="43.99808304342772" lon="11.334752655965762"><ele>273.0</ele><time>2026-04-11T10:11:28.959Z</time></trkpt><trkpt lat="43.99804339617786" lon="11.33483963831212"><ele>274.0</ele><time>2026-04-11T10:11:29.959Z</time></trkpt><trkpt lat="43.99805812361988" lon="11.334947684298225"><ele>275.0</ele><time>2026-04-11T10:11:30.959Z</time></trkpt><trkpt lat="43.998103595896" lon="11.33504347119163"><ele>276.0</ele><time>2026-04-11T10:11:31.959Z</time></trkpt><trkpt lat="43.99815447680031" lon="11.335136442195271"><ele>277.0</ele><time>2026-04-11T10:11:32.959Z</time></trkpt><trkpt lat="43.998252666118894" lon="11.335174380039517"><ele>277.8</ele><time>2026-04-11T10:11:33.959Z</time></trkpt><trkpt lat="43.998351269562065" lon="11.33522712095391"><ele>278.6</ele><time>2026-04-11T10:11:34.959Z</time></trkpt><trkpt lat="43.99845062599551" lon="11.335283490418908"><ele>279.40000000000003</ele><time>2026-04-11T10:11:35.959Z</time></trkpt><trkpt lat="43.998537954050555" lon="11.335359794290474"><ele>280.2</ele><time>2026-04-11T10:11:36.959Z</time></trkpt><trkpt lat="43.99862035738023" lon="11.33541307934212"><ele>281.0</ele><time>2026-04-11T10:11:37.959Z</time></trkpt><trkpt lat="43.99868887891163" lon="11.33545720527836"><ele>281.0</ele><time>2026-04-11T10:11:38.959Z</time></trkpt><trkpt lat="43.998756148866555" lon="11.335497921651012"><ele>281.0</ele><time>2026-04-11T10:11:39.959Z</time></trkpt><trkpt lat="43.99882581657269" lon="11.335535998919234"><ele>281.0</ele><time>2026-04-11T10:11:40.959Z</time></trkpt><trkpt lat="43.99889251645954" lon="11.335573691707504"><ele>281.0</ele><time>2026-04-11T10:11:41.959Z</time></trkpt><trkpt lat="43.99896170861735" lon="11.335608230312307"><ele>281.0</ele><time>2026-04-11T10:11:42.959Z</time></trkpt><trkpt lat="43.99902589059473" lon="11.335682359245098"><ele>281.0</ele><time>2026-04-11T10:11:43.959Z</time></trkpt><trkpt lat="43.99909335635575" lon="11.335746978113013"><ele>279.8571428571429</ele><time>2026-04-11T10:11:44.959Z</time></trkpt><trkpt lat="43.999161328815674" lon="11.33581468446184"><ele>278.7142857142857</ele><time>2026-04-11T10:11:45.959Z</time></trkpt><trkpt lat="43.99922538109644" lon="11.335888907624089"><ele>277.57142857142856</ele><time>2026-04-11T10:11:46.959Z</time></trkpt><trkpt lat="43.999285616109866" lon="11.335949278368764"><ele>276.42857142857144</ele><time>2026-04-11T10:11:47.959Z</time></trkpt><trkpt lat="43.99931918687226" lon="11.336032136005631"><ele>275.2857142857143</ele><time>2026-04-11T10:11:48.959Z</time></trkpt><trkpt lat="43.99934648165136" lon="11.336122782264258"><ele>274.14285714285717</ele><time>2026-04-11T10:11:49.959Z</time></trkpt><trkpt lat="43.99936752991602" lon="11.336208642961232"><ele>273.0</ele><time>2026-04-11T10:11:50.959Z</time></trkpt><trkpt lat="43.99938076425199" lon="11.336340538180075"><ele>272.75</ele><time>2026-04-11T10:11:52.959Z</time></trkpt><trkpt lat="43.9995428234351" lon="11.336355893381887"><ele>272.5</ele><time>2026-04-11T10:11:56.959Z</time></trkpt><trkpt lat="43.999648391059004" lon="11.336332919847624"><ele>272.25</ele><time>2026-04-11T10:11:58.959Z</time></trkpt><trkpt lat="43.999741624113284" lon="11.33634447119194"><ele>272.0</ele><time>2026-04-11T10:11:59.959Z</time></trkpt><trkpt lat="43.99984097451058" lon="11.336359880654031"><ele>272.0</ele><time>2026-04-11T10:12:00.959Z</time></trkpt><trkpt lat="43.99993925382871" lon="11.336374137099382"><ele>272.0</ele><time>2026-04-11T10:12:01.959Z</time></trkpt><trkpt lat="44.00004542398464" lon="11.336389538195512"><ele>272.0</ele><time>2026-04-11T10:12:02.959Z</time></trkpt><trkpt lat="44.00014625970179" lon="11.336381659710922"><ele>272.0</ele><time>2026-04-11T10:12:03.959Z</time></trkpt><trkpt lat="44.000233902507766" lon="11.336413693933544"><ele>272.0</ele><time>2026-04-11T10:12:04.959Z</time></trkpt><trkpt lat="44.00031206599657" lon="11.336425438075048"><ele>271.6666666666667</ele><time>2026-04-11T10:12:05.959Z</time></trkpt><trkpt lat="44.000401761001704" lon="11.336447192927176"><ele>271.33333333333337</ele><time>2026-04-11T10:12:06.959Z</time></trkpt><trkpt lat="44.00048018057374" lon="11.336449579106718"><ele>271.0</ele><time>2026-04-11T10:12:07.959Z</time></trkpt><trkpt lat="44.00056533077457" lon="11.33648309575759"><ele>270.6666666666667</ele><time>2026-04-11T10:12:08.959Z</time></trkpt><trkpt lat="44.00065636755719" lon="11.336498083050428"><ele>270.3333333333333</ele><time>2026-04-11T10:12:09.959Z</time></trkpt><trkpt lat="44.000742911858275" lon="11.336511007447292"><ele>270.0</ele><time>2026-04-11T10:12:10.959Z</time></trkpt><trkpt lat="44.00083596307659" lon="11.336521723323072"><ele>270.0</ele><time>2026-04-11T10:12:11.959Z</time></trkpt><trkpt lat="44.00092253037266" lon="11.33652862654648"><ele>270.0</ele><time>2026-04-11T10:12:12.959Z</time></trkpt><trkpt lat="44.00101043033717" lon="11.336528219175941"><ele>270.0</ele><time>2026-04-11T10:12:13.959Z</time></trkpt><trkpt lat="44.00109092576898" lon="11.336536337598249"><ele>270.0</ele><time>2026-04-11T10:12:14.959Z</time></trkpt><trkpt lat="44.0011769393884" lon="11.336551565669541"><ele>270.0</ele><time>2026-04-11T10:12:15.959Z</time></trkpt><trkpt lat="44.00125444361553" lon="11.336571914801567"><ele>270.0</ele><time>2026-04-11T10:12:16.959Z</time></trkpt><trkpt lat="44.00132148375517" lon="11.336585309177273"><ele>270.0</ele><time>2026-04-11T10:12:17.959Z</time></trkpt><trkpt lat="44.001422023894435" lon="11.336593498664497"><ele>270.0</ele><time>2026-04-11T10:12:19.959Z</time></trkpt><trkpt lat="44.00148506302699" lon="11.336551951499803"><ele>270.0</ele><time>2026-04-11T10:12:20.959Z</time></trkpt><trkpt lat="44.001549091440324" lon="11.336500146406935"><ele>270.0</ele><time>2026-04-11T10:12:21.959Z</time></trkpt><trkpt lat="44.00162430901906" lon="11.336399205543023"><ele>270.0</ele><time>2026-04-11T10:12:23.959Z</time></trkpt><trkpt lat="44.00171800229069" lon="11.3363536732021"><ele>270.0</ele><time>2026-04-11T10:12:25.959Z</time></trkpt><trkpt lat="44.001810206410184" lon="11.33643402362956"><ele>272.5</ele><time>2026-04-11T10:12:27.959Z</time></trkpt><trkpt lat="44.0018691969658" lon="11.33651449290099"><ele>275.0</ele><time>2026-04-11T10:12:28.959Z</time></trkpt><trkpt lat="44.001937046547255" lon="11.336584041578444"><ele>277.5</ele><time>2026-04-11T10:12:29.959Z</time></trkpt><trkpt lat="44.00201660510662" lon="11.336686595386226"><ele>280.0</ele><time>2026-04-11T10:12:30.959Z</time></trkpt><trkpt lat="44.00206812934121" lon="11.336765980992958"><ele>282.5</ele><time>2026-04-11T10:12:31.959Z</time></trkpt><trkpt lat="44.00212187326298" lon="11.33681995861154"><ele>285.0</ele><time>2026-04-11T10:12:32.959Z</time></trkpt><trkpt lat="44.00219296183585" lon="11.336847195207167"><ele>285.0</ele><time>2026-04-11T10:12:33.959Z</time></trkpt><trkpt lat="44.00225989415488" lon="11.336894053130761"><ele>285.0</ele><time>2026-04-11T10:12:34.958Z</time></trkpt><trkpt lat="44.00234565784701" lon="11.336903081797223"><ele>285.0</ele><time>2026-04-11T10:12:35.958Z</time></trkpt><trkpt lat="44.00243564040653" lon="11.336893180511451"><ele>285.0</ele><time>2026-04-11T10:12:36.958Z</time></trkpt><trkpt lat="44.002528198745125" lon="11.336884146177166"><ele>285.0</ele><time>2026-04-11T10:12:37.958Z</time></trkpt><trkpt lat="44.00265587820722" lon="11.33685846241422"><ele>285.8</ele><time>2026-04-11T10:12:38.958Z</time></trkpt><trkpt lat="44.00276494226476" lon="11.336867368223585"><ele>286.6</ele><time>2026-04-11T10:12:39.958Z</time></trkpt><trkpt lat="44.002855557559954" lon="11.336887951512464"><ele>287.4</ele><time>2026-04-11T10:12:40.958Z</time></trkpt><trkpt lat="44.00293155062072" lon="11.336895483373254"><ele>288.2</ele><time>2026-04-11T10:12:41.958Z</time></trkpt><trkpt lat="44.00300899567792" lon="11.336901757639442"><ele>289.0</ele><time>2026-04-11T10:12:42.958Z</time></trkpt><trkpt lat="44.00311933185176" lon="11.336885010811208"><ele>289.0</ele><time>2026-04-11T10:12:43.958Z</time></trkpt><trkpt lat="44.00322175361151" lon="11.336857200689746"><ele>289.0</ele><time>2026-04-11T10:12:44.957Z</time></trkpt><trkpt lat="44.00331931364374" lon="11.336834362676138"><ele>289.0</ele><time>2026-04-11T10:12:45.957Z</time></trkpt><trkpt lat="44.00342178484349" lon="11.336785478649345"><ele>289.0</ele><time>2026-04-11T10:12:46.958Z</time></trkpt><trkpt lat="44.00351513250507" lon="11.336734862890426"><ele>289.0</ele><time>2026-04-11T10:12:47.958Z</time></trkpt><trkpt lat="44.00360841969782" lon="11.336697006900124"><ele>289.0</ele><time>2026-04-11T10:12:48.958Z</time></trkpt><trkpt lat="44.003688620741414" lon="11.336665209078468"><ele>289.0</ele><time>2026-04-11T10:12:49.958Z</time></trkpt><trkpt lat="44.003780767702985" lon="11.336653463686721"><ele>289.0</ele><time>2026-04-11T10:12:50.958Z</time></trkpt><trkpt lat="44.003872465480526" lon="11.336623121500924"><ele>289.0</ele><time>2026-04-11T10:12:51.958Z</time></trkpt><trkpt lat="44.003970621513496" lon="11.336601616586528"><ele>289.0</ele><time>2026-04-11T10:12:52.958Z</time></trkpt><trkpt lat="44.004078645271804" lon="11.336593664860038"><ele>289.0</ele><time>2026-04-11T10:12:53.958Z</time></trkpt><trkpt lat="44.00414811104194" lon="11.336588554818752"><ele>289.0</ele><time>2026-04-11T10:12:54.958Z</time></trkpt><trkpt lat="44.00423811070011" lon="11.336599647780648"><ele>289.0</ele><time>2026-04-11T10:12:56.958Z</time></trkpt><trkpt lat="44.004305352748105" lon="11.336621066229295"><ele>289.0</ele><time>2026-04-11T10:12:59.958Z</time></trkpt><trkpt lat="44.00439152861707" lon="11.336648486987102"><ele>289.0</ele><time>2026-04-11T10:13:03.958Z</time></trkpt><trkpt lat="44.00446987984884" lon="11.336660039528901"><ele>289.0</ele><time>2026-04-11T10:13:05.958Z</time></trkpt><trkpt lat="44.00456967915908" lon="11.336668361246128"><ele>288.8333333333333</ele><time>2026-04-11T10:13:07.958Z</time></trkpt><trkpt lat="44.00467653819785" lon="11.336663707624652"><ele>288.66666666666663</ele><time>2026-04-11T10:13:09.958Z</time></trkpt><trkpt lat="44.00474434691352" lon="11.336655440201124"><ele>288.5</ele><time>2026-04-11T10:13:10.958Z</time></trkpt><trkpt lat="44.00480433194897" lon="11.336596575325267"><ele>288.3333333333333</ele><time>2026-04-11T10:13:11.958Z</time></trkpt><trkpt lat="44.004866611738464" lon="11.336515753127403"><ele>288.1666666666667</ele><time>2026-04-11T10:13:12.958Z</time></trkpt><trkpt lat="44.00492561447741" lon="11.33640894820898"><ele>288.0</ele><time>2026-04-11T10:13:13.958Z</time></trkpt><trkpt lat="44.00496311932335" lon="11.33622893866689"><ele>289.0</ele><time>2026-04-11T10:13:14.958Z</time></trkpt><trkpt lat="44.00501426323935" lon="11.336102962890015"><ele>290.0</ele><time>2026-04-11T10:13:15.958Z</time></trkpt><trkpt lat="44.00506803171641" lon="11.33598264915157"><ele>291.0</ele><time>2026-04-11T10:13:16.958Z</time></trkpt><trkpt lat="44.00512451807824" lon="11.335826354724727"><ele>292.0</ele><time>2026-04-11T10:13:17.958Z</time></trkpt><trkpt lat="44.00515931809381" lon="11.335660852141942"><ele>294.25</ele><time>2026-04-11T10:13:18.958Z</time></trkpt><trkpt lat="44.00520327515688" lon="11.33548779345086"><ele>296.5</ele><time>2026-04-11T10:13:19.958Z</time></trkpt><trkpt lat="44.00524568484022" lon="11.335318295608523"><ele>298.75</ele><time>2026-04-11T10:13:20.958Z</time></trkpt><trkpt lat="44.00531156917112" lon="11.335140608272555"><ele>301.0</ele><time>2026-04-11T10:13:21.958Z</time></trkpt><trkpt lat="44.00535958910072" lon="11.334984941859583"><ele>301.0</ele><time>2026-04-11T10:13:22.958Z</time></trkpt><trkpt lat="44.00539192896909" lon="11.33485444007273"><ele>301.0</ele><time>2026-04-11T10:13:23.958Z</time></trkpt><trkpt lat="44.00541897679959" lon="11.334701953283023"><ele>301.0</ele><time>2026-04-11T10:13:24.958Z</time></trkpt><trkpt lat="44.005496329016076" lon="11.334577466136166"><ele>301.0</ele><time>2026-04-11T10:13:25.958Z</time></trkpt><trkpt lat="44.005516857622204" lon="11.334450960701728"><ele>301.0</ele><time>2026-04-11T10:13:26.958Z</time></trkpt><trkpt lat="44.00553188264133" lon="11.3343583703702"><ele>301.6</ele><time>2026-04-11T10:13:27.958Z</time></trkpt><trkpt lat="44.00553711478128" lon="11.334242179076549"><ele>302.20000000000005</ele><time>2026-04-11T10:13:28.958Z</time></trkpt><trkpt lat="44.00551849214871" lon="11.334139884181287"><ele>302.79999999999995</ele><time>2026-04-11T10:13:29.958Z</time></trkpt><trkpt lat="44.00540542113206" lon="11.33404319060261"><ele>303.4</ele><time>2026-04-11T10:13:30.958Z</time></trkpt><trkpt lat="44.00533823035226" lon="11.333947441371128"><ele>304.0</ele><time>2026-04-11T10:13:31.958Z</time></trkpt><trkpt lat="44.005270627657595" lon="11.333785335869022"><ele>302.5</ele><time>2026-04-11T10:13:33.958Z</time></trkpt><trkpt lat="44.00520651167755" lon="11.333678186740757"><ele>301.0</ele><time>2026-04-11T10:13:34.958Z</time></trkpt><trkpt lat="44.00516052645304" lon="11.333566101092485"><ele>299.5</ele><time>2026-04-11T10:13:35.958Z</time></trkpt><trkpt lat="44.00510024652193" lon="11.333475644075886"><ele>298.0</ele><time>2026-04-11T10:13:36.958Z</time></trkpt><trkpt lat="44.00508093898564" lon="11.333377514881597"><ele>296.5</ele><time>2026-04-11T10:13:37.958Z</time></trkpt><trkpt lat="44.00506265953584" lon="11.333278663321948"><ele>295.0</ele><time>2026-04-11T10:13:39.958Z</time></trkpt><trkpt lat="44.00513362055121" lon="11.333149349699609"><ele>295.0</ele><time>2026-04-11T10:13:41.958Z</time></trkpt><trkpt lat="44.005250182733306" lon="11.333186813236003"><ele>295.0</ele><time>2026-04-11T10:13:42.958Z</time></trkpt><trkpt lat="44.005372324664414" lon="11.33313973611246"><ele>295.0</ele><time>2026-04-11T10:13:43.958Z</time></trkpt><trkpt lat="44.00550662925728" lon="11.333106660084495"><ele>295.0</ele><time>2026-04-11T10:13:44.958Z</time></trkpt><trkpt lat="44.00562542449972" lon="11.333057710546866"><ele>295.5</ele><time>2026-04-11T10:13:45.958Z</time></trkpt><trkpt lat="44.005747595990805" lon="11.333042317657428"><ele>296.0</ele><time>2026-04-11T10:13:46.958Z</time></trkpt><trkpt lat="44.005862505923815" lon="11.333001711094521"><ele>296.5</ele><time>2026-04-11T10:13:47.958Z</time></trkpt><trkpt lat="44.00596976009003" lon="11.332947986959171"><ele>297.0</ele><time>2026-04-11T10:13:48.958Z</time></trkpt><trkpt lat="44.006067980549886" lon="11.332878359459443"><ele>297.0</ele><time>2026-04-11T10:13:49.958Z</time></trkpt><trkpt lat="44.00617010121587" lon="11.332843465867874"><ele>297.0</ele><time>2026-04-11T10:13:50.958Z</time></trkpt><trkpt lat="44.00626833635293" lon="11.332804529318938"><ele>297.0</ele><time>2026-04-11T10:13:51.958Z</time></trkpt><trkpt lat="44.006347612550684" lon="11.332783882511935"><ele>297.0</ele><time>2026-04-11T10:13:52.958Z</time></trkpt><trkpt lat="44.00647271719418" lon="11.332846158151096"><ele>297.0</ele><time>2026-04-11T10:13:54.958Z</time></trkpt><trkpt lat="44.00656102654322" lon="11.332913862692196"><ele>297.0</ele><time>2026-04-11T10:13:55.958Z</time></trkpt><trkpt lat="44.00665205266625" lon="11.332983711336073"><ele>297.0</ele><time>2026-04-11T10:13:56.958Z</time></trkpt><trkpt lat="44.006764138863986" lon="11.333020744488477"><ele>297.0</ele><time>2026-04-11T10:13:57.958Z</time></trkpt><trkpt lat="44.00685521380324" lon="11.333008399583129"><ele>297.0</ele><time>2026-04-11T10:13:58.958Z</time></trkpt><trkpt lat="44.00695936101451" lon="11.332969668902267"><ele>297.0</ele><time>2026-04-11T10:13:59.958Z</time></trkpt><trkpt lat="44.00705356089822" lon="11.33292717378617"><ele>299.6666666666667</ele><time>2026-04-11T10:14:00.958Z</time></trkpt><trkpt lat="44.00719308882508" lon="11.33286169847384"><ele>302.33333333333337</ele><time>2026-04-11T10:14:01.958Z</time></trkpt><trkpt lat="44.00734353422199" lon="11.332788367606668"><ele>305.0</ele><time>2026-04-11T10:14:02.958Z</time></trkpt><trkpt lat="44.0075176133387" lon="11.33271328400484"><ele>305.33333333333337</ele><time>2026-04-11T10:14:03.958Z</time></trkpt><trkpt lat="44.00770105913303" lon="11.33262310511772"><ele>305.6666666666667</ele><time>2026-04-11T10:14:04.958Z</time></trkpt><trkpt lat="44.007873515978424" lon="11.332560232009731"><ele>306.0</ele><time>2026-04-11T10:14:05.958Z</time></trkpt><trkpt lat="44.00804228746083" lon="11.332498752350572"><ele>306.0</ele><time>2026-04-11T10:14:06.958Z</time></trkpt><trkpt lat="44.00821003346122" lon="11.332434551091191"><ele>306.0</ele><time>2026-04-11T10:14:07.958Z</time></trkpt><trkpt lat="44.0083888306238" lon="11.332362917213858"><ele>306.0</ele><time>2026-04-11T10:14:08.958Z</time></trkpt><trkpt lat="44.008558914095445" lon="11.332287468883806"><ele>307.0</ele><time>2026-04-11T10:14:09.959Z</time></trkpt><trkpt lat="44.008714127360086" lon="11.332218373162743"><ele>308.0</ele><time>2026-04-11T10:14:10.959Z</time></trkpt><trkpt lat="44.00885012774133" lon="11.33215494822917"><ele>309.0</ele><time>2026-04-11T10:14:11.959Z</time></trkpt><trkpt lat="44.00898072627763" lon="11.332097943266218"><ele>310.0</ele><time>2026-04-11T10:14:12.959Z</time></trkpt><trkpt lat="44.0091150508576" lon="11.332056067542617"><ele>311.25</ele><time>2026-04-11T10:14:13.959Z</time></trkpt><trkpt lat="44.009253427972" lon="11.332067640127537"><ele>312.5</ele><time>2026-04-11T10:14:14.959Z</time></trkpt><trkpt lat="44.00939881704843" lon="11.33205003740424"><ele>313.75</ele><time>2026-04-11T10:14:15.959Z</time></trkpt><trkpt lat="44.009552733013365" lon="11.331985568901311"><ele>315.0</ele><time>2026-04-11T10:14:16.959Z</time></trkpt><trkpt lat="44.009708823337746" lon="11.331918653099507"><ele>315.0</ele><time>2026-04-11T10:14:17.959Z</time></trkpt><trkpt lat="44.00984027162233" lon="11.331894358411931"><ele>315.0</ele><time>2026-04-11T10:14:18.959Z</time></trkpt><trkpt lat="44.00994231182885" lon="11.331876124162088"><ele>315.0</ele><time>2026-04-11T10:14:19.959Z</time></trkpt><trkpt lat="44.01002922257682" lon="11.331866660901595"><ele>315.0</ele><time>2026-04-11T10:14:20.959Z</time></trkpt><trkpt lat="44.01010447296771" lon="11.331864861665336"><ele>315.0</ele><time>2026-04-11T10:14:21.959Z</time></trkpt><trkpt lat="44.01022103547691" lon="11.331893972514361"><ele>315.1666666666667</ele><time>2026-04-11T10:14:23.959Z</time></trkpt><trkpt lat="44.01028771939824" lon="11.3319372817457"><ele>315.3333333333333</ele><time>2026-04-11T10:14:25.959Z</time></trkpt><trkpt lat="44.010366140268296" lon="11.33195714920508"><ele>315.5</ele><time>2026-04-11T10:14:59.957Z</time></trkpt><trkpt lat="44.010441285744314" lon="11.331805132357603"><ele>315.66666666666663</ele><time>2026-04-11T10:15:01.957Z</time></trkpt><trkpt lat="44.010471251353664" lon="11.331696469650575"><ele>315.8333333333333</ele><time>2026-04-11T10:15:02.957Z</time></trkpt><trkpt lat="44.0104892860656" lon="11.33160145968477"><ele>316.0</ele><time>2026-04-11T10:15:03.957Z</time></trkpt><trkpt lat="44.01049713980141" lon="11.331481145516795"><ele>316.2</ele><time>2026-04-11T10:15:04.957Z</time></trkpt><trkpt lat="44.010485239583886" lon="11.33136195599927"><ele>316.40000000000003</ele><time>2026-04-11T10:15:05.957Z</time></trkpt><trkpt lat="44.010463324588244" lon="11.331238529657318"><ele>316.6</ele><time>2026-04-11T10:15:06.957Z</time></trkpt><trkpt lat="44.01042637729534" lon="11.331107978242539"><ele>316.8</ele><time>2026-04-11T10:15:07.957Z</time></trkpt><trkpt lat="44.01038893153733" lon="11.33097655346526"><ele>317.0</ele><time>2026-04-11T10:15:08.957Z</time></trkpt><trkpt lat="44.010367966201414" lon="11.330867383338017"><ele>317.0</ele><time>2026-04-11T10:15:09.957Z</time></trkpt><trkpt lat="44.010353789887105" lon="11.330778219931585"><ele>317.0</ele><time>2026-04-11T10:15:10.957Z</time></trkpt><trkpt lat="44.01036835954344" lon="11.330679875155326"><ele>317.0</ele><time>2026-04-11T10:15:12.957Z</time></trkpt><trkpt lat="44.01040154773103" lon="11.330603319845068"><ele>317.0</ele><time>2026-04-11T10:15:14.957Z</time></trkpt><trkpt lat="44.010553646523526" lon="11.330640028967327"><ele>317.0</ele><time>2026-04-11T10:15:15.957Z</time></trkpt><trkpt lat="44.01066076072891" lon="11.330640478418207"><ele>317.0</ele><time>2026-04-11T10:15:16.957Z</time></trkpt><trkpt lat="44.01077051622192" lon="11.33061761394867"><ele>317.0</ele><time>2026-04-11T10:15:17.957Z</time></trkpt><trkpt lat="44.010875291340355" lon="11.330629157466701"><ele>317.0</ele><time>2026-04-11T10:15:18.957Z</time></trkpt><trkpt lat="44.010987575649224" lon="11.330621029022899"><ele>317.0</ele><time>2026-04-11T10:15:19.957Z</time></trkpt><trkpt lat="44.01108846865194" lon="11.330612178324301"><ele>317.0</ele><time>2026-04-11T10:15:20.957Z</time></trkpt><trkpt lat="44.011172835502" lon="11.330604777341621"><ele>317.0</ele><time>2026-04-11T10:15:21.957Z</time></trkpt><trkpt lat="44.011267337533" lon="11.330598320917398"><ele>317.0</ele><time>2026-04-11T10:15:22.957Z</time></trkpt><trkpt lat="44.01135708070298" lon="11.330594890504237"><ele>317.0</ele><time>2026-04-11T10:15:23.957Z</time></trkpt><trkpt lat="44.01145533211492" lon="11.330591134863113"><ele>317.0</ele><time>2026-04-11T10:15:24.957Z</time></trkpt><trkpt lat="44.0115518694661" lon="11.33058597348381"><ele>317.0</ele><time>2026-04-11T10:15:25.957Z</time></trkpt><trkpt lat="44.011643617593855" lon="11.330577167291223"><ele>317.6</ele><time>2026-04-11T10:15:26.957Z</time></trkpt><trkpt lat="44.011729166911756" lon="11.330567964809957"><ele>318.2</ele><time>2026-04-11T10:15:27.957Z</time></trkpt><trkpt lat="44.01182015964266" lon="11.330558176771195"><ele>318.8</ele><time>2026-04-11T10:15:28.957Z</time></trkpt><trkpt lat="44.01194022574815" lon="11.330545753234166"><ele>319.4</ele><time>2026-04-11T10:15:29.957Z</time></trkpt><trkpt lat="44.01206008147784" lon="11.330535833392565"><ele>320.0</ele><time>2026-04-11T10:15:30.958Z</time></trkpt><trkpt lat="44.01217870112128" lon="11.330526015876803"><ele>320.4</ele><time>2026-04-11T10:15:31.958Z</time></trkpt><trkpt lat="44.01229792510463" lon="11.33047607978518"><ele>320.8</ele><time>2026-04-11T10:15:32.958Z</time></trkpt><trkpt lat="44.01240592664356" lon="11.330462980853577"><ele>321.20000000000005</ele><time>2026-04-11T10:15:33.958Z</time></trkpt><trkpt lat="44.01250524979511" lon="11.330452864261526"><ele>321.6</ele><time>2026-04-11T10:15:34.958Z</time></trkpt><trkpt lat="44.012574778745226" lon="11.330442013016697"><ele>322.0</ele><time>2026-04-11T10:15:35.958Z</time></trkpt><trkpt lat="44.01265954692019" lon="11.330437970589488"><ele>322.0</ele><time>2026-04-11T10:15:36.958Z</time></trkpt><trkpt lat="44.01274208579964" lon="11.330437013931975"><ele>322.0</ele><time>2026-04-11T10:15:37.958Z</time></trkpt><trkpt lat="44.012827497416836" lon="11.330457778844012"><ele>322.0</ele><time>2026-04-11T10:15:38.958Z</time></trkpt><trkpt lat="44.01290569692368" lon="11.3304953022878"><ele>322.0</ele><time>2026-04-11T10:15:39.958Z</time></trkpt><trkpt lat="44.01299239365332" lon="11.330542778358861"><ele>322.0</ele><time>2026-04-11T10:15:40.958Z</time></trkpt><trkpt lat="44.013095838845146" lon="11.330558207968581"><ele>322.0</ele><time>2026-04-11T10:15:41.958Z</time></trkpt><trkpt lat="44.01320828373007" lon="11.330539131206555"><ele>322.0</ele><time>2026-04-11T10:15:42.958Z</time></trkpt><trkpt lat="44.01332215887999" lon="11.330523314507184"><ele>322.0</ele><time>2026-04-11T10:15:43.958Z</time></trkpt><trkpt lat="44.01343680177678" lon="11.330542068478424"><ele>322.0</ele><time>2026-04-11T10:15:44.958Z</time></trkpt><trkpt lat="44.01357204360076" lon="11.330561838873685"><ele>322.0</ele><time>2026-04-11T10:15:46.958Z</time></trkpt><trkpt lat="44.01367557464475" lon="11.33064220877746"><ele>322.20000000000005</ele><time>2026-04-11T10:15:47.958Z</time></trkpt><trkpt lat="44.01376123597098" lon="11.330693490771617"><ele>322.4</ele><time>2026-04-11T10:15:48.958Z</time></trkpt><trkpt lat="44.01389926700496" lon="11.330665970040965"><ele>322.6</ele><time>2026-04-11T10:15:50.958Z</time></trkpt><trkpt lat="44.013978019664115" lon="11.33057661800398"><ele>322.79999999999995</ele><time>2026-04-11T10:15:51.958Z</time></trkpt><trkpt lat="44.014058087327996" lon="11.33049703865152"><ele>323.0</ele><time>2026-04-11T10:15:52.958Z</time></trkpt><trkpt lat="44.014138417142476" lon="11.330381361214489"><ele>323.4</ele><time>2026-04-11T10:15:53.958Z</time></trkpt><trkpt lat="44.01423683775594" lon="11.330290828782971"><ele>323.79999999999995</ele><time>2026-04-11T10:15:54.958Z</time></trkpt><trkpt lat="44.0142992265631" lon="11.330237058995868"><ele>324.2</ele><time>2026-04-11T10:15:55.958Z</time></trkpt><trkpt lat="44.0143650685454" lon="11.330154364149564"><ele>324.6</ele><time>2026-04-11T10:15:56.958Z</time></trkpt><trkpt lat="44.014477696773085" lon="11.330051357403512"><ele>325.0</ele><time>2026-04-11T10:15:57.958Z</time></trkpt><trkpt lat="44.01455421848349" lon="11.329942390377557"><ele>325.0</ele><time>2026-04-11T10:15:58.958Z</time></trkpt><trkpt lat="44.014632931454926" lon="11.329791061517852"><ele>325.0</ele><time>2026-04-11T10:15:59.958Z</time></trkpt><trkpt lat="44.01473031846076" lon="11.329699710142169"><ele>325.0</ele><time>2026-04-11T10:16:00.958Z</time></trkpt><trkpt lat="44.01481603396223" lon="11.329626145983609"><ele>325.0</ele><time>2026-04-11T10:16:01.958Z</time></trkpt><trkpt lat="44.01489905133559" lon="11.329576533215965"><ele>325.0</ele><time>2026-04-11T10:16:02.958Z</time></trkpt><trkpt lat="44.01496503229534" lon="11.329553738039221"><ele>324.8333333333333</ele><time>2026-04-11T10:16:03.958Z</time></trkpt><trkpt lat="44.01505617284787" lon="11.329534985309127"><ele>324.66666666666663</ele><time>2026-04-11T10:16:04.958Z</time></trkpt><trkpt lat="44.015134340308414" lon="11.329529837272622"><ele>324.5</ele><time>2026-04-11T10:16:05.958Z</time></trkpt><trkpt lat="44.01520846830515" lon="11.329536935839645"><ele>324.3333333333333</ele><time>2026-04-11T10:16:06.958Z</time></trkpt><trkpt lat="44.01527647195327" lon="11.329562281065728"><ele>324.1666666666667</ele><time>2026-04-11T10:16:07.958Z</time></trkpt><trkpt lat="44.015348651921265" lon="11.329590397254458"><ele>324.0</ele><time>2026-04-11T10:16:08.958Z</time></trkpt><trkpt lat="44.01543914348473" lon="11.32959917272837"><ele>324.0</ele><time>2026-04-11T10:16:09.958Z</time></trkpt><trkpt lat="44.01550767453234" lon="11.329578354145218"><ele>324.0</ele><time>2026-04-11T10:16:10.958Z</time></trkpt><trkpt lat="44.01558695210218" lon="11.329547643650393"><ele>324.0</ele><time>2026-04-11T10:16:11.958Z</time></trkpt><trkpt lat="44.0156753665636" lon="11.329501417573276"><ele>324.0</ele><time>2026-04-11T10:16:12.958Z</time></trkpt><trkpt lat="44.01578005763706" lon="11.329454765791086"><ele>324.0</ele><time>2026-04-11T10:16:13.958Z</time></trkpt><trkpt lat="44.015892538153665" lon="11.32941245188467"><ele>324.79999999999995</ele><time>2026-04-11T10:16:14.958Z</time></trkpt><trkpt lat="44.01599035210757" lon="11.329360141893485"><ele>325.59999999999997</ele><time>2026-04-11T10:16:15.958Z</time></trkpt><trkpt lat="44.01608235804466" lon="11.3293494787158"><ele>326.4</ele><time>2026-04-11T10:16:16.958Z</time></trkpt><trkpt lat="44.016182308947236" lon="11.329336256957525"><ele>327.2</ele><time>2026-04-11T10:16:17.958Z</time></trkpt><trkpt lat="44.01630210293228" lon="11.329297383798531"><ele>328.0</ele><time>2026-04-11T10:16:18.958Z</time></trkpt><trkpt lat="44.01640719526579" lon="11.329259353576495"><ele>328.0</ele><time>2026-04-11T10:16:19.958Z</time></trkpt><trkpt lat="44.01651118744787" lon="11.329226456869836"><ele>328.0</ele><time>2026-04-11T10:16:20.958Z</time></trkpt><trkpt lat="44.016605892436495" lon="11.329217003913776"><ele>328.0</ele><time>2026-04-11T10:16:21.958Z</time></trkpt><trkpt lat="44.01670323654551" lon="11.329209402135291"><ele>328.0</ele><time>2026-04-11T10:16:22.958Z</time></trkpt><trkpt lat="44.01679077737163" lon="11.329231900508693"><ele>328.0</ele><time>2026-04-11T10:16:23.958Z</time></trkpt><trkpt lat="44.01687127329615" lon="11.329219305137116"><ele>328.3333333333333</ele><time>2026-04-11T10:16:24.958Z</time></trkpt><trkpt lat="44.016944867135166" lon="11.329182369593799"><ele>328.66666666666663</ele><time>2026-04-11T10:16:25.958Z</time></trkpt><trkpt lat="44.017019313950456" lon="11.329105714215794"><ele>329.0</ele><time>2026-04-11T10:16:26.958Z</time></trkpt><trkpt lat="44.01706797128947" lon="11.329015135148666"><ele>329.3333333333333</ele><time>2026-04-11T10:16:27.958Z</time></trkpt><trkpt lat="44.017112218093644" lon="11.32891642612278"><ele>329.6666666666667</ele><time>2026-04-11T10:16:28.958Z</time></trkpt><trkpt lat="44.01715044795727" lon="11.3287884331936"><ele>330.0</ele><time>2026-04-11T10:16:29.958Z</time></trkpt><trkpt lat="44.017197952624606" lon="11.328658806669706"><ele>330.0</ele><time>2026-04-11T10:16:30.958Z</time></trkpt><trkpt lat="44.017237255137914" lon="11.328507613022722"><ele>330.0</ele><time>2026-04-11T10:16:31.958Z</time></trkpt><trkpt lat="44.017277625353415" lon="11.328350247182255"><ele>330.0</ele><time>2026-04-11T10:16:32.958Z</time></trkpt><trkpt lat="44.01732738691148" lon="11.328217539027717"><ele>330.0</ele><time>2026-04-11T10:16:33.958Z</time></trkpt><trkpt lat="44.01735925197986" lon="11.328089347110586"><ele>330.0</ele><time>2026-04-11T10:16:34.958Z</time></trkpt><trkpt lat="44.01739016691103" lon="11.327961293644439"><ele>330.0</ele><time>2026-04-11T10:16:35.958Z</time></trkpt><trkpt lat="44.01741501470483" lon="11.327868943054188"><ele>330.0</ele><time>2026-04-11T10:16:36.958Z</time></trkpt><trkpt lat="44.017455476703006" lon="11.327748455413"><ele>330.0</ele><time>2026-04-11T10:16:38.958Z</time></trkpt><trkpt lat="44.01756636829472" lon="11.32780433456978"><ele>330.0</ele><time>2026-04-11T10:16:40.958Z</time></trkpt><trkpt lat="44.0176197021343" lon="11.327861102875628"><ele>330.0</ele><time>2026-04-11T10:16:41.958Z</time></trkpt><trkpt lat="44.017704597339545" lon="11.327914693996624"><ele>330.0</ele><time>2026-04-11T10:16:42.958Z</time></trkpt><trkpt lat="44.01778436408802" lon="11.327985910248598"><ele>330.6666666666667</ele><time>2026-04-11T10:16:43.958Z</time></trkpt><trkpt lat="44.01786022975051" lon="11.328055085413963"><ele>331.3333333333333</ele><time>2026-04-11T10:16:44.958Z</time></trkpt><trkpt lat="44.01793303269583" lon="11.328106203241054"><ele>332.0</ele><time>2026-04-11T10:16:45.958Z</time></trkpt><trkpt lat="44.0180039864418" lon="11.32815242429405"><ele>332.66666666666663</ele><time>2026-04-11T10:16:46.956Z</time></trkpt><trkpt lat="44.01808232125153" lon="11.328206943898458"><ele>333.3333333333333</ele><time>2026-04-11T10:16:47.957Z</time></trkpt><trkpt lat="44.018173113356376" lon="11.32827300678567"><ele>334.0</ele><time>2026-04-11T10:16:48.957Z</time></trkpt><trkpt lat="44.018278825549984" lon="11.328325502297366"><ele>335.25</ele><time>2026-04-11T10:16:49.957Z</time></trkpt><trkpt lat="44.018399201310146" lon="11.328367150084588"><ele>336.5</ele><time>2026-04-11T10:16:50.957Z</time></trkpt><trkpt lat="44.0185246460068" lon="11.328404196307014"><ele>337.75</ele><time>2026-04-11T10:16:51.957Z</time></trkpt><trkpt lat="44.018640096384665" lon="11.328431729682528"><ele>339.0</ele><time>2026-04-11T10:16:52.956Z</time></trkpt><trkpt lat="44.0187456746699" lon="11.328444331793989"><ele>339.0</ele><time>2026-04-11T10:16:53.956Z</time></trkpt><trkpt lat="44.01883846442633" lon="11.328466911225332"><ele>339.0</ele><time>2026-04-11T10:16:54.956Z</time></trkpt><trkpt lat="44.018924176303386" lon="11.328486758194277"><ele>339.0</ele><time>2026-04-11T10:16:55.956Z</time></trkpt><trkpt lat="44.01900521147114" lon="11.3285126134396"><ele>339.0</ele><time>2026-04-11T10:16:56.956Z</time></trkpt><trkpt lat="44.01909054092672" lon="11.328524203402583"><ele>339.0</ele><time>2026-04-11T10:16:57.956Z</time></trkpt><trkpt lat="44.01916396443579" lon="11.328551863659557"><ele>339.0</ele><time>2026-04-11T10:16:58.956Z</time></trkpt><trkpt lat="44.01922666557142" lon="11.328589350543098"><ele>339.3333333333333</ele><time>2026-04-11T10:16:59.956Z</time></trkpt><trkpt lat="44.01929756452305" lon="11.328624229936816"><ele>339.6666666666667</ele><time>2026-04-11T10:17:00.956Z</time></trkpt><trkpt lat="44.01938133676518" lon="11.328658633756758"><ele>340.0</ele><time>2026-04-11T10:17:01.956Z</time></trkpt><trkpt lat="44.01946565909854" lon="11.328690476656167"><ele>340.33333333333337</ele><time>2026-04-11T10:17:02.956Z</time></trkpt><trkpt lat="44.019527256535405" lon="11.328749294965519"><ele>340.6666666666667</ele><time>2026-04-11T10:17:03.956Z</time></trkpt><trkpt lat="44.019593880186456" lon="11.328775646675881"><ele>341.0</ele><time>2026-04-11T10:17:04.956Z</time></trkpt><trkpt lat="44.01965424958082" lon="11.32881232112947"><ele>341.0</ele><time>2026-04-11T10:17:05.956Z</time></trkpt><trkpt lat="44.01970805709973" lon="11.328915748408498"><ele>341.0</ele><time>2026-04-11T10:17:07.956Z</time></trkpt><trkpt lat="44.01967969492965" lon="11.329010094605529"><ele>341.0</ele><time>2026-04-11T10:17:08.956Z</time></trkpt><trkpt lat="44.01966274994391" lon="11.329103826365984"><ele>341.0</ele><time>2026-04-11T10:17:09.956Z</time></trkpt><trkpt lat="44.01965327791344" lon="11.329198725378044"><ele>341.0</ele><time>2026-04-11T10:17:10.956Z</time></trkpt><trkpt lat="44.01965579178266" lon="11.32934497195757"><ele>341.0</ele><time>2026-04-11T10:17:12.956Z</time></trkpt><trkpt lat="44.01967038466433" lon="11.329444180024876"><ele>341.0</ele><time>2026-04-11T10:17:14.956Z</time></trkpt><trkpt lat="44.019697839232464" lon="11.32955015169942"><ele>341.0</ele><time>2026-04-11T10:17:17.956Z</time></trkpt><trkpt lat="44.019725718265256" lon="11.329639109263079"><ele>341.0</ele><time>2026-04-11T10:18:25.957Z</time></trkpt><trkpt lat="44.01975532071586" lon="11.329728792353656"><ele>341.0</ele><time>2026-04-11T10:18:28.957Z</time></trkpt><trkpt lat="44.01979253429011" lon="11.329836081843244"><ele>341.0</ele><time>2026-04-11T10:18:30.957Z</time></trkpt><trkpt lat="44.01984084843859" lon="11.329966403496325"><ele>341.0</ele><time>2026-04-11T10:18:32.957Z</time></trkpt><trkpt lat="44.01989638624027" lon="11.330068134362229"><ele>338.25</ele><time>2026-04-11T10:18:36.957Z</time></trkpt><trkpt lat="44.01989161210546" lon="11.330253110494425"><ele>335.5</ele><time>2026-04-11T10:18:38.957Z</time></trkpt><trkpt lat="44.0199203354217" lon="11.330376729594178"><ele>332.75</ele><time>2026-04-11T10:18:39.957Z</time></trkpt><trkpt lat="44.019957790916806" lon="11.33051935904737"><ele>330.0</ele><time>2026-04-11T10:18:40.957Z</time></trkpt><trkpt lat="44.019999605013105" lon="11.330678585865602"><ele>330.0</ele><time>2026-04-11T10:18:41.957Z</time></trkpt><trkpt lat="44.02004174010298" lon="11.330839276893048"><ele>330.0</ele><time>2026-04-11T10:18:42.957Z</time></trkpt><trkpt lat="44.02008249963287" lon="11.330994972774148"><ele>330.0</ele><time>2026-04-11T10:18:43.957Z</time></trkpt><trkpt lat="44.020122491151305" lon="11.331146159273308"><ele>330.0</ele><time>2026-04-11T10:18:44.957Z</time></trkpt><trkpt lat="44.02017483330365" lon="11.331284399458957"><ele>328.6</ele><time>2026-04-11T10:18:45.957Z</time></trkpt><trkpt lat="44.02020363899224" lon="11.331434068126915"><ele>327.2</ele><time>2026-04-11T10:18:46.957Z</time></trkpt><trkpt lat="44.02024563841314" lon="11.33156766708886"><ele>325.79999999999995</ele><time>2026-04-11T10:18:47.957Z</time></trkpt><trkpt lat="44.02028475390505" lon="11.331689270258469"><ele>324.4</ele><time>2026-04-11T10:18:48.957Z</time></trkpt><trkpt lat="44.02030779441786" lon="11.331808464789882"><ele>323.0</ele><time>2026-04-11T10:18:49.957Z</time></trkpt><trkpt lat="44.020348821696274" lon="11.331914006512893"><ele>323.0</ele><time>2026-04-11T10:18:50.957Z</time></trkpt><trkpt lat="44.02040193919766" lon="11.331994790022447"><ele>323.0</ele><time>2026-04-11T10:18:51.957Z</time></trkpt><trkpt lat="44.02041868327186" lon="11.332085680140212"><ele>323.0</ele><time>2026-04-11T10:18:52.956Z</time></trkpt><trkpt lat="44.02041131339551" lon="11.33218474119954"><ele>323.0</ele><time>2026-04-11T10:18:53.956Z</time></trkpt><trkpt lat="44.020345888605846" lon="11.33223868966503"><ele>323.0</ele><time>2026-04-11T10:18:54.956Z</time></trkpt><trkpt lat="44.02029653289202" lon="11.332328306496008"><ele>323.0</ele><time>2026-04-11T10:18:55.955Z</time></trkpt><trkpt lat="44.02026923086952" lon="11.33246355934117"><ele>322.79999999999995</ele><time>2026-04-11T10:18:56.955Z</time></trkpt><trkpt lat="44.02026024682849" lon="11.33259428377374"><ele>322.6</ele><time>2026-04-11T10:18:57.955Z</time></trkpt><trkpt lat="44.020257931903416" lon="11.33274187324122"><ele>322.4</ele><time>2026-04-11T10:18:58.956Z</time></trkpt><trkpt lat="44.020249514697404" lon="11.332895564864913"><ele>322.20000000000005</ele><time>2026-04-11T10:18:59.956Z</time></trkpt><trkpt lat="44.0202239177338" lon="11.333062283859157"><ele>322.0</ele><time>2026-04-11T10:19:00.956Z</time></trkpt><trkpt lat="44.02017328046354" lon="11.333220712682643"><ele>323.0</ele><time>2026-04-11T10:19:01.956Z</time></trkpt><trkpt lat="44.02011165450619" lon="11.333358568759158"><ele>324.0</ele><time>2026-04-11T10:19:02.956Z</time></trkpt><trkpt lat="44.020052541135684" lon="11.333474499888194"><ele>325.0</ele><time>2026-04-11T10:19:03.956Z</time></trkpt><trkpt lat="44.02000579890024" lon="11.333575901988926"><ele>326.0</ele><time>2026-04-11T10:19:04.956Z</time></trkpt><trkpt lat="44.019974063735795" lon="11.333672500352757"><ele>327.0</ele><time>2026-04-11T10:19:05.956Z</time></trkpt><trkpt lat="44.01995675870866" lon="11.333770389553951"><ele>328.3333333333333</ele><time>2026-04-11T10:19:06.956Z</time></trkpt><trkpt lat="44.01992749973025" lon="11.333940586927792"><ele>329.6666666666667</ele><time>2026-04-11T10:19:08.956Z</time></trkpt><trkpt lat="44.01989752361774" lon="11.334018353668855"><ele>331.0</ele><time>2026-04-11T10:19:11.956Z</time></trkpt><trkpt lat="44.019865370703904" lon="11.334110177211226"><ele>332.33333333333337</ele><time>2026-04-11T10:19:15.956Z</time></trkpt><trkpt lat="44.01982902639696" lon="11.334205638337535"><ele>333.6666666666667</ele><time>2026-04-11T10:19:17.956Z</time></trkpt><trkpt lat="44.019891051039394" lon="11.334318044162115"><ele>335.0</ele><time>2026-04-11T10:19:19.956Z</time></trkpt><trkpt lat="44.01995583359936" lon="11.334375911249147"><ele>335.33333333333337</ele><time>2026-04-11T10:19:20.956Z</time></trkpt><trkpt lat="44.020025695447366" lon="11.334415270051865"><ele>335.6666666666667</ele><time>2026-04-11T10:19:21.956Z</time></trkpt><trkpt lat="44.020100355172666" lon="11.334457331863984"><ele>336.0</ele><time>2026-04-11T10:19:22.956Z</time></trkpt><trkpt lat="44.020175599835625" lon="11.334499924631448"><ele>336.3333333333333</ele><time>2026-04-11T10:19:23.956Z</time></trkpt><trkpt lat="44.0202565816268" lon="11.334545860411696"><ele>336.66666666666663</ele><time>2026-04-11T10:19:24.956Z</time></trkpt><trkpt lat="44.020338681323835" lon="11.334592430288941"><ele>337.0</ele><time>2026-04-11T10:19:25.956Z</time></trkpt><trkpt lat="44.0204272616173" lon="11.334632707373974"><ele>337.0</ele><time>2026-04-11T10:19:26.956Z</time></trkpt><trkpt lat="44.020504357674675" lon="11.334672893743544"><ele>337.0</ele><time>2026-04-11T10:19:27.956Z</time></trkpt><trkpt lat="44.0205784435229" lon="11.334713582608552"><ele>337.0</ele><time>2026-04-11T10:19:28.956Z</time></trkpt><trkpt lat="44.020646286959305" lon="11.334746567049663"><ele>337.0</ele><time>2026-04-11T10:19:29.956Z</time></trkpt><trkpt lat="44.02070660974116" lon="11.334785661636463"><ele>337.0</ele><time>2026-04-11T10:19:30.956Z</time></trkpt><trkpt lat="44.02079709818835" lon="11.334881779415335"><ele>337.0</ele><time>2026-04-11T10:19:32.956Z</time></trkpt><trkpt lat="44.02083230049589" lon="11.335008554291836"><ele>344.0</ele><time>2026-04-11T10:19:34.956Z</time></trkpt><trkpt lat="44.020914022868034" lon="11.335058884830694"><ele>344.0</ele><time>2026-04-11T10:19:36.956Z</time></trkpt><trkpt lat="44.020996034491546" lon="11.335098930563978"><ele>344.0</ele><time>2026-04-11T10:19:39.956Z</time></trkpt><trkpt lat="44.02106513300814" lon="11.335131693122914"><ele>344.0</ele><time>2026-04-11T10:19:45.956Z</time></trkpt></trkseg><trkseg><trkpt lat="44.021164315358206" lon="11.335060310543431"><ele>344.0</ele><time>2026-04-11T11:23:32Z</time></trkpt><trkpt lat="44.02121543167532" lon="11.334982348230426"><ele>344.0</ele><time>2026-04-11T11:24:36Z</time></trkpt><trkpt lat="44.021219865500356" lon="11.33489049561772"><ele>344.0</ele><time>2026-04-11T11:25:01Z</time></trkpt><trkpt lat="44.02122469362855" lon="11.334775649702236"><ele>344.0</ele><time>2026-04-11T11:25:07Z</time></trkpt><trkpt lat="44.02125938862537" lon="11.33469512469655"><ele>344.0</ele><time>2026-04-11T11:25:09Z</time></trkpt><trkpt lat="44.02126119007963" lon="11.33457675822736"><ele>344.0</ele><time>2026-04-11T11:25:12Z</time></trkpt><trkpt lat="44.02128740482507" lon="11.334479699863573"><ele>343.0</ele><time>2026-04-11T11:25:15Z</time></trkpt><trkpt lat="44.021339631100346" lon="11.334409460376635"><ele>342.0</ele><time>2026-04-11T11:25:18Z</time></trkpt><trkpt lat="44.02128616080441" lon="11.334320729766748"><ele>341.0</ele><time>2026-04-11T11:25:20Z</time></trkpt><trkpt lat="44.021209799176354" lon="11.334281965289664"><ele>340.0</ele><time>2026-04-11T11:25:22Z</time></trkpt><trkpt lat="44.02114793266889" lon="11.334213418262962"><ele>339.0</ele><time>2026-04-11T11:25:24Z</time></trkpt><trkpt lat="44.02118832305571" lon="11.33405516564022"><ele>338.0</ele><time>2026-04-11T11:25:26Z</time></trkpt><trkpt lat="44.021203102482374" lon="11.33392640047673"><ele>336.33333333333337</ele><time>2026-04-11T11:25:28Z</time></trkpt><trkpt lat="44.02120834492574" lon="11.333792570469875"><ele>334.6666666666667</ele><time>2026-04-11T11:25:30Z</time></trkpt><trkpt lat="44.02125631533589" lon="11.333699894596116"><ele>333.0</ele><time>2026-04-11T11:25:32Z</time></trkpt><trkpt lat="44.02127480676261" lon="11.333580870988776"><ele>331.3333333333333</ele><time>2026-04-11T11:25:34Z</time></trkpt><trkpt lat="44.021288984814014" lon="11.33345216957766"><ele>329.66666666666663</ele><time>2026-04-11T11:25:36Z</time></trkpt><trkpt lat="44.02129658263205" lon="11.333331990510729"><ele>328.0</ele><time>2026-04-11T11:25:38Z</time></trkpt><trkpt lat="44.02134310212644" lon="11.33317367918639"><ele>327.8333333333333</ele><time>2026-04-11T11:25:40Z</time></trkpt><trkpt lat="44.021375992686245" lon="11.33303273406099"><ele>327.66666666666663</ele><time>2026-04-11T11:25:42Z</time></trkpt><trkpt lat="44.02135037391971" lon="11.332944421743722"><ele>327.5</ele><time>2026-04-11T11:25:44Z</time></trkpt><trkpt lat="44.02130093786389" lon="11.33287206135915"><ele>327.3333333333333</ele><time>2026-04-11T11:25:45Z</time></trkpt><trkpt lat="44.02121605211865" lon="11.332809290731914"><ele>327.1666666666667</ele><time>2026-04-11T11:25:46Z</time></trkpt><trkpt lat="44.02112859319775" lon="11.332759960050147"><ele>327.0</ele><time>2026-04-11T11:25:47Z</time></trkpt><trkpt lat="44.021049529155185" lon="11.332691579817498"><ele>327.0</ele><time>2026-04-11T11:25:48Z</time></trkpt><trkpt lat="44.02099193432814" lon="11.3326004665582"><ele>327.0</ele><time>2026-04-11T11:25:49Z</time></trkpt><trkpt lat="44.0209440285606" lon="11.33251398235227"><ele>327.0</ele><time>2026-04-11T11:25:50Z</time></trkpt><trkpt lat="44.02088796284443" lon="11.332446659281617"><ele>327.0</ele><time>2026-04-11T11:25:51Z</time></trkpt><trkpt lat="44.020805749998665" lon="11.332351328506046"><ele>327.0</ele><time>2026-04-11T11:25:53Z</time></trkpt><trkpt lat="44.02073011302398" lon="11.33228266919344"><ele>327.0</ele><time>2026-04-11T11:25:55Z</time></trkpt><trkpt lat="44.02063900386691" lon="11.332224445493273"><ele>326.3333333333333</ele><time>2026-04-11T11:25:58Z</time></trkpt><trkpt lat="44.02055805761743" lon="11.332176931125838"><ele>325.6666666666667</ele><time>2026-04-11T11:26:01Z</time></trkpt><trkpt lat="44.020500199617985" lon="11.3321361950869"><ele>325.0</ele><time>2026-04-11T11:26:03.999Z</time></trkpt><trkpt lat="44.02043225917887" lon="11.332100670454231"><ele>324.33333333333337</ele><time>2026-04-11T11:26:38.999Z</time></trkpt><trkpt lat="44.0203606978326" lon="11.331949419429908"><ele>323.6666666666667</ele><time>2026-04-11T11:26:40.999Z</time></trkpt><trkpt lat="44.02032396182767" lon="11.331838784284832"><ele>323.0</ele><time>2026-04-11T11:26:41.999Z</time></trkpt><trkpt lat="44.02031187257616" lon="11.331719947068724"><ele>323.0</ele><time>2026-04-11T11:26:42.999Z</time></trkpt><trkpt lat="44.02027577320614" lon="11.331589165206912"><ele>323.0</ele><time>2026-04-11T11:26:43.999Z</time></trkpt><trkpt lat="44.02024500335302" lon="11.331473055117344"><ele>323.0</ele><time>2026-04-11T11:26:44.999Z</time></trkpt><trkpt lat="44.02019720703343" lon="11.331348384214046"><ele>323.0</ele><time>2026-04-11T11:26:45.999Z</time></trkpt><trkpt lat="44.020171082573114" lon="11.331224908583753"><ele>323.0</ele><time>2026-04-11T11:26:46.999Z</time></trkpt><trkpt lat="44.020133947938334" lon="11.33109212593532"><ele>324.4</ele><time>2026-04-11T11:26:47.999Z</time></trkpt><trkpt lat="44.02009778593429" lon="11.33095606766603"><ele>325.79999999999995</ele><time>2026-04-11T11:26:48.999Z</time></trkpt><trkpt lat="44.02006356059657" lon="11.330823004837608"><ele>327.2</ele><time>2026-04-11T11:26:49.999Z</time></trkpt><trkpt lat="44.020030456613995" lon="11.330696193951619"><ele>328.6</ele><time>2026-04-11T11:26:50.999Z</time></trkpt><trkpt lat="44.01998724171943" lon="11.330616385248018"><ele>330.0</ele><time>2026-04-11T11:26:51.999Z</time></trkpt><trkpt lat="44.01996409014036" lon="11.330489937054253"><ele>330.0</ele><time>2026-04-11T11:26:52.999Z</time></trkpt><trkpt lat="44.0199368737672" lon="11.330395903467608"><ele>330.0</ele><time>2026-04-11T11:26:53.999Z</time></trkpt><trkpt lat="44.019923306147376" lon="11.330295640043097"><ele>330.0</ele><time>2026-04-11T11:26:54.999Z</time></trkpt><trkpt lat="44.01991544337487" lon="11.330198885772958"><ele>330.0</ele><time>2026-04-11T11:26:55.999Z</time></trkpt><trkpt lat="44.019917048419984" lon="11.33009702143395"><ele>330.0</ele><time>2026-04-11T11:26:56.999Z</time></trkpt><trkpt lat="44.01996009841066" lon="11.329993697238894"><ele>330.0</ele><time>2026-04-11T11:26:57.999Z</time></trkpt><trkpt lat="44.02000991114112" lon="11.329913701274354"><ele>331.6666666666667</ele><time>2026-04-11T11:26:58.999Z</time></trkpt><trkpt lat="44.02008815977888" lon="11.329871191058258"><ele>333.3333333333333</ele><time>2026-04-11T11:26:59.999Z</time></trkpt><trkpt lat="44.020174492154375" lon="11.329851821823723"><ele>335.0</ele><time>2026-04-11T11:27:00.999Z</time></trkpt><trkpt lat="44.0202714444129" lon="11.329906637574336"><ele>336.66666666666663</ele><time>2026-04-11T11:27:01.999Z</time></trkpt><trkpt lat="44.02034026073584" lon="11.329896910439482"><ele>338.3333333333333</ele><time>2026-04-11T11:27:02.999Z</time></trkpt><trkpt lat="44.02041614767431" lon="11.329897548273225"><ele>340.0</ele><time>2026-04-11T11:27:03.999Z</time></trkpt><trkpt lat="44.02048933660872" lon="11.32989094209108"><ele>340.0</ele><time>2026-04-11T11:27:04.999Z</time></trkpt><trkpt lat="44.02057483038251" lon="11.32987008757316"><ele>340.0</ele><time>2026-04-11T11:27:05.999Z</time></trkpt><trkpt lat="44.020659378646485" lon="11.32982774908998"><ele>340.0</ele><time>2026-04-11T11:27:06.999Z</time></trkpt><trkpt lat="44.020733268390046" lon="11.329741868203715"><ele>340.0</ele><time>2026-04-11T11:27:08Z</time></trkpt><trkpt lat="44.02080898998655" lon="11.329644568439447"><ele>340.0</ele><time>2026-04-11T11:27:09Z</time></trkpt><trkpt lat="44.020886072090995" lon="11.32952611828952"><ele>342.5</ele><time>2026-04-11T11:27:10Z</time></trkpt><trkpt lat="44.020948333125865" lon="11.329357326587552"><ele>345.0</ele><time>2026-04-11T11:27:11Z</time></trkpt><trkpt lat="44.02101775305851" lon="11.329212334469583"><ele>347.5</ele><time>2026-04-11T11:27:12Z</time></trkpt><trkpt lat="44.021078304960774" lon="11.32905224523602"><ele>350.0</ele><time>2026-04-11T11:27:13Z</time></trkpt><trkpt lat="44.02112782185004" lon="11.328893321576523"><ele>350.0</ele><time>2026-04-11T11:27:14Z</time></trkpt><trkpt lat="44.021158907650126" lon="11.328755319511284"><ele>350.0</ele><time>2026-04-11T11:27:15Z</time></trkpt><trkpt lat="44.021187759286526" lon="11.328628768449818"><ele>350.0</ele><time>2026-04-11T11:27:16Z</time></trkpt><trkpt lat="44.02120692234057" lon="11.328521030417653"><ele>350.0</ele><time>2026-04-11T11:27:17Z</time></trkpt><trkpt lat="44.021244673432484" lon="11.32836283571007"><ele>350.0</ele><time>2026-04-11T11:27:19Z</time></trkpt><trkpt lat="44.02128359229755" lon="11.328275181273156"><ele>350.0</ele><time>2026-04-11T11:27:20Z</time></trkpt><trkpt lat="44.02128119129943" lon="11.328176387641001"><ele>350.0</ele><time>2026-04-11T11:27:21Z</time></trkpt><trkpt lat="44.021402470249235" lon="11.328122723434893"><ele>350.0</ele><time>2026-04-11T11:27:22Z</time></trkpt><trkpt lat="44.0214671046738" lon="11.328049523742187"><ele>350.0</ele><time>2026-04-11T11:27:23Z</time></trkpt><trkpt lat="44.02154462723237" lon="11.328003729612547"><ele>350.0</ele><time>2026-04-11T11:27:24Z</time></trkpt><trkpt lat="44.021634443252175" lon="11.328011956572817"><ele>351.6</ele><time>2026-04-11T11:27:25Z</time></trkpt><trkpt lat="44.02170879308538" lon="11.328082109984056"><ele>353.2</ele><time>2026-04-11T11:27:26Z</time></trkpt><trkpt lat="44.02179014669742" lon="11.328129326893077"><ele>354.79999999999995</ele><time>2026-04-11T11:27:27Z</time></trkpt><trkpt lat="44.02189799654599" lon="11.328160441942314"><ele>356.4</ele><time>2026-04-11T11:27:28Z</time></trkpt><trkpt lat="44.021975900018994" lon="11.328160861305035"><ele>358.0</ele><time>2026-04-11T11:27:29Z</time></trkpt><trkpt lat="44.02205358820444" lon="11.328117339820782"><ele>358.59999999999997</ele><time>2026-04-11T11:27:30Z</time></trkpt><trkpt lat="44.02213744213677" lon="11.328048709143989"><ele>359.2</ele><time>2026-04-11T11:27:31Z</time></trkpt><trkpt lat="44.02221962014698" lon="11.327988188017414"><ele>359.8</ele><time>2026-04-11T11:27:32Z</time></trkpt><trkpt lat="44.02230709766755" lon="11.327938655299644"><ele>360.4</ele><time>2026-04-11T11:27:33Z</time></trkpt><trkpt lat="44.02240279306274" lon="11.327871275985851"><ele>361.0</ele><time>2026-04-11T11:27:34Z</time></trkpt><trkpt lat="44.02249452633367" lon="11.327817357843267"><ele>361.0</ele><time>2026-04-11T11:27:35Z</time></trkpt><trkpt lat="44.02258194550436" lon="11.327769998004875"><ele>361.0</ele><time>2026-04-11T11:27:36Z</time></trkpt><trkpt lat="44.02269103036771" lon="11.32773931683284"><ele>361.0</ele><time>2026-04-11T11:27:37Z</time></trkpt><trkpt lat="44.022800704756456" lon="11.32774524033125"><ele>361.0</ele><time>2026-04-11T11:27:38Z</time></trkpt><trkpt lat="44.022888996737414" lon="11.327736131092955"><ele>361.0</ele><time>2026-04-11T11:27:39Z</time></trkpt><trkpt lat="44.02296362142822" lon="11.327688620787491"><ele>361.0</ele><time>2026-04-11T11:27:40Z</time></trkpt><trkpt lat="44.02302021157811" lon="11.327603663165172"><ele>361.0</ele><time>2026-04-11T11:27:41Z</time></trkpt><trkpt lat="44.02304788439747" lon="11.327470159681997"><ele>361.0</ele><time>2026-04-11T11:27:42Z</time></trkpt><trkpt lat="44.02305817128297" lon="11.327327450942752"><ele>361.0</ele><time>2026-04-11T11:27:43Z</time></trkpt><trkpt lat="44.02306676750807" lon="11.327188065083236"><ele>361.0</ele><time>2026-04-11T11:27:44Z</time></trkpt><trkpt lat="44.02308096786721" lon="11.327044931532452"><ele>360.6</ele><time>2026-04-11T11:27:45Z</time></trkpt><trkpt lat="44.023118758939155" lon="11.326928296713481"><ele>360.20000000000005</ele><time>2026-04-11T11:27:46Z</time></trkpt><trkpt lat="44.02316413834355" lon="11.326816907239147"><ele>359.79999999999995</ele><time>2026-04-11T11:27:47Z</time></trkpt><trkpt lat="44.023220825838514" lon="11.3266888376229"><ele>359.4</ele><time>2026-04-11T11:27:48Z</time></trkpt><trkpt lat="44.023282301892884" lon="11.32655721075532"><ele>359.0</ele><time>2026-04-11T11:27:49Z</time></trkpt><trkpt lat="44.02334684053723" lon="11.326414618360975"><ele>363.25</ele><time>2026-04-11T11:27:50Z</time></trkpt><trkpt lat="44.0234186936761" lon="11.326264672197263"><ele>367.5</ele><time>2026-04-11T11:27:51Z</time></trkpt><trkpt lat="44.02348611297819" lon="11.32611128544901"><ele>371.75</ele><time>2026-04-11T11:27:52Z</time></trkpt><trkpt lat="44.0235530478835" lon="11.325957332219232"><ele>376.0</ele><time>2026-04-11T11:27:53Z</time></trkpt><trkpt lat="44.02362079226938" lon="11.325806976239843"><ele>376.0</ele><time>2026-04-11T11:27:54Z</time></trkpt><trkpt lat="44.0236889148055" lon="11.325651379810294"><ele>376.0</ele><time>2026-04-11T11:27:55Z</time></trkpt><trkpt lat="44.02375122251138" lon="11.325501887837433"><ele>376.0</ele><time>2026-04-11T11:27:56Z</time></trkpt><trkpt lat="44.023815335220874" lon="11.325348490874356"><ele>376.0</ele><time>2026-04-11T11:27:57Z</time></trkpt><trkpt lat="44.02388084950549" lon="11.3251951274583"><ele>376.6</ele><time>2026-04-11T11:27:58Z</time></trkpt><trkpt lat="44.02394314540796" lon="11.325053811540386"><ele>377.20000000000005</ele><time>2026-04-11T11:27:59Z</time></trkpt><trkpt lat="44.02399859517195" lon="11.324938822946084"><ele>377.79999999999995</ele><time>2026-04-11T11:28:00Z</time></trkpt><trkpt lat="44.02404119804187" lon="11.324810707937983"><ele>378.4</ele><time>2026-04-11T11:28:01Z</time></trkpt><trkpt lat="44.024094001772625" lon="11.324688560495327"><ele>379.0</ele><time>2026-04-11T11:28:02Z</time></trkpt><trkpt lat="44.024151096133956" lon="11.324575911250356"><ele>382.2</ele><time>2026-04-11T11:28:03Z</time></trkpt><trkpt lat="44.02421545411654" lon="11.324471465757815"><ele>385.4</ele><time>2026-04-11T11:28:04Z</time></trkpt><trkpt lat="44.02428575639929" lon="11.324372204911029"><ele>388.6</ele><time>2026-04-11T11:28:05Z</time></trkpt><trkpt lat="44.02435428518072" lon="11.32428685486268"><ele>391.8</ele><time>2026-04-11T11:28:06Z</time></trkpt><trkpt lat="44.024421325932195" lon="11.324203610780343"><ele>395.0</ele><time>2026-04-11T11:28:07Z</time></trkpt><trkpt lat="44.02452644288275" lon="11.324101104162397"><ele>395.0</ele><time>2026-04-11T11:28:08Z</time></trkpt><trkpt lat="44.0246068049682" lon="11.324016203163094"><ele>395.0</ele><time>2026-04-11T11:28:09Z</time></trkpt><trkpt lat="44.024717074665894" lon="11.323947596956"><ele>395.0</ele><time>2026-04-11T11:28:09.998Z</time></trkpt><trkpt lat="44.02483221174544" lon="11.323915655774957"><ele>395.0</ele><time>2026-04-11T11:28:10.998Z</time></trkpt><trkpt lat="44.02493989358087" lon="11.32389918750921"><ele>395.0</ele><time>2026-04-11T11:28:11.998Z</time></trkpt><trkpt lat="44.02505525301612" lon="11.323884602643597"><ele>395.0</ele><time>2026-04-11T11:28:12.998Z</time></trkpt><trkpt lat="44.025174338793704" lon="11.323869992274755"><ele>395.0</ele><time>2026-04-11T11:28:13.998Z</time></trkpt><trkpt lat="44.02528313622773" lon="11.323863913430822"><ele>395.0</ele><time>2026-04-11T11:28:14.998Z</time></trkpt><trkpt lat="44.02539483999764" lon="11.323878791353788"><ele>395.0</ele><time>2026-04-11T11:28:15.998Z</time></trkpt><trkpt lat="44.02551190112114" lon="11.323908225472401"><ele>395.0</ele><time>2026-04-11T11:28:16.998Z</time></trkpt><trkpt lat="44.025612680459815" lon="11.323940542265273"><ele>395.0</ele><time>2026-04-11T11:28:17.998Z</time></trkpt><trkpt lat="44.02571063706231" lon="11.323981586557329"><ele>395.0</ele><time>2026-04-11T11:28:18.998Z</time></trkpt><trkpt lat="44.02579418658388" lon="11.324004685317096"><ele>395.0</ele><time>2026-04-11T11:28:19.998Z</time></trkpt><trkpt lat="44.025873098268086" lon="11.32408135010071"><ele>395.0</ele><time>2026-04-11T11:28:20.999Z</time></trkpt><trkpt lat="44.025960733164524" lon="11.32414978753052"><ele>393.6</ele><time>2026-04-11T11:28:21.999Z</time></trkpt><trkpt lat="44.026046183002734" lon="11.324207170498855"><ele>392.2</ele><time>2026-04-11T11:28:22.998Z</time></trkpt><trkpt lat="44.02613230447331" lon="11.32423777194464"><ele>390.79999999999995</ele><time>2026-04-11T11:28:23.998Z</time></trkpt><trkpt lat="44.026212247891365" lon="11.324214766370535"><ele>389.4</ele><time>2026-04-11T11:28:24.998Z</time></trkpt><trkpt lat="44.02628891349557" lon="11.324115245886567"><ele>388.0</ele><time>2026-04-11T11:28:25.998Z</time></trkpt><trkpt lat="44.026354303469176" lon="11.323966759426245"><ele>383.25</ele><time>2026-04-11T11:28:26.998Z</time></trkpt><trkpt lat="44.026391966441764" lon="11.323789105065208"><ele>378.5</ele><time>2026-04-11T11:28:27.998Z</time></trkpt><trkpt lat="44.026423851283205" lon="11.32359520266981"><ele>373.75</ele><time>2026-04-11T11:28:28.999Z</time></trkpt><trkpt lat="44.026443558727095" lon="11.323395646749558"><ele>369.0</ele><time>2026-04-11T11:28:29.999Z</time></trkpt><trkpt lat="44.02644853757369" lon="11.323201909380414"><ele>367.25</ele><time>2026-04-11T11:28:30.999Z</time></trkpt><trkpt lat="44.02644815834294" lon="11.323002204513719"><ele>365.5</ele><time>2026-04-11T11:28:31.999Z</time></trkpt><trkpt lat="44.02645546054244" lon="11.322833975518124"><ele>363.75</ele><time>2026-04-11T11:28:32.999Z</time></trkpt><trkpt lat="44.026473622774525" lon="11.32268035627483"><ele>362.0</ele><time>2026-04-11T11:28:33.999Z</time></trkpt><trkpt lat="44.02651017331117" lon="11.322523071584982"><ele>362.0</ele><time>2026-04-11T11:28:34.999Z</time></trkpt><trkpt lat="44.02657177183927" lon="11.322359782676896"><ele>362.0</ele><time>2026-04-11T11:28:35.999Z</time></trkpt><trkpt lat="44.026638720143474" lon="11.322211756215525"><ele>362.0</ele><time>2026-04-11T11:28:36.999Z</time></trkpt><trkpt lat="44.02670609688541" lon="11.322087602648502"><ele>362.0</ele><time>2026-04-11T11:28:37.999Z</time></trkpt><trkpt lat="44.02675614667759" lon="11.321979249935007"><ele>364.6666666666667</ele><time>2026-04-11T11:28:38.999Z</time></trkpt><trkpt lat="44.026793007129505" lon="11.321881582480424"><ele>367.33333333333337</ele><time>2026-04-11T11:28:39.999Z</time></trkpt><trkpt lat="44.026841602994786" lon="11.32179513422804"><ele>370.0</ele><time>2026-04-11T11:28:40.999Z</time></trkpt><trkpt lat="44.02692633221043" lon="11.321695269449215"><ele>372.6666666666667</ele><time>2026-04-11T11:28:43.999Z</time></trkpt><trkpt lat="44.02700034492257" lon="11.321669463236413"><ele>375.3333333333333</ele><time>2026-04-11T11:28:44.999Z</time></trkpt><trkpt lat="44.0270979686047" lon="11.321629401545797"><ele>378.0</ele><time>2026-04-11T11:28:45.999Z</time></trkpt><trkpt lat="44.02720703105281" lon="11.321564690216693"><ele>378.0</ele><time>2026-04-11T11:28:46.999Z</time></trkpt><trkpt lat="44.02729669909941" lon="11.321526158557273"><ele>378.0</ele><time>2026-04-11T11:28:47.999Z</time></trkpt><trkpt lat="44.027356319089876" lon="11.321488534669179"><ele>378.0</ele><time>2026-04-11T11:28:48.999Z</time></trkpt><trkpt lat="44.027414547964796" lon="11.321449525784283"><ele>378.0</ele><time>2026-04-11T11:28:49.999Z</time></trkpt><trkpt lat="44.027460003603395" lon="11.321338724901404"><ele>378.0</ele><time>2026-04-11T11:28:50.999Z</time></trkpt><trkpt lat="44.02746223152519" lon="11.321209443968632"><ele>378.0</ele><time>2026-04-11T11:28:51.999Z</time></trkpt><trkpt lat="44.027451066875116" lon="11.321096694569441"><ele>376.3333333333333</ele><time>2026-04-11T11:28:52.999Z</time></trkpt><trkpt lat="44.02744333651672" lon="11.320983389759851"><ele>374.6666666666667</ele><time>2026-04-11T11:28:53.999Z</time></trkpt><trkpt lat="44.02743771275873" lon="11.320858109786805"><ele>373.0</ele><time>2026-04-11T11:28:54.999Z</time></trkpt><trkpt lat="44.02743779450439" lon="11.320720655784246"><ele>371.33333333333337</ele><time>2026-04-11T11:28:55.999Z</time></trkpt><trkpt lat="44.02743991926046" lon="11.320602996249109"><ele>369.6666666666667</ele><time>2026-04-11T11:28:56.999Z</time></trkpt><trkpt lat="44.027445715113906" lon="11.320506513206864"><ele>368.0</ele><time>2026-04-11T11:28:57.999Z</time></trkpt><trkpt lat="44.02744790771765" lon="11.320357276266304"><ele>369.59999999999997</ele><time>2026-04-11T11:28:58.999Z</time></trkpt><trkpt lat="44.027484189728845" lon="11.320209252674383"><ele>371.2</ele><time>2026-04-11T11:28:59.999Z</time></trkpt><trkpt lat="44.02749879333372" lon="11.320065300015425"><ele>372.8</ele><time>2026-04-11T11:29:00.999Z</time></trkpt><trkpt lat="44.027503267168726" lon="11.319929205222914"><ele>374.4</ele><time>2026-04-11T11:29:01.999Z</time></trkpt><trkpt lat="44.02750658607788" lon="11.319799046701405"><ele>376.0</ele><time>2026-04-11T11:29:02.999Z</time></trkpt><trkpt lat="44.027508675894005" lon="11.319655385251709"><ele>376.0</ele><time>2026-04-11T11:29:03.999Z</time></trkpt><trkpt lat="44.027513157063254" lon="11.319538000086242"><ele>376.0</ele><time>2026-04-11T11:29:04.999Z</time></trkpt><trkpt lat="44.02752265042083" lon="11.319433378390645"><ele>376.0</ele><time>2026-04-11T11:29:05.999Z</time></trkpt><trkpt lat="44.02752599833305" lon="11.319328389947755"><ele>376.0</ele><time>2026-04-11T11:29:06.999Z</time></trkpt><trkpt lat="44.0275439329153" lon="11.319217938610285"><ele>376.0</ele><time>2026-04-11T11:29:07.999Z</time></trkpt><trkpt lat="44.02756517764259" lon="11.319115493416383"><ele>376.0</ele><time>2026-04-11T11:29:08.999Z</time></trkpt><trkpt lat="44.02759302601282" lon="11.319008233498733"><ele>375.6</ele><time>2026-04-11T11:29:09.999Z</time></trkpt><trkpt lat="44.027629912543034" lon="11.31890068507428"><ele>375.20000000000005</ele><time>2026-04-11T11:29:10.999Z</time></trkpt><trkpt lat="44.027665516280464" lon="11.318815361446264"><ele>374.79999999999995</ele><time>2026-04-11T11:29:11.999Z</time></trkpt><trkpt lat="44.02774397877411" lon="11.318657444692574"><ele>374.4</ele><time>2026-04-11T11:29:13.999Z</time></trkpt><trkpt lat="44.02781630353956" lon="11.318551757586384"><ele>374.0</ele><time>2026-04-11T11:29:15.999Z</time></trkpt><trkpt lat="44.02788829396813" lon="11.318440302645596"><ele>374.0</ele><time>2026-04-11T11:29:17.999Z</time></trkpt><trkpt lat="44.02789974432698" lon="11.318348698102588"><ele>374.0</ele><time>2026-04-11T11:29:18.999Z</time></trkpt><trkpt lat="44.02783496143893" lon="11.318222490435323"><ele>374.0</ele><time>2026-04-11T11:29:20.999Z</time></trkpt><trkpt lat="44.02776570397812" lon="11.318197070521729"><ele>374.0</ele><time>2026-04-11T11:29:21.999Z</time></trkpt><trkpt lat="44.02769831736796" lon="11.318190358381155"><ele>374.0</ele><time>2026-04-11T11:29:22.999Z</time></trkpt><trkpt lat="44.02760136585219" lon="11.318124718338915"><ele>374.0</ele><time>2026-04-11T11:29:24.999Z</time></trkpt><trkpt lat="44.02755840035029" lon="11.318040419772315"><ele>375.1666666666667</ele><time>2026-04-11T11:29:25.999Z</time></trkpt><trkpt lat="44.027502566677306" lon="11.317958728086479"><ele>376.33333333333337</ele><time>2026-04-11T11:29:26.999Z</time></trkpt><trkpt lat="44.02744665118267" lon="11.317880843879895"><ele>377.5</ele><time>2026-04-11T11:29:27.999Z</time></trkpt><trkpt lat="44.02739362528794" lon="11.317788730857037"><ele>378.6666666666667</ele><time>2026-04-11T11:29:28.999Z</time></trkpt><trkpt lat="44.02735894463018" lon="11.317699821372704"><ele>379.8333333333333</ele><time>2026-04-11T11:29:29.999Z</time></trkpt><trkpt lat="44.027328504070574" lon="11.317576433871379"><ele>381.0</ele><time>2026-04-11T11:29:30.999Z</time></trkpt><trkpt lat="44.02729995366332" lon="11.317479126232008"><ele>379.3333333333333</ele><time>2026-04-11T11:29:31.999Z</time></trkpt><trkpt lat="44.02727650315026" lon="11.31737764572438"><ele>377.6666666666667</ele><time>2026-04-11T11:29:32.999Z</time></trkpt><trkpt lat="44.02725386689541" lon="11.317280574453177"><ele>376.0</ele><time>2026-04-11T11:29:33.999Z</time></trkpt><trkpt lat="44.027212539410655" lon="11.317206293321815"><ele>374.33333333333337</ele><time>2026-04-11T11:29:34.999Z</time></trkpt><trkpt lat="44.02714197282954" lon="11.317122772604515"><ele>372.6666666666667</ele><time>2026-04-11T11:29:35.999Z</time></trkpt><trkpt lat="44.02706478095565" lon="11.317070980821333"><ele>371.0</ele><time>2026-04-11T11:29:36.999Z</time></trkpt><trkpt lat="44.026981435622154" lon="11.317004785756923"><ele>371.0</ele><time>2026-04-11T11:29:37.999Z</time></trkpt><trkpt lat="44.026896843437086" lon="11.316965845285084"><ele>371.0</ele><time>2026-04-11T11:29:38.999Z</time></trkpt><trkpt lat="44.026815038185546" lon="11.316928854795842"><ele>371.0</ele><time>2026-04-11T11:29:39.999Z</time></trkpt><trkpt lat="44.02674833654151" lon="11.316886065287688"><ele>371.0</ele><time>2026-04-11T11:29:40.999Z</time></trkpt><trkpt lat="44.02669057018548" lon="11.316832120189643"><ele>371.0</ele><time>2026-04-11T11:29:41.999Z</time></trkpt><trkpt lat="44.0266284775431" lon="11.316765189385867"><ele>371.0</ele><time>2026-04-11T11:29:42.999Z</time></trkpt><trkpt lat="44.026589060146556" lon="11.316623336150355"><ele>368.5</ele><time>2026-04-11T11:29:44.999Z</time></trkpt><trkpt lat="44.026545720667606" lon="11.316477149200395"><ele>366.0</ele><time>2026-04-11T11:29:46.999Z</time></trkpt><trkpt lat="44.02652087281408" lon="11.316370031703306"><ele>363.5</ele><time>2026-04-11T11:29:48Z</time></trkpt><trkpt lat="44.02649953341114" lon="11.31627357779952"><ele>361.0</ele><time>2026-04-11T11:29:49Z</time></trkpt><trkpt lat="44.0264770206968" lon="11.316177941638564"><ele>358.5</ele><time>2026-04-11T11:29:50Z</time></trkpt><trkpt lat="44.02645639621593" lon="11.31608399125891"><ele>356.0</ele><time>2026-04-11T11:29:51Z</time></trkpt><trkpt lat="44.02646931680788" lon="11.315919163456009"><ele>356.0</ele><time>2026-04-11T11:29:53Z</time></trkpt><trkpt lat="44.02651167073193" lon="11.315755159454513"><ele>356.0</ele><time>2026-04-11T11:29:55Z</time></trkpt><trkpt lat="44.026490711081344" lon="11.315657662402964"><ele>356.0</ele><time>2026-04-11T11:29:56Z</time></trkpt><trkpt lat="44.02645512313716" lon="11.31555950075592"><ele>356.0</ele><time>2026-04-11T11:29:57Z</time></trkpt><trkpt lat="44.026420082750576" lon="11.315473084471845"><ele>356.0</ele><time>2026-04-11T11:29:58Z</time></trkpt><trkpt lat="44.02637744223031" lon="11.315395678659485"><ele>356.0</ele><time>2026-04-11T11:29:59Z</time></trkpt><trkpt lat="44.02634416080645" lon="11.315316405370503"><ele>356.20000000000005</ele><time>2026-04-11T11:30:00Z</time></trkpt><trkpt lat="44.02631797946796" lon="11.315177020390982"><ele>356.40000000000003</ele><time>2026-04-11T11:30:02Z</time></trkpt><trkpt lat="44.0263592783888" lon="11.3150086761455"><ele>356.6</ele><time>2026-04-11T11:30:04Z</time></trkpt><trkpt lat="44.026384274481636" lon="11.31490602485841"><ele>356.8</ele><time>2026-04-11T11:30:05Z</time></trkpt><trkpt lat="44.02640503788346" lon="11.314806121420302"><ele>357.0</ele><time>2026-04-11T11:30:06Z</time></trkpt><trkpt lat="44.026436062671415" lon="11.314666902370387"><ele>358.8</ele><time>2026-04-11T11:30:07Z</time></trkpt><trkpt lat="44.026444692132664" lon="11.314492905250441"><ele>360.6</ele><time>2026-04-11T11:30:08Z</time></trkpt><trkpt lat="44.02644114283701" lon="11.314315253702512"><ele>362.40000000000003</ele><time>2026-04-11T11:30:09Z</time></trkpt><trkpt lat="44.02646117630056" lon="11.314189007947231"><ele>364.20000000000005</ele><time>2026-04-11T11:30:10Z</time></trkpt><trkpt lat="44.02647664749726" lon="11.314048730192813"><ele>366.0</ele><time>2026-04-11T11:30:11Z</time></trkpt><trkpt lat="44.02649145850019" lon="11.313925920950677"><ele>365.8333333333333</ele><time>2026-04-11T11:30:12Z</time></trkpt><trkpt lat="44.026490381339414" lon="11.313805024816904"><ele>365.6666666666667</ele><time>2026-04-11T11:30:13Z</time></trkpt><trkpt lat="44.02649822683912" lon="11.313707479995873"><ele>365.5</ele><time>2026-04-11T11:30:14Z</time></trkpt><trkpt lat="44.02652326439592" lon="11.31355282154861"><ele>365.33333333333337</ele><time>2026-04-11T11:30:15.998Z</time></trkpt><trkpt lat="44.02654463108342" lon="11.31345089381963"><ele>365.1666666666667</ele><time>2026-04-11T11:30:16.998Z</time></trkpt><trkpt lat="44.02655380921143" lon="11.313332676122792"><ele>365.0</ele><time>2026-04-11T11:30:17.998Z</time></trkpt><trkpt lat="44.02656557711797" lon="11.31322499821596"><ele>365.0</ele><time>2026-04-11T11:30:18.998Z</time></trkpt><trkpt lat="44.02656947259901" lon="11.31312397876043"><ele>365.0</ele><time>2026-04-11T11:30:19.998Z</time></trkpt><trkpt lat="44.02657451629186" lon="11.31303076081148"><ele>365.0</ele><time>2026-04-11T11:30:20.998Z</time></trkpt><trkpt lat="44.02658018022679" lon="11.312936771233606"><ele>365.0</ele><time>2026-04-11T11:30:21.998Z</time></trkpt><trkpt lat="44.02658376050369" lon="11.312839082259263"><ele>365.0</ele><time>2026-04-11T11:30:22.998Z</time></trkpt><trkpt lat="44.02658415647687" lon="11.31274448357183"><ele>365.0</ele><time>2026-04-11T11:30:23.998Z</time></trkpt><trkpt lat="44.02658344952805" lon="11.312598177190063"><ele>364.5</ele><time>2026-04-11T11:30:25.998Z</time></trkpt><trkpt lat="44.026583184773735" lon="11.312497216600844"><ele>364.0</ele><time>2026-04-11T11:30:27.998Z</time></trkpt><trkpt lat="44.02658179365707" lon="11.312404727952492"><ele>363.5</ele><time>2026-04-11T11:30:30.998Z</time></trkpt><trkpt lat="44.02656911544247" lon="11.312306598682738"><ele>363.0</ele><time>2026-04-11T11:31:41.999Z</time></trkpt><trkpt lat="44.02658462702968" lon="11.312216782720636"><ele>362.5</ele><time>2026-04-11T11:31:46Z</time></trkpt><trkpt lat="44.02660231403931" lon="11.31205507181102"><ele>362.0</ele><time>2026-04-11T11:31:48Z</time></trkpt><trkpt lat="44.02661843854544" lon="11.311965496781689"><ele>363.8</ele><time>2026-04-11T11:31:49Z</time></trkpt><trkpt lat="44.02665111347242" lon="11.31186799205692"><ele>365.6</ele><time>2026-04-11T11:31:50Z</time></trkpt><trkpt lat="44.02669809538503" lon="11.31174884349389"><ele>367.40000000000003</ele><time>2026-04-11T11:31:51Z</time></trkpt><trkpt lat="44.026748510924584" lon="11.311638544312043"><ele>369.20000000000005</ele><time>2026-04-11T11:31:52Z</time></trkpt><trkpt lat="44.026804053480106" lon="11.311528524340975"><ele>371.0</ele><time>2026-04-11T11:31:53Z</time></trkpt><trkpt lat="44.02686584425166" lon="11.311413024276344"><ele>371.0</ele><time>2026-04-11T11:31:54Z</time></trkpt><trkpt lat="44.0269215050524" lon="11.311277060971095"><ele>371.0</ele><time>2026-04-11T11:31:55Z</time></trkpt><trkpt lat="44.02696607491463" lon="11.311144254145747"><ele>371.0</ele><time>2026-04-11T11:31:56Z</time></trkpt><trkpt lat="44.02700161047417" lon="11.311018696141273"><ele>371.0</ele><time>2026-04-11T11:31:57Z</time></trkpt><trkpt lat="44.027030288530405" lon="11.310903029864916"><ele>371.0</ele><time>2026-04-11T11:31:58Z</time></trkpt><trkpt lat="44.02706161641543" lon="11.310784617232141"><ele>371.0</ele><time>2026-04-11T11:31:59Z</time></trkpt><trkpt lat="44.027101231228464" lon="11.310660216210266"><ele>371.0</ele><time>2026-04-11T11:32:00Z</time></trkpt><trkpt lat="44.027140162818675" lon="11.31051306196234"><ele>371.0</ele><time>2026-04-11T11:32:01Z</time></trkpt><trkpt lat="44.027165546847435" lon="11.31035452909608"><ele>371.0</ele><time>2026-04-11T11:32:02Z</time></trkpt><trkpt lat="44.02716667808174" lon="11.31018188435186"><ele>371.5</ele><time>2026-04-11T11:32:03Z</time></trkpt><trkpt lat="44.02712531172035" lon="11.310001031846598"><ele>372.0</ele><time>2026-04-11T11:32:04Z</time></trkpt><trkpt lat="44.027066926644714" lon="11.309829061009648"><ele>372.5</ele><time>2026-04-11T11:32:05Z</time></trkpt><trkpt lat="44.027000746240695" lon="11.309650529576214"><ele>373.0</ele><time>2026-04-11T11:32:06Z</time></trkpt><trkpt lat="44.02694813480742" lon="11.309488111801782"><ele>374.5</ele><time>2026-04-11T11:32:07Z</time></trkpt><trkpt lat="44.02689236573444" lon="11.30933355939364"><ele>376.0</ele><time>2026-04-11T11:32:08Z</time></trkpt><trkpt lat="44.02683899772357" lon="11.309202182818206"><ele>377.5</ele><time>2026-04-11T11:32:09Z</time></trkpt><trkpt lat="44.02677353387113" lon="11.30907041910877"><ele>379.0</ele><time>2026-04-11T11:32:10Z</time></trkpt><trkpt lat="44.026720247204274" lon="11.308942837711658"><ele>379.4</ele><time>2026-04-11T11:32:11Z</time></trkpt><trkpt lat="44.026667587804134" lon="11.30881404722425"><ele>379.79999999999995</ele><time>2026-04-11T11:32:12Z</time></trkpt><trkpt lat="44.026616827693516" lon="11.308683313010393"><ele>380.20000000000005</ele><time>2026-04-11T11:32:13Z</time></trkpt><trkpt lat="44.02657099728571" lon="11.308548576784656"><ele>380.6</ele><time>2026-04-11T11:32:14Z</time></trkpt><trkpt lat="44.026521666828565" lon="11.308413379632018"><ele>381.0</ele><time>2026-04-11T11:32:15Z</time></trkpt><trkpt lat="44.02651432605551" lon="11.308262587736237"><ele>380.25</ele><time>2026-04-11T11:32:16Z</time></trkpt><trkpt lat="44.02651180471462" lon="11.30811256868845"><ele>379.5</ele><time>2026-04-11T11:32:17Z</time></trkpt><trkpt lat="44.02648662221871" lon="11.307941008471031"><ele>378.75</ele><time>2026-04-11T11:32:18Z</time></trkpt><trkpt lat="44.02642548746515" lon="11.307789250678342"><ele>378.0</ele><time>2026-04-11T11:32:19Z</time></trkpt><trkpt lat="44.02633821808009" lon="11.307638694063844"><ele>378.0</ele><time>2026-04-11T11:32:20Z</time></trkpt><trkpt lat="44.0262239913439" lon="11.307528108271521"><ele>378.0</ele><time>2026-04-11T11:32:20.998Z</time></trkpt><trkpt lat="44.02611153814961" lon="11.30744280039821"><ele>378.0</ele><time>2026-04-11T11:32:21.998Z</time></trkpt><trkpt lat="44.02601355667752" lon="11.307355444689772"><ele>378.0</ele><time>2026-04-11T11:32:22.998Z</time></trkpt><trkpt lat="44.02591587189894" lon="11.307272908088713"><ele>378.79999999999995</ele><time>2026-04-11T11:32:23.998Z</time></trkpt><trkpt lat="44.02581613439514" lon="11.307208828929605"><ele>379.6</ele><time>2026-04-11T11:32:24.998Z</time></trkpt><trkpt lat="44.025733665321454" lon="11.307127818174147"><ele>380.4</ele><time>2026-04-11T11:32:25.998Z</time></trkpt><trkpt lat="44.02565730113619" lon="11.307031651127694"><ele>381.20000000000005</ele><time>2026-04-11T11:32:26.998Z</time></trkpt><trkpt lat="44.025603678530935" lon="11.30690365841744"><ele>382.0</ele><time>2026-04-11T11:32:27.998Z</time></trkpt><trkpt lat="44.02558184085183" lon="11.306777504406941"><ele>380.8</ele><time>2026-04-11T11:32:28.998Z</time></trkpt><trkpt lat="44.02557644919643" lon="11.306637052774322"><ele>379.6</ele><time>2026-04-11T11:32:29.998Z</time></trkpt><trkpt lat="44.02559071146931" lon="11.306478955924957"><ele>378.40000000000003</ele><time>2026-04-11T11:32:30.998Z</time></trkpt><trkpt lat="44.0255836883647" lon="11.30631863498378"><ele>377.20000000000005</ele><time>2026-04-11T11:32:31.998Z</time></trkpt><trkpt lat="44.02553108961565" lon="11.306175795004682"><ele>376.0</ele><time>2026-04-11T11:32:32.998Z</time></trkpt><trkpt lat="44.025461805670496" lon="11.30603730687026"><ele>376.0</ele><time>2026-04-11T11:32:33.998Z</time></trkpt><trkpt lat="44.025361102555316" lon="11.30591433518181"><ele>376.0</ele><time>2026-04-11T11:32:34.998Z</time></trkpt><trkpt lat="44.02525040134818" lon="11.305803060817983"><ele>376.0</ele><time>2026-04-11T11:32:35.999Z</time></trkpt><trkpt lat="44.025161466023846" lon="11.305699076353568"><ele>376.0</ele><time>2026-04-11T11:32:36.999Z</time></trkpt><trkpt lat="44.025080386568945" lon="11.305591341317106"><ele>375.25</ele><time>2026-04-11T11:32:37.999Z</time></trkpt><trkpt lat="44.0250086320849" lon="11.305466287506276"><ele>374.5</ele><time>2026-04-11T11:32:38.999Z</time></trkpt><trkpt lat="44.02495106711356" lon="11.305331077115602"><ele>373.75</ele><time>2026-04-11T11:32:39.999Z</time></trkpt><trkpt lat="44.02490596431275" lon="11.305171210866906"><ele>373.0</ele><time>2026-04-11T11:32:40.999Z</time></trkpt><trkpt lat="44.024890594816235" lon="11.30500354667405"><ele>373.0</ele><time>2026-04-11T11:32:41.999Z</time></trkpt><trkpt lat="44.02489667884917" lon="11.304819642882942"><ele>373.0</ele><time>2026-04-11T11:32:42.999Z</time></trkpt><trkpt lat="44.024921247411704" lon="11.304628587072736"><ele>373.0</ele><time>2026-04-11T11:32:43.999Z</time></trkpt><trkpt lat="44.024951139328536" lon="11.304425469224308"><ele>373.0</ele><time>2026-04-11T11:32:44.999Z</time></trkpt><trkpt lat="44.024979804181065" lon="11.304235477656363"><ele>375.0</ele><time>2026-04-11T11:32:45.999Z</time></trkpt><trkpt lat="44.02500292738124" lon="11.304065275987849"><ele>377.0</ele><time>2026-04-11T11:32:46.999Z</time></trkpt><trkpt lat="44.02501862541925" lon="11.303911528806603"><ele>379.0</ele><time>2026-04-11T11:32:47.999Z</time></trkpt><trkpt lat="44.025020913224274" lon="11.303774518998177"><ele>381.0</ele><time>2026-04-11T11:32:48.999Z</time></trkpt><trkpt lat="44.025014040281555" lon="11.303653587600273"><ele>383.0</ele><time>2026-04-11T11:32:49.999Z</time></trkpt><trkpt lat="44.02501165421545" lon="11.303555276344554"><ele>381.75</ele><time>2026-04-11T11:32:50.999Z</time></trkpt><trkpt lat="44.02487899761912" lon="11.303399541359662"><ele>380.5</ele><time>2026-04-11T11:32:52.999Z</time></trkpt><trkpt lat="44.024781593401805" lon="11.303386470233352"><ele>379.25</ele><time>2026-04-11T11:32:53.999Z</time></trkpt><trkpt lat="44.02466288647052" lon="11.303391893411309"><ele>378.0</ele><time>2026-04-11T11:32:54.999Z</time></trkpt><trkpt lat="44.024539831369296" lon="11.303353114190601"><ele>378.0</ele><time>2026-04-11T11:32:55.999Z</time></trkpt><trkpt lat="44.02442551456649" lon="11.303357470789502"><ele>378.0</ele><time>2026-04-11T11:32:56.999Z</time></trkpt><trkpt lat="44.02432226037444" lon="11.303326898974598"><ele>378.0</ele><time>2026-04-11T11:32:57.999Z</time></trkpt><trkpt lat="44.02421274826768" lon="11.303288049317828"><ele>378.0</ele><time>2026-04-11T11:32:58.999Z</time></trkpt><trkpt lat="44.02411181465512" lon="11.303243310282145"><ele>378.0</ele><time>2026-04-11T11:32:59.999Z</time></trkpt><trkpt lat="44.024028583034614" lon="11.303215775708106"><ele>377.4</ele><time>2026-04-11T11:33:00.999Z</time></trkpt><trkpt lat="44.023945780847285" lon="11.30316499435316"><ele>376.79999999999995</ele><time>2026-04-11T11:33:01.999Z</time></trkpt><trkpt lat="44.02385194726902" lon="11.303134916171786"><ele>376.2</ele><time>2026-04-11T11:33:02.999Z</time></trkpt><trkpt lat="44.023749691676834" lon="11.303117826166883"><ele>375.6</ele><time>2026-04-11T11:33:03.999Z</time></trkpt><trkpt lat="44.02365127345813" lon="11.303123641721543"><ele>375.0</ele><time>2026-04-11T11:33:04.999Z</time></trkpt><trkpt lat="44.02355399989529" lon="11.30314477737041"><ele>375.0</ele><time>2026-04-11T11:33:05.999Z</time></trkpt><trkpt lat="44.02347205091408" lon="11.303174395194805"><ele>375.0</ele><time>2026-04-11T11:33:06.999Z</time></trkpt><trkpt lat="44.023400065397894" lon="11.3032114383511"><ele>375.0</ele><time>2026-04-11T11:33:07.999Z</time></trkpt><trkpt lat="44.0233380014123" lon="11.303267759979335"><ele>375.0</ele><time>2026-04-11T11:33:08.999Z</time></trkpt><trkpt lat="44.023282708982" lon="11.303324066790102"><ele>375.0</ele><time>2026-04-11T11:33:09.999Z</time></trkpt><trkpt lat="44.02319622507113" lon="11.303410976463624"><ele>375.0</ele><time>2026-04-11T11:33:11.999Z</time></trkpt><trkpt lat="44.023088932889266" lon="11.303476034752585"><ele>373.5</ele><time>2026-04-11T11:33:13.999Z</time></trkpt><trkpt lat="44.022982945503536" lon="11.303554916779593"><ele>372.0</ele><time>2026-04-11T11:33:15.999Z</time></trkpt><trkpt lat="44.02287626131293" lon="11.303597391021295"><ele>370.5</ele><time>2026-04-11T11:33:18Z</time></trkpt><trkpt lat="44.02276220679696" lon="11.303604377316653"><ele>369.0</ele><time>2026-04-11T11:33:20Z</time></trkpt><trkpt lat="44.02264255245234" lon="11.303520356263569"><ele>369.0</ele><time>2026-04-11T11:33:22Z</time></trkpt><trkpt lat="44.02257755132557" lon="11.303488549189238"><ele>369.0</ele><time>2026-04-11T11:33:23Z</time></trkpt><trkpt lat="44.02251917506925" lon="11.303450902004911"><ele>369.0</ele><time>2026-04-11T11:33:24Z</time></trkpt><trkpt lat="44.02240947913499" lon="11.303377033038425"><ele>369.0</ele><time>2026-04-11T11:33:26Z</time></trkpt><trkpt lat="44.02229942769531" lon="11.303290727259501"><ele>369.0</ele><time>2026-04-11T11:33:28Z</time></trkpt><trkpt lat="44.02219130767863" lon="11.303212186240483"><ele>367.0</ele><time>2026-04-11T11:33:30Z</time></trkpt><trkpt lat="44.02212371148582" lon="11.30315460854778"><ele>365.0</ele><time>2026-04-11T11:33:31Z</time></trkpt><trkpt lat="44.022057921761956" lon="11.303108178900384"><ele>363.0</ele><time>2026-04-11T11:33:32Z</time></trkpt><trkpt lat="44.021986098657074" lon="11.303056432108813"><ele>361.0</ele><time>2026-04-11T11:33:33Z</time></trkpt><trkpt lat="44.02192075179252" lon="11.30300000654938"><ele>359.0</ele><time>2026-04-11T11:33:34Z</time></trkpt><trkpt lat="44.02187305965518" lon="11.302936816934304"><ele>357.0</ele><time>2026-04-11T11:33:35Z</time></trkpt><trkpt lat="44.02177933778119" lon="11.302830174294613"><ele>356.40000000000003</ele><time>2026-04-11T11:33:37Z</time></trkpt><trkpt lat="44.02168587780625" lon="11.302740699148213"><ele>355.8</ele><time>2026-04-11T11:33:40Z</time></trkpt><trkpt lat="44.021597507904175" lon="11.302623118174578"><ele>355.2</ele><time>2026-04-11T11:33:42Z</time></trkpt><trkpt lat="44.02155087605408" lon="11.302548312897056"><ele>354.6</ele><time>2026-04-11T11:33:43Z</time></trkpt><trkpt lat="44.021502839110454" lon="11.302474839619075"><ele>354.0</ele><time>2026-04-11T11:33:44Z</time></trkpt><trkpt lat="44.02140551712624" lon="11.302338253093703"><ele>351.1666666666667</ele><time>2026-04-11T11:33:46Z</time></trkpt><trkpt lat="44.02135414125309" lon="11.302243787303357"><ele>348.3333333333333</ele><time>2026-04-11T11:33:47Z</time></trkpt><trkpt lat="44.02129735224606" lon="11.302188797261996"><ele>345.5</ele><time>2026-04-11T11:33:48Z</time></trkpt><trkpt lat="44.02123301708318" lon="11.302136076811163"><ele>342.66666666666663</ele><time>2026-04-11T11:33:49Z</time></trkpt><trkpt lat="44.02117014200244" lon="11.302091014661217"><ele>339.8333333333333</ele><time>2026-04-11T11:33:50Z</time></trkpt><trkpt lat="44.02104957867691" lon="11.30202778052473"><ele>337.0</ele><time>2026-04-11T11:33:52Z</time></trkpt><trkpt lat="44.020981110228604" lon="11.302006596950998"><ele>337.0</ele><time>2026-04-11T11:33:53Z</time></trkpt><trkpt lat="44.02090093012338" lon="11.301981935199823"><ele>337.0</ele><time>2026-04-11T11:33:54Z</time></trkpt><trkpt lat="44.02082690244251" lon="11.301985318776675"><ele>337.0</ele><time>2026-04-11T11:33:55Z</time></trkpt><trkpt lat="44.020762230651286" lon="11.302005963813583"><ele>337.0</ele><time>2026-04-11T11:33:56Z</time></trkpt><trkpt lat="44.02064570875055" lon="11.30204693644365"><ele>337.0</ele><time>2026-04-11T11:33:58Z</time></trkpt><trkpt lat="44.02054018205767" lon="11.302087189418176"><ele>336.0</ele><time>2026-04-11T11:34:00Z</time></trkpt><trkpt lat="44.02044263370063" lon="11.302144262897873"><ele>335.0</ele><time>2026-04-11T11:34:02Z</time></trkpt><trkpt lat="44.02037003548277" lon="11.302265972909023"><ele>334.0</ele><time>2026-04-11T11:34:04Z</time></trkpt><trkpt lat="44.02035253991757" lon="11.302376268327505"><ele>333.0</ele><time>2026-04-11T11:34:05Z</time></trkpt><trkpt lat="44.020399232163655" lon="11.302495108660748"><ele>332.0</ele><time>2026-04-11T11:34:06Z</time></trkpt><trkpt lat="44.02039055368457" lon="11.302626040543366"><ele>331.0</ele><time>2026-04-11T11:34:07Z</time></trkpt><trkpt lat="44.02038473496178" lon="11.302740987808333"><ele>330.0</ele><time>2026-04-11T11:34:08Z</time></trkpt><trkpt lat="44.02037524342867" lon="11.302828576854951"><ele>329.0</ele><time>2026-04-11T11:34:09Z</time></trkpt><trkpt lat="44.02034194044903" lon="11.302959601682236"><ele>328.0</ele><time>2026-04-11T11:34:11Z</time></trkpt><trkpt lat="44.020305160778484" lon="11.303032133786722"><ele>327.0</ele><time>2026-04-11T11:34:12Z</time></trkpt><trkpt lat="44.020195359697155" lon="11.30312249443356"><ele>326.0</ele><time>2026-04-11T11:34:14Z</time></trkpt><trkpt lat="44.020130262625315" lon="11.303151469615706"><ele>325.4</ele><time>2026-04-11T11:34:15Z</time></trkpt><trkpt lat="44.02002684388683" lon="11.303113573417551"><ele>324.8</ele><time>2026-04-11T11:34:17Z</time></trkpt><trkpt lat="44.019958431990965" lon="11.303076209507822"><ele>324.2</ele><time>2026-04-11T11:34:18Z</time></trkpt><trkpt lat="44.01985482186576" lon="11.303022191254962"><ele>323.59999999999997</ele><time>2026-04-11T11:34:19Z</time></trkpt><trkpt lat="44.01973384900412" lon="11.302973154950323"><ele>323.0</ele><time>2026-04-11T11:34:20Z</time></trkpt><trkpt lat="44.01960908178623" lon="11.302954412804766"><ele>321.75</ele><time>2026-04-11T11:34:21Z</time></trkpt><trkpt lat="44.01948062334564" lon="11.302947840964425"><ele>320.5</ele><time>2026-04-11T11:34:22Z</time></trkpt><trkpt lat="44.019346578204456" lon="11.302941700162664"><ele>319.25</ele><time>2026-04-11T11:34:23Z</time></trkpt><trkpt lat="44.0192110676657" lon="11.302925616888242"><ele>318.0</ele><time>2026-04-11T11:34:24Z</time></trkpt><trkpt lat="44.01907526361758" lon="11.30292653400163"><ele>317.25</ele><time>2026-04-11T11:34:25Z</time></trkpt><trkpt lat="44.018943571524304" lon="11.30291457830201"><ele>316.5</ele><time>2026-04-11T11:34:26Z</time></trkpt><trkpt lat="44.018810363047" lon="11.302908003963223"><ele>315.75</ele><time>2026-04-11T11:34:26.998Z</time></trkpt><trkpt lat="44.01867818443575" lon="11.302886787705168"><ele>315.0</ele><time>2026-04-11T11:34:27.998Z</time></trkpt><trkpt lat="44.018542781633414" lon="11.302848125555224"><ele>315.0</ele><time>2026-04-11T11:34:28.998Z</time></trkpt><trkpt lat="44.01842144801135" lon="11.302775706835847"><ele>315.0</ele><time>2026-04-11T11:34:29.998Z</time></trkpt><trkpt lat="44.01830798972475" lon="11.302680872123192"><ele>315.0</ele><time>2026-04-11T11:34:30.998Z</time></trkpt><trkpt lat="44.01820405025019" lon="11.302566084860977"><ele>315.0</ele><time>2026-04-11T11:34:31.998Z</time></trkpt><trkpt lat="44.01810727426485" lon="11.302439617120541"><ele>314.0</ele><time>2026-04-11T11:34:32.998Z</time></trkpt><trkpt lat="44.01802778518575" lon="11.302301376801044"><ele>313.0</ele><time>2026-04-11T11:34:33.998Z</time></trkpt><trkpt lat="44.01796795547319" lon="11.302156270008558"><ele>312.0</ele><time>2026-04-11T11:34:34.998Z</time></trkpt><trkpt lat="44.01792601957946" lon="11.301987232473707"><ele>311.0</ele><time>2026-04-11T11:34:35.998Z</time></trkpt><trkpt lat="44.0178967990037" lon="11.301806929376042"><ele>310.25</ele><time>2026-04-11T11:34:36.998Z</time></trkpt><trkpt lat="44.017868514815234" lon="11.301627663307304"><ele>309.5</ele><time>2026-04-11T11:34:37.998Z</time></trkpt><trkpt lat="44.01785078700738" lon="11.301447932638736"><ele>308.75</ele><time>2026-04-11T11:34:38.998Z</time></trkpt><trkpt lat="44.01781956415794" lon="11.301270943868985"><ele>308.0</ele><time>2026-04-11T11:34:39.998Z</time></trkpt><trkpt lat="44.01777831897601" lon="11.301108300962921"><ele>307.0</ele><time>2026-04-11T11:34:40.998Z</time></trkpt><trkpt lat="44.017757799817744" lon="11.300929914689963"><ele>306.0</ele><time>2026-04-11T11:34:41.998Z</time></trkpt><trkpt lat="44.017733575965075" lon="11.300762176776077"><ele>305.0</ele><time>2026-04-11T11:34:42.998Z</time></trkpt><trkpt lat="44.01770518728674" lon="11.300594564677041"><ele>304.0</ele><time>2026-04-11T11:34:43.998Z</time></trkpt><trkpt lat="44.01767754834001" lon="11.300425029816047"><ele>302.75</ele><time>2026-04-11T11:34:44.998Z</time></trkpt><trkpt lat="44.01764954919644" lon="11.300258365866899"><ele>301.5</ele><time>2026-04-11T11:34:45.998Z</time></trkpt><trkpt lat="44.01762047301104" lon="11.300090709077283"><ele>300.25</ele><time>2026-04-11T11:34:46.998Z</time></trkpt><trkpt lat="44.017592014409615" lon="11.299922198064104"><ele>299.0</ele><time>2026-04-11T11:34:47.999Z</time></trkpt><trkpt lat="44.017565605049256" lon="11.299749910186708"><ele>298.0</ele><time>2026-04-11T11:34:48.999Z</time></trkpt><trkpt lat="44.01753095107661" lon="11.299569848172984"><ele>297.0</ele><time>2026-04-11T11:34:49.999Z</time></trkpt><trkpt lat="44.017499621860566" lon="11.299390594225512"><ele>296.0</ele><time>2026-04-11T11:34:50.999Z</time></trkpt><trkpt lat="44.01746870677407" lon="11.299207994066288"><ele>295.0</ele><time>2026-04-11T11:34:51.999Z</time></trkpt><trkpt lat="44.01744236082324" lon="11.299028687241965"><ele>295.0</ele><time>2026-04-11T11:34:52.999Z</time></trkpt><trkpt lat="44.017412163378545" lon="11.298849134977575"><ele>295.0</ele><time>2026-04-11T11:34:53.999Z</time></trkpt><trkpt lat="44.01738163330164" lon="11.298676409807532"><ele>295.0</ele><time>2026-04-11T11:34:54.999Z</time></trkpt><trkpt lat="44.01736279558507" lon="11.298501705466327"><ele>295.0</ele><time>2026-04-11T11:34:55.999Z</time></trkpt><trkpt lat="44.017354528412326" lon="11.298312150382808"><ele>295.0</ele><time>2026-04-11T11:34:56.999Z</time></trkpt><trkpt lat="44.01737248237552" lon="11.298103716833284"><ele>295.0</ele><time>2026-04-11T11:34:57.999Z</time></trkpt><trkpt lat="44.01742308335494" lon="11.297891623590093"><ele>295.0</ele><time>2026-04-11T11:34:58.999Z</time></trkpt><trkpt lat="44.01748697318775" lon="11.297688851184668"><ele>298.75</ele><time>2026-04-11T11:34:59.999Z</time></trkpt><trkpt lat="44.017553726460704" lon="11.297489216659642"><ele>302.5</ele><time>2026-04-11T11:35:00.999Z</time></trkpt><trkpt lat="44.01761926181873" lon="11.297310219785544"><ele>306.25</ele><time>2026-04-11T11:35:01.999Z</time></trkpt><trkpt lat="44.01766650124969" lon="11.29713843031268"><ele>310.0</ele><time>2026-04-11T11:35:02.999Z</time></trkpt><trkpt lat="44.01768957431413" lon="11.29697358273878"><ele>310.25</ele><time>2026-04-11T11:35:03.999Z</time></trkpt><trkpt lat="44.01767158238683" lon="11.296807902465554"><ele>310.5</ele><time>2026-04-11T11:35:04.999Z</time></trkpt><trkpt lat="44.01762844635771" lon="11.296640909326488"><ele>310.75</ele><time>2026-04-11T11:35:05.999Z</time></trkpt><trkpt lat="44.01754975882253" lon="11.296482632745256"><ele>311.0</ele><time>2026-04-11T11:35:06.999Z</time></trkpt><trkpt lat="44.01747985915276" lon="11.296327732717385"><ele>311.0</ele><time>2026-04-11T11:35:07.999Z</time></trkpt><trkpt lat="44.017400033713905" lon="11.296187656603573"><ele>311.0</ele><time>2026-04-11T11:35:08.999Z</time></trkpt><trkpt lat="44.017324015726174" lon="11.29605111334199"><ele>311.0</ele><time>2026-04-11T11:35:09.999Z</time></trkpt><trkpt lat="44.01724613963898" lon="11.29592909998407"><ele>311.0</ele><time>2026-04-11T11:35:10.999Z</time></trkpt><trkpt lat="44.017152661526616" lon="11.29581354398398"><ele>311.0</ele><time>2026-04-11T11:35:11.999Z</time></trkpt><trkpt lat="44.017049414348975" lon="11.295684795953628"><ele>311.0</ele><time>2026-04-11T11:35:12.999Z</time></trkpt><trkpt lat="44.01693775058047" lon="11.29556447327789"><ele>311.0</ele><time>2026-04-11T11:35:13.999Z</time></trkpt><trkpt lat="44.01682202243506" lon="11.295446294322131"><ele>311.0</ele><time>2026-04-11T11:35:14.999Z</time></trkpt><trkpt lat="44.01670716084781" lon="11.295331995110418"><ele>309.25</ele><time>2026-04-11T11:35:15.999Z</time></trkpt><trkpt lat="44.01658589970564" lon="11.295223650382148"><ele>307.5</ele><time>2026-04-11T11:35:16.999Z</time></trkpt><trkpt lat="44.01647019124769" lon="11.295101395500792"><ele>305.75</ele><time>2026-04-11T11:35:17.999Z</time></trkpt><trkpt lat="44.016350544439064" lon="11.294985613950871"><ele>304.0</ele><time>2026-04-11T11:35:18.999Z</time></trkpt><trkpt lat="44.016238576058846" lon="11.294869768918048"><ele>302.75</ele><time>2026-04-11T11:35:19.999Z</time></trkpt><trkpt lat="44.01612377860526" lon="11.294749439599197"><ele>301.5</ele><time>2026-04-11T11:35:20.999Z</time></trkpt><trkpt lat="44.016007369045255" lon="11.294637101170208"><ele>300.25</ele><time>2026-04-11T11:35:22Z</time></trkpt><trkpt lat="44.015896453577575" lon="11.29452792847657"><ele>299.0</ele><time>2026-04-11T11:35:23Z</time></trkpt><trkpt lat="44.015786822420296" lon="11.294421462989197"><ele>298.5</ele><time>2026-04-11T11:35:24Z</time></trkpt><trkpt lat="44.015684349976496" lon="11.29431499235922"><ele>298.0</ele><time>2026-04-11T11:35:25Z</time></trkpt><trkpt lat="44.0155800986166" lon="11.29421873030914"><ele>297.5</ele><time>2026-04-11T11:35:26Z</time></trkpt><trkpt lat="44.015486728043356" lon="11.294118931829765"><ele>297.0</ele><time>2026-04-11T11:35:27Z</time></trkpt><trkpt lat="44.01539254688272" lon="11.294024242921877"><ele>297.0</ele><time>2026-04-11T11:35:28Z</time></trkpt><trkpt lat="44.01530034221581" lon="11.293934518124761"><ele>297.0</ele><time>2026-04-11T11:35:29Z</time></trkpt><trkpt lat="44.01521502581263" lon="11.293844938172912"><ele>297.0</ele><time>2026-04-11T11:35:30Z</time></trkpt><trkpt lat="44.015130434857376" lon="11.29375069815805"><ele>297.0</ele><time>2026-04-11T11:35:31Z</time></trkpt><trkpt lat="44.015049104589735" lon="11.29365132186787"><ele>297.0</ele><time>2026-04-11T11:35:32Z</time></trkpt><trkpt lat="44.0149709072563" lon="11.293533796750294"><ele>296.75</ele><time>2026-04-11T11:35:33Z</time></trkpt><trkpt lat="44.01490374617367" lon="11.293404904868844"><ele>296.5</ele><time>2026-04-11T11:35:34Z</time></trkpt><trkpt lat="44.01484860939795" lon="11.293253922259572"><ele>296.25</ele><time>2026-04-11T11:35:35Z</time></trkpt><trkpt lat="44.01480030556606" lon="11.293099906174742"><ele>296.0</ele><time>2026-04-11T11:35:36Z</time></trkpt><trkpt lat="44.01476087512676" lon="11.292941731156384"><ele>295.25</ele><time>2026-04-11T11:35:37Z</time></trkpt><trkpt lat="44.01473672040572" lon="11.292772734688468"><ele>294.5</ele><time>2026-04-11T11:35:38Z</time></trkpt><trkpt lat="44.01472659873722" lon="11.292587672736373"><ele>293.75</ele><time>2026-04-11T11:35:39Z</time></trkpt><trkpt lat="44.01471982644622" lon="11.292419082606633"><ele>293.0</ele><time>2026-04-11T11:35:40Z</time></trkpt><trkpt lat="44.014716311649984" lon="11.292253399379584"><ele>292.6</ele><time>2026-04-11T11:35:41Z</time></trkpt><trkpt lat="44.014711188267334" lon="11.292095349092774"><ele>292.20000000000005</ele><time>2026-04-11T11:35:42Z</time></trkpt><trkpt lat="44.01470332871578" lon="11.291945508217504"><ele>291.8</ele><time>2026-04-11T11:35:43Z</time></trkpt><trkpt lat="44.01469977592334" lon="11.291810472968244"><ele>291.40000000000003</ele><time>2026-04-11T11:35:44Z</time></trkpt><trkpt lat="44.01469756565778" lon="11.29168099520863"><ele>291.0</ele><time>2026-04-11T11:35:45Z</time></trkpt><trkpt lat="44.01468910011762" lon="11.2915775187289"><ele>291.0</ele><time>2026-04-11T11:35:46Z</time></trkpt><trkpt lat="44.01466818636398" lon="11.291475848010295"><ele>291.0</ele><time>2026-04-11T11:35:47Z</time></trkpt><trkpt lat="44.01464482265374" lon="11.291380352360505"><ele>291.0</ele><time>2026-04-11T11:35:48Z</time></trkpt><trkpt lat="44.01461580685652" lon="11.291287131815343"><ele>291.0</ele><time>2026-04-11T11:35:49Z</time></trkpt><trkpt lat="44.0145827608652" lon="11.291208261288464"><ele>291.0</ele><time>2026-04-11T11:35:50Z</time></trkpt><trkpt lat="44.01450855956547" lon="11.291099584068817"><ele>291.0</ele><time>2026-04-11T11:35:52Z</time></trkpt><trkpt lat="44.014402680529955" lon="11.291099518024636"><ele>290.5</ele><time>2026-04-11T11:35:55Z</time></trkpt><trkpt lat="44.01433823062211" lon="11.291138525389174"><ele>290.0</ele><time>2026-04-11T11:35:57Z</time></trkpt><trkpt lat="44.01425483332141" lon="11.291124796679489"><ele>289.5</ele><time>2026-04-11T11:35:59Z</time></trkpt><trkpt lat="44.014192194538104" lon="11.291154925997708"><ele>289.0</ele><time>2026-04-11T11:36:00Z</time></trkpt><trkpt lat="44.014108626916936" lon="11.291162488079145"><ele>288.5</ele><time>2026-04-11T11:36:01Z</time></trkpt><trkpt lat="44.01401597852342" lon="11.291170898996695"><ele>288.0</ele><time>2026-04-11T11:36:02Z</time></trkpt><trkpt lat="44.0139072843908" lon="11.29117007852683"><ele>287.8</ele><time>2026-04-11T11:36:03Z</time></trkpt><trkpt lat="44.01380755230711" lon="11.291205030938173"><ele>287.6</ele><time>2026-04-11T11:36:04Z</time></trkpt><trkpt lat="44.01369681013147" lon="11.29120794099586"><ele>287.4</ele><time>2026-04-11T11:36:05Z</time></trkpt><trkpt lat="44.013585152746835" lon="11.291220519023463"><ele>287.2</ele><time>2026-04-11T11:36:06Z</time></trkpt><trkpt lat="44.013469842211805" lon="11.291243730949324"><ele>287.0</ele><time>2026-04-11T11:36:07Z</time></trkpt><trkpt lat="44.01335409139724" lon="11.291273101052166"><ele>286.5</ele><time>2026-04-11T11:36:08Z</time></trkpt><trkpt lat="44.01323500695999" lon="11.291288063717955"><ele>286.0</ele><time>2026-04-11T11:36:09Z</time></trkpt><trkpt lat="44.01312308092872" lon="11.291313083578256"><ele>285.5</ele><time>2026-04-11T11:36:10Z</time></trkpt><trkpt lat="44.013010691361586" lon="11.291335956829407"><ele>285.0</ele><time>2026-04-11T11:36:11Z</time></trkpt><trkpt lat="44.012892258424834" lon="11.291361883272254"><ele>285.0</ele><time>2026-04-11T11:36:12Z</time></trkpt><trkpt lat="44.01277644739282" lon="11.291395740211977"><ele>285.0</ele><time>2026-04-11T11:36:13Z</time></trkpt><trkpt lat="44.012664585729354" lon="11.291450896323052"><ele>285.0</ele><time>2026-04-11T11:36:14Z</time></trkpt><trkpt lat="44.01255118938382" lon="11.291496812252653"><ele>285.0</ele><time>2026-04-11T11:36:15Z</time></trkpt><trkpt lat="44.01243207972539" lon="11.291568671937885"><ele>285.25</ele><time>2026-04-11T11:36:16Z</time></trkpt><trkpt lat="44.01232486248113" lon="11.291640013067456"><ele>285.5</ele><time>2026-04-11T11:36:17Z</time></trkpt><trkpt lat="44.012215304476214" lon="11.291709881432785"><ele>285.75</ele><time>2026-04-11T11:36:18.001Z</time></trkpt><trkpt lat="44.0121106220324" lon="11.29178039049956"><ele>286.0</ele><time>2026-04-11T11:36:19.001Z</time></trkpt><trkpt lat="44.011990544558984" lon="11.291841677654771"><ele>286.0</ele><time>2026-04-11T11:36:20.001Z</time></trkpt><trkpt lat="44.01189038053021" lon="11.291907879741313"><ele>286.0</ele><time>2026-04-11T11:36:21.001Z</time></trkpt><trkpt lat="44.01179465427571" lon="11.291971932694652"><ele>286.0</ele><time>2026-04-11T11:36:22.001Z</time></trkpt><trkpt lat="44.01170300166447" lon="11.292036385734537"><ele>286.0</ele><time>2026-04-11T11:36:23.001Z</time></trkpt><trkpt lat="44.01160657343143" lon="11.292066444974841"><ele>286.0</ele><time>2026-04-11T11:36:24.001Z</time></trkpt><trkpt lat="44.01150080794214" lon="11.292087864791478"><ele>285.25</ele><time>2026-04-11T11:36:25.001Z</time></trkpt><trkpt lat="44.01138937680515" lon="11.29210249105567"><ele>284.5</ele><time>2026-04-11T11:36:26.001Z</time></trkpt><trkpt lat="44.01127596520042" lon="11.292114517930166"><ele>283.75</ele><time>2026-04-11T11:36:27.001Z</time></trkpt><trkpt lat="44.01115593954383" lon="11.292112666633082"><ele>283.0</ele><time>2026-04-11T11:36:28.001Z</time></trkpt><trkpt lat="44.01103861689578" lon="11.29209474532602"><ele>283.0</ele><time>2026-04-11T11:36:29.001Z</time></trkpt><trkpt lat="44.01092121888918" lon="11.292082500169697"><ele>283.0</ele><time>2026-04-11T11:36:30.001Z</time></trkpt><trkpt lat="44.01081354222454" lon="11.292066584702834"><ele>283.0</ele><time>2026-04-11T11:36:31.001Z</time></trkpt><trkpt lat="44.010701856408055" lon="11.292058367386517"><ele>283.0</ele><time>2026-04-11T11:36:32.001Z</time></trkpt><trkpt lat="44.0105875111439" lon="11.292057979815443"><ele>282.6</ele><time>2026-04-11T11:36:32.998Z</time></trkpt><trkpt lat="44.01047014504722" lon="11.292068492444637"><ele>282.20000000000005</ele><time>2026-04-11T11:36:33.998Z</time></trkpt><trkpt lat="44.01035941965574" lon="11.29209583638908"><ele>281.8</ele><time>2026-04-11T11:36:34.998Z</time></trkpt><trkpt lat="44.01025540575355" lon="11.29212230861723"><ele>281.40000000000003</ele><time>2026-04-11T11:36:35.998Z</time></trkpt><trkpt lat="44.01015493440369" lon="11.292147627305521"><ele>281.0</ele><time>2026-04-11T11:36:36.998Z</time></trkpt><trkpt lat="44.010068112008554" lon="11.292196953535733"><ele>281.0</ele><time>2026-04-11T11:36:37.998Z</time></trkpt><trkpt lat="44.009984448069716" lon="11.292266884232571"><ele>281.0</ele><time>2026-04-11T11:36:38.998Z</time></trkpt><trkpt lat="44.00991084941348" lon="11.292359970346832"><ele>281.0</ele><time>2026-04-11T11:36:39.998Z</time></trkpt><trkpt lat="44.009821828351654" lon="11.292419766376527"><ele>281.0</ele><time>2026-04-11T11:36:40.998Z</time></trkpt><trkpt lat="44.009735810814774" lon="11.292503466745211"><ele>281.0</ele><time>2026-04-11T11:36:41.998Z</time></trkpt><trkpt lat="44.00962774335863" lon="11.292532673810134"><ele>281.0</ele><time>2026-04-11T11:36:42.998Z</time></trkpt><trkpt lat="44.00950683051354" lon="11.292524135406254"><ele>281.0</ele><time>2026-04-11T11:36:43.998Z</time></trkpt><trkpt lat="44.00939169337862" lon="11.292553984350155"><ele>281.0</ele><time>2026-04-11T11:36:44.998Z</time></trkpt><trkpt lat="44.00927979829655" lon="11.29260371849929"><ele>281.0</ele><time>2026-04-11T11:36:45.998Z</time></trkpt><trkpt lat="44.00916168787588" lon="11.292641189649645"><ele>281.1666666666667</ele><time>2026-04-11T11:36:46.998Z</time></trkpt><trkpt lat="44.00905369080975" lon="11.292682209533101"><ele>281.33333333333337</ele><time>2026-04-11T11:36:47.998Z</time></trkpt><trkpt lat="44.008951364304124" lon="11.292725657328425"><ele>281.5</ele><time>2026-04-11T11:36:48.998Z</time></trkpt><trkpt lat="44.00887197031096" lon="11.29274950025197"><ele>281.6666666666667</ele><time>2026-04-11T11:36:49.998Z</time></trkpt><trkpt lat="44.00880517896398" lon="11.292767859881907"><ele>281.8333333333333</ele><time>2026-04-11T11:36:50.998Z</time></trkpt><trkpt lat="44.00874110232038" lon="11.29279573314399"><ele>282.0</ele><time>2026-04-11T11:36:52.999Z</time></trkpt><trkpt lat="44.008662704068165" lon="11.292806564541463"><ele>282.0</ele><time>2026-04-11T11:38:34.001Z</time></trkpt><trkpt lat="44.00858995902502" lon="11.292824134408303"><ele>282.0</ele><time>2026-04-11T11:38:37.001Z</time></trkpt><trkpt lat="44.00852045052721" lon="11.292824697495549"><ele>282.0</ele><time>2026-04-11T11:38:41.999Z</time></trkpt><trkpt lat="44.008431039631496" lon="11.292823636275422"><ele>282.0</ele><time>2026-04-11T11:38:51.999Z</time></trkpt><trkpt lat="44.00840776705849" lon="11.29268937470636"><ele>282.0</ele><time>2026-04-11T11:38:53.999Z</time></trkpt><trkpt lat="44.00838256074948" lon="11.292602223040706"><ele>282.0</ele><time>2026-04-11T11:38:55.999Z</time></trkpt><trkpt lat="44.008347344488094" lon="11.292477596901039"><ele>282.0</ele><time>2026-04-11T11:38:59Z</time></trkpt><trkpt lat="44.008346687674475" lon="11.292375031105186"><ele>282.0</ele><time>2026-04-11T11:39:01Z</time></trkpt><trkpt lat="44.00832900269321" lon="11.292266936902754"><ele>282.0</ele><time>2026-04-11T11:39:04Z</time></trkpt><trkpt lat="44.00829524344835" lon="11.2921623382785"><ele>282.0</ele><time>2026-04-11T11:39:08Z</time></trkpt><trkpt lat="44.008277129893216" lon="11.292046349431306"><ele>282.0</ele><time>2026-04-11T11:39:11Z</time></trkpt><trkpt lat="44.00825750881511" lon="11.29195233220917"><ele>282.0</ele><time>2026-04-11T11:39:13Z</time></trkpt><trkpt lat="44.00824187198992" lon="11.291861587987702"><ele>281.0</ele><time>2026-04-11T11:39:15Z</time></trkpt><trkpt lat="44.0082344767078" lon="11.291736684804585"><ele>280.0</ele><time>2026-04-11T11:39:17Z</time></trkpt><trkpt lat="44.00821710588508" lon="11.291621063620719"><ele>279.0</ele><time>2026-04-11T11:39:19Z</time></trkpt><trkpt lat="44.00820331371712" lon="11.2914805198997"><ele>278.0</ele><time>2026-04-11T11:39:21Z</time></trkpt><trkpt lat="44.008197424122535" lon="11.291333346468944"><ele>277.0</ele><time>2026-04-11T11:39:23Z</time></trkpt><trkpt lat="44.008188736729274" lon="11.291166970288486"><ele>277.0</ele><time>2026-04-11T11:39:25Z</time></trkpt><trkpt lat="44.00820083550139" lon="11.291035329340339"><ele>277.0</ele><time>2026-04-11T11:39:27Z</time></trkpt><trkpt lat="44.00819160801524" lon="11.290939633685577"><ele>277.0</ele><time>2026-04-11T11:39:29Z</time></trkpt><trkpt lat="44.008181634596276" lon="11.290847702594283"><ele>277.0</ele><time>2026-04-11T11:40:29.001Z</time></trkpt><trkpt lat="44.008153713835746" lon="11.290754158553343"><ele>277.0</ele><time>2026-04-11T11:40:32.001Z</time></trkpt><trkpt lat="44.00813584964199" lon="11.290640427548093"><ele>277.0</ele><time>2026-04-11T11:41:17Z</time></trkpt><trkpt lat="44.0081183146311" lon="11.290483913262022"><ele>277.0</ele><time>2026-04-11T11:41:19Z</time></trkpt><trkpt lat="44.008112235707806" lon="11.290376163887316"><ele>277.0</ele><time>2026-04-11T11:41:20Z</time></trkpt><trkpt lat="44.00809259689412" lon="11.290280397473804"><ele>277.0</ele><time>2026-04-11T11:41:21Z</time></trkpt><trkpt lat="44.00807223572412" lon="11.290134336165917"><ele>277.0</ele><time>2026-04-11T11:41:23Z</time></trkpt><trkpt lat="44.008072181559236" lon="11.290002730226666"><ele>277.0</ele><time>2026-04-11T11:41:25Z</time></trkpt><trkpt lat="44.00806298121724" lon="11.289884393849773"><ele>277.0</ele><time>2026-04-11T11:41:27Z</time></trkpt><trkpt lat="44.00806929283596" lon="11.289747572313571"><ele>277.16666666666663</ele><time>2026-04-11T11:41:29Z</time></trkpt><trkpt lat="44.008073599700275" lon="11.289603728704405"><ele>277.3333333333333</ele><time>2026-04-11T11:41:31Z</time></trkpt><trkpt lat="44.0081015763547" lon="11.289453878143428"><ele>277.5</ele><time>2026-04-11T11:41:33Z</time></trkpt><trkpt lat="44.00811917041381" lon="11.289360877093404"><ele>277.6666666666667</ele><time>2026-04-11T11:41:34.001Z</time></trkpt><trkpt lat="44.008136828523405" lon="11.28926832980871"><ele>277.83333333333337</ele><time>2026-04-11T11:41:35.001Z</time></trkpt><trkpt lat="44.00814930553136" lon="11.289179573874774"><ele>278.0</ele><time>2026-04-11T11:41:36.001Z</time></trkpt><trkpt lat="44.00817960237604" lon="11.289097280953595"><ele>278.0</ele><time>2026-04-11T11:41:37.001Z</time></trkpt><trkpt lat="44.00819753563564" lon="11.288999597837755"><ele>278.0</ele><time>2026-04-11T11:41:38.001Z</time></trkpt><trkpt lat="44.00821431475418" lon="11.288908201395767"><ele>278.0</ele><time>2026-04-11T11:41:39.001Z</time></trkpt><trkpt lat="44.00823086549564" lon="11.288818048875417"><ele>278.0</ele><time>2026-04-11T11:41:40.001Z</time></trkpt><trkpt lat="44.00824864548237" lon="11.288651695449923"><ele>278.0</ele><time>2026-04-11T11:41:42.001Z</time></trkpt><trkpt lat="44.00826536579544" lon="11.288565170192111"><ele>278.0</ele><time>2026-04-11T11:41:43.001Z</time></trkpt><trkpt lat="44.008302720385025" lon="11.288411057874555"><ele>278.0</ele><time>2026-04-11T11:41:45.001Z</time></trkpt><trkpt lat="44.00833030376407" lon="11.288274720973911"><ele>278.0</ele><time>2026-04-11T11:41:47.001Z</time></trkpt><trkpt lat="44.00836254343907" lon="11.288146023109471"><ele>278.0</ele><time>2026-04-11T11:41:49.001Z</time></trkpt><trkpt lat="44.00838242789624" lon="11.288017041228223"><ele>278.0</ele><time>2026-04-11T11:41:51.001Z</time></trkpt><trkpt lat="44.008433704490415" lon="11.287855591252294"><ele>278.0</ele><time>2026-04-11T11:41:53.001Z</time></trkpt><trkpt lat="44.00845784518364" lon="11.28776917522594"><ele>278.0</ele><time>2026-04-11T11:41:54.001Z</time></trkpt><trkpt lat="44.00848771480323" lon="11.287648420317785"><ele>278.0</ele><time>2026-04-11T11:41:56.001Z</time></trkpt><trkpt lat="44.00850692887513" lon="11.287542682171553"><ele>278.0</ele><time>2026-04-11T11:41:59.001Z</time></trkpt><trkpt lat="44.008464515464276" lon="11.287465338460322"><ele>278.0</ele><time>2026-04-11T11:42:02.001Z</time></trkpt><trkpt lat="44.00838359521062" lon="11.28740929052732"><ele>278.0</ele><time>2026-04-11T11:42:03.001Z</time></trkpt><trkpt lat="44.008281288016605" lon="11.287370469542067"><ele>278.0</ele><time>2026-04-11T11:42:04.001Z</time></trkpt><trkpt lat="44.0081812264468" lon="11.287331357433073"><ele>277.75</ele><time>2026-04-11T11:42:05.001Z</time></trkpt><trkpt lat="44.00808554620619" lon="11.287274591850489"><ele>277.5</ele><time>2026-04-11T11:42:06.001Z</time></trkpt><trkpt lat="44.007946226594775" lon="11.287209295987866"><ele>277.25</ele><time>2026-04-11T11:42:07.001Z</time></trkpt><trkpt lat="44.007799035722854" lon="11.287118284617348"><ele>277.0</ele><time>2026-04-11T11:42:08.001Z</time></trkpt><trkpt lat="44.007655016401074" lon="11.287030880802124"><ele>277.0</ele><time>2026-04-11T11:42:09.001Z</time></trkpt><trkpt lat="44.00752329595053" lon="11.286948583563298"><ele>277.0</ele><time>2026-04-11T11:42:10.001Z</time></trkpt><trkpt lat="44.00738946035038" lon="11.286829025416429"><ele>277.0</ele><time>2026-04-11T11:42:11.001Z</time></trkpt><trkpt lat="44.00725781268161" lon="11.286726571092956"><ele>276.5</ele><time>2026-04-11T11:42:12.001Z</time></trkpt><trkpt lat="44.007131968571166" lon="11.286637900933648"><ele>276.0</ele><time>2026-04-11T11:42:13.001Z</time></trkpt><trkpt lat="44.00699465778899" lon="11.286544167475178"><ele>275.5</ele><time>2026-04-11T11:42:14.001Z</time></trkpt><trkpt lat="44.00686578045329" lon="11.286446805311101"><ele>275.0</ele><time>2026-04-11T11:42:15.001Z</time></trkpt><trkpt lat="44.00675059260915" lon="11.28636270718377"><ele>273.75</ele><time>2026-04-11T11:42:16.001Z</time></trkpt><trkpt lat="44.00664163174252" lon="11.286299825146294"><ele>272.5</ele><time>2026-04-11T11:42:17.001Z</time></trkpt><trkpt lat="44.0065303480103" lon="11.286229256132858"><ele>271.25</ele><time>2026-04-11T11:42:18.001Z</time></trkpt><trkpt lat="44.006404915009995" lon="11.286159344886565"><ele>270.0</ele><time>2026-04-11T11:42:19.001Z</time></trkpt><trkpt lat="44.00627628805316" lon="11.286082741283368"><ele>270.0</ele><time>2026-04-11T11:42:20.001Z</time></trkpt><trkpt lat="44.00615517035494" lon="11.28601072729212"><ele>270.0</ele><time>2026-04-11T11:42:21.001Z</time></trkpt><trkpt lat="44.00602542461635" lon="11.285931623593182"><ele>270.0</ele><time>2026-04-11T11:42:22.001Z</time></trkpt><trkpt lat="44.00589248849115" lon="11.285850198766898"><ele>270.0</ele><time>2026-04-11T11:42:23.001Z</time></trkpt><trkpt lat="44.00574926484125" lon="11.285766528390933"><ele>270.0</ele><time>2026-04-11T11:42:24.001Z</time></trkpt><trkpt lat="44.005621200793726" lon="11.285691056575498"><ele>270.0</ele><time>2026-04-11T11:42:25.001Z</time></trkpt><trkpt lat="44.00549372936789" lon="11.285619939653413"><ele>270.0</ele><time>2026-04-11T11:42:26.002Z</time></trkpt><trkpt lat="44.005375166449035" lon="11.285550992568185"><ele>270.0</ele><time>2026-04-11T11:42:27.002Z</time></trkpt><trkpt lat="44.00525694540712" lon="11.285475202050202"><ele>269.75</ele><time>2026-04-11T11:42:28.002Z</time></trkpt><trkpt lat="44.00512398309325" lon="11.28540119439799"><ele>269.5</ele><time>2026-04-11T11:42:29.002Z</time></trkpt><trkpt lat="44.00499575871575" lon="11.285320905957349"><ele>269.25</ele><time>2026-04-11T11:42:30.002Z</time></trkpt><trkpt lat="44.00486036101821" lon="11.285249321090827"><ele>269.0</ele><time>2026-04-11T11:42:31.002Z</time></trkpt><trkpt lat="44.00473266397539" lon="11.285171514276957"><ele>268.5</ele><time>2026-04-11T11:42:32.002Z</time></trkpt><trkpt lat="44.004600324074495" lon="11.285102329794999"><ele>268.0</ele><time>2026-04-11T11:42:33.002Z</time></trkpt><trkpt lat="44.004479563407784" lon="11.285028539015126"><ele>267.5</ele><time>2026-04-11T11:42:34.002Z</time></trkpt><trkpt lat="44.0043586607645" lon="11.284958512278926"><ele>267.0</ele><time>2026-04-11T11:42:35.002Z</time></trkpt><trkpt lat="44.00423800637293" lon="11.284893961847764"><ele>266.75</ele><time>2026-04-11T11:42:36.002Z</time></trkpt><trkpt lat="44.00411088301829" lon="11.284819128904884"><ele>266.5</ele><time>2026-04-11T11:42:37.002Z</time></trkpt><trkpt lat="44.00397416869507" lon="11.28474262590715"><ele>266.25</ele><time>2026-04-11T11:42:38.002Z</time></trkpt><trkpt lat="44.003835170446926" lon="11.28466411059428"><ele>266.0</ele><time>2026-04-11T11:42:39.002Z</time></trkpt><trkpt lat="44.003688405282034" lon="11.28460402112382"><ele>265.6666666666667</ele><time>2026-04-11T11:42:40.002Z</time></trkpt><trkpt lat="44.003531162604276" lon="11.284553610620302"><ele>265.3333333333333</ele><time>2026-04-11T11:42:41.002Z</time></trkpt><trkpt lat="44.003383972693335" lon="11.284510766376759"><ele>265.0</ele><time>2026-04-11T11:42:42.002Z</time></trkpt><trkpt lat="44.00323381492962" lon="11.284488996693756"><ele>265.0</ele><time>2026-04-11T11:42:43.002Z</time></trkpt><trkpt lat="44.00307897612681" lon="11.284482939979803"><ele>265.0</ele><time>2026-04-11T11:42:44.002Z</time></trkpt><trkpt lat="44.00293173694271" lon="11.284500130770157"><ele>265.0</ele><time>2026-04-11T11:42:45.002Z</time></trkpt><trkpt lat="44.00278638084686" lon="11.284518517126724"><ele>265.0</ele><time>2026-04-11T11:42:46.002Z</time></trkpt><trkpt lat="44.00264239820592" lon="11.284539089362518"><ele>265.0</ele><time>2026-04-11T11:42:47.002Z</time></trkpt><trkpt lat="44.00252022952304" lon="11.284569428024037"><ele>265.0</ele><time>2026-04-11T11:42:48.002Z</time></trkpt><trkpt lat="44.00243798934487" lon="11.284585947959934"><ele>265.0</ele><time>2026-04-11T11:42:49.002Z</time></trkpt><trkpt lat="44.00235174463738" lon="11.284617476221168"><ele>265.0</ele><time>2026-04-11T11:42:51.001Z</time></trkpt><trkpt lat="44.002281256179785" lon="11.284630114358054"><ele>265.0</ele><time>2026-04-11T11:42:53.001Z</time></trkpt><trkpt lat="44.00215610131639" lon="11.284611239331896"><ele>264.5</ele><time>2026-04-11T11:42:55.001Z</time></trkpt><trkpt lat="44.00203950438398" lon="11.284629871023133"><ele>264.0</ele><time>2026-04-11T11:42:57.001Z</time></trkpt><trkpt lat="44.00195353253234" lon="11.28464908286609"><ele>263.5</ele><time>2026-04-11T11:42:59.001Z</time></trkpt><trkpt lat="44.00204016626347" lon="11.28470164891515"><ele>263.0</ele><time>2026-04-11T11:43:11.001Z</time></trkpt><trkpt lat="44.00210678527305" lon="11.284688686336171"><ele>262.5</ele><time>2026-04-11T11:43:12.001Z</time></trkpt><trkpt lat="44.00217634978582" lon="11.284671925402842"><ele>262.0</ele><time>2026-04-11T11:43:13.001Z</time></trkpt><trkpt lat="44.002268195465206" lon="11.284632152583562"><ele>262.0</ele><time>2026-04-11T11:43:15.001Z</time></trkpt><trkpt lat="44.002310535151466" lon="11.28456155585288"><ele>262.0</ele><time>2026-04-11T11:43:17.001Z</time></trkpt><trkpt lat="44.00230685371629" lon="11.284441383336393"><ele>262.0</ele><time>2026-04-11T11:43:19.001Z</time></trkpt><trkpt lat="44.00227754348962" lon="11.284279370035987"><ele>262.0</ele><time>2026-04-11T11:43:21.001Z</time></trkpt><trkpt lat="44.00227709524067" lon="11.284188258683148"><ele>262.0</ele><time>2026-04-11T11:43:22.001Z</time></trkpt><trkpt lat="44.002276757478406" lon="11.284084509822794"><ele>262.0</ele><time>2026-04-11T11:43:23.001Z</time></trkpt><trkpt lat="44.00227683449454" lon="11.283972750776863"><ele>262.0</ele><time>2026-04-11T11:43:24.001Z</time></trkpt><trkpt lat="44.002272500479435" lon="11.283853446696732"><ele>262.0</ele><time>2026-04-11T11:43:25.001Z</time></trkpt><trkpt lat="44.002265612071504" lon="11.283739635465002"><ele>262.0</ele><time>2026-04-11T11:43:26.001Z</time></trkpt><trkpt lat="44.002280461477234" lon="11.28361915079594"><ele>262.0</ele><time>2026-04-11T11:43:27.001Z</time></trkpt><trkpt lat="44.00227916941069" lon="11.283502031602783"><ele>262.0</ele><time>2026-04-11T11:43:28.001Z</time></trkpt><trkpt lat="44.00227782973598" lon="11.283380597628335"><ele>262.0</ele><time>2026-04-11T11:43:29.001Z</time></trkpt><trkpt lat="44.00226012887942" lon="11.283239395541624"><ele>261.6</ele><time>2026-04-11T11:43:30.001Z</time></trkpt><trkpt lat="44.00227567842728" lon="11.283075165084972"><ele>261.2</ele><time>2026-04-11T11:43:31.001Z</time></trkpt><trkpt lat="44.002275594954696" lon="11.28292617252914"><ele>260.8</ele><time>2026-04-11T11:43:32.001Z</time></trkpt><trkpt lat="44.00227652914576" lon="11.282784087644098"><ele>260.4</ele><time>2026-04-11T11:43:33.001Z</time></trkpt><trkpt lat="44.00227710119591" lon="11.28263455966471"><ele>260.0</ele><time>2026-04-11T11:43:34.001Z</time></trkpt><trkpt lat="44.00225853134287" lon="11.282491793309447"><ele>260.0</ele><time>2026-04-11T11:43:35.001Z</time></trkpt><trkpt lat="44.00226371332122" lon="11.282355817833704"><ele>260.0</ele><time>2026-04-11T11:43:36.001Z</time></trkpt><trkpt lat="44.00226246120992" lon="11.28226001651431"><ele>260.0</ele><time>2026-04-11T11:43:37.001Z</time></trkpt><trkpt lat="44.002260741005706" lon="11.282164554088999"><ele>260.0</ele><time>2026-04-11T11:43:38.001Z</time></trkpt><trkpt lat="44.00226800600221" lon="11.282077498775935"><ele>260.0</ele><time>2026-04-11T11:43:39.001Z</time></trkpt><trkpt lat="44.00231280141697" lon="11.281986902128688"><ele>260.0</ele><time>2026-04-11T11:43:40.001Z</time></trkpt><trkpt lat="44.00238857605712" lon="11.281847749289344"><ele>259.25</ele><time>2026-04-11T11:43:42.001Z</time></trkpt><trkpt lat="44.00245994482927" lon="11.281721154288906"><ele>258.5</ele><time>2026-04-11T11:43:44.001Z</time></trkpt><trkpt lat="44.00251948774134" lon="11.28160363688859"><ele>257.75</ele><time>2026-04-11T11:43:46.001Z</time></trkpt><trkpt lat="44.002564193664085" lon="11.281509713342649"><ele>257.0</ele><time>2026-04-11T11:43:50.001Z</time></trkpt><trkpt lat="44.0024427798101" lon="11.281355291313174"><ele>257.0</ele><time>2026-04-11T11:43:56.001Z</time></trkpt><trkpt lat="44.002354598011195" lon="11.281328996798974"><ele>257.0</ele><time>2026-04-11T11:43:58.001Z</time></trkpt><trkpt lat="44.00225543166434" lon="11.281304814432856"><ele>257.0</ele><time>2026-04-11T11:44:00.001Z</time></trkpt><trkpt lat="44.00215692321966" lon="11.28129980092795"><ele>257.0</ele><time>2026-04-11T11:44:02.001Z</time></trkpt><trkpt lat="44.00205039255127" lon="11.281300226642475"><ele>257.0</ele><time>2026-04-11T11:44:04.001Z</time></trkpt><trkpt lat="44.00196278407343" lon="11.281341139900375"><ele>257.0</ele><time>2026-04-11T11:44:06.001Z</time></trkpt><trkpt lat="44.00184804176932" lon="11.281390209915315"><ele>257.0</ele><time>2026-04-11T11:44:08.001Z</time></trkpt><trkpt lat="44.001743511905715" lon="11.281430938935642"><ele>257.0</ele><time>2026-04-11T11:44:10.001Z</time></trkpt><trkpt lat="44.00164194436997" lon="11.281460748468461"><ele>257.0</ele><time>2026-04-11T11:44:12.001Z</time></trkpt><trkpt lat="44.00156947759236" lon="11.281528678406886"><ele>257.0</ele><time>2026-04-11T11:44:14.001Z</time></trkpt><trkpt lat="44.00151227080023" lon="11.281622099436587"><ele>256.33333333333337</ele><time>2026-04-11T11:44:16.001Z</time></trkpt><trkpt lat="44.001428508588845" lon="11.281681466644137"><ele>255.66666666666669</ele><time>2026-04-11T11:44:18.001Z</time></trkpt><trkpt lat="44.001328869760194" lon="11.281738778474104"><ele>255.0</ele><time>2026-04-11T11:44:20.002Z</time></trkpt><trkpt lat="44.00126523998834" lon="11.281759631280766"><ele>254.33333333333331</ele><time>2026-04-11T11:44:21.002Z</time></trkpt><trkpt lat="44.001197901385616" lon="11.281779880256058"><ele>253.66666666666666</ele><time>2026-04-11T11:44:22.002Z</time></trkpt><trkpt lat="44.00112457051617" lon="11.281806290790168"><ele>253.0</ele><time>2026-04-11T11:44:23.002Z</time></trkpt><trkpt lat="44.00105029491186" lon="11.28182262721842"><ele>252.99999999999997</ele><time>2026-04-11T11:44:24.002Z</time></trkpt><trkpt lat="44.000922605762" lon="11.281799486968684"><ele>253.0</ele><time>2026-04-11T11:44:26.002Z</time></trkpt><trkpt lat="44.00085317521874" lon="11.28179458910629"><ele>253.0</ele><time>2026-04-11T11:44:27.002Z</time></trkpt><trkpt lat="44.000783555895985" lon="11.281794441961564"><ele>253.0</ele><time>2026-04-11T11:44:28.002Z</time></trkpt><trkpt lat="44.000697903269575" lon="11.28179015360781"><ele>252.99999999999997</ele><time>2026-04-11T11:44:29.002Z</time></trkpt><trkpt lat="44.0006212508074" lon="11.281778154208869"><ele>253.0</ele><time>2026-04-11T11:44:30.002Z</time></trkpt><trkpt lat="44.00053480261091" lon="11.281728784434296"><ele>252.8</ele><time>2026-04-11T11:44:31.002Z</time></trkpt><trkpt lat="44.000459652992035" lon="11.28166138949009"><ele>252.60000000000002</ele><time>2026-04-11T11:44:32.002Z</time></trkpt><trkpt lat="44.000382335048954" lon="11.281582880956982"><ele>252.39999999999998</ele><time>2026-04-11T11:44:33.002Z</time></trkpt><trkpt lat="44.00030879525475" lon="11.281492355094782"><ele>252.2</ele><time>2026-04-11T11:44:34.002Z</time></trkpt><trkpt lat="44.00023956601589" lon="11.2814075281396"><ele>252.0</ele><time>2026-04-11T11:44:35.002Z</time></trkpt><trkpt lat="44.00016574892242" lon="11.281322650061716"><ele>252.33333333333334</ele><time>2026-04-11T11:44:36.002Z</time></trkpt><trkpt lat="44.00008795911303" lon="11.281276950903248"><ele>252.66666666666669</ele><time>2026-04-11T11:44:37.002Z</time></trkpt><trkpt lat="44.00001920702471" lon="11.281221857094224"><ele>253.0</ele><time>2026-04-11T11:44:38.002Z</time></trkpt><trkpt lat="43.99993326329003" lon="11.281172277630505"><ele>253.33333333333334</ele><time>2026-04-11T11:44:39.002Z</time></trkpt><trkpt lat="43.999874532676685" lon="11.281136545980932"><ele>253.66666666666669</ele><time>2026-04-11T11:44:40.002Z</time></trkpt><trkpt lat="43.9997847761213" lon="11.281070366064922"><ele>254.0</ele><time>2026-04-11T11:44:41.002Z</time></trkpt><trkpt lat="43.999703354036875" lon="11.280986089252124"><ele>254.0</ele><time>2026-04-11T11:44:42.002Z</time></trkpt><trkpt lat="43.999599515157605" lon="11.28093104058055"><ele>254.0</ele><time>2026-04-11T11:44:43.002Z</time></trkpt><trkpt lat="43.99950212540224" lon="11.280893958291967"><ele>254.0</ele><time>2026-04-11T11:44:44.002Z</time></trkpt><trkpt lat="43.999379473506956" lon="11.280872347768291"><ele>254.0</ele><time>2026-04-11T11:44:45.002Z</time></trkpt><trkpt lat="43.99924675255568" lon="11.280860685182256"><ele>253.5</ele><time>2026-04-11T11:44:46.002Z</time></trkpt><trkpt lat="43.999139116939574" lon="11.280837185902662"><ele>253.0</ele><time>2026-04-11T11:44:47.002Z</time></trkpt><trkpt lat="43.999017662320306" lon="11.280831158720217"><ele>252.5</ele><time>2026-04-11T11:44:48.002Z</time></trkpt><trkpt lat="43.99889933324051" lon="11.280801860399134"><ele>252.0</ele><time>2026-04-11T11:44:49.002Z</time></trkpt><trkpt lat="43.99878951111504" lon="11.280768751134586"><ele>252.0</ele><time>2026-04-11T11:44:50.002Z</time></trkpt><trkpt lat="43.99868355617404" lon="11.28072541351467"><ele>252.0</ele><time>2026-04-11T11:44:51.002Z</time></trkpt><trkpt lat="43.99857389917159" lon="11.2806812702448"><ele>252.0</ele><time>2026-04-11T11:44:52.002Z</time></trkpt><trkpt lat="43.99845883276303" lon="11.280649551580016"><ele>252.0</ele><time>2026-04-11T11:44:53.002Z</time></trkpt><trkpt lat="43.99834653817965" lon="11.280605601971258"><ele>252.8</ele><time>2026-04-11T11:44:54.002Z</time></trkpt><trkpt lat="43.99824786084198" lon="11.280566756290325"><ele>253.6</ele><time>2026-04-11T11:44:55.002Z</time></trkpt><trkpt lat="43.99814950009272" lon="11.2805432480615"><ele>254.40000000000003</ele><time>2026-04-11T11:44:56.002Z</time></trkpt><trkpt lat="43.99805485939237" lon="11.280542244035079"><ele>255.20000000000002</ele><time>2026-04-11T11:44:57.001Z</time></trkpt><trkpt lat="43.99798716714403" lon="11.280541432207066"><ele>256.0</ele><time>2026-04-11T11:44:58.001Z</time></trkpt><trkpt lat="43.99790102672062" lon="11.280520211171334"><ele>255.99999999999997</ele><time>2026-04-11T11:44:59.001Z</time></trkpt><trkpt lat="43.99783404806702" lon="11.280478960529424"><ele>256.0</ele><time>2026-04-11T11:45:00.001Z</time></trkpt><trkpt lat="43.99778260100214" lon="11.280425145605022"><ele>256.0</ele><time>2026-04-11T11:45:01.001Z</time></trkpt><trkpt lat="43.997734246787815" lon="11.280335324478633"><ele>256.0</ele><time>2026-04-11T11:45:02.001Z</time></trkpt><trkpt lat="43.997688222843415" lon="11.28022870030847"><ele>255.99999999999997</ele><time>2026-04-11T11:45:03.001Z</time></trkpt><trkpt lat="43.99764142081257" lon="11.28011906400429"><ele>256.0</ele><time>2026-04-11T11:45:04.001Z</time></trkpt><trkpt lat="43.99759261637923" lon="11.280019288081665"><ele>256.0</ele><time>2026-04-11T11:45:05.001Z</time></trkpt><trkpt lat="43.997549896258654" lon="11.27993382356629"><ele>255.99999999999997</ele><time>2026-04-11T11:45:06.001Z</time></trkpt><trkpt lat="43.9975045847634" lon="11.279854007713258"><ele>256.0</ele><time>2026-04-11T11:45:07Z</time></trkpt><trkpt lat="43.997451681849846" lon="11.279781877123872"><ele>256.0</ele><time>2026-04-11T11:45:08Z</time></trkpt><trkpt lat="43.997391190422505" lon="11.279718118267045"><ele>255.99999999999997</ele><time>2026-04-11T11:45:09.001Z</time></trkpt><trkpt lat="43.99733208291094" lon="11.279660905535124"><ele>256.0</ele><time>2026-04-11T11:45:10Z</time></trkpt><trkpt lat="43.99726679125081" lon="11.279600276109278"><ele>256.0</ele><time>2026-04-11T11:45:11Z</time></trkpt><trkpt lat="43.99719762584727" lon="11.279535874172428"><ele>255.83333333333331</ele><time>2026-04-11T11:45:12Z</time></trkpt><trkpt lat="43.99713132569941" lon="11.279484391904719"><ele>255.66666666666666</ele><time>2026-04-11T11:45:13Z</time></trkpt><trkpt lat="43.99704907330099" lon="11.279426901198528"><ele>255.5</ele><time>2026-04-11T11:45:14Z</time></trkpt><trkpt lat="43.99697177915265" lon="11.279376914648992"><ele>255.33333333333331</ele><time>2026-04-11T11:45:15Z</time></trkpt><trkpt lat="43.99688427969406" lon="11.279326408378582"><ele>255.16666666666666</ele><time>2026-04-11T11:45:16Z</time></trkpt><trkpt lat="43.9968017706527" lon="11.279273873936953"><ele>255.0</ele><time>2026-04-11T11:45:17Z</time></trkpt><trkpt lat="43.99672473485565" lon="11.279221893457535"><ele>255.0</ele><time>2026-04-11T11:45:18Z</time></trkpt><trkpt lat="43.99665314333706" lon="11.279165971959472"><ele>255.0</ele><time>2026-04-11T11:45:19Z</time></trkpt><trkpt lat="43.99655630613481" lon="11.279106510129763"><ele>255.0</ele><time>2026-04-11T11:45:20Z</time></trkpt><trkpt lat="43.99648836252" lon="11.279061135783742"><ele>255.0</ele><time>2026-04-11T11:45:21Z</time></trkpt><trkpt lat="43.99642716040353" lon="11.279023209630626"><ele>255.0</ele><time>2026-04-11T11:45:22Z</time></trkpt><trkpt lat="43.99632750358005" lon="11.278950137801665"><ele>255.0</ele><time>2026-04-11T11:45:24Z</time></trkpt><trkpt lat="43.99624623243674" lon="11.278896412929953"><ele>255.0</ele><time>2026-04-11T11:45:26Z</time></trkpt><trkpt lat="43.99618442814685" lon="11.278832001455719"><ele>255.0</ele><time>2026-04-11T11:45:29Z</time></trkpt><trkpt lat="43.996206102220526" lon="11.278728448118795"><ele>255.0</ele><time>2026-04-11T11:45:31Z</time></trkpt><trkpt lat="43.996275156094754" lon="11.278601109201578"><ele>255.0</ele><time>2026-04-11T11:45:33Z</time></trkpt><trkpt lat="43.996316116148435" lon="11.278509706082154"><ele>255.0</ele><time>2026-04-11T11:45:34Z</time></trkpt><trkpt lat="43.99633401454927" lon="11.278414989905869"><ele>255.0</ele><time>2026-04-11T11:45:35Z</time></trkpt><trkpt lat="43.996360618728076" lon="11.27832239526539"><ele>255.0</ele><time>2026-04-11T11:45:36Z</time></trkpt><trkpt lat="43.99638801016531" lon="11.278240066686719"><ele>255.00000000000003</ele><time>2026-04-11T11:45:37Z</time></trkpt><trkpt lat="43.99641563897237" lon="11.278157364564509"><ele>255.0</ele><time>2026-04-11T11:45:38.001Z</time></trkpt><trkpt lat="43.99644886687857" lon="11.278063024747313"><ele>255.0</ele><time>2026-04-11T11:45:39.001Z</time></trkpt><trkpt lat="43.996481724106566" lon="11.277957302321232"><ele>255.00000000000003</ele><time>2026-04-11T11:45:40.001Z</time></trkpt><trkpt lat="43.996510442065606" lon="11.277851621631084"><ele>255.0</ele><time>2026-04-11T11:45:41.001Z</time></trkpt><trkpt lat="43.99654527709354" lon="11.277764200014415"><ele>255.0</ele><time>2026-04-11T11:45:42.001Z</time></trkpt><trkpt lat="43.99661641302622" lon="11.27764133360964"><ele>255.4</ele><time>2026-04-11T11:45:44.001Z</time></trkpt><trkpt lat="43.99668708267035" lon="11.27751164499195"><ele>255.8</ele><time>2026-04-11T11:45:46.001Z</time></trkpt><trkpt lat="43.996747158838815" lon="11.277360393277323"><ele>256.2</ele><time>2026-04-11T11:45:48.001Z</time></trkpt><trkpt lat="43.996794342774486" lon="11.277266980226349"><ele>256.6</ele><time>2026-04-11T11:45:49.001Z</time></trkpt><trkpt lat="43.99684361980424" lon="11.277149917651226"><ele>257.0</ele><time>2026-04-11T11:45:50.001Z</time></trkpt><trkpt lat="43.9968838471497" lon="11.277014177872944"><ele>257.5</ele><time>2026-04-11T11:45:51.001Z</time></trkpt><trkpt lat="43.996902322867015" lon="11.276882302565044"><ele>258.0</ele><time>2026-04-11T11:45:52.001Z</time></trkpt><trkpt lat="43.99691383741939" lon="11.276753439039526"><ele>258.5</ele><time>2026-04-11T11:45:53.001Z</time></trkpt><trkpt lat="43.99692510523887" lon="11.27660928449423"><ele>259.0</ele><time>2026-04-11T11:45:54.001Z</time></trkpt><trkpt lat="43.9969359214948" lon="11.276495524698612"><ele>259.5</ele><time>2026-04-11T11:45:55.001Z</time></trkpt><trkpt lat="43.996951423354886" lon="11.276398279216462"><ele>260.0</ele><time>2026-04-11T11:45:56.001Z</time></trkpt><trkpt lat="43.99695964665057" lon="11.276300190432279"><ele>261.0</ele><time>2026-04-11T11:45:57.001Z</time></trkpt><trkpt lat="43.996972920692855" lon="11.276187126974232"><ele>262.0</ele><time>2026-04-11T11:45:58.001Z</time></trkpt><trkpt lat="43.99698592398148" lon="11.276065870804578"><ele>263.0</ele><time>2026-04-11T11:45:59.001Z</time></trkpt><trkpt lat="43.99699623486389" lon="11.275931083268501"><ele>264.0</ele><time>2026-04-11T11:46:00.001Z</time></trkpt><trkpt lat="43.99700551386357" lon="11.275797894317002"><ele>265.0</ele><time>2026-04-11T11:46:01.001Z</time></trkpt><trkpt lat="43.9970088806292" lon="11.275658374658544"><ele>266.2</ele><time>2026-04-11T11:46:02.001Z</time></trkpt><trkpt lat="43.99702146290822" lon="11.275519766022942"><ele>267.4</ele><time>2026-04-11T11:46:03.001Z</time></trkpt><trkpt lat="43.997025624138736" lon="11.275377361439231"><ele>268.6</ele><time>2026-04-11T11:46:04.001Z</time></trkpt><trkpt lat="43.99703316646573" lon="11.275245994297917"><ele>269.8</ele><time>2026-04-11T11:46:05.001Z</time></trkpt><trkpt lat="43.99703223907129" lon="11.275107162389524"><ele>271.0</ele><time>2026-04-11T11:46:06.001Z</time></trkpt><trkpt lat="43.99702764631654" lon="11.274991692675295"><ele>271.0</ele><time>2026-04-11T11:46:07.001Z</time></trkpt><trkpt lat="43.99702634290518" lon="11.27485343223385"><ele>271.0</ele><time>2026-04-11T11:46:08.001Z</time></trkpt><trkpt lat="43.99702036035673" lon="11.274719205705944"><ele>271.0</ele><time>2026-04-11T11:46:09.001Z</time></trkpt><trkpt lat="43.99702647168512" lon="11.274598170098104"><ele>271.0</ele><time>2026-04-11T11:46:10.001Z</time></trkpt><trkpt lat="43.99701617034076" lon="11.274488409016877"><ele>271.0</ele><time>2026-04-11T11:46:11.001Z</time></trkpt><trkpt lat="43.99698687456934" lon="11.27434481681888"><ele>272.8</ele><time>2026-04-11T11:46:13.001Z</time></trkpt><trkpt lat="43.99702250913768" lon="11.274203211716424"><ele>274.6</ele><time>2026-04-11T11:46:15.001Z</time></trkpt><trkpt lat="43.99709064604687" lon="11.274134705674458"><ele>276.4</ele><time>2026-04-11T11:46:16.001Z</time></trkpt><trkpt lat="43.99716734684238" lon="11.274077470198112"><ele>278.2</ele><time>2026-04-11T11:46:17.001Z</time></trkpt><trkpt lat="43.99724671563468" lon="11.274015649601257"><ele>280.0</ele><time>2026-04-11T11:46:18.001Z</time></trkpt><trkpt lat="43.997315871717525" lon="11.273954537690868"><ele>281.0</ele><time>2026-04-11T11:46:19.001Z</time></trkpt><trkpt lat="43.997388310468295" lon="11.273911259182789"><ele>282.0</ele><time>2026-04-11T11:46:20.001Z</time></trkpt><trkpt lat="43.99748846664925" lon="11.273855158842835"><ele>283.0</ele><time>2026-04-11T11:46:21.001Z</time></trkpt><trkpt lat="43.99756373221298" lon="11.273820880782761"><ele>284.0</ele><time>2026-04-11T11:46:22.001Z</time></trkpt><trkpt lat="43.99765726715936" lon="11.273767536295566"><ele>285.0</ele><time>2026-04-11T11:46:23.001Z</time></trkpt><trkpt lat="43.99775633968057" lon="11.273726558888791"><ele>286.6666666666667</ele><time>2026-04-11T11:46:24.001Z</time></trkpt><trkpt lat="43.99784293630186" lon="11.273719468825785"><ele>288.3333333333333</ele><time>2026-04-11T11:46:25.001Z</time></trkpt><trkpt lat="43.99791997170218" lon="11.273679438733023"><ele>290.0</ele><time>2026-04-11T11:46:26.001Z</time></trkpt><trkpt lat="43.99801655347206" lon="11.273738837023792"><ele>291.66666666666663</ele><time>2026-04-11T11:46:27.001Z</time></trkpt><trkpt lat="43.998098437419564" lon="11.273710203745262"><ele>293.3333333333333</ele><time>2026-04-11T11:46:28.001Z</time></trkpt><trkpt lat="43.99817680396641" lon="11.273693012384625"><ele>295.0</ele><time>2026-04-11T11:46:29.001Z</time></trkpt><trkpt lat="43.998242118753055" lon="11.273657446157769"><ele>295.0</ele><time>2026-04-11T11:46:30.001Z</time></trkpt><trkpt lat="43.99830783852167" lon="11.273631804584475"><ele>295.0</ele><time>2026-04-11T11:46:31.001Z</time></trkpt><trkpt lat="43.998453254964424" lon="11.273571227149965"><ele>295.0</ele><time>2026-04-11T11:46:33.001Z</time></trkpt><trkpt lat="43.99855310993334" lon="11.273568212569955"><ele>295.0</ele><time>2026-04-11T11:46:34.001Z</time></trkpt><trkpt lat="43.99865714165225" lon="11.273577841445805"><ele>295.0</ele><time>2026-04-11T11:46:35.001Z</time></trkpt><trkpt lat="43.998764781007935" lon="11.273597191558176"><ele>298.2</ele><time>2026-04-11T11:46:36.001Z</time></trkpt><trkpt lat="43.998881235209" lon="11.27358754263509"><ele>301.4</ele><time>2026-04-11T11:46:37.001Z</time></trkpt><trkpt lat="43.999009842524764" lon="11.273598010509309"><ele>304.6</ele><time>2026-04-11T11:46:38.001Z</time></trkpt><trkpt lat="43.999113043459914" lon="11.273627744778397"><ele>307.8</ele><time>2026-04-11T11:46:39.001Z</time></trkpt><trkpt lat="43.99917702047053" lon="11.273664893089382"><ele>311.0</ele><time>2026-04-11T11:46:40.001Z</time></trkpt><trkpt lat="43.999246936621184" lon="11.27370013932661"><ele>313.0</ele><time>2026-04-11T11:46:41.001Z</time></trkpt><trkpt lat="43.99936031090972" lon="11.273687249902723"><ele>315.0</ele><time>2026-04-11T11:46:43.002Z</time></trkpt><trkpt lat="43.999411263795665" lon="11.27362630286337"><ele>317.0</ele><time>2026-04-11T11:46:56.002Z</time></trkpt><trkpt lat="43.99941136712877" lon="11.273470466191059"><ele>319.0</ele><time>2026-04-11T11:46:58.002Z</time></trkpt><trkpt lat="43.99947910554069" lon="11.273274946778386"><ele>321.0</ele><time>2026-04-11T11:47:01.002Z</time></trkpt><trkpt lat="43.999561204944236" lon="11.2731467171583"><ele>323.0</ele><time>2026-04-11T11:47:02.002Z</time></trkpt><trkpt lat="43.99964150254629" lon="11.27304075910848"><ele>325.0</ele><time>2026-04-11T11:47:03Z</time></trkpt><trkpt lat="43.99972546679936" lon="11.27290748203095"><ele>327.0</ele><time>2026-04-11T11:47:05Z</time></trkpt><trkpt lat="43.99981853829223" lon="11.272829619021973"><ele>329.0</ele><time>2026-04-11T11:47:06Z</time></trkpt><trkpt lat="43.99992393867602" lon="11.272734278401204"><ele>329.0</ele><time>2026-04-11T11:47:06.999Z</time></trkpt><trkpt lat="44.000018672646" lon="11.272564689149606"><ele>329.0</ele><time>2026-04-11T11:47:07.999Z</time></trkpt><trkpt lat="44.00009143552394" lon="11.272432758312732"><ele>329.0</ele><time>2026-04-11T11:47:09Z</time></trkpt><trkpt lat="44.000138949942446" lon="11.272284303484048"><ele>329.0</ele><time>2026-04-11T11:47:10Z</time></trkpt><trkpt lat="44.00013885418984" lon="11.272112716733867"><ele>329.0</ele><time>2026-04-11T11:47:11Z</time></trkpt><trkpt lat="44.00012846641871" lon="11.271961227962061"><ele>329.0</ele><time>2026-04-11T11:47:12Z</time></trkpt><trkpt lat="44.00014048518675" lon="11.271795513311698"><ele>329.0</ele><time>2026-04-11T11:47:12.999Z</time></trkpt><trkpt lat="44.00016136022658" lon="11.271638006311225"><ele>329.0</ele><time>2026-04-11T11:47:13.999Z</time></trkpt><trkpt lat="44.00019059003771" lon="11.271490790632912"><ele>328.2</ele><time>2026-04-11T11:47:15Z</time></trkpt><trkpt lat="44.00027385686036" lon="11.271419048744924"><ele>327.4</ele><time>2026-04-11T11:47:16Z</time></trkpt><trkpt lat="44.0003378156765" lon="11.271353903743067"><ele>326.6</ele><time>2026-04-11T11:47:17Z</time></trkpt><trkpt lat="44.000451054155626" lon="11.271274326008314"><ele>325.8</ele><time>2026-04-11T11:47:18Z</time></trkpt><trkpt lat="44.00055367848948" lon="11.271214604911243"><ele>325.0</ele><time>2026-04-11T11:47:19Z</time></trkpt><trkpt lat="44.00065657303375" lon="11.271167251835022"><ele>325.0</ele><time>2026-04-11T11:47:20Z</time></trkpt><trkpt lat="44.00075965892147" lon="11.271109541313553"><ele>325.0</ele><time>2026-04-11T11:47:21Z</time></trkpt><trkpt lat="44.000845599512864" lon="11.271101808648273"><ele>325.0</ele><time>2026-04-11T11:47:22Z</time></trkpt><trkpt lat="44.00092304863433" lon="11.27109792593698"><ele>325.0</ele><time>2026-04-11T11:47:23Z</time></trkpt><trkpt lat="44.00100450643778" lon="11.27105663906712"><ele>325.0</ele><time>2026-04-11T11:47:24Z</time></trkpt><trkpt lat="44.001085975022484" lon="11.27100072151501"><ele>327.0</ele><time>2026-04-11T11:47:25Z</time></trkpt><trkpt lat="44.0011637753122" lon="11.270930492618772"><ele>329.0</ele><time>2026-04-11T11:47:26Z</time></trkpt><trkpt lat="44.001251097429666" lon="11.270873188084927"><ele>331.0</ele><time>2026-04-11T11:47:27Z</time></trkpt><trkpt lat="44.0013057161168" lon="11.270816855669297"><ele>333.0</ele><time>2026-04-11T11:47:28Z</time></trkpt><trkpt lat="44.001291799283486" lon="11.270669528331528"><ele>335.0</ele><time>2026-04-11T11:47:30Z</time></trkpt><trkpt lat="44.001257922543765" lon="11.270559290434642"><ele>336.33333333333337</ele><time>2026-04-11T11:47:31Z</time></trkpt><trkpt lat="44.001225443178626" lon="11.270447373493962"><ele>337.6666666666667</ele><time>2026-04-11T11:47:32Z</time></trkpt><trkpt lat="44.0011609383208" lon="11.27041244368869"><ele>339.0</ele><time>2026-04-11T11:47:33Z</time></trkpt><trkpt lat="44.001116516226844" lon="11.270327260611799"><ele>340.3333333333333</ele><time>2026-04-11T11:47:35Z</time></trkpt><trkpt lat="44.001083990637" lon="11.270247170124007"><ele>341.66666666666663</ele><time>2026-04-11T11:47:36Z</time></trkpt><trkpt lat="44.001009838297" lon="11.270196438057084"><ele>343.0</ele><time>2026-04-11T11:47:38Z</time></trkpt><trkpt lat="44.000927645257974" lon="11.27017064494295"><ele>343.0</ele><time>2026-04-11T11:47:39Z</time></trkpt><trkpt lat="44.000842211069696" lon="11.270163498133146"><ele>343.0</ele><time>2026-04-11T11:47:40Z</time></trkpt><trkpt lat="44.00076450251575" lon="11.270149596174425"><ele>343.0</ele><time>2026-04-11T11:47:41Z</time></trkpt><trkpt lat="44.00070573713948" lon="11.270109259182496"><ele>343.0</ele><time>2026-04-11T11:47:42Z</time></trkpt><trkpt lat="44.000626791309905" lon="11.269965077553662"><ele>343.0</ele><time>2026-04-11T11:47:44Z</time></trkpt><trkpt lat="44.00057864285958" lon="11.269865062231395"><ele>343.0</ele><time>2026-04-11T11:47:45Z</time></trkpt><trkpt lat="44.000522712376785" lon="11.26977839736526"><ele>343.4</ele><time>2026-04-11T11:47:46Z</time></trkpt><trkpt lat="44.00047453265906" lon="11.269701028356078"><ele>343.79999999999995</ele><time>2026-04-11T11:47:47Z</time></trkpt><trkpt lat="44.000386568790056" lon="11.26965171913302"><ele>344.2</ele><time>2026-04-11T11:47:48Z</time></trkpt><trkpt lat="44.00032965471822" lon="11.26944071489859"><ele>344.6</ele><time>2026-04-11T11:47:49Z</time></trkpt><trkpt lat="44.00023828139947" lon="11.269419471878853"><ele>345.0</ele><time>2026-04-11T11:47:50Z</time></trkpt><trkpt lat="44.00014068921433" lon="11.269396531037726"><ele>345.0</ele><time>2026-04-11T11:47:52Z</time></trkpt><trkpt lat="44.000075166723086" lon="11.269397481223278"><ele>345.0</ele><time>2026-04-11T11:48:04.001Z</time></trkpt><trkpt lat="43.99999631082033" lon="11.269373191498966"><ele>345.0</ele><time>2026-04-11T11:49:47Z</time></trkpt><trkpt lat="43.9998861129667" lon="11.269328557065123"><ele>345.0</ele><time>2026-04-11T11:49:49Z</time></trkpt><trkpt lat="43.999789667981304" lon="11.269306561962894"><ele>345.0</ele><time>2026-04-11T11:49:51Z</time></trkpt><trkpt lat="43.999680480498014" lon="11.269293279736269"><ele>345.0</ele><time>2026-04-11T11:49:53Z</time></trkpt><trkpt lat="43.99957295584095" lon="11.269257136545779"><ele>345.0</ele><time>2026-04-11T11:49:54Z</time></trkpt><trkpt lat="43.99948825298201" lon="11.269237136718125"><ele>345.0</ele><time>2026-04-11T11:49:55Z</time></trkpt><trkpt lat="43.99940070394417" lon="11.269216464848201"><ele>345.0</ele><time>2026-04-11T11:49:56Z</time></trkpt><trkpt lat="43.99930310096055" lon="11.269193418971653"><ele>345.0</ele><time>2026-04-11T11:49:57Z</time></trkpt><trkpt lat="43.99920554824906" lon="11.26917038503505"><ele>345.6</ele><time>2026-04-11T11:49:58Z</time></trkpt><trkpt lat="43.99910784266411" lon="11.269170533681384"><ele>346.2</ele><time>2026-04-11T11:49:59Z</time></trkpt><trkpt lat="43.99901070922486" lon="11.269124380032743"><ele>346.79999999999995</ele><time>2026-04-11T11:50:00Z</time></trkpt><trkpt lat="43.9989102053779" lon="11.269123160325378"><ele>347.4</ele><time>2026-04-11T11:50:01Z</time></trkpt><trkpt lat="43.998807193703946" lon="11.269098399590602"><ele>348.0</ele><time>2026-04-11T11:50:02Z</time></trkpt><trkpt lat="43.9986989725764" lon="11.269050925594698"><ele>348.0</ele><time>2026-04-11T11:50:03.001Z</time></trkpt><trkpt lat="43.998581865906544" lon="11.269023491112556"><ele>348.0</ele><time>2026-04-11T11:50:04.001Z</time></trkpt><trkpt lat="43.998464081569196" lon="11.26899589787481"><ele>348.0</ele><time>2026-04-11T11:50:05.001Z</time></trkpt><trkpt lat="43.998345696844474" lon="11.268968163989157"><ele>348.0</ele><time>2026-04-11T11:50:06.001Z</time></trkpt><trkpt lat="43.9982260083427" lon="11.268958624122371"><ele>347.59999999999997</ele><time>2026-04-11T11:50:07.001Z</time></trkpt><trkpt lat="43.998121144045655" lon="11.268913274094736"><ele>347.2</ele><time>2026-04-11T11:50:08.001Z</time></trkpt><trkpt lat="43.99801821191062" lon="11.268890696985883"><ele>346.8</ele><time>2026-04-11T11:50:09.001Z</time></trkpt><trkpt lat="43.997903643393116" lon="11.268873951427851"><ele>346.4</ele><time>2026-04-11T11:50:10.001Z</time></trkpt><trkpt lat="43.99779667829951" lon="11.268867986147567"><ele>346.0</ele><time>2026-04-11T11:50:11.001Z</time></trkpt><trkpt lat="43.997681000744834" lon="11.268869773242319"><ele>346.0</ele><time>2026-04-11T11:50:12.001Z</time></trkpt><trkpt lat="43.99756939204851" lon="11.268868291344093"><ele>346.0</ele><time>2026-04-11T11:50:13.001Z</time></trkpt><trkpt lat="43.997459383647374" lon="11.26887701842368"><ele>346.0</ele><time>2026-04-11T11:50:14.001Z</time></trkpt><trkpt lat="43.99735016039568" lon="11.268897132088426"><ele>346.0</ele><time>2026-04-11T11:50:15.001Z</time></trkpt><trkpt lat="43.99723549355703" lon="11.268907090432464"><ele>346.0</ele><time>2026-04-11T11:50:16.001Z</time></trkpt><trkpt lat="43.99711347791069" lon="11.268919754446019"><ele>345.0</ele><time>2026-04-11T11:50:17.001Z</time></trkpt><trkpt lat="43.996999782383504" lon="11.268921546625771"><ele>344.0</ele><time>2026-04-11T11:50:18.001Z</time></trkpt><trkpt lat="43.996878163620906" lon="11.268925476008166"><ele>343.0</ele><time>2026-04-11T11:50:19.001Z</time></trkpt><trkpt lat="43.996760972282885" lon="11.268892718201604"><ele>342.0</ele><time>2026-04-11T11:50:20.001Z</time></trkpt><trkpt lat="43.99664887071816" lon="11.268846737235702"><ele>341.0</ele><time>2026-04-11T11:50:21.001Z</time></trkpt><trkpt lat="43.99653375784316" lon="11.268765643769498"><ele>340.0</ele><time>2026-04-11T11:50:22.001Z</time></trkpt><trkpt lat="43.996432003056" lon="11.268660130813437"><ele>339.0</ele><time>2026-04-11T11:50:23.001Z</time></trkpt><trkpt lat="43.996338608759366" lon="11.268558249335697"><ele>338.0</ele><time>2026-04-11T11:50:24.001Z</time></trkpt><trkpt lat="43.99624431359712" lon="11.268449118544204"><ele>338.0</ele><time>2026-04-11T11:50:25.001Z</time></trkpt><trkpt lat="43.99614153030605" lon="11.268351973808906"><ele>338.0</ele><time>2026-04-11T11:50:26.001Z</time></trkpt><trkpt lat="43.996022087963645" lon="11.268285321290822"><ele>338.0</ele><time>2026-04-11T11:50:27.001Z</time></trkpt><trkpt lat="43.99588557161594" lon="11.268315420951946"><ele>338.0</ele><time>2026-04-11T11:50:28.001Z</time></trkpt><trkpt lat="43.99574995655339" lon="11.268339559644618"><ele>338.5</ele><time>2026-04-11T11:50:29.001Z</time></trkpt><trkpt lat="43.995618835918776" lon="11.268366581287365"><ele>339.0</ele><time>2026-04-11T11:50:30.001Z</time></trkpt><trkpt lat="43.99549346816371" lon="11.26838920888398"><ele>339.5</ele><time>2026-04-11T11:50:31.001Z</time></trkpt><trkpt lat="43.99537514553339" lon="11.268434030237557"><ele>340.0</ele><time>2026-04-11T11:50:32.001Z</time></trkpt><trkpt lat="43.99526387072524" lon="11.268514584737112"><ele>340.0</ele><time>2026-04-11T11:50:33.001Z</time></trkpt><trkpt lat="43.99517297279612" lon="11.268610547192445"><ele>340.0</ele><time>2026-04-11T11:50:34.001Z</time></trkpt><trkpt lat="43.995080341485746" lon="11.268711017308517"><ele>340.0</ele><time>2026-04-11T11:50:35.001Z</time></trkpt><trkpt lat="43.994971848728504" lon="11.268791103657795"><ele>340.0</ele><time>2026-04-11T11:50:36.001Z</time></trkpt><trkpt lat="43.994854285917725" lon="11.268840734179243"><ele>339.25</ele><time>2026-04-11T11:50:37.001Z</time></trkpt><trkpt lat="43.99472274382644" lon="11.268868593923768"><ele>338.5</ele><time>2026-04-11T11:50:38.001Z</time></trkpt><trkpt lat="43.99457858341503" lon="11.268883895751621"><ele>337.75</ele><time>2026-04-11T11:50:39.001Z</time></trkpt><trkpt lat="43.9944303319907" lon="11.268889639989029"><ele>337.0</ele><time>2026-04-11T11:50:40.001Z</time></trkpt><trkpt lat="43.99428139770812" lon="11.26890649729317"><ele>334.25</ele><time>2026-04-11T11:50:41.001Z</time></trkpt><trkpt lat="43.99412707722549" lon="11.268896917101827"><ele>331.5</ele><time>2026-04-11T11:50:42.001Z</time></trkpt><trkpt lat="43.99399523108631" lon="11.268862011004433"><ele>328.75</ele><time>2026-04-11T11:50:43.001Z</time></trkpt><trkpt lat="43.99385867318914" lon="11.268842952092848"><ele>326.0</ele><time>2026-04-11T11:50:44.001Z</time></trkpt><trkpt lat="43.993730493070316" lon="11.268864710246651"><ele>326.0</ele><time>2026-04-11T11:50:45.001Z</time></trkpt><trkpt lat="43.993601120113496" lon="11.268904760370663"><ele>326.0</ele><time>2026-04-11T11:50:46.001Z</time></trkpt><trkpt lat="43.993467342373606" lon="11.26892679077767"><ele>326.0</ele><time>2026-04-11T11:50:47.001Z</time></trkpt><trkpt lat="43.9933300258448" lon="11.26894744735537"><ele>326.0</ele><time>2026-04-11T11:50:48.001Z</time></trkpt><trkpt lat="43.993197131843786" lon="11.268975998722832"><ele>326.75</ele><time>2026-04-11T11:50:49.001Z</time></trkpt><trkpt lat="43.99306625668741" lon="11.269024202984863"><ele>327.5</ele><time>2026-04-11T11:50:50.001Z</time></trkpt><trkpt lat="43.99294173024347" lon="11.269090655941287"><ele>328.25</ele><time>2026-04-11T11:50:51.001Z</time></trkpt><trkpt lat="43.99281801171675" lon="11.26917790525426"><ele>329.0</ele><time>2026-04-11T11:50:52.001Z</time></trkpt><trkpt lat="43.99268741782145" lon="11.269228396407701"><ele>329.0</ele><time>2026-04-11T11:50:53.001Z</time></trkpt><trkpt lat="43.99256810754751" lon="11.269308854642816"><ele>329.0</ele><time>2026-04-11T11:50:54.001Z</time></trkpt><trkpt lat="43.99243349053342" lon="11.269321812292858"><ele>329.0</ele><time>2026-04-11T11:50:55.001Z</time></trkpt><trkpt lat="43.99231018958134" lon="11.269260227897941"><ele>329.0</ele><time>2026-04-11T11:50:56.001Z</time></trkpt><trkpt lat="43.99218954546874" lon="11.269193896807952"><ele>327.5</ele><time>2026-04-11T11:50:57.001Z</time></trkpt><trkpt lat="43.99207354733625" lon="11.269129144062335"><ele>326.0</ele><time>2026-04-11T11:50:58.001Z</time></trkpt><trkpt lat="43.9919684709788" lon="11.26908371348528"><ele>324.5</ele><time>2026-04-11T11:50:59.001Z</time></trkpt><trkpt lat="43.99184143690002" lon="11.269083512662364"><ele>323.0</ele><time>2026-04-11T11:51:00.001Z</time></trkpt><trkpt lat="43.991721277661235" lon="11.269136962583765"><ele>321.75</ele><time>2026-04-11T11:51:01.001Z</time></trkpt><trkpt lat="43.99162842015656" lon="11.269272966623285"><ele>320.5</ele><time>2026-04-11T11:51:02.001Z</time></trkpt><trkpt lat="43.99159356793466" lon="11.269448270843396"><ele>319.25</ele><time>2026-04-11T11:51:03.002Z</time></trkpt><trkpt lat="43.991578879909966" lon="11.269625355529932"><ele>318.0</ele><time>2026-04-11T11:51:04.002Z</time></trkpt><trkpt lat="43.99157634498768" lon="11.26979400014354"><ele>318.0</ele><time>2026-04-11T11:51:05.002Z</time></trkpt><trkpt lat="43.991580901796155" lon="11.269976027321997"><ele>318.0</ele><time>2026-04-11T11:51:06.002Z</time></trkpt><trkpt lat="43.991551769458155" lon="11.270149433546107"><ele>318.0</ele><time>2026-04-11T11:51:07.002Z</time></trkpt><trkpt lat="43.9915053623179" lon="11.270311174621307"><ele>318.0</ele><time>2026-04-11T11:51:08.002Z</time></trkpt><trkpt lat="43.9914382645836" lon="11.27046247646321"><ele>318.0</ele><time>2026-04-11T11:51:09.002Z</time></trkpt><trkpt lat="43.9913480613249" lon="11.270593591822296"><ele>318.0</ele><time>2026-04-11T11:51:10.002Z</time></trkpt><trkpt lat="43.99123867262103" lon="11.270701557799088"><ele>318.0</ele><time>2026-04-11T11:51:11.002Z</time></trkpt><trkpt lat="43.99111863757384" lon="11.270812570583317"><ele>318.0</ele><time>2026-04-11T11:51:12.002Z</time></trkpt><trkpt lat="43.99099085318842" lon="11.270929200073075"><ele>317.6666666666667</ele><time>2026-04-11T11:51:13.002Z</time></trkpt><trkpt lat="43.9908562432396" lon="11.271052059428692"><ele>317.33333333333337</ele><time>2026-04-11T11:51:14.002Z</time></trkpt><trkpt lat="43.99071890588094" lon="11.27117740775112"><ele>317.0</ele><time>2026-04-11T11:51:15Z</time></trkpt><trkpt lat="43.99058357519819" lon="11.271300925047834"><ele>316.33333333333337</ele><time>2026-04-11T11:51:16Z</time></trkpt><trkpt lat="43.990443485991364" lon="11.271428785209023"><ele>315.6666666666667</ele><time>2026-04-11T11:51:17Z</time></trkpt><trkpt lat="43.99030680569679" lon="11.271553533984186"><ele>315.0</ele><time>2026-04-11T11:51:18Z</time></trkpt><trkpt lat="43.99018049095985" lon="11.271668822205674"><ele>315.0</ele><time>2026-04-11T11:51:19Z</time></trkpt><trkpt lat="43.990054401624775" lon="11.271783414358332"><ele>315.0</ele><time>2026-04-11T11:51:20Z</time></trkpt><trkpt lat="43.98993447823619" lon="11.271892198610756"><ele>315.0</ele><time>2026-04-11T11:51:21Z</time></trkpt><trkpt lat="43.98981519565423" lon="11.272000563696682"><ele>315.0</ele><time>2026-04-11T11:51:22Z</time></trkpt><trkpt lat="43.98969888395807" lon="11.27210643219767"><ele>312.75</ele><time>2026-04-11T11:51:23Z</time></trkpt><trkpt lat="43.98958532143088" lon="11.272209798507157"><ele>310.5</ele><time>2026-04-11T11:51:24Z</time></trkpt><trkpt lat="43.989470839278226" lon="11.272314001602892"><ele>308.25</ele><time>2026-04-11T11:51:25Z</time></trkpt><trkpt lat="43.98935669623084" lon="11.272412708147117"><ele>306.0</ele><time>2026-04-11T11:51:26Z</time></trkpt><trkpt lat="43.989238014339314" lon="11.272500781443359"><ele>303.5</ele><time>2026-04-11T11:51:27Z</time></trkpt><trkpt lat="43.989118497800895" lon="11.272584243386353"><ele>301.0</ele><time>2026-04-11T11:51:28Z</time></trkpt><trkpt lat="43.989001295157536" lon="11.272660694771238"><ele>298.5</ele><time>2026-04-11T11:51:29Z</time></trkpt><trkpt lat="43.988885020104156" lon="11.272734547605495"><ele>296.0</ele><time>2026-04-11T11:51:30Z</time></trkpt><trkpt lat="43.988771088430816" lon="11.272808246464427"><ele>296.0</ele><time>2026-04-11T11:51:31Z</time></trkpt><trkpt lat="43.98865573300706" lon="11.272886010922837"><ele>296.0</ele><time>2026-04-11T11:51:32Z</time></trkpt><trkpt lat="43.98853659548194" lon="11.272949528045341"><ele>296.0</ele><time>2026-04-11T11:51:33Z</time></trkpt><trkpt lat="43.988415012283866" lon="11.273021059544238"><ele>296.0</ele><time>2026-04-11T11:51:34Z</time></trkpt><trkpt lat="43.98828658007752" lon="11.273083539309365"><ele>297.0</ele><time>2026-04-11T11:51:35Z</time></trkpt><trkpt lat="43.98815198830582" lon="11.273149624485308"><ele>298.0</ele><time>2026-04-11T11:51:36Z</time></trkpt><trkpt lat="43.98800564270634" lon="11.273171289619391"><ele>299.0</ele><time>2026-04-11T11:51:37Z</time></trkpt><trkpt lat="43.987854216263464" lon="11.273211640928174"><ele>300.0</ele><time>2026-04-11T11:51:38Z</time></trkpt><trkpt lat="43.98769454458781" lon="11.273247396148538"><ele>300.0</ele><time>2026-04-11T11:51:39Z</time></trkpt><trkpt lat="43.98753598296699" lon="11.273292741519887"><ele>300.0</ele><time>2026-04-11T11:51:40Z</time></trkpt><trkpt lat="43.98736501369997" lon="11.273293040277688"><ele>300.0</ele><time>2026-04-11T11:51:41Z</time></trkpt><trkpt lat="43.98720067259495" lon="11.273328116309992"><ele>296.6666666666667</ele><time>2026-04-11T11:51:42Z</time></trkpt><trkpt lat="43.98704565308366" lon="11.273343752921223"><ele>293.33333333333337</ele><time>2026-04-11T11:51:43Z</time></trkpt><trkpt lat="43.98689589381459" lon="11.27336049189848"><ele>290.0</ele><time>2026-04-11T11:51:44Z</time></trkpt><trkpt lat="43.98674673167823" lon="11.273378829728445"><ele>289.0</ele><time>2026-04-11T11:51:45Z</time></trkpt><trkpt lat="43.9866036796187" lon="11.273401564221576"><ele>288.0</ele><time>2026-04-11T11:51:46Z</time></trkpt><trkpt lat="43.98647434265451" lon="11.273416783318893"><ele>287.0</ele><time>2026-04-11T11:51:47Z</time></trkpt><trkpt lat="43.9863510055641" lon="11.27343055752948"><ele>286.0</ele><time>2026-04-11T11:51:48Z</time></trkpt><trkpt lat="43.986239086775115" lon="11.273437964129633"><ele>286.0</ele><time>2026-04-11T11:51:49Z</time></trkpt><trkpt lat="43.9861378318926" lon="11.273432652807927"><ele>286.0</ele><time>2026-04-11T11:51:50Z</time></trkpt><trkpt lat="43.986056059863515" lon="11.273424841489398"><ele>286.0</ele><time>2026-04-11T11:51:51Z</time></trkpt><trkpt lat="43.98596479875581" lon="11.273372710577823"><ele>286.0</ele><time>2026-04-11T11:51:53Z</time></trkpt><trkpt lat="43.98592263788543" lon="11.273275775034966"><ele>286.0</ele><time>2026-04-11T11:51:59Z</time></trkpt><trkpt lat="43.985914834010835" lon="11.273168352880038"><ele>286.0</ele><time>2026-04-11T11:52:01Z</time></trkpt><trkpt lat="43.98590121610386" lon="11.273011963844406"><ele>284.8</ele><time>2026-04-11T11:52:03Z</time></trkpt><trkpt lat="43.98600020838014" lon="11.272931502830986"><ele>283.6</ele><time>2026-04-11T11:52:04Z</time></trkpt><trkpt lat="43.98607465687645" lon="11.272867754500965"><ele>282.4</ele><time>2026-04-11T11:52:05Z</time></trkpt><trkpt lat="43.986172541071085" lon="11.272818960631023"><ele>281.2</ele><time>2026-04-11T11:52:06Z</time></trkpt><trkpt lat="43.986283416107995" lon="11.272757531927983"><ele>280.0</ele><time>2026-04-11T11:52:07Z</time></trkpt><trkpt lat="43.98640840382859" lon="11.272682740174021"><ele>280.0</ele><time>2026-04-11T11:52:08Z</time></trkpt><trkpt lat="43.98653932471239" lon="11.27260199845113"><ele>280.0</ele><time>2026-04-11T11:52:09Z</time></trkpt><trkpt lat="43.986664226101816" lon="11.27251834397041"><ele>280.0</ele><time>2026-04-11T11:52:10Z</time></trkpt><trkpt lat="43.98679284754212" lon="11.27242847936493"><ele>280.0</ele><time>2026-04-11T11:52:11Z</time></trkpt><trkpt lat="43.98691848164025" lon="11.272319138910115"><ele>278.66666666666663</ele><time>2026-04-11T11:52:12Z</time></trkpt><trkpt lat="43.98704027508776" lon="11.272199885670824"><ele>277.3333333333333</ele><time>2026-04-11T11:52:13Z</time></trkpt><trkpt lat="43.98716374994569" lon="11.272058280050103"><ele>276.0</ele><time>2026-04-11T11:52:14Z</time></trkpt><trkpt lat="43.98730673258182" lon="11.271891108139958"><ele>276.0</ele><time>2026-04-11T11:52:15Z</time></trkpt><trkpt lat="43.98744962714293" lon="11.271702180201755"><ele>276.0</ele><time>2026-04-11T11:52:16.001Z</time></trkpt><trkpt lat="43.98758626654912" lon="11.27150673020523"><ele>276.0</ele><time>2026-04-11T11:52:17.001Z</time></trkpt><trkpt lat="43.98771334759437" lon="11.271302748339629"><ele>274.3333333333333</ele><time>2026-04-11T11:52:18.001Z</time></trkpt><trkpt lat="43.98783733860954" lon="11.271093948998484"><ele>272.66666666666663</ele><time>2026-04-11T11:52:19.001Z</time></trkpt><trkpt lat="43.987945495344924" lon="11.270889929571032"><ele>271.0</ele><time>2026-04-11T11:52:20.001Z</time></trkpt><trkpt lat="43.988034967413874" lon="11.270698739880103"><ele>269.66666666666663</ele><time>2026-04-11T11:52:21.001Z</time></trkpt><trkpt lat="43.98811540828717" lon="11.270496500155652"><ele>268.3333333333333</ele><time>2026-04-11T11:52:22.001Z</time></trkpt><trkpt lat="43.98819663309522" lon="11.270306471659383"><ele>267.0</ele><time>2026-04-11T11:52:23.001Z</time></trkpt><trkpt lat="43.98827966289167" lon="11.27010362508102"><ele>268.0</ele><time>2026-04-11T11:52:24.001Z</time></trkpt><trkpt lat="43.98834601139525" lon="11.269899340785138"><ele>269.0</ele><time>2026-04-11T11:52:25.001Z</time></trkpt><trkpt lat="43.9884038926699" lon="11.269691826859173"><ele>270.0</ele><time>2026-04-11T11:52:26.001Z</time></trkpt><trkpt lat="43.988466111460184" lon="11.269477555707663"><ele>271.3333333333333</ele><time>2026-04-11T11:52:27.001Z</time></trkpt><trkpt lat="43.988521374780184" lon="11.269265310809779"><ele>272.66666666666663</ele><time>2026-04-11T11:52:28.001Z</time></trkpt><trkpt lat="43.98856428598749" lon="11.26905580813784"><ele>274.0</ele><time>2026-04-11T11:52:29.001Z</time></trkpt><trkpt lat="43.98860249994717" lon="11.268846229516019"><ele>276.3333333333333</ele><time>2026-04-11T11:52:30.001Z</time></trkpt><trkpt lat="43.988639666679674" lon="11.26863021490386"><ele>278.6666666666667</ele><time>2026-04-11T11:52:31.001Z</time></trkpt><trkpt lat="43.98867304537104" lon="11.268407130236207"><ele>281.0</ele><time>2026-04-11T11:52:32.001Z</time></trkpt><trkpt lat="43.988697415321425" lon="11.268175332078917"><ele>282.0</ele><time>2026-04-11T11:52:33.001Z</time></trkpt><trkpt lat="43.988720550824205" lon="11.26793400566103"><ele>283.0</ele><time>2026-04-11T11:52:34.001Z</time></trkpt><trkpt lat="43.988731694605164" lon="11.267691916560304"><ele>284.0</ele><time>2026-04-11T11:52:35.001Z</time></trkpt><trkpt lat="43.988740757404486" lon="11.267438267505536"><ele>283.6666666666667</ele><time>2026-04-11T11:52:36.001Z</time></trkpt><trkpt lat="43.98874696331045" lon="11.267184419558216"><ele>283.3333333333333</ele><time>2026-04-11T11:52:37.001Z</time></trkpt><trkpt lat="43.98875558394845" lon="11.266926288294254"><ele>283.0</ele><time>2026-04-11T11:52:38.001Z</time></trkpt><trkpt lat="43.98875809226955" lon="11.266667961080431"><ele>282.3333333333333</ele><time>2026-04-11T11:52:39.001Z</time></trkpt><trkpt lat="43.988765089936365" lon="11.266401607689687"><ele>281.6666666666667</ele><time>2026-04-11T11:52:40.001Z</time></trkpt><trkpt lat="43.98876874548921" lon="11.266144065359912"><ele>281.0</ele><time>2026-04-11T11:52:41.001Z</time></trkpt><trkpt lat="43.9887676759494" lon="11.265905336000944"><ele>281.0</ele><time>2026-04-11T11:52:42.001Z</time></trkpt><trkpt lat="43.988769403180676" lon="11.26565503294231"><ele>281.0</ele><time>2026-04-11T11:52:43.001Z</time></trkpt><trkpt lat="43.98876604514065" lon="11.265404552939419"><ele>281.0</ele><time>2026-04-11T11:52:44.001Z</time></trkpt><trkpt lat="43.98875656775801" lon="11.265148585748829"><ele>278.6666666666667</ele><time>2026-04-11T11:52:45.001Z</time></trkpt><trkpt lat="43.98874841530151" lon="11.264890084630716"><ele>276.3333333333333</ele><time>2026-04-11T11:52:46.001Z</time></trkpt><trkpt lat="43.98873835130289" lon="11.264629649983366"><ele>274.0</ele><time>2026-04-11T11:52:47.001Z</time></trkpt><trkpt lat="43.98872790369489" lon="11.264383581033519"><ele>270.66666666666663</ele><time>2026-04-11T11:52:48.001Z</time></trkpt><trkpt lat="43.98870937024837" lon="11.264146305360518"><ele>267.3333333333333</ele><time>2026-04-11T11:52:49.001Z</time></trkpt><trkpt lat="43.988687866392105" lon="11.263913047498214"><ele>264.0</ele><time>2026-04-11T11:52:50.001Z</time></trkpt><trkpt lat="43.988662074535625" lon="11.263680283289489"><ele>258.3333333333333</ele><time>2026-04-11T11:52:51.001Z</time></trkpt><trkpt lat="43.988637876788864" lon="11.263446602917021"><ele>252.66666666666666</ele><time>2026-04-11T11:52:52.001Z</time></trkpt><trkpt lat="43.98860684482515" lon="11.263213517363559"><ele>247.0</ele><time>2026-04-11T11:52:53.001Z</time></trkpt><trkpt lat="43.988570769353316" lon="11.26299521870557"><ele>246.5</ele><time>2026-04-11T11:52:54.001Z</time></trkpt><trkpt lat="43.98853616229849" lon="11.262794880523028"><ele>246.0</ele><time>2026-04-11T11:52:55.001Z</time></trkpt><trkpt lat="43.98850033749079" lon="11.2625965071891"><ele>245.5</ele><time>2026-04-11T11:52:56.001Z</time></trkpt><trkpt lat="43.98846073795014" lon="11.262396278413666"><ele>245.0</ele><time>2026-04-11T11:52:57.001Z</time></trkpt><trkpt lat="43.98841647520161" lon="11.262197755981934"><ele>246.0</ele><time>2026-04-11T11:52:58.001Z</time></trkpt><trkpt lat="43.98837244564254" lon="11.262002295950706"><ele>247.0</ele><time>2026-04-11T11:52:59.001Z</time></trkpt><trkpt lat="43.988333884388716" lon="11.26181950283028"><ele>248.0</ele><time>2026-04-11T11:53:00.001Z</time></trkpt><trkpt lat="43.9882943075908" lon="11.261646013547463"><ele>249.0</ele><time>2026-04-11T11:53:01.001Z</time></trkpt><trkpt lat="43.98825559618936" lon="11.26146760730044"><ele>252.75</ele><time>2026-04-11T11:53:02.001Z</time></trkpt><trkpt lat="43.98820939454771" lon="11.26128967279606"><ele>256.5</ele><time>2026-04-11T11:53:03.001Z</time></trkpt><trkpt lat="43.98816204842067" lon="11.261106587405193"><ele>260.25</ele><time>2026-04-11T11:53:04.001Z</time></trkpt><trkpt lat="43.98812023138005" lon="11.260919919157903"><ele>264.0</ele><time>2026-04-11T11:53:05.001Z</time></trkpt><trkpt lat="43.98807710687527" lon="11.260732939269475"><ele>264.75</ele><time>2026-04-11T11:53:06.001Z</time></trkpt><trkpt lat="43.98803139554449" lon="11.260546476678451"><ele>265.5</ele><time>2026-04-11T11:53:07.001Z</time></trkpt><trkpt lat="43.98798355223542" lon="11.2603539303308"><ele>266.25</ele><time>2026-04-11T11:53:08.001Z</time></trkpt><trkpt lat="43.987943000746085" lon="11.260180917052018"><ele>267.0</ele><time>2026-04-11T11:53:09.001Z</time></trkpt><trkpt lat="43.98790062765651" lon="11.260023035302787"><ele>267.0</ele><time>2026-04-11T11:53:10.001Z</time></trkpt><trkpt lat="43.98785958983055" lon="11.259855100159871"><ele>267.0</ele><time>2026-04-11T11:53:11.001Z</time></trkpt><trkpt lat="43.98781853034717" lon="11.259689285657492"><ele>267.0</ele><time>2026-04-11T11:53:12.001Z</time></trkpt><trkpt lat="43.98777784305968" lon="11.259540971295172"><ele>267.0</ele><time>2026-04-11T11:53:13.001Z</time></trkpt><trkpt lat="43.98774432316284" lon="11.25939211340778"><ele>268.6666666666667</ele><time>2026-04-11T11:53:14.001Z</time></trkpt><trkpt lat="43.987711632265516" lon="11.259257088815135"><ele>270.3333333333333</ele><time>2026-04-11T11:53:15.001Z</time></trkpt><trkpt lat="43.9876852763571" lon="11.259130190380242"><ele>272.0</ele><time>2026-04-11T11:53:16.001Z</time></trkpt><trkpt lat="43.98766477075058" lon="11.259013733877541"><ele>273.66666666666663</ele><time>2026-04-11T11:53:17.002Z</time></trkpt><trkpt lat="43.98764287827432" lon="11.25890045239507"><ele>275.3333333333333</ele><time>2026-04-11T11:53:18.002Z</time></trkpt><trkpt lat="43.987623079656196" lon="11.258802881784773"><ele>277.0</ele><time>2026-04-11T11:53:19.002Z</time></trkpt><trkpt lat="43.98760232790324" lon="11.258716108832031"><ele>279.0</ele><time>2026-04-11T11:53:20.002Z</time></trkpt><trkpt lat="43.98758806132448" lon="11.258576544381764"><ele>281.0</ele><time>2026-04-11T11:53:22Z</time></trkpt><trkpt lat="43.987584719465914" lon="11.25843019024768"><ele>283.0</ele><time>2026-04-11T11:53:24Z</time></trkpt><trkpt lat="43.98758880727718" lon="11.25829626898779"><ele>285.0</ele><time>2026-04-11T11:53:26Z</time></trkpt><trkpt lat="43.987629728946786" lon="11.258179423921595"><ele>287.0</ele><time>2026-04-11T11:53:28Z</time></trkpt><trkpt lat="43.987700720047656" lon="11.258079812396748"><ele>287.0</ele><time>2026-04-11T11:53:30Z</time></trkpt><trkpt lat="43.98782474943478" lon="11.258036090897306"><ele>287.0</ele><time>2026-04-11T11:53:32Z</time></trkpt><trkpt lat="43.98789013704171" lon="11.258051192666722"><ele>287.0</ele><time>2026-04-11T11:53:33Z</time></trkpt><trkpt lat="43.987994180961806" lon="11.258107569870418"><ele>287.0</ele><time>2026-04-11T11:53:35Z</time></trkpt><trkpt lat="43.98805441403904" lon="11.258133388635729"><ele>287.0</ele><time>2026-04-11T11:53:44Z</time></trkpt><trkpt lat="43.98812371818009" lon="11.25813499833933"><ele>287.0</ele><time>2026-04-11T11:53:47Z</time></trkpt><trkpt lat="43.988210832712255" lon="11.258120521377604"><ele>287.1666666666667</ele><time>2026-04-11T11:53:49Z</time></trkpt><trkpt lat="43.98829436316871" lon="11.25811464209697"><ele>287.33333333333337</ele><time>2026-04-11T11:53:51Z</time></trkpt><trkpt lat="43.9883605712034" lon="11.2581078043509"><ele>287.5</ele><time>2026-04-11T11:53:53Z</time></trkpt><trkpt lat="43.98843201291317" lon="11.258053146517911"><ele>287.6666666666667</ele><time>2026-04-11T11:53:56Z</time></trkpt><trkpt lat="43.9885056878241" lon="11.258004294165376"><ele>287.8333333333333</ele><time>2026-04-11T11:54:00Z</time></trkpt><trkpt lat="43.9885903531612" lon="11.257908563779083"><ele>288.0</ele><time>2026-04-11T11:54:02Z</time></trkpt><trkpt lat="43.98863993029847" lon="11.257833995718434"><ele>288.0</ele><time>2026-04-11T11:54:03Z</time></trkpt><trkpt lat="43.98871198502121" lon="11.25777186669676"><ele>288.0</ele><time>2026-04-11T11:54:04Z</time></trkpt><trkpt lat="43.98873526972481" lon="11.257625572054136"><ele>288.0</ele><time>2026-04-11T11:54:05Z</time></trkpt><trkpt lat="43.98877447031966" lon="11.257502103562123"><ele>288.0</ele><time>2026-04-11T11:54:06Z</time></trkpt><trkpt lat="43.9888053495148" lon="11.257374279663063"><ele>288.0</ele><time>2026-04-11T11:54:07Z</time></trkpt><trkpt lat="43.98882991016764" lon="11.257236331319872"><ele>290.0</ele><time>2026-04-11T11:54:08Z</time></trkpt><trkpt lat="43.98885000129869" lon="11.25708653589624"><ele>292.0</ele><time>2026-04-11T11:54:09Z</time></trkpt><trkpt lat="43.98888211922745" lon="11.256933862847085"><ele>294.0</ele><time>2026-04-11T11:54:10Z</time></trkpt><trkpt lat="43.98892093315741" lon="11.256781015632198"><ele>296.0</ele><time>2026-04-11T11:54:11Z</time></trkpt><trkpt lat="43.98896752911297" lon="11.256628637741187"><ele>296.0</ele><time>2026-04-11T11:54:12Z</time></trkpt><trkpt lat="43.9890242929286" lon="11.256481709552125"><ele>296.0</ele><time>2026-04-11T11:54:13Z</time></trkpt><trkpt lat="43.98908882958214" lon="11.256356675097178"><ele>296.0</ele><time>2026-04-11T11:54:14Z</time></trkpt><trkpt lat="43.9891487982971" lon="11.2562442114113"><ele>296.0</ele><time>2026-04-11T11:54:15Z</time></trkpt><trkpt lat="43.98920675131568" lon="11.25614457223507"><ele>296.0</ele><time>2026-04-11T11:54:16Z</time></trkpt><trkpt lat="43.9892697773565" lon="11.25608306150191"><ele>296.2</ele><time>2026-04-11T11:54:17Z</time></trkpt><trkpt lat="43.98931010131768" lon="11.25598648747807"><ele>296.40000000000003</ele><time>2026-04-11T11:54:18Z</time></trkpt><trkpt lat="43.98939258847381" lon="11.255898462351915"><ele>296.6</ele><time>2026-04-11T11:54:19Z</time></trkpt><trkpt lat="43.9894557518962" lon="11.255801977926241"><ele>296.8</ele><time>2026-04-11T11:54:20Z</time></trkpt><trkpt lat="43.98950507460059" lon="11.255687800099405"><ele>297.0</ele><time>2026-04-11T11:54:21Z</time></trkpt><trkpt lat="43.98955757907924" lon="11.255556150354336"><ele>297.6</ele><time>2026-04-11T11:54:22Z</time></trkpt><trkpt lat="43.98962728696796" lon="11.255436452276731"><ele>298.2</ele><time>2026-04-11T11:54:23Z</time></trkpt><trkpt lat="43.98970249783598" lon="11.255346559805783"><ele>298.8</ele><time>2026-04-11T11:54:24Z</time></trkpt><trkpt lat="43.98977067647231" lon="11.255246767556205"><ele>299.4</ele><time>2026-04-11T11:54:25Z</time></trkpt><trkpt lat="43.98984463980973" lon="11.255141160521"><ele>300.0</ele><time>2026-04-11T11:54:26Z</time></trkpt><trkpt lat="43.98992125212841" lon="11.25503463923008"><ele>300.0</ele><time>2026-04-11T11:54:27Z</time></trkpt><trkpt lat="43.99000608156859" lon="11.254925854497351"><ele>300.0</ele><time>2026-04-11T11:54:28.001Z</time></trkpt><trkpt lat="43.99007762150216" lon="11.254843920809803"><ele>300.0</ele><time>2026-04-11T11:54:29.001Z</time></trkpt><trkpt lat="43.99016509689756" lon="11.254785403005773"><ele>300.0</ele><time>2026-04-11T11:54:30.001Z</time></trkpt><trkpt lat="43.990259441954265" lon="11.254721171752449"><ele>300.0</ele><time>2026-04-11T11:54:31.001Z</time></trkpt><trkpt lat="43.990340924082616" lon="11.254636820948734"><ele>299.2</ele><time>2026-04-11T11:54:32.001Z</time></trkpt><trkpt lat="43.990439460638534" lon="11.254557648042127"><ele>298.4</ele><time>2026-04-11T11:54:33.001Z</time></trkpt><trkpt lat="43.99054594641137" lon="11.254479347368559"><ele>297.6</ele><time>2026-04-11T11:54:34.001Z</time></trkpt><trkpt lat="43.990641690415885" lon="11.254410969936155"><ele>296.8</ele><time>2026-04-11T11:54:35.001Z</time></trkpt><trkpt lat="43.99072011995833" lon="11.254362392646385"><ele>296.0</ele><time>2026-04-11T11:54:36.001Z</time></trkpt><trkpt lat="43.99080275412405" lon="11.254289455269385"><ele>296.2</ele><time>2026-04-11T11:54:37.001Z</time></trkpt><trkpt lat="43.990886496517994" lon="11.254214917032316"><ele>296.40000000000003</ele><time>2026-04-11T11:54:38.001Z</time></trkpt><trkpt lat="43.99097847297746" lon="11.25412861206106"><ele>296.6</ele><time>2026-04-11T11:54:39.001Z</time></trkpt><trkpt lat="43.991053128161596" lon="11.254046159641803"><ele>296.8</ele><time>2026-04-11T11:54:40.001Z</time></trkpt><trkpt lat="43.99111564827824" lon="11.253990483287351"><ele>297.0</ele><time>2026-04-11T11:54:41.001Z</time></trkpt><trkpt lat="43.99118801428519" lon="11.25391294865207"><ele>297.0</ele><time>2026-04-11T11:54:42.001Z</time></trkpt><trkpt lat="43.991253092919635" lon="11.253845920340899"><ele>297.0</ele><time>2026-04-11T11:54:43.001Z</time></trkpt><trkpt lat="43.991315724492935" lon="11.253786504141505"><ele>297.0</ele><time>2026-04-11T11:54:44.001Z</time></trkpt><trkpt lat="43.99138584473019" lon="11.253723358119332"><ele>297.0</ele><time>2026-04-11T11:54:45.001Z</time></trkpt><trkpt lat="43.99145258036159" lon="11.25366326011026"><ele>297.0</ele><time>2026-04-11T11:54:46.001Z</time></trkpt><trkpt lat="43.991530192843825" lon="11.25359336700318"><ele>297.0</ele><time>2026-04-11T11:54:47.001Z</time></trkpt><trkpt lat="43.99159901443094" lon="11.25352965405592"><ele>295.6</ele><time>2026-04-11T11:54:48.001Z</time></trkpt><trkpt lat="43.99167450695316" lon="11.253458341014312"><ele>294.2</ele><time>2026-04-11T11:54:49.001Z</time></trkpt><trkpt lat="43.9917463326978" lon="11.253390491739946"><ele>292.8</ele><time>2026-04-11T11:54:50.001Z</time></trkpt><trkpt lat="43.99182010812996" lon="11.253321398808914"><ele>291.4</ele><time>2026-04-11T11:54:51.001Z</time></trkpt><trkpt lat="43.991895475049525" lon="11.253250936554796"><ele>290.0</ele><time>2026-04-11T11:54:52.001Z</time></trkpt><trkpt lat="43.99199137181446" lon="11.253164699802381"><ele>290.6</ele><time>2026-04-11T11:54:53.001Z</time></trkpt><trkpt lat="43.992078116462984" lon="11.253089273661518"><ele>291.2</ele><time>2026-04-11T11:54:54.001Z</time></trkpt><trkpt lat="43.99216195145488" lon="11.2530176528356"><ele>291.8</ele><time>2026-04-11T11:54:55.001Z</time></trkpt><trkpt lat="43.99225701019863" lon="11.252936443536242"><ele>292.4</ele><time>2026-04-11T11:54:56.001Z</time></trkpt><trkpt lat="43.992347839946596" lon="11.252832596211022"><ele>293.0</ele><time>2026-04-11T11:54:57.001Z</time></trkpt><trkpt lat="43.992446148957775" lon="11.252763188001897"><ele>292.6</ele><time>2026-04-11T11:54:58.001Z</time></trkpt><trkpt lat="43.992530291439145" lon="11.252700822575177"><ele>292.20000000000005</ele><time>2026-04-11T11:54:59.001Z</time></trkpt><trkpt lat="43.99263119957353" lon="11.252616089613259"><ele>291.8</ele><time>2026-04-11T11:55:00.001Z</time></trkpt><trkpt lat="43.992732151027916" lon="11.252530359649183"><ele>291.40000000000003</ele><time>2026-04-11T11:55:01.001Z</time></trkpt><trkpt lat="43.99283319458912" lon="11.25244831714133"><ele>291.0</ele><time>2026-04-11T11:55:02.001Z</time></trkpt><trkpt lat="43.99292768181451" lon="11.25237395164011"><ele>291.0</ele><time>2026-04-11T11:55:03.001Z</time></trkpt><trkpt lat="43.993024431296796" lon="11.252304708848596"><ele>291.0</ele><time>2026-04-11T11:55:04.001Z</time></trkpt><trkpt lat="43.99311313090852" lon="11.252227477708853"><ele>291.0</ele><time>2026-04-11T11:55:05.001Z</time></trkpt><trkpt lat="43.99320937848767" lon="11.25216087385031"><ele>291.0</ele><time>2026-04-11T11:55:06.001Z</time></trkpt><trkpt lat="43.99330924005796" lon="11.2521108144707"><ele>291.0</ele><time>2026-04-11T11:55:07.001Z</time></trkpt><trkpt lat="43.99340008735745" lon="11.252057177310085"><ele>292.0</ele><time>2026-04-11T11:55:08.001Z</time></trkpt><trkpt lat="43.993504779112044" lon="11.25202434700514"><ele>293.0</ele><time>2026-04-11T11:55:09.001Z</time></trkpt><trkpt lat="43.993598332352434" lon="11.251985917791146"><ele>294.0</ele><time>2026-04-11T11:55:10.001Z</time></trkpt><trkpt lat="43.99369934749502" lon="11.251931777444733"><ele>295.0</ele><time>2026-04-11T11:55:11.001Z</time></trkpt><trkpt lat="43.99379384342199" lon="11.251879748537185"><ele>296.0</ele><time>2026-04-11T11:55:12.001Z</time></trkpt><trkpt lat="43.99388641238268" lon="11.25182941302469"><ele>296.0</ele><time>2026-04-11T11:55:13.001Z</time></trkpt><trkpt lat="43.99397890429224" lon="11.251782242589977"><ele>296.0</ele><time>2026-04-11T11:55:14.001Z</time></trkpt><trkpt lat="43.99406287247697" lon="11.251727598086596"><ele>296.0</ele><time>2026-04-11T11:55:15.001Z</time></trkpt><trkpt lat="43.994146335703164" lon="11.25166449961977"><ele>296.0</ele><time>2026-04-11T11:55:16.001Z</time></trkpt><trkpt lat="43.99424046582215" lon="11.251607390278807"><ele>296.0</ele><time>2026-04-11T11:55:17.001Z</time></trkpt><trkpt lat="43.99433414446592" lon="11.251551655736264"><ele>295.6</ele><time>2026-04-11T11:55:18.001Z</time></trkpt><trkpt lat="43.99441800374047" lon="11.251495359953099"><ele>295.20000000000005</ele><time>2026-04-11T11:55:19.001Z</time></trkpt><trkpt lat="43.994500635887995" lon="11.25142165011244"><ele>294.79999999999995</ele><time>2026-04-11T11:55:20.001Z</time></trkpt><trkpt lat="43.99456756792895" lon="11.251343150447033"><ele>294.4</ele><time>2026-04-11T11:55:21.001Z</time></trkpt><trkpt lat="43.99461453024357" lon="11.251251704790516"><ele>294.0</ele><time>2026-04-11T11:55:22.001Z</time></trkpt><trkpt lat="43.994667818662144" lon="11.251144462752661"><ele>295.1666666666667</ele><time>2026-04-11T11:55:23.001Z</time></trkpt><trkpt lat="43.994714014966064" lon="11.25103677692792"><ele>296.3333333333333</ele><time>2026-04-11T11:55:24.001Z</time></trkpt><trkpt lat="43.99476840853348" lon="11.250922682248023"><ele>297.5</ele><time>2026-04-11T11:55:25.001Z</time></trkpt><trkpt lat="43.994836967449565" lon="11.25082689070576"><ele>298.66666666666663</ele><time>2026-04-11T11:55:26.001Z</time></trkpt><trkpt lat="43.99490064953595" lon="11.250746255197067"><ele>299.8333333333333</ele><time>2026-04-11T11:55:27Z</time></trkpt><trkpt lat="43.99495243671805" lon="11.250678470635547"><ele>301.0</ele><time>2026-04-11T11:55:28Z</time></trkpt><trkpt lat="43.99499833133111" lon="11.250618278736013"><ele>303.0</ele><time>2026-04-11T11:55:29Z</time></trkpt><trkpt lat="43.995060718493555" lon="11.250508750845404"><ele>305.0</ele><time>2026-04-11T11:55:30.999Z</time></trkpt><trkpt lat="43.99511993683994" lon="11.250444149981021"><ele>307.0</ele><time>2026-04-11T11:55:33Z</time></trkpt><trkpt lat="43.99517761165047" lon="11.25037160106558"><ele>309.0</ele><time>2026-04-11T11:55:36Z</time></trkpt><trkpt lat="43.995269410967325" lon="11.250414711273582"><ele>311.0</ele><time>2026-04-11T11:55:38Z</time></trkpt><trkpt lat="43.99538534997089" lon="11.2503788337633"><ele>311.0</ele><time>2026-04-11T11:55:39.999Z</time></trkpt><trkpt lat="43.99544676644743" lon="11.25034303497453"><ele>311.0</ele><time>2026-04-11T11:55:40.999Z</time></trkpt><trkpt lat="43.99551154468694" lon="11.250293753563623"><ele>311.0</ele><time>2026-04-11T11:55:41.999Z</time></trkpt><trkpt lat="43.99558599124522" lon="11.250233336889984"><ele>311.0</ele><time>2026-04-11T11:55:42.999Z</time></trkpt><trkpt lat="43.9956646776523" lon="11.250205373377664"><ele>311.0</ele><time>2026-04-11T11:55:43.999Z</time></trkpt><trkpt lat="43.99573562272795" lon="11.250167984856416"><ele>311.0</ele><time>2026-04-11T11:55:44.999Z</time></trkpt><trkpt lat="43.99580701312558" lon="11.250134373299414"><ele>311.0</ele><time>2026-04-11T11:55:45.999Z</time></trkpt><trkpt lat="43.9958872956349" lon="11.250106198889016"><ele>311.0</ele><time>2026-04-11T11:55:46.999Z</time></trkpt><trkpt lat="43.9959656717814" lon="11.250094991238361"><ele>311.0</ele><time>2026-04-11T11:55:48Z</time></trkpt><trkpt lat="43.996058351643335" lon="11.25009414999295"><ele>311.0</ele><time>2026-04-11T11:55:49Z</time></trkpt><trkpt lat="43.996150118239655" lon="11.25009641165108"><ele>311.0</ele><time>2026-04-11T11:55:50Z</time></trkpt><trkpt lat="43.99623171878512" lon="11.250098140068943"><ele>311.0</ele><time>2026-04-11T11:55:51Z</time></trkpt><trkpt lat="43.996316293595136" lon="11.250099835718546"><ele>311.0</ele><time>2026-04-11T11:55:52Z</time></trkpt><trkpt lat="43.996381284427294" lon="11.25008902108335"><ele>311.0</ele><time>2026-04-11T11:55:53Z</time></trkpt><trkpt lat="43.996449201114444" lon="11.250119294223566"><ele>311.0</ele><time>2026-04-11T11:55:54Z</time></trkpt><trkpt lat="43.996514224133264" lon="11.250146813198107"><ele>311.0</ele><time>2026-04-11T11:55:55Z</time></trkpt><trkpt lat="43.996585288111355" lon="11.250184630928008"><ele>311.0</ele><time>2026-04-11T11:55:56Z</time></trkpt><trkpt lat="43.996662292313275" lon="11.250219311115641"><ele>311.0</ele><time>2026-04-11T11:55:57Z</time></trkpt><trkpt lat="43.99673778351277" lon="11.250250610134096"><ele>311.0</ele><time>2026-04-11T11:55:58Z</time></trkpt><trkpt lat="43.99681181689864" lon="11.250276386512569"><ele>310.6666666666667</ele><time>2026-04-11T11:55:59Z</time></trkpt><trkpt lat="43.99688894791833" lon="11.250297639835114"><ele>310.33333333333337</ele><time>2026-04-11T11:56:00Z</time></trkpt><trkpt lat="43.9969772281835" lon="11.25032069219982"><ele>310.0</ele><time>2026-04-11T11:56:01Z</time></trkpt><trkpt lat="43.997067402764046" lon="11.250312456465501"><ele>309.6666666666667</ele><time>2026-04-11T11:56:02Z</time></trkpt><trkpt lat="43.99715482850765" lon="11.250313348439258"><ele>309.3333333333333</ele><time>2026-04-11T11:56:03Z</time></trkpt><trkpt lat="43.99723577041996" lon="11.250301644379352"><ele>309.0</ele><time>2026-04-11T11:56:04Z</time></trkpt><trkpt lat="43.997315382471065" lon="11.250276125841657"><ele>309.00000000000006</ele><time>2026-04-11T11:56:05Z</time></trkpt><trkpt lat="43.997400688139734" lon="11.250266017709519"><ele>309.0</ele><time>2026-04-11T11:56:06Z</time></trkpt><trkpt lat="43.99747958077904" lon="11.250233339574308"><ele>309.0</ele><time>2026-04-11T11:56:07Z</time></trkpt><trkpt lat="43.99754570698882" lon="11.250203088235448"><ele>309.0</ele><time>2026-04-11T11:56:08Z</time></trkpt><trkpt lat="43.99761128427741" lon="11.250173821437013"><ele>309.0</ele><time>2026-04-11T11:56:09Z</time></trkpt><trkpt lat="43.997679835135855" lon="11.250159413743694"><ele>309.00000000000006</ele><time>2026-04-11T11:56:10Z</time></trkpt><trkpt lat="43.997747994353496" lon="11.250146733518982"><ele>309.0</ele><time>2026-04-11T11:56:11Z</time></trkpt><trkpt lat="43.99782023096559" lon="11.250124387327643"><ele>308.5</ele><time>2026-04-11T11:56:12Z</time></trkpt><trkpt lat="43.997886798263586" lon="11.250094295773552"><ele>308.0</ele><time>2026-04-11T11:56:13Z</time></trkpt><trkpt lat="43.99795358743754" lon="11.250059133591186"><ele>307.5</ele><time>2026-04-11T11:56:14Z</time></trkpt><trkpt lat="43.99802432538979" lon="11.250006363858105"><ele>307.0</ele><time>2026-04-11T11:56:15Z</time></trkpt><trkpt lat="43.998095009699036" lon="11.249956083825484"><ele>306.5</ele><time>2026-04-11T11:56:16Z</time></trkpt><trkpt lat="43.99816498247081" lon="11.249915441078834"><ele>306.0</ele><time>2026-04-11T11:56:17Z</time></trkpt><trkpt lat="43.99824656983537" lon="11.24987752504447"><ele>306.0</ele><time>2026-04-11T11:56:18Z</time></trkpt><trkpt lat="43.99831544993033" lon="11.249840905415887"><ele>306.0</ele><time>2026-04-11T11:56:19Z</time></trkpt><trkpt lat="43.99838587867869" lon="11.249804872712442"><ele>306.0</ele><time>2026-04-11T11:56:20Z</time></trkpt><trkpt lat="43.9984595910109" lon="11.249764424951222"><ele>306.0</ele><time>2026-04-11T11:56:21Z</time></trkpt><trkpt lat="43.99853761966584" lon="11.249720008065673"><ele>306.0</ele><time>2026-04-11T11:56:22Z</time></trkpt><trkpt lat="43.99861851219842" lon="11.249672786818868"><ele>306.0</ele><time>2026-04-11T11:56:23Z</time></trkpt><trkpt lat="43.99870281277722" lon="11.249630155587107"><ele>306.2</ele><time>2026-04-11T11:56:24Z</time></trkpt><trkpt lat="43.99877959415322" lon="11.249580158527678"><ele>306.40000000000003</ele><time>2026-04-11T11:56:25Z</time></trkpt><trkpt lat="43.99885864665656" lon="11.24952592978049"><ele>306.6</ele><time>2026-04-11T11:56:26Z</time></trkpt><trkpt lat="43.998939462211254" lon="11.249473363100835"><ele>306.8</ele><time>2026-04-11T11:56:27Z</time></trkpt><trkpt lat="43.999022003822766" lon="11.24941824947929"><ele>307.0</ele><time>2026-04-11T11:56:28Z</time></trkpt><trkpt lat="43.99911949172599" lon="11.249378097367826"><ele>305.8</ele><time>2026-04-11T11:56:29Z</time></trkpt><trkpt lat="43.99921328649643" lon="11.249324576534672"><ele>304.6</ele><time>2026-04-11T11:56:30Z</time></trkpt><trkpt lat="43.999296367548816" lon="11.24928898128753"><ele>303.40000000000003</ele><time>2026-04-11T11:56:31Z</time></trkpt><trkpt lat="43.999380434738626" lon="11.249255770120941"><ele>302.2</ele><time>2026-04-11T11:56:32Z</time></trkpt><trkpt lat="43.99946819345964" lon="11.249226677461818"><ele>301.0</ele><time>2026-04-11T11:56:33Z</time></trkpt><trkpt lat="43.99955848380466" lon="11.249202495684232"><ele>301.0</ele><time>2026-04-11T11:56:34Z</time></trkpt><trkpt lat="43.999653305862665" lon="11.249181825812698"><ele>301.0</ele><time>2026-04-11T11:56:35Z</time></trkpt><trkpt lat="43.999737612278885" lon="11.249170169466456"><ele>301.0</ele><time>2026-04-11T11:56:36Z</time></trkpt><trkpt lat="43.99983919846688" lon="11.249160614145575"><ele>301.0</ele><time>2026-04-11T11:56:37Z</time></trkpt><trkpt lat="43.99992482496441" lon="11.249147241679546"><ele>301.0</ele><time>2026-04-11T11:56:38Z</time></trkpt><trkpt lat="44.00001373954919" lon="11.249129102836513"><ele>301.0</ele><time>2026-04-11T11:56:39Z</time></trkpt><trkpt lat="44.00009322869586" lon="11.249112474830797"><ele>301.0</ele><time>2026-04-11T11:56:40Z</time></trkpt><trkpt lat="44.0001949664481" lon="11.24908522393999"><ele>301.0</ele><time>2026-04-11T11:56:41Z</time></trkpt><trkpt lat="44.00028812305739" lon="11.249022161363076"><ele>301.0</ele><time>2026-04-11T11:56:42Z</time></trkpt><trkpt lat="44.00039214829386" lon="11.248970007203658"><ele>301.0</ele><time>2026-04-11T11:56:43Z</time></trkpt><trkpt lat="44.00048761081167" lon="11.248921198145203"><ele>300.8</ele><time>2026-04-11T11:56:44Z</time></trkpt><trkpt lat="44.00057201477772" lon="11.248878043292992"><ele>300.6</ele><time>2026-04-11T11:56:45Z</time></trkpt><trkpt lat="44.0006789897482" lon="11.24882334800843"><ele>300.4</ele><time>2026-04-11T11:56:47Z</time></trkpt><trkpt lat="44.00074785020866" lon="11.248815061574792"><ele>300.2</ele><time>2026-04-11T11:56:48.001Z</time></trkpt><trkpt lat="44.0008452329748" lon="11.248706737987009"><ele>300.0</ele><time>2026-04-11T11:56:50.001Z</time></trkpt><trkpt lat="44.000913612074584" lon="11.248682423068624"><ele>300.0</ele><time>2026-04-11T11:56:51.001Z</time></trkpt><trkpt lat="44.0009771294642" lon="11.248633200477213"><ele>300.0</ele><time>2026-04-11T11:56:52.001Z</time></trkpt><trkpt lat="44.00108647765136" lon="11.248537622874638"><ele>300.0</ele><time>2026-04-11T11:56:54.001Z</time></trkpt><trkpt lat="44.00115282001671" lon="11.248471688486582"><ele>300.0</ele><time>2026-04-11T11:56:56.001Z</time></trkpt><trkpt lat="44.00121098119268" lon="11.248413771370098"><ele>300.0</ele><time>2026-04-11T11:57:00.001Z</time></trkpt><trkpt lat="44.0012620784773" lon="11.248360905884821"><ele>300.0</ele><time>2026-04-11T11:57:07.001Z</time></trkpt><trkpt lat="44.0013147892348" lon="11.24828747247259"><ele>300.0</ele><time>2026-04-11T11:59:51Z</time></trkpt><trkpt lat="44.001363580051375" lon="11.24820210567929"><ele>300.0</ele><time>2026-04-11T11:59:54.001Z</time></trkpt><trkpt lat="44.0013997003529" lon="11.248120773749196"><ele>300.0</ele><time>2026-04-11T11:59:57.001Z</time></trkpt><trkpt lat="44.00125858116158" lon="11.248031232059914"><ele>300.0</ele><time>2026-04-11T11:59:58.001Z</time></trkpt><trkpt lat="44.00117755011368" lon="11.24801347991324"><ele>300.0</ele><time>2026-04-11T11:59:59.001Z</time></trkpt><trkpt lat="44.0011017378881" lon="11.247985056512427"><ele>299.0</ele><time>2026-04-11T12:00:00.001Z</time></trkpt><trkpt lat="44.0010386720032" lon="11.247942341338184"><ele>298.0</ele><time>2026-04-11T12:00:01.001Z</time></trkpt><trkpt lat="44.00095716198834" lon="11.24789640195731"><ele>297.0</ele><time>2026-04-11T12:00:02.001Z</time></trkpt><trkpt lat="44.000829421182836" lon="11.247820888063774"><ele>296.0</ele><time>2026-04-11T12:00:04.001Z</time></trkpt><trkpt lat="44.000752016600586" lon="11.24778241207509"><ele>295.0</ele><time>2026-04-11T12:00:05.001Z</time></trkpt><trkpt lat="44.00067735486856" lon="11.247709856105518"><ele>294.6</ele><time>2026-04-11T12:00:06.001Z</time></trkpt><trkpt lat="44.00060423541049" lon="11.247672679144927"><ele>294.2</ele><time>2026-04-11T12:00:07.001Z</time></trkpt><trkpt lat="44.000527661389015" lon="11.24764993416049"><ele>293.8</ele><time>2026-04-11T12:00:08.001Z</time></trkpt><trkpt lat="44.00045259524102" lon="11.247626263233904"><ele>293.4</ele><time>2026-04-11T12:00:09.001Z</time></trkpt><trkpt lat="44.000383716572635" lon="11.24748132622931"><ele>293.0</ele><time>2026-04-11T12:00:11.001Z</time></trkpt><trkpt lat="44.00033253557135" lon="11.247346710355647"><ele>291.5</ele><time>2026-04-11T12:00:12.001Z</time></trkpt><trkpt lat="44.000278207043316" lon="11.247192032178365"><ele>290.0</ele><time>2026-04-11T12:00:13.001Z</time></trkpt><trkpt lat="44.00022286555201" lon="11.24705496940967"><ele>288.5</ele><time>2026-04-11T12:00:14.001Z</time></trkpt><trkpt lat="44.00017051281709" lon="11.246919048868046"><ele>287.0</ele><time>2026-04-11T12:00:15.001Z</time></trkpt><trkpt lat="44.0001221957241" lon="11.246789901180236"><ele>287.0</ele><time>2026-04-11T12:00:16.001Z</time></trkpt><trkpt lat="44.00007972552399" lon="11.24666290950174"><ele>287.0</ele><time>2026-04-11T12:00:17.001Z</time></trkpt><trkpt lat="44.00003937696827" lon="11.246525190298893"><ele>287.0</ele><time>2026-04-11T12:00:18.001Z</time></trkpt><trkpt lat="43.99999377756994" lon="11.246386511367385"><ele>287.0</ele><time>2026-04-11T12:00:19.001Z</time></trkpt><trkpt lat="43.99995429578662" lon="11.246252408073598"><ele>287.0</ele><time>2026-04-11T12:00:20.001Z</time></trkpt><trkpt lat="43.99990988507656" lon="11.246113306954634"><ele>285.0</ele><time>2026-04-11T12:00:21.001Z</time></trkpt><trkpt lat="43.99986218542484" lon="11.245979505887757"><ele>283.0</ele><time>2026-04-11T12:00:22.001Z</time></trkpt><trkpt lat="43.999803029898615" lon="11.245840026298783"><ele>281.0</ele><time>2026-04-11T12:00:23.001Z</time></trkpt><trkpt lat="43.99974593134457" lon="11.245710139739174"><ele>279.0</ele><time>2026-04-11T12:00:24.001Z</time></trkpt><trkpt lat="43.9996926253759" lon="11.245580502217281"><ele>277.0</ele><time>2026-04-11T12:00:25.001Z</time></trkpt><trkpt lat="43.9996364726127" lon="11.245458204422013"><ele>276.0</ele><time>2026-04-11T12:00:26.001Z</time></trkpt><trkpt lat="43.99958677195081" lon="11.245333200584458"><ele>275.0</ele><time>2026-04-11T12:00:27.001Z</time></trkpt><trkpt lat="43.99954065578224" lon="11.245195892540526"><ele>274.0</ele><time>2026-04-11T12:00:28.001Z</time></trkpt><trkpt lat="43.99949731935045" lon="11.245050629178987"><ele>273.0</ele><time>2026-04-11T12:00:29.001Z</time></trkpt><trkpt lat="43.99945887505654" lon="11.24491048705481"><ele>272.0</ele><time>2026-04-11T12:00:30.001Z</time></trkpt><trkpt lat="43.99942653804716" lon="11.244783672786642"><ele>271.6666666666667</ele><time>2026-04-11T12:00:31.001Z</time></trkpt><trkpt lat="43.999399850266194" lon="11.244661769591092"><ele>271.33333333333337</ele><time>2026-04-11T12:00:32.001Z</time></trkpt><trkpt lat="43.999386532752965" lon="11.244538775251387"><ele>271.0</ele><time>2026-04-11T12:00:33.001Z</time></trkpt><trkpt lat="43.999392659124446" lon="11.244402737807729"><ele>270.6666666666667</ele><time>2026-04-11T12:00:34.001Z</time></trkpt><trkpt lat="43.99943378290099" lon="11.244283078508328"><ele>270.3333333333333</ele><time>2026-04-11T12:00:35.001Z</time></trkpt><trkpt lat="43.99946651093245" lon="11.244198674270555"><ele>270.0</ele><time>2026-04-11T12:00:36.001Z</time></trkpt><trkpt lat="43.99951711371817" lon="11.244101908828656"><ele>270.0</ele><time>2026-04-11T12:00:37.001Z</time></trkpt><trkpt lat="43.99956226032405" lon="11.244010807635062"><ele>270.0</ele><time>2026-04-11T12:00:38.001Z</time></trkpt><trkpt lat="43.99960517711462" lon="11.243898300272981"><ele>270.0</ele><time>2026-04-11T12:00:39.001Z</time></trkpt><trkpt lat="43.99965680346329" lon="11.243810403858678"><ele>270.0</ele><time>2026-04-11T12:00:40.001Z</time></trkpt><trkpt lat="43.9997002317783" lon="11.243733408948593"><ele>270.0</ele><time>2026-04-11T12:00:41.001Z</time></trkpt><trkpt lat="43.999772804874254" lon="11.243621713123591"><ele>270.0</ele><time>2026-04-11T12:00:43.001Z</time></trkpt><trkpt lat="43.99981893636616" lon="11.243542764930949"><ele>269.8333333333333</ele><time>2026-04-11T12:00:45.001Z</time></trkpt><trkpt lat="43.999866591418964" lon="11.243445406586815"><ele>269.6666666666667</ele><time>2026-04-11T12:04:51.001Z</time></trkpt><trkpt lat="43.99992358712346" lon="11.243397639782511"><ele>269.5</ele><time>2026-04-11T12:06:12Z</time></trkpt><trkpt lat="43.99996725662327" lon="11.243320665972416"><ele>269.33333333333337</ele><time>2026-04-11T12:06:14Z</time></trkpt><trkpt lat="44.00002668009021" lon="11.243366656721212"><ele>269.1666666666667</ele><time>2026-04-11T12:06:15Z</time></trkpt><trkpt lat="44.00016511412429" lon="11.243400446115851"><ele>269.0</ele><time>2026-04-11T12:06:17Z</time></trkpt><trkpt lat="44.00024835045533" lon="11.243483404656697"><ele>269.0</ele><time>2026-04-11T12:06:18Z</time></trkpt><trkpt lat="44.00034887222886" lon="11.243529925781706"><ele>269.0</ele><time>2026-04-11T12:06:19Z</time></trkpt><trkpt lat="44.00046229661958" lon="11.24357356100546"><ele>269.0</ele><time>2026-04-11T12:06:20Z</time></trkpt><trkpt lat="44.00058738291281" lon="11.243605491521818"><ele>269.0</ele><time>2026-04-11T12:06:21Z</time></trkpt><trkpt lat="44.000719832225265" lon="11.243601275312573"><ele>269.75</ele><time>2026-04-11T12:06:22Z</time></trkpt><trkpt lat="44.00084925281492" lon="11.243603343543727"><ele>270.5</ele><time>2026-04-11T12:06:23Z</time></trkpt><trkpt lat="44.000978394546465" lon="11.243591087831366"><ele>271.25</ele><time>2026-04-11T12:06:24Z</time></trkpt><trkpt lat="44.001101874224155" lon="11.243564232231071"><ele>272.0</ele><time>2026-04-11T12:06:25Z</time></trkpt><trkpt lat="44.00121862655613" lon="11.243519025077465"><ele>272.0</ele><time>2026-04-11T12:06:26Z</time></trkpt><trkpt lat="44.00133768063257" lon="11.24345727159426"><ele>272.0</ele><time>2026-04-11T12:06:27Z</time></trkpt><trkpt lat="44.001455367700494" lon="11.243384055303544"><ele>272.0</ele><time>2026-04-11T12:06:28Z</time></trkpt><trkpt lat="44.00157078443443" lon="11.243306270449876"><ele>272.0</ele><time>2026-04-11T12:06:29Z</time></trkpt><trkpt lat="44.001693084832425" lon="11.243236759303652"><ele>271.25</ele><time>2026-04-11T12:06:30Z</time></trkpt><trkpt lat="44.00181158408553" lon="11.243163938867818"><ele>270.5</ele><time>2026-04-11T12:06:31.001Z</time></trkpt><trkpt lat="44.001931535537466" lon="11.243082431813697"><ele>269.75</ele><time>2026-04-11T12:06:32.001Z</time></trkpt><trkpt lat="44.00205007148624" lon="11.243005055165893"><ele>269.0</ele><time>2026-04-11T12:06:33.001Z</time></trkpt><trkpt lat="44.0021689555823" lon="11.242915057114615"><ele>269.0</ele><time>2026-04-11T12:06:34.001Z</time></trkpt><trkpt lat="44.00228994310741" lon="11.242839726860636"><ele>269.0</ele><time>2026-04-11T12:06:35.001Z</time></trkpt><trkpt lat="44.002419468561364" lon="11.242765820991826"><ele>269.0</ele><time>2026-04-11T12:06:36.001Z</time></trkpt><trkpt lat="44.00254788581234" lon="11.242677994480632"><ele>269.0</ele><time>2026-04-11T12:06:37.001Z</time></trkpt><trkpt lat="44.002675338548904" lon="11.242581691686155"><ele>271.0</ele><time>2026-04-11T12:06:38.001Z</time></trkpt><trkpt lat="44.002813956478484" lon="11.24249360996772"><ele>273.0</ele><time>2026-04-11T12:06:39.001Z</time></trkpt><trkpt lat="44.002952553705" lon="11.242408329490507"><ele>275.0</ele><time>2026-04-11T12:06:40.001Z</time></trkpt><trkpt lat="44.00308814152933" lon="11.242320047853264"><ele>275.0</ele><time>2026-04-11T12:06:41.001Z</time></trkpt><trkpt lat="44.00322741951216" lon="11.242216462141414"><ele>275.0</ele><time>2026-04-11T12:06:42.001Z</time></trkpt><trkpt lat="44.00335737168514" lon="11.242099004173827"><ele>275.0</ele><time>2026-04-11T12:06:43.001Z</time></trkpt><trkpt lat="44.00347509424063" lon="11.241968361268187"><ele>275.0</ele><time>2026-04-11T12:06:44.001Z</time></trkpt><trkpt lat="44.003576510112076" lon="11.241840262644114"><ele>275.0</ele><time>2026-04-11T12:06:45.001Z</time></trkpt><trkpt lat="44.00366949939333" lon="11.241713547540554"><ele>275.0</ele><time>2026-04-11T12:06:46.001Z</time></trkpt><trkpt lat="44.00375155321833" lon="11.241582489255993"><ele>275.0</ele><time>2026-04-11T12:06:47.001Z</time></trkpt><trkpt lat="44.00382477043455" lon="11.24144195557943"><ele>274.75</ele><time>2026-04-11T12:06:48.001Z</time></trkpt><trkpt lat="44.003905107631105" lon="11.241310507333836"><ele>274.5</ele><time>2026-04-11T12:06:49.001Z</time></trkpt><trkpt lat="44.00398204908051" lon="11.241178677858208"><ele>274.25</ele><time>2026-04-11T12:06:50.001Z</time></trkpt><trkpt lat="44.00405667658152" lon="11.24105099600404"><ele>274.0</ele><time>2026-04-11T12:06:51.001Z</time></trkpt><trkpt lat="44.00413456027049" lon="11.240927120269275"><ele>274.25</ele><time>2026-04-11T12:06:52.001Z</time></trkpt><trkpt lat="44.00420868597011" lon="11.240808728354105"><ele>274.5</ele><time>2026-04-11T12:06:53.001Z</time></trkpt><trkpt lat="44.004290959140825" lon="11.240679705938758"><ele>274.75</ele><time>2026-04-11T12:06:54.001Z</time></trkpt><trkpt lat="44.00437451848707" lon="11.240564955785318"><ele>275.0</ele><time>2026-04-11T12:06:55.001Z</time></trkpt><trkpt lat="44.00446764802256" lon="11.240455627210842"><ele>275.0</ele><time>2026-04-11T12:06:56.001Z</time></trkpt><trkpt lat="44.004569504480955" lon="11.240358849379145"><ele>275.0</ele><time>2026-04-11T12:06:57.001Z</time></trkpt><trkpt lat="44.004675208038336" lon="11.240279950214287"><ele>275.0</ele><time>2026-04-11T12:06:58.001Z</time></trkpt><trkpt lat="44.00478414433765" lon="11.240208560070105"><ele>275.0</ele><time>2026-04-11T12:06:59.001Z</time></trkpt><trkpt lat="44.00490605914626" lon="11.240148212084499"><ele>275.75</ele><time>2026-04-11T12:07:00.001Z</time></trkpt><trkpt lat="44.00503272171375" lon="11.24010350806181"><ele>276.5</ele><time>2026-04-11T12:07:01.001Z</time></trkpt><trkpt lat="44.00516555685494" lon="11.240071229434927"><ele>277.25</ele><time>2026-04-11T12:07:02.001Z</time></trkpt><trkpt lat="44.005301045232976" lon="11.240058673228386"><ele>278.0</ele><time>2026-04-11T12:07:03.001Z</time></trkpt><trkpt lat="44.005441886750575" lon="11.240062412947118"><ele>278.0</ele><time>2026-04-11T12:07:04.001Z</time></trkpt><trkpt lat="44.00558329941865" lon="11.240071431585164"><ele>278.0</ele><time>2026-04-11T12:07:05.001Z</time></trkpt><trkpt lat="44.005727258451884" lon="11.24010114953585"><ele>278.0</ele><time>2026-04-11T12:07:06.001Z</time></trkpt><trkpt lat="44.00587401314881" lon="11.240134639513943"><ele>278.0</ele><time>2026-04-11T12:07:07.001Z</time></trkpt><trkpt lat="44.006025980531824" lon="11.240167848689481"><ele>278.6666666666667</ele><time>2026-04-11T12:07:08.001Z</time></trkpt><trkpt lat="44.00617634361761" lon="11.240208003558518"><ele>279.3333333333333</ele><time>2026-04-11T12:07:09.001Z</time></trkpt><trkpt lat="44.00632775476304" lon="11.240249007204769"><ele>280.0</ele><time>2026-04-11T12:07:10.001Z</time></trkpt><trkpt lat="44.0064691404629" lon="11.240283783676542"><ele>280.0</ele><time>2026-04-11T12:07:11.001Z</time></trkpt><trkpt lat="44.00661546737159" lon="11.240308190579876"><ele>280.0</ele><time>2026-04-11T12:07:12.001Z</time></trkpt><trkpt lat="44.00675794100633" lon="11.240335487533816"><ele>280.0</ele><time>2026-04-11T12:07:13.001Z</time></trkpt><trkpt lat="44.00690172282121" lon="11.240367816136075"><ele>280.0</ele><time>2026-04-11T12:07:14.001Z</time></trkpt><trkpt lat="44.00703867014927" lon="11.24040371328299"><ele>279.75</ele><time>2026-04-11T12:07:15.001Z</time></trkpt><trkpt lat="44.007162661932654" lon="11.240436294736925"><ele>279.5</ele><time>2026-04-11T12:07:16.001Z</time></trkpt><trkpt lat="44.00728565174648" lon="11.240457013672458"><ele>279.25</ele><time>2026-04-11T12:07:17.001Z</time></trkpt><trkpt lat="44.00740186787992" lon="11.240483897228254"><ele>279.0</ele><time>2026-04-11T12:07:18.001Z</time></trkpt><trkpt lat="44.007508416358014" lon="11.240505957043597"><ele>279.0</ele><time>2026-04-11T12:07:19.001Z</time></trkpt><trkpt lat="44.00760487089389" lon="11.240515956766224"><ele>279.0</ele><time>2026-04-11T12:07:20.001Z</time></trkpt><trkpt lat="44.00770605900952" lon="11.240523067726855"><ele>279.0</ele><time>2026-04-11T12:07:21.001Z</time></trkpt><trkpt lat="44.0078079754898" lon="11.240521753427556"><ele>279.0</ele><time>2026-04-11T12:07:22.001Z</time></trkpt><trkpt lat="44.00790576252115" lon="11.2405212862024"><ele>279.0</ele><time>2026-04-11T12:07:23.001Z</time></trkpt><trkpt lat="44.00799228191095" lon="11.240513131959494"><ele>279.0</ele><time>2026-04-11T12:07:24.001Z</time></trkpt><trkpt lat="44.008070065055875" lon="11.240505962272596"><ele>279.0</ele><time>2026-04-11T12:07:25.001Z</time></trkpt><trkpt lat="44.00814156045017" lon="11.240499604525564"><ele>279.0</ele><time>2026-04-11T12:07:26.001Z</time></trkpt><trkpt lat="44.00821304341648" lon="11.240495827552731"><ele>279.0</ele><time>2026-04-11T12:07:27.001Z</time></trkpt><trkpt lat="44.00827572560133" lon="11.240512501501188"><ele>279.0</ele><time>2026-04-11T12:07:28.001Z</time></trkpt><trkpt lat="44.00836566897048" lon="11.240654748277024"><ele>279.0</ele><time>2026-04-11T12:07:30.001Z</time></trkpt><trkpt lat="44.00839109347544" lon="11.240757534085406"><ele>279.3333333333333</ele><time>2026-04-11T12:07:31.001Z</time></trkpt><trkpt lat="44.008414918964284" lon="11.240853331287237"><ele>279.6666666666667</ele><time>2026-04-11T12:07:32.001Z</time></trkpt><trkpt lat="44.00843667118626" lon="11.240949049825199"><ele>280.0</ele><time>2026-04-11T12:07:33.001Z</time></trkpt><trkpt lat="44.008450793829624" lon="11.241043000252375"><ele>280.33333333333337</ele><time>2026-04-11T12:07:34.001Z</time></trkpt><trkpt lat="44.00843540044528" lon="11.241174207989044"><ele>280.6666666666667</ele><time>2026-04-11T12:07:36.001Z</time></trkpt><trkpt lat="44.00841100661198" lon="11.241266290630358"><ele>281.0</ele><time>2026-04-11T12:07:40.001Z</time></trkpt><trkpt lat="44.0083884579391" lon="11.24136303067008"><ele>281.75</ele><time>2026-04-11T12:07:54.001Z</time></trkpt><trkpt lat="44.008366929457495" lon="11.2414805252818"><ele>282.5</ele><time>2026-04-11T12:10:26Z</time></trkpt><trkpt lat="44.00850059547795" lon="11.241612550608064"><ele>283.25</ele><time>2026-04-11T12:10:29Z</time></trkpt><trkpt lat="44.008598339731066" lon="11.241617227404555"><ele>284.0</ele><time>2026-04-11T12:10:30Z</time></trkpt><trkpt lat="44.00871977402361" lon="11.24163394317251"><ele>284.0</ele><time>2026-04-11T12:10:31Z</time></trkpt><trkpt lat="44.008858940211105" lon="11.241671993480013"><ele>284.0</ele><time>2026-04-11T12:10:32Z</time></trkpt><trkpt lat="44.00900270827072" lon="11.241706926412853"><ele>284.0</ele><time>2026-04-11T12:10:33Z</time></trkpt><trkpt lat="44.00915926555781" lon="11.241746968263694"><ele>284.0</ele><time>2026-04-11T12:10:34Z</time></trkpt><trkpt lat="44.00931444296314" lon="11.241763965131595"><ele>284.59999999999997</ele><time>2026-04-11T12:10:35Z</time></trkpt><trkpt lat="44.00943886842428" lon="11.241732643367847"><ele>285.2</ele><time>2026-04-11T12:10:36Z</time></trkpt><trkpt lat="44.00953799054126" lon="11.241696708733677"><ele>285.79999999999995</ele><time>2026-04-11T12:10:37Z</time></trkpt><trkpt lat="44.00961111739917" lon="11.241658546395467"><ele>286.4</ele><time>2026-04-11T12:10:38Z</time></trkpt><trkpt lat="44.00971954462589" lon="11.241640213989506"><ele>287.0</ele><time>2026-04-11T12:10:39Z</time></trkpt><trkpt lat="44.009827791472716" lon="11.241659227363344"><ele>287.0</ele><time>2026-04-11T12:10:40Z</time></trkpt><trkpt lat="44.00995078769629" lon="11.241680989258782"><ele>287.0</ele><time>2026-04-11T12:10:41Z</time></trkpt><trkpt lat="44.01007670911514" lon="11.241700427090084"><ele>287.0</ele><time>2026-04-11T12:10:42Z</time></trkpt><trkpt lat="44.010212828898034" lon="11.2417195581525"><ele>287.0</ele><time>2026-04-11T12:10:43Z</time></trkpt><trkpt lat="44.01035114313503" lon="11.241730933524556"><ele>289.0</ele><time>2026-04-11T12:10:44Z</time></trkpt><trkpt lat="44.010495967005305" lon="11.241727409228288"><ele>291.0</ele><time>2026-04-11T12:10:45Z</time></trkpt><trkpt lat="44.01064188886593" lon="11.241729288492293"><ele>293.0</ele><time>2026-04-11T12:10:46Z</time></trkpt><trkpt lat="44.010803838037894" lon="11.241721873878486"><ele>294.75</ele><time>2026-04-11T12:10:47Z</time></trkpt><trkpt lat="44.01095881762306" lon="11.241720852175398"><ele>296.5</ele><time>2026-04-11T12:10:48Z</time></trkpt><trkpt lat="44.01111399354193" lon="11.241719783989419"><ele>298.25</ele><time>2026-04-11T12:10:49Z</time></trkpt><trkpt lat="44.01124555633325" lon="11.24173734043393"><ele>300.0</ele><time>2026-04-11T12:10:50Z</time></trkpt><trkpt lat="44.01137580471467" lon="11.241718983186301"><ele>300.0</ele><time>2026-04-11T12:10:51Z</time></trkpt><trkpt lat="44.01149900194101" lon="11.241707969970907"><ele>300.0</ele><time>2026-04-11T12:10:52Z</time></trkpt><trkpt lat="44.011622454569796" lon="11.24168063582817"><ele>300.0</ele><time>2026-04-11T12:10:53Z</time></trkpt><trkpt lat="44.01174507629619" lon="11.24163990237736"><ele>300.0</ele><time>2026-04-11T12:10:54Z</time></trkpt><trkpt lat="44.01188189762583" lon="11.241582560483787"><ele>302.0</ele><time>2026-04-11T12:10:55Z</time></trkpt><trkpt lat="44.012017838644326" lon="11.241509016717973"><ele>304.0</ele><time>2026-04-11T12:10:56Z</time></trkpt><trkpt lat="44.012139787405204" lon="11.241424590689178"><ele>306.0</ele><time>2026-04-11T12:10:57Z</time></trkpt><trkpt lat="44.012268486258826" lon="11.24135685239333"><ele>308.0</ele><time>2026-04-11T12:10:58Z</time></trkpt><trkpt lat="44.01240488317396" lon="11.241283255123657"><ele>311.5</ele><time>2026-04-11T12:10:59Z</time></trkpt><trkpt lat="44.01253736127954" lon="11.2412077193203"><ele>315.0</ele><time>2026-04-11T12:11:00Z</time></trkpt><trkpt lat="44.01267298145805" lon="11.241140400953643"><ele>318.5</ele><time>2026-04-11T12:11:01Z</time></trkpt><trkpt lat="44.01279594969769" lon="11.241086704420605"><ele>322.0</ele><time>2026-04-11T12:11:02Z</time></trkpt><trkpt lat="44.01293625179684" lon="11.241031555857651"><ele>322.0</ele><time>2026-04-11T12:11:03Z</time></trkpt><trkpt lat="44.013073067891526" lon="11.240968375779717"><ele>322.0</ele><time>2026-04-11T12:11:04Z</time></trkpt><trkpt lat="44.01321089813351" lon="11.240940851688555"><ele>322.0</ele><time>2026-04-11T12:11:05Z</time></trkpt><trkpt lat="44.01334089999195" lon="11.240908770020997"><ele>322.0</ele><time>2026-04-11T12:11:06Z</time></trkpt><trkpt lat="44.013463647880705" lon="11.240909753543585"><ele>324.25</ele><time>2026-04-11T12:11:07Z</time></trkpt><trkpt lat="44.013586975948904" lon="11.24088664193484"><ele>326.5</ele><time>2026-04-11T12:11:08Z</time></trkpt><trkpt lat="44.01371780983102" lon="11.240917445183939"><ele>328.75</ele><time>2026-04-11T12:11:09Z</time></trkpt><trkpt lat="44.013853039842836" lon="11.240928544103218"><ele>331.0</ele><time>2026-04-11T12:11:10Z</time></trkpt><trkpt lat="44.01399863149213" lon="11.240966774811845"><ele>331.0</ele><time>2026-04-11T12:11:11Z</time></trkpt><trkpt lat="44.014151392886056" lon="11.241005210643667"><ele>331.0</ele><time>2026-04-11T12:11:12Z</time></trkpt><trkpt lat="44.014325588607996" lon="11.241033831956514"><ele>331.0</ele><time>2026-04-11T12:11:13Z</time></trkpt><trkpt lat="44.01448034489291" lon="11.241066416534474"><ele>334.0</ele><time>2026-04-11T12:11:14Z</time></trkpt><trkpt lat="44.014630986783146" lon="11.2411211296916"><ele>337.0</ele><time>2026-04-11T12:11:15Z</time></trkpt><trkpt lat="44.01478899667162" lon="11.241178380793919"><ele>340.0</ele><time>2026-04-11T12:11:16Z</time></trkpt><trkpt lat="44.014929227718284" lon="11.241308801399336"><ele>341.0</ele><time>2026-04-11T12:11:17Z</time></trkpt><trkpt lat="44.01508838198612" lon="11.241398399237154"><ele>342.0</ele><time>2026-04-11T12:11:18Z</time></trkpt><trkpt lat="44.01523392771061" lon="11.241501456581375"><ele>343.0</ele><time>2026-04-11T12:11:19Z</time></trkpt><trkpt lat="44.015366676599356" lon="11.241584279825195"><ele>343.0</ele><time>2026-04-11T12:11:20Z</time></trkpt><trkpt lat="44.01550717544678" lon="11.241649628915992"><ele>343.0</ele><time>2026-04-11T12:11:21Z</time></trkpt><trkpt lat="44.01562236697145" lon="11.241672429085671"><ele>343.0</ele><time>2026-04-11T12:11:22Z</time></trkpt><trkpt lat="44.01574703760648" lon="11.241662809360703"><ele>343.0</ele><time>2026-04-11T12:11:23Z</time></trkpt><trkpt lat="44.01586526848047" lon="11.241622085901982"><ele>345.0</ele><time>2026-04-11T12:11:24Z</time></trkpt><trkpt lat="44.015977056913115" lon="11.24157298504398"><ele>347.0</ele><time>2026-04-11T12:11:25Z</time></trkpt><trkpt lat="44.01609398197454" lon="11.241544175819245"><ele>349.0</ele><time>2026-04-11T12:11:26Z</time></trkpt><trkpt lat="44.016216288660615" lon="11.2415480147572"><ele>351.0</ele><time>2026-04-11T12:11:27Z</time></trkpt><trkpt lat="44.016338543845535" lon="11.241582566478645"><ele>351.0</ele><time>2026-04-11T12:11:28Z</time></trkpt><trkpt lat="44.016468120994986" lon="11.241650419672494"><ele>351.0</ele><time>2026-04-11T12:11:29Z</time></trkpt><trkpt lat="44.016575017697214" lon="11.2417577623283"><ele>351.0</ele><time>2026-04-11T12:11:30.001Z</time></trkpt><trkpt lat="44.01667376746582" lon="11.241854425644071"><ele>351.0</ele><time>2026-04-11T12:11:31.001Z</time></trkpt><trkpt lat="44.01674712116231" lon="11.241942885892966"><ele>352.0</ele><time>2026-04-11T12:11:32.001Z</time></trkpt><trkpt lat="44.01681479151745" lon="11.24205708737395"><ele>353.0</ele><time>2026-04-11T12:11:33.001Z</time></trkpt><trkpt lat="44.016866631318145" lon="11.242172101670265"><ele>354.0</ele><time>2026-04-11T12:11:34.001Z</time></trkpt><trkpt lat="44.016910208106204" lon="11.24230491995152"><ele>355.0</ele><time>2026-04-11T12:11:35.001Z</time></trkpt><trkpt lat="44.0169494039943" lon="11.242469337620316"><ele>356.0</ele><time>2026-04-11T12:11:36.001Z</time></trkpt><trkpt lat="44.0169815756238" lon="11.24262127348056"><ele>356.4</ele><time>2026-04-11T12:11:37.001Z</time></trkpt><trkpt lat="44.01702883761024" lon="11.242756516688319"><ele>356.8</ele><time>2026-04-11T12:11:38.001Z</time></trkpt><trkpt lat="44.01705362016822" lon="11.242879590851043"><ele>357.2</ele><time>2026-04-11T12:11:39.001Z</time></trkpt><trkpt lat="44.017077448173616" lon="11.242993740976026"><ele>357.59999999999997</ele><time>2026-04-11T12:11:40.001Z</time></trkpt><trkpt lat="44.01713028927982" lon="11.243095376056266"><ele>358.0</ele><time>2026-04-11T12:11:41.001Z</time></trkpt><trkpt lat="44.017169122060125" lon="11.243233511835781"><ele>358.2</ele><time>2026-04-11T12:11:42.001Z</time></trkpt><trkpt lat="44.01722580179118" lon="11.243353843237376"><ele>358.4</ele><time>2026-04-11T12:11:43.001Z</time></trkpt><trkpt lat="44.01727410632001" lon="11.243460987964873"><ele>358.59999999999997</ele><time>2026-04-11T12:11:44.001Z</time></trkpt><trkpt lat="44.01731501201046" lon="11.243563955907034"><ele>358.79999999999995</ele><time>2026-04-11T12:11:45.001Z</time></trkpt><trkpt lat="44.01735558994289" lon="11.243665170839302"><ele>359.0</ele><time>2026-04-11T12:11:46.001Z</time></trkpt><trkpt lat="44.0174042774652" lon="11.243786613985895"><ele>359.0</ele><time>2026-04-11T12:11:47.001Z</time></trkpt><trkpt lat="44.01745647836506" lon="11.243912320600282"><ele>359.0</ele><time>2026-04-11T12:11:48.001Z</time></trkpt><trkpt lat="44.017498398229385" lon="11.24401009066207"><ele>359.0</ele><time>2026-04-11T12:11:49.001Z</time></trkpt><trkpt lat="44.01753938597191" lon="11.244103882173265"><ele>359.0</ele><time>2026-04-11T12:11:50.001Z</time></trkpt><trkpt lat="44.01758072274927" lon="11.244195719497865"><ele>359.0</ele><time>2026-04-11T12:11:51.001Z</time></trkpt><trkpt lat="44.017647020929026" lon="11.24430344208908"><ele>359.0</ele><time>2026-04-11T12:11:52.001Z</time></trkpt><trkpt lat="44.01769876755311" lon="11.244419028465403"><ele>361.2</ele><time>2026-04-11T12:11:53.001Z</time></trkpt><trkpt lat="44.01774941574114" lon="11.244525893679072"><ele>363.4</ele><time>2026-04-11T12:11:54.001Z</time></trkpt><trkpt lat="44.01780039184741" lon="11.244628673721394"><ele>365.6</ele><time>2026-04-11T12:11:55.001Z</time></trkpt><trkpt lat="44.017845249496816" lon="11.244717671084718"><ele>367.8</ele><time>2026-04-11T12:11:56.001Z</time></trkpt><trkpt lat="44.01789122346264" lon="11.244843886176984"><ele>370.0</ele><time>2026-04-11T12:11:57.001Z</time></trkpt><trkpt lat="44.0179406831193" lon="11.244948609472367"><ele>370.0</ele><time>2026-04-11T12:11:58.001Z</time></trkpt><trkpt lat="44.01798690763654" lon="11.245034863066744"><ele>370.0</ele><time>2026-04-11T12:11:59.001Z</time></trkpt><trkpt lat="44.018045112145096" lon="11.245134123551082"><ele>370.0</ele><time>2026-04-11T12:12:00.001Z</time></trkpt><trkpt lat="44.0181174226729" lon="11.245237789950139"><ele>370.0</ele><time>2026-04-11T12:12:01.001Z</time></trkpt><trkpt lat="44.01819635218102" lon="11.24533137332299"><ele>370.0</ele><time>2026-04-11T12:12:02.001Z</time></trkpt><trkpt lat="44.018292735232826" lon="11.24543439827996"><ele>371.0</ele><time>2026-04-11T12:12:03.001Z</time></trkpt><trkpt lat="44.018407238376945" lon="11.245519299276408"><ele>372.0</ele><time>2026-04-11T12:12:04.001Z</time></trkpt><trkpt lat="44.018506709473066" lon="11.245569868672542"><ele>373.0</ele><time>2026-04-11T12:12:05.001Z</time></trkpt><trkpt lat="44.018618427129816" lon="11.245615425363331"><ele>374.0</ele><time>2026-04-11T12:12:06.001Z</time></trkpt><trkpt lat="44.01871936469613" lon="11.245649071302031"><ele>375.0</ele><time>2026-04-11T12:12:07.001Z</time></trkpt><trkpt lat="44.01881368499785" lon="11.245673824931385"><ele>376.0</ele><time>2026-04-11T12:12:08.001Z</time></trkpt><trkpt lat="44.018888870178564" lon="11.245690338541063"><ele>377.0</ele><time>2026-04-11T12:12:09.001Z</time></trkpt><trkpt lat="44.018962872621906" lon="11.24570209650218"><ele>378.0</ele><time>2026-04-11T12:12:10.001Z</time></trkpt><trkpt lat="44.01906405701132" lon="11.24570863769807"><ele>379.0</ele><time>2026-04-11T12:12:11.001Z</time></trkpt><trkpt lat="44.019168424960135" lon="11.245702897424838"><ele>379.0</ele><time>2026-04-11T12:12:12.001Z</time></trkpt><trkpt lat="44.019264809301525" lon="11.245686806334795"><ele>379.0</ele><time>2026-04-11T12:12:13.001Z</time></trkpt><trkpt lat="44.01936578548238" lon="11.245658419125483"><ele>379.0</ele><time>2026-04-11T12:12:14.001Z</time></trkpt><trkpt lat="44.01946392861564" lon="11.245606709548385"><ele>379.0</ele><time>2026-04-11T12:12:15Z</time></trkpt><trkpt lat="44.01956584993881" lon="11.245576564066688"><ele>379.0</ele><time>2026-04-11T12:12:15.999Z</time></trkpt><trkpt lat="44.019673944674274" lon="11.245549811080595"><ele>379.0</ele><time>2026-04-11T12:12:16.999Z</time></trkpt><trkpt lat="44.019791187559164" lon="11.245510295076743"><ele>379.0</ele><time>2026-04-11T12:12:18Z</time></trkpt><trkpt lat="44.01989975325613" lon="11.245461892228851"><ele>379.0</ele><time>2026-04-11T12:12:18.999Z</time></trkpt><trkpt lat="44.02000039807131" lon="11.245415214257513"><ele>379.0</ele><time>2026-04-11T12:12:19.999Z</time></trkpt><trkpt lat="44.020078901260355" lon="11.24538747733967"><ele>379.0</ele><time>2026-04-11T12:12:21Z</time></trkpt><trkpt lat="44.02017802738424" lon="11.245346816123417"><ele>381.4</ele><time>2026-04-11T12:12:21.999Z</time></trkpt><trkpt lat="44.02027802940021" lon="11.245307873040483"><ele>383.79999999999995</ele><time>2026-04-11T12:12:22.999Z</time></trkpt><trkpt lat="44.02037956820672" lon="11.245281904115005"><ele>386.20000000000005</ele><time>2026-04-11T12:12:24Z</time></trkpt><trkpt lat="44.02047717699683" lon="11.245264586610007"><ele>388.6</ele><time>2026-04-11T12:12:24.999Z</time></trkpt><trkpt lat="44.02061100013679" lon="11.245243005261797"><ele>391.0</ele><time>2026-04-11T12:12:25.999Z</time></trkpt><trkpt lat="44.02070240001393" lon="11.24522621148674"><ele>391.00000000000006</ele><time>2026-04-11T12:12:27Z</time></trkpt><trkpt lat="44.02077921016958" lon="11.245219142176905"><ele>391.0</ele><time>2026-04-11T12:12:28Z</time></trkpt><trkpt lat="44.02087598703154" lon="11.245199854669874"><ele>391.0</ele><time>2026-04-11T12:12:29Z</time></trkpt><trkpt lat="44.020949365429644" lon="11.24516009115976"><ele>391.0</ele><time>2026-04-11T12:12:30Z</time></trkpt><trkpt lat="44.02101815064024" lon="11.245103981718493"><ele>391.00000000000006</ele><time>2026-04-11T12:12:31Z</time></trkpt><trkpt lat="44.021098585334876" lon="11.245003559893801"><ele>391.0</ele><time>2026-04-11T12:12:32Z</time></trkpt><trkpt lat="44.02115450574793" lon="11.244916945567935"><ele>392.8</ele><time>2026-04-11T12:12:33Z</time></trkpt><trkpt lat="44.02121291968944" lon="11.244843233303369"><ele>394.6</ele><time>2026-04-11T12:12:34Z</time></trkpt><trkpt lat="44.021284731979655" lon="11.24473923899704"><ele>396.4</ele><time>2026-04-11T12:12:35Z</time></trkpt><trkpt lat="44.021342781926165" lon="11.24464113471138"><ele>398.2</ele><time>2026-04-11T12:12:36Z</time></trkpt><trkpt lat="44.02145954792225" lon="11.24456062922982"><ele>400.0</ele><time>2026-04-11T12:12:38Z</time></trkpt><trkpt lat="44.021522660638645" lon="11.244555220618327"><ele>400.0</ele><time>2026-04-11T12:12:39Z</time></trkpt><trkpt lat="44.02160840529923" lon="11.244579622858751"><ele>400.0</ele><time>2026-04-11T12:12:40Z</time></trkpt><trkpt lat="44.02169743857604" lon="11.24460817734626"><ele>400.0</ele><time>2026-04-11T12:12:41Z</time></trkpt><trkpt lat="44.02177977424752" lon="11.244655002147573"><ele>400.0</ele><time>2026-04-11T12:12:42Z</time></trkpt><trkpt lat="44.02187723936691" lon="11.244740629835384"><ele>400.0</ele><time>2026-04-11T12:12:43Z</time></trkpt><trkpt lat="44.0219875900261" lon="11.244817341074604"><ele>402.8</ele><time>2026-04-11T12:12:44Z</time></trkpt><trkpt lat="44.02210259404448" lon="11.244910334452035"><ele>405.6</ele><time>2026-04-11T12:12:45Z</time></trkpt><trkpt lat="44.02220831336847" lon="11.244954005110028"><ele>408.4</ele><time>2026-04-11T12:12:46Z</time></trkpt><trkpt lat="44.02229351107256" lon="11.244973375065115"><ele>411.2</ele><time>2026-04-11T12:12:47Z</time></trkpt><trkpt lat="44.022383674657924" lon="11.244976592648184"><ele>414.0</ele><time>2026-04-11T12:12:48Z</time></trkpt><trkpt lat="44.022461512899866" lon="11.244935290614476"><ele>415.4</ele><time>2026-04-11T12:12:49Z</time></trkpt><trkpt lat="44.0225486461576" lon="11.24485826884741"><ele>416.79999999999995</ele><time>2026-04-11T12:12:50Z</time></trkpt><trkpt lat="44.022609341862655" lon="11.24480397215636"><ele>418.20000000000005</ele><time>2026-04-11T12:12:51Z</time></trkpt><trkpt lat="44.02268141499088" lon="11.244743715339197"><ele>419.6</ele><time>2026-04-11T12:12:52Z</time></trkpt><trkpt lat="44.022738452555316" lon="11.24467915509129"><ele>421.0</ele><time>2026-04-11T12:12:53Z</time></trkpt><trkpt lat="44.02284669693826" lon="11.244528481688517"><ele>421.00000000000006</ele><time>2026-04-11T12:12:55Z</time></trkpt><trkpt lat="44.022897445412696" lon="11.244436382152568"><ele>421.0</ele><time>2026-04-11T12:12:56Z</time></trkpt><trkpt lat="44.02296625005984" lon="11.244351421452523"><ele>421.0</ele><time>2026-04-11T12:12:57Z</time></trkpt><trkpt lat="44.023031368989656" lon="11.244255608776058"><ele>421.0</ele><time>2026-04-11T12:12:58Z</time></trkpt><trkpt lat="44.02308579237414" lon="11.24419578797418"><ele>421.00000000000006</ele><time>2026-04-11T12:12:59Z</time></trkpt><trkpt lat="44.02316761775713" lon="11.244110480754522"><ele>421.0</ele><time>2026-04-11T12:13:01Z</time></trkpt><trkpt lat="44.02330016029911" lon="11.24411236064662"><ele>424.33333333333337</ele><time>2026-04-11T12:13:03Z</time></trkpt><trkpt lat="44.02337176773269" lon="11.244142771707308"><ele>427.6666666666667</ele><time>2026-04-11T12:13:04Z</time></trkpt><trkpt lat="44.02344607037086" lon="11.244161812506432"><ele>431.0</ele><time>2026-04-11T12:13:05Z</time></trkpt><trkpt lat="44.023518690716436" lon="11.244187169012626"><ele>434.33333333333337</ele><time>2026-04-11T12:13:06Z</time></trkpt><trkpt lat="44.023645102252274" lon="11.24421136406291"><ele>437.6666666666667</ele><time>2026-04-11T12:13:08Z</time></trkpt><trkpt lat="44.023708733887524" lon="11.244242966360261"><ele>441.0</ele><time>2026-04-11T12:13:09Z</time></trkpt><trkpt lat="44.02378476501692" lon="11.244269679277846"><ele>441.0</ele><time>2026-04-11T12:13:10Z</time></trkpt><trkpt lat="44.0238641049671" lon="11.244311094476057"><ele>441.0</ele><time>2026-04-11T12:13:11Z</time></trkpt><trkpt lat="44.02393361336248" lon="11.244346674493867"><ele>441.0</ele><time>2026-04-11T12:13:12Z</time></trkpt><trkpt lat="44.0240007604612" lon="11.24440759246608"><ele>441.0</ele><time>2026-04-11T12:13:13Z</time></trkpt><trkpt lat="44.02408141351202" lon="11.244449193654281"><ele>441.0</ele><time>2026-04-11T12:13:14Z</time></trkpt><trkpt lat="44.024160250955866" lon="11.244484858793273"><ele>441.0</ele><time>2026-04-11T12:13:15Z</time></trkpt><trkpt lat="44.024243186018204" lon="11.24449734032212"><ele>442.8333333333333</ele><time>2026-04-11T12:13:16Z</time></trkpt><trkpt lat="44.024338568493185" lon="11.244444305837597"><ele>444.66666666666663</ele><time>2026-04-11T12:13:18Z</time></trkpt><trkpt lat="44.024408290440114" lon="11.244445516270071"><ele>446.5</ele><time>2026-04-11T12:13:19Z</time></trkpt><trkpt lat="44.024493361937786" lon="11.24444032084894"><ele>448.3333333333333</ele><time>2026-04-11T12:13:20Z</time></trkpt><trkpt lat="44.02458410728612" lon="11.24444292540863"><ele>450.16666666666663</ele><time>2026-04-11T12:13:21Z</time></trkpt><trkpt lat="44.02466646139795" lon="11.244452586967082"><ele>452.0</ele><time>2026-04-11T12:13:22.001Z</time></trkpt><trkpt lat="44.02474189538771" lon="11.244468539937218"><ele>451.99999999999994</ele><time>2026-04-11T12:13:23.001Z</time></trkpt><trkpt lat="44.02482507512975" lon="11.24451073359131"><ele>452.0</ele><time>2026-04-11T12:13:24.001Z</time></trkpt><trkpt lat="44.02490035932183" lon="11.244585820895137"><ele>452.0</ele><time>2026-04-11T12:13:25.001Z</time></trkpt><trkpt lat="44.02495905821175" lon="11.244640863007206"><ele>452.0</ele><time>2026-04-11T12:13:26.001Z</time></trkpt><trkpt lat="44.02502088980578" lon="11.244705332565657"><ele>451.99999999999994</ele><time>2026-04-11T12:13:27.001Z</time></trkpt><trkpt lat="44.02507726867602" lon="11.244767120767758"><ele>452.0</ele><time>2026-04-11T12:13:28.001Z</time></trkpt><trkpt lat="44.025149429135666" lon="11.244836524291983"><ele>453.8333333333333</ele><time>2026-04-11T12:13:29.001Z</time></trkpt><trkpt lat="44.02523240277247" lon="11.244901319561107"><ele>455.66666666666663</ele><time>2026-04-11T12:13:30.001Z</time></trkpt><trkpt lat="44.02528751202046" lon="11.2449768972079"><ele>457.5</ele><time>2026-04-11T12:13:31.001Z</time></trkpt><trkpt lat="44.02536230061214" lon="11.245013361843784"><ele>459.33333333333337</ele><time>2026-04-11T12:13:32.001Z</time></trkpt><trkpt lat="44.025427060156225" lon="11.245077842926912"><ele>461.1666666666667</ele><time>2026-04-11T12:13:33.001Z</time></trkpt><trkpt lat="44.02549589746482" lon="11.245141339241135"><ele>463.0</ele><time>2026-04-11T12:13:34.001Z</time></trkpt><trkpt lat="44.025559193132814" lon="11.245198777209016"><ele>463.00000000000006</ele><time>2026-04-11T12:13:35.001Z</time></trkpt><trkpt lat="44.02561896003453" lon="11.245259088145165"><ele>463.0</ele><time>2026-04-11T12:13:36.001Z</time></trkpt><trkpt lat="44.02569031799111" lon="11.245329251258582"><ele>463.0</ele><time>2026-04-11T12:13:37.001Z</time></trkpt><trkpt lat="44.02575035196817" lon="11.245373776036434"><ele>463.0</ele><time>2026-04-11T12:13:38.001Z</time></trkpt><trkpt lat="44.025832340278285" lon="11.245452765056282"><ele>463.00000000000006</ele><time>2026-04-11T12:13:39.001Z</time></trkpt><trkpt lat="44.02593759019288" lon="11.24552636207029"><ele>463.0</ele><time>2026-04-11T12:13:40.001Z</time></trkpt><trkpt lat="44.026051321442544" lon="11.245631824311877"><ele>464.00000000000006</ele><time>2026-04-11T12:13:41.001Z</time></trkpt><trkpt lat="44.02613252601432" lon="11.245677472066898"><ele>465.0</ele><time>2026-04-11T12:13:42.001Z</time></trkpt><trkpt lat="44.02619937175708" lon="11.245709926379735"><ele>466.0</ele><time>2026-04-11T12:13:43.001Z</time></trkpt><trkpt lat="44.02625534579548" lon="11.245762244951498"><ele>467.0</ele><time>2026-04-11T12:13:44.001Z</time></trkpt><trkpt lat="44.02631490393811" lon="11.245825964842421"><ele>468.00000000000006</ele><time>2026-04-11T12:13:45.001Z</time></trkpt><trkpt lat="44.026378299571576" lon="11.245879290086235"><ele>469.0</ele><time>2026-04-11T12:13:46.001Z</time></trkpt><trkpt lat="44.02648083326086" lon="11.245968481103413"><ele>469.0</ele><time>2026-04-11T12:13:48.001Z</time></trkpt><trkpt lat="44.02655295957658" lon="11.246001655595363"><ele>469.0</ele><time>2026-04-11T12:13:49.001Z</time></trkpt><trkpt lat="44.02662582972033" lon="11.246052445700885"><ele>469.0</ele><time>2026-04-11T12:13:50.001Z</time></trkpt><trkpt lat="44.02668486182344" lon="11.246106252007715"><ele>469.0</ele><time>2026-04-11T12:13:51.001Z</time></trkpt><trkpt lat="44.026740589650906" lon="11.246154885791253"><ele>469.0</ele><time>2026-04-11T12:13:52.001Z</time></trkpt><trkpt lat="44.02679991396062" lon="11.246184832590348"><ele>469.0</ele><time>2026-04-11T12:13:53.001Z</time></trkpt><trkpt lat="44.02688412034197" lon="11.246216250046386"><ele>469.0</ele><time>2026-04-11T12:13:54.001Z</time></trkpt><trkpt lat="44.0269573429928" lon="11.246259188064064"><ele>469.1666666666667</ele><time>2026-04-11T12:13:55.001Z</time></trkpt><trkpt lat="44.027025584599166" lon="11.246308040640766"><ele>469.33333333333337</ele><time>2026-04-11T12:13:56.001Z</time></trkpt><trkpt lat="44.027100944404694" lon="11.246352012048725"><ele>469.5</ele><time>2026-04-11T12:13:57.001Z</time></trkpt><trkpt lat="44.027155579669675" lon="11.246401043879494"><ele>469.66666666666663</ele><time>2026-04-11T12:13:58.001Z</time></trkpt><trkpt lat="44.02721785051587" lon="11.246469527839155"><ele>469.8333333333333</ele><time>2026-04-11T12:13:59.001Z</time></trkpt><trkpt lat="44.027280403891076" lon="11.246553887520994"><ele>470.0</ele><time>2026-04-11T12:14:00.001Z</time></trkpt><trkpt lat="44.02732645659575" lon="11.246637047730063"><ele>469.3333333333333</ele><time>2026-04-11T12:14:01.001Z</time></trkpt><trkpt lat="44.02737583844152" lon="11.24672210740036"><ele>468.66666666666663</ele><time>2026-04-11T12:14:02.001Z</time></trkpt><trkpt lat="44.02742332621266" lon="11.246804427310376"><ele>468.0</ele><time>2026-04-11T12:14:03.001Z</time></trkpt><trkpt lat="44.02748297533655" lon="11.246852860766161"><ele>467.33333333333337</ele><time>2026-04-11T12:14:04.001Z</time></trkpt><trkpt lat="44.02755134660925" lon="11.246871360348392"><ele>466.6666666666667</ele><time>2026-04-11T12:14:05.001Z</time></trkpt><trkpt lat="44.02762462623821" lon="11.246884334762868"><ele>466.0</ele><time>2026-04-11T12:14:06.001Z</time></trkpt><trkpt lat="44.02774761915374" lon="11.24697022710414"><ele>466.00000000000006</ele><time>2026-04-11T12:14:08.001Z</time></trkpt><trkpt lat="44.02779649148248" lon="11.247038143121591"><ele>466.0</ele><time>2026-04-11T12:14:09.001Z</time></trkpt><trkpt lat="44.027874638092726" lon="11.247008934587237"><ele>466.0</ele><time>2026-04-11T12:14:10.001Z</time></trkpt><trkpt lat="44.02794695647694" lon="11.2470271325543"><ele>466.0</ele><time>2026-04-11T12:14:11.001Z</time></trkpt><trkpt lat="44.02802547503201" lon="11.247031510312302"><ele>466.00000000000006</ele><time>2026-04-11T12:14:12.001Z</time></trkpt><trkpt lat="44.0281005232118" lon="11.247039706171583"><ele>466.0</ele><time>2026-04-11T12:14:13.001Z</time></trkpt><trkpt lat="44.02816468794609" lon="11.247097152415696"><ele>466.00000000000006</ele><time>2026-04-11T12:14:14.001Z</time></trkpt><trkpt lat="44.028238311769705" lon="11.247139327939705"><ele>466.0</ele><time>2026-04-11T12:14:15.001Z</time></trkpt><trkpt lat="44.02829398689231" lon="11.24718372085972"><ele>466.0</ele><time>2026-04-11T12:14:16.001Z</time></trkpt><trkpt lat="44.02834918127648" lon="11.247240785992737"><ele>466.0</ele><time>2026-04-11T12:14:17.001Z</time></trkpt><trkpt lat="44.028438052274886" lon="11.24739927787569"><ele>466.00000000000006</ele><time>2026-04-11T12:14:19.001Z</time></trkpt><trkpt lat="44.02850725100172" lon="11.247467992423095"><ele>466.0</ele><time>2026-04-11T12:14:20.001Z</time></trkpt><trkpt lat="44.02856177416063" lon="11.247524719627188"><ele>467.8</ele><time>2026-04-11T12:14:20.999Z</time></trkpt><trkpt lat="44.028642170411835" lon="11.24756997234777"><ele>469.6</ele><time>2026-04-11T12:14:21.999Z</time></trkpt><trkpt lat="44.028708349834346" lon="11.247625982601573"><ele>471.4</ele><time>2026-04-11T12:14:22.999Z</time></trkpt><trkpt lat="44.02879239670913" lon="11.24773406796398"><ele>473.2</ele><time>2026-04-11T12:14:24.999Z</time></trkpt><trkpt lat="44.02887237323494" lon="11.2479071678331"><ele>475.0</ele><time>2026-04-11T12:14:26.999Z</time></trkpt><trkpt lat="44.02891393064705" lon="11.247980440692787"><ele>475.0</ele><time>2026-04-11T12:14:27.999Z</time></trkpt><trkpt lat="44.02896855678112" lon="11.248072005808215"><ele>475.0</ele><time>2026-04-11T12:14:28.999Z</time></trkpt><trkpt lat="44.02909170707993" lon="11.248141638614072"><ele>475.0</ele><time>2026-04-11T12:14:30.999Z</time></trkpt><trkpt lat="44.02918680893891" lon="11.248163683254614"><ele>475.0</ele><time>2026-04-11T12:14:31.999Z</time></trkpt><trkpt lat="44.02928093557488" lon="11.24819334840977"><ele>475.0</ele><time>2026-04-11T12:14:32.999Z</time></trkpt><trkpt lat="44.02938195780984" lon="11.248260776138162"><ele>474.0</ele><time>2026-04-11T12:14:33.999Z</time></trkpt><trkpt lat="44.02949501930028" lon="11.248315101650357"><ele>473.0</ele><time>2026-04-11T12:14:34.999Z</time></trkpt><trkpt lat="44.02960341417761" lon="11.248400040707057"><ele>472.0</ele><time>2026-04-11T12:14:35.999Z</time></trkpt><trkpt lat="44.029717133888894" lon="11.24847522329397"><ele>471.0</ele><time>2026-04-11T12:14:36.999Z</time></trkpt><trkpt lat="44.02982079532972" lon="11.248547940008754"><ele>471.0</ele><time>2026-04-11T12:14:37.999Z</time></trkpt><trkpt lat="44.02990748597092" lon="11.248588069187615"><ele>471.0</ele><time>2026-04-11T12:14:38.999Z</time></trkpt><trkpt lat="44.03000295339783" lon="11.248596860800003"><ele>471.0</ele><time>2026-04-11T12:14:39.999Z</time></trkpt><trkpt lat="44.030090355918496" lon="11.248616456776052"><ele>471.0</ele><time>2026-04-11T12:14:40.999Z</time></trkpt><trkpt lat="44.03015811521331" lon="11.248625991116334"><ele>471.0</ele><time>2026-04-11T12:14:41.999Z</time></trkpt><trkpt lat="44.03022112854213" lon="11.248652633642056"><ele>471.0</ele><time>2026-04-11T12:14:42.999Z</time></trkpt><trkpt lat="44.03028860542852" lon="11.248699993204957"><ele>474.20000000000005</ele><time>2026-04-11T12:14:43.999Z</time></trkpt><trkpt lat="44.03037262280717" lon="11.248802566222015"><ele>477.40000000000003</ele><time>2026-04-11T12:14:45.999Z</time></trkpt><trkpt lat="44.03045972311532" lon="11.248839612478506"><ele>480.6</ele><time>2026-04-11T12:14:46.999Z</time></trkpt><trkpt lat="44.0305233091222" lon="11.248847889081926"><ele>483.8</ele><time>2026-04-11T12:14:47.999Z</time></trkpt><trkpt lat="44.03063984274149" lon="11.24884515828955"><ele>487.0</ele><time>2026-04-11T12:14:49.999Z</time></trkpt><trkpt lat="44.03071558839705" lon="11.248857672375687"><ele>487.00000000000006</ele><time>2026-04-11T12:14:50.999Z</time></trkpt><trkpt lat="44.030788615674055" lon="11.248839802322227"><ele>487.0</ele><time>2026-04-11T12:14:51.999Z</time></trkpt><trkpt lat="44.03087724410311" lon="11.248802361502467"><ele>487.0</ele><time>2026-04-11T12:14:52.999Z</time></trkpt><trkpt lat="44.03098408965795" lon="11.248767333876733"><ele>487.0</ele><time>2026-04-11T12:14:53.999Z</time></trkpt><trkpt lat="44.03105219175515" lon="11.248733230906021"><ele>487.00000000000006</ele><time>2026-04-11T12:14:54.999Z</time></trkpt><trkpt lat="44.03113639568229" lon="11.248722582810494"><ele>487.0</ele><time>2026-04-11T12:14:56Z</time></trkpt><trkpt lat="44.03121315337406" lon="11.248721150233834"><ele>489.20000000000005</ele><time>2026-04-11T12:14:57Z</time></trkpt><trkpt lat="44.03129789456014" lon="11.248741565198243"><ele>491.40000000000003</ele><time>2026-04-11T12:14:58Z</time></trkpt><trkpt lat="44.03138486549951" lon="11.248743859913386"><ele>493.59999999999997</ele><time>2026-04-11T12:14:59Z</time></trkpt><trkpt lat="44.03150721680783" lon="11.248781783708734"><ele>495.79999999999995</ele><time>2026-04-11T12:15:01Z</time></trkpt><trkpt lat="44.03159036438688" lon="11.248823372086045"><ele>498.0</ele><time>2026-04-11T12:15:02Z</time></trkpt><trkpt lat="44.03166719817711" lon="11.248830818891593"><ele>498.2</ele><time>2026-04-11T12:15:03Z</time></trkpt><trkpt lat="44.0317665996781" lon="11.248785500373787"><ele>498.4</ele><time>2026-04-11T12:15:04Z</time></trkpt><trkpt lat="44.0318357567858" lon="11.248739873190214"><ele>498.59999999999997</ele><time>2026-04-11T12:15:05Z</time></trkpt><trkpt lat="44.03190334692627" lon="11.248699434941845"><ele>498.79999999999995</ele><time>2026-04-11T12:15:06Z</time></trkpt><trkpt lat="44.03202031117434" lon="11.248661701078081"><ele>499.0</ele><time>2026-04-11T12:15:08Z</time></trkpt><trkpt lat="44.03215382414545" lon="11.24869882447352"><ele>499.00000000000006</ele><time>2026-04-11T12:15:10Z</time></trkpt><trkpt lat="44.03224781671159" lon="11.24874509309489"><ele>499.0</ele><time>2026-04-11T12:15:11Z</time></trkpt><trkpt lat="44.03231921036447" lon="11.248759427467789"><ele>499.0</ele><time>2026-04-11T12:15:12Z</time></trkpt><trkpt lat="44.03240159528146" lon="11.248768462637218"><ele>499.0</ele><time>2026-04-11T12:15:13Z</time></trkpt><trkpt lat="44.0324646492749" lon="11.248775758935608"><ele>499.00000000000006</ele><time>2026-04-11T12:15:14Z</time></trkpt><trkpt lat="44.032548507323575" lon="11.248765444091255"><ele>499.0</ele><time>2026-04-11T12:15:15Z</time></trkpt><trkpt lat="44.0326260958575" lon="11.248773490575765"><ele>497.1666666666667</ele><time>2026-04-11T12:15:16Z</time></trkpt><trkpt lat="44.03270335992905" lon="11.248768212202593"><ele>495.33333333333337</ele><time>2026-04-11T12:15:17Z</time></trkpt><trkpt lat="44.03277668316942" lon="11.248744920684612"><ele>493.5</ele><time>2026-04-11T12:15:19Z</time></trkpt><trkpt lat="44.03286711470912" lon="11.248751734532721"><ele>491.66666666666663</ele><time>2026-04-11T12:17:41Z</time></trkpt><trkpt lat="44.03294958473704" lon="11.248739209492912"><ele>489.8333333333333</ele><time>2026-04-11T12:17:43.001Z</time></trkpt><trkpt lat="44.033011461886424" lon="11.248768695012934"><ele>488.0</ele><time>2026-04-11T12:17:44.001Z</time></trkpt><trkpt lat="44.03309882603654" lon="11.248863787333766"><ele>488.2</ele><time>2026-04-11T12:17:46.001Z</time></trkpt><trkpt lat="44.033176610214326" lon="11.248975473371031"><ele>488.4</ele><time>2026-04-11T12:17:48.001Z</time></trkpt><trkpt lat="44.03324786222367" lon="11.249106701282985"><ele>488.59999999999997</ele><time>2026-04-11T12:17:50.001Z</time></trkpt><trkpt lat="44.03330868043348" lon="11.249167857539396"><ele>488.79999999999995</ele><time>2026-04-11T12:17:51.001Z</time></trkpt><trkpt lat="44.03335994777777" lon="11.249235689532721"><ele>489.0</ele><time>2026-04-11T12:17:52.001Z</time></trkpt><trkpt lat="44.03342575999824" lon="11.249309294044933"><ele>489.0</ele><time>2026-04-11T12:17:53.001Z</time></trkpt><trkpt lat="44.03349332338967" lon="11.249376649399547"><ele>489.0</ele><time>2026-04-11T12:17:54.001Z</time></trkpt><trkpt lat="44.033568043121306" lon="11.249433001144418"><ele>489.0</ele><time>2026-04-11T12:17:55.001Z</time></trkpt><trkpt lat="44.03364882372592" lon="11.249492919769928"><ele>489.0</ele><time>2026-04-11T12:17:56.001Z</time></trkpt><trkpt lat="44.033718779808005" lon="11.249557009051093"><ele>489.0</ele><time>2026-04-11T12:17:57.001Z</time></trkpt><trkpt lat="44.033807391717694" lon="11.249625837598256"><ele>489.0</ele><time>2026-04-11T12:17:58.001Z</time></trkpt><trkpt lat="44.03389423917576" lon="11.24971121283214"><ele>489.0</ele><time>2026-04-11T12:17:59.001Z</time></trkpt><trkpt lat="44.03397717719851" lon="11.24977603820192"><ele>489.0</ele><time>2026-04-11T12:18:00.001Z</time></trkpt><trkpt lat="44.03404640865138" lon="11.2498456891685"><ele>489.0</ele><time>2026-04-11T12:18:01.001Z</time></trkpt><trkpt lat="44.034118620798544" lon="11.249910613148032"><ele>489.0</ele><time>2026-04-11T12:18:02.001Z</time></trkpt><trkpt lat="44.03417705826327" lon="11.24997148459276"><ele>489.0</ele><time>2026-04-11T12:18:03.001Z</time></trkpt><trkpt lat="44.034233514360395" lon="11.250043990450077"><ele>489.0</ele><time>2026-04-11T12:18:04.001Z</time></trkpt><trkpt lat="44.03430618829633" lon="11.250134301689451"><ele>488.6</ele><time>2026-04-11T12:18:05.001Z</time></trkpt><trkpt lat="44.03438245121508" lon="11.250231843004016"><ele>488.2</ele><time>2026-04-11T12:18:06.001Z</time></trkpt><trkpt lat="44.03446773651571" lon="11.250314176006537"><ele>487.80000000000007</ele><time>2026-04-11T12:18:07.001Z</time></trkpt><trkpt lat="44.03455767960057" lon="11.25038224075132"><ele>487.40000000000003</ele><time>2026-04-11T12:18:08.001Z</time></trkpt><trkpt lat="44.03463675817856" lon="11.250413867812377"><ele>487.0</ele><time>2026-04-11T12:18:09.001Z</time></trkpt><trkpt lat="44.034711559108885" lon="11.250406767229057"><ele>487.0</ele><time>2026-04-11T12:18:10.001Z</time></trkpt><trkpt lat="44.03479272308547" lon="11.250396415258322"><ele>487.00000000000006</ele><time>2026-04-11T12:18:11.001Z</time></trkpt><trkpt lat="44.03488464812088" lon="11.250428891981356"><ele>487.00000000000006</ele><time>2026-04-11T12:18:12.001Z</time></trkpt><trkpt lat="44.03498620380914" lon="11.250456988841767"><ele>487.0</ele><time>2026-04-11T12:18:13.001Z</time></trkpt><trkpt lat="44.03508455914013" lon="11.25048817613884"><ele>487.0</ele><time>2026-04-11T12:18:14.001Z</time></trkpt><trkpt lat="44.03517336009255" lon="11.250538939990761"><ele>486.0</ele><time>2026-04-11T12:18:15.001Z</time></trkpt><trkpt lat="44.0352596902047" lon="11.250622949017492"><ele>485.0</ele><time>2026-04-11T12:18:16.001Z</time></trkpt><trkpt lat="44.03535891631866" lon="11.250718889171432"><ele>484.0</ele><time>2026-04-11T12:18:17.001Z</time></trkpt><trkpt lat="44.03546420534828" lon="11.250805098710524"><ele>483.0</ele><time>2026-04-11T12:18:18.001Z</time></trkpt><trkpt lat="44.035567863479656" lon="11.250873714362244"><ele>483.0</ele><time>2026-04-11T12:18:19.001Z</time></trkpt><trkpt lat="44.035640163123475" lon="11.250928822088746"><ele>482.99999999999994</ele><time>2026-04-11T12:18:20.001Z</time></trkpt><trkpt lat="44.035705710734945" lon="11.25097531439078"><ele>482.99999999999994</ele><time>2026-04-11T12:18:21.001Z</time></trkpt><trkpt lat="44.035785774616514" lon="11.251045512449712"><ele>483.0</ele><time>2026-04-11T12:18:22.001Z</time></trkpt><trkpt lat="44.03586354731196" lon="11.251170346134183"><ele>483.0</ele><time>2026-04-11T12:18:23.001Z</time></trkpt><trkpt lat="44.03592436342822" lon="11.251279525222683"><ele>480.79999999999995</ele><time>2026-04-11T12:18:24.001Z</time></trkpt><trkpt lat="44.03597939386149" lon="11.251401613533126"><ele>478.59999999999997</ele><time>2026-04-11T12:18:25.001Z</time></trkpt><trkpt lat="44.036034493303724" lon="11.251543377502484"><ele>476.40000000000003</ele><time>2026-04-11T12:18:26.001Z</time></trkpt><trkpt lat="44.03608275098717" lon="11.251695007475135"><ele>474.20000000000005</ele><time>2026-04-11T12:18:27.001Z</time></trkpt><trkpt lat="44.03613759861944" lon="11.25182460141416"><ele>472.0</ele><time>2026-04-11T12:18:28.001Z</time></trkpt><trkpt lat="44.036164018032785" lon="11.25195479885929"><ele>472.00000000000006</ele><time>2026-04-11T12:18:29.001Z</time></trkpt><trkpt lat="44.03617130535381" lon="11.25205907670034"><ele>472.0</ele><time>2026-04-11T12:18:30.001Z</time></trkpt><trkpt lat="44.03617051788718" lon="11.252177901115061"><ele>472.0</ele><time>2026-04-11T12:18:31.001Z</time></trkpt><trkpt lat="44.03612934014629" lon="11.252284728513807"><ele>472.0</ele><time>2026-04-11T12:18:32.001Z</time></trkpt><trkpt lat="44.036081972729164" lon="11.252386218659229"><ele>472.00000000000006</ele><time>2026-04-11T12:18:33Z</time></trkpt><trkpt lat="44.036034334315424" lon="11.252496081545933"><ele>472.0</ele><time>2026-04-11T12:18:34Z</time></trkpt><trkpt lat="44.035981059326446" lon="11.252603267005611"><ele>471.0</ele><time>2026-04-11T12:18:35Z</time></trkpt><trkpt lat="44.035911197024056" lon="11.252750602490874"><ele>470.0</ele><time>2026-04-11T12:18:36Z</time></trkpt><trkpt lat="44.03582294697119" lon="11.252836286778209"><ele>469.0</ele><time>2026-04-11T12:18:37Z</time></trkpt><trkpt lat="44.0357385070628" lon="11.252950893711542"><ele>468.0</ele><time>2026-04-11T12:18:38Z</time></trkpt><trkpt lat="44.035678764287" lon="11.253089197712095"><ele>466.5</ele><time>2026-04-11T12:18:39Z</time></trkpt><trkpt lat="44.03567046352073" lon="11.253281570985209"><ele>465.0</ele><time>2026-04-11T12:18:40Z</time></trkpt><trkpt lat="44.035660789885945" lon="11.253464488680864"><ele>463.5</ele><time>2026-04-11T12:18:41Z</time></trkpt><trkpt lat="44.03562621299796" lon="11.253642891784766"><ele>462.0</ele><time>2026-04-11T12:18:42Z</time></trkpt><trkpt lat="44.035614334374245" lon="11.25382351971299"><ele>464.0</ele><time>2026-04-11T12:18:43Z</time></trkpt><trkpt lat="44.03561040889601" lon="11.25401610313746"><ele>466.0</ele><time>2026-04-11T12:18:44Z</time></trkpt><trkpt lat="44.03561005427963" lon="11.254208901984201"><ele>468.0</ele><time>2026-04-11T12:18:45Z</time></trkpt><trkpt lat="44.03561952932793" lon="11.254417317737591"><ele>470.0</ele><time>2026-04-11T12:18:46Z</time></trkpt><trkpt lat="44.03562271979792" lon="11.254623147535053"><ele>469.66666666666663</ele><time>2026-04-11T12:18:47Z</time></trkpt><trkpt lat="44.03561833412319" lon="11.254836633415644"><ele>469.33333333333337</ele><time>2026-04-11T12:18:48Z</time></trkpt><trkpt lat="44.03561713778081" lon="11.255054442219917"><ele>469.0</ele><time>2026-04-11T12:18:49Z</time></trkpt><trkpt lat="44.03562284341538" lon="11.255262373971638"><ele>469.0</ele><time>2026-04-11T12:18:50Z</time></trkpt><trkpt lat="44.03561832320199" lon="11.255474795871915"><ele>469.0</ele><time>2026-04-11T12:18:51Z</time></trkpt><trkpt lat="44.03562360205518" lon="11.2556466682989"><ele>469.0</ele><time>2026-04-11T12:18:52Z</time></trkpt><trkpt lat="44.035627075681234" lon="11.255811270556284"><ele>469.0</ele><time>2026-04-11T12:18:53Z</time></trkpt><trkpt lat="44.03563460800721" lon="11.255940909067393"><ele>469.1666666666667</ele><time>2026-04-11T12:18:54Z</time></trkpt><trkpt lat="44.03563716965404" lon="11.256077466497905"><ele>469.33333333333337</ele><time>2026-04-11T12:18:55Z</time></trkpt><trkpt lat="44.035694122487996" lon="11.256179688877408"><ele>469.5</ele><time>2026-04-11T12:18:56Z</time></trkpt><trkpt lat="44.035751892893536" lon="11.256272585576076"><ele>469.66666666666663</ele><time>2026-04-11T12:18:57Z</time></trkpt><trkpt lat="44.03581285251703" lon="11.256341861499381"><ele>469.8333333333333</ele><time>2026-04-11T12:18:58Z</time></trkpt><trkpt lat="44.035893747196326" lon="11.256388963687838"><ele>470.0</ele><time>2026-04-11T12:18:59Z</time></trkpt><trkpt lat="44.035988524832646" lon="11.256433185905816"><ele>472.3333333333333</ele><time>2026-04-11T12:19:00Z</time></trkpt><trkpt lat="44.03606804550183" lon="11.256467306049348"><ele>474.66666666666663</ele><time>2026-04-11T12:19:01Z</time></trkpt><trkpt lat="44.036156570455695" lon="11.256484471749623"><ele>477.0</ele><time>2026-04-11T12:19:02Z</time></trkpt><trkpt lat="44.03624020936159" lon="11.256484863884273"><ele>479.33333333333337</ele><time>2026-04-11T12:19:03Z</time></trkpt><trkpt lat="44.03631306042684" lon="11.256463197523269"><ele>481.6666666666667</ele><time>2026-04-11T12:19:04Z</time></trkpt><trkpt lat="44.03640239847265" lon="11.25641021020871"><ele>484.0</ele><time>2026-04-11T12:19:05Z</time></trkpt><trkpt lat="44.036507441291725" lon="11.256368984478069"><ele>484.0</ele><time>2026-04-11T12:19:06Z</time></trkpt><trkpt lat="44.036610743835496" lon="11.256338724197972"><ele>484.0</ele><time>2026-04-11T12:19:07Z</time></trkpt><trkpt lat="44.03671433307368" lon="11.256341415152892"><ele>484.0</ele><time>2026-04-11T12:19:08Z</time></trkpt><trkpt lat="44.036817029227095" lon="11.256371547445857"><ele>484.0</ele><time>2026-04-11T12:19:09Z</time></trkpt><trkpt lat="44.0369136522911" lon="11.256424056552271"><ele>484.0</ele><time>2026-04-11T12:19:10Z</time></trkpt><trkpt lat="44.037012055249235" lon="11.256488639724314"><ele>486.75</ele><time>2026-04-11T12:19:11Z</time></trkpt><trkpt lat="44.03712181275056" lon="11.256555162099547"><ele>489.5</ele><time>2026-04-11T12:19:12Z</time></trkpt><trkpt lat="44.0372288916079" lon="11.256634962300202"><ele>492.25</ele><time>2026-04-11T12:19:13Z</time></trkpt><trkpt lat="44.037341015496104" lon="11.256715488878696"><ele>495.0</ele><time>2026-04-11T12:19:14Z</time></trkpt><trkpt lat="44.03744905980634" lon="11.25679205892195"><ele>496.4</ele><time>2026-04-11T12:19:15Z</time></trkpt><trkpt lat="44.037560056224805" lon="11.256841858206197"><ele>497.8</ele><time>2026-04-11T12:19:16Z</time></trkpt><trkpt lat="44.03766774512412" lon="11.256885588885263"><ele>499.20000000000005</ele><time>2026-04-11T12:19:17.001Z</time></trkpt><trkpt lat="44.0377706118142" lon="11.256939921145733"><ele>500.6</ele><time>2026-04-11T12:19:18.001Z</time></trkpt><trkpt lat="44.03784484689322" lon="11.257044153429762"><ele>502.0</ele><time>2026-04-11T12:19:19.001Z</time></trkpt><trkpt lat="44.03793918805238" lon="11.25715043104823"><ele>502.0</ele><time>2026-04-11T12:19:20.001Z</time></trkpt><trkpt lat="44.038053388360325" lon="11.257231520833058"><ele>502.0</ele><time>2026-04-11T12:19:21.001Z</time></trkpt><trkpt lat="44.038175960470355" lon="11.257293264957926"><ele>502.0</ele><time>2026-04-11T12:19:22.001Z</time></trkpt><trkpt lat="44.03829619990525" lon="11.257332720032634"><ele>502.0</ele><time>2026-04-11T12:19:23.001Z</time></trkpt><trkpt lat="44.03843716599585" lon="11.257343683705491"><ele>504.0</ele><time>2026-04-11T12:19:24.001Z</time></trkpt><trkpt lat="44.03856826660959" lon="11.257372753800992"><ele>506.0</ele><time>2026-04-11T12:19:25.001Z</time></trkpt><trkpt lat="44.038698918521554" lon="11.25737662285881"><ele>508.0</ele><time>2026-04-11T12:19:26.001Z</time></trkpt><trkpt lat="44.03880362888204" lon="11.257344678912581"><ele>510.0</ele><time>2026-04-11T12:19:27.001Z</time></trkpt><trkpt lat="44.03889269595825" lon="11.257302283480744"><ele>506.8</ele><time>2026-04-11T12:19:28.001Z</time></trkpt><trkpt lat="44.038987957165574" lon="11.25724364642335"><ele>503.6</ele><time>2026-04-11T12:19:29.001Z</time></trkpt><trkpt lat="44.03906721672577" lon="11.257182225938967"><ele>500.4</ele><time>2026-04-11T12:19:30.001Z</time></trkpt><trkpt lat="44.03916103721101" lon="11.257131633840515"><ele>497.2</ele><time>2026-04-11T12:19:31.001Z</time></trkpt><trkpt lat="44.03925046300478" lon="11.25712705220661"><ele>494.0</ele><time>2026-04-11T12:19:32.001Z</time></trkpt><trkpt lat="44.039328524148644" lon="11.25719240352314"><ele>493.99999999999994</ele><time>2026-04-11T12:19:33.001Z</time></trkpt><trkpt lat="44.039403812305444" lon="11.257245890752785"><ele>494.0</ele><time>2026-04-11T12:19:34.001Z</time></trkpt><trkpt lat="44.0394844118402" lon="11.25730797153027"><ele>494.0</ele><time>2026-04-11T12:19:35.001Z</time></trkpt><trkpt lat="44.03954913273543" lon="11.257378295553336"><ele>494.0</ele><time>2026-04-11T12:19:36.001Z</time></trkpt><trkpt lat="44.039597402702064" lon="11.257461034380013"><ele>493.99999999999994</ele><time>2026-04-11T12:19:37.001Z</time></trkpt><trkpt lat="44.03963935105252" lon="11.257567894112052"><ele>494.0</ele><time>2026-04-11T12:19:38.001Z</time></trkpt><trkpt lat="44.03969675324115" lon="11.257702208773079"><ele>497.0</ele><time>2026-04-11T12:19:39.001Z</time></trkpt><trkpt lat="44.03977527422962" lon="11.257839753128712"><ele>500.0</ele><time>2026-04-11T12:19:40.001Z</time></trkpt><trkpt lat="44.03982551386819" lon="11.257987252192668"><ele>503.0</ele><time>2026-04-11T12:19:41.001Z</time></trkpt><trkpt lat="44.03987755999127" lon="11.258121005185481"><ele>506.0</ele><time>2026-04-11T12:19:42.001Z</time></trkpt><trkpt lat="44.03993574293462" lon="11.258250729131024"><ele>503.6</ele><time>2026-04-11T12:19:43.001Z</time></trkpt><trkpt lat="44.03999089517481" lon="11.25837672744406"><ele>501.20000000000005</ele><time>2026-04-11T12:19:44.001Z</time></trkpt><trkpt lat="44.04006027328369" lon="11.258473247331741"><ele>498.79999999999995</ele><time>2026-04-11T12:19:45.001Z</time></trkpt><trkpt lat="44.04013690111687" lon="11.258550916950371"><ele>496.4</ele><time>2026-04-11T12:19:46.001Z</time></trkpt><trkpt lat="44.0402265273547" lon="11.258612266688575"><ele>494.0</ele><time>2026-04-11T12:19:47.001Z</time></trkpt><trkpt lat="44.04032584757446" lon="11.258649045152863"><ele>494.0</ele><time>2026-04-11T12:19:48.001Z</time></trkpt><trkpt lat="44.040444776654695" lon="11.258670221719818"><ele>494.0</ele><time>2026-04-11T12:19:49.001Z</time></trkpt><trkpt lat="44.040572725769124" lon="11.258689778912677"><ele>494.0</ele><time>2026-04-11T12:19:50.001Z</time></trkpt><trkpt lat="44.040709517899835" lon="11.258712740565265"><ele>494.0</ele><time>2026-04-11T12:19:51.001Z</time></trkpt><trkpt lat="44.040851892622015" lon="11.258726548443443"><ele>492.75</ele><time>2026-04-11T12:19:52.001Z</time></trkpt><trkpt lat="44.04100331210474" lon="11.258737163735814"><ele>491.5</ele><time>2026-04-11T12:19:53.001Z</time></trkpt><trkpt lat="44.04114871732309" lon="11.258749941601486"><ele>490.25</ele><time>2026-04-11T12:19:54.001Z</time></trkpt><trkpt lat="44.04128497760678" lon="11.258766260149772"><ele>489.0</ele><time>2026-04-11T12:19:55.001Z</time></trkpt><trkpt lat="44.041412480892454" lon="11.258784320481192"><ele>489.0</ele><time>2026-04-11T12:19:56.001Z</time></trkpt><trkpt lat="44.04153005675477" lon="11.258806632885069"><ele>489.0</ele><time>2026-04-11T12:19:57.001Z</time></trkpt><trkpt lat="44.041642147322605" lon="11.258819451366087"><ele>489.0</ele><time>2026-04-11T12:19:58.001Z</time></trkpt><trkpt lat="44.04174533011414" lon="11.258839578739268"><ele>489.0</ele><time>2026-04-11T12:19:59.001Z</time></trkpt><trkpt lat="44.04183760144165" lon="11.258869913293859"><ele>489.0</ele><time>2026-04-11T12:20:00.001Z</time></trkpt><trkpt lat="44.041921042535435" lon="11.258904998716726"><ele>488.6666666666667</ele><time>2026-04-11T12:20:01.001Z</time></trkpt><trkpt lat="44.041987542983776" lon="11.258930269853236"><ele>488.33333333333337</ele><time>2026-04-11T12:20:02.001Z</time></trkpt><trkpt lat="44.042051591141295" lon="11.258957128642411"><ele>488.0</ele><time>2026-04-11T12:20:03.001Z</time></trkpt><trkpt lat="44.04211770876456" lon="11.258981952157884"><ele>487.6666666666667</ele><time>2026-04-11T12:20:04.001Z</time></trkpt><trkpt lat="44.0421882068055" lon="11.259005684104267"><ele>487.33333333333337</ele><time>2026-04-11T12:20:05.001Z</time></trkpt><trkpt lat="44.04230303622065" lon="11.259045889333365"><ele>487.0</ele><time>2026-04-11T12:20:07.001Z</time></trkpt><trkpt lat="44.04240440272508" lon="11.259067964559495"><ele>488.20000000000005</ele><time>2026-04-11T12:20:09.001Z</time></trkpt><trkpt lat="44.04248763336564" lon="11.259084955236421"><ele>489.40000000000003</ele><time>2026-04-11T12:20:11.001Z</time></trkpt><trkpt lat="44.042587882729336" lon="11.259086180129026"><ele>490.59999999999997</ele><time>2026-04-11T12:20:13.001Z</time></trkpt><trkpt lat="44.042668460949116" lon="11.259063205137483"><ele>491.79999999999995</ele><time>2026-04-11T12:20:14.001Z</time></trkpt><trkpt lat="44.04276262667543" lon="11.259036311201855"><ele>493.0</ele><time>2026-04-11T12:20:15.001Z</time></trkpt><trkpt lat="44.04286357657917" lon="11.259014302184248"><ele>493.0</ele><time>2026-04-11T12:20:16.001Z</time></trkpt><trkpt lat="44.04297819879774" lon="11.258985987561346"><ele>493.0</ele><time>2026-04-11T12:20:17.001Z</time></trkpt><trkpt lat="44.04311321488011" lon="11.258962289450862"><ele>493.0</ele><time>2026-04-11T12:20:18.001Z</time></trkpt><trkpt lat="44.043249293029675" lon="11.258945287859133"><ele>493.0</ele><time>2026-04-11T12:20:19.001Z</time></trkpt><trkpt lat="44.04338555762751" lon="11.258956144388268"><ele>491.0</ele><time>2026-04-11T12:20:20.001Z</time></trkpt><trkpt lat="44.04353671379716" lon="11.258941695404165"><ele>489.0</ele><time>2026-04-11T12:20:21.001Z</time></trkpt><trkpt lat="44.04368899693329" lon="11.258928549336902"><ele>487.0</ele><time>2026-04-11T12:20:22.002Z</time></trkpt><trkpt lat="44.04384224778515" lon="11.258905311942632"><ele>487.0</ele><time>2026-04-11T12:20:23.002Z</time></trkpt><trkpt lat="44.04399065050173" lon="11.258878753926963"><ele>487.0</ele><time>2026-04-11T12:20:24.002Z</time></trkpt><trkpt lat="44.04412489813628" lon="11.258842499800446"><ele>487.0</ele><time>2026-04-11T12:20:25.002Z</time></trkpt><trkpt lat="44.044255702949634" lon="11.258801510321968"><ele>487.0</ele><time>2026-04-11T12:20:26.002Z</time></trkpt><trkpt lat="44.044384485536334" lon="11.258767078326482"><ele>488.25</ele><time>2026-04-11T12:20:27.002Z</time></trkpt><trkpt lat="44.04450597301825" lon="11.258730615079527"><ele>489.5</ele><time>2026-04-11T12:20:28.002Z</time></trkpt><trkpt lat="44.0446194375736" lon="11.25869434117287"><ele>490.75</ele><time>2026-04-11T12:20:29.002Z</time></trkpt><trkpt lat="44.04474186046184" lon="11.258658823855644"><ele>492.0</ele><time>2026-04-11T12:20:30.002Z</time></trkpt><trkpt lat="44.04485765840225" lon="11.258621389640046"><ele>494.75</ele><time>2026-04-11T12:20:31.002Z</time></trkpt><trkpt lat="44.044972024135255" lon="11.258582736395105"><ele>497.5</ele><time>2026-04-11T12:20:32.002Z</time></trkpt><trkpt lat="44.045084579863506" lon="11.258550786306188"><ele>500.25</ele><time>2026-04-11T12:20:33.002Z</time></trkpt><trkpt lat="44.04519961213795" lon="11.258519975579716"><ele>503.0</ele><time>2026-04-11T12:20:34.002Z</time></trkpt><trkpt lat="44.045317286290086" lon="11.25848236860323"><ele>503.0</ele><time>2026-04-11T12:20:35.002Z</time></trkpt><trkpt lat="44.0454331610054" lon="11.258439470710611"><ele>503.0</ele><time>2026-04-11T12:20:36.002Z</time></trkpt><trkpt lat="44.04555185848101" lon="11.258400159007842"><ele>503.0</ele><time>2026-04-11T12:20:37.002Z</time></trkpt><trkpt lat="44.0456804276151" lon="11.258327695173163"><ele>503.0</ele><time>2026-04-11T12:20:38.002Z</time></trkpt><trkpt lat="44.04581985363524" lon="11.258251435645453"><ele>504.75</ele><time>2026-04-11T12:20:39Z</time></trkpt><trkpt lat="44.045958531367965" lon="11.258186372179622"><ele>506.5</ele><time>2026-04-11T12:20:39.999Z</time></trkpt><trkpt lat="44.046097470341195" lon="11.258159156945938"><ele>508.25</ele><time>2026-04-11T12:20:40.999Z</time></trkpt><trkpt lat="44.046236942659064" lon="11.258171031317735"><ele>510.0</ele><time>2026-04-11T12:20:42Z</time></trkpt><trkpt lat="44.04635807339119" lon="11.258273112755974"><ele>510.0</ele><time>2026-04-11T12:20:42.999Z</time></trkpt><trkpt lat="44.046470387930135" lon="11.258416746299359"><ele>510.0</ele><time>2026-04-11T12:20:43.999Z</time></trkpt><trkpt lat="44.0465828444783" lon="11.258571567474643"><ele>510.0</ele><time>2026-04-11T12:20:45Z</time></trkpt><trkpt lat="44.04671039320335" lon="11.258724096829221"><ele>508.33333333333337</ele><time>2026-04-11T12:20:46Z</time></trkpt><trkpt lat="44.04684576129141" lon="11.25887706572993"><ele>506.6666666666667</ele><time>2026-04-11T12:20:47Z</time></trkpt><trkpt lat="44.04698430520472" lon="11.259028809178254"><ele>505.0</ele><time>2026-04-11T12:20:48Z</time></trkpt><trkpt lat="44.04712368898387" lon="11.259171266616061"><ele>503.6666666666667</ele><time>2026-04-11T12:20:49Z</time></trkpt><trkpt lat="44.047250880673936" lon="11.259297999917695"><ele>502.33333333333337</ele><time>2026-04-11T12:20:50Z</time></trkpt><trkpt lat="44.04738008884269" lon="11.259423528736553"><ele>501.0</ele><time>2026-04-11T12:20:51Z</time></trkpt><trkpt lat="44.04751269654691" lon="11.259551984609262"><ele>501.0</ele><time>2026-04-11T12:20:52Z</time></trkpt><trkpt lat="44.04764861653484" lon="11.259684935439783"><ele>501.0</ele><time>2026-04-11T12:20:53Z</time></trkpt><trkpt lat="44.04778586284272" lon="11.259816473082953"><ele>501.0</ele><time>2026-04-11T12:20:54Z</time></trkpt><trkpt lat="44.04792299144829" lon="11.259965826616481"><ele>504.33333333333337</ele><time>2026-04-11T12:20:55Z</time></trkpt><trkpt lat="44.04802980854898" lon="11.260127268498131"><ele>507.6666666666667</ele><time>2026-04-11T12:20:56Z</time></trkpt><trkpt lat="44.0481339740462" lon="11.260283683695414"><ele>511.0</ele><time>2026-04-11T12:20:57Z</time></trkpt><trkpt lat="44.04823897124072" lon="11.260415899422128"><ele>510.75</ele><time>2026-04-11T12:20:58Z</time></trkpt><trkpt lat="44.04834280946239" lon="11.260534346773644"><ele>510.5</ele><time>2026-04-11T12:20:59Z</time></trkpt><trkpt lat="44.04844307802016" lon="11.260646491497424"><ele>510.25</ele><time>2026-04-11T12:21:00Z</time></trkpt><trkpt lat="44.048548915860394" lon="11.260761630139266"><ele>510.0</ele><time>2026-04-11T12:21:01Z</time></trkpt><trkpt lat="44.04865764071918" lon="11.260872774593397"><ele>511.0</ele><time>2026-04-11T12:21:02Z</time></trkpt><trkpt lat="44.0487727726825" lon="11.26098128732081"><ele>512.0</ele><time>2026-04-11T12:21:03Z</time></trkpt><trkpt lat="44.048908930988915" lon="11.26106655453388"><ele>513.0</ele><time>2026-04-11T12:21:04Z</time></trkpt><trkpt lat="44.049055385427636" lon="11.261124473806394"><ele>514.0</ele><time>2026-04-11T12:21:05Z</time></trkpt><trkpt lat="44.04920583463131" lon="11.26115744357938"><ele>514.0</ele><time>2026-04-11T12:21:06Z</time></trkpt><trkpt lat="44.04936031609836" lon="11.261216165821791"><ele>514.0</ele><time>2026-04-11T12:21:07Z</time></trkpt><trkpt lat="44.04951224303177" lon="11.261262951886794"><ele>514.0</ele><time>2026-04-11T12:21:08Z</time></trkpt><trkpt lat="44.04966870009227" lon="11.261296562796772"><ele>514.0</ele><time>2026-04-11T12:21:09Z</time></trkpt><trkpt lat="44.049827837097205" lon="11.26132566963112"><ele>514.0</ele><time>2026-04-11T12:21:10Z</time></trkpt><trkpt lat="44.04998511547628" lon="11.261340340159686"><ele>514.0</ele><time>2026-04-11T12:21:11Z</time></trkpt><trkpt lat="44.05014389955541" lon="11.261342967772988"><ele>514.6666666666667</ele><time>2026-04-11T12:21:12Z</time></trkpt><trkpt lat="44.0503051739822" lon="11.261321514831124"><ele>515.3333333333334</ele><time>2026-04-11T12:21:13Z</time></trkpt><trkpt lat="44.05047224584623" lon="11.261295166119897"><ele>516.0</ele><time>2026-04-11T12:21:14Z</time></trkpt><trkpt lat="44.050637339328894" lon="11.26125206856816"><ele>516.6666666666666</ele><time>2026-04-11T12:21:15Z</time></trkpt><trkpt lat="44.05080138166373" lon="11.26119846340883"><ele>517.3333333333333</ele><time>2026-04-11T12:21:16Z</time></trkpt><trkpt lat="44.050959302461116" lon="11.261144093396851"><ele>518.0</ele><time>2026-04-11T12:21:17Z</time></trkpt><trkpt lat="44.05111040356892" lon="11.261085692849083"><ele>518.0</ele><time>2026-04-11T12:21:18Z</time></trkpt><trkpt lat="44.0512604104167" lon="11.261041062239178"><ele>518.0</ele><time>2026-04-11T12:21:19Z</time></trkpt><trkpt lat="44.05140075507995" lon="11.260983133289956"><ele>518.0</ele><time>2026-04-11T12:21:20Z</time></trkpt><trkpt lat="44.05155071270561" lon="11.260927422170736"><ele>519.0</ele><time>2026-04-11T12:21:21Z</time></trkpt><trkpt lat="44.05169875016469" lon="11.260864135959581"><ele>520.0</ele><time>2026-04-11T12:21:22Z</time></trkpt><trkpt lat="44.051849834510115" lon="11.260793933483999"><ele>521.0</ele><time>2026-04-11T12:21:23Z</time></trkpt><trkpt lat="44.05200089557734" lon="11.260733847489231"><ele>521.0</ele><time>2026-04-11T12:21:24Z</time></trkpt><trkpt lat="44.05215863249353" lon="11.260680973024892"><ele>521.0</ele><time>2026-04-11T12:21:25Z</time></trkpt><trkpt lat="44.05231161163099" lon="11.260643292155923"><ele>521.0</ele><time>2026-04-11T12:21:26Z</time></trkpt><trkpt lat="44.05246849117954" lon="11.260622123665947"><ele>523.3333333333333</ele><time>2026-04-11T12:21:27Z</time></trkpt><trkpt lat="44.05261915012361" lon="11.260631250328993"><ele>525.6666666666666</ele><time>2026-04-11T12:21:28Z</time></trkpt><trkpt lat="44.052764983150006" lon="11.260699744654088"><ele>528.0</ele><time>2026-04-11T12:21:29Z</time></trkpt><trkpt lat="44.05290198496682" lon="11.260781280084997"><ele>528.0</ele><time>2026-04-11T12:21:30Z</time></trkpt><trkpt lat="44.053028564186256" lon="11.26089570931293"><ele>528.0</ele><time>2026-04-11T12:21:31Z</time></trkpt><trkpt lat="44.05317123237407" lon="11.26102277998431"><ele>528.0</ele><time>2026-04-11T12:21:32Z</time></trkpt><trkpt lat="44.053343018651596" lon="11.261150207551283"><ele>527.6666666666666</ele><time>2026-04-11T12:21:33Z</time></trkpt><trkpt lat="44.05351931796898" lon="11.261306317220287"><ele>527.3333333333333</ele><time>2026-04-11T12:21:34Z</time></trkpt><trkpt lat="44.053679648747924" lon="11.261440452800098"><ele>527.0</ele><time>2026-04-11T12:21:35Z</time></trkpt><trkpt lat="44.05384632471319" lon="11.26153361505713"><ele>529.3333333333333</ele><time>2026-04-11T12:21:36Z</time></trkpt><trkpt lat="44.05400194825431" lon="11.261610752542929"><ele>531.6666666666666</ele><time>2026-04-11T12:21:37Z</time></trkpt><trkpt lat="44.054172908167764" lon="11.261700241638529"><ele>534.0</ele><time>2026-04-11T12:21:38Z</time></trkpt><trkpt lat="44.05434378504516" lon="11.261761674277167"><ele>534.0</ele><time>2026-04-11T12:21:39Z</time></trkpt><trkpt lat="44.05451726716926" lon="11.261824964619091"><ele>534.0</ele><time>2026-04-11T12:21:40.001Z</time></trkpt><trkpt lat="44.0546934883943" lon="11.261883860977088"><ele>534.0</ele><time>2026-04-11T12:21:41.001Z</time></trkpt><trkpt lat="44.05486716808444" lon="11.261946199614687"><ele>532.6666666666666</ele><time>2026-04-11T12:21:42.001Z</time></trkpt><trkpt lat="44.055042021703855" lon="11.262019408615837"><ele>531.3333333333333</ele><time>2026-04-11T12:21:43.001Z</time></trkpt><trkpt lat="44.05521687622386" lon="11.2620932101527"><ele>530.0</ele><time>2026-04-11T12:21:44.001Z</time></trkpt><trkpt lat="44.055385571097915" lon="11.262162580209031"><ele>530.0</ele><time>2026-04-11T12:21:45.001Z</time></trkpt><trkpt lat="44.05554827515755" lon="11.262218772641496"><ele>530.0</ele><time>2026-04-11T12:21:46.001Z</time></trkpt><trkpt lat="44.0557058936091" lon="11.262280806792289"><ele>530.0</ele><time>2026-04-11T12:21:47.001Z</time></trkpt><trkpt lat="44.05585564468516" lon="11.262337680884194"><ele>532.25</ele><time>2026-04-11T12:21:48.001Z</time></trkpt><trkpt lat="44.05599575543386" lon="11.26240935250322"><ele>534.5</ele><time>2026-04-11T12:21:49.001Z</time></trkpt><trkpt lat="44.056132374850414" lon="11.262485825758555"><ele>536.75</ele><time>2026-04-11T12:21:50.001Z</time></trkpt><trkpt lat="44.05625153010634" lon="11.262585712656316"><ele>539.0</ele><time>2026-04-11T12:21:51.001Z</time></trkpt><trkpt lat="44.05635725719137" lon="11.262708037233145"><ele>539.0</ele><time>2026-04-11T12:21:52.001Z</time></trkpt><trkpt lat="44.05646016722863" lon="11.262814258117944"><ele>539.0</ele><time>2026-04-11T12:21:53.001Z</time></trkpt><trkpt lat="44.056573546542715" lon="11.262854914416451"><ele>539.0</ele><time>2026-04-11T12:21:54.001Z</time></trkpt><trkpt lat="44.05670261818326" lon="11.262840115523844"><ele>539.0</ele><time>2026-04-11T12:21:55.001Z</time></trkpt><trkpt lat="44.05683719291363" lon="11.262754940175924"><ele>541.25</ele><time>2026-04-11T12:21:56.001Z</time></trkpt><trkpt lat="44.05696517649543" lon="11.262647738330305"><ele>543.5</ele><time>2026-04-11T12:21:57.001Z</time></trkpt><trkpt lat="44.05709531049259" lon="11.262554819241203"><ele>545.75</ele><time>2026-04-11T12:21:58.001Z</time></trkpt><trkpt lat="44.05722721661075" lon="11.262490048444286"><ele>548.0</ele><time>2026-04-11T12:21:59.001Z</time></trkpt><trkpt lat="44.05736525467201" lon="11.262464593295917"><ele>550.3333333333333</ele><time>2026-04-11T12:22:00.001Z</time></trkpt><trkpt lat="44.05750441075389" lon="11.262475879344345"><ele>552.6666666666666</ele><time>2026-04-11T12:22:01.001Z</time></trkpt><trkpt lat="44.057639835186706" lon="11.262541765385198"><ele>555.0</ele><time>2026-04-11T12:22:02.001Z</time></trkpt><trkpt lat="44.05779079368152" lon="11.262641712996896"><ele>555.0</ele><time>2026-04-11T12:22:03.001Z</time></trkpt><trkpt lat="44.05794253182674" lon="11.26276614167582"><ele>555.0</ele><time>2026-04-11T12:22:04.001Z</time></trkpt><trkpt lat="44.05809642933114" lon="11.262895414744321"><ele>555.0</ele><time>2026-04-11T12:22:05.001Z</time></trkpt><trkpt lat="44.05824275019119" lon="11.263003252295173"><ele>556.0</ele><time>2026-04-11T12:22:06.001Z</time></trkpt><trkpt lat="44.05839801992829" lon="11.263067773984707"><ele>557.0</ele><time>2026-04-11T12:22:07.001Z</time></trkpt><trkpt lat="44.058557872895086" lon="11.2630896889706"><ele>558.0</ele><time>2026-04-11T12:22:08.001Z</time></trkpt><trkpt lat="44.058716118784055" lon="11.263080685410248"><ele>558.0</ele><time>2026-04-11T12:22:09.001Z</time></trkpt><trkpt lat="44.0588807676915" lon="11.263062741946769"><ele>558.0</ele><time>2026-04-11T12:22:10.001Z</time></trkpt><trkpt lat="44.05904627638071" lon="11.263045114405186"><ele>558.0</ele><time>2026-04-11T12:22:11.001Z</time></trkpt><trkpt lat="44.05921336978229" lon="11.263044857052062"><ele>560.0</ele><time>2026-04-11T12:22:12.001Z</time></trkpt><trkpt lat="44.05937556743095" lon="11.263042535484859"><ele>562.0</ele><time>2026-04-11T12:22:13.001Z</time></trkpt><trkpt lat="44.059538666379815" lon="11.263040737478532"><ele>564.0</ele><time>2026-04-11T12:22:14.001Z</time></trkpt><trkpt lat="44.05969557129588" lon="11.263044388637265"><ele>564.0</ele><time>2026-04-11T12:22:15.001Z</time></trkpt><trkpt lat="44.0598523463772" lon="11.26304913854984"><ele>564.0</ele><time>2026-04-11T12:22:16.001Z</time></trkpt><trkpt lat="44.06000245593214" lon="11.263055760969985"><ele>564.0</ele><time>2026-04-11T12:22:17.001Z</time></trkpt><trkpt lat="44.060159549173235" lon="11.263054839529476"><ele>567.6666666666666</ele><time>2026-04-11T12:22:18.001Z</time></trkpt><trkpt lat="44.06031733375444" lon="11.263066329031275"><ele>571.3333333333333</ele><time>2026-04-11T12:22:19.001Z</time></trkpt><trkpt lat="44.060483043608244" lon="11.263073593804487"><ele>575.0</ele><time>2026-04-11T12:22:20.001Z</time></trkpt><trkpt lat="44.06064150265387" lon="11.263089979441595"><ele>574.0</ele><time>2026-04-11T12:22:21.001Z</time></trkpt><trkpt lat="44.06079795107678" lon="11.263122153790329"><ele>573.0</ele><time>2026-04-11T12:22:22.001Z</time></trkpt><trkpt lat="44.0609524580774" lon="11.26316758390066"><ele>572.0</ele><time>2026-04-11T12:22:23.001Z</time></trkpt><trkpt lat="44.06110722387924" lon="11.263249228728396"><ele>572.0</ele><time>2026-04-11T12:22:24.001Z</time></trkpt><trkpt lat="44.061264808073766" lon="11.263349757763056"><ele>572.0</ele><time>2026-04-11T12:22:25.001Z</time></trkpt><trkpt lat="44.06142321141739" lon="11.263454677399864"><ele>572.0</ele><time>2026-04-11T12:22:26.001Z</time></trkpt><trkpt lat="44.061581766432155" lon="11.263568744223935"><ele>573.6666666666666</ele><time>2026-04-11T12:22:27.001Z</time></trkpt><trkpt lat="44.061744917151245" lon="11.26367968993858"><ele>575.3333333333334</ele><time>2026-04-11T12:22:28.001Z</time></trkpt><trkpt lat="44.06190710681966" lon="11.26378719236905"><ele>577.0</ele><time>2026-04-11T12:22:29.001Z</time></trkpt><trkpt lat="44.06207577414222" lon="11.26388664464601"><ele>577.3333333333334</ele><time>2026-04-11T12:22:30.001Z</time></trkpt><trkpt lat="44.062244274061484" lon="11.263985275009329"><ele>577.6666666666666</ele><time>2026-04-11T12:22:31.001Z</time></trkpt><trkpt lat="44.062417325632836" lon="11.264083822876147"><ele>578.0</ele><time>2026-04-11T12:22:32.001Z</time></trkpt><trkpt lat="44.062597210532985" lon="11.264188797011158"><ele>581.6666666666666</ele><time>2026-04-11T12:22:33.001Z</time></trkpt><trkpt lat="44.06277601414525" lon="11.264317049169646"><ele>585.3333333333334</ele><time>2026-04-11T12:22:34.001Z</time></trkpt><trkpt lat="44.06293505402414" lon="11.264444746606982"><ele>589.0</ele><time>2026-04-11T12:22:35.001Z</time></trkpt><trkpt lat="44.06308056220643" lon="11.264606535592758"><ele>588.0</ele><time>2026-04-11T12:22:36.001Z</time></trkpt><trkpt lat="44.06318935740048" lon="11.264817584994564"><ele>587.0</ele><time>2026-04-11T12:22:37.001Z</time></trkpt><trkpt lat="44.06328186949238" lon="11.265062888460246"><ele>586.0</ele><time>2026-04-11T12:22:38.001Z</time></trkpt><trkpt lat="44.063375948178845" lon="11.265319500881887"><ele>591.0</ele><time>2026-04-11T12:22:39.001Z</time></trkpt><trkpt lat="44.06347578134373" lon="11.265581143853543"><ele>596.0</ele><time>2026-04-11T12:22:40.001Z</time></trkpt><trkpt lat="44.06360611695778" lon="11.265810486965396"><ele>601.0</ele><time>2026-04-11T12:22:41.002Z</time></trkpt><trkpt lat="44.063727316168944" lon="11.266016011262607"><ele>601.0</ele><time>2026-04-11T12:22:42.002Z</time></trkpt><trkpt lat="44.063849608556076" lon="11.266200093929807"><ele>601.0</ele><time>2026-04-11T12:22:43.002Z</time></trkpt><trkpt lat="44.06396340433922" lon="11.266375933988872"><ele>601.0</ele><time>2026-04-11T12:22:44.002Z</time></trkpt><trkpt lat="44.06407053228661" lon="11.266543074361726"><ele>604.75</ele><time>2026-04-11T12:22:44.999Z</time></trkpt><trkpt lat="44.06418219163245" lon="11.266698940359849"><ele>608.5</ele><time>2026-04-11T12:22:45.999Z</time></trkpt><trkpt lat="44.06428636779736" lon="11.266840505680324"><ele>612.25</ele><time>2026-04-11T12:22:46.999Z</time></trkpt><trkpt lat="44.06439729369953" lon="11.26696205209268"><ele>616.0</ele><time>2026-04-11T12:22:47.999Z</time></trkpt><trkpt lat="44.06454949994139" lon="11.266985709624915"><ele>616.0</ele><time>2026-04-11T12:22:48.999Z</time></trkpt><trkpt lat="44.06470151211609" lon="11.266994546321392"><ele>616.0</ele><time>2026-04-11T12:22:49.999Z</time></trkpt><trkpt lat="44.06486968974914" lon="11.266990934712478"><ele>616.0</ele><time>2026-04-11T12:22:50.999Z</time></trkpt><trkpt lat="44.06504977521126" lon="11.267000710112445"><ele>619.3333333333334</ele><time>2026-04-11T12:22:51.999Z</time></trkpt><trkpt lat="44.06523313896247" lon="11.267057003778268"><ele>622.6666666666666</ele><time>2026-04-11T12:22:52.999Z</time></trkpt><trkpt lat="44.06543461073669" lon="11.26715047674207"><ele>626.0</ele><time>2026-04-11T12:22:53.999Z</time></trkpt><trkpt lat="44.06564344543919" lon="11.267243724552898"><ele>625.6666666666666</ele><time>2026-04-11T12:22:54.999Z</time></trkpt><trkpt lat="44.06583228662838" lon="11.267317803586257"><ele>625.3333333333334</ele><time>2026-04-11T12:22:55.999Z</time></trkpt><trkpt lat="44.066009943346785" lon="11.267360976597606"><ele>625.0</ele><time>2026-04-11T12:22:56.999Z</time></trkpt><trkpt lat="44.06617867796696" lon="11.267391759244198"><ele>625.0</ele><time>2026-04-11T12:22:57.999Z</time></trkpt><trkpt lat="44.06633361712885" lon="11.267428256778619"><ele>625.0</ele><time>2026-04-11T12:22:58.999Z</time></trkpt><trkpt lat="44.066473569482895" lon="11.26748858416593"><ele>625.0</ele><time>2026-04-11T12:22:59.999Z</time></trkpt><trkpt lat="44.06659894940547" lon="11.267575769883319"><ele>625.0</ele><time>2026-04-11T12:23:00.999Z</time></trkpt><trkpt lat="44.066704916994645" lon="11.267721991542192"><ele>627.0</ele><time>2026-04-11T12:23:01.999Z</time></trkpt><trkpt lat="44.0668280474054" lon="11.267845352279217"><ele>629.0</ele><time>2026-04-11T12:23:02.999Z</time></trkpt><trkpt lat="44.06694962771534" lon="11.267988411267119"><ele>631.0</ele><time>2026-04-11T12:23:03.999Z</time></trkpt><trkpt lat="44.06708828957722" lon="11.268076073705355"><ele>629.3333333333334</ele><time>2026-04-11T12:23:04.999Z</time></trkpt><trkpt lat="44.06724257416832" lon="11.268149796926465"><ele>627.6666666666666</ele><time>2026-04-11T12:23:05.999Z</time></trkpt><trkpt lat="44.06739167769486" lon="11.268194419182409"><ele>626.0</ele><time>2026-04-11T12:23:06.999Z</time></trkpt><trkpt lat="44.06753006149422" lon="11.268244752325916"><ele>629.0</ele><time>2026-04-11T12:23:07.999Z</time></trkpt><trkpt lat="44.06764373298772" lon="11.268343155311024"><ele>632.0</ele><time>2026-04-11T12:23:08.999Z</time></trkpt><trkpt lat="44.06774051105644" lon="11.268477693271846"><ele>635.0</ele><time>2026-04-11T12:23:09.999Z</time></trkpt><trkpt lat="44.06779534199497" lon="11.268671516139971"><ele>638.0</ele><time>2026-04-11T12:23:10.999Z</time></trkpt><trkpt lat="44.06783982557752" lon="11.268895712588943"><ele>637.0</ele><time>2026-04-11T12:23:11.999Z</time></trkpt><trkpt lat="44.06788667498415" lon="11.269124943730636"><ele>636.0</ele><time>2026-04-11T12:23:12.999Z</time></trkpt><trkpt lat="44.06794850402562" lon="11.269332929186698"><ele>635.0</ele><time>2026-04-11T12:23:13.999Z</time></trkpt><trkpt lat="44.0680244477317" lon="11.269517230725684"><ele>635.0</ele><time>2026-04-11T12:23:15Z</time></trkpt><trkpt lat="44.06808444682047" lon="11.269674288402928"><ele>635.0</ele><time>2026-04-11T12:23:16Z</time></trkpt><trkpt lat="44.06816701516192" lon="11.269817339611238"><ele>635.0</ele><time>2026-04-11T12:23:17Z</time></trkpt><trkpt lat="44.068265311744604" lon="11.269934809697691"><ele>635.0</ele><time>2026-04-11T12:23:18Z</time></trkpt><trkpt lat="44.068380521247036" lon="11.270036678858359"><ele>638.5</ele><time>2026-04-11T12:23:19Z</time></trkpt><trkpt lat="44.068503289053155" lon="11.270122779858736"><ele>642.0</ele><time>2026-04-11T12:23:20Z</time></trkpt><trkpt lat="44.06863096672549" lon="11.270190256050698"><ele>645.5</ele><time>2026-04-11T12:23:21Z</time></trkpt><trkpt lat="44.06876862961517" lon="11.270224009876552"><ele>649.0</ele><time>2026-04-11T12:23:22Z</time></trkpt><trkpt lat="44.06891687059728" lon="11.270224278450778"><ele>649.0</ele><time>2026-04-11T12:23:23Z</time></trkpt><trkpt lat="44.069068863010514" lon="11.270210709980692"><ele>649.0</ele><time>2026-04-11T12:23:24Z</time></trkpt><trkpt lat="44.069230098469255" lon="11.270191079102151"><ele>649.0</ele><time>2026-04-11T12:23:25Z</time></trkpt><trkpt lat="44.06938651818162" lon="11.270158505723865"><ele>653.3333333333334</ele><time>2026-04-11T12:23:26Z</time></trkpt><trkpt lat="44.069545584022705" lon="11.270130399791142"><ele>657.6666666666666</ele><time>2026-04-11T12:23:27Z</time></trkpt><trkpt lat="44.06970678938573" lon="11.270092435283313"><ele>662.0</ele><time>2026-04-11T12:23:28Z</time></trkpt><trkpt lat="44.06985961619723" lon="11.270059552588641"><ele>663.5</ele><time>2026-04-11T12:23:29Z</time></trkpt><trkpt lat="44.0700040126046" lon="11.27001773049939"><ele>665.0</ele><time>2026-04-11T12:23:30Z</time></trkpt><trkpt lat="44.07013616310233" lon="11.269966136122006"><ele>666.5</ele><time>2026-04-11T12:23:31Z</time></trkpt><trkpt lat="44.07026015150093" lon="11.26991877558661"><ele>668.0</ele><time>2026-04-11T12:23:32Z</time></trkpt><trkpt lat="44.07038094828114" lon="11.269891508187207"><ele>668.0</ele><time>2026-04-11T12:23:33Z</time></trkpt><trkpt lat="44.070507123783514" lon="11.269880874654975"><ele>668.0</ele><time>2026-04-11T12:23:34Z</time></trkpt><trkpt lat="44.07064254959147" lon="11.269926400539166"><ele>668.0</ele><time>2026-04-11T12:23:35Z</time></trkpt><trkpt lat="44.0707766240541" lon="11.27000981808267"><ele>668.0</ele><time>2026-04-11T12:23:36Z</time></trkpt><trkpt lat="44.07091213728665" lon="11.270114156576108"><ele>670.0</ele><time>2026-04-11T12:23:37Z</time></trkpt><trkpt lat="44.071047687398185" lon="11.270222347004584"><ele>672.0</ele><time>2026-04-11T12:23:38Z</time></trkpt><trkpt lat="44.07118515200544" lon="11.270327320324876"><ele>674.0</ele><time>2026-04-11T12:23:39Z</time></trkpt><trkpt lat="44.07131081390789" lon="11.270442082892236"><ele>674.0</ele><time>2026-04-11T12:23:40Z</time></trkpt><trkpt lat="44.07141890390433" lon="11.270576991110785"><ele>674.0</ele><time>2026-04-11T12:23:41Z</time></trkpt><trkpt lat="44.07151926164384" lon="11.270739325402392"><ele>674.0</ele><time>2026-04-11T12:23:42Z</time></trkpt><trkpt lat="44.07162367198162" lon="11.27091389648744"><ele>678.0</ele><time>2026-04-11T12:23:43Z</time></trkpt><trkpt lat="44.07172829928037" lon="11.271099068819566"><ele>682.0</ele><time>2026-04-11T12:23:44Z</time></trkpt><trkpt lat="44.07186495759833" lon="11.271221922302402"><ele>686.0</ele><time>2026-04-11T12:23:45Z</time></trkpt><trkpt lat="44.07199854430141" lon="11.271343111274852"><ele>687.25</ele><time>2026-04-11T12:23:46Z</time></trkpt><trkpt lat="44.072121686145564" lon="11.271447847742069"><ele>688.5</ele><time>2026-04-11T12:23:47Z</time></trkpt><trkpt lat="44.07223709271339" lon="11.27155277265647"><ele>689.75</ele><time>2026-04-11T12:23:48Z</time></trkpt><trkpt lat="44.07234389335679" lon="11.271650051240652"><ele>691.0</ele><time>2026-04-11T12:23:49Z</time></trkpt><trkpt lat="44.07245854467139" lon="11.27172791300303"><ele>691.0</ele><time>2026-04-11T12:23:50Z</time></trkpt><trkpt lat="44.07258472197632" lon="11.271744444972342"><ele>691.0</ele><time>2026-04-11T12:23:51Z</time></trkpt><trkpt lat="44.07270445209509" lon="11.27170173340045"><ele>691.0</ele><time>2026-04-11T12:23:52Z</time></trkpt><trkpt lat="44.07280388685068" lon="11.271603285621685"><ele>691.0</ele><time>2026-04-11T12:23:53Z</time></trkpt><trkpt lat="44.07286110211564" lon="11.271431604695735"><ele>694.0</ele><time>2026-04-11T12:23:54Z</time></trkpt><trkpt lat="44.072870776343755" lon="11.271230606341698"><ele>697.0</ele><time>2026-04-11T12:23:55Z</time></trkpt><trkpt lat="44.07284759121065" lon="11.271006620506009"><ele>700.0</ele><time>2026-04-11T12:23:56Z</time></trkpt><trkpt lat="44.072837692710415" lon="11.270771239498393"><ele>698.75</ele><time>2026-04-11T12:23:57Z</time></trkpt><trkpt lat="44.0728317229911" lon="11.27055184209234"><ele>697.5</ele><time>2026-04-11T12:23:58Z</time></trkpt><trkpt lat="44.07282259962176" lon="11.270364989926332"><ele>696.25</ele><time>2026-04-11T12:23:59Z</time></trkpt><trkpt lat="44.07283808441926" lon="11.270193324299216"><ele>695.0</ele><time>2026-04-11T12:24:00Z</time></trkpt><trkpt lat="44.07289852986155" lon="11.27007761754022"><ele>695.0</ele><time>2026-04-11T12:24:01Z</time></trkpt><trkpt lat="44.0729858506743" lon="11.270030564458871"><ele>695.0</ele><time>2026-04-11T12:24:02Z</time></trkpt><trkpt lat="44.07309198807918" lon="11.27004452671244"><ele>695.0</ele><time>2026-04-11T12:24:03Z</time></trkpt><trkpt lat="44.07320136302278" lon="11.27007584298379"><ele>695.0</ele><time>2026-04-11T12:24:04Z</time></trkpt><trkpt lat="44.07330488466098" lon="11.270107043262394"><ele>695.0</ele><time>2026-04-11T12:24:05Z</time></trkpt><trkpt lat="44.073381471317404" lon="11.270201916202332"><ele>697.0</ele><time>2026-04-11T12:24:06.001Z</time></trkpt><trkpt lat="44.07349037854691" lon="11.270294345444576"><ele>699.0</ele><time>2026-04-11T12:24:07.001Z</time></trkpt><trkpt lat="44.073594523649774" lon="11.270407881351627"><ele>701.0</ele><time>2026-04-11T12:24:08.001Z</time></trkpt><trkpt lat="44.07368045369772" lon="11.270519420301776"><ele>703.0</ele><time>2026-04-11T12:24:09.001Z</time></trkpt><trkpt lat="44.0737631275659" lon="11.27064567174711"><ele>703.25</ele><time>2026-04-11T12:24:10.001Z</time></trkpt><trkpt lat="44.07383751634562" lon="11.27079688596183"><ele>703.5</ele><time>2026-04-11T12:24:11.001Z</time></trkpt><trkpt lat="44.07390197306549" lon="11.270960534251714"><ele>703.75</ele><time>2026-04-11T12:24:12.001Z</time></trkpt><trkpt lat="44.07397433874537" lon="11.271146510130182"><ele>704.0</ele><time>2026-04-11T12:24:13.001Z</time></trkpt><trkpt lat="44.07402059521354" lon="11.271358770354055"><ele>703.3333333333333</ele><time>2026-04-11T12:24:14.001Z</time></trkpt><trkpt lat="44.07405851599822" lon="11.271600121302464"><ele>702.6666666666666</ele><time>2026-04-11T12:24:15.001Z</time></trkpt><trkpt lat="44.0740655314398" lon="11.271866555552728"><ele>702.0</ele><time>2026-04-11T12:24:16.001Z</time></trkpt><trkpt lat="44.07408084000119" lon="11.27213046577359"><ele>702.3333333333334</ele><time>2026-04-11T12:24:17.001Z</time></trkpt><trkpt lat="44.07409719734911" lon="11.272369159292408"><ele>702.6666666666667</ele><time>2026-04-11T12:24:18.001Z</time></trkpt><trkpt lat="44.074113004433" lon="11.272590181148143"><ele>703.0</ele><time>2026-04-11T12:24:19.001Z</time></trkpt><trkpt lat="44.07412796584787" lon="11.272782699627617"><ele>706.0</ele><time>2026-04-11T12:24:20.001Z</time></trkpt><trkpt lat="44.07412999787995" lon="11.272972395822514"><ele>709.0</ele><time>2026-04-11T12:24:21.001Z</time></trkpt><trkpt lat="44.074100379318445" lon="11.273161607793767"><ele>712.0</ele><time>2026-04-11T12:24:22.001Z</time></trkpt><trkpt lat="44.07403826522389" lon="11.273350048843993"><ele>715.0</ele><time>2026-04-11T12:24:23.001Z</time></trkpt><trkpt lat="44.07397414531306" lon="11.273526285932116"><ele>715.0</ele><time>2026-04-11T12:24:24.001Z</time></trkpt><trkpt lat="44.07392264907848" lon="11.27369492404688"><ele>715.0</ele><time>2026-04-11T12:24:25.001Z</time></trkpt><trkpt lat="44.073891055640765" lon="11.273858231070742"><ele>715.0</ele><time>2026-04-11T12:24:26.001Z</time></trkpt><trkpt lat="44.073910816286755" lon="11.274053491707518"><ele>715.0</ele><time>2026-04-11T12:24:27.001Z</time></trkpt><trkpt lat="44.07399097852544" lon="11.274235086054219"><ele>722.3333333333334</ele><time>2026-04-11T12:24:28.001Z</time></trkpt><trkpt lat="44.07410795020467" lon="11.274394936251156"><ele>729.6666666666666</ele><time>2026-04-11T12:24:29.001Z</time></trkpt><trkpt lat="44.07423173784132" lon="11.274581978265681"><ele>737.0</ele><time>2026-04-11T12:24:30.001Z</time></trkpt><trkpt lat="44.07435616448688" lon="11.274765502620982"><ele>735.6666666666666</ele><time>2026-04-11T12:24:31.001Z</time></trkpt><trkpt lat="44.07448703573616" lon="11.274935760243984"><ele>734.3333333333334</ele><time>2026-04-11T12:24:32.001Z</time></trkpt><trkpt lat="44.07462376070369" lon="11.275055122221188"><ele>733.0</ele><time>2026-04-11T12:24:33.001Z</time></trkpt><trkpt lat="44.07475814355985" lon="11.275157375529563"><ele>733.0</ele><time>2026-04-11T12:24:34.001Z</time></trkpt><trkpt lat="44.074895466970766" lon="11.27523889685955"><ele>733.0</ele><time>2026-04-11T12:24:35.001Z</time></trkpt><trkpt lat="44.075024114387574" lon="11.27531624068025"><ele>733.0</ele><time>2026-04-11T12:24:36.001Z</time></trkpt><trkpt lat="44.07511879224808" lon="11.275473828796395"><ele>733.0</ele><time>2026-04-11T12:24:37.001Z</time></trkpt><trkpt lat="44.07516694951745" lon="11.275654649693529"><ele>737.0</ele><time>2026-04-11T12:24:38.001Z</time></trkpt><trkpt lat="44.07523193054097" lon="11.275869781684094"><ele>741.0</ele><time>2026-04-11T12:24:39.001Z</time></trkpt><trkpt lat="44.07533115487939" lon="11.276103422976103"><ele>745.0</ele><time>2026-04-11T12:24:40.001Z</time></trkpt><trkpt lat="44.07544139919742" lon="11.276283568361887"><ele>745.0</ele><time>2026-04-11T12:24:41.001Z</time></trkpt><trkpt lat="44.075572367274006" lon="11.276433668483486"><ele>745.0</ele><time>2026-04-11T12:24:42.001Z</time></trkpt><trkpt lat="44.07566728042859" lon="11.276597558063145"><ele>745.0</ele><time>2026-04-11T12:24:43.001Z</time></trkpt><trkpt lat="44.07576160597375" lon="11.276734869766134"><ele>750.5</ele><time>2026-04-11T12:24:44.001Z</time></trkpt><trkpt lat="44.075842627751975" lon="11.27686118035327"><ele>756.0</ele><time>2026-04-11T12:24:45.001Z</time></trkpt><trkpt lat="44.07587683895308" lon="11.27700333317336"><ele>761.5</ele><time>2026-04-11T12:24:46.001Z</time></trkpt><trkpt lat="44.0758574729267" lon="11.277149487465756"><ele>767.0</ele><time>2026-04-11T12:24:47.001Z</time></trkpt><trkpt lat="44.07580834160522" lon="11.277306667495687"><ele>767.25</ele><time>2026-04-11T12:24:48.001Z</time></trkpt><trkpt lat="44.07576788970861" lon="11.277483219386857"><ele>767.5</ele><time>2026-04-11T12:24:49.001Z</time></trkpt><trkpt lat="44.07575961951642" lon="11.277678397603133"><ele>767.75</ele><time>2026-04-11T12:24:50.001Z</time></trkpt><trkpt lat="44.07580300115233" lon="11.277865632733752"><ele>768.0</ele><time>2026-04-11T12:24:50.999Z</time></trkpt><trkpt lat="44.0758513116192" lon="11.27805948811939"><ele>767.75</ele><time>2026-04-11T12:24:51.999Z</time></trkpt><trkpt lat="44.07588310398586" lon="11.278251478860952"><ele>767.5</ele><time>2026-04-11T12:24:52.999Z</time></trkpt><trkpt lat="44.07587920516335" lon="11.278452102065359"><ele>767.25</ele><time>2026-04-11T12:24:53.999Z</time></trkpt><trkpt lat="44.075867721898824" lon="11.278668020809627"><ele>767.0</ele><time>2026-04-11T12:24:54.999Z</time></trkpt><trkpt lat="44.07585129135427" lon="11.278898089938208"><ele>766.6666666666666</ele><time>2026-04-11T12:24:55.999Z</time></trkpt><trkpt lat="44.07583551680873" lon="11.279118973438392"><ele>766.3333333333334</ele><time>2026-04-11T12:24:56.999Z</time></trkpt><trkpt lat="44.075819676778" lon="11.27934077381829"><ele>766.0</ele><time>2026-04-11T12:24:57.999Z</time></trkpt><trkpt lat="44.07580485987169" lon="11.279555605708143"><ele>765.6666666666667</ele><time>2026-04-11T12:24:58.999Z</time></trkpt><trkpt lat="44.07579173368719" lon="11.279784854840003"><ele>765.3333333333334</ele><time>2026-04-11T12:24:59.999Z</time></trkpt><trkpt lat="44.075783343487004" lon="11.279988926286798"><ele>765.0</ele><time>2026-04-11T12:25:00.999Z</time></trkpt><trkpt lat="44.075792477864276" lon="11.2801865967816"><ele>765.0</ele><time>2026-04-11T12:25:01.999Z</time></trkpt><trkpt lat="44.07583460666902" lon="11.28035371265234"><ele>765.0</ele><time>2026-04-11T12:25:02.999Z</time></trkpt><trkpt lat="44.07593241661781" lon="11.280475678634613"><ele>765.0</ele><time>2026-04-11T12:25:03.999Z</time></trkpt><trkpt lat="44.07602932845658" lon="11.28061137444252"><ele>765.0</ele><time>2026-04-11T12:25:04.999Z</time></trkpt><trkpt lat="44.07615423942081" lon="11.280697866404054"><ele>765.0</ele><time>2026-04-11T12:25:05.999Z</time></trkpt><trkpt lat="44.07629925908069" lon="11.280732303146596"><ele>765.0</ele><time>2026-04-11T12:25:06.999Z</time></trkpt><trkpt lat="44.07643991151839" lon="11.280755502990388"><ele>765.0</ele><time>2026-04-11T12:25:07.999Z</time></trkpt><trkpt lat="44.07656440753226" lon="11.280791227334012"><ele>765.0</ele><time>2026-04-11T12:25:08.999Z</time></trkpt><trkpt lat="44.07668028896357" lon="11.280841517381083"><ele>765.0</ele><time>2026-04-11T12:25:09.999Z</time></trkpt><trkpt lat="44.076769656329525" lon="11.280941620365939"><ele>765.0</ele><time>2026-04-11T12:25:11Z</time></trkpt><trkpt lat="44.07686940400802" lon="11.281055364763102"><ele>765.0</ele><time>2026-04-11T12:25:12Z</time></trkpt><trkpt lat="44.07698240987565" lon="11.281178748996545"><ele>765.0</ele><time>2026-04-11T12:25:13Z</time></trkpt><trkpt lat="44.077102287656686" lon="11.281284765014131"><ele>765.0</ele><time>2026-04-11T12:25:14Z</time></trkpt><trkpt lat="44.077227866199166" lon="11.2813605924723"><ele>765.0</ele><time>2026-04-11T12:25:15Z</time></trkpt><trkpt lat="44.07735382315403" lon="11.28142445188561"><ele>765.0</ele><time>2026-04-11T12:25:16Z</time></trkpt><trkpt lat="44.07748474296837" lon="11.281463109871753"><ele>765.0</ele><time>2026-04-11T12:25:17Z</time></trkpt><trkpt lat="44.07760222371769" lon="11.281540996393977"><ele>764.75</ele><time>2026-04-11T12:25:18Z</time></trkpt><trkpt lat="44.077733404322395" lon="11.281583148657868"><ele>764.5</ele><time>2026-04-11T12:25:19Z</time></trkpt><trkpt lat="44.07787666593583" lon="11.281654467878006"><ele>764.25</ele><time>2026-04-11T12:25:20Z</time></trkpt><trkpt lat="44.07802338012933" lon="11.281740971022499"><ele>764.0</ele><time>2026-04-11T12:25:21Z</time></trkpt><trkpt lat="44.07817289575278" lon="11.2818023085915"><ele>767.3333333333333</ele><time>2026-04-11T12:25:22Z</time></trkpt><trkpt lat="44.07831337367882" lon="11.28187764218257"><ele>770.6666666666666</ele><time>2026-04-11T12:25:23Z</time></trkpt><trkpt lat="44.078460043603634" lon="11.281954020510177"><ele>774.0</ele><time>2026-04-11T12:25:24Z</time></trkpt><trkpt lat="44.07860229530344" lon="11.282014330468828"><ele>774.0</ele><time>2026-04-11T12:25:25Z</time></trkpt><trkpt lat="44.07874514280366" lon="11.282070770584722"><ele>774.0</ele><time>2026-04-11T12:25:26Z</time></trkpt><trkpt lat="44.07890665728216" lon="11.282096291980293"><ele>774.0</ele><time>2026-04-11T12:25:27Z</time></trkpt><trkpt lat="44.07905737325181" lon="11.282094721022776"><ele>778.5</ele><time>2026-04-11T12:25:28Z</time></trkpt><trkpt lat="44.079206214408785" lon="11.282081575708098"><ele>783.0</ele><time>2026-04-11T12:25:29Z</time></trkpt><trkpt lat="44.07933993690474" lon="11.282062258551086"><ele>787.5</ele><time>2026-04-11T12:25:30Z</time></trkpt><trkpt lat="44.07946428277587" lon="11.282047789243867"><ele>792.0</ele><time>2026-04-11T12:25:31Z</time></trkpt><trkpt lat="44.079585195303814" lon="11.282030550655513"><ele>792.0</ele><time>2026-04-11T12:25:32Z</time></trkpt><trkpt lat="44.07969543199067" lon="11.282018090030563"><ele>792.0</ele><time>2026-04-11T12:25:33Z</time></trkpt><trkpt lat="44.07978878424375" lon="11.282008025326451"><ele>792.0</ele><time>2026-04-11T12:25:34Z</time></trkpt><trkpt lat="44.07987331211629" lon="11.281997990917574"><ele>792.0</ele><time>2026-04-11T12:25:35Z</time></trkpt><trkpt lat="44.07995421685802" lon="11.281989953071385"><ele>792.0</ele><time>2026-04-11T12:25:36Z</time></trkpt><trkpt lat="44.08003665481975" lon="11.281986192942806"><ele>794.3333333333334</ele><time>2026-04-11T12:25:37Z</time></trkpt><trkpt lat="44.080116380146585" lon="11.281987631692582"><ele>796.6666666666667</ele><time>2026-04-11T12:25:38Z</time></trkpt><trkpt lat="44.08018324690357" lon="11.28198455315797"><ele>799.0</ele><time>2026-04-11T12:25:39Z</time></trkpt><trkpt lat="44.08027143183334" lon="11.281973052248002"><ele>801.3333333333334</ele><time>2026-04-11T12:25:41Z</time></trkpt><trkpt lat="44.080348916469774" lon="11.28197104270539"><ele>803.6666666666667</ele><time>2026-04-11T12:25:44Z</time></trkpt><trkpt lat="44.080429077672555" lon="11.2819383974026"><ele>806.0</ele><time>2026-04-11T12:25:47Z</time></trkpt><trkpt lat="44.0805297060148" lon="11.281945257426363"><ele>806.0000000000001</ele><time>2026-04-11T12:25:49Z</time></trkpt><trkpt lat="44.08060645974139" lon="11.28194169042243"><ele>806.0</ele><time>2026-04-11T12:25:50Z</time></trkpt><trkpt lat="44.08067931535436" lon="11.281921559096764"><ele>806.0</ele><time>2026-04-11T12:25:51Z</time></trkpt><trkpt lat="44.08080694318286" lon="11.281872196668782"><ele>806.0</ele><time>2026-04-11T12:25:53.001Z</time></trkpt><trkpt lat="44.08089171019779" lon="11.2818367962338"><ele>806.0000000000001</ele><time>2026-04-11T12:25:54.001Z</time></trkpt><trkpt lat="44.08096281630588" lon="11.281807100875275"><ele>806.0</ele><time>2026-04-11T12:25:55.001Z</time></trkpt><trkpt lat="44.081074677378034" lon="11.281760385418911"><ele>807.0</ele><time>2026-04-11T12:25:56.001Z</time></trkpt><trkpt lat="44.08124023527576" lon="11.281693592190608"><ele>808.0</ele><time>2026-04-11T12:25:57.001Z</time></trkpt><trkpt lat="44.08140968948413" lon="11.281538406606954"><ele>809.0</ele><time>2026-04-11T12:25:58.001Z</time></trkpt><trkpt lat="44.081506701901965" lon="11.281414802482717"><ele>812.2</ele><time>2026-04-11T12:25:59.001Z</time></trkpt><trkpt lat="44.081587882686165" lon="11.28131419788981"><ele>815.4000000000001</ele><time>2026-04-11T12:26:00.001Z</time></trkpt><trkpt lat="44.081669067004526" lon="11.28121382529687"><ele>818.6</ele><time>2026-04-11T12:26:02.001Z</time></trkpt><trkpt lat="44.08173024039692" lon="11.281138193264281"><ele>821.8</ele><time>2026-04-11T12:26:03.001Z</time></trkpt><trkpt lat="44.08180966369879" lon="11.28103999797014"><ele>825.0</ele><time>2026-04-11T12:26:05.001Z</time></trkpt><trkpt lat="44.08186044975131" lon="11.280977208655383"><ele>825.0</ele><time>2026-04-11T12:26:06.001Z</time></trkpt><trkpt lat="44.0818873713454" lon="11.280881409563223"><ele>825.0</ele><time>2026-04-11T12:26:07.001Z</time></trkpt><trkpt lat="44.08169734313098" lon="11.28030427750862"><ele>831.0</ele><time>2026-04-11T12:26:08.001Z</time></trkpt><trkpt lat="44.08177138697685" lon="11.28021525212144"><ele>837.0</ele><time>2026-04-11T12:26:09.001Z</time></trkpt><trkpt lat="44.081678359215005" lon="11.280164843726352"><ele>843.0</ele><time>2026-04-11T12:26:13.001Z</time></trkpt><trkpt lat="44.081737066036126" lon="11.280236791901027"><ele>849.0</ele><time>2026-04-11T12:26:17.001Z</time></trkpt><trkpt lat="44.081792221445234" lon="11.28030458767611"><ele>855.0</ele><time>2026-04-11T12:26:18.001Z</time></trkpt><trkpt lat="44.081905345479505" lon="11.28034184560318"><ele>855.0</ele><time>2026-04-11T12:26:19.001Z</time></trkpt><trkpt lat="44.08200936137285" lon="11.280427048049173"><ele>855.0</ele><time>2026-04-11T12:26:20.001Z</time></trkpt><trkpt lat="44.08215110863056" lon="11.280501184907214"><ele>855.0</ele><time>2026-04-11T12:26:21.001Z</time></trkpt><trkpt lat="44.08226961528897" lon="11.280580148805354"><ele>855.0</ele><time>2026-04-11T12:26:22.001Z</time></trkpt><trkpt lat="44.082427166071305" lon="11.280560902784693"><ele>851.0</ele><time>2026-04-11T12:26:23.001Z</time></trkpt><trkpt lat="44.082574160971895" lon="11.280499115555324"><ele>847.0</ele><time>2026-04-11T12:26:24.001Z</time></trkpt><trkpt lat="44.08274357083352" lon="11.280454070652269"><ele>843.0</ele><time>2026-04-11T12:26:25.001Z</time></trkpt><trkpt lat="44.08286494092768" lon="11.280470268268012"><ele>839.0</ele><time>2026-04-11T12:26:26.001Z</time></trkpt><trkpt lat="44.08315336912149" lon="11.280041340832806"><ele>840.6</ele><time>2026-04-11T12:26:27.001Z</time></trkpt><trkpt lat="44.083265372375045" lon="11.280026281615465"><ele>842.2</ele><time>2026-04-11T12:26:29.001Z</time></trkpt><trkpt lat="44.08333450304682" lon="11.280028139792885"><ele>843.8000000000001</ele><time>2026-04-11T12:26:30.001Z</time></trkpt><trkpt lat="44.08341367993751" lon="11.280053000551442"><ele>845.4000000000001</ele><time>2026-04-11T12:26:31.001Z</time></trkpt><trkpt lat="44.08348498140522" lon="11.280064939228426"><ele>847.0</ele><time>2026-04-11T12:26:32.001Z</time></trkpt><trkpt lat="44.08361355933791" lon="11.280050283917237"><ele>847.0</ele><time>2026-04-11T12:26:34.001Z</time></trkpt><trkpt lat="44.08368672825491" lon="11.280056588749346"><ele>847.0</ele><time>2026-04-11T12:26:35.001Z</time></trkpt><trkpt lat="44.083787185009044" lon="11.280052852939003"><ele>847.0</ele><time>2026-04-11T12:26:36.001Z</time></trkpt><trkpt lat="44.0838870246328" lon="11.280027712493824"><ele>847.0</ele><time>2026-04-11T12:26:37.001Z</time></trkpt><trkpt lat="44.08400749856571" lon="11.280029886114093"><ele>847.0</ele><time>2026-04-11T12:26:39.001Z</time></trkpt><trkpt lat="44.08411445883732" lon="11.280040179645981"><ele>848.3333333333333</ele><time>2026-04-11T12:26:41.001Z</time></trkpt><trkpt lat="44.08424827884754" lon="11.280063935172299"><ele>849.6666666666666</ele><time>2026-04-11T12:26:43.001Z</time></trkpt><trkpt lat="44.08432263774121" lon="11.280052054997515"><ele>851.0</ele><time>2026-04-11T12:26:44.001Z</time></trkpt><trkpt lat="44.08439461316486" lon="11.280039201268767"><ele>852.3333333333333</ele><time>2026-04-11T12:26:45.002Z</time></trkpt><trkpt lat="44.08446506007877" lon="11.279979696071088"><ele>853.6666666666666</ele><time>2026-04-11T12:26:46.002Z</time></trkpt><trkpt lat="44.08452103038847" lon="11.27993139924345"><ele>855.0</ele><time>2026-04-11T12:26:47.002Z</time></trkpt><trkpt lat="44.08459110229532" lon="11.279879975779394"><ele>855.0</ele><time>2026-04-11T12:26:48.002Z</time></trkpt><trkpt lat="44.08466221642739" lon="11.279830874250791"><ele>855.0</ele><time>2026-04-11T12:26:49.002Z</time></trkpt><trkpt lat="44.08473292699466" lon="11.279781208149542"><ele>855.0</ele><time>2026-04-11T12:26:50.002Z</time></trkpt><trkpt lat="44.08480438399861" lon="11.279760439293236"><ele>855.0</ele><time>2026-04-11T12:26:51.002Z</time></trkpt><trkpt lat="44.08492763649905" lon="11.279757719895287"><ele>855.0</ele><time>2026-04-11T12:26:53.002Z</time></trkpt><trkpt lat="44.085007791978285" lon="11.279725619035286"><ele>855.0</ele><time>2026-04-11T12:26:54.002Z</time></trkpt><trkpt lat="44.085075483130424" lon="11.279739421981292"><ele>855.2</ele><time>2026-04-11T12:26:55.002Z</time></trkpt><trkpt lat="44.085145364778576" lon="11.279746043495422"><ele>855.4</ele><time>2026-04-11T12:26:56.002Z</time></trkpt><trkpt lat="44.08526016370233" lon="11.279773974959856"><ele>855.5999999999999</ele><time>2026-04-11T12:26:57.999Z</time></trkpt><trkpt lat="44.08537611858206" lon="11.279801122763082"><ele>855.8</ele><time>2026-04-11T12:26:59.999Z</time></trkpt><trkpt lat="44.08545296723307" lon="11.279813636239512"><ele>856.0</ele><time>2026-04-11T12:27:00.999Z</time></trkpt><trkpt lat="44.08553902398886" lon="11.279800805449588"><ele>855.9999999999999</ele><time>2026-04-11T12:27:01.999Z</time></trkpt><trkpt lat="44.08560027645723" lon="11.279773877497243"><ele>856.0</ele><time>2026-04-11T12:27:02.999Z</time></trkpt><trkpt lat="44.08566514437058" lon="11.279747485249933"><ele>856.0</ele><time>2026-04-11T12:27:03.999Z</time></trkpt><trkpt lat="44.08575964365873" lon="11.279747737445097"><ele>856.0</ele><time>2026-04-11T12:27:04.999Z</time></trkpt><trkpt lat="44.085841600497034" lon="11.279779511878647"><ele>855.9999999999999</ele><time>2026-04-11T12:27:05.999Z</time></trkpt><trkpt lat="44.08594713810971" lon="11.279877360747742"><ele>856.0</ele><time>2026-04-11T12:27:07.999Z</time></trkpt><trkpt lat="44.08601803921125" lon="11.279972496921104"><ele>858.4</ele><time>2026-04-11T12:27:08.999Z</time></trkpt><trkpt lat="44.086080391398205" lon="11.280094094239967"><ele>860.8</ele><time>2026-04-11T12:27:09.999Z</time></trkpt><trkpt lat="44.0861494145808" lon="11.280190884861726"><ele>863.1999999999999</ele><time>2026-04-11T12:27:10.999Z</time></trkpt><trkpt lat="44.08622476021116" lon="11.28028326249009"><ele>865.5999999999999</ele><time>2026-04-11T12:27:11.999Z</time></trkpt><trkpt lat="44.08629898305056" lon="11.28042358157963"><ele>868.0</ele><time>2026-04-11T12:27:13.999Z</time></trkpt><trkpt lat="44.086354137145264" lon="11.28050801382647"><ele>867.9999999999999</ele><time>2026-04-11T12:27:14.999Z</time></trkpt><trkpt lat="44.08643830460239" lon="11.280541235312192"><ele>868.0</ele><time>2026-04-11T12:27:15.999Z</time></trkpt><trkpt lat="44.08652110586768" lon="11.280556415855198"><ele>868.0</ele><time>2026-04-11T12:27:16.999Z</time></trkpt><trkpt lat="44.08659999419362" lon="11.28055121447156"><ele>868.0</ele><time>2026-04-11T12:27:17.999Z</time></trkpt><trkpt lat="44.086677550092595" lon="11.280526111202489"><ele>867.9999999999999</ele><time>2026-04-11T12:27:18.999Z</time></trkpt><trkpt lat="44.086756804106884" lon="11.280548402208174"><ele>868.0</ele><time>2026-04-11T12:27:19.999Z</time></trkpt><trkpt lat="44.08685532995228" lon="11.280590314476816"><ele>869.2</ele><time>2026-04-11T12:27:21.999Z</time></trkpt><trkpt lat="44.08693576695142" lon="11.280655858150798"><ele>870.4</ele><time>2026-04-11T12:27:23.999Z</time></trkpt><trkpt lat="44.087017933846" lon="11.2807034400005"><ele>871.6000000000001</ele><time>2026-04-11T12:27:26Z</time></trkpt><trkpt lat="44.08708237551265" lon="11.28072849384201"><ele>872.8000000000001</ele><time>2026-04-11T12:30:49.002Z</time></trkpt><trkpt lat="44.08723188206864" lon="11.280612583124258"><ele>874.0</ele><time>2026-04-11T12:30:51.002Z</time></trkpt><trkpt lat="44.0873145890677" lon="11.280535353707903"><ele>874.0</ele><time>2026-04-11T12:30:52.002Z</time></trkpt><trkpt lat="44.087403746740144" lon="11.28049852074796"><ele>874.0000000000001</ele><time>2026-04-11T12:30:53.002Z</time></trkpt><trkpt lat="44.08747864441837" lon="11.280567984411997"><ele>874.0000000000001</ele><time>2026-04-11T12:30:54.002Z</time></trkpt><trkpt lat="44.08755573054673" lon="11.280653965707339"><ele>874.0</ele><time>2026-04-11T12:30:55.002Z</time></trkpt><trkpt lat="44.087652100204416" lon="11.280758807161414"><ele>874.0</ele><time>2026-04-11T12:30:56.002Z</time></trkpt><trkpt lat="44.08775602545611" lon="11.280893157557417"><ele>879.0</ele><time>2026-04-11T12:30:57.002Z</time></trkpt><trkpt lat="44.087846395164405" lon="11.281041596821883"><ele>884.0</ele><time>2026-04-11T12:30:58.002Z</time></trkpt><trkpt lat="44.08792598852181" lon="11.281185276704786"><ele>889.0</ele><time>2026-04-11T12:30:59.002Z</time></trkpt><trkpt lat="44.0880273719166" lon="11.281298480433987"><ele>894.0</ele><time>2026-04-11T12:31:00.002Z</time></trkpt><trkpt lat="44.088155910240346" lon="11.281351881269082"><ele>891.5</ele><time>2026-04-11T12:31:01.002Z</time></trkpt><trkpt lat="44.088264711067445" lon="11.28137230764625"><ele>889.0</ele><time>2026-04-11T12:31:02.002Z</time></trkpt><trkpt lat="44.08838433729609" lon="11.281364531471011"><ele>886.5</ele><time>2026-04-11T12:31:03.002Z</time></trkpt><trkpt lat="44.088505478078275" lon="11.281356670297965"><ele>884.0</ele><time>2026-04-11T12:31:04.002Z</time></trkpt><trkpt lat="44.08862123361908" lon="11.281371871610727"><ele>884.0</ele><time>2026-04-11T12:31:05.002Z</time></trkpt><trkpt lat="44.08873803194546" lon="11.28139421614909"><ele>884.0</ele><time>2026-04-11T12:31:06.002Z</time></trkpt><trkpt lat="44.08885580568763" lon="11.281426661750446"><ele>884.0</ele><time>2026-04-11T12:31:07.002Z</time></trkpt><trkpt lat="44.08897014460387" lon="11.28145194078689"><ele>884.0</ele><time>2026-04-11T12:31:08.002Z</time></trkpt><trkpt lat="44.089075845627214" lon="11.281466067032806"><ele>885.4000000000001</ele><time>2026-04-11T12:31:09.001Z</time></trkpt><trkpt lat="44.089176980492255" lon="11.281505869139215"><ele>886.8000000000001</ele><time>2026-04-11T12:31:10Z</time></trkpt><trkpt lat="44.08927800112227" lon="11.281498966263293"><ele>888.1999999999999</ele><time>2026-04-11T12:31:11Z</time></trkpt><trkpt lat="44.08938063862023" lon="11.281468836019428"><ele>889.5999999999999</ele><time>2026-04-11T12:31:12.001Z</time></trkpt><trkpt lat="44.08948285345971" lon="11.281419988271768"><ele>891.0</ele><time>2026-04-11T12:31:13.001Z</time></trkpt><trkpt lat="44.08958566296019" lon="11.281364360872086"><ele>891.0</ele><time>2026-04-11T12:31:14.001Z</time></trkpt><trkpt lat="44.08969465152171" lon="11.28131286411718"><ele>891.0</ele><time>2026-04-11T12:31:15.001Z</time></trkpt><trkpt lat="44.089807571433695" lon="11.281254288847549"><ele>891.0</ele><time>2026-04-11T12:31:16.001Z</time></trkpt><trkpt lat="44.08991202607744" lon="11.281219464317132"><ele>891.0</ele><time>2026-04-11T12:31:17.001Z</time></trkpt><trkpt lat="44.09001687594923" lon="11.281179732787885"><ele>891.5999999999999</ele><time>2026-04-11T12:31:18.001Z</time></trkpt><trkpt lat="44.09012548334765" lon="11.281160435626672"><ele>892.1999999999999</ele><time>2026-04-11T12:31:19.001Z</time></trkpt><trkpt lat="44.09022606570826" lon="11.281165842851593"><ele>892.8000000000001</ele><time>2026-04-11T12:31:20.001Z</time></trkpt><trkpt lat="44.090324996249315" lon="11.281179744049277"><ele>893.4000000000001</ele><time>2026-04-11T12:31:21.001Z</time></trkpt><trkpt lat="44.090445551413666" lon="11.281200331599003"><ele>894.0</ele><time>2026-04-11T12:31:22.001Z</time></trkpt><trkpt lat="44.09055985960804" lon="11.2812143937207"><ele>894.0</ele><time>2026-04-11T12:31:23.001Z</time></trkpt><trkpt lat="44.090671267766346" lon="11.281190717091452"><ele>894.0</ele><time>2026-04-11T12:31:24.001Z</time></trkpt><trkpt lat="44.09078402015321" lon="11.281114175839202"><ele>894.0</ele><time>2026-04-11T12:31:25.001Z</time></trkpt><trkpt lat="44.09089288487092" lon="11.2809908996091"><ele>894.0</ele><time>2026-04-11T12:31:26.001Z</time></trkpt><trkpt lat="44.0910065299578" lon="11.280859425058509"><ele>894.5</ele><time>2026-04-11T12:31:27.001Z</time></trkpt><trkpt lat="44.09112704256947" lon="11.280740001143279"><ele>895.0</ele><time>2026-04-11T12:31:28.001Z</time></trkpt><trkpt lat="44.09124936686925" lon="11.28063589767498"><ele>895.5</ele><time>2026-04-11T12:31:29.001Z</time></trkpt><trkpt lat="44.09137361173081" lon="11.280546222554932"><ele>896.0</ele><time>2026-04-11T12:31:30.001Z</time></trkpt><trkpt lat="44.09151426003031" lon="11.280468494965309"><ele>892.6666666666667</ele><time>2026-04-11T12:31:31.001Z</time></trkpt><trkpt lat="44.09165609745079" lon="11.280399630547231"><ele>889.3333333333333</ele><time>2026-04-11T12:31:32.001Z</time></trkpt><trkpt lat="44.0917886961234" lon="11.28030775643382"><ele>886.0</ele><time>2026-04-11T12:31:33.001Z</time></trkpt><trkpt lat="44.091925965092194" lon="11.280214659398585"><ele>886.0</ele><time>2026-04-11T12:31:34.001Z</time></trkpt><trkpt lat="44.092055220587454" lon="11.280145525582828"><ele>886.0</ele><time>2026-04-11T12:31:35.001Z</time></trkpt><trkpt lat="44.092172768637354" lon="11.280065891739008"><ele>886.0</ele><time>2026-04-11T12:31:36.001Z</time></trkpt><trkpt lat="44.09228378204096" lon="11.279969925356246"><ele>886.0</ele><time>2026-04-11T12:31:37.001Z</time></trkpt><trkpt lat="44.092376514006226" lon="11.279829306458346"><ele>887.25</ele><time>2026-04-11T12:31:38.001Z</time></trkpt><trkpt lat="44.092434651841295" lon="11.279663685590826"><ele>888.5</ele><time>2026-04-11T12:31:39.001Z</time></trkpt><trkpt lat="44.09249368215395" lon="11.279488129802612"><ele>889.75</ele><time>2026-04-11T12:31:40.001Z</time></trkpt><trkpt lat="44.09254211779011" lon="11.279287569071519"><ele>891.0</ele><time>2026-04-11T12:31:41.001Z</time></trkpt><trkpt lat="44.09262128570543" lon="11.278916226549802"><ele>891.0</ele><time>2026-04-11T12:31:43.001Z</time></trkpt><trkpt lat="44.092684122606" lon="11.27874319511295"><ele>891.0</ele><time>2026-04-11T12:31:44.001Z</time></trkpt><trkpt lat="44.09275119514753" lon="11.278611124587467"><ele>891.0</ele><time>2026-04-11T12:31:45.001Z</time></trkpt><trkpt lat="44.09284347061239" lon="11.27849772618605"><ele>891.0</ele><time>2026-04-11T12:31:46.001Z</time></trkpt><trkpt lat="44.09295699664697" lon="11.278419306344361"><ele>891.0</ele><time>2026-04-11T12:31:47.001Z</time></trkpt><trkpt lat="44.093100221700226" lon="11.278385142597559"><ele>891.0</ele><time>2026-04-11T12:31:48.001Z</time></trkpt><trkpt lat="44.09325216100067" lon="11.27836575705543"><ele>891.0</ele><time>2026-04-11T12:31:49.001Z</time></trkpt><trkpt lat="44.09338176005023" lon="11.278330404201958"><ele>891.0</ele><time>2026-04-11T12:31:50.001Z</time></trkpt><trkpt lat="44.09349783071583" lon="11.278258219920206"><ele>892.5</ele><time>2026-04-11T12:31:51.001Z</time></trkpt><trkpt lat="44.093606089888254" lon="11.278137184397721"><ele>894.0</ele><time>2026-04-11T12:31:52.001Z</time></trkpt><trkpt lat="44.093698606824866" lon="11.277985693253845"><ele>895.5</ele><time>2026-04-11T12:31:53.001Z</time></trkpt><trkpt lat="44.093785244276816" lon="11.277814644766718"><ele>897.0</ele><time>2026-04-11T12:31:54.001Z</time></trkpt><trkpt lat="44.09386237364648" lon="11.27765005324342"><ele>897.0</ele><time>2026-04-11T12:31:55.001Z</time></trkpt><trkpt lat="44.09393033072893" lon="11.277485199262088"><ele>897.0</ele><time>2026-04-11T12:31:56.001Z</time></trkpt><trkpt lat="44.093987729067194" lon="11.277334993128282"><ele>897.0</ele><time>2026-04-11T12:31:57.001Z</time></trkpt><trkpt lat="44.09404137938138" lon="11.277196083331182"><ele>897.0</ele><time>2026-04-11T12:31:58.001Z</time></trkpt><trkpt lat="44.094085333958695" lon="11.277066819245814"><ele>898.4000000000001</ele><time>2026-04-11T12:31:59.001Z</time></trkpt><trkpt lat="44.09413015970972" lon="11.276947444433937"><ele>899.8000000000001</ele><time>2026-04-11T12:32:00.001Z</time></trkpt><trkpt lat="44.094164864639566" lon="11.276846345656333"><ele>901.2</ele><time>2026-04-11T12:32:01.001Z</time></trkpt><trkpt lat="44.0941992624825" lon="11.276718907569306"><ele>902.6</ele><time>2026-04-11T12:32:02.001Z</time></trkpt><trkpt lat="44.094245061702296" lon="11.276608519571873"><ele>904.0</ele><time>2026-04-11T12:32:03.001Z</time></trkpt><trkpt lat="44.094267052562536" lon="11.276496767897635"><ele>903.9999999999999</ele><time>2026-04-11T12:32:04.001Z</time></trkpt><trkpt lat="44.09425476191259" lon="11.276376727649193"><ele>904.0</ele><time>2026-04-11T12:32:05.001Z</time></trkpt><trkpt lat="44.09420577098511" lon="11.276289343329802"><ele>904.0</ele><time>2026-04-11T12:32:06.001Z</time></trkpt><trkpt lat="44.09412744046428" lon="11.2762372576677"><ele>904.0</ele><time>2026-04-11T12:32:07.001Z</time></trkpt><trkpt lat="44.09403847621644" lon="11.276213730548612"><ele>903.9999999999999</ele><time>2026-04-11T12:32:08.001Z</time></trkpt><trkpt lat="44.09396462895149" lon="11.27615205928911"><ele>904.0</ele><time>2026-04-11T12:32:09.001Z</time></trkpt><trkpt lat="44.09392833835409" lon="11.27607279389735"><ele>904.2</ele><time>2026-04-11T12:32:10.001Z</time></trkpt><trkpt lat="44.093943092681215" lon="11.275966643201663"><ele>904.4000000000001</ele><time>2026-04-11T12:32:11.001Z</time></trkpt><trkpt lat="44.093993581021365" lon="11.2758592472327"><ele>904.6</ele><time>2026-04-11T12:32:12.001Z</time></trkpt><trkpt lat="44.09406322388491" lon="11.275744909729111"><ele>904.8</ele><time>2026-04-11T12:32:13.001Z</time></trkpt><trkpt lat="44.09412139170707" lon="11.27559719769066"><ele>905.0</ele><time>2026-04-11T12:32:14.001Z</time></trkpt><trkpt lat="44.09417142456651" lon="11.275418700794026"><ele>905.0</ele><time>2026-04-11T12:32:15.001Z</time></trkpt><trkpt lat="44.09419295098858" lon="11.275232530134236"><ele>905.0</ele><time>2026-04-11T12:32:16.001Z</time></trkpt><trkpt lat="44.09419672528693" lon="11.275018345170578"><ele>905.0</ele><time>2026-04-11T12:32:17.001Z</time></trkpt><trkpt lat="44.09418983743402" lon="11.274804338040878"><ele>905.0</ele><time>2026-04-11T12:32:18.001Z</time></trkpt><trkpt lat="44.09417415805913" lon="11.274597269870126"><ele>905.0</ele><time>2026-04-11T12:32:19.001Z</time></trkpt><trkpt lat="44.09416373184324" lon="11.274411015793616"><ele>905.0</ele><time>2026-04-11T12:32:20.001Z</time></trkpt><trkpt lat="44.09415512376911" lon="11.274231848513967"><ele>905.0</ele><time>2026-04-11T12:32:21.001Z</time></trkpt><trkpt lat="44.094146513685295" lon="11.27406131146471"><ele>905.0</ele><time>2026-04-11T12:32:22.001Z</time></trkpt><trkpt lat="44.09414477540007" lon="11.273895793177333"><ele>905.0</ele><time>2026-04-11T12:32:23.001Z</time></trkpt><trkpt lat="44.09413750965528" lon="11.273742319137153"><ele>905.0</ele><time>2026-04-11T12:32:24.001Z</time></trkpt><trkpt lat="44.09413228291171" lon="11.273594776213084"><ele>905.0</ele><time>2026-04-11T12:32:25.001Z</time></trkpt><trkpt lat="44.09412075279022" lon="11.273444611921894"><ele>905.0</ele><time>2026-04-11T12:32:26.001Z</time></trkpt><trkpt lat="44.0941139197637" lon="11.273284605184527"><ele>905.0</ele><time>2026-04-11T12:32:27.001Z</time></trkpt><trkpt lat="44.0941049116518" lon="11.273114997308905"><ele>905.5</ele><time>2026-04-11T12:32:28.002Z</time></trkpt><trkpt lat="44.09409310270303" lon="11.272942234303946"><ele>906.0</ele><time>2026-04-11T12:32:29.002Z</time></trkpt><trkpt lat="44.09407402770092" lon="11.272762984146494"><ele>906.5</ele><time>2026-04-11T12:32:30.002Z</time></trkpt><trkpt lat="44.094045819089025" lon="11.272575338023042"><ele>907.0</ele><time>2026-04-11T12:32:31.002Z</time></trkpt><trkpt lat="44.094020182965" lon="11.272381417082725"><ele>902.0</ele><time>2026-04-11T12:32:32.002Z</time></trkpt><trkpt lat="44.09399888665942" lon="11.272179390621213"><ele>897.0</ele><time>2026-04-11T12:32:33.002Z</time></trkpt><trkpt lat="44.093965410410036" lon="11.271977280746192"><ele>892.0</ele><time>2026-04-11T12:32:34.002Z</time></trkpt><trkpt lat="44.09394386132624" lon="11.27176441011759"><ele>892.0</ele><time>2026-04-11T12:32:35.002Z</time></trkpt><trkpt lat="44.093922456877905" lon="11.271542034224288"><ele>892.0</ele><time>2026-04-11T12:32:36.002Z</time></trkpt><trkpt lat="44.093897510700025" lon="11.271326514826"><ele>892.0</ele><time>2026-04-11T12:32:37.002Z</time></trkpt><trkpt lat="44.093872577956475" lon="11.271116526240087"><ele>891.25</ele><time>2026-04-11T12:32:38.002Z</time></trkpt><trkpt lat="44.09384653830752" lon="11.270906983048578"><ele>890.5</ele><time>2026-04-11T12:32:39.002Z</time></trkpt><trkpt lat="44.09382006761293" lon="11.270701608626377"><ele>889.75</ele><time>2026-04-11T12:32:40.002Z</time></trkpt><trkpt lat="44.093799918040546" lon="11.270509026660244"><ele>889.0</ele><time>2026-04-11T12:32:41.002Z</time></trkpt><trkpt lat="44.09378083022048" lon="11.270319677954252"><ele>890.5</ele><time>2026-04-11T12:32:42.002Z</time></trkpt><trkpt lat="44.093752393049265" lon="11.27014144691461"><ele>892.0</ele><time>2026-04-11T12:32:43.002Z</time></trkpt><trkpt lat="44.093729542052515" lon="11.269965409034008"><ele>893.5</ele><time>2026-04-11T12:32:44.002Z</time></trkpt><trkpt lat="44.09369386157348" lon="11.269791104231347"><ele>895.0</ele><time>2026-04-11T12:32:45.002Z</time></trkpt><trkpt lat="44.09362830211716" lon="11.269634688499773"><ele>895.25</ele><time>2026-04-11T12:32:46.002Z</time></trkpt><trkpt lat="44.093540559694105" lon="11.269502204618336"><ele>895.5</ele><time>2026-04-11T12:32:47.002Z</time></trkpt><trkpt lat="44.09342415266264" lon="11.269403236872149"><ele>895.75</ele><time>2026-04-11T12:32:48.002Z</time></trkpt><trkpt lat="44.093294096528666" lon="11.269337512341716"><ele>896.0</ele><time>2026-04-11T12:32:49.002Z</time></trkpt><trkpt lat="44.09315398232572" lon="11.26929116532118"><ele>896.0</ele><time>2026-04-11T12:32:50.002Z</time></trkpt><trkpt lat="44.09302354576142" lon="11.269247828343197"><ele>896.0</ele><time>2026-04-11T12:32:51.002Z</time></trkpt><trkpt lat="44.09290457228481" lon="11.269209984418264"><ele>896.0</ele><time>2026-04-11T12:32:52.002Z</time></trkpt><trkpt lat="44.092793116975166" lon="11.269167835757193"><ele>896.0</ele><time>2026-04-11T12:32:53.002Z</time></trkpt><trkpt lat="44.09270466585214" lon="11.269139655610696"><ele>896.0000000000001</ele><time>2026-04-11T12:32:54.002Z</time></trkpt><trkpt lat="44.092624245970114" lon="11.269114154463157"><ele>896.0</ele><time>2026-04-11T12:32:55.002Z</time></trkpt><trkpt lat="44.092564922330624" lon="11.269076335296557"><ele>896.0</ele><time>2026-04-11T12:32:56.002Z</time></trkpt><trkpt lat="44.092459168622874" lon="11.269040440426572"><ele>896.0</ele><time>2026-04-11T12:32:58.002Z</time></trkpt><trkpt lat="44.0923933693994" lon="11.269016703833296"><ele>896.0000000000001</ele><time>2026-04-11T12:33:00.002Z</time></trkpt><trkpt lat="44.0923197851885" lon="11.268973812790914"><ele>896.0</ele><time>2026-04-11T12:33:03.002Z</time></trkpt><trkpt lat="44.09226133933195" lon="11.268926961914342"><ele>897.0</ele><time>2026-04-11T12:33:06.002Z</time></trkpt><trkpt lat="44.09239006630254" lon="11.268684735216425"><ele>898.0</ele><time>2026-04-11T12:33:10.002Z</time></trkpt><trkpt lat="44.092457732025764" lon="11.268622392219205"><ele>899.0</ele><time>2026-04-11T12:33:11.002Z</time></trkpt><trkpt lat="44.09253510209291" lon="11.268552904084228"><ele>900.0</ele><time>2026-04-11T12:33:12.002Z</time></trkpt><trkpt lat="44.092606898891496" lon="11.26848474182761"><ele>900.0</ele><time>2026-04-11T12:33:13.002Z</time></trkpt><trkpt lat="44.09258884208438" lon="11.268360935924957"><ele>900.0</ele><time>2026-04-11T12:33:16Z</time></trkpt><trkpt lat="44.092504925689816" lon="11.26832153367349"><ele>900.0</ele><time>2026-04-11T12:33:17Z</time></trkpt><trkpt lat="44.09241443714667" lon="11.26829779498262"><ele>900.0</ele><time>2026-04-11T12:33:18Z</time></trkpt><trkpt lat="44.09228652279603" lon="11.268282707865662"><ele>900.0</ele><time>2026-04-11T12:33:19Z</time></trkpt><trkpt lat="44.09217483128602" lon="11.268256225966523"><ele>900.6</ele><time>2026-04-11T12:33:20Z</time></trkpt><trkpt lat="44.092104691570086" lon="11.268242959886313"><ele>901.2</ele><time>2026-04-11T12:33:21Z</time></trkpt><trkpt lat="44.09202164050396" lon="11.268243434364496"><ele>901.8</ele><time>2026-04-11T12:33:24Z</time></trkpt><trkpt lat="44.09195253441099" lon="11.268215244642446"><ele>902.4</ele><time>2026-04-11T12:33:25Z</time></trkpt><trkpt lat="44.091855865780055" lon="11.268184448209846"><ele>903.0</ele><time>2026-04-11T12:33:26Z</time></trkpt><trkpt lat="44.091707823733024" lon="11.26814796313921"><ele>901.4</ele><time>2026-04-11T12:33:27Z</time></trkpt><trkpt lat="44.0915618387954" lon="11.268114040223217"><ele>899.8</ele><time>2026-04-11T12:33:28Z</time></trkpt><trkpt lat="44.09144362791709" lon="11.268082200884196"><ele>898.2</ele><time>2026-04-11T12:33:29Z</time></trkpt><trkpt lat="44.09134950172305" lon="11.268038582846131"><ele>896.6</ele><time>2026-04-11T12:33:30Z</time></trkpt><trkpt lat="44.0912758117953" lon="11.267989100035798"><ele>895.0</ele><time>2026-04-11T12:33:31Z</time></trkpt><trkpt lat="44.091205250574355" lon="11.26790033143085"><ele>895.0</ele><time>2026-04-11T12:33:32Z</time></trkpt><trkpt lat="44.09115149271279" lon="11.267769545875854"><ele>895.0</ele><time>2026-04-11T12:33:33Z</time></trkpt><trkpt lat="44.09110513107926" lon="11.267583096813162"><ele>895.0</ele><time>2026-04-11T12:33:34Z</time></trkpt><trkpt lat="44.0910446754756" lon="11.267342408920847"><ele>895.0</ele><time>2026-04-11T12:33:35Z</time></trkpt><trkpt lat="44.090991050032066" lon="11.267111558379808"><ele>895.25</ele><time>2026-04-11T12:33:36Z</time></trkpt><trkpt lat="44.09092211155537" lon="11.266933588048381"><ele>895.5</ele><time>2026-04-11T12:33:37Z</time></trkpt><trkpt lat="44.09086196060632" lon="11.2667862946815"><ele>895.75</ele><time>2026-04-11T12:33:38Z</time></trkpt><trkpt lat="44.09080273096604" lon="11.26665676988413"><ele>896.0</ele><time>2026-04-11T12:33:39Z</time></trkpt><trkpt lat="44.09074992234404" lon="11.266554016981285"><ele>894.1666666666667</ele><time>2026-04-11T12:33:40Z</time></trkpt><trkpt lat="44.09069789944265" lon="11.266442620399099"><ele>892.3333333333334</ele><time>2026-04-11T12:33:41Z</time></trkpt><trkpt lat="44.090640713713846" lon="11.26634230458282"><ele>890.5</ele><time>2026-04-11T12:33:42Z</time></trkpt><trkpt lat="44.09058200955229" lon="11.266250615039427"><ele>888.6666666666667</ele><time>2026-04-11T12:33:43Z</time></trkpt><trkpt lat="44.09053111867275" lon="11.26615813392704"><ele>886.8333333333334</ele><time>2026-04-11T12:33:44Z</time></trkpt><trkpt lat="44.09049187347766" lon="11.266071783464895"><ele>885.0</ele><time>2026-04-11T12:33:45Z</time></trkpt><trkpt lat="44.09045137490861" lon="11.265981294546915"><ele>885.0</ele><time>2026-04-11T12:33:46Z</time></trkpt><trkpt lat="44.090372403433456" lon="11.265820225994606"><ele>885.0</ele><time>2026-04-11T12:33:48Z</time></trkpt><trkpt lat="44.090317804599515" lon="11.265725390002741"><ele>885.0</ele><time>2026-04-11T12:33:49Z</time></trkpt><trkpt lat="44.090282364623214" lon="11.265644050269216"><ele>885.0</ele><time>2026-04-11T12:33:50Z</time></trkpt><trkpt lat="44.09025055225516" lon="11.265548689742168"><ele>885.0</ele><time>2026-04-11T12:33:51Z</time></trkpt><trkpt lat="44.09021237495475" lon="11.265458218328858"><ele>885.0</ele><time>2026-04-11T12:33:52Z</time></trkpt><trkpt lat="44.09017168773626" lon="11.265376426721199"><ele>884.3333333333334</ele><time>2026-04-11T12:33:53Z</time></trkpt><trkpt lat="44.09011108879049" lon="11.265308124334814"><ele>883.6666666666667</ele><time>2026-04-11T12:33:54Z</time></trkpt><trkpt lat="44.090033870204095" lon="11.265262826809066"><ele>883.0</ele><time>2026-04-11T12:33:55Z</time></trkpt><trkpt lat="44.08994420900568" lon="11.265232324354994"><ele>882.3333333333334</ele><time>2026-04-11T12:33:56Z</time></trkpt><trkpt lat="44.08986050209882" lon="11.265188662714277"><ele>881.6666666666667</ele><time>2026-04-11T12:33:57Z</time></trkpt><trkpt lat="44.0897791118978" lon="11.265118869118414"><ele>881.0</ele><time>2026-04-11T12:33:58Z</time></trkpt><trkpt lat="44.089715536009344" lon="11.265018411231631"><ele>880.1999999999999</ele><time>2026-04-11T12:33:59Z</time></trkpt><trkpt lat="44.08965902608995" lon="11.264906568837283"><ele>879.3999999999999</ele><time>2026-04-11T12:34:00Z</time></trkpt><trkpt lat="44.08961540307888" lon="11.264782061684805"><ele>878.6</ele><time>2026-04-11T12:34:01Z</time></trkpt><trkpt lat="44.0895744582644" lon="11.264658313909687"><ele>877.8</ele><time>2026-04-11T12:34:02.001Z</time></trkpt><trkpt lat="44.08954197790776" lon="11.264547028598075"><ele>877.0</ele><time>2026-04-11T12:34:03.001Z</time></trkpt><trkpt lat="44.089504304658306" lon="11.264421615605698"><ele>875.6</ele><time>2026-04-11T12:34:04.001Z</time></trkpt><trkpt lat="44.0894639733647" lon="11.264305178479754"><ele>874.2</ele><time>2026-04-11T12:34:05.001Z</time></trkpt><trkpt lat="44.089437244662214" lon="11.264191498904115"><ele>872.8</ele><time>2026-04-11T12:34:06.001Z</time></trkpt><trkpt lat="44.089427456132704" lon="11.264067323902998"><ele>871.4</ele><time>2026-04-11T12:34:07.001Z</time></trkpt><trkpt lat="44.08942523338595" lon="11.263914879246997"><ele>870.0</ele><time>2026-04-11T12:34:08.001Z</time></trkpt><trkpt lat="44.08941084637799" lon="11.263766745497234"><ele>869.0</ele><time>2026-04-11T12:34:09.001Z</time></trkpt><trkpt lat="44.08940038136515" lon="11.263630198777394"><ele>868.0</ele><time>2026-04-11T12:34:10.001Z</time></trkpt><trkpt lat="44.08938833671951" lon="11.263493285193785"><ele>867.0</ele><time>2026-04-11T12:34:11.001Z</time></trkpt><trkpt lat="44.08937317562936" lon="11.263328251421605"><ele>866.0</ele><time>2026-04-11T12:34:12.001Z</time></trkpt><trkpt lat="44.08936712754437" lon="11.263171823365163"><ele>865.0</ele><time>2026-04-11T12:34:13.001Z</time></trkpt><trkpt lat="44.08936951031904" lon="11.263010101204493"><ele>865.0</ele><time>2026-04-11T12:34:14.001Z</time></trkpt><trkpt lat="44.08938533323842" lon="11.262872189316845"><ele>865.0</ele><time>2026-04-11T12:34:15.001Z</time></trkpt><trkpt lat="44.08941067247737" lon="11.262744408775118"><ele>865.0</ele><time>2026-04-11T12:34:16.001Z</time></trkpt><trkpt lat="44.08942998823783" lon="11.262602574485127"><ele>865.0</ele><time>2026-04-11T12:34:17.001Z</time></trkpt><trkpt lat="44.089447366566205" lon="11.262447286697999"><ele>865.0</ele><time>2026-04-11T12:34:18.001Z</time></trkpt><trkpt lat="44.08947070142177" lon="11.262288089672245"><ele>866.0</ele><time>2026-04-11T12:34:19.001Z</time></trkpt><trkpt lat="44.08949289140062" lon="11.26211640646804"><ele>867.0</ele><time>2026-04-11T12:34:20.001Z</time></trkpt><trkpt lat="44.08949090019133" lon="11.261946840260201"><ele>868.0</ele><time>2026-04-11T12:34:21.001Z</time></trkpt><trkpt lat="44.08948074716172" lon="11.261795514892995"><ele>869.0</ele><time>2026-04-11T12:34:22.001Z</time></trkpt><trkpt lat="44.08947400547102" lon="11.261646710418255"><ele>869.0</ele><time>2026-04-11T12:34:23.001Z</time></trkpt><trkpt lat="44.08947440788124" lon="11.26151002978769"><ele>869.0000000000001</ele><time>2026-04-11T12:34:24.001Z</time></trkpt><trkpt lat="44.08949058622036" lon="11.26136531040598"><ele>869.0000000000001</ele><time>2026-04-11T12:34:25.001Z</time></trkpt><trkpt lat="44.089534519085866" lon="11.261232286529909"><ele>869.0</ele><time>2026-04-11T12:34:26.001Z</time></trkpt><trkpt lat="44.08958908242691" lon="11.261097966279033"><ele>869.0</ele><time>2026-04-11T12:34:27.001Z</time></trkpt><trkpt lat="44.08963997790867" lon="11.26098464381735"><ele>869.6</ele><time>2026-04-11T12:34:28.001Z</time></trkpt><trkpt lat="44.08969789823913" lon="11.260893958613087"><ele>870.2</ele><time>2026-04-11T12:34:29.001Z</time></trkpt><trkpt lat="44.08974286108038" lon="11.260753629323137"><ele>870.8000000000001</ele><time>2026-04-11T12:34:30.001Z</time></trkpt><trkpt lat="44.08981533834048" lon="11.260703944346687"><ele>871.4000000000001</ele><time>2026-04-11T12:34:31.001Z</time></trkpt><trkpt lat="44.08989533208342" lon="11.260630584181312"><ele>872.0</ele><time>2026-04-11T12:34:32.001Z</time></trkpt><trkpt lat="44.08994578372752" lon="11.260526072779319"><ele>870.4000000000001</ele><time>2026-04-11T12:34:33.001Z</time></trkpt><trkpt lat="44.089943938983" lon="11.260412527301844"><ele>868.8000000000001</ele><time>2026-04-11T12:34:34.001Z</time></trkpt><trkpt lat="44.08995838614117" lon="11.260303963433913"><ele>867.2</ele><time>2026-04-11T12:34:35.001Z</time></trkpt><trkpt lat="44.08992037733379" lon="11.260196251268603"><ele>865.6</ele><time>2026-04-11T12:34:36.001Z</time></trkpt><trkpt lat="44.08988457071931" lon="11.260068887485154"><ele>864.0</ele><time>2026-04-11T12:34:37.001Z</time></trkpt><trkpt lat="44.08980381863571" lon="11.259940697474768"><ele>864.0</ele><time>2026-04-11T12:34:38.001Z</time></trkpt><trkpt lat="44.089716742833836" lon="11.25982704849129"><ele>864.0</ele><time>2026-04-11T12:34:39.001Z</time></trkpt><trkpt lat="44.08962767582335" lon="11.259722430828914"><ele>864.0</ele><time>2026-04-11T12:34:40.001Z</time></trkpt><trkpt lat="44.089532370734275" lon="11.259625882456465"><ele>864.0</ele><time>2026-04-11T12:34:41.001Z</time></trkpt><trkpt lat="44.08943956148574" lon="11.259535135971875"><ele>861.6</ele><time>2026-04-11T12:34:42.001Z</time></trkpt><trkpt lat="44.08934556557669" lon="11.25945582178076"><ele>859.2</ele><time>2026-04-11T12:34:43.001Z</time></trkpt><trkpt lat="44.089269724143136" lon="11.259353671114521"><ele>856.8000000000001</ele><time>2026-04-11T12:34:44.001Z</time></trkpt><trkpt lat="44.08921025343349" lon="11.259258004240534"><ele>854.4000000000001</ele><time>2026-04-11T12:34:45.001Z</time></trkpt><trkpt lat="44.08915729317238" lon="11.25915476421773"><ele>852.0</ele><time>2026-04-11T12:34:46.001Z</time></trkpt><trkpt lat="44.089122538304075" lon="11.259041378791729"><ele>850.4000000000001</ele><time>2026-04-11T12:34:47.001Z</time></trkpt><trkpt lat="44.08910312179644" lon="11.258928779470923"><ele>848.8000000000001</ele><time>2026-04-11T12:34:48.001Z</time></trkpt><trkpt lat="44.089096951614586" lon="11.258785596961044"><ele>847.2</ele><time>2026-04-11T12:34:49.001Z</time></trkpt><trkpt lat="44.08905991712118" lon="11.25865407482874"><ele>845.6</ele><time>2026-04-11T12:34:50.001Z</time></trkpt><trkpt lat="44.08904452718406" lon="11.258515333538345"><ele>844.0</ele><time>2026-04-11T12:34:51.001Z</time></trkpt><trkpt lat="44.08905811649033" lon="11.258391943538577"><ele>843.8333333333333</ele><time>2026-04-11T12:34:52.002Z</time></trkpt><trkpt lat="44.089038743788755" lon="11.25828674588993"><ele>843.6666666666666</ele><time>2026-04-11T12:34:53.002Z</time></trkpt><trkpt lat="44.08902494416818" lon="11.25818040249932"><ele>843.5</ele><time>2026-04-11T12:34:54.002Z</time></trkpt><trkpt lat="44.089012796851115" lon="11.258064873537089"><ele>843.3333333333333</ele><time>2026-04-11T12:34:55.002Z</time></trkpt><trkpt lat="44.088987285652635" lon="11.257945476502256"><ele>843.1666666666666</ele><time>2026-04-11T12:34:56.002Z</time></trkpt><trkpt lat="44.08897834261371" lon="11.257821805839532"><ele>843.0</ele><time>2026-04-11T12:34:57.002Z</time></trkpt><trkpt lat="44.08895864705432" lon="11.257690690966108"><ele>839.8</ele><time>2026-04-11T12:34:58.002Z</time></trkpt><trkpt lat="44.088935860055244" lon="11.257555301391703"><ele>836.5999999999999</ele><time>2026-04-11T12:34:59.002Z</time></trkpt><trkpt lat="44.088921058942184" lon="11.257423162313037"><ele>833.4000000000001</ele><time>2026-04-11T12:35:00.002Z</time></trkpt><trkpt lat="44.08894552109039" lon="11.257253589261744"><ele>830.2</ele><time>2026-04-11T12:35:01.002Z</time></trkpt><trkpt lat="44.08900402658919" lon="11.25709671557909"><ele>827.0</ele><time>2026-04-11T12:35:02.002Z</time></trkpt><trkpt lat="44.089051674541054" lon="11.256940915955608"><ele>825.0</ele><time>2026-04-11T12:35:03.002Z</time></trkpt><trkpt lat="44.08907228280347" lon="11.256781386130614"><ele>823.0</ele><time>2026-04-11T12:35:04.002Z</time></trkpt><trkpt lat="44.08906766040121" lon="11.256628513354547"><ele>821.0</ele><time>2026-04-11T12:35:05.002Z</time></trkpt><trkpt lat="44.08906900733154" lon="11.256473440822106"><ele>819.0</ele><time>2026-04-11T12:35:06.002Z</time></trkpt><trkpt lat="44.089077671576256" lon="11.256315770623427"><ele>820.0</ele><time>2026-04-11T12:35:07.002Z</time></trkpt><trkpt lat="44.08909680071425" lon="11.256177180373822"><ele>821.0</ele><time>2026-04-11T12:35:08.002Z</time></trkpt><trkpt lat="44.08912695372579" lon="11.256030461312363"><ele>822.0</ele><time>2026-04-11T12:35:09.002Z</time></trkpt><trkpt lat="44.08915945096713" lon="11.25588282589093"><ele>823.0</ele><time>2026-04-11T12:35:10.002Z</time></trkpt><trkpt lat="44.089192439164776" lon="11.255747985531908"><ele>824.0</ele><time>2026-04-11T12:35:11.002Z</time></trkpt><trkpt lat="44.08922296725518" lon="11.255633384092821"><ele>822.8000000000001</ele><time>2026-04-11T12:35:12.002Z</time></trkpt><trkpt lat="44.08926832395099" lon="11.255513266626672"><ele>821.6</ele><time>2026-04-11T12:35:13.002Z</time></trkpt><trkpt lat="44.08931261167201" lon="11.25538319179109"><ele>820.4</ele><time>2026-04-11T12:35:14.002Z</time></trkpt><trkpt lat="44.08937833758899" lon="11.25525824508611"><ele>819.2</ele><time>2026-04-11T12:35:15.002Z</time></trkpt><trkpt lat="44.0894396646128" lon="11.255140755571347"><ele>818.0</ele><time>2026-04-11T12:35:16.002Z</time></trkpt><trkpt lat="44.089492160692174" lon="11.255036007873173"><ele>818.0</ele><time>2026-04-11T12:35:17.002Z</time></trkpt><trkpt lat="44.089539190376826" lon="11.254931821021371"><ele>818.0</ele><time>2026-04-11T12:35:18.002Z</time></trkpt><trkpt lat="44.08958363512257" lon="11.254828479491627"><ele>818.0</ele><time>2026-04-11T12:35:19.002Z</time></trkpt><trkpt lat="44.08962766891378" lon="11.25471038070386"><ele>818.0</ele><time>2026-04-11T12:35:20.002Z</time></trkpt><trkpt lat="44.08966598001723" lon="11.254589777937154"><ele>818.0</ele><time>2026-04-11T12:35:21Z</time></trkpt><trkpt lat="44.089703425469295" lon="11.254473890741739"><ele>816.2</ele><time>2026-04-11T12:35:21.999Z</time></trkpt><trkpt lat="44.08974136231229" lon="11.254369468478172"><ele>814.4</ele><time>2026-04-11T12:35:22.999Z</time></trkpt><trkpt lat="44.08977531817302" lon="11.25425308511198"><ele>812.6</ele><time>2026-04-11T12:35:24Z</time></trkpt><trkpt lat="44.08980165135928" lon="11.25413029698798"><ele>810.8000000000001</ele><time>2026-04-11T12:35:25Z</time></trkpt><trkpt lat="44.08983917408791" lon="11.253993709096875"><ele>809.0</ele><time>2026-04-11T12:35:26Z</time></trkpt><trkpt lat="44.08986289115442" lon="11.253850232615829"><ele>807.8000000000001</ele><time>2026-04-11T12:35:27Z</time></trkpt><trkpt lat="44.089877286393815" lon="11.253709005871487"><ele>806.6</ele><time>2026-04-11T12:35:27.999Z</time></trkpt><trkpt lat="44.08988261474213" lon="11.253584420662463"><ele>805.4</ele><time>2026-04-11T12:35:28.999Z</time></trkpt><trkpt lat="44.08988449781875" lon="11.253459051149326"><ele>804.2</ele><time>2026-04-11T12:35:30Z</time></trkpt><trkpt lat="44.08987759039104" lon="11.25333331211203"><ele>803.0</ele><time>2026-04-11T12:35:31Z</time></trkpt><trkpt lat="44.08985604464751" lon="11.253211509858692"><ele>802.6666666666667</ele><time>2026-04-11T12:35:32Z</time></trkpt><trkpt lat="44.089825017009346" lon="11.253099512610875"><ele>802.3333333333334</ele><time>2026-04-11T12:35:32.999Z</time></trkpt><trkpt lat="44.089778853590026" lon="11.252993142748824"><ele>802.0</ele><time>2026-04-11T12:35:33.999Z</time></trkpt><trkpt lat="44.089753407996064" lon="11.252897960384955"><ele>801.6666666666667</ele><time>2026-04-11T12:35:35Z</time></trkpt><trkpt lat="44.08971942439816" lon="11.252810061424771"><ele>801.3333333333334</ele><time>2026-04-11T12:35:36Z</time></trkpt><trkpt lat="44.089688410625804" lon="11.25271089294729"><ele>801.0</ele><time>2026-04-11T12:35:37Z</time></trkpt><trkpt lat="44.089658987472305" lon="11.252620816324768"><ele>801.0</ele><time>2026-04-11T12:35:38Z</time></trkpt><trkpt lat="44.08964238754745" lon="11.252516514779924"><ele>801.0</ele><time>2026-04-11T12:35:39Z</time></trkpt><trkpt lat="44.089647066594566" lon="11.252417375030864"><ele>801.0</ele><time>2026-04-11T12:35:40Z</time></trkpt><trkpt lat="44.08965566959611" lon="11.252295360225027"><ele>801.0</ele><time>2026-04-11T12:35:41Z</time></trkpt><trkpt lat="44.089687602842794" lon="11.252172528440868"><ele>801.0</ele><time>2026-04-11T12:35:42Z</time></trkpt><trkpt lat="44.08972243663635" lon="11.252056298944266"><ele>801.0</ele><time>2026-04-11T12:35:43Z</time></trkpt><trkpt lat="44.089753954152854" lon="11.251942981766835"><ele>801.1999999999999</ele><time>2026-04-11T12:35:44Z</time></trkpt><trkpt lat="44.08979797328097" lon="11.25185684675272"><ele>801.4</ele><time>2026-04-11T12:35:45Z</time></trkpt><trkpt lat="44.0898378812593" lon="11.25171802889557"><ele>801.6</ele><time>2026-04-11T12:35:47Z</time></trkpt><trkpt lat="44.08991009318661" lon="11.251610463295842"><ele>801.8</ele><time>2026-04-11T12:35:51Z</time></trkpt><trkpt lat="44.08995884814535" lon="11.251489901057278"><ele>802.0</ele><time>2026-04-11T12:35:53Z</time></trkpt><trkpt lat="44.0899788662673" lon="11.25136040851196"><ele>802.1666666666666</ele><time>2026-04-11T12:35:55Z</time></trkpt><trkpt lat="44.08994486940213" lon="11.251259757087348"><ele>802.3333333333333</ele><time>2026-04-11T12:35:56Z</time></trkpt><trkpt lat="44.089906862250196" lon="11.251149650020885"><ele>802.5</ele><time>2026-04-11T12:35:57Z</time></trkpt><trkpt lat="44.08985312853565" lon="11.251045400705905"><ele>802.6666666666667</ele><time>2026-04-11T12:35:58Z</time></trkpt><trkpt lat="44.08977998969674" lon="11.250940783519322"><ele>802.8333333333334</ele><time>2026-04-11T12:35:59Z</time></trkpt><trkpt lat="44.089720126251954" lon="11.250890638005721"><ele>803.0</ele><time>2026-04-11T12:36:00Z</time></trkpt><trkpt lat="44.0896180629394" lon="11.25082028602729"><ele>802.3333333333334</ele><time>2026-04-11T12:36:01Z</time></trkpt><trkpt lat="44.08948021864862" lon="11.250766859513652"><ele>801.6666666666667</ele><time>2026-04-11T12:36:02Z</time></trkpt><trkpt lat="44.08933349424451" lon="11.250692978796208"><ele>801.0</ele><time>2026-04-11T12:36:03Z</time></trkpt><trkpt lat="44.08919659834608" lon="11.25058653191181"><ele>800.25</ele><time>2026-04-11T12:36:04Z</time></trkpt><trkpt lat="44.08909126382668" lon="11.25048443914906"><ele>799.5</ele><time>2026-04-11T12:36:05Z</time></trkpt><trkpt lat="44.088953777495675" lon="11.250372820192258"><ele>798.75</ele><time>2026-04-11T12:36:06Z</time></trkpt><trkpt lat="44.088828321530876" lon="11.250285460479372"><ele>798.0</ele><time>2026-04-11T12:36:07Z</time></trkpt><trkpt lat="44.08870752437608" lon="11.250206656742112"><ele>798.0</ele><time>2026-04-11T12:36:08Z</time></trkpt><trkpt lat="44.08859833789162" lon="11.250093736895774"><ele>798.0</ele><time>2026-04-11T12:36:09Z</time></trkpt><trkpt lat="44.08849729223554" lon="11.250035202118875"><ele>798.0</ele><time>2026-04-11T12:36:10Z</time></trkpt><trkpt lat="44.0883766189733" lon="11.249990097592992"><ele>798.0</ele><time>2026-04-11T12:36:11Z</time></trkpt><trkpt lat="44.08827556214706" lon="11.249914853731795"><ele>798.2</ele><time>2026-04-11T12:36:12Z</time></trkpt><trkpt lat="44.088185507960596" lon="11.249858395555192"><ele>798.4</ele><time>2026-04-11T12:36:13Z</time></trkpt><trkpt lat="44.088085638517704" lon="11.249810536600426"><ele>798.6</ele><time>2026-04-11T12:36:14Z</time></trkpt><trkpt lat="44.087979160276426" lon="11.249767588565476"><ele>798.8000000000001</ele><time>2026-04-11T12:36:15Z</time></trkpt><trkpt lat="44.08789507518248" lon="11.249726968047762"><ele>799.0</ele><time>2026-04-11T12:36:16Z</time></trkpt><trkpt lat="44.087807290208715" lon="11.249658077687464"><ele>798.9999999999999</ele><time>2026-04-11T12:36:17Z</time></trkpt><trkpt lat="44.087724140131755" lon="11.249623092984539"><ele>799.0</ele><time>2026-04-11T12:36:18.001Z</time></trkpt><trkpt lat="44.08764524579182" lon="11.249579276207863"><ele>799.0</ele><time>2026-04-11T12:36:19.001Z</time></trkpt><trkpt lat="44.08757339240889" lon="11.24953651075261"><ele>799.0</ele><time>2026-04-11T12:36:20.001Z</time></trkpt><trkpt lat="44.087488976155804" lon="11.249483945427764"><ele>798.9999999999999</ele><time>2026-04-11T12:36:21.001Z</time></trkpt><trkpt lat="44.08741411134891" lon="11.249446044233725"><ele>799.0</ele><time>2026-04-11T12:36:22.001Z</time></trkpt><trkpt lat="44.08729905792925" lon="11.249378234715742"><ele>796.0</ele><time>2026-04-11T12:36:23.001Z</time></trkpt><trkpt lat="44.08720260602716" lon="11.249359298114243"><ele>793.0</ele><time>2026-04-11T12:36:24.001Z</time></trkpt><trkpt lat="44.08709543028678" lon="11.249338659250146"><ele>790.0</ele><time>2026-04-11T12:36:25.001Z</time></trkpt><trkpt lat="44.0870130713618" lon="11.249302406313108"><ele>787.0</ele><time>2026-04-11T12:36:26.001Z</time></trkpt><trkpt lat="44.0869174499609" lon="11.2492708261313"><ele>784.0</ele><time>2026-04-11T12:36:27.001Z</time></trkpt><trkpt lat="44.08682606309367" lon="11.249246106293548"><ele>784.0</ele><time>2026-04-11T12:36:28.001Z</time></trkpt><trkpt lat="44.08673141848967" lon="11.249222716792675"><ele>784.0</ele><time>2026-04-11T12:36:29.001Z</time></trkpt><trkpt lat="44.08664344586712" lon="11.249178305404927"><ele>784.0</ele><time>2026-04-11T12:36:30.001Z</time></trkpt><trkpt lat="44.08655606392973" lon="11.249120011253302"><ele>784.0</ele><time>2026-04-11T12:36:31.001Z</time></trkpt><trkpt lat="44.08648327028951" lon="11.24904957517983"><ele>784.0</ele><time>2026-04-11T12:36:32.001Z</time></trkpt><trkpt lat="44.08642259215787" lon="11.24894842887081"><ele>779.6</ele><time>2026-04-11T12:36:33.001Z</time></trkpt><trkpt lat="44.08639120234132" lon="11.248838216882193"><ele>775.2</ele><time>2026-04-11T12:36:34.001Z</time></trkpt><trkpt lat="44.086395071721675" lon="11.2486621182488"><ele>770.8000000000001</ele><time>2026-04-11T12:36:36.001Z</time></trkpt><trkpt lat="44.08641791972594" lon="11.248549402122698"><ele>766.4000000000001</ele><time>2026-04-11T12:36:37.001Z</time></trkpt><trkpt lat="44.086443905055404" lon="11.248438386877382"><ele>762.0</ele><time>2026-04-11T12:36:38.001Z</time></trkpt><trkpt lat="44.08647247246965" lon="11.248340375960328"><ele>762.0</ele><time>2026-04-11T12:36:39.001Z</time></trkpt><trkpt lat="44.08647891698278" lon="11.248214259891167"><ele>762.0</ele><time>2026-04-11T12:36:40.001Z</time></trkpt><trkpt lat="44.08647474349845" lon="11.248104617009025"><ele>762.0</ele><time>2026-04-11T12:36:41.001Z</time></trkpt><trkpt lat="44.08647108714143" lon="11.248004314769064"><ele>762.0</ele><time>2026-04-11T12:36:42.001Z</time></trkpt><trkpt lat="44.08646090997748" lon="11.247909808161111"><ele>762.0</ele><time>2026-04-11T12:36:43.001Z</time></trkpt><trkpt lat="44.08643910718567" lon="11.247774053899207"><ele>762.0</ele><time>2026-04-11T12:36:44.001Z</time></trkpt><trkpt lat="44.08642721324611" lon="11.247658334960319"><ele>762.2</ele><time>2026-04-11T12:36:45.001Z</time></trkpt><trkpt lat="44.086415573233474" lon="11.247530225097048"><ele>762.4000000000001</ele><time>2026-04-11T12:36:46.001Z</time></trkpt><trkpt lat="44.08642480821129" lon="11.247399124721115"><ele>762.5999999999999</ele><time>2026-04-11T12:36:47.001Z</time></trkpt><trkpt lat="44.08643945202589" lon="11.247258099338726"><ele>762.8</ele><time>2026-04-11T12:36:48.001Z</time></trkpt><trkpt lat="44.08644264432123" lon="11.24711106750602"><ele>763.0</ele><time>2026-04-11T12:36:49.001Z</time></trkpt><trkpt lat="44.086432247422884" lon="11.246964396484673"><ele>763.5</ele><time>2026-04-11T12:36:50.001Z</time></trkpt><trkpt lat="44.08641137343794" lon="11.246837623679214"><ele>764.0</ele><time>2026-04-11T12:36:51.001Z</time></trkpt><trkpt lat="44.08637060116459" lon="11.246734487163799"><ele>764.5</ele><time>2026-04-11T12:36:52.001Z</time></trkpt><trkpt lat="44.08630813383935" lon="11.246663897570667"><ele>765.0</ele><time>2026-04-11T12:36:53.001Z</time></trkpt><trkpt lat="44.0862439991008" lon="11.246622661861775"><ele>765.5</ele><time>2026-04-11T12:36:54.001Z</time></trkpt><trkpt lat="44.08614470555652" lon="11.246606764540886"><ele>766.0</ele><time>2026-04-11T12:36:56.001Z</time></trkpt><trkpt lat="44.08604808364737" lon="11.246617541325643"><ele>766.0</ele><time>2026-04-11T12:36:58.001Z</time></trkpt><trkpt lat="44.08597555820869" lon="11.246611559229978"><ele>766.0</ele><time>2026-04-11T12:37:00.001Z</time></trkpt><trkpt lat="44.08590048102131" lon="11.246568752056612"><ele>766.0</ele><time>2026-04-11T12:37:03.001Z</time></trkpt><trkpt lat="44.085844583384485" lon="11.246525357209666"><ele>766.0</ele><time>2026-04-11T12:37:57Z</time></trkpt><trkpt lat="44.085776086828325" lon="11.24645994910266"><ele>766.0</ele><time>2026-04-11T12:37:59Z</time></trkpt><trkpt lat="44.085709687087856" lon="11.24635920599137"><ele>766.0</ele><time>2026-04-11T12:38:01Z</time></trkpt><trkpt lat="44.0856689919831" lon="11.24627641581718"><ele>765.0</ele><time>2026-04-11T12:38:02Z</time></trkpt><trkpt lat="44.08562170999714" lon="11.246183147823977"><ele>764.0</ele><time>2026-04-11T12:38:03Z</time></trkpt><trkpt lat="44.08557958761032" lon="11.246085569987574"><ele>763.0</ele><time>2026-04-11T12:38:04Z</time></trkpt><trkpt lat="44.085555494942135" lon="11.245976236947337"><ele>762.0</ele><time>2026-04-11T12:38:05Z</time></trkpt><trkpt lat="44.08553992650268" lon="11.245875127788894"><ele>761.0</ele><time>2026-04-11T12:38:06Z</time></trkpt><trkpt lat="44.08553879294195" lon="11.245765803959616"><ele>760.0</ele><time>2026-04-11T12:38:07Z</time></trkpt><trkpt lat="44.08555205909091" lon="11.245662382354935"><ele>760.6666666666667</ele><time>2026-04-11T12:38:08Z</time></trkpt><trkpt lat="44.08558295826326" lon="11.245554735853467"><ele>761.3333333333334</ele><time>2026-04-11T12:38:09Z</time></trkpt><trkpt lat="44.085629102331055" lon="11.245460729786743"><ele>762.0</ele><time>2026-04-11T12:38:10Z</time></trkpt><trkpt lat="44.08568418325224" lon="11.2453765786638"><ele>762.6666666666666</ele><time>2026-04-11T12:38:11Z</time></trkpt><trkpt lat="44.085762480529034" lon="11.245306844032829"><ele>763.3333333333333</ele><time>2026-04-11T12:38:12.001Z</time></trkpt><trkpt lat="44.08583352116556" lon="11.245221782496802"><ele>764.0</ele><time>2026-04-11T12:38:13.001Z</time></trkpt><trkpt lat="44.08589831922177" lon="11.245135422816025"><ele>764.0</ele><time>2026-04-11T12:38:14.001Z</time></trkpt><trkpt lat="44.08594377936654" lon="11.245017582593416"><ele>764.0</ele><time>2026-04-11T12:38:15.001Z</time></trkpt><trkpt lat="44.08598115488431" lon="11.244903903622461"><ele>764.0</ele><time>2026-04-11T12:38:16.001Z</time></trkpt><trkpt lat="44.085991711631266" lon="11.244772903152331"><ele>764.0</ele><time>2026-04-11T12:38:17.001Z</time></trkpt><trkpt lat="44.0859728835218" lon="11.244643185922643"><ele>764.0</ele><time>2026-04-11T12:38:18.001Z</time></trkpt><trkpt lat="44.085949662860095" lon="11.244507390094496"><ele>764.25</ele><time>2026-04-11T12:38:19.001Z</time></trkpt><trkpt lat="44.08590727404584" lon="11.244343506851008"><ele>764.5</ele><time>2026-04-11T12:38:20.001Z</time></trkpt><trkpt lat="44.085879764722044" lon="11.24415571515809"><ele>764.75</ele><time>2026-04-11T12:38:21.001Z</time></trkpt><trkpt lat="44.085842654799606" lon="11.243980058787685"><ele>765.0</ele><time>2026-04-11T12:38:22.001Z</time></trkpt><trkpt lat="44.08580703708615" lon="11.24381146563899"><ele>766.8</ele><time>2026-04-11T12:38:23.001Z</time></trkpt><trkpt lat="44.085766236658735" lon="11.243658734582688"><ele>768.6</ele><time>2026-04-11T12:38:24.001Z</time></trkpt><trkpt lat="44.085737269713675" lon="11.243521778265544"><ele>770.4000000000001</ele><time>2026-04-11T12:38:25.001Z</time></trkpt><trkpt lat="44.08569220394238" lon="11.243416479461857"><ele>772.2</ele><time>2026-04-11T12:38:26.001Z</time></trkpt><trkpt lat="44.085628647538776" lon="11.243327331439646"><ele>774.0</ele><time>2026-04-11T12:38:27.001Z</time></trkpt><trkpt lat="44.08552956711512" lon="11.243287517392748"><ele>768.75</ele><time>2026-04-11T12:38:28.001Z</time></trkpt><trkpt lat="44.08541680378769" lon="11.243273192224192"><ele>763.5</ele><time>2026-04-11T12:38:29.001Z</time></trkpt><trkpt lat="44.085300951470444" lon="11.243228555668859"><ele>758.25</ele><time>2026-04-11T12:38:30.001Z</time></trkpt><trkpt lat="44.08517484515286" lon="11.243208374134085"><ele>753.0</ele><time>2026-04-11T12:38:31.001Z</time></trkpt><trkpt lat="44.08505263753899" lon="11.24321015484489"><ele>753.0</ele><time>2026-04-11T12:38:32.001Z</time></trkpt><trkpt lat="44.08494696495593" lon="11.243175624202925"><ele>753.0</ele><time>2026-04-11T12:38:33.001Z</time></trkpt><trkpt lat="44.084843878021914" lon="11.243136620689278"><ele>753.0</ele><time>2026-04-11T12:38:34.001Z</time></trkpt><trkpt lat="44.08475171430152" lon="11.243075949004236"><ele>753.0</ele><time>2026-04-11T12:38:35.001Z</time></trkpt><trkpt lat="44.08468010156132" lon="11.24298626916755"><ele>753.0</ele><time>2026-04-11T12:38:36.001Z</time></trkpt><trkpt lat="44.084640904659715" lon="11.242871150010734"><ele>753.4</ele><time>2026-04-11T12:38:37.001Z</time></trkpt><trkpt lat="44.08462026073157" lon="11.242715871881831"><ele>753.8</ele><time>2026-04-11T12:38:38.001Z</time></trkpt><trkpt lat="44.084623304924165" lon="11.242566283812023"><ele>754.2</ele><time>2026-04-11T12:38:39.001Z</time></trkpt><trkpt lat="44.08462981029781" lon="11.242434107711187"><ele>754.6</ele><time>2026-04-11T12:38:40.001Z</time></trkpt><trkpt lat="44.08462263298131" lon="11.242309383979652"><ele>755.0</ele><time>2026-04-11T12:38:41.001Z</time></trkpt><trkpt lat="44.084592166245926" lon="11.242180098492328"><ele>755.0</ele><time>2026-04-11T12:38:42.001Z</time></trkpt><trkpt lat="44.084540154358784" lon="11.242063607804603"><ele>755.0</ele><time>2026-04-11T12:38:43.001Z</time></trkpt><trkpt lat="44.0844373188187" lon="11.241985593025625"><ele>755.0</ele><time>2026-04-11T12:38:44.001Z</time></trkpt><trkpt lat="44.084296740684906" lon="11.241941601577954"><ele>755.0</ele><time>2026-04-11T12:38:45.001Z</time></trkpt><trkpt lat="44.084124087208906" lon="11.24193749296778"><ele>750.3333333333333</ele><time>2026-04-11T12:38:46.001Z</time></trkpt><trkpt lat="44.083931274271805" lon="11.241902041479204"><ele>745.6666666666666</ele><time>2026-04-11T12:38:47.001Z</time></trkpt><trkpt lat="44.08374605709597" lon="11.241814310987793"><ele>741.0</ele><time>2026-04-11T12:38:48.001Z</time></trkpt><trkpt lat="44.08354233998561" lon="11.241697128932229"><ele>741.0</ele><time>2026-04-11T12:38:49.001Z</time></trkpt><trkpt lat="44.083340000825494" lon="11.241531204676882"><ele>741.0</ele><time>2026-04-11T12:38:50.001Z</time></trkpt><trkpt lat="44.0831292637944" lon="11.241402638250584"><ele>738.0</ele><time>2026-04-11T12:38:51.001Z</time></trkpt><trkpt lat="44.08295759875471" lon="11.241259220336275"><ele>735.0</ele><time>2026-04-11T12:38:52.001Z</time></trkpt><trkpt lat="44.08281150865234" lon="11.241130902044011"><ele>732.0</ele><time>2026-04-11T12:38:53.001Z</time></trkpt><trkpt lat="44.08268843753599" lon="11.24100341701715"><ele>732.0</ele><time>2026-04-11T12:38:54.001Z</time></trkpt><trkpt lat="44.082577770795375" lon="11.24088198607213"><ele>732.0</ele><time>2026-04-11T12:38:55.001Z</time></trkpt><trkpt lat="44.082510407658305" lon="11.240733936403194"><ele>732.0</ele><time>2026-04-11T12:38:56.001Z</time></trkpt><trkpt lat="44.08249656849044" lon="11.240590165016974"><ele>732.0</ele><time>2026-04-11T12:38:57.001Z</time></trkpt><trkpt lat="44.08253013030898" lon="11.24043449461289"><ele>731.0</ele><time>2026-04-11T12:38:58.001Z</time></trkpt><trkpt lat="44.08256588061291" lon="11.240318341159185"><ele>730.0</ele><time>2026-04-11T12:38:59.001Z</time></trkpt><trkpt lat="44.08264095301423" lon="11.24017102709074"><ele>729.0</ele><time>2026-04-11T12:39:00.001Z</time></trkpt><trkpt lat="44.082722453595004" lon="11.239996532232192"><ele>728.0</ele><time>2026-04-11T12:39:01.001Z</time></trkpt><trkpt lat="44.08275023630422" lon="11.239821425733199"><ele>725.75</ele><time>2026-04-11T12:39:02.002Z</time></trkpt><trkpt lat="44.0827569795323" lon="11.239630061619312"><ele>723.5</ele><time>2026-04-11T12:39:03.002Z</time></trkpt><trkpt lat="44.082782875102595" lon="11.239460437712912"><ele>721.25</ele><time>2026-04-11T12:39:04.002Z</time></trkpt><trkpt lat="44.082821491657796" lon="11.239301417466109"><ele>719.0</ele><time>2026-04-11T12:39:05.002Z</time></trkpt><trkpt lat="44.082883896726045" lon="11.239158726497825"><ele>719.0</ele><time>2026-04-11T12:39:06.002Z</time></trkpt><trkpt lat="44.0829799983238" lon="11.239057196590702"><ele>719.0</ele><time>2026-04-11T12:39:07.002Z</time></trkpt><trkpt lat="44.08308464994821" lon="11.238992576778562"><ele>719.0</ele><time>2026-04-11T12:39:08.002Z</time></trkpt><trkpt lat="44.083197689933534" lon="11.238961393681654"><ele>719.0</ele><time>2026-04-11T12:39:09.002Z</time></trkpt><trkpt lat="44.08330476974381" lon="11.238892270782047"><ele>719.5</ele><time>2026-04-11T12:39:10.002Z</time></trkpt><trkpt lat="44.083422687035494" lon="11.238868905951072"><ele>720.0</ele><time>2026-04-11T12:39:11.002Z</time></trkpt><trkpt lat="44.08352867860195" lon="11.238810977880197"><ele>720.5</ele><time>2026-04-11T12:39:12.002Z</time></trkpt><trkpt lat="44.08363369582176" lon="11.238756479530775"><ele>721.0</ele><time>2026-04-11T12:39:13.002Z</time></trkpt><trkpt lat="44.08373573654117" lon="11.238689555514922"><ele>721.0</ele><time>2026-04-11T12:39:14.002Z</time></trkpt><trkpt lat="44.083841991480284" lon="11.238622350675726"><ele>721.0</ele><time>2026-04-11T12:39:15.002Z</time></trkpt><trkpt lat="44.08394555215279" lon="11.238537327267336"><ele>721.0</ele><time>2026-04-11T12:39:16.002Z</time></trkpt><trkpt lat="44.084054948120105" lon="11.23844599916346"><ele>721.0</ele><time>2026-04-11T12:39:17.002Z</time></trkpt><trkpt lat="44.0841500218257" lon="11.238359729808233"><ele>721.0</ele><time>2026-04-11T12:39:18.002Z</time></trkpt><trkpt lat="44.084247929601666" lon="11.238245918842345"><ele>721.0</ele><time>2026-04-11T12:39:19.002Z</time></trkpt><trkpt lat="44.08435008268303" lon="11.238176734278946"><ele>721.0</ele><time>2026-04-11T12:39:20.002Z</time></trkpt><trkpt lat="44.084451949203036" lon="11.238090902655054"><ele>721.0</ele><time>2026-04-11T12:39:21.002Z</time></trkpt><trkpt lat="44.08455021769906" lon="11.238054202321628"><ele>721.0</ele><time>2026-04-11T12:39:22.002Z</time></trkpt><trkpt lat="44.08465592803811" lon="11.238023403844883"><ele>721.0</ele><time>2026-04-11T12:39:23.002Z</time></trkpt><trkpt lat="44.084771753613246" lon="11.237998862525167"><ele>721.0</ele><time>2026-04-11T12:39:24.002Z</time></trkpt><trkpt lat="44.08488218824879" lon="11.237961801247168"><ele>721.0</ele><time>2026-04-11T12:39:25.002Z</time></trkpt><trkpt lat="44.08499191396501" lon="11.237913860585968"><ele>726.5</ele><time>2026-04-11T12:39:26.002Z</time></trkpt><trkpt lat="44.08509620104534" lon="11.237826633027879"><ele>732.0</ele><time>2026-04-11T12:39:27.002Z</time></trkpt><trkpt lat="44.08518356549693" lon="11.237711385121106"><ele>737.5</ele><time>2026-04-11T12:39:28.002Z</time></trkpt><trkpt lat="44.08525630976447" lon="11.237574295540403"><ele>743.0</ele><time>2026-04-11T12:39:29.002Z</time></trkpt><trkpt lat="44.08532251651168" lon="11.2374407163479"><ele>743.0</ele><time>2026-04-11T12:39:30.002Z</time></trkpt><trkpt lat="44.0853960163322" lon="11.237308392963682"><ele>743.0</ele><time>2026-04-11T12:39:31.002Z</time></trkpt><trkpt lat="44.085467864708264" lon="11.23719434953905"><ele>743.0</ele><time>2026-04-11T12:39:32.002Z</time></trkpt><trkpt lat="44.0855244830073" lon="11.237091042033912"><ele>743.0</ele><time>2026-04-11T12:39:33.001Z</time></trkpt><trkpt lat="44.085574442247434" lon="11.2369772272112"><ele>743.0</ele><time>2026-04-11T12:39:34Z</time></trkpt><trkpt lat="44.08559235820082" lon="11.236842121910612"><ele>743.0</ele><time>2026-04-11T12:39:35Z</time></trkpt><trkpt lat="44.08557732500065" lon="11.236686840492325"><ele>743.0</ele><time>2026-04-11T12:39:36.001Z</time></trkpt><trkpt lat="44.08554521964566" lon="11.23651951936823"><ele>743.0</ele><time>2026-04-11T12:39:37Z</time></trkpt><trkpt lat="44.08550598797101" lon="11.236329455672799"><ele>743.0</ele><time>2026-04-11T12:39:38Z</time></trkpt><trkpt lat="44.08545675279571" lon="11.23614799033296"><ele>744.25</ele><time>2026-04-11T12:39:39.001Z</time></trkpt><trkpt lat="44.08540689348043" lon="11.235964224636907"><ele>745.5</ele><time>2026-04-11T12:39:40.001Z</time></trkpt><trkpt lat="44.08535416051318" lon="11.235767873975382"><ele>746.75</ele><time>2026-04-11T12:39:41.001Z</time></trkpt><trkpt lat="44.08529433329917" lon="11.235579681550456"><ele>748.0</ele><time>2026-04-11T12:39:42.001Z</time></trkpt><trkpt lat="44.08525399126958" lon="11.235373485208141"><ele>751.5</ele><time>2026-04-11T12:39:43Z</time></trkpt><trkpt lat="44.085205489342556" lon="11.23515914097908"><ele>755.0</ele><time>2026-04-11T12:39:44Z</time></trkpt><trkpt lat="44.085163923665654" lon="11.234969957889877"><ele>758.5</ele><time>2026-04-11T12:39:45Z</time></trkpt><trkpt lat="44.08513058398645" lon="11.23479854547657"><ele>762.0</ele><time>2026-04-11T12:39:46.001Z</time></trkpt><trkpt lat="44.085106124342616" lon="11.234629152523812"><ele>762.0</ele><time>2026-04-11T12:39:47.001Z</time></trkpt><trkpt lat="44.0850917469405" lon="11.234459057900171"><ele>762.0</ele><time>2026-04-11T12:39:48.001Z</time></trkpt><trkpt lat="44.085105326848975" lon="11.23428894920537"><ele>762.0</ele><time>2026-04-11T12:39:49.001Z</time></trkpt><trkpt lat="44.085144139012584" lon="11.234115141398478"><ele>762.0</ele><time>2026-04-11T12:39:50.001Z</time></trkpt><trkpt lat="44.085202459690834" lon="11.233932803645494"><ele>762.0</ele><time>2026-04-11T12:39:51.001Z</time></trkpt><trkpt lat="44.085272337856594" lon="11.233759351925226"><ele>762.0</ele><time>2026-04-11T12:39:52.001Z</time></trkpt><trkpt lat="44.08535055393224" lon="11.233579642211618"><ele>762.0</ele><time>2026-04-11T12:39:53.001Z</time></trkpt><trkpt lat="44.085425005225986" lon="11.23339898431626"><ele>762.0</ele><time>2026-04-11T12:39:54.001Z</time></trkpt><trkpt lat="44.08549407331827" lon="11.233215151084197"><ele>762.0</ele><time>2026-04-11T12:39:55.001Z</time></trkpt><trkpt lat="44.08556755732856" lon="11.23303374272829"><ele>762.0</ele><time>2026-04-11T12:39:56.001Z</time></trkpt><trkpt lat="44.08564194729299" lon="11.232858340444315"><ele>762.0</ele><time>2026-04-11T12:39:57.001Z</time></trkpt><trkpt lat="44.08571458737692" lon="11.2326825563442"><ele>762.0</ele><time>2026-04-11T12:39:58.001Z</time></trkpt><trkpt lat="44.08578844574461" lon="11.232508554328522"><ele>765.75</ele><time>2026-04-11T12:39:59.001Z</time></trkpt><trkpt lat="44.085856409779424" lon="11.232338445558407"><ele>769.5</ele><time>2026-04-11T12:40:00.001Z</time></trkpt><trkpt lat="44.08591893037648" lon="11.232178794634354"><ele>773.25</ele><time>2026-04-11T12:40:01.001Z</time></trkpt><trkpt lat="44.085976521014516" lon="11.232021905955227"><ele>777.0</ele><time>2026-04-11T12:40:02.001Z</time></trkpt><trkpt lat="44.08604595245885" lon="11.231869230337796"><ele>777.0</ele><time>2026-04-11T12:40:03.001Z</time></trkpt><trkpt lat="44.0861091334844" lon="11.231702609460067"><ele>777.0</ele><time>2026-04-11T12:40:04.001Z</time></trkpt><trkpt lat="44.086183282462265" lon="11.23153195922399"><ele>777.0</ele><time>2026-04-11T12:40:05.001Z</time></trkpt><trkpt lat="44.08625790152292" lon="11.231354424697676"><ele>777.0</ele><time>2026-04-11T12:40:06.001Z</time></trkpt><trkpt lat="44.08633081342576" lon="11.231172225121211"><ele>775.3333333333333</ele><time>2026-04-11T12:40:07.001Z</time></trkpt><trkpt lat="44.08640686758442" lon="11.230989894165488"><ele>773.6666666666666</ele><time>2026-04-11T12:40:08.001Z</time></trkpt><trkpt lat="44.0864810650342" lon="11.230805746857802"><ele>772.0</ele><time>2026-04-11T12:40:09.001Z</time></trkpt><trkpt lat="44.08655652399862" lon="11.230617791860293"><ele>774.25</ele><time>2026-04-11T12:40:10.001Z</time></trkpt><trkpt lat="44.08663178155029" lon="11.230433960553801"><ele>776.5</ele><time>2026-04-11T12:40:11.001Z</time></trkpt><trkpt lat="44.08671152434303" lon="11.230257475846926"><ele>778.75</ele><time>2026-04-11T12:40:12.001Z</time></trkpt><trkpt lat="44.0867869189207" lon="11.230086446450239"><ele>781.0</ele><time>2026-04-11T12:40:13.001Z</time></trkpt><trkpt lat="44.08685609857777" lon="11.22993397055075"><ele>781.4</ele><time>2026-04-11T12:40:14.001Z</time></trkpt><trkpt lat="44.08691834339935" lon="11.229782024290609"><ele>781.8</ele><time>2026-04-11T12:40:15.001Z</time></trkpt><trkpt lat="44.08698712732843" lon="11.229657366456385"><ele>782.1999999999999</ele><time>2026-04-11T12:40:16.001Z</time></trkpt><trkpt lat="44.08703311186994" lon="11.22953194048309"><ele>782.5999999999999</ele><time>2026-04-11T12:40:17.001Z</time></trkpt><trkpt lat="44.08707477630406" lon="11.229418447347223"><ele>783.0</ele><time>2026-04-11T12:40:18.001Z</time></trkpt><trkpt lat="44.08710782842072" lon="11.229326533496808"><ele>783.0</ele><time>2026-04-11T12:40:19.001Z</time></trkpt><trkpt lat="44.08712412035874" lon="11.229160952754608"><ele>783.0</ele><time>2026-04-11T12:40:21.001Z</time></trkpt><trkpt lat="44.087072146400416" lon="11.228995773056813"><ele>783.0</ele><time>2026-04-11T12:40:23.001Z</time></trkpt><trkpt lat="44.08701955522908" lon="11.228916455106873"><ele>783.0</ele><time>2026-04-11T12:40:24.001Z</time></trkpt><trkpt lat="44.0869537263818" lon="11.228828646993149"><ele>783.0</ele><time>2026-04-11T12:40:25.001Z</time></trkpt><trkpt lat="44.08688853951095" lon="11.228749494591542"><ele>783.4</ele><time>2026-04-11T12:40:26.001Z</time></trkpt><trkpt lat="44.08681037694971" lon="11.228668413980575"><ele>783.8</ele><time>2026-04-11T12:40:27.001Z</time></trkpt><trkpt lat="44.0867356270861" lon="11.228588553953832"><ele>784.2</ele><time>2026-04-11T12:40:28.001Z</time></trkpt><trkpt lat="44.08666029279311" lon="11.228505349732213"><ele>784.6</ele><time>2026-04-11T12:40:29.001Z</time></trkpt><trkpt lat="44.086585988084245" lon="11.228411482022693"><ele>785.0</ele><time>2026-04-11T12:40:30.001Z</time></trkpt><trkpt lat="44.08651041258151" lon="11.228312504367409"><ele>785.0</ele><time>2026-04-11T12:40:31.001Z</time></trkpt><trkpt lat="44.08644207472964" lon="11.228210666204314"><ele>785.0</ele><time>2026-04-11T12:40:32.001Z</time></trkpt><trkpt lat="44.0863746408083" lon="11.228120708198393"><ele>785.0</ele><time>2026-04-11T12:40:33.001Z</time></trkpt><trkpt lat="44.086294918411895" lon="11.22804019703506"><ele>785.0</ele><time>2026-04-11T12:40:34.001Z</time></trkpt><trkpt lat="44.08621542108595" lon="11.228004219581628"><ele>785.0</ele><time>2026-04-11T12:40:35.001Z</time></trkpt><trkpt lat="44.08612552258929" lon="11.228018294123116"><ele>786.0</ele><time>2026-04-11T12:40:36.001Z</time></trkpt><trkpt lat="44.08602828288764" lon="11.228071624948832"><ele>787.0</ele><time>2026-04-11T12:40:37.001Z</time></trkpt><trkpt lat="44.08594820699499" lon="11.228088083766394"><ele>788.0</ele><time>2026-04-11T12:40:38.001Z</time></trkpt><trkpt lat="44.08587679951368" lon="11.228087184072274"><ele>789.0</ele><time>2026-04-11T12:40:39.001Z</time></trkpt><trkpt lat="44.085777130000444" lon="11.2280566415369"><ele>790.0</ele><time>2026-04-11T12:40:40.001Z</time></trkpt><trkpt lat="44.085656311876384" lon="11.228011101467223"><ele>790.0</ele><time>2026-04-11T12:40:41.001Z</time></trkpt><trkpt lat="44.08553145330623" lon="11.227951623452118"><ele>790.0</ele><time>2026-04-11T12:40:42.001Z</time></trkpt><trkpt lat="44.0854160865937" lon="11.22791663443998"><ele>790.0</ele><time>2026-04-11T12:40:43.001Z</time></trkpt><trkpt lat="44.085299732297514" lon="11.227869623138115"><ele>790.0</ele><time>2026-04-11T12:40:44.001Z</time></trkpt><trkpt lat="44.08523460475037" lon="11.227801178568384"><ele>790.0</ele><time>2026-04-11T12:40:45.002Z</time></trkpt><trkpt lat="44.08514765380463" lon="11.227766979061604"><ele>790.0</ele><time>2026-04-11T12:40:46.002Z</time></trkpt><trkpt lat="44.08507940420155" lon="11.227812831838335"><ele>790.0</ele><time>2026-04-11T12:40:47.002Z</time></trkpt><trkpt lat="44.08503745864354" lon="11.227983963954891"><ele>790.0</ele><time>2026-04-11T12:40:48.002Z</time></trkpt><trkpt lat="44.08499581932159" lon="11.228091954286755"><ele>790.0</ele><time>2026-04-11T12:40:49.002Z</time></trkpt><trkpt lat="44.084951174539526" lon="11.228164347286038"><ele>787.4</ele><time>2026-04-11T12:40:50.002Z</time></trkpt><trkpt lat="44.08489410493607" lon="11.22827438402567"><ele>784.8</ele><time>2026-04-11T12:40:52.002Z</time></trkpt><trkpt lat="44.08476640183763" lon="11.228302758854742"><ele>782.2</ele><time>2026-04-11T12:40:54.002Z</time></trkpt><trkpt lat="44.08469463304621" lon="11.228253030481127"><ele>779.6</ele><time>2026-04-11T12:40:56.002Z</time></trkpt><trkpt lat="44.08459082820971" lon="11.228157723661484"><ele>777.0</ele><time>2026-04-11T12:40:58.002Z</time></trkpt><trkpt lat="44.08448757641402" lon="11.228103945322022"><ele>777.0</ele><time>2026-04-11T12:40:59.002Z</time></trkpt><trkpt lat="44.08445341990335" lon="11.227992311680692"><ele>777.0</ele><time>2026-04-11T12:41:00.002Z</time></trkpt><trkpt lat="44.08441493873192" lon="11.227862195289251"><ele>777.0</ele><time>2026-04-11T12:41:01.002Z</time></trkpt><trkpt lat="44.084392033094936" lon="11.227726304686389"><ele>777.0</ele><time>2026-04-11T12:41:02.002Z</time></trkpt><trkpt lat="44.084383492501715" lon="11.227597298249675"><ele>777.0</ele><time>2026-04-11T12:41:03.002Z</time></trkpt><trkpt lat="44.08437764001465" lon="11.227504960888687"><ele>777.0</ele><time>2026-04-11T12:41:04.002Z</time></trkpt><trkpt lat="44.08435308190581" lon="11.227342595431585"><ele>777.6</ele><time>2026-04-11T12:41:06.002Z</time></trkpt><trkpt lat="44.08427483156621" lon="11.227254526662655"><ele>778.2</ele><time>2026-04-11T12:41:08.002Z</time></trkpt><trkpt lat="44.08420730774194" lon="11.227198960214661"><ele>778.8</ele><time>2026-04-11T12:41:09.002Z</time></trkpt><trkpt lat="44.084089883868884" lon="11.227121777625797"><ele>779.4</ele><time>2026-04-11T12:41:11.002Z</time></trkpt><trkpt lat="44.08398103238199" lon="11.227069080267897"><ele>780.0</ele><time>2026-04-11T12:41:13.002Z</time></trkpt><trkpt lat="44.083926140876386" lon="11.22699613172259"><ele>780.0</ele><time>2026-04-11T12:41:14.002Z</time></trkpt><trkpt lat="44.083871982175786" lon="11.226939944458403"><ele>780.0</ele><time>2026-04-11T12:41:15.002Z</time></trkpt><trkpt lat="44.08382322289978" lon="11.226836748093511"><ele>780.0</ele><time>2026-04-11T12:41:16.002Z</time></trkpt><trkpt lat="44.08374554080823" lon="11.226747145490542"><ele>780.0</ele><time>2026-04-11T12:41:17.002Z</time></trkpt><trkpt lat="44.08366458721051" lon="11.226689414199448"><ele>780.0</ele><time>2026-04-11T12:41:18.002Z</time></trkpt><trkpt lat="44.08357299817846" lon="11.226646146767782"><ele>780.0</ele><time>2026-04-11T12:41:19.002Z</time></trkpt><trkpt lat="44.083493157059486" lon="11.226598961628289"><ele>780.0</ele><time>2026-04-11T12:41:20.002Z</time></trkpt><trkpt lat="44.083413457916" lon="11.226550733713205"><ele>780.0</ele><time>2026-04-11T12:41:21.002Z</time></trkpt><trkpt lat="44.08333479501765" lon="11.226498968496637"><ele>780.0</ele><time>2026-04-11T12:41:22.002Z</time></trkpt><trkpt lat="44.0832612877761" lon="11.226477911638721"><ele>780.0</ele><time>2026-04-11T12:41:23.002Z</time></trkpt><trkpt lat="44.08319187392361" lon="11.226458851603107"><ele>780.0</ele><time>2026-04-11T12:41:24.002Z</time></trkpt><trkpt lat="44.08308995711796" lon="11.22646060191768"><ele>780.0</ele><time>2026-04-11T12:41:25.002Z</time></trkpt><trkpt lat="44.0830065033885" lon="11.226489647928858"><ele>781.1666666666666</ele><time>2026-04-11T12:41:26.002Z</time></trkpt><trkpt lat="44.08295171175059" lon="11.226580148515694"><ele>782.3333333333333</ele><time>2026-04-11T12:41:27.002Z</time></trkpt><trkpt lat="44.08289753557469" lon="11.226670249563286"><ele>783.5</ele><time>2026-04-11T12:41:28.002Z</time></trkpt><trkpt lat="44.08286067598363" lon="11.226770961416705"><ele>784.6666666666666</ele><time>2026-04-11T12:41:29.002Z</time></trkpt><trkpt lat="44.08280710187922" lon="11.226867831564176"><ele>785.8333333333333</ele><time>2026-04-11T12:41:30.002Z</time></trkpt><trkpt lat="44.08275335363802" lon="11.226974086283613"><ele>787.0</ele><time>2026-04-11T12:41:31.002Z</time></trkpt><trkpt lat="44.0827034132181" lon="11.227053748493235"><ele>787.0</ele><time>2026-04-11T12:41:32.002Z</time></trkpt><trkpt lat="44.082636557821324" lon="11.227137474757386"><ele>787.0</ele><time>2026-04-11T12:41:33.002Z</time></trkpt><trkpt lat="44.082541062295334" lon="11.227237772399144"><ele>787.0</ele><time>2026-04-11T12:41:34.002Z</time></trkpt><trkpt lat="44.08242970031784" lon="11.227326838617836"><ele>787.0</ele><time>2026-04-11T12:41:35.002Z</time></trkpt><trkpt lat="44.08230540164725" lon="11.227427578146873"><ele>786.5</ele><time>2026-04-11T12:41:36.002Z</time></trkpt><trkpt lat="44.082175354776425" lon="11.227488178952951"><ele>786.0</ele><time>2026-04-11T12:41:37.002Z</time></trkpt><trkpt lat="44.082045245106045" lon="11.227519060956228"><ele>785.5</ele><time>2026-04-11T12:41:38.003Z</time></trkpt><trkpt lat="44.08190019353489" lon="11.227502796813114"><ele>785.0</ele><time>2026-04-11T12:41:39.001Z</time></trkpt><trkpt lat="44.08175788576839" lon="11.227552697989193"><ele>785.0</ele><time>2026-04-11T12:41:40Z</time></trkpt><trkpt lat="44.08164937765089" lon="11.227648264640859"><ele>785.0</ele><time>2026-04-11T12:41:41Z</time></trkpt><trkpt lat="44.08156054828924" lon="11.227731426756588"><ele>785.0</ele><time>2026-04-11T12:41:42.001Z</time></trkpt><trkpt lat="44.08146772142917" lon="11.227816008853676"><ele>785.0</ele><time>2026-04-11T12:41:43Z</time></trkpt><trkpt lat="44.08137665597708" lon="11.227905493176435"><ele>785.25</ele><time>2026-04-11T12:41:44Z</time></trkpt><trkpt lat="44.08129167265892" lon="11.228013428582845"><ele>785.5</ele><time>2026-04-11T12:41:45.001Z</time></trkpt><trkpt lat="44.08119511526207" lon="11.228108038234838"><ele>785.75</ele><time>2026-04-11T12:41:46Z</time></trkpt><trkpt lat="44.08109570040536" lon="11.22820487164177"><ele>786.0</ele><time>2026-04-11T12:41:47Z</time></trkpt><trkpt lat="44.08100977087379" lon="11.228314534421424"><ele>786.0</ele><time>2026-04-11T12:41:48Z</time></trkpt><trkpt lat="44.080939787405114" lon="11.228415026722342"><ele>786.0</ele><time>2026-04-11T12:41:49Z</time></trkpt><trkpt lat="44.08088332910308" lon="11.228516305925037"><ele>786.0</ele><time>2026-04-11T12:41:50Z</time></trkpt><trkpt lat="44.08082278570708" lon="11.228621000374728"><ele>786.0</ele><time>2026-04-11T12:41:51Z</time></trkpt><trkpt lat="44.080780190397476" lon="11.22872135286654"><ele>786.0</ele><time>2026-04-11T12:41:52Z</time></trkpt><trkpt lat="44.08070831409886" lon="11.228849365069234"><ele>784.8</ele><time>2026-04-11T12:41:53Z</time></trkpt><trkpt lat="44.08062954292431" lon="11.228976780974538"><ele>783.5999999999999</ele><time>2026-04-11T12:41:54Z</time></trkpt><trkpt lat="44.080561372369324" lon="11.229085882349255"><ele>782.4</ele><time>2026-04-11T12:41:55Z</time></trkpt><trkpt lat="44.08050695969521" lon="11.229204445466461"><ele>781.2</ele><time>2026-04-11T12:41:56Z</time></trkpt><trkpt lat="44.08045394539015" lon="11.229297520918252"><ele>780.0</ele><time>2026-04-11T12:41:57Z</time></trkpt><trkpt lat="44.08041128357865" lon="11.229398558249262"><ele>780.0</ele><time>2026-04-11T12:41:58Z</time></trkpt><trkpt lat="44.08035916571309" lon="11.229462314147188"><ele>780.0</ele><time>2026-04-11T12:41:59Z</time></trkpt><trkpt lat="44.080282149111575" lon="11.22948325950119"><ele>780.0</ele><time>2026-04-11T12:42:00Z</time></trkpt><trkpt lat="44.08021321943634" lon="11.22947348374965"><ele>780.0</ele><time>2026-04-11T12:42:01Z</time></trkpt><trkpt lat="44.08012477946531" lon="11.229421158799212"><ele>780.0</ele><time>2026-04-11T12:42:02Z</time></trkpt><trkpt lat="44.08004634928364" lon="11.229341098373384"><ele>780.0</ele><time>2026-04-11T12:42:03Z</time></trkpt><trkpt lat="44.07993242359587" lon="11.229273145638647"><ele>775.25</ele><time>2026-04-11T12:42:04Z</time></trkpt><trkpt lat="44.079811507214785" lon="11.229210470255987"><ele>770.5</ele><time>2026-04-11T12:42:05Z</time></trkpt><trkpt lat="44.0797045533756" lon="11.22915303996867"><ele>765.75</ele><time>2026-04-11T12:42:06Z</time></trkpt><trkpt lat="44.07959329498759" lon="11.229100281141132"><ele>761.0</ele><time>2026-04-11T12:42:07Z</time></trkpt><trkpt lat="44.0794732136592" lon="11.229056472643698"><ele>761.0</ele><time>2026-04-11T12:42:08Z</time></trkpt><trkpt lat="44.07937575254626" lon="11.229011204732572"><ele>761.0</ele><time>2026-04-11T12:42:09Z</time></trkpt><trkpt lat="44.079282181031715" lon="11.228948913835975"><ele>761.0</ele><time>2026-04-11T12:42:10Z</time></trkpt><trkpt lat="44.079187425504436" lon="11.228877486084528"><ele>761.0</ele><time>2026-04-11T12:42:11Z</time></trkpt><trkpt lat="44.07910038829946" lon="11.228799328007208"><ele>761.0</ele><time>2026-04-11T12:42:12Z</time></trkpt><trkpt lat="44.07901047504228" lon="11.228705010945827"><ele>759.0</ele><time>2026-04-11T12:42:13Z</time></trkpt><trkpt lat="44.07895466495119" lon="11.2285893937998"><ele>757.0</ele><time>2026-04-11T12:42:14Z</time></trkpt><trkpt lat="44.078878316783765" lon="11.228503235366631"><ele>755.0</ele><time>2026-04-11T12:42:15Z</time></trkpt><trkpt lat="44.078833098879755" lon="11.228394107243124"><ele>753.0</ele><time>2026-04-11T12:42:16Z</time></trkpt><trkpt lat="44.07880614245036" lon="11.228234913840616"><ele>751.0</ele><time>2026-04-11T12:42:17Z</time></trkpt><trkpt lat="44.07878774483429" lon="11.228099493835805"><ele>751.0</ele><time>2026-04-11T12:42:18Z</time></trkpt><trkpt lat="44.0787462488744" lon="11.227984793176734"><ele>751.0</ele><time>2026-04-11T12:42:19Z</time></trkpt><trkpt lat="44.078702755080414" lon="11.227880269681783"><ele>751.0</ele><time>2026-04-11T12:42:20Z</time></trkpt><trkpt lat="44.078611346226694" lon="11.227799929757339"><ele>751.0</ele><time>2026-04-11T12:42:21.001Z</time></trkpt><trkpt lat="44.0785324757313" lon="11.227723245919872"><ele>751.0</ele><time>2026-04-11T12:42:22.001Z</time></trkpt><trkpt lat="44.07843914383104" lon="11.227662236074176"><ele>751.0</ele><time>2026-04-11T12:42:23.001Z</time></trkpt><trkpt lat="44.078324862169346" lon="11.227615276153447"><ele>751.0</ele><time>2026-04-11T12:42:24.001Z</time></trkpt><trkpt lat="44.078229607574656" lon="11.227582526522099"><ele>751.0</ele><time>2026-04-11T12:42:25.001Z</time></trkpt><trkpt lat="44.07815651481272" lon="11.227539185524913"><ele>751.0</ele><time>2026-04-11T12:42:26.001Z</time></trkpt><trkpt lat="44.07809885819347" lon="11.227467283077901"><ele>751.0</ele><time>2026-04-11T12:42:27.001Z</time></trkpt><trkpt lat="44.078041834708856" lon="11.227332952259092"><ele>749.4</ele><time>2026-04-11T12:42:28.001Z</time></trkpt><trkpt lat="44.07800126252678" lon="11.227197514263072"><ele>747.8</ele><time>2026-04-11T12:42:29.001Z</time></trkpt><trkpt lat="44.07795917504384" lon="11.227048128223261"><ele>746.1999999999999</ele><time>2026-04-11T12:42:30.001Z</time></trkpt><trkpt lat="44.07794562628719" lon="11.226909340779425"><ele>744.5999999999999</ele><time>2026-04-11T12:42:31.001Z</time></trkpt><trkpt lat="44.07790417765852" lon="11.226767969422719"><ele>743.0</ele><time>2026-04-11T12:42:32.001Z</time></trkpt><trkpt lat="44.07786618624245" lon="11.226642927130602"><ele>743.0</ele><time>2026-04-11T12:42:33.001Z</time></trkpt><trkpt lat="44.07783406661826" lon="11.226548998896622"><ele>743.0</ele><time>2026-04-11T12:42:34.001Z</time></trkpt><trkpt lat="44.077722084714004" lon="11.226462108177557"><ele>743.0</ele><time>2026-04-11T12:42:36.001Z</time></trkpt><trkpt lat="44.077639835162564" lon="11.226433634008066"><ele>743.0</ele><time>2026-04-11T12:42:37.001Z</time></trkpt><trkpt lat="44.07755087348182" lon="11.226432607854278"><ele>743.0</ele><time>2026-04-11T12:42:38.001Z</time></trkpt><trkpt lat="44.077452998697574" lon="11.226449732823468"><ele>738.0</ele><time>2026-04-11T12:42:39.001Z</time></trkpt><trkpt lat="44.07732983973969" lon="11.226503768008753"><ele>733.0</ele><time>2026-04-11T12:42:40.001Z</time></trkpt><trkpt lat="44.07720556278904" lon="11.226531516378808"><ele>728.0</ele><time>2026-04-11T12:42:41.001Z</time></trkpt><trkpt lat="44.07709442696565" lon="11.226574533814992"><ele>723.0</ele><time>2026-04-11T12:42:42.001Z</time></trkpt><trkpt lat="44.07697847288552" lon="11.226585490102059"><ele>723.0</ele><time>2026-04-11T12:42:43.001Z</time></trkpt><trkpt lat="44.07686600548584" lon="11.226557660626295"><ele>723.0</ele><time>2026-04-11T12:42:44.001Z</time></trkpt><trkpt lat="44.07676822659162" lon="11.22654225660116"><ele>723.0</ele><time>2026-04-11T12:42:45.001Z</time></trkpt><trkpt lat="44.0767027870627" lon="11.226476445868828"><ele>723.0</ele><time>2026-04-11T12:42:46.001Z</time></trkpt><trkpt lat="44.076639404829336" lon="11.226356078733705"><ele>723.0</ele><time>2026-04-11T12:42:47.001Z</time></trkpt><trkpt lat="44.07670867350122" lon="11.226152442214657"><ele>727.0</ele><time>2026-04-11T12:42:48.001Z</time></trkpt><trkpt lat="44.07666691916909" lon="11.226025601502624"><ele>731.0</ele><time>2026-04-11T12:42:49.001Z</time></trkpt><trkpt lat="44.07662855067266" lon="11.225909046504885"><ele>735.0</ele><time>2026-04-11T12:42:50.001Z</time></trkpt><trkpt lat="44.07659492746989" lon="11.22580690662502"><ele>739.0</ele><time>2026-04-11T12:42:51.001Z</time></trkpt><trkpt lat="44.07656777823734" lon="11.225724433415873"><ele>743.0</ele><time>2026-04-11T12:42:52.001Z</time></trkpt><trkpt lat="44.07628148909591" lon="11.225908913433226"><ele>743.0</ele><time>2026-04-11T12:42:53.001Z</time></trkpt><trkpt lat="44.076202285534634" lon="11.225987777102919"><ele>743.0</ele><time>2026-04-11T12:42:54.001Z</time></trkpt><trkpt lat="44.07612319390042" lon="11.226052063137168"><ele>743.0</ele><time>2026-04-11T12:42:55.001Z</time></trkpt><trkpt lat="44.07602299814583" lon="11.226102629235212"><ele>743.0</ele><time>2026-04-11T12:42:56.001Z</time></trkpt><trkpt lat="44.075933936308324" lon="11.226089469143526"><ele>743.0</ele><time>2026-04-11T12:42:57.001Z</time></trkpt><trkpt lat="44.07582330444467" lon="11.226030206779553"><ele>741.1666666666666</ele><time>2026-04-11T12:42:58.001Z</time></trkpt><trkpt lat="44.07574296903256" lon="11.225984564008199"><ele>739.3333333333333</ele><time>2026-04-11T12:42:59.001Z</time></trkpt><trkpt lat="44.075654274537115" lon="11.225969783705265"><ele>737.5</ele><time>2026-04-11T12:43:00.001Z</time></trkpt><trkpt lat="44.075564716018754" lon="11.225940008959915"><ele>735.6666666666666</ele><time>2026-04-11T12:43:01.001Z</time></trkpt><trkpt lat="44.07547639755495" lon="11.225920297252602"><ele>733.8333333333334</ele><time>2026-04-11T12:43:02.001Z</time></trkpt><trkpt lat="44.07538736036533" lon="11.225916426444721"><ele>732.0</ele><time>2026-04-11T12:43:03.001Z</time></trkpt><trkpt lat="44.075326599500755" lon="11.225946321374263"><ele>732.0</ele><time>2026-04-11T12:43:04.001Z</time></trkpt><trkpt lat="44.07523890176637" lon="11.226035498489987"><ele>732.0</ele><time>2026-04-11T12:43:05.001Z</time></trkpt><trkpt lat="44.075169705468205" lon="11.226138305241674"><ele>732.0</ele><time>2026-04-11T12:43:06.001Z</time></trkpt><trkpt lat="44.0750823352286" lon="11.226229398467428"><ele>732.0</ele><time>2026-04-11T12:43:07.001Z</time></trkpt><trkpt lat="44.07499897205755" lon="11.22630230238635"><ele>732.0</ele><time>2026-04-11T12:43:08.001Z</time></trkpt><trkpt lat="44.07493055856732" lon="11.226344441583688"><ele>729.8333333333334</ele><time>2026-04-11T12:43:09.001Z</time></trkpt><trkpt lat="44.07486561792995" lon="11.22634558102569"><ele>727.6666666666666</ele><time>2026-04-11T12:43:10.001Z</time></trkpt><trkpt lat="44.07479591964035" lon="11.226309812549268"><ele>725.5</ele><time>2026-04-11T12:43:11.001Z</time></trkpt><trkpt lat="44.07472864419847" lon="11.226248865399334"><ele>723.3333333333333</ele><time>2026-04-11T12:43:12.001Z</time></trkpt><trkpt lat="44.074641656599894" lon="11.226149324033901"><ele>721.1666666666666</ele><time>2026-04-11T12:43:13.001Z</time></trkpt><trkpt lat="44.07454530711695" lon="11.226060923395721"><ele>719.0</ele><time>2026-04-11T12:43:14.001Z</time></trkpt><trkpt lat="44.07443354331671" lon="11.225992111273108"><ele>719.0</ele><time>2026-04-11T12:43:15.001Z</time></trkpt><trkpt lat="44.07431862413619" lon="11.225932494026416"><ele>719.0</ele><time>2026-04-11T12:43:16.001Z</time></trkpt><trkpt lat="44.0741938729645" lon="11.225890954967126"><ele>719.0</ele><time>2026-04-11T12:43:17.002Z</time></trkpt><trkpt lat="44.07409405620438" lon="11.225887190761986"><ele>719.0</ele><time>2026-04-11T12:43:18.002Z</time></trkpt><trkpt lat="44.07397252156691" lon="11.22592717274834"><ele>715.0</ele><time>2026-04-11T12:43:19.002Z</time></trkpt><trkpt lat="44.07385879449477" lon="11.225980427968837"><ele>711.0</ele><time>2026-04-11T12:43:20.002Z</time></trkpt><trkpt lat="44.07373873003929" lon="11.226066229836068"><ele>707.0</ele><time>2026-04-11T12:43:21.002Z</time></trkpt><trkpt lat="44.07362689868692" lon="11.2261437619891"><ele>703.0</ele><time>2026-04-11T12:43:22.002Z</time></trkpt><trkpt lat="44.073521264291" lon="11.226166473607151"><ele>703.0</ele><time>2026-04-11T12:43:23.002Z</time></trkpt><trkpt lat="44.07342226098607" lon="11.226176174795931"><ele>703.0</ele><time>2026-04-11T12:43:24.002Z</time></trkpt><trkpt lat="44.073328734018816" lon="11.226149960340809"><ele>703.0</ele><time>2026-04-11T12:43:25.002Z</time></trkpt><trkpt lat="44.07323497080986" lon="11.226104282466823"><ele>703.0</ele><time>2026-04-11T12:43:26.002Z</time></trkpt><trkpt lat="44.07317362350286" lon="11.226071087650247"><ele>703.0</ele><time>2026-04-11T12:43:27.002Z</time></trkpt><trkpt lat="44.07309647692402" lon="11.226017011562977"><ele>703.0</ele><time>2026-04-11T12:43:28.002Z</time></trkpt><trkpt lat="44.073028649654596" lon="11.225934259453258"><ele>700.1428571428571</ele><time>2026-04-11T12:43:29.002Z</time></trkpt><trkpt lat="44.0729828495606" lon="11.225845177998112"><ele>697.2857142857143</ele><time>2026-04-11T12:43:30.002Z</time></trkpt><trkpt lat="44.07295610177398" lon="11.225738022897376"><ele>694.4285714285714</ele><time>2026-04-11T12:43:31.002Z</time></trkpt><trkpt lat="44.07294492137378" lon="11.225648080607234"><ele>691.5714285714286</ele><time>2026-04-11T12:43:32.002Z</time></trkpt><trkpt lat="44.072925135983965" lon="11.225564024524427"><ele>688.7142857142857</ele><time>2026-04-11T12:43:33.002Z</time></trkpt><trkpt lat="44.072880116685184" lon="11.225487743964592"><ele>685.8571428571429</ele><time>2026-04-11T12:43:34.002Z</time></trkpt><trkpt lat="44.07282042986923" lon="11.22543192531355"><ele>683.0</ele><time>2026-04-11T12:43:35.002Z</time></trkpt><trkpt lat="44.07272786369967" lon="11.225361802825372"><ele>682.5</ele><time>2026-04-11T12:43:36.002Z</time></trkpt><trkpt lat="44.072629960907584" lon="11.225292358708481"><ele>682.0</ele><time>2026-04-11T12:43:37.002Z</time></trkpt><trkpt lat="44.07251875115203" lon="11.22523252275033"><ele>681.5</ele><time>2026-04-11T12:43:38.002Z</time></trkpt><trkpt lat="44.07239295172121" lon="11.225173430950855"><ele>681.0</ele><time>2026-04-11T12:43:39.002Z</time></trkpt><trkpt lat="44.07227597632223" lon="11.225115231803814"><ele>681.0</ele><time>2026-04-11T12:43:40.002Z</time></trkpt><trkpt lat="44.07215958249916" lon="11.225053136291823"><ele>681.0</ele><time>2026-04-11T12:43:41.002Z</time></trkpt><trkpt lat="44.07207335526394" lon="11.225023080733079"><ele>681.0</ele><time>2026-04-11T12:43:42.002Z</time></trkpt><trkpt lat="44.0719848839499" lon="11.225006642454582"><ele>681.0</ele><time>2026-04-11T12:43:43.002Z</time></trkpt><trkpt lat="44.071908263178614" lon="11.225011133272758"><ele>681.0</ele><time>2026-04-11T12:43:44.002Z</time></trkpt><trkpt lat="44.07182604242711" lon="11.225030633370215"><ele>681.0</ele><time>2026-04-11T12:43:45Z</time></trkpt><trkpt lat="44.071735783187194" lon="11.225094327658395"><ele>681.0</ele><time>2026-04-11T12:43:46Z</time></trkpt><trkpt lat="44.07164680797976" lon="11.225156045427818"><ele>681.0</ele><time>2026-04-11T12:43:47Z</time></trkpt><trkpt lat="44.071557673206826" lon="11.225215765585272"><ele>681.0</ele><time>2026-04-11T12:43:48Z</time></trkpt><trkpt lat="44.071475291964354" lon="11.225265884061669"><ele>681.0</ele><time>2026-04-11T12:43:49Z</time></trkpt><trkpt lat="44.071375685025" lon="11.225288494159713"><ele>681.8</ele><time>2026-04-11T12:43:50Z</time></trkpt><trkpt lat="44.071291382894124" lon="11.225320031484237"><ele>682.5999999999999</ele><time>2026-04-11T12:43:51Z</time></trkpt><trkpt lat="44.07120719705216" lon="11.225363826270652"><ele>683.4</ele><time>2026-04-11T12:43:52Z</time></trkpt><trkpt lat="44.071123837872015" lon="11.225427456676915"><ele>684.2</ele><time>2026-04-11T12:43:53Z</time></trkpt><trkpt lat="44.071032975150516" lon="11.225495393800191"><ele>685.0</ele><time>2026-04-11T12:43:54Z</time></trkpt><trkpt lat="44.07094221354422" lon="11.225564322133103"><ele>685.0</ele><time>2026-04-11T12:43:55Z</time></trkpt><trkpt lat="44.070841442048305" lon="11.225627642147037"><ele>685.0</ele><time>2026-04-11T12:43:56Z</time></trkpt><trkpt lat="44.07073589942648" lon="11.225649959195847"><ele>685.0</ele><time>2026-04-11T12:43:57Z</time></trkpt><trkpt lat="44.07061002205869" lon="11.225635478731236"><ele>685.0</ele><time>2026-04-11T12:43:58Z</time></trkpt><trkpt lat="44.07049978064294" lon="11.225608212677454"><ele>683.8</ele><time>2026-04-11T12:43:59Z</time></trkpt><trkpt lat="44.07039990403143" lon="11.225574447804538"><ele>682.6</ele><time>2026-04-11T12:44:00Z</time></trkpt><trkpt lat="44.07030747231512" lon="11.22554364185553"><ele>681.4000000000001</ele><time>2026-04-11T12:44:01Z</time></trkpt><trkpt lat="44.07021253604456" lon="11.225537610842816"><ele>680.2</ele><time>2026-04-11T12:44:02Z</time></trkpt><trkpt lat="44.07011353168709" lon="11.225554793966849"><ele>679.0</ele><time>2026-04-11T12:44:03Z</time></trkpt><trkpt lat="44.070012371969675" lon="11.225598171253052"><ele>675.2</ele><time>2026-04-11T12:44:04Z</time></trkpt><trkpt lat="44.06990556840586" lon="11.225663986521392"><ele>671.4000000000001</ele><time>2026-04-11T12:44:05Z</time></trkpt><trkpt lat="44.06980510742918" lon="11.225717688800072"><ele>667.6</ele><time>2026-04-11T12:44:06Z</time></trkpt><trkpt lat="44.0697065043769" lon="11.225755146282907"><ele>663.8</ele><time>2026-04-11T12:44:07Z</time></trkpt><trkpt lat="44.06960487668803" lon="11.225769187161543"><ele>660.0</ele><time>2026-04-11T12:44:08Z</time></trkpt><trkpt lat="44.06948299542073" lon="11.22577939262115"><ele>660.0</ele><time>2026-04-11T12:44:09Z</time></trkpt><trkpt lat="44.06937627343037" lon="11.225789839762207"><ele>660.0</ele><time>2026-04-11T12:44:10Z</time></trkpt><trkpt lat="44.06928172451914" lon="11.22579539421538"><ele>660.0</ele><time>2026-04-11T12:44:11Z</time></trkpt><trkpt lat="44.069189654278325" lon="11.225806596076461"><ele>660.0</ele><time>2026-04-11T12:44:12Z</time></trkpt><trkpt lat="44.06909373889462" lon="11.225800038861115"><ele>660.0</ele><time>2026-04-11T12:44:13Z</time></trkpt><trkpt lat="44.068997915684704" lon="11.225805028648821"><ele>658.2</ele><time>2026-04-11T12:44:14Z</time></trkpt><trkpt lat="44.06889659757891" lon="11.225826402631913"><ele>656.4</ele><time>2026-04-11T12:44:15Z</time></trkpt><trkpt lat="44.06882203123845" lon="11.225808769041802"><ele>654.5999999999999</ele><time>2026-04-11T12:44:16Z</time></trkpt><trkpt lat="44.06872860472093" lon="11.225781359739779"><ele>652.8</ele><time>2026-04-11T12:44:17Z</time></trkpt><trkpt lat="44.068626862176906" lon="11.22574783053032"><ele>651.0</ele><time>2026-04-11T12:44:18Z</time></trkpt><trkpt lat="44.068552817135796" lon="11.225704655771597"><ele>651.0</ele><time>2026-04-11T12:44:19Z</time></trkpt><trkpt lat="44.06848163000275" lon="11.225681589317222"><ele>651.0</ele><time>2026-04-11T12:44:20Z</time></trkpt><trkpt lat="44.068417347708355" lon="11.225668949398793"><ele>651.0</ele><time>2026-04-11T12:44:21Z</time></trkpt><trkpt lat="44.068334335711796" lon="11.225666902841459"><ele>651.0</ele><time>2026-04-11T12:44:23Z</time></trkpt><trkpt lat="44.068259741574344" lon="11.225689903660234"><ele>651.0</ele><time>2026-04-11T12:44:25Z</time></trkpt><trkpt lat="44.06816643901982" lon="11.225667925441625"><ele>651.0</ele><time>2026-04-11T12:44:27Z</time></trkpt><trkpt lat="44.0681212719978" lon="11.225745674166767"><ele>651.8</ele><time>2026-04-11T12:45:36.002Z</time></trkpt><trkpt lat="44.06803035524414" lon="11.22578756749867"><ele>652.5999999999999</ele><time>2026-04-11T12:45:38.002Z</time></trkpt><trkpt lat="44.067920854767884" lon="11.225827934113218"><ele>653.4</ele><time>2026-04-11T12:45:40.002Z</time></trkpt><trkpt lat="44.06781116499094" lon="11.225879890588176"><ele>654.2</ele><time>2026-04-11T12:45:42.002Z</time></trkpt><trkpt lat="44.06773384403575" lon="11.225914608588596"><ele>655.0</ele><time>2026-04-11T12:45:44.002Z</time></trkpt><trkpt lat="44.06764280332378" lon="11.225953653433418"><ele>655.0</ele><time>2026-04-11T12:45:46.002Z</time></trkpt><trkpt lat="44.067581699420046" lon="11.225975997234098"><ele>655.0</ele><time>2026-04-11T12:45:47.002Z</time></trkpt><trkpt lat="44.06746322729121" lon="11.226017691463207"><ele>655.0</ele><time>2026-04-11T12:45:49.002Z</time></trkpt><trkpt lat="44.067385724788465" lon="11.226037529802117"><ele>655.0</ele><time>2026-04-11T12:45:50.002Z</time></trkpt><trkpt lat="44.06731133134579" lon="11.226065545088463"><ele>655.0</ele><time>2026-04-11T12:45:51.001Z</time></trkpt><trkpt lat="44.067229285492175" lon="11.226087165317233"><ele>655.0</ele><time>2026-04-11T12:45:52.001Z</time></trkpt><trkpt lat="44.067154758605994" lon="11.226105160584153"><ele>653.8</ele><time>2026-04-11T12:45:53.001Z</time></trkpt><trkpt lat="44.06708017468076" lon="11.226141004503384"><ele>652.6</ele><time>2026-04-11T12:45:54.001Z</time></trkpt><trkpt lat="44.06700307715854" lon="11.226177259573435"><ele>651.4000000000001</ele><time>2026-04-11T12:45:55.001Z</time></trkpt><trkpt lat="44.06691774179376" lon="11.226256444971359"><ele>650.2</ele><time>2026-04-11T12:45:56.001Z</time></trkpt><trkpt lat="44.06688189553787" lon="11.226396570938252"><ele>649.0</ele><time>2026-04-11T12:45:57.001Z</time></trkpt><trkpt lat="44.06689979294494" lon="11.226523616109855"><ele>649.0</ele><time>2026-04-11T12:45:58.001Z</time></trkpt><trkpt lat="44.06689730296378" lon="11.226617557905422"><ele>649.0</ele><time>2026-04-11T12:45:59.001Z</time></trkpt><trkpt lat="44.06683358727578" lon="11.22677068079132"><ele>649.0</ele><time>2026-04-11T12:46:01.001Z</time></trkpt><trkpt lat="44.06676705171346" lon="11.226817316839648"><ele>649.0</ele><time>2026-04-11T12:46:02.001Z</time></trkpt><trkpt lat="44.066679001150355" lon="11.226855124463322"><ele>649.0</ele><time>2026-04-11T12:46:03.001Z</time></trkpt><trkpt lat="44.06661536635279" lon="11.226949232538741"><ele>648.8000000000001</ele><time>2026-04-11T12:46:04.001Z</time></trkpt><trkpt lat="44.066581835390245" lon="11.227094702969238"><ele>648.6</ele><time>2026-04-11T12:46:05.001Z</time></trkpt><trkpt lat="44.066608343306456" lon="11.227270771363424"><ele>648.4</ele><time>2026-04-11T12:46:06.001Z</time></trkpt><trkpt lat="44.06660595319946" lon="11.227412219870004"><ele>648.2</ele><time>2026-04-11T12:46:07.001Z</time></trkpt><trkpt lat="44.066576284272756" lon="11.227555559314832"><ele>648.0</ele><time>2026-04-11T12:46:08.001Z</time></trkpt><trkpt lat="44.0665225952478" lon="11.227684422567695"><ele>648.0</ele><time>2026-04-11T12:46:09.001Z</time></trkpt><trkpt lat="44.0664535939178" lon="11.227805200220836"><ele>648.0</ele><time>2026-04-11T12:46:10.001Z</time></trkpt><trkpt lat="44.06637040194267" lon="11.227891406483328"><ele>648.0</ele><time>2026-04-11T12:46:11.001Z</time></trkpt><trkpt lat="44.06627575679302" lon="11.227962294555445"><ele>648.0</ele><time>2026-04-11T12:46:12.001Z</time></trkpt><trkpt lat="44.0661650193632" lon="11.228022799786405"><ele>648.0</ele><time>2026-04-11T12:46:13.001Z</time></trkpt><trkpt lat="44.06606012879007" lon="11.228099829690736"><ele>646.5</ele><time>2026-04-11T12:46:14.001Z</time></trkpt><trkpt lat="44.06597287222693" lon="11.228243806992632"><ele>645.0</ele><time>2026-04-11T12:46:15.001Z</time></trkpt><trkpt lat="44.06593972734193" lon="11.228436105052355"><ele>643.5</ele><time>2026-04-11T12:46:16.001Z</time></trkpt><trkpt lat="44.06589261973014" lon="11.22859336304988"><ele>642.0</ele><time>2026-04-11T12:46:17.001Z</time></trkpt><trkpt lat="44.065835962772404" lon="11.22871552688347"><ele>641.0</ele><time>2026-04-11T12:46:18.001Z</time></trkpt><trkpt lat="44.06574667837504" lon="11.228835904859869"><ele>640.0</ele><time>2026-04-11T12:46:19.001Z</time></trkpt><trkpt lat="44.065638582779265" lon="11.228941514274597"><ele>639.0</ele><time>2026-04-11T12:46:20.001Z</time></trkpt><trkpt lat="44.06550906940729" lon="11.229049492228299"><ele>638.0</ele><time>2026-04-11T12:46:21.001Z</time></trkpt><trkpt lat="44.065382735243425" lon="11.229146868979326"><ele>638.0</ele><time>2026-04-11T12:46:22.001Z</time></trkpt><trkpt lat="44.065272083153744" lon="11.229230528020514"><ele>638.0</ele><time>2026-04-11T12:46:23.001Z</time></trkpt><trkpt lat="44.06515816677736" lon="11.22931560214878"><ele>638.0</ele><time>2026-04-11T12:46:24.001Z</time></trkpt><trkpt lat="44.065036993633306" lon="11.229397178100509"><ele>638.0</ele><time>2026-04-11T12:46:25.001Z</time></trkpt><trkpt lat="44.06492199502541" lon="11.229473631499038"><ele>637.0</ele><time>2026-04-11T12:46:26.001Z</time></trkpt><trkpt lat="44.064803442861724" lon="11.229553668652327"><ele>636.0</ele><time>2026-04-11T12:46:27.001Z</time></trkpt><trkpt lat="44.0646847953006" lon="11.229636228523725"><ele>635.0</ele><time>2026-04-11T12:46:28.001Z</time></trkpt><trkpt lat="44.06457363011588" lon="11.229743488467031"><ele>634.0</ele><time>2026-04-11T12:46:29.001Z</time></trkpt><trkpt lat="44.064454886943615" lon="11.22982492348773"><ele>634.0</ele><time>2026-04-11T12:46:30.001Z</time></trkpt><trkpt lat="44.0643465464544" lon="11.229909818839564"><ele>634.0</ele><time>2026-04-11T12:46:31.001Z</time></trkpt><trkpt lat="44.06424482205876" lon="11.22999510960338"><ele>634.0</ele><time>2026-04-11T12:46:32.001Z</time></trkpt><trkpt lat="44.06414517173373" lon="11.230072931627413"><ele>634.0</ele><time>2026-04-11T12:46:33.001Z</time></trkpt><trkpt lat="44.06403751108368" lon="11.230142542376306"><ele>632.8</ele><time>2026-04-11T12:46:34.001Z</time></trkpt><trkpt lat="44.06396153706926" lon="11.23021597951111"><ele>631.5999999999999</ele><time>2026-04-11T12:46:35.001Z</time></trkpt><trkpt lat="44.063872517512124" lon="11.230333720347245"><ele>630.4</ele><time>2026-04-11T12:46:36.001Z</time></trkpt><trkpt lat="44.063804052000876" lon="11.230465776115357"><ele>629.1999999999999</ele><time>2026-04-11T12:46:37.001Z</time></trkpt><trkpt lat="44.063750656369486" lon="11.230602888333987"><ele>628.0</ele><time>2026-04-11T12:46:38.001Z</time></trkpt><trkpt lat="44.0636932310496" lon="11.230742399141487"><ele>627.75</ele><time>2026-04-11T12:46:39.001Z</time></trkpt><trkpt lat="44.06362990263386" lon="11.23087616573465"><ele>627.5</ele><time>2026-04-11T12:46:40.001Z</time></trkpt><trkpt lat="44.06355170619044" lon="11.230996536926973"><ele>627.25</ele><time>2026-04-11T12:46:41.001Z</time></trkpt><trkpt lat="44.06346245159769" lon="11.231112780352843"><ele>627.0</ele><time>2026-04-11T12:46:42.001Z</time></trkpt><trkpt lat="44.06336996982827" lon="11.231236023556546"><ele>624.25</ele><time>2026-04-11T12:46:43.001Z</time></trkpt><trkpt lat="44.063278131854396" lon="11.23133291641891"><ele>621.5</ele><time>2026-04-11T12:46:44.001Z</time></trkpt><trkpt lat="44.063153422005506" lon="11.231448461345309"><ele>618.75</ele><time>2026-04-11T12:46:45.001Z</time></trkpt><trkpt lat="44.06301439776036" lon="11.23156571732621"><ele>616.0</ele><time>2026-04-11T12:46:46.001Z</time></trkpt><trkpt lat="44.0628785111353" lon="11.231693316609373"><ele>616.0</ele><time>2026-04-11T12:46:47.001Z</time></trkpt><trkpt lat="44.06276028692772" lon="11.231843636784449"><ele>616.0</ele><time>2026-04-11T12:46:48.001Z</time></trkpt><trkpt lat="44.06266889046044" lon="11.232018151212587"><ele>616.0</ele><time>2026-04-11T12:46:49.001Z</time></trkpt><trkpt lat="44.0625832832133" lon="11.23218562542855"><ele>615.3333333333334</ele><time>2026-04-11T12:46:50.001Z</time></trkpt><trkpt lat="44.062496390152546" lon="11.23235437616672"><ele>614.6666666666666</ele><time>2026-04-11T12:46:51.001Z</time></trkpt><trkpt lat="44.06237077529607" lon="11.232481099791404"><ele>614.0</ele><time>2026-04-11T12:46:52.001Z</time></trkpt><trkpt lat="44.06224974185583" lon="11.23262090573698"><ele>614.0</ele><time>2026-04-11T12:46:53.001Z</time></trkpt><trkpt lat="44.062128586138115" lon="11.232761245035228"><ele>614.0</ele><time>2026-04-11T12:46:54.001Z</time></trkpt><trkpt lat="44.06201323560448" lon="11.232901689445416"><ele>614.0</ele><time>2026-04-11T12:46:55.001Z</time></trkpt><trkpt lat="44.06190101845077" lon="11.233012672879942"><ele>614.0</ele><time>2026-04-11T12:46:56.001Z</time></trkpt><trkpt lat="44.0617845123545" lon="11.233126442427393"><ele>612.75</ele><time>2026-04-11T12:46:57.001Z</time></trkpt><trkpt lat="44.061677759034865" lon="11.23326204015812"><ele>611.5</ele><time>2026-04-11T12:46:58.001Z</time></trkpt><trkpt lat="44.06159587458196" lon="11.233426639016917"><ele>610.25</ele><time>2026-04-11T12:46:59.001Z</time></trkpt><trkpt lat="44.06154455443244" lon="11.23363123374572"><ele>609.0</ele><time>2026-04-11T12:47:00.001Z</time></trkpt><trkpt lat="44.06151544423283" lon="11.233816379865246"><ele>607.25</ele><time>2026-04-11T12:47:01.001Z</time></trkpt><trkpt lat="44.06149143088407" lon="11.234005757165654"><ele>605.5</ele><time>2026-04-11T12:47:02.001Z</time></trkpt><trkpt lat="44.06147450561316" lon="11.234185516821295"><ele>603.75</ele><time>2026-04-11T12:47:03.001Z</time></trkpt><trkpt lat="44.06147176713803" lon="11.234369209570485"><ele>602.0</ele><time>2026-04-11T12:47:04.001Z</time></trkpt><trkpt lat="44.061487805895204" lon="11.234549500535962"><ele>602.0</ele><time>2026-04-11T12:47:05.001Z</time></trkpt><trkpt lat="44.061530557643565" lon="11.234723745562837"><ele>602.0</ele><time>2026-04-11T12:47:06.001Z</time></trkpt><trkpt lat="44.061592493729265" lon="11.234866520489643"><ele>602.0</ele><time>2026-04-11T12:47:07.002Z</time></trkpt><trkpt lat="44.06165449060212" lon="11.23497009723164"><ele>602.0</ele><time>2026-04-11T12:47:08.002Z</time></trkpt><trkpt lat="44.061741831969464" lon="11.23503629754198"><ele>602.0</ele><time>2026-04-11T12:47:09.002Z</time></trkpt><trkpt lat="44.06183736849885" lon="11.235041098743705"><ele>600.2</ele><time>2026-04-11T12:47:10.002Z</time></trkpt><trkpt lat="44.061941891804494" lon="11.234964501004741"><ele>598.4000000000001</ele><time>2026-04-11T12:47:11.002Z</time></trkpt><trkpt lat="44.06203753048209" lon="11.234892070246207"><ele>596.5999999999999</ele><time>2026-04-11T12:47:12.002Z</time></trkpt><trkpt lat="44.06211673165529" lon="11.234873329599035"><ele>594.8</ele><time>2026-04-11T12:47:13.002Z</time></trkpt><trkpt lat="44.06218460326341" lon="11.23489948760599"><ele>593.0</ele><time>2026-04-11T12:47:14.002Z</time></trkpt><trkpt lat="44.062199350859615" lon="11.235016176748822"><ele>593.0</ele><time>2026-04-11T12:47:15.002Z</time></trkpt><trkpt lat="44.062192106856045" lon="11.235109130894358"><ele>593.0</ele><time>2026-04-11T12:47:16.002Z</time></trkpt><trkpt lat="44.06215337829707" lon="11.235202775893034"><ele>593.0</ele><time>2026-04-11T12:47:17.002Z</time></trkpt><trkpt lat="44.06207853329463" lon="11.23532500351618"><ele>593.0</ele><time>2026-04-11T12:47:18.002Z</time></trkpt><trkpt lat="44.0619697964029" lon="11.23546325718272"><ele>593.0</ele><time>2026-04-11T12:47:19.002Z</time></trkpt><trkpt lat="44.06183749425253" lon="11.235626899610242"><ele>590.0</ele><time>2026-04-11T12:47:20.002Z</time></trkpt><trkpt lat="44.06171206305813" lon="11.235780746208237"><ele>587.0</ele><time>2026-04-11T12:47:21.002Z</time></trkpt><trkpt lat="44.06160151004471" lon="11.235916205027122"><ele>584.0</ele><time>2026-04-11T12:47:22.002Z</time></trkpt><trkpt lat="44.06149782242817" lon="11.236048502654272"><ele>584.0</ele><time>2026-04-11T12:47:23.002Z</time></trkpt><trkpt lat="44.06140909727435" lon="11.236200062861633"><ele>584.0</ele><time>2026-04-11T12:47:24.002Z</time></trkpt><trkpt lat="44.06134793521788" lon="11.236384845359373"><ele>584.0</ele><time>2026-04-11T12:47:25.002Z</time></trkpt><trkpt lat="44.06132864061112" lon="11.236573616592993"><ele>584.0</ele><time>2026-04-11T12:47:26.002Z</time></trkpt><trkpt lat="44.061348515598816" lon="11.236759426958141"><ele>580.5</ele><time>2026-04-11T12:47:27.002Z</time></trkpt><trkpt lat="44.06139114244933" lon="11.236940010169354"><ele>577.0</ele><time>2026-04-11T12:47:28.002Z</time></trkpt><trkpt lat="44.061431725128685" lon="11.23711654082984"><ele>573.5</ele><time>2026-04-11T12:47:29.002Z</time></trkpt><trkpt lat="44.061487423223724" lon="11.237298087033762"><ele>570.0</ele><time>2026-04-11T12:47:30.002Z</time></trkpt><trkpt lat="44.06151598119151" lon="11.237488447148278"><ele>569.0</ele><time>2026-04-11T12:47:31.002Z</time></trkpt><trkpt lat="44.06155046585023" lon="11.237663633582189"><ele>568.0</ele><time>2026-04-11T12:47:32.002Z</time></trkpt><trkpt lat="44.061587096474675" lon="11.237830940816457"><ele>567.0</ele><time>2026-04-11T12:47:33.002Z</time></trkpt><trkpt lat="44.06162576976143" lon="11.237986649668509"><ele>566.0</ele><time>2026-04-11T12:47:34.002Z</time></trkpt><trkpt lat="44.06165061896945" lon="11.238134781403833"><ele>565.4</ele><time>2026-04-11T12:47:35.002Z</time></trkpt><trkpt lat="44.06166319151118" lon="11.238262910136468"><ele>564.8</ele><time>2026-04-11T12:47:36.002Z</time></trkpt><trkpt lat="44.06165848143548" lon="11.238379490803137"><ele>564.1999999999999</ele><time>2026-04-11T12:47:37.002Z</time></trkpt><trkpt lat="44.061640510240345" lon="11.238507363756874"><ele>563.6</ele><time>2026-04-11T12:47:38.002Z</time></trkpt><trkpt lat="44.06159530707649" lon="11.238657043585118"><ele>563.0</ele><time>2026-04-11T12:47:39.002Z</time></trkpt><trkpt lat="44.061565825062104" lon="11.238779601407028"><ele>561.5</ele><time>2026-04-11T12:47:40.002Z</time></trkpt><trkpt lat="44.0615249601018" lon="11.238894938454472"><ele>560.0</ele><time>2026-04-11T12:47:41.002Z</time></trkpt><trkpt lat="44.06148565586579" lon="11.238972171764468"><ele>558.5</ele><time>2026-04-11T12:47:42.002Z</time></trkpt><trkpt lat="44.06141834386869" lon="11.23899817857923"><ele>557.0</ele><time>2026-04-11T12:47:43.002Z</time></trkpt><trkpt lat="44.061344056085964" lon="11.238965524835656"><ele>555.5</ele><time>2026-04-11T12:47:44.002Z</time></trkpt><trkpt lat="44.06126840714471" lon="11.23886409142106"><ele>554.0</ele><time>2026-04-11T12:47:45.002Z</time></trkpt><trkpt lat="44.06120679848064" lon="11.238718656521373"><ele>554.0</ele><time>2026-04-11T12:47:46.002Z</time></trkpt><trkpt lat="44.061157477549706" lon="11.238548103768625"><ele>554.0</ele><time>2026-04-11T12:47:47.002Z</time></trkpt><trkpt lat="44.061092029735974" lon="11.238396375542871"><ele>554.0</ele><time>2026-04-11T12:47:48.002Z</time></trkpt><trkpt lat="44.06102191120349" lon="11.238257879858134"><ele>554.0</ele><time>2026-04-11T12:47:49.002Z</time></trkpt><trkpt lat="44.06091003337046" lon="11.238199779946207"><ele>553.75</ele><time>2026-04-11T12:47:50.002Z</time></trkpt><trkpt lat="44.060788647827685" lon="11.238130786364204"><ele>553.5</ele><time>2026-04-11T12:47:51.002Z</time></trkpt><trkpt lat="44.06065652798959" lon="11.238085449871289"><ele>553.25</ele><time>2026-04-11T12:47:52.002Z</time></trkpt><trkpt lat="44.06054167734003" lon="11.238029381919556"><ele>553.0</ele><time>2026-04-11T12:47:53.002Z</time></trkpt><trkpt lat="44.06043414193031" lon="11.237935438144754"><ele>553.0</ele><time>2026-04-11T12:47:54.002Z</time></trkpt><trkpt lat="44.06032059382153" lon="11.23783862966857"><ele>553.0</ele><time>2026-04-11T12:47:55.002Z</time></trkpt><trkpt lat="44.06022056189188" lon="11.237750854348146"><ele>553.0</ele><time>2026-04-11T12:47:56.002Z</time></trkpt><trkpt lat="44.0601173185002" lon="11.237662980579596"><ele>553.0</ele><time>2026-04-11T12:47:57.001Z</time></trkpt><trkpt lat="44.0600258655515" lon="11.237614611406672"><ele>553.1999999999999</ele><time>2026-04-11T12:47:58Z</time></trkpt><trkpt lat="44.059933403986534" lon="11.237540595177972"><ele>553.4</ele><time>2026-04-11T12:47:59Z</time></trkpt><trkpt lat="44.05982734430263" lon="11.237511739642873"><ele>553.5999999999999</ele><time>2026-04-11T12:48:00.001Z</time></trkpt><trkpt lat="44.05973555776966" lon="11.237515893883856"><ele>553.8</ele><time>2026-04-11T12:48:01Z</time></trkpt><trkpt lat="44.05962105052033" lon="11.23755479061002"><ele>554.0</ele><time>2026-04-11T12:48:02Z</time></trkpt><trkpt lat="44.059496811641225" lon="11.237661870082281"><ele>554.0</ele><time>2026-04-11T12:48:03.001Z</time></trkpt><trkpt lat="44.05939428814875" lon="11.237825068301827"><ele>554.0</ele><time>2026-04-11T12:48:04.001Z</time></trkpt><trkpt lat="44.05931051433992" lon="11.23796125681293"><ele>554.0</ele><time>2026-04-11T12:48:05.001Z</time></trkpt><trkpt lat="44.05921535118982" lon="11.238086748865987"><ele>554.0</ele><time>2026-04-11T12:48:06.001Z</time></trkpt><trkpt lat="44.05911888658174" lon="11.238209587751271"><ele>550.25</ele><time>2026-04-11T12:48:07.001Z</time></trkpt><trkpt lat="44.05902617121277" lon="11.238326551172426"><ele>546.5</ele><time>2026-04-11T12:48:08.001Z</time></trkpt><trkpt lat="44.05893072544359" lon="11.238446958745348"><ele>542.75</ele><time>2026-04-11T12:48:09.001Z</time></trkpt><trkpt lat="44.058829264979664" lon="11.238574954309518"><ele>539.0</ele><time>2026-04-11T12:48:10Z</time></trkpt><trkpt lat="44.05873470599535" lon="11.238688910200068"><ele>539.0</ele><time>2026-04-11T12:48:11Z</time></trkpt><trkpt lat="44.05864452371823" lon="11.2388129807637"><ele>539.0</ele><time>2026-04-11T12:48:12Z</time></trkpt><trkpt lat="44.058548331327486" lon="11.238916819587338"><ele>539.0</ele><time>2026-04-11T12:48:13Z</time></trkpt><trkpt lat="44.0584454276892" lon="11.238996821904696"><ele>539.0</ele><time>2026-04-11T12:48:14Z</time></trkpt><trkpt lat="44.05833825961978" lon="11.239061364116742"><ele>531.75</ele><time>2026-04-11T12:48:15Z</time></trkpt><trkpt lat="44.05821560276706" lon="11.239078350299526"><ele>524.5</ele><time>2026-04-11T12:48:16Z</time></trkpt><trkpt lat="44.05808975016905" lon="11.239070365586054"><ele>517.25</ele><time>2026-04-11T12:48:17Z</time></trkpt><trkpt lat="44.05796643214598" lon="11.239042031611092"><ele>510.0</ele><time>2026-04-11T12:48:18Z</time></trkpt><trkpt lat="44.05784048644691" lon="11.238981441429418"><ele>511.4</ele><time>2026-04-11T12:48:19Z</time></trkpt><trkpt lat="44.05774204237648" lon="11.238889301642317"><ele>512.8</ele><time>2026-04-11T12:48:20Z</time></trkpt><trkpt lat="44.05764625682251" lon="11.238835407710175"><ele>514.2</ele><time>2026-04-11T12:48:21Z</time></trkpt><trkpt lat="44.057574536010115" lon="11.238738782575231"><ele>515.6</ele><time>2026-04-11T12:48:22Z</time></trkpt><trkpt lat="44.057536361466276" lon="11.238645300904626"><ele>517.0</ele><time>2026-04-11T12:48:23Z</time></trkpt><trkpt lat="44.0575181711196" lon="11.238526940457456"><ele>517.0</ele><time>2026-04-11T12:48:24Z</time></trkpt><trkpt lat="44.05752655655512" lon="11.238369510970879"><ele>517.0</ele><time>2026-04-11T12:48:25Z</time></trkpt><trkpt lat="44.05753306896353" lon="11.238208895063762"><ele>517.0</ele><time>2026-04-11T12:48:26Z</time></trkpt><trkpt lat="44.05751884326995" lon="11.238057807453718"><ele>517.0</ele><time>2026-04-11T12:48:27Z</time></trkpt><trkpt lat="44.05748430812527" lon="11.23793662714972"><ele>517.0</ele><time>2026-04-11T12:48:28Z</time></trkpt><trkpt lat="44.05741095305092" lon="11.237836800614447"><ele>515.0</ele><time>2026-04-11T12:48:29Z</time></trkpt><trkpt lat="44.05731240813922" lon="11.237769785552537"><ele>513.0</ele><time>2026-04-11T12:48:30Z</time></trkpt><trkpt lat="44.05718990510825" lon="11.237724754885262"><ele>511.0</ele><time>2026-04-11T12:48:31Z</time></trkpt><trkpt lat="44.05708208004352" lon="11.237697327535505"><ele>509.0</ele><time>2026-04-11T12:48:32Z</time></trkpt><trkpt lat="44.056962425704185" lon="11.237689376481683"><ele>509.0</ele><time>2026-04-11T12:48:33.001Z</time></trkpt><trkpt lat="44.05683265398681" lon="11.237722176587715"><ele>509.0</ele><time>2026-04-11T12:48:34.001Z</time></trkpt><trkpt lat="44.05670210494253" lon="11.237775300208769"><ele>509.0</ele><time>2026-04-11T12:48:35.001Z</time></trkpt><trkpt lat="44.056583454306036" lon="11.23785098848323"><ele>509.0</ele><time>2026-04-11T12:48:36.001Z</time></trkpt><trkpt lat="44.05646238557008" lon="11.237919870083635"><ele>506.25</ele><time>2026-04-11T12:48:37.001Z</time></trkpt><trkpt lat="44.056335715693756" lon="11.237972467015492"><ele>503.5</ele><time>2026-04-11T12:48:38.001Z</time></trkpt><trkpt lat="44.0562100500483" lon="11.237992390510467"><ele>500.75</ele><time>2026-04-11T12:48:39.001Z</time></trkpt><trkpt lat="44.05607454489532" lon="11.238004367471062"><ele>498.0</ele><time>2026-04-11T12:48:40.001Z</time></trkpt><trkpt lat="44.05594563970565" lon="11.238003563155303"><ele>498.0</ele><time>2026-04-11T12:48:41.001Z</time></trkpt><trkpt lat="44.05582102130448" lon="11.237986547554877"><ele>498.0</ele><time>2026-04-11T12:48:42.001Z</time></trkpt><trkpt lat="44.05570858142699" lon="11.237952100669407"><ele>498.0</ele><time>2026-04-11T12:48:43.001Z</time></trkpt><trkpt lat="44.0556023682828" lon="11.23789451090048"><ele>498.0</ele><time>2026-04-11T12:48:44.001Z</time></trkpt><trkpt lat="44.055485770733284" lon="11.237827397930708"><ele>497.5</ele><time>2026-04-11T12:48:45.001Z</time></trkpt><trkpt lat="44.05537618463961" lon="11.237774923106658"><ele>497.0</ele><time>2026-04-11T12:48:46.001Z</time></trkpt><trkpt lat="44.05526613548358" lon="11.237751262021929"><ele>496.5</ele><time>2026-04-11T12:48:47.001Z</time></trkpt><trkpt lat="44.05515969440394" lon="11.237769505340967"><ele>496.0</ele><time>2026-04-11T12:48:48.001Z</time></trkpt><trkpt lat="44.05504527740168" lon="11.237825115027064"><ele>495.75</ele><time>2026-04-11T12:48:49.001Z</time></trkpt><trkpt lat="44.05494591366185" lon="11.237934575180825"><ele>495.5</ele><time>2026-04-11T12:48:50.001Z</time></trkpt><trkpt lat="44.05484372154678" lon="11.238054297042813"><ele>495.25</ele><time>2026-04-11T12:48:51.001Z</time></trkpt><trkpt lat="44.054758098619644" lon="11.238194948553675"><ele>495.0</ele><time>2026-04-11T12:48:52.001Z</time></trkpt><trkpt lat="44.05466459042756" lon="11.238348411283178"><ele>495.0</ele><time>2026-04-11T12:48:53.001Z</time></trkpt><trkpt lat="44.05456152692328" lon="11.238484543170076"><ele>495.0</ele><time>2026-04-11T12:48:54.001Z</time></trkpt><trkpt lat="44.05445178077258" lon="11.238612099715334"><ele>495.0</ele><time>2026-04-11T12:48:55.001Z</time></trkpt><trkpt lat="44.05434488226234" lon="11.238717948123476"><ele>495.0</ele><time>2026-04-11T12:48:56.001Z</time></trkpt><trkpt lat="44.05423525446732" lon="11.238809892549508"><ele>495.0</ele><time>2026-04-11T12:48:57.001Z</time></trkpt><trkpt lat="44.054124414777334" lon="11.238883957325973"><ele>495.0</ele><time>2026-04-11T12:48:58.001Z</time></trkpt><trkpt lat="44.05400249830132" lon="11.238926350503736"><ele>495.0</ele><time>2026-04-11T12:48:59.001Z</time></trkpt><trkpt lat="44.053863317220646" lon="11.238958538327799"><ele>495.0</ele><time>2026-04-11T12:49:00.001Z</time></trkpt><trkpt lat="44.05372420398691" lon="11.238985393406692"><ele>490.75</ele><time>2026-04-11T12:49:01.001Z</time></trkpt><trkpt lat="44.05359191170849" lon="11.239007794166556"><ele>486.5</ele><time>2026-04-11T12:49:02.001Z</time></trkpt><trkpt lat="44.053463491347756" lon="11.23900865565357"><ele>482.25</ele><time>2026-04-11T12:49:03.001Z</time></trkpt><trkpt lat="44.05333345499787" lon="11.23901353424383"><ele>478.0</ele><time>2026-04-11T12:49:04.001Z</time></trkpt><trkpt lat="44.0532028571274" lon="11.239003206166332"><ele>477.75</ele><time>2026-04-11T12:49:05.001Z</time></trkpt><trkpt lat="44.05306609424142" lon="11.238999758722025"><ele>477.5</ele><time>2026-04-11T12:49:06.001Z</time></trkpt><trkpt lat="44.0529348640273" lon="11.239018796458415"><ele>477.25</ele><time>2026-04-11T12:49:07.001Z</time></trkpt><trkpt lat="44.052804507502195" lon="11.239053312661127"><ele>477.0</ele><time>2026-04-11T12:49:08.001Z</time></trkpt><trkpt lat="44.052680948374686" lon="11.239090371878733"><ele>477.0</ele><time>2026-04-11T12:49:09.001Z</time></trkpt><trkpt lat="44.05255106040902" lon="11.239140798711393"><ele>477.0</ele><time>2026-04-11T12:49:10.001Z</time></trkpt><trkpt lat="44.05240935372523" lon="11.239124929411417"><ele>477.0</ele><time>2026-04-11T12:49:11.001Z</time></trkpt><trkpt lat="44.05227693647537" lon="11.239136954174322"><ele>477.0</ele><time>2026-04-11T12:49:12.001Z</time></trkpt><trkpt lat="44.052142393170335" lon="11.239145226552123"><ele>474.25</ele><time>2026-04-11T12:49:13.001Z</time></trkpt><trkpt lat="44.05200660681243" lon="11.239146992281265"><ele>471.5</ele><time>2026-04-11T12:49:14.001Z</time></trkpt><trkpt lat="44.0518612471177" lon="11.23914648186091"><ele>468.75</ele><time>2026-04-11T12:49:15.001Z</time></trkpt><trkpt lat="44.05172369625168" lon="11.239145197390874"><ele>466.0</ele><time>2026-04-11T12:49:16.001Z</time></trkpt><trkpt lat="44.051574946164585" lon="11.239142883927563"><ele>464.5</ele><time>2026-04-11T12:49:17.001Z</time></trkpt><trkpt lat="44.051454532518065" lon="11.239140747036117"><ele>463.0</ele><time>2026-04-11T12:49:18.001Z</time></trkpt><trkpt lat="44.05131131027549" lon="11.239134841959526"><ele>461.5</ele><time>2026-04-11T12:49:19.001Z</time></trkpt><trkpt lat="44.05118166688479" lon="11.239145218709833"><ele>460.0</ele><time>2026-04-11T12:49:20.001Z</time></trkpt><trkpt lat="44.051039981689264" lon="11.239135002635567"><ele>460.0</ele><time>2026-04-11T12:49:21.001Z</time></trkpt><trkpt lat="44.05090021675233" lon="11.239115825419315"><ele>460.0</ele><time>2026-04-11T12:49:22.001Z</time></trkpt><trkpt lat="44.05075428498711" lon="11.239104645237486"><ele>460.0</ele><time>2026-04-11T12:49:23.001Z</time></trkpt><trkpt lat="44.050617057222816" lon="11.23911006768133"><ele>460.0</ele><time>2026-04-11T12:49:24.001Z</time></trkpt><trkpt lat="44.050473905697224" lon="11.23909997003349"><ele>460.0</ele><time>2026-04-11T12:49:25.001Z</time></trkpt><trkpt lat="44.050329973879094" lon="11.239102258076406"><ele>460.0</ele><time>2026-04-11T12:49:26.001Z</time></trkpt><trkpt lat="44.050183193500835" lon="11.239099341295796"><ele>460.0</ele><time>2026-04-11T12:49:27.001Z</time></trkpt><trkpt lat="44.05003816787808" lon="11.239101900761717"><ele>460.0</ele><time>2026-04-11T12:49:28.001Z</time></trkpt><trkpt lat="44.04989526714278" lon="11.239099055275341"><ele>460.0</ele><time>2026-04-11T12:49:29.001Z</time></trkpt><trkpt lat="44.04975998468806" lon="11.239091501222566"><ele>460.0</ele><time>2026-04-11T12:49:30.001Z</time></trkpt><trkpt lat="44.04963121239326" lon="11.23906747259132"><ele>460.0</ele><time>2026-04-11T12:49:31.001Z</time></trkpt><trkpt lat="44.049501189118914" lon="11.239031137083833"><ele>460.0</ele><time>2026-04-11T12:49:32.001Z</time></trkpt><trkpt lat="44.04937510557423" lon="11.23896265599113"><ele>459.75</ele><time>2026-04-11T12:49:33.001Z</time></trkpt><trkpt lat="44.04925448530554" lon="11.238867518648595"><ele>459.5</ele><time>2026-04-11T12:49:34.001Z</time></trkpt><trkpt lat="44.04912898312326" lon="11.23879359229474"><ele>459.25</ele><time>2026-04-11T12:49:35.001Z</time></trkpt><trkpt lat="44.048999153207035" lon="11.238727918793156"><ele>459.0</ele><time>2026-04-11T12:49:36.001Z</time></trkpt><trkpt lat="44.04888278009612" lon="11.238655580957614"><ele>459.0</ele><time>2026-04-11T12:49:37.001Z</time></trkpt><trkpt lat="44.048758614850215" lon="11.23861902645611"><ele>459.0</ele><time>2026-04-11T12:49:38.001Z</time></trkpt><trkpt lat="44.04862309494369" lon="11.23862069337765"><ele>459.0</ele><time>2026-04-11T12:49:39.001Z</time></trkpt><trkpt lat="44.04849081794643" lon="11.23866116611581"><ele>459.0</ele><time>2026-04-11T12:49:40.001Z</time></trkpt><trkpt lat="44.04834895513386" lon="11.238715535845234"><ele>461.0</ele><time>2026-04-11T12:49:41.001Z</time></trkpt><trkpt lat="44.048215864486124" lon="11.238833553233084"><ele>463.0</ele><time>2026-04-11T12:49:42.001Z</time></trkpt><trkpt lat="44.04809209223975" lon="11.238971071318744"><ele>465.0</ele><time>2026-04-11T12:49:43.002Z</time></trkpt><trkpt lat="44.04793928060039" lon="11.239053790621869"><ele>465.0</ele><time>2026-04-11T12:49:44.002Z</time></trkpt><trkpt lat="44.0477741822517" lon="11.239120923994289"><ele>465.0</ele><time>2026-04-11T12:49:45.002Z</time></trkpt><trkpt lat="44.04760870456375" lon="11.239177395817187"><ele>465.0</ele><time>2026-04-11T12:49:46.002Z</time></trkpt><trkpt lat="44.04743122748569" lon="11.239243046033584"><ele>462.33333333333337</ele><time>2026-04-11T12:49:47.002Z</time></trkpt><trkpt lat="44.047256009626665" lon="11.239305115162313"><ele>459.6666666666667</ele><time>2026-04-11T12:49:48.002Z</time></trkpt><trkpt lat="44.04708322353973" lon="11.23937663198419"><ele>457.0</ele><time>2026-04-11T12:49:49.002Z</time></trkpt><trkpt lat="44.04690435605907" lon="11.239423218601413"><ele>457.0</ele><time>2026-04-11T12:49:50.002Z</time></trkpt><trkpt lat="44.04671955268928" lon="11.239474706711006"><ele>457.0</ele><time>2026-04-11T12:49:51.002Z</time></trkpt><trkpt lat="44.046553157259225" lon="11.23951496263876"><ele>457.0</ele><time>2026-04-11T12:49:52.002Z</time></trkpt><trkpt lat="44.0463952848098" lon="11.239555708322195"><ele>454.75</ele><time>2026-04-11T12:49:53.002Z</time></trkpt><trkpt lat="44.046251798054485" lon="11.239590765994217"><ele>452.5</ele><time>2026-04-11T12:49:54.002Z</time></trkpt><trkpt lat="44.04610552968066" lon="11.239610727542894"><ele>450.25</ele><time>2026-04-11T12:49:55.002Z</time></trkpt><trkpt lat="44.045961364699444" lon="11.239617746674028"><ele>448.0</ele><time>2026-04-11T12:49:56.002Z</time></trkpt><trkpt lat="44.045823190739895" lon="11.239644734780825"><ele>447.25</ele><time>2026-04-11T12:49:57.002Z</time></trkpt><trkpt lat="44.04568879026026" lon="11.239708224613905"><ele>446.5</ele><time>2026-04-11T12:49:58.002Z</time></trkpt><trkpt lat="44.04556741291192" lon="11.23983413203526"><ele>445.75</ele><time>2026-04-11T12:49:59.002Z</time></trkpt><trkpt lat="44.045458858555996" lon="11.239970767938438"><ele>445.0</ele><time>2026-04-11T12:50:00.002Z</time></trkpt><trkpt lat="44.045342300656806" lon="11.240141138526374"><ele>445.0</ele><time>2026-04-11T12:50:01.002Z</time></trkpt><trkpt lat="44.04521950025297" lon="11.240301175812473"><ele>445.0</ele><time>2026-04-11T12:50:02.002Z</time></trkpt><trkpt lat="44.0450733217229" lon="11.240437140199228"><ele>445.0</ele><time>2026-04-11T12:50:03Z</time></trkpt><trkpt lat="44.044934758839005" lon="11.240585185067777"><ele>444.33333333333337</ele><time>2026-04-11T12:50:04Z</time></trkpt><trkpt lat="44.044812844638955" lon="11.240713267253922"><ele>443.66666666666663</ele><time>2026-04-11T12:50:05Z</time></trkpt><trkpt lat="44.044678735313674" lon="11.240854160397713"><ele>443.0</ele><time>2026-04-11T12:50:06Z</time></trkpt><trkpt lat="44.04454706302693" lon="11.240992488522181"><ele>443.0</ele><time>2026-04-11T12:50:07Z</time></trkpt><trkpt lat="44.04440484149227" lon="11.24114539903055"><ele>443.0</ele><time>2026-04-11T12:50:08Z</time></trkpt><trkpt lat="44.04427416316568" lon="11.241284821703273"><ele>443.0</ele><time>2026-04-11T12:50:09Z</time></trkpt><trkpt lat="44.04415104484714" lon="11.24141442810802"><ele>439.75</ele><time>2026-04-11T12:50:10Z</time></trkpt><trkpt lat="44.04403569703319" lon="11.241555377584165"><ele>436.5</ele><time>2026-04-11T12:50:11Z</time></trkpt><trkpt lat="44.04390093294062" lon="11.241643406478682"><ele>433.25</ele><time>2026-04-11T12:50:12Z</time></trkpt><trkpt lat="44.04375746150479" lon="11.24168556078701"><ele>430.0</ele><time>2026-04-11T12:50:13Z</time></trkpt><trkpt lat="44.04358103619024" lon="11.241700961840627"><ele>430.0</ele><time>2026-04-11T12:50:14Z</time></trkpt><trkpt lat="44.04341425164827" lon="11.241699184147572"><ele>430.0</ele><time>2026-04-11T12:50:15Z</time></trkpt><trkpt lat="44.04322518807837" lon="11.241686748118989"><ele>430.0</ele><time>2026-04-11T12:50:16Z</time></trkpt><trkpt lat="44.04304403434682" lon="11.241616143867946"><ele>426.6666666666667</ele><time>2026-04-11T12:50:17Z</time></trkpt><trkpt lat="44.0428811076515" lon="11.241528812685146"><ele>423.33333333333337</ele><time>2026-04-11T12:50:18Z</time></trkpt><trkpt lat="44.04272529816841" lon="11.241441694559779"><ele>420.0</ele><time>2026-04-11T12:50:19Z</time></trkpt><trkpt lat="44.04256631229548" lon="11.24137428323403"><ele>409.0</ele><time>2026-04-11T12:50:20Z</time></trkpt><trkpt lat="44.04241679619437" lon="11.241307938122942"><ele>398.0</ele><time>2026-04-11T12:50:21Z</time></trkpt><trkpt lat="44.04226243945002" lon="11.241319478214384"><ele>387.0</ele><time>2026-04-11T12:50:22Z</time></trkpt><trkpt lat="44.04211197331476" lon="11.241373136638583"><ele>392.75</ele><time>2026-04-11T12:50:23Z</time></trkpt><trkpt lat="44.04198688724868" lon="11.241480623728151"><ele>398.5</ele><time>2026-04-11T12:50:24Z</time></trkpt><trkpt lat="44.04189148526704" lon="11.241654815961361"><ele>404.25</ele><time>2026-04-11T12:50:25Z</time></trkpt><trkpt lat="44.04180368107614" lon="11.241813390725946"><ele>410.0</ele><time>2026-04-11T12:50:26Z</time></trkpt><trkpt lat="44.04169428259006" lon="11.241992062820179"><ele>406.75</ele><time>2026-04-11T12:50:27Z</time></trkpt><trkpt lat="44.041589576425366" lon="11.242146344078158"><ele>403.5</ele><time>2026-04-11T12:50:28Z</time></trkpt><trkpt lat="44.041472494820255" lon="11.242270430285886"><ele>400.25</ele><time>2026-04-11T12:50:29Z</time></trkpt><trkpt lat="44.04138219414678" lon="11.242428294558804"><ele>397.0</ele><time>2026-04-11T12:50:30Z</time></trkpt><trkpt lat="44.041333684880016" lon="11.242654058564822"><ele>404.0</ele><time>2026-04-11T12:50:31Z</time></trkpt><trkpt lat="44.0412864118737" lon="11.242852550358455"><ele>411.0</ele><time>2026-04-11T12:50:32Z</time></trkpt><trkpt lat="44.04122810393131" lon="11.243028377085126"><ele>418.0</ele><time>2026-04-11T12:50:33Z</time></trkpt><trkpt lat="44.041142560056514" lon="11.243179257613203"><ele>425.0</ele><time>2026-04-11T12:50:34Z</time></trkpt><trkpt lat="44.04104055476735" lon="11.243308257819647"><ele>425.66666666666663</ele><time>2026-04-11T12:50:35Z</time></trkpt><trkpt lat="44.04090985915076" lon="11.243425077174338"><ele>426.33333333333337</ele><time>2026-04-11T12:50:36Z</time></trkpt><trkpt lat="44.040767860065536" lon="11.243528629139025"><ele>427.0</ele><time>2026-04-11T12:50:37Z</time></trkpt><trkpt lat="44.040642133554186" lon="11.243638705646854"><ele>428.0</ele><time>2026-04-11T12:50:38.001Z</time></trkpt><trkpt lat="44.04053100484559" lon="11.243758625854639"><ele>429.0</ele><time>2026-04-11T12:50:39.001Z</time></trkpt><trkpt lat="44.04042458695843" lon="11.24388108344371"><ele>430.0</ele><time>2026-04-11T12:50:40.001Z</time></trkpt><trkpt lat="44.04029411281466" lon="11.243968461013596"><ele>431.0</ele><time>2026-04-11T12:50:41.001Z</time></trkpt><trkpt lat="44.040154900222646" lon="11.244046251733465"><ele>425.66666666666663</ele><time>2026-04-11T12:50:42.001Z</time></trkpt><trkpt lat="44.04000316582996" lon="11.244065838150796"><ele>420.33333333333337</ele><time>2026-04-11T12:50:43.001Z</time></trkpt><trkpt lat="44.039848427143575" lon="11.244046692491505"><ele>415.0</ele><time>2026-04-11T12:50:44.001Z</time></trkpt><trkpt lat="44.03968198288273" lon="11.244001855840517"><ele>417.6666666666667</ele><time>2026-04-11T12:50:45.001Z</time></trkpt><trkpt lat="44.03951697245639" lon="11.243952259627477"><ele>420.33333333333337</ele><time>2026-04-11T12:50:46.001Z</time></trkpt><trkpt lat="44.03936321390655" lon="11.24389710836582"><ele>423.0</ele><time>2026-04-11T12:50:47.001Z</time></trkpt><trkpt lat="44.03922344346547" lon="11.243822804028246"><ele>417.0</ele><time>2026-04-11T12:50:48.001Z</time></trkpt><trkpt lat="44.03909778053794" lon="11.243724842994324"><ele>411.0</ele><time>2026-04-11T12:50:49.001Z</time></trkpt><trkpt lat="44.0389845031956" lon="11.243599509978884"><ele>405.0</ele><time>2026-04-11T12:50:50.001Z</time></trkpt><trkpt lat="44.038894415041845" lon="11.24343376129746"><ele>399.0</ele><time>2026-04-11T12:50:51.001Z</time></trkpt><trkpt lat="44.038825069538305" lon="11.243250689598021"><ele>400.33333333333337</ele><time>2026-04-11T12:50:52.001Z</time></trkpt><trkpt lat="44.03877362882214" lon="11.24306064130089"><ele>401.6666666666667</ele><time>2026-04-11T12:50:53.001Z</time></trkpt><trkpt lat="44.03871534304999" lon="11.242859604351393"><ele>403.0</ele><time>2026-04-11T12:50:54.001Z</time></trkpt><trkpt lat="44.03864674587864" lon="11.242666348078743"><ele>403.0</ele><time>2026-04-11T12:50:55.001Z</time></trkpt><trkpt lat="44.038557381910984" lon="11.242506883805317"><ele>403.0</ele><time>2026-04-11T12:50:56.001Z</time></trkpt><trkpt lat="44.03843992381502" lon="11.2423829638522"><ele>403.0</ele><time>2026-04-11T12:50:57.001Z</time></trkpt><trkpt lat="44.03830628784503" lon="11.242276284834201"><ele>403.0</ele><time>2026-04-11T12:50:58.001Z</time></trkpt><trkpt lat="44.038161732968284" lon="11.242174946127761"><ele>400.0</ele><time>2026-04-11T12:50:59.001Z</time></trkpt><trkpt lat="44.03800818455369" lon="11.24206322885534"><ele>397.0</ele><time>2026-04-11T12:51:00.001Z</time></trkpt><trkpt lat="44.03785523551613" lon="11.241944072016913"><ele>394.0</ele><time>2026-04-11T12:51:01.001Z</time></trkpt><trkpt lat="44.037707389359596" lon="11.241832761249766"><ele>394.0</ele><time>2026-04-11T12:51:02.001Z</time></trkpt><trkpt lat="44.03755879607665" lon="11.241724946191107"><ele>394.0</ele><time>2026-04-11T12:51:03.001Z</time></trkpt><trkpt lat="44.037398359075496" lon="11.241616956901302"><ele>394.0</ele><time>2026-04-11T12:51:04.001Z</time></trkpt><trkpt lat="44.037225235237706" lon="11.241529058223023"><ele>392.6666666666667</ele><time>2026-04-11T12:51:05.001Z</time></trkpt><trkpt lat="44.03705050082151" lon="11.241469393174983"><ele>391.33333333333337</ele><time>2026-04-11T12:51:06.001Z</time></trkpt><trkpt lat="44.03688894445108" lon="11.241436433896542"><ele>390.0</ele><time>2026-04-11T12:51:07.001Z</time></trkpt><trkpt lat="44.036737974486805" lon="11.241411700961685"><ele>388.25</ele><time>2026-04-11T12:51:08.001Z</time></trkpt><trkpt lat="44.036591548737796" lon="11.241377721203781"><ele>386.5</ele><time>2026-04-11T12:51:09.001Z</time></trkpt><trkpt lat="44.03644089746147" lon="11.24132975787167"><ele>384.75</ele><time>2026-04-11T12:51:10.001Z</time></trkpt><trkpt lat="44.036316761382665" lon="11.241278765155576"><ele>383.0</ele><time>2026-04-11T12:51:11.001Z</time></trkpt><trkpt lat="44.03619766648399" lon="11.241216568737464"><ele>383.0</ele><time>2026-04-11T12:51:12.001Z</time></trkpt><trkpt lat="44.036084595771754" lon="11.2411340814768"><ele>383.0</ele><time>2026-04-11T12:51:13.001Z</time></trkpt><trkpt lat="44.03598085970493" lon="11.24105701082405"><ele>383.0</ele><time>2026-04-11T12:51:14.001Z</time></trkpt><trkpt lat="44.03586769984921" lon="11.240952714682424"><ele>383.0</ele><time>2026-04-11T12:51:15.001Z</time></trkpt><trkpt lat="44.035755674596594" lon="11.240857160956253"><ele>380.75</ele><time>2026-04-11T12:51:16.001Z</time></trkpt><trkpt lat="44.035626052407935" lon="11.240779958153242"><ele>378.5</ele><time>2026-04-11T12:51:17.001Z</time></trkpt><trkpt lat="44.03549622218033" lon="11.240729950148824"><ele>376.25</ele><time>2026-04-11T12:51:18.001Z</time></trkpt><trkpt lat="44.03536410806355" lon="11.240737939715679"><ele>374.0</ele><time>2026-04-11T12:51:19.001Z</time></trkpt><trkpt lat="44.035238280144185" lon="11.240716502513665"><ele>374.0</ele><time>2026-04-11T12:51:20.001Z</time></trkpt><trkpt lat="44.0350924243104" lon="11.240769493642429"><ele>374.0</ele><time>2026-04-11T12:51:21.001Z</time></trkpt><trkpt lat="44.03499636507824" lon="11.240850250801328"><ele>374.0</ele><time>2026-04-11T12:51:22.001Z</time></trkpt><trkpt lat="44.034888989148314" lon="11.240929516765148"><ele>374.0</ele><time>2026-04-11T12:51:23.001Z</time></trkpt><trkpt lat="44.03477858563022" lon="11.240993786287007"><ele>375.25</ele><time>2026-04-11T12:51:24.001Z</time></trkpt><trkpt lat="44.03464812962514" lon="11.240994267692434"><ele>376.5</ele><time>2026-04-11T12:51:25.001Z</time></trkpt><trkpt lat="44.034490644627915" lon="11.240999588184707"><ele>377.75</ele><time>2026-04-11T12:51:26.001Z</time></trkpt><trkpt lat="44.03434397766294" lon="11.241006973213223"><ele>379.0</ele><time>2026-04-11T12:51:27.001Z</time></trkpt><trkpt lat="44.03418545110371" lon="11.241005467236088"><ele>375.0</ele><time>2026-04-11T12:51:28.001Z</time></trkpt><trkpt lat="44.03402139171777" lon="11.240995968373896"><ele>371.0</ele><time>2026-04-11T12:51:29.001Z</time></trkpt><trkpt lat="44.033861142001264" lon="11.24099019913232"><ele>367.0</ele><time>2026-04-11T12:51:30.001Z</time></trkpt><trkpt lat="44.0336990357213" lon="11.240945211746336"><ele>367.0</ele><time>2026-04-11T12:51:31.001Z</time></trkpt><trkpt lat="44.033534750665005" lon="11.240914242960427"><ele>367.0</ele><time>2026-04-11T12:51:32.001Z</time></trkpt><trkpt lat="44.03336724400581" lon="11.240885516962734"><ele>367.0</ele><time>2026-04-11T12:51:33.001Z</time></trkpt><trkpt lat="44.03320404673164" lon="11.240835236690842"><ele>366.0</ele><time>2026-04-11T12:51:34.001Z</time></trkpt><trkpt lat="44.03302881361031" lon="11.240760485230176"><ele>365.0</ele><time>2026-04-11T12:51:35.001Z</time></trkpt><trkpt lat="44.032882457066655" lon="11.240663962764891"><ele>364.0</ele><time>2026-04-11T12:51:36.001Z</time></trkpt><trkpt lat="44.03274141883857" lon="11.240574995309258"><ele>364.0</ele><time>2026-04-11T12:51:37.001Z</time></trkpt><trkpt lat="44.03258432840481" lon="11.240504603808084"><ele>364.0</ele><time>2026-04-11T12:51:38.001Z</time></trkpt><trkpt lat="44.03242141580872" lon="11.240441851674605"><ele>364.0</ele><time>2026-04-11T12:51:39.001Z</time></trkpt><trkpt lat="44.032248683777034" lon="11.240437236194"><ele>359.75</ele><time>2026-04-11T12:51:40.001Z</time></trkpt><trkpt lat="44.03209982610036" lon="11.24046160160315"><ele>355.5</ele><time>2026-04-11T12:51:41.001Z</time></trkpt><trkpt lat="44.031960369191566" lon="11.240489889308021"><ele>351.25</ele><time>2026-04-11T12:51:42.001Z</time></trkpt><trkpt lat="44.03183142577889" lon="11.240502098286496"><ele>347.0</ele><time>2026-04-11T12:51:43.001Z</time></trkpt><trkpt lat="44.03172684173704" lon="11.240454148909803"><ele>341.5</ele><time>2026-04-11T12:51:44.001Z</time></trkpt><trkpt lat="44.031635221493154" lon="11.240360383699985"><ele>336.0</ele><time>2026-04-11T12:51:45.001Z</time></trkpt><trkpt lat="44.03155736330568" lon="11.240205918090396"><ele>330.5</ele><time>2026-04-11T12:51:46.001Z</time></trkpt><trkpt lat="44.031472662133595" lon="11.239984572996567"><ele>325.0</ele><time>2026-04-11T12:51:47.001Z</time></trkpt><trkpt lat="44.03137678207204" lon="11.239752947193264"><ele>324.25</ele><time>2026-04-11T12:51:48.001Z</time></trkpt><trkpt lat="44.03129249612724" lon="11.239536100719977"><ele>323.5</ele><time>2026-04-11T12:51:49.001Z</time></trkpt><trkpt lat="44.03124965396812" lon="11.239369420965987"><ele>322.75</ele><time>2026-04-11T12:51:50.001Z</time></trkpt><trkpt lat="44.03123341009459" lon="11.239223293494984"><ele>322.0</ele><time>2026-04-11T12:51:51.002Z</time></trkpt><trkpt lat="44.03126879496973" lon="11.239060086280816"><ele>320.0</ele><time>2026-04-11T12:51:52.002Z</time></trkpt><trkpt lat="44.031345535753985" lon="11.238872165892863"><ele>318.0</ele><time>2026-04-11T12:51:53.002Z</time></trkpt><trkpt lat="44.03140731689638" lon="11.238712465749538"><ele>316.0</ele><time>2026-04-11T12:51:54.002Z</time></trkpt><trkpt lat="44.03143758953503" lon="11.238545402896724"><ele>314.0</ele><time>2026-04-11T12:51:55.002Z</time></trkpt><trkpt lat="44.03142953337429" lon="11.238384525480507"><ele>314.0</ele><time>2026-04-11T12:51:56.002Z</time></trkpt><trkpt lat="44.03138450759634" lon="11.238255065819985"><ele>314.0</ele><time>2026-04-11T12:51:57.002Z</time></trkpt><trkpt lat="44.031301842329086" lon="11.2381535560076"><ele>314.0</ele><time>2026-04-11T12:51:58.002Z</time></trkpt><trkpt lat="44.031196433349514" lon="11.23810156702981"><ele>314.0</ele><time>2026-04-11T12:51:59.002Z</time></trkpt><trkpt lat="44.03108861906122" lon="11.238112645138052"><ele>314.0</ele><time>2026-04-11T12:52:00.002Z</time></trkpt><trkpt lat="44.0309849249298" lon="11.238183534538528"><ele>314.0</ele><time>2026-04-11T12:52:01.002Z</time></trkpt><trkpt lat="44.03089253222465" lon="11.238311476357577"><ele>314.0</ele><time>2026-04-11T12:52:02.002Z</time></trkpt><trkpt lat="44.03082204740898" lon="11.238467215520917"><ele>314.0</ele><time>2026-04-11T12:52:03.002Z</time></trkpt><trkpt lat="44.03076562554458" lon="11.23857977822572"><ele>314.0</ele><time>2026-04-11T12:52:04.002Z</time></trkpt><trkpt lat="44.03071197390804" lon="11.238650704207537"><ele>314.0</ele><time>2026-04-11T12:52:05.002Z</time></trkpt><trkpt lat="44.0306333068812" lon="11.238732202834766"><ele>313.59999999999997</ele><time>2026-04-11T12:52:07.002Z</time></trkpt><trkpt lat="44.03054733906661" lon="11.23881855978707"><ele>313.2</ele><time>2026-04-11T12:52:09Z</time></trkpt><trkpt lat="44.03048298528668" lon="11.238835899939387"><ele>312.79999999999995</ele><time>2026-04-11T12:52:10Z</time></trkpt><trkpt lat="44.03041446867405" lon="11.238778710719266"><ele>312.4</ele><time>2026-04-11T12:52:11Z</time></trkpt><trkpt lat="44.03033008220306" lon="11.238684431844618"><ele>312.0</ele><time>2026-04-11T12:52:12Z</time></trkpt><trkpt lat="44.030233335580895" lon="11.238596032964326"><ele>312.0</ele><time>2026-04-11T12:52:13Z</time></trkpt><trkpt lat="44.03013017857133" lon="11.238497063603308"><ele>312.0</ele><time>2026-04-11T12:52:14Z</time></trkpt><trkpt lat="44.03003289259009" lon="11.238386337484839"><ele>312.0</ele><time>2026-04-11T12:52:15Z</time></trkpt><trkpt lat="44.02994005347238" lon="11.238275036260841"><ele>312.0</ele><time>2026-04-11T12:52:16Z</time></trkpt><trkpt lat="44.0298356617719" lon="11.238186113617003"><ele>315.25</ele><time>2026-04-11T12:52:17Z</time></trkpt><trkpt lat="44.02973661380149" lon="11.238064910412751"><ele>318.5</ele><time>2026-04-11T12:52:18Z</time></trkpt><trkpt lat="44.02961153661046" lon="11.23797970133925"><ele>321.75</ele><time>2026-04-11T12:52:19Z</time></trkpt><trkpt lat="44.02947888226238" lon="11.237896089901048"><ele>325.0</ele><time>2026-04-11T12:52:20Z</time></trkpt><trkpt lat="44.02934218237112" lon="11.237814390251797"><ele>325.0</ele><time>2026-04-11T12:52:21Z</time></trkpt><trkpt lat="44.02920977301656" lon="11.237740315024714"><ele>325.0</ele><time>2026-04-11T12:52:22Z</time></trkpt><trkpt lat="44.02908537994651" lon="11.237678584356573"><ele>325.0</ele><time>2026-04-11T12:52:23Z</time></trkpt><trkpt lat="44.02896016525652" lon="11.237591372663715"><ele>325.0</ele><time>2026-04-11T12:52:24Z</time></trkpt><trkpt lat="44.02883169548222" lon="11.237509221219172"><ele>323.75</ele><time>2026-04-11T12:52:25Z</time></trkpt><trkpt lat="44.02871648119028" lon="11.23741870549271"><ele>322.5</ele><time>2026-04-11T12:52:26Z</time></trkpt><trkpt lat="44.02860107690454" lon="11.237336750745799"><ele>321.25</ele><time>2026-04-11T12:52:27Z</time></trkpt><trkpt lat="44.02848526789083" lon="11.23724227369661"><ele>320.0</ele><time>2026-04-11T12:52:28Z</time></trkpt><trkpt lat="44.02836955944415" lon="11.237135195461724"><ele>320.6666666666667</ele><time>2026-04-11T12:52:29Z</time></trkpt><trkpt lat="44.02827568662068" lon="11.237004115184732"><ele>321.3333333333333</ele><time>2026-04-11T12:52:30Z</time></trkpt><trkpt lat="44.02816143081418" lon="11.236856168783236"><ele>322.0</ele><time>2026-04-11T12:52:31Z</time></trkpt><trkpt lat="44.02802331278739" lon="11.236737044759916"><ele>322.0</ele><time>2026-04-11T12:52:32Z</time></trkpt><trkpt lat="44.02790147752672" lon="11.236631931821302"><ele>322.0</ele><time>2026-04-11T12:52:33Z</time></trkpt><trkpt lat="44.027769312163905" lon="11.236568748277955"><ele>322.0</ele><time>2026-04-11T12:52:34Z</time></trkpt><trkpt lat="44.027629298243234" lon="11.23653706406294"><ele>322.0</ele><time>2026-04-11T12:52:35Z</time></trkpt><trkpt lat="44.02749905356142" lon="11.236503896488928"><ele>324.0</ele><time>2026-04-11T12:52:36Z</time></trkpt><trkpt lat="44.02737009901156" lon="11.236452318726275"><ele>326.0</ele><time>2026-04-11T12:52:37Z</time></trkpt><trkpt lat="44.02724758084902" lon="11.236422196627219"><ele>328.0</ele><time>2026-04-11T12:52:38Z</time></trkpt><trkpt lat="44.0271410758608" lon="11.236386232200939"><ele>330.0</ele><time>2026-04-11T12:52:39Z</time></trkpt><trkpt lat="44.02704189592378" lon="11.236332427177185"><ele>330.0</ele><time>2026-04-11T12:52:40Z</time></trkpt><trkpt lat="44.02691784969362" lon="11.236281864630746"><ele>330.0</ele><time>2026-04-11T12:52:41Z</time></trkpt><trkpt lat="44.02679415879856" lon="11.236173664110712"><ele>330.0</ele><time>2026-04-11T12:52:42Z</time></trkpt><trkpt lat="44.026672985356754" lon="11.236064120118801"><ele>330.0</ele><time>2026-04-11T12:52:43Z</time></trkpt><trkpt lat="44.02654402465893" lon="11.235976699984931"><ele>326.25</ele><time>2026-04-11T12:52:44Z</time></trkpt><trkpt lat="44.0264092779514" lon="11.23592674761309"><ele>322.5</ele><time>2026-04-11T12:52:45Z</time></trkpt><trkpt lat="44.02627247934673" lon="11.235859275630293"><ele>318.75</ele><time>2026-04-11T12:52:46Z</time></trkpt><trkpt lat="44.02613451555209" lon="11.235854082642073"><ele>315.0</ele><time>2026-04-11T12:52:47Z</time></trkpt><trkpt lat="44.025994034688935" lon="11.235857486705948"><ele>315.0</ele><time>2026-04-11T12:52:48Z</time></trkpt><trkpt lat="44.02586632210694" lon="11.23585917393949"><ele>315.0</ele><time>2026-04-11T12:52:49Z</time></trkpt><trkpt lat="44.02574086914406" lon="11.235848826708908"><ele>315.0</ele><time>2026-04-11T12:52:50Z</time></trkpt><trkpt lat="44.02563164404206" lon="11.235818295944568"><ele>315.0</ele><time>2026-04-11T12:52:51Z</time></trkpt><trkpt lat="44.02552295511072" lon="11.23577203390196"><ele>314.2</ele><time>2026-04-11T12:52:52Z</time></trkpt><trkpt lat="44.02541529244207" lon="11.235721688755874"><ele>313.4</ele><time>2026-04-11T12:52:53.001Z</time></trkpt><trkpt lat="44.02531702747302" lon="11.235665509213575"><ele>312.6</ele><time>2026-04-11T12:52:54.001Z</time></trkpt><trkpt lat="44.0252295354115" lon="11.235615561192157"><ele>311.8</ele><time>2026-04-11T12:52:55.001Z</time></trkpt><trkpt lat="44.025143664535115" lon="11.235574787088469"><ele>311.0</ele><time>2026-04-11T12:52:56.001Z</time></trkpt><trkpt lat="44.025046836449924" lon="11.235529614711787"><ele>309.40000000000003</ele><time>2026-04-11T12:52:57.001Z</time></trkpt><trkpt lat="44.02495120356536" lon="11.23548933932708"><ele>307.8</ele><time>2026-04-11T12:52:58.001Z</time></trkpt><trkpt lat="44.024850518865385" lon="11.235456426761376"><ele>306.20000000000005</ele><time>2026-04-11T12:52:59.001Z</time></trkpt><trkpt lat="44.024740590041745" lon="11.235424761485984"><ele>304.6</ele><time>2026-04-11T12:53:00.001Z</time></trkpt><trkpt lat="44.02462866627622" lon="11.23540303225619"><ele>303.0</ele><time>2026-04-11T12:53:01.001Z</time></trkpt><trkpt lat="44.02451759969415" lon="11.235374887790103"><ele>303.0</ele><time>2026-04-11T12:53:02.001Z</time></trkpt><trkpt lat="44.0244147986184" lon="11.235341954812759"><ele>303.0</ele><time>2026-04-11T12:53:03.001Z</time></trkpt><trkpt lat="44.02430795689469" lon="11.23532039775023"><ele>303.0</ele><time>2026-04-11T12:53:04.001Z</time></trkpt><trkpt lat="44.02419865577414" lon="11.235302478047068"><ele>303.0</ele><time>2026-04-11T12:53:05.001Z</time></trkpt><trkpt lat="44.024094781712776" lon="11.235275677413492"><ele>303.0</ele><time>2026-04-11T12:53:06.001Z</time></trkpt><trkpt lat="44.02398538245963" lon="11.235251373639896"><ele>302.0</ele><time>2026-04-11T12:53:07.001Z</time></trkpt><trkpt lat="44.02387592381195" lon="11.235229755422242"><ele>301.0</ele><time>2026-04-11T12:53:08.001Z</time></trkpt><trkpt lat="44.02376275556181" lon="11.23520347974838"><ele>300.0</ele><time>2026-04-11T12:53:09.001Z</time></trkpt><trkpt lat="44.023654460185554" lon="11.23516470853811"><ele>299.0</ele><time>2026-04-11T12:53:10.001Z</time></trkpt><trkpt lat="44.02353165029298" lon="11.235161178538368"><ele>299.0</ele><time>2026-04-11T12:53:11.001Z</time></trkpt><trkpt lat="44.02343096611253" lon="11.235110581092492"><ele>299.0</ele><time>2026-04-11T12:53:12.001Z</time></trkpt><trkpt lat="44.023315904747676" lon="11.235061427222552"><ele>299.0</ele><time>2026-04-11T12:53:13.001Z</time></trkpt><trkpt lat="44.02321212679827" lon="11.235018986960666"><ele>299.0</ele><time>2026-04-11T12:53:14.001Z</time></trkpt><trkpt lat="44.023097463701525" lon="11.234958527884139"><ele>298.75</ele><time>2026-04-11T12:53:15.001Z</time></trkpt><trkpt lat="44.02297748586234" lon="11.234904979474948"><ele>298.5</ele><time>2026-04-11T12:53:16.001Z</time></trkpt><trkpt lat="44.022845731913385" lon="11.234810640231842"><ele>298.25</ele><time>2026-04-11T12:53:17.001Z</time></trkpt><trkpt lat="44.02271334569871" lon="11.234709504591798"><ele>298.0</ele><time>2026-04-11T12:53:18.001Z</time></trkpt><trkpt lat="44.022579565013" lon="11.234602751870552"><ele>297.75</ele><time>2026-04-11T12:53:19.001Z</time></trkpt><trkpt lat="44.02244421602574" lon="11.234476884605568"><ele>297.5</ele><time>2026-04-11T12:53:20.001Z</time></trkpt><trkpt lat="44.02231835917521" lon="11.234364338248602"><ele>297.25</ele><time>2026-04-11T12:53:21.001Z</time></trkpt><trkpt lat="44.02221484240601" lon="11.23426109130275"><ele>297.0</ele><time>2026-04-11T12:53:22.001Z</time></trkpt><trkpt lat="44.022129614027335" lon="11.234168192988271"><ele>297.0</ele><time>2026-04-11T12:53:23.001Z</time></trkpt><trkpt lat="44.02205614551511" lon="11.234095836687136"><ele>297.0</ele><time>2026-04-11T12:53:24.001Z</time></trkpt><trkpt lat="44.021982825830165" lon="11.23402362799835"><ele>297.0</ele><time>2026-04-11T12:53:25.001Z</time></trkpt><trkpt lat="44.02190859121584" lon="11.23392265563978"><ele>297.0</ele><time>2026-04-11T12:53:26.001Z</time></trkpt><trkpt lat="44.0218290243463" lon="11.233805144138776"><ele>297.0</ele><time>2026-04-11T12:53:27.001Z</time></trkpt><trkpt lat="44.021760820403735" lon="11.233696870309112"><ele>297.2</ele><time>2026-04-11T12:53:28.001Z</time></trkpt><trkpt lat="44.0216940225539" lon="11.233604462444672"><ele>297.4</ele><time>2026-04-11T12:53:29.001Z</time></trkpt><trkpt lat="44.02162820334383" lon="11.233506237309443"><ele>297.6</ele><time>2026-04-11T12:53:30.001Z</time></trkpt><trkpt lat="44.02156391187943" lon="11.233400810882982"><ele>297.8</ele><time>2026-04-11T12:53:31.001Z</time></trkpt><trkpt lat="44.021499321704304" lon="11.233294123842404"><ele>298.0</ele><time>2026-04-11T12:53:32.001Z</time></trkpt><trkpt lat="44.02143273148403" lon="11.233182271335847"><ele>297.75</ele><time>2026-04-11T12:53:33.001Z</time></trkpt><trkpt lat="44.021355491041426" lon="11.233067676971896"><ele>297.5</ele><time>2026-04-11T12:53:34.001Z</time></trkpt><trkpt lat="44.02127999389575" lon="11.232956200980412"><ele>297.25</ele><time>2026-04-11T12:53:35.001Z</time></trkpt><trkpt lat="44.02120154095129" lon="11.23282943855556"><ele>297.0</ele><time>2026-04-11T12:53:36.001Z</time></trkpt><trkpt lat="44.021110107449374" lon="11.232692451743914"><ele>297.0</ele><time>2026-04-11T12:53:37.001Z</time></trkpt><trkpt lat="44.02102319863991" lon="11.232563752999384"><ele>297.0</ele><time>2026-04-11T12:53:38.001Z</time></trkpt><trkpt lat="44.02093935371955" lon="11.232432044160532"><ele>297.0</ele><time>2026-04-11T12:53:39.001Z</time></trkpt><trkpt lat="44.020853427067635" lon="11.232300406565196"><ele>297.0</ele><time>2026-04-11T12:53:40.001Z</time></trkpt><trkpt lat="44.02076619426861" lon="11.232168274115985"><ele>297.25</ele><time>2026-04-11T12:53:41.001Z</time></trkpt><trkpt lat="44.020700149291905" lon="11.232047538549342"><ele>297.5</ele><time>2026-04-11T12:53:42.001Z</time></trkpt><trkpt lat="44.02061093464479" lon="11.231910244120765"><ele>297.75</ele><time>2026-04-11T12:53:43.001Z</time></trkpt><trkpt lat="44.02052364986774" lon="11.231796145561116"><ele>298.0</ele><time>2026-04-11T12:53:44.001Z</time></trkpt><trkpt lat="44.02042181202344" lon="11.231671432203887"><ele>298.0</ele><time>2026-04-11T12:53:45.001Z</time></trkpt><trkpt lat="44.02032989428299" lon="11.23152859186078"><ele>298.0</ele><time>2026-04-11T12:53:46.001Z</time></trkpt><trkpt lat="44.02022433129012" lon="11.231390391780707"><ele>298.0</ele><time>2026-04-11T12:53:47.001Z</time></trkpt><trkpt lat="44.02013395550926" lon="11.231251514658481"><ele>298.0</ele><time>2026-04-11T12:53:48.001Z</time></trkpt><trkpt lat="44.020059067949624" lon="11.231117001970949"><ele>297.75</ele><time>2026-04-11T12:53:49.001Z</time></trkpt><trkpt lat="44.019976567483866" lon="11.230990197522209"><ele>297.5</ele><time>2026-04-11T12:53:50.001Z</time></trkpt><trkpt lat="44.01989516977989" lon="11.230866626135754"><ele>297.25</ele><time>2026-04-11T12:53:51.001Z</time></trkpt><trkpt lat="44.019819205084445" lon="11.230754385009208"><ele>297.0</ele><time>2026-04-11T12:53:52.001Z</time></trkpt><trkpt lat="44.019741854553686" lon="11.230640096272111"><ele>297.4</ele><time>2026-04-11T12:53:53.001Z</time></trkpt><trkpt lat="44.01968645708841" lon="11.230563765798903"><ele>297.79999999999995</ele><time>2026-04-11T12:53:54.001Z</time></trkpt><trkpt lat="44.0196141703748" lon="11.230426924975257"><ele>298.2</ele><time>2026-04-11T12:53:55.001Z</time></trkpt><trkpt lat="44.01954340956289" lon="11.230294224327617"><ele>298.59999999999997</ele><time>2026-04-11T12:53:56.001Z</time></trkpt><trkpt lat="44.01948528313502" lon="11.230181918117683"><ele>299.0</ele><time>2026-04-11T12:53:57.001Z</time></trkpt><trkpt lat="44.01941204721467" lon="11.230068595197531"><ele>299.0</ele><time>2026-04-11T12:53:58.001Z</time></trkpt><trkpt lat="44.01932287009046" lon="11.229963401648703"><ele>299.0</ele><time>2026-04-11T12:53:59.001Z</time></trkpt><trkpt lat="44.019254854146446" lon="11.229861689497922"><ele>299.0</ele><time>2026-04-11T12:54:00.001Z</time></trkpt><trkpt lat="44.019182566969306" lon="11.229752665487716"><ele>299.0</ele><time>2026-04-11T12:54:01.001Z</time></trkpt><trkpt lat="44.01911769466167" lon="11.229658648821157"><ele>299.0</ele><time>2026-04-11T12:54:02.001Z</time></trkpt><trkpt lat="44.01904934888048" lon="11.229567286427015"><ele>299.33333333333337</ele><time>2026-04-11T12:54:03.002Z</time></trkpt><trkpt lat="44.01898715562767" lon="11.229484918317146"><ele>299.6666666666667</ele><time>2026-04-11T12:54:04.002Z</time></trkpt><trkpt lat="44.01893535598222" lon="11.229414131792442"><ele>300.0</ele><time>2026-04-11T12:54:05.002Z</time></trkpt><trkpt lat="44.018902987205394" lon="11.229330453956917"><ele>300.3333333333333</ele><time>2026-04-11T12:54:07.002Z</time></trkpt><trkpt lat="44.018858733098675" lon="11.229265447089553"><ele>300.66666666666663</ele><time>2026-04-11T12:54:13.002Z</time></trkpt><trkpt lat="44.01876274200042" lon="11.229338904719203"><ele>301.0</ele><time>2026-04-11T12:54:15Z</time></trkpt><trkpt lat="44.01869672384703" lon="11.229422372518451"><ele>301.0</ele><time>2026-04-11T12:54:16Z</time></trkpt><trkpt lat="44.01862671885931" lon="11.229540909911881"><ele>301.0</ele><time>2026-04-11T12:54:17Z</time></trkpt><trkpt lat="44.018549373886444" lon="11.22964249177616"><ele>301.0</ele><time>2026-04-11T12:54:18Z</time></trkpt><trkpt lat="44.01845973240293" lon="11.229753567771416"><ele>301.0</ele><time>2026-04-11T12:54:19Z</time></trkpt><trkpt lat="44.01835985351605" lon="11.229868152307237"><ele>299.25</ele><time>2026-04-11T12:54:20Z</time></trkpt><trkpt lat="44.01826486041865" lon="11.229973725773243"><ele>297.5</ele><time>2026-04-11T12:54:21Z</time></trkpt><trkpt lat="44.018166637630344" lon="11.23008288854569"><ele>295.75</ele><time>2026-04-11T12:54:22Z</time></trkpt><trkpt lat="44.018064609042135" lon="11.23020353056295"><ele>294.0</ele><time>2026-04-11T12:54:23Z</time></trkpt><trkpt lat="44.01796661899415" lon="11.230331789555827"><ele>294.0</ele><time>2026-04-11T12:54:24Z</time></trkpt><trkpt lat="44.01787479416528" lon="11.23045957072122"><ele>294.0</ele><time>2026-04-11T12:54:25Z</time></trkpt><trkpt lat="44.01779496076915" lon="11.230594236131621"><ele>294.0</ele><time>2026-04-11T12:54:26Z</time></trkpt><trkpt lat="44.01771654204813" lon="11.230712584018947"><ele>294.0</ele><time>2026-04-11T12:54:27Z</time></trkpt><trkpt lat="44.017651800178704" lon="11.230802028232699"><ele>294.1666666666667</ele><time>2026-04-11T12:54:28Z</time></trkpt><trkpt lat="44.01758404522208" lon="11.230865996206177"><ele>294.3333333333333</ele><time>2026-04-11T12:54:29Z</time></trkpt><trkpt lat="44.01752511422691" lon="11.230941538482721"><ele>294.5</ele><time>2026-04-11T12:54:30Z</time></trkpt><trkpt lat="44.01746310898268" lon="11.231002738482049"><ele>294.66666666666663</ele><time>2026-04-11T12:54:31Z</time></trkpt><trkpt lat="44.01740786892357" lon="11.231061694407524"><ele>294.8333333333333</ele><time>2026-04-11T12:54:32Z</time></trkpt><trkpt lat="44.017303016522035" lon="11.231172122707827"><ele>295.0</ele><time>2026-04-11T12:54:34Z</time></trkpt><trkpt lat="44.017245163626875" lon="11.23124448964094"><ele>294.5</ele><time>2026-04-11T12:54:35Z</time></trkpt><trkpt lat="44.01719100935611" lon="11.23132670472533"><ele>294.0</ele><time>2026-04-11T12:54:36Z</time></trkpt><trkpt lat="44.01714078382066" lon="11.231404129481843"><ele>293.5</ele><time>2026-04-11T12:54:37Z</time></trkpt><trkpt lat="44.017098715864144" lon="11.231489222992348"><ele>293.0</ele><time>2026-04-11T12:54:38Z</time></trkpt><trkpt lat="44.017056279302174" lon="11.231559545387165"><ele>292.5</ele><time>2026-04-11T12:54:39Z</time></trkpt><trkpt lat="44.016947336430974" lon="11.231700692189083"><ele>292.0</ele><time>2026-04-11T12:54:41Z</time></trkpt><trkpt lat="44.016882999578236" lon="11.231756373710796"><ele>292.0</ele><time>2026-04-11T12:54:42Z</time></trkpt><trkpt lat="44.01681623097624" lon="11.23177882973503"><ele>292.0</ele><time>2026-04-11T12:54:43Z</time></trkpt><trkpt lat="44.01672013989531" lon="11.23183442652773"><ele>292.0</ele><time>2026-04-11T12:54:45Z</time></trkpt><trkpt lat="44.01662919385185" lon="11.231678181201662"><ele>292.0</ele><time>2026-04-11T12:54:46Z</time></trkpt><trkpt lat="44.016587158046306" lon="11.23158902482774"><ele>292.0</ele><time>2026-04-11T12:54:47Z</time></trkpt><trkpt lat="44.01654084332738" lon="11.231469239166488"><ele>291.5</ele><time>2026-04-11T12:54:48Z</time></trkpt><trkpt lat="44.01647911592739" lon="11.231327109564331"><ele>291.0</ele><time>2026-04-11T12:54:49Z</time></trkpt><trkpt lat="44.01639143949762" lon="11.231159259119314"><ele>290.5</ele><time>2026-04-11T12:54:50Z</time></trkpt><trkpt lat="44.01629358992988" lon="11.230988273232532"><ele>290.0</ele><time>2026-04-11T12:54:51Z</time></trkpt><trkpt lat="44.016191347236365" lon="11.230813764688993"><ele>291.6666666666667</ele><time>2026-04-11T12:54:52Z</time></trkpt><trkpt lat="44.016086483132604" lon="11.230638593144343"><ele>293.3333333333333</ele><time>2026-04-11T12:54:53Z</time></trkpt><trkpt lat="44.01599049719125" lon="11.230473862191197"><ele>295.0</ele><time>2026-04-11T12:54:54Z</time></trkpt><trkpt lat="44.0159072434358" lon="11.230324301975289"><ele>295.0</ele><time>2026-04-11T12:54:55Z</time></trkpt><trkpt lat="44.01584272412552" lon="11.230186588717343"><ele>295.0</ele><time>2026-04-11T12:54:56Z</time></trkpt><trkpt lat="44.015809388040495" lon="11.230073262346144"><ele>295.0</ele><time>2026-04-11T12:54:57Z</time></trkpt><trkpt lat="44.01574416135649" lon="11.230015306287429"><ele>295.0</ele><time>2026-04-11T12:54:58.001Z</time></trkpt><trkpt lat="44.015656478976865" lon="11.230012653860864"><ele>295.0</ele><time>2026-04-11T12:54:59.001Z</time></trkpt><trkpt lat="44.015567980341345" lon="11.230114792172966"><ele>295.66666666666663</ele><time>2026-04-11T12:55:00.001Z</time></trkpt><trkpt lat="44.01544790623049" lon="11.230224321965776"><ele>296.3333333333333</ele><time>2026-04-11T12:55:01.001Z</time></trkpt><trkpt lat="44.01526457433673" lon="11.230280315459677"><ele>297.0</ele><time>2026-04-11T12:55:02.001Z</time></trkpt><trkpt lat="44.0150632700239" lon="11.230385908305943"><ele>298.0</ele><time>2026-04-11T12:55:03.001Z</time></trkpt><trkpt lat="44.014844362736774" lon="11.230448436039078"><ele>299.0</ele><time>2026-04-11T12:55:04.001Z</time></trkpt><trkpt lat="44.014619668750285" lon="11.230475158911744"><ele>300.0</ele><time>2026-04-11T12:55:05.001Z</time></trkpt><trkpt lat="44.01439516283508" lon="11.230462194541444"><ele>300.0</ele><time>2026-04-11T12:55:06.001Z</time></trkpt><trkpt lat="44.01416466486936" lon="11.230416501345172"><ele>300.0</ele><time>2026-04-11T12:55:07.001Z</time></trkpt><trkpt lat="44.013923048048355" lon="11.230334460694577"><ele>297.5</ele><time>2026-04-11T12:55:08.001Z</time></trkpt><trkpt lat="44.0136719883225" lon="11.230296407668273"><ele>295.0</ele><time>2026-04-11T12:55:09.001Z</time></trkpt><trkpt lat="44.0134637956365" lon="11.23021752749484"><ele>293.0</ele><time>2026-04-11T12:55:10.001Z</time></trkpt><trkpt lat="44.0132641370692" lon="11.230095516098496"><ele>291.0</ele><time>2026-04-11T12:55:11.001Z</time></trkpt><trkpt lat="44.01306390565478" lon="11.230051411559193"><ele>289.0</ele><time>2026-04-11T12:55:12.001Z</time></trkpt><trkpt lat="44.01287762981103" lon="11.229974416097823"><ele>289.0</ele><time>2026-04-11T12:55:13.001Z</time></trkpt><trkpt lat="44.012693924613465" lon="11.22988228594179"><ele>289.0</ele><time>2026-04-11T12:55:14.001Z</time></trkpt><trkpt lat="44.01249372321457" lon="11.229816035645772"><ele>289.0</ele><time>2026-04-11T12:55:15.001Z</time></trkpt><trkpt lat="44.01229198527736" lon="11.22974593183065"><ele>289.3333333333333</ele><time>2026-04-11T12:55:16.001Z</time></trkpt><trkpt lat="44.01207597375826" lon="11.229707026241128"><ele>289.6666666666667</ele><time>2026-04-11T12:55:17.001Z</time></trkpt><trkpt lat="44.01186302683254" lon="11.229705406857464"><ele>290.0</ele><time>2026-04-11T12:55:18.001Z</time></trkpt><trkpt lat="44.01165096116163" lon="11.229738990569384"><ele>291.33333333333337</ele><time>2026-04-11T12:55:19.001Z</time></trkpt><trkpt lat="44.01146341179261" lon="11.229801678037061"><ele>292.6666666666667</ele><time>2026-04-11T12:55:20.001Z</time></trkpt><trkpt lat="44.01127467667789" lon="11.229909524518368"><ele>294.0</ele><time>2026-04-11T12:55:21.001Z</time></trkpt><trkpt lat="44.01109413708389" lon="11.230020979246445"><ele>294.0</ele><time>2026-04-11T12:55:22.001Z</time></trkpt><trkpt lat="44.01093562216909" lon="11.230188654226897"><ele>294.0</ele><time>2026-04-11T12:55:23.001Z</time></trkpt><trkpt lat="44.01077028813029" lon="11.230363421415099"><ele>294.0</ele><time>2026-04-11T12:55:24.001Z</time></trkpt><trkpt lat="44.01058822910782" lon="11.230536168636435"><ele>291.3333333333333</ele><time>2026-04-11T12:55:25.001Z</time></trkpt><trkpt lat="44.010399522534264" lon="11.230644092416863"><ele>288.66666666666663</ele><time>2026-04-11T12:55:26.001Z</time></trkpt><trkpt lat="44.01021270628011" lon="11.230723374848365"><ele>286.0</ele><time>2026-04-11T12:55:27.001Z</time></trkpt><trkpt lat="44.0100152117728" lon="11.230779187950695"><ele>285.0</ele><time>2026-04-11T12:55:28.001Z</time></trkpt><trkpt lat="44.00982416053742" lon="11.230800273718495"><ele>284.0</ele><time>2026-04-11T12:55:29.001Z</time></trkpt><trkpt lat="44.00963148608199" lon="11.230794725932903"><ele>283.0</ele><time>2026-04-11T12:55:30.001Z</time></trkpt><trkpt lat="44.00945623834322" lon="11.230745489227717"><ele>283.0</ele><time>2026-04-11T12:55:31.001Z</time></trkpt><trkpt lat="44.00926773863378" lon="11.230701673425054"><ele>283.0</ele><time>2026-04-11T12:55:32.001Z</time></trkpt><trkpt lat="44.00908647320532" lon="11.230598905585701"><ele>283.0</ele><time>2026-04-11T12:55:33.001Z</time></trkpt><trkpt lat="44.008934464555814" lon="11.230463766423844"><ele>290.66666666666663</ele><time>2026-04-11T12:55:34.001Z</time></trkpt><trkpt lat="44.00879354033859" lon="11.2303118266764"><ele>298.3333333333333</ele><time>2026-04-11T12:55:35.001Z</time></trkpt><trkpt lat="44.00864119283137" lon="11.23017506889827"><ele>306.0</ele><time>2026-04-11T12:55:36.001Z</time></trkpt><trkpt lat="44.00849223014153" lon="11.230046286283686"><ele>306.0</ele><time>2026-04-11T12:55:37.001Z</time></trkpt><trkpt lat="44.00834355117919" lon="11.229909534408364"><ele>306.0</ele><time>2026-04-11T12:55:38.001Z</time></trkpt><trkpt lat="44.00819618408615" lon="11.229778311867719"><ele>306.0</ele><time>2026-04-11T12:55:39.001Z</time></trkpt><trkpt lat="44.00804473535898" lon="11.229634598732389"><ele>309.0</ele><time>2026-04-11T12:55:40.001Z</time></trkpt><trkpt lat="44.007893870835105" lon="11.229493549947826"><ele>312.0</ele><time>2026-04-11T12:55:41.001Z</time></trkpt><trkpt lat="44.007747482559346" lon="11.22935010461772"><ele>315.0</ele><time>2026-04-11T12:55:42.001Z</time></trkpt><trkpt lat="44.007592717754555" lon="11.229237416197742"><ele>315.0</ele><time>2026-04-11T12:55:43.001Z</time></trkpt><trkpt lat="44.0074433794947" lon="11.229104514780726"><ele>315.0</ele><time>2026-04-11T12:55:44.001Z</time></trkpt><trkpt lat="44.0072957147415" lon="11.22897310273577"><ele>315.0</ele><time>2026-04-11T12:55:45.001Z</time></trkpt><trkpt lat="44.00715911534094" lon="11.228851538044822"><ele>314.3333333333333</ele><time>2026-04-11T12:55:46.001Z</time></trkpt><trkpt lat="44.00702957903277" lon="11.228736259004819"><ele>313.66666666666663</ele><time>2026-04-11T12:55:47.001Z</time></trkpt><trkpt lat="44.00688093854426" lon="11.228603359979003"><ele>313.0</ele><time>2026-04-11T12:55:48.137Z</time></trkpt><trkpt lat="44.00666990891154" lon="11.228415061452244"><ele>312.5</ele><time>2026-04-11T12:55:50.001Z</time></trkpt><trkpt lat="44.00652507460178" lon="11.228293626287165"><ele>312.0</ele><time>2026-04-11T12:55:51.001Z</time></trkpt><trkpt lat="44.006450670803545" lon="11.228234185164718"><ele>311.5</ele><time>2026-04-11T12:55:52.001Z</time></trkpt><trkpt lat="44.00631809460885" lon="11.22813924589592"><ele>311.0</ele><time>2026-04-11T12:55:53.001Z</time></trkpt><trkpt lat="44.00617732129817" lon="11.228060581800042"><ele>313.0</ele><time>2026-04-11T12:55:54.001Z</time></trkpt><trkpt lat="44.00603790475937" lon="11.2279750079711"><ele>315.0</ele><time>2026-04-11T12:55:55.001Z</time></trkpt><trkpt lat="44.005888080292934" lon="11.22792868640815"><ele>317.0</ele><time>2026-04-11T12:55:56.001Z</time></trkpt><trkpt lat="44.00571960060004" lon="11.227898972680919"><ele>318.0</ele><time>2026-04-11T12:55:57.001Z</time></trkpt><trkpt lat="44.00555999020221" lon="11.227887208848207"><ele>319.0</ele><time>2026-04-11T12:55:58.001Z</time></trkpt><trkpt lat="44.00539914477598" lon="11.227901712157484"><ele>320.0</ele><time>2026-04-11T12:55:59.001Z</time></trkpt><trkpt lat="44.005240507720416" lon="11.227937624237498"><ele>320.0</ele><time>2026-04-11T12:56:00.001Z</time></trkpt><trkpt lat="44.005071878016466" lon="11.227996476839158"><ele>320.0</ele><time>2026-04-11T12:56:01.001Z</time></trkpt><trkpt lat="44.00489650929085" lon="11.228082386319672"><ele>320.0</ele><time>2026-04-11T12:56:02.001Z</time></trkpt><trkpt lat="44.00472946232898" lon="11.22818414260904"><ele>315.6666666666667</ele><time>2026-04-11T12:56:03.001Z</time></trkpt><trkpt lat="44.00457415800743" lon="11.228288091089345"><ele>311.3333333333333</ele><time>2026-04-11T12:56:04.001Z</time></trkpt><trkpt lat="44.00442088158049" lon="11.228397871429836"><ele>307.0</ele><time>2026-04-11T12:56:05.001Z</time></trkpt><trkpt lat="44.00426092318139" lon="11.228506380398665"><ele>307.0</ele><time>2026-04-11T12:56:06.001Z</time></trkpt><trkpt lat="44.004099734789115" lon="11.228619519732524"><ele>307.0</ele><time>2026-04-11T12:56:07.002Z</time></trkpt><trkpt lat="44.00394153622932" lon="11.228730130722987"><ele>307.0</ele><time>2026-04-11T12:56:08.002Z</time></trkpt><trkpt lat="44.00377151735098" lon="11.228823242204827"><ele>307.0</ele><time>2026-04-11T12:56:09.002Z</time></trkpt><trkpt lat="44.00360611254716" lon="11.228932656059738"><ele>307.0</ele><time>2026-04-11T12:56:10.002Z</time></trkpt><trkpt lat="44.0034516793513" lon="11.229037416086687"><ele>307.0</ele><time>2026-04-11T12:56:11.002Z</time></trkpt><trkpt lat="44.00330331111567" lon="11.229140107132615"><ele>307.0</ele><time>2026-04-11T12:56:12.002Z</time></trkpt><trkpt lat="44.003160504018474" lon="11.229239068098256"><ele>307.0</ele><time>2026-04-11T12:56:13.002Z</time></trkpt><trkpt lat="44.00302741046903" lon="11.22933032577075"><ele>307.0</ele><time>2026-04-11T12:56:14.002Z</time></trkpt><trkpt lat="44.0028996487388" lon="11.229417592566467"><ele>307.0</ele><time>2026-04-11T12:56:15.002Z</time></trkpt><trkpt lat="44.002780172970354" lon="11.22949919949641"><ele>307.0</ele><time>2026-04-11T12:56:16.002Z</time></trkpt><trkpt lat="44.00265857932497" lon="11.229584043203788"><ele>307.0</ele><time>2026-04-11T12:56:17.002Z</time></trkpt><trkpt lat="44.00252979678782" lon="11.229673514915474"><ele>307.0</ele><time>2026-04-11T12:56:18.002Z</time></trkpt><trkpt lat="44.002399357587095" lon="11.229771781075705"><ele>306.3333333333333</ele><time>2026-04-11T12:56:19.002Z</time></trkpt><trkpt lat="44.002250772175124" lon="11.229831866616546"><ele>305.6666666666667</ele><time>2026-04-11T12:56:20.002Z</time></trkpt><trkpt lat="44.002099066275775" lon="11.229879294531782"><ele>305.0</ele><time>2026-04-11T12:56:21Z</time></trkpt><trkpt lat="44.00194544737125" lon="11.229918383143714"><ele>305.0</ele><time>2026-04-11T12:56:21.999Z</time></trkpt><trkpt lat="44.00179256451528" lon="11.229962576680622"><ele>305.0</ele><time>2026-04-11T12:56:22.999Z</time></trkpt><trkpt lat="44.00163802482797" lon="11.230002881027735"><ele>305.0</ele><time>2026-04-11T12:56:24Z</time></trkpt><trkpt lat="44.001485318813295" lon="11.230047451033823"><ele>303.0</ele><time>2026-04-11T12:56:25Z</time></trkpt><trkpt lat="44.00134146900333" lon="11.230102475884063"><ele>301.0</ele><time>2026-04-11T12:56:26Z</time></trkpt><trkpt lat="44.001213059095896" lon="11.230172982282895"><ele>299.0</ele><time>2026-04-11T12:56:27Z</time></trkpt><trkpt lat="44.00107973281493" lon="11.230243611842216"><ele>297.0</ele><time>2026-04-11T12:56:27.999Z</time></trkpt><trkpt lat="44.00095967925274" lon="11.23033485298485"><ele>297.0</ele><time>2026-04-11T12:56:28.999Z</time></trkpt><trkpt lat="44.00084129175053" lon="11.230428958453599"><ele>297.0</ele><time>2026-04-11T12:56:30Z</time></trkpt><trkpt lat="44.00072759480131" lon="11.23052535817528"><ele>297.0</ele><time>2026-04-11T12:56:30.999Z</time></trkpt><trkpt lat="44.0006160148309" lon="11.23061644442902"><ele>297.0</ele><time>2026-04-11T12:56:31.999Z</time></trkpt><trkpt lat="44.00050650171179" lon="11.230703440162138"><ele>297.4</ele><time>2026-04-11T12:56:32.999Z</time></trkpt><trkpt lat="44.00039883548253" lon="11.230788968868536"><ele>297.79999999999995</ele><time>2026-04-11T12:56:34Z</time></trkpt><trkpt lat="44.00029827766544" lon="11.230868850760597"><ele>298.2</ele><time>2026-04-11T12:56:35Z</time></trkpt><trkpt lat="44.00020896961248" lon="11.230944402856794"><ele>298.59999999999997</ele><time>2026-04-11T12:56:36Z</time></trkpt><trkpt lat="44.000124485455146" lon="11.231013035609415"><ele>299.0</ele><time>2026-04-11T12:56:37Z</time></trkpt><trkpt lat="44.00004410268588" lon="11.231078561808793"><ele>299.0</ele><time>2026-04-11T12:56:38Z</time></trkpt><trkpt lat="43.999970189713856" lon="11.231135712526104"><ele>299.0</ele><time>2026-04-11T12:56:39Z</time></trkpt><trkpt lat="43.999898511279355" lon="11.231188522156124"><ele>299.0</ele><time>2026-04-11T12:56:40Z</time></trkpt><trkpt lat="43.99982995917569" lon="11.231236171345463"><ele>299.0</ele><time>2026-04-11T12:56:41Z</time></trkpt><trkpt lat="43.99976882798588" lon="11.231277205900449"><ele>299.0</ele><time>2026-04-11T12:56:42Z</time></trkpt><trkpt lat="43.9997056070889" lon="11.231317870192884"><ele>299.0</ele><time>2026-04-11T12:56:43Z</time></trkpt><trkpt lat="43.99960684089625" lon="11.231377668179322"><ele>299.0</ele><time>2026-04-11T12:56:45Z</time></trkpt><trkpt lat="43.99953422277593" lon="11.231417050115956"><ele>299.0</ele><time>2026-04-11T12:56:47Z</time></trkpt><trkpt lat="43.99945763947465" lon="11.231455272983098"><ele>299.0</ele><time>2026-04-11T12:56:50Z</time></trkpt><trkpt lat="43.999398599885964" lon="11.23149822656703"><ele>299.0</ele><time>2026-04-11T12:56:57Z</time></trkpt><trkpt lat="43.99926687791215" lon="11.231549273689469"><ele>299.0</ele><time>2026-04-11T12:56:59Z</time></trkpt><trkpt lat="43.99917479942165" lon="11.231594074486038"><ele>298.0</ele><time>2026-04-11T12:57:00Z</time></trkpt><trkpt lat="43.99906086060371" lon="11.231649512839777"><ele>297.0</ele><time>2026-04-11T12:57:01Z</time></trkpt><trkpt lat="43.998934646913106" lon="11.231713224655719"><ele>296.0</ele><time>2026-04-11T12:57:02Z</time></trkpt><trkpt lat="43.9987997024646" lon="11.231800359452494"><ele>295.0</ele><time>2026-04-11T12:57:03Z</time></trkpt><trkpt lat="43.998667181950594" lon="11.231866541901379"><ele>295.0</ele><time>2026-04-11T12:57:04Z</time></trkpt><trkpt lat="43.998522807046136" lon="11.231911807790203"><ele>295.0</ele><time>2026-04-11T12:57:05Z</time></trkpt><trkpt lat="43.99839210722081" lon="11.231973844930351"><ele>295.0</ele><time>2026-04-11T12:57:06Z</time></trkpt><trkpt lat="43.99826067257728" lon="11.23203474841496"><ele>295.0</ele><time>2026-04-11T12:57:07Z</time></trkpt><trkpt lat="43.998133520518984" lon="11.23209660300789"><ele>294.5</ele><time>2026-04-11T12:57:08Z</time></trkpt><trkpt lat="43.99800387732795" lon="11.232162169816542"><ele>294.0</ele><time>2026-04-11T12:57:09Z</time></trkpt><trkpt lat="43.997873112817295" lon="11.232228303715054"><ele>293.5</ele><time>2026-04-11T12:57:10Z</time></trkpt><trkpt lat="43.99774321924529" lon="11.232293997143032"><ele>293.0</ele><time>2026-04-11T12:57:11Z</time></trkpt><trkpt lat="43.99761286362515" lon="11.232358401275397"><ele>292.75</ele><time>2026-04-11T12:57:12Z</time></trkpt><trkpt lat="43.997479199316416" lon="11.232422484456063"><ele>292.5</ele><time>2026-04-11T12:57:13.001Z</time></trkpt><trkpt lat="43.997349101838196" lon="11.232481466988125"><ele>292.25</ele><time>2026-04-11T12:57:14.001Z</time></trkpt><trkpt lat="43.99722040812703" lon="11.23253728154722"><ele>292.0</ele><time>2026-04-11T12:57:15.001Z</time></trkpt><trkpt lat="43.99709774465508" lon="11.232610655511941"><ele>292.0</ele><time>2026-04-11T12:57:16.001Z</time></trkpt><trkpt lat="43.99696686463605" lon="11.232659854015509"><ele>292.0</ele><time>2026-04-11T12:57:17.001Z</time></trkpt><trkpt lat="43.996836787103625" lon="11.232706200678871"><ele>292.0</ele><time>2026-04-11T12:57:18.001Z</time></trkpt><trkpt lat="43.99669538243854" lon="11.232752370421563"><ele>292.0</ele><time>2026-04-11T12:57:19.001Z</time></trkpt><trkpt lat="43.99655956856005" lon="11.232802088920428"><ele>291.25</ele><time>2026-04-11T12:57:20.001Z</time></trkpt><trkpt lat="43.99641332060696" lon="11.23284440705508"><ele>290.5</ele><time>2026-04-11T12:57:21.001Z</time></trkpt><trkpt lat="43.99626534362529" lon="11.232888325471265"><ele>289.75</ele><time>2026-04-11T12:57:22.001Z</time></trkpt><trkpt lat="43.996119328921395" lon="11.23292487901972"><ele>289.0</ele><time>2026-04-11T12:57:23.001Z</time></trkpt><trkpt lat="43.995974217180915" lon="11.232965864810707"><ele>286.3333333333333</ele><time>2026-04-11T12:57:24.001Z</time></trkpt><trkpt lat="43.995829375899845" lon="11.233007362475048"><ele>283.6666666666667</ele><time>2026-04-11T12:57:25.001Z</time></trkpt><trkpt lat="43.99568136830032" lon="11.233047442978991"><ele>281.0</ele><time>2026-04-11T12:57:26.001Z</time></trkpt><trkpt lat="43.995517766854405" lon="11.233097772379333"><ele>280.33333333333337</ele><time>2026-04-11T12:57:27.001Z</time></trkpt><trkpt lat="43.995325450027664" lon="11.23315442210975"><ele>279.6666666666667</ele><time>2026-04-11T12:57:28.001Z</time></trkpt><trkpt lat="43.99512520187772" lon="11.233206936602375"><ele>279.0</ele><time>2026-04-11T12:57:29.001Z</time></trkpt><trkpt lat="43.99492105338505" lon="11.233270130788595"><ele>279.0</ele><time>2026-04-11T12:57:30.001Z</time></trkpt><trkpt lat="43.99472366807073" lon="11.233339539148858"><ele>279.0</ele><time>2026-04-11T12:57:31.001Z</time></trkpt><trkpt lat="43.99453790659667" lon="11.233420781180573"><ele>279.0</ele><time>2026-04-11T12:57:32.001Z</time></trkpt><trkpt lat="43.994362834490914" lon="11.233502800801"><ele>279.0</ele><time>2026-04-11T12:57:33.001Z</time></trkpt><trkpt lat="43.994190315550185" lon="11.233594732407836"><ele>279.0</ele><time>2026-04-11T12:57:34.001Z</time></trkpt><trkpt lat="43.99402945913952" lon="11.233679741329242"><ele>279.0</ele><time>2026-04-11T12:57:35.001Z</time></trkpt><trkpt lat="43.99387676649097" lon="11.233763346226821"><ele>278.0</ele><time>2026-04-11T12:57:36.001Z</time></trkpt><trkpt lat="43.993733895920485" lon="11.23384820198597"><ele>277.0</ele><time>2026-04-11T12:57:37.001Z</time></trkpt><trkpt lat="43.993606206035814" lon="11.233935151868009"><ele>276.0</ele><time>2026-04-11T12:57:38.001Z</time></trkpt><trkpt lat="43.993475020145375" lon="11.234004238700411"><ele>275.0</ele><time>2026-04-11T12:57:39.001Z</time></trkpt><trkpt lat="43.99336279139736" lon="11.234118916731482"><ele>274.0</ele><time>2026-04-11T12:57:40.001Z</time></trkpt><trkpt lat="43.993248539204814" lon="11.234202618487407"><ele>273.0</ele><time>2026-04-11T12:57:41.001Z</time></trkpt><trkpt lat="43.99314970299971" lon="11.234302210690343"><ele>272.0</ele><time>2026-04-11T12:57:42.001Z</time></trkpt><trkpt lat="43.99305765523838" lon="11.234396357402376"><ele>271.0</ele><time>2026-04-11T12:57:43.001Z</time></trkpt><trkpt lat="43.99297083070461" lon="11.234490980024983"><ele>271.0</ele><time>2026-04-11T12:57:44.001Z</time></trkpt><trkpt lat="43.99288309306924" lon="11.234586366772161"><ele>271.0</ele><time>2026-04-11T12:57:45.001Z</time></trkpt><trkpt lat="43.992790119851975" lon="11.234684100795878"><ele>271.0</ele><time>2026-04-11T12:57:46.001Z</time></trkpt><trkpt lat="43.99269164083749" lon="11.234783229413624"><ele>271.0</ele><time>2026-04-11T12:57:47.001Z</time></trkpt><trkpt lat="43.992592479561814" lon="11.234880155820331"><ele>270.0</ele><time>2026-04-11T12:57:48.001Z</time></trkpt><trkpt lat="43.992494401806546" lon="11.234980621441279"><ele>269.0</ele><time>2026-04-11T12:57:49.001Z</time></trkpt><trkpt lat="43.992398719617114" lon="11.235084729624543"><ele>268.0</ele><time>2026-04-11T12:57:50.001Z</time></trkpt><trkpt lat="43.99229811969399" lon="11.23516191823247"><ele>267.0</ele><time>2026-04-11T12:57:51.001Z</time></trkpt><trkpt lat="43.99220903543788" lon="11.235250875075389"><ele>267.0</ele><time>2026-04-11T12:57:52.001Z</time></trkpt><trkpt lat="43.992128617002706" lon="11.235332589384573"><ele>267.0</ele><time>2026-04-11T12:57:53.001Z</time></trkpt><trkpt lat="43.992050613437435" lon="11.235411861177385"><ele>267.0</ele><time>2026-04-11T12:57:54.001Z</time></trkpt><trkpt lat="43.991989801103614" lon="11.235499585252"><ele>267.0</ele><time>2026-04-11T12:57:55.001Z</time></trkpt><trkpt lat="43.99192992314827" lon="11.235541401604872"><ele>267.0</ele><time>2026-04-11T12:57:56.001Z</time></trkpt><trkpt lat="43.99186538360022" lon="11.235563743008848"><ele>267.0</ele><time>2026-04-11T12:57:57.001Z</time></trkpt><trkpt lat="43.99173795507604" lon="11.235563397925445"><ele>266.4</ele><time>2026-04-11T12:57:59.001Z</time></trkpt><trkpt lat="43.99166297280498" lon="11.235562342319486"><ele>265.79999999999995</ele><time>2026-04-11T12:58:00.001Z</time></trkpt><trkpt lat="43.99159182116521" lon="11.235586498352587"><ele>265.2</ele><time>2026-04-11T12:58:01.001Z</time></trkpt><trkpt lat="43.991537147954816" lon="11.235648306880103"><ele>264.59999999999997</ele><time>2026-04-11T12:58:02.001Z</time></trkpt><trkpt lat="43.991467225836814" lon="11.23587420370727"><ele>264.0</ele><time>2026-04-11T12:58:04.001Z</time></trkpt><trkpt lat="43.99152766680076" lon="11.23599680113164"><ele>264.2</ele><time>2026-04-11T12:58:05.001Z</time></trkpt><trkpt lat="43.99164268338069" lon="11.236054422769138"><ele>264.4</ele><time>2026-04-11T12:58:06.001Z</time></trkpt><trkpt lat="43.99172258726132" lon="11.236087163838707"><ele>264.6</ele><time>2026-04-11T12:58:07.001Z</time></trkpt><trkpt lat="43.99174174964531" lon="11.236194498232503"><ele>264.8</ele><time>2026-04-11T12:58:08.001Z</time></trkpt><trkpt lat="43.99177896364183" lon="11.236301274575814"><ele>265.0</ele><time>2026-04-11T12:58:09.001Z</time></trkpt><trkpt lat="43.99182084566154" lon="11.236424451103344"><ele>264.6</ele><time>2026-04-11T12:58:10.001Z</time></trkpt><trkpt lat="43.991867662968374" lon="11.236562142447543"><ele>264.2</ele><time>2026-04-11T12:58:11.001Z</time></trkpt><trkpt lat="43.99191889608903" lon="11.236712820981719"><ele>263.8</ele><time>2026-04-11T12:58:12.001Z</time></trkpt><trkpt lat="43.9919648374677" lon="11.23684793624697"><ele>263.4</ele><time>2026-04-11T12:58:13.001Z</time></trkpt><trkpt lat="43.99202388497586" lon="11.236969002785033"><ele>263.0</ele><time>2026-04-11T12:58:14.001Z</time></trkpt><trkpt lat="43.99205428346004" lon="11.237116421857769"><ele>263.0</ele><time>2026-04-11T12:58:15.001Z</time></trkpt><trkpt lat="43.99209505075252" lon="11.237252555462273"><ele>263.0</ele><time>2026-04-11T12:58:16.001Z</time></trkpt><trkpt lat="43.99214032127032" lon="11.237394251429105"><ele>263.0</ele><time>2026-04-11T12:58:17.001Z</time></trkpt><trkpt lat="43.992185115642634" lon="11.237537362156838"><ele>263.0</ele><time>2026-04-11T12:58:18.002Z</time></trkpt><trkpt lat="43.992231468147956" lon="11.237674757894672"><ele>263.0</ele><time>2026-04-11T12:58:19.002Z</time></trkpt><trkpt lat="43.99228123130605" lon="11.237810752913"><ele>263.0</ele><time>2026-04-11T12:58:20.002Z</time></trkpt><trkpt lat="43.99232553556088" lon="11.237933580294968"><ele>263.0</ele><time>2026-04-11T12:58:21.002Z</time></trkpt><trkpt lat="43.99236189174855" lon="11.238061256521073"><ele>263.0</ele><time>2026-04-11T12:58:22.002Z</time></trkpt><trkpt lat="43.99239220688484" lon="11.238152638761115"><ele>263.0</ele><time>2026-04-11T12:58:23.002Z</time></trkpt><trkpt lat="43.99242958704116" lon="11.238272712533295"><ele>263.0</ele><time>2026-04-11T12:58:25.002Z</time></trkpt><trkpt lat="43.99244373973679" lon="11.238393347273856"><ele>263.0</ele><time>2026-04-11T12:58:28.999Z</time></trkpt><trkpt lat="43.99245626168453" lon="11.238495683290978"><ele>263.0</ele><time>2026-04-11T12:58:33Z</time></trkpt><trkpt lat="43.99247716188317" lon="11.23859145056936"><ele>263.0</ele><time>2026-04-11T12:58:36Z</time></trkpt><trkpt lat="43.99250549389326" lon="11.238672449180177"><ele>263.0</ele><time>2026-04-11T12:59:20Z</time></trkpt><trkpt lat="43.99242934629661" lon="11.238753827110472"><ele>263.0</ele><time>2026-04-11T13:24:02.017Z</time></trkpt><trkpt lat="43.99246982725148" lon="11.238833438646575"><ele>263.0</ele><time>2026-04-11T13:24:04.017Z</time></trkpt><trkpt lat="43.99254605138427" lon="11.2388167271948"><ele>263.0</ele><time>2026-04-11T13:24:06.017Z</time></trkpt><trkpt lat="43.99259712633315" lon="11.23876070409408"><ele>263.0</ele><time>2026-04-11T13:24:09.017Z</time></trkpt><trkpt lat="43.992648751436725" lon="11.238699043266115"><ele>263.0</ele><time>2026-04-11T13:24:33.017Z</time></trkpt><trkpt lat="43.992709317245335" lon="11.23876185556129"><ele>263.0</ele><time>2026-04-11T13:25:17.018Z</time></trkpt><trkpt lat="43.99274852447137" lon="11.238831604041268"><ele>263.0</ele><time>2026-04-11T13:25:18.018Z</time></trkpt><trkpt lat="43.99275354914209" lon="11.238936134567274"><ele>263.0</ele><time>2026-04-11T13:25:19.018Z</time></trkpt><trkpt lat="43.992774004045806" lon="11.239024682031943"><ele>263.0</ele><time>2026-04-11T13:25:20.018Z</time></trkpt><trkpt lat="43.9928291286067" lon="11.239157099068617"><ele>263.0</ele><time>2026-04-11T13:25:22.018Z</time></trkpt><trkpt lat="43.99289289391447" lon="11.239305847628525"><ele>263.0</ele><time>2026-04-11T13:25:24.018Z</time></trkpt><trkpt lat="43.99293630889508" lon="11.239396508051117"><ele>263.0</ele><time>2026-04-11T13:25:25.018Z</time></trkpt><trkpt lat="43.992980905879676" lon="11.239495630184823"><ele>263.0</ele><time>2026-04-11T13:25:26.018Z</time></trkpt><trkpt lat="43.9930146253785" lon="11.23960107083665"><ele>263.0</ele><time>2026-04-11T13:25:27.018Z</time></trkpt><trkpt lat="43.99303749261062" lon="11.239714853959521"><ele>263.0</ele><time>2026-04-11T13:25:28.018Z</time></trkpt><trkpt lat="43.99305709963496" lon="11.239834862576258"><ele>263.0</ele><time>2026-04-11T13:25:29.018Z</time></trkpt><trkpt lat="43.99309344248726" lon="11.239947856614178"><ele>263.0</ele><time>2026-04-11T13:25:30.018Z</time></trkpt><trkpt lat="43.993122796263656" lon="11.240068301413782"><ele>263.0</ele><time>2026-04-11T13:25:31.018Z</time></trkpt><trkpt lat="43.99313808432182" lon="11.240182448328808"><ele>263.0</ele><time>2026-04-11T13:25:32.018Z</time></trkpt><trkpt lat="43.99313352946823" lon="11.240302042721678"><ele>263.0</ele><time>2026-04-11T13:25:33.018Z</time></trkpt><trkpt lat="43.99312311164056" lon="11.240414263601783"><ele>263.0</ele><time>2026-04-11T13:25:34.018Z</time></trkpt><trkpt lat="43.99311258629093" lon="11.240522022318734"><ele>263.0</ele><time>2026-04-11T13:25:35.018Z</time></trkpt><trkpt lat="43.99306502619521" lon="11.24059237898515"><ele>263.0</ele><time>2026-04-11T13:25:36.018Z</time></trkpt><trkpt lat="43.99299771913606" lon="11.240664116630333"><ele>263.0</ele><time>2026-04-11T13:25:37.018Z</time></trkpt><trkpt lat="43.99291978785197" lon="11.24069089164502"><ele>263.0</ele><time>2026-04-11T13:25:38.018Z</time></trkpt><trkpt lat="43.992832526539694" lon="11.240678325280314"><ele>263.0</ele><time>2026-04-11T13:25:39.018Z</time></trkpt><trkpt lat="43.99273190115804" lon="11.240661975379439"><ele>263.2</ele><time>2026-04-11T13:25:40.018Z</time></trkpt><trkpt lat="43.992631143347296" lon="11.240642980475137"><ele>263.4</ele><time>2026-04-11T13:25:41.018Z</time></trkpt><trkpt lat="43.99254144802564" lon="11.240640983042942"><ele>263.59999999999997</ele><time>2026-04-11T13:25:42.018Z</time></trkpt><trkpt lat="43.99245264209654" lon="11.240644210907636"><ele>263.8</ele><time>2026-04-11T13:25:43.018Z</time></trkpt><trkpt lat="43.99236980089364" lon="11.240634753622452"><ele>264.0</ele><time>2026-04-11T13:25:44.018Z</time></trkpt><trkpt lat="43.99227678660866" lon="11.240622936074251"><ele>263.2</ele><time>2026-04-11T13:25:45.018Z</time></trkpt><trkpt lat="43.99216902415585" lon="11.24062024345591"><ele>262.4</ele><time>2026-04-11T13:25:46.018Z</time></trkpt><trkpt lat="43.992065291720394" lon="11.240579851302167"><ele>261.6</ele><time>2026-04-11T13:25:47.018Z</time></trkpt><trkpt lat="43.991964068689775" lon="11.240556418737427"><ele>260.8</ele><time>2026-04-11T13:25:48.018Z</time></trkpt><trkpt lat="43.99185409905629" lon="11.240559482372994"><ele>260.0</ele><time>2026-04-11T13:25:49.017Z</time></trkpt><trkpt lat="43.99173562900614" lon="11.240552747910389"><ele>259.6</ele><time>2026-04-11T13:25:50.017Z</time></trkpt><trkpt lat="43.99161755543638" lon="11.240535646277463"><ele>259.2</ele><time>2026-04-11T13:25:51.018Z</time></trkpt><trkpt lat="43.99150912074601" lon="11.240530788671812"><ele>258.8</ele><time>2026-04-11T13:25:52.018Z</time></trkpt><trkpt lat="43.9913991240834" lon="11.240519941633277"><ele>258.4</ele><time>2026-04-11T13:25:53.018Z</time></trkpt><trkpt lat="43.9912930942737" lon="11.240503606164804"><ele>258.0</ele><time>2026-04-11T13:25:54.018Z</time></trkpt><trkpt lat="43.99118669145703" lon="11.240488100820652"><ele>258.0</ele><time>2026-04-11T13:25:55.018Z</time></trkpt><trkpt lat="43.99108461833781" lon="11.240486579520015"><ele>258.0</ele><time>2026-04-11T13:25:56.018Z</time></trkpt><trkpt lat="43.99096346527236" lon="11.240478979503289"><ele>258.0</ele><time>2026-04-11T13:25:57.018Z</time></trkpt><trkpt lat="43.99085197057334" lon="11.240465173204651"><ele>258.0</ele><time>2026-04-11T13:25:58.017Z</time></trkpt><trkpt lat="43.990748026780935" lon="11.240456938088355"><ele>258.0</ele><time>2026-04-11T13:25:59.017Z</time></trkpt><trkpt lat="43.99063127343297" lon="11.240440940716109"><ele>258.5</ele><time>2026-04-11T13:26:00.017Z</time></trkpt><trkpt lat="43.990518177654614" lon="11.240427880217498"><ele>259.0</ele><time>2026-04-11T13:26:01.017Z</time></trkpt><trkpt lat="43.99040143844946" lon="11.240435302813161"><ele>259.5</ele><time>2026-04-11T13:26:02.017Z</time></trkpt><trkpt lat="43.99028530810185" lon="11.240463711777934"><ele>260.0</ele><time>2026-04-11T13:26:03.017Z</time></trkpt><trkpt lat="43.99016700692204" lon="11.240484242384385"><ele>260.0</ele><time>2026-04-11T13:26:04.017Z</time></trkpt><trkpt lat="43.99005423307945" lon="11.240501541189674"><ele>260.0</ele><time>2026-04-11T13:26:05.017Z</time></trkpt><trkpt lat="43.9899458858109" lon="11.240525101433626"><ele>260.0</ele><time>2026-04-11T13:26:06.017Z</time></trkpt><trkpt lat="43.989798936517694" lon="11.240552773133137"><ele>260.0</ele><time>2026-04-11T13:26:07.017Z</time></trkpt><trkpt lat="43.98967249285183" lon="11.24055336162237"><ele>259.6</ele><time>2026-04-11T13:26:08.017Z</time></trkpt><trkpt lat="43.98957089231256" lon="11.240573759926342"><ele>259.2</ele><time>2026-04-11T13:26:09.017Z</time></trkpt><trkpt lat="43.98946367775109" lon="11.240592174520229"><ele>258.8</ele><time>2026-04-11T13:26:10.017Z</time></trkpt><trkpt lat="43.9893456633248" lon="11.240613012601578"><ele>258.4</ele><time>2026-04-11T13:26:11.017Z</time></trkpt><trkpt lat="43.98924408496696" lon="11.24063094695194"><ele>258.0</ele><time>2026-04-11T13:26:12.017Z</time></trkpt><trkpt lat="43.98913312531536" lon="11.240652781445862"><ele>257.8</ele><time>2026-04-11T13:26:13.018Z</time></trkpt><trkpt lat="43.98904729868562" lon="11.240669823057642"><ele>257.6</ele><time>2026-04-11T13:26:14.018Z</time></trkpt><trkpt lat="43.98895374723799" lon="11.240686933110043"><ele>257.4</ele><time>2026-04-11T13:26:15.018Z</time></trkpt><trkpt lat="43.988865953301364" lon="11.240702890003801"><ele>257.2</ele><time>2026-04-11T13:26:16.018Z</time></trkpt><trkpt lat="43.98878831352584" lon="11.240716923388245"><ele>257.0</ele><time>2026-04-11T13:26:17.018Z</time></trkpt><trkpt lat="43.988664282581134" lon="11.240737852680944"><ele>257.0</ele><time>2026-04-11T13:26:19.018Z</time></trkpt><trkpt lat="43.988561910419314" lon="11.240734391006242"><ele>257.0</ele><time>2026-04-11T13:26:21.018Z</time></trkpt><trkpt lat="43.98844233376113" lon="11.240597456331393"><ele>257.0</ele><time>2026-04-11T13:26:24.018Z</time></trkpt><trkpt lat="43.98840284192328" lon="11.240432058894823"><ele>257.0</ele><time>2026-04-11T13:26:26.018Z</time></trkpt><trkpt lat="43.98837584155423" lon="11.240350884607464"><ele>257.0</ele><time>2026-04-11T13:26:27.018Z</time></trkpt><trkpt lat="43.98833048776794" lon="11.240263060146049"><ele>256.6666666666667</ele><time>2026-04-11T13:26:28.018Z</time></trkpt><trkpt lat="43.98830970294964" lon="11.240156581221807"><ele>256.33333333333337</ele><time>2026-04-11T13:26:29.018Z</time></trkpt><trkpt lat="43.98826594792024" lon="11.240027803470062"><ele>256.0</ele><time>2026-04-11T13:26:30.018Z</time></trkpt><trkpt lat="43.98822879308858" lon="11.239913935101704"><ele>255.66666666666669</ele><time>2026-04-11T13:26:31.018Z</time></trkpt><trkpt lat="43.988178913347774" lon="11.239813105690757"><ele>255.33333333333334</ele><time>2026-04-11T13:26:32.018Z</time></trkpt><trkpt lat="43.98815753989967" lon="11.23972151561564"><ele>255.0</ele><time>2026-04-11T13:26:33.018Z</time></trkpt><trkpt lat="43.988125333621696" lon="11.239583505339237"><ele>254.8</ele><time>2026-04-11T13:26:35.018Z</time></trkpt><trkpt lat="43.98809082872377" lon="11.239493335748628"><ele>254.6</ele><time>2026-04-11T13:26:36.018Z</time></trkpt><trkpt lat="43.988102822134366" lon="11.239353118850165"><ele>254.39999999999998</ele><time>2026-04-11T13:26:38.018Z</time></trkpt><trkpt lat="43.988071437384825" lon="11.239235232505587"><ele>254.2</ele><time>2026-04-11T13:26:40.018Z</time></trkpt><trkpt lat="43.98804314460087" lon="11.239086665902501"><ele>254.0</ele><time>2026-04-11T13:26:42.018Z</time></trkpt><trkpt lat="43.988019898542156" lon="11.238919583484646"><ele>254.0</ele><time>2026-04-11T13:26:44.018Z</time></trkpt><trkpt lat="43.98805699541325" lon="11.23875549964925"><ele>253.99999999999997</ele><time>2026-04-11T13:26:46.018Z</time></trkpt><trkpt lat="43.98809995063631" lon="11.23866508398342"><ele>253.99999999999997</ele><time>2026-04-11T13:26:47.018Z</time></trkpt><trkpt lat="43.98816136128394" lon="11.238522396651657"><ele>254.0</ele><time>2026-04-11T13:26:49.018Z</time></trkpt><trkpt lat="43.98821691224394" lon="11.238400395326586"><ele>254.0</ele><time>2026-04-11T13:26:51.018Z</time></trkpt><trkpt lat="43.9882660841241" lon="11.238243113480534"><ele>254.00000000000003</ele><time>2026-04-11T13:26:53.018Z</time></trkpt><trkpt lat="43.98830493299367" lon="11.238169529579562"><ele>254.0</ele><time>2026-04-11T13:26:54.018Z</time></trkpt><trkpt lat="43.988336376640795" lon="11.238088918209613"><ele>254.0</ele><time>2026-04-11T13:26:55.018Z</time></trkpt><trkpt lat="43.988385842346325" lon="11.237928924396067"><ele>254.0</ele><time>2026-04-11T13:26:57.018Z</time></trkpt><trkpt lat="43.98841921631375" lon="11.23783020310954"><ele>254.00000000000003</ele><time>2026-04-11T13:26:58.018Z</time></trkpt><trkpt lat="43.98844312705686" lon="11.23773051018199"><ele>254.0</ele><time>2026-04-11T13:26:59.018Z</time></trkpt><trkpt lat="43.98846827193633" lon="11.23764454407249"><ele>254.66666666666669</ele><time>2026-04-11T13:27:00.018Z</time></trkpt><trkpt lat="43.98848760066303" lon="11.23755762765682"><ele>255.33333333333334</ele><time>2026-04-11T13:27:01.018Z</time></trkpt><trkpt lat="43.98853631407595" lon="11.237412028749022"><ele>256.0</ele><time>2026-04-11T13:27:03.018Z</time></trkpt><trkpt lat="43.988569685723995" lon="11.237331530879866"><ele>256.6666666666667</ele><time>2026-04-11T13:27:04.018Z</time></trkpt><trkpt lat="43.988597927439436" lon="11.237226624228438"><ele>257.3333333333333</ele><time>2026-04-11T13:27:05.018Z</time></trkpt><trkpt lat="43.98860953596326" lon="11.2371258498962"><ele>258.0</ele><time>2026-04-11T13:27:06.018Z</time></trkpt><trkpt lat="43.98860893435348" lon="11.237034403993238"><ele>258.1428571428571</ele><time>2026-04-11T13:27:07.018Z</time></trkpt><trkpt lat="43.988615894110296" lon="11.236944003486538"><ele>258.2857142857143</ele><time>2026-04-11T13:27:08.018Z</time></trkpt><trkpt lat="43.98863112647206" lon="11.2368527730048"><ele>258.42857142857144</ele><time>2026-04-11T13:27:09.018Z</time></trkpt><trkpt lat="43.98863872677081" lon="11.236760963633076"><ele>258.57142857142856</ele><time>2026-04-11T13:27:10.018Z</time></trkpt><trkpt lat="43.98865924797615" lon="11.23667681396305"><ele>258.7142857142857</ele><time>2026-04-11T13:27:11.018Z</time></trkpt><trkpt lat="43.988693472538635" lon="11.236584449417489"><ele>258.85714285714283</ele><time>2026-04-11T13:27:12.018Z</time></trkpt><trkpt lat="43.988719813334306" lon="11.236498148292894"><ele>259.0</ele><time>2026-04-11T13:27:13.018Z</time></trkpt><trkpt lat="43.988756015625874" lon="11.236347315210175"><ele>259.4</ele><time>2026-04-11T13:27:15.018Z</time></trkpt><trkpt lat="43.988770800218035" lon="11.236251058367865"><ele>259.79999999999995</ele><time>2026-04-11T13:27:16.019Z</time></trkpt><trkpt lat="43.988789573757465" lon="11.236117785736642"><ele>260.20000000000005</ele><time>2026-04-11T13:27:18.019Z</time></trkpt><trkpt lat="43.98887852452841" lon="11.236096023364562"><ele>260.6</ele><time>2026-04-11T13:27:21.019Z</time></trkpt><trkpt lat="43.98896767700739" lon="11.236025297159506"><ele>261.0</ele><time>2026-04-11T13:27:23.019Z</time></trkpt><trkpt lat="43.98901239987988" lon="11.235911304129703"><ele>261.0</ele><time>2026-04-11T13:27:24.019Z</time></trkpt><trkpt lat="43.98911263161757" lon="11.23580337044986"><ele>261.0</ele><time>2026-04-11T13:27:25.019Z</time></trkpt><trkpt lat="43.989149902460085" lon="11.235672546231443"><ele>261.0</ele><time>2026-04-11T13:27:26.019Z</time></trkpt><trkpt lat="43.989188776769225" lon="11.235547312896665"><ele>261.0</ele><time>2026-04-11T13:27:27.019Z</time></trkpt><trkpt lat="43.98922393989914" lon="11.23544317816335"><ele>261.0</ele><time>2026-04-11T13:27:28.019Z</time></trkpt><trkpt lat="43.989258747332194" lon="11.23534565187793"><ele>261.0</ele><time>2026-04-11T13:27:29.019Z</time></trkpt><trkpt lat="43.98915290884705" lon="11.235137082255974"><ele>261.0</ele><time>2026-04-11T13:27:30.019Z</time></trkpt><trkpt lat="43.98923590589123" lon="11.235024648242884"><ele>261.0</ele><time>2026-04-11T13:27:31.019Z</time></trkpt><trkpt lat="43.98932678062569" lon="11.234879960480873"><ele>261.0</ele><time>2026-04-11T13:27:32.019Z</time></trkpt><trkpt lat="43.98939740089146" lon="11.234770628485526"><ele>260.8</ele><time>2026-04-11T13:27:33.019Z</time></trkpt><trkpt lat="43.98943801252346" lon="11.234668123891966"><ele>260.6</ele><time>2026-04-11T13:27:34.019Z</time></trkpt><trkpt lat="43.98950766859942" lon="11.23457854711013"><ele>260.4</ele><time>2026-04-11T13:27:36.019Z</time></trkpt><trkpt lat="43.98957480601586" lon="11.234629929048358"><ele>260.2</ele><time>2026-04-11T13:27:38.019Z</time></trkpt><trkpt lat="43.989638141785775" lon="11.234588258231216"><ele>260.0</ele><time>2026-04-11T13:27:49.019Z</time></trkpt><trkpt lat="43.989556859072685" lon="11.234452795179095"><ele>260.0</ele><time>2026-04-11T13:27:51.018Z</time></trkpt><trkpt lat="43.989490776044725" lon="11.234382465818209"><ele>260.0</ele><time>2026-04-11T13:27:52.018Z</time></trkpt><trkpt lat="43.989388680933615" lon="11.234349617675115"><ele>260.0</ele><time>2026-04-11T13:27:53.018Z</time></trkpt><trkpt lat="43.989305009959686" lon="11.23429587590533"><ele>260.0</ele><time>2026-04-11T13:27:54.018Z</time></trkpt><trkpt lat="43.98922255654877" lon="11.234240710387972"><ele>260.0</ele><time>2026-04-11T13:27:55.018Z</time></trkpt><trkpt lat="43.98915059739013" lon="11.234194642955739"><ele>259.6</ele><time>2026-04-11T13:27:56.018Z</time></trkpt><trkpt lat="43.98908567521529" lon="11.234127882742461"><ele>259.2</ele><time>2026-04-11T13:27:57.018Z</time></trkpt><trkpt lat="43.98902219953693" lon="11.234063048001936"><ele>258.8</ele><time>2026-04-11T13:27:58.018Z</time></trkpt><trkpt lat="43.98894241191057" lon="11.233987995417634"><ele>258.4</ele><time>2026-04-11T13:27:59.018Z</time></trkpt><trkpt lat="43.98885703845562" lon="11.233899238442646"><ele>258.0</ele><time>2026-04-11T13:28:00.018Z</time></trkpt><trkpt lat="43.988770295256934" lon="11.233804805414552"><ele>257.8</ele><time>2026-04-11T13:28:01.018Z</time></trkpt><trkpt lat="43.98868489430099" lon="11.233714862890766"><ele>257.6</ele><time>2026-04-11T13:28:02.018Z</time></trkpt><trkpt lat="43.988596802902116" lon="11.233619185769832"><ele>257.4</ele><time>2026-04-11T13:28:03.018Z</time></trkpt><trkpt lat="43.988512435917826" lon="11.233520174590764"><ele>257.2</ele><time>2026-04-11T13:28:04.018Z</time></trkpt><trkpt lat="43.98842345260162" lon="11.233421706180382"><ele>257.0</ele><time>2026-04-11T13:28:05.018Z</time></trkpt><trkpt lat="43.988333312837" lon="11.233341134301597"><ele>256.75</ele><time>2026-04-11T13:28:06.018Z</time></trkpt><trkpt lat="43.98823699287231" lon="11.233241117265038"><ele>256.5</ele><time>2026-04-11T13:28:07.018Z</time></trkpt><trkpt lat="43.988133912442194" lon="11.23315550594871"><ele>256.25</ele><time>2026-04-11T13:28:08.018Z</time></trkpt><trkpt lat="43.98802990093632" lon="11.233072135143228"><ele>256.0</ele><time>2026-04-11T13:28:09.018Z</time></trkpt><trkpt lat="43.98790732744971" lon="11.233006965709102"><ele>256.66666666666663</ele><time>2026-04-11T13:28:10.018Z</time></trkpt><trkpt lat="43.98776742930698" lon="11.232939865355924"><ele>257.3333333333333</ele><time>2026-04-11T13:28:11.018Z</time></trkpt><trkpt lat="43.98759306968603" lon="11.232938284894262"><ele>258.0</ele><time>2026-04-11T13:28:12.018Z</time></trkpt><trkpt lat="43.98744190147544" lon="11.23294237606793"><ele>258.5</ele><time>2026-04-11T13:28:13.018Z</time></trkpt><trkpt lat="43.9873103164056" lon="11.23292132375929"><ele>259.0</ele><time>2026-04-11T13:28:14.018Z</time></trkpt><trkpt lat="43.98718764248842" lon="11.232913090362723"><ele>259.5</ele><time>2026-04-11T13:28:15.018Z</time></trkpt><trkpt lat="43.98705945175219" lon="11.232926827861899"><ele>260.0</ele><time>2026-04-11T13:28:16.018Z</time></trkpt><trkpt lat="43.98694121482482" lon="11.23291504455043"><ele>260.0</ele><time>2026-04-11T13:28:17.018Z</time></trkpt><trkpt lat="43.98681862430997" lon="11.23288477403425"><ele>260.0</ele><time>2026-04-11T13:28:18.018Z</time></trkpt><trkpt lat="43.986686874988266" lon="11.232885907674952"><ele>260.0</ele><time>2026-04-11T13:28:19.018Z</time></trkpt><trkpt lat="43.98656130088044" lon="11.23286312162506"><ele>260.0</ele><time>2026-04-11T13:28:20.018Z</time></trkpt><trkpt lat="43.98643030723475" lon="11.232889128390312"><ele>260.75</ele><time>2026-04-11T13:28:21.018Z</time></trkpt><trkpt lat="43.98629520758449" lon="11.232932140561944"><ele>261.5</ele><time>2026-04-11T13:28:22.018Z</time></trkpt><trkpt lat="43.98615180231774" lon="11.232989727305219"><ele>262.25</ele><time>2026-04-11T13:28:23.018Z</time></trkpt><trkpt lat="43.98602764010726" lon="11.23304679094762"><ele>263.0</ele><time>2026-04-11T13:28:24.018Z</time></trkpt><trkpt lat="43.98590757053008" lon="11.233114765823519"><ele>262.5</ele><time>2026-04-11T13:28:25.018Z</time></trkpt><trkpt lat="43.98579057791556" lon="11.233188214634897"><ele>262.0</ele><time>2026-04-11T13:28:26.018Z</time></trkpt><trkpt lat="43.98568009584349" lon="11.233232921327529"><ele>261.5</ele><time>2026-04-11T13:28:27.018Z</time></trkpt><trkpt lat="43.985577024888926" lon="11.233272368773541"><ele>261.0</ele><time>2026-04-11T13:28:28.018Z</time></trkpt><trkpt lat="43.98546918752627" lon="11.23328730982727"><ele>261.0</ele><time>2026-04-11T13:28:29.018Z</time></trkpt><trkpt lat="43.985368782275586" lon="11.233288795356499"><ele>261.0</ele><time>2026-04-11T13:28:30.018Z</time></trkpt><trkpt lat="43.985280205326866" lon="11.233282792848962"><ele>261.0</ele><time>2026-04-11T13:28:31.018Z</time></trkpt><trkpt lat="43.98518907331492" lon="11.233272671604333"><ele>261.0</ele><time>2026-04-11T13:28:32.018Z</time></trkpt><trkpt lat="43.98509653802582" lon="11.233260398807134"><ele>261.0</ele><time>2026-04-11T13:28:33.018Z</time></trkpt><trkpt lat="43.98500843489469" lon="11.23324342474959"><ele>263.0</ele><time>2026-04-11T13:28:34.018Z</time></trkpt><trkpt lat="43.98491927485667" lon="11.233234654677966"><ele>265.0</ele><time>2026-04-11T13:28:35.018Z</time></trkpt><trkpt lat="43.98484142094425" lon="11.23323751561858"><ele>267.0</ele><time>2026-04-11T13:28:36.018Z</time></trkpt><trkpt lat="43.98477046041168" lon="11.233207283430543"><ele>269.0</ele><time>2026-04-11T13:28:37.018Z</time></trkpt><trkpt lat="43.98469949769204" lon="11.23319678238354"><ele>271.0</ele><time>2026-04-11T13:28:38.018Z</time></trkpt><trkpt lat="43.984619638990836" lon="11.23319115250591"><ele>273.0</ele><time>2026-04-11T13:28:39.018Z</time></trkpt><trkpt lat="43.984544238045686" lon="11.233185837065832"><ele>273.0</ele><time>2026-04-11T13:28:40.018Z</time></trkpt><trkpt lat="43.98447459089608" lon="11.233178566932429"><ele>273.0</ele><time>2026-04-11T13:28:41.018Z</time></trkpt><trkpt lat="43.984405435458214" lon="11.233169496694948"><ele>273.0</ele><time>2026-04-11T13:28:42.018Z</time></trkpt><trkpt lat="43.984327791761075" lon="11.23314837320476"><ele>273.0</ele><time>2026-04-11T13:28:43.018Z</time></trkpt><trkpt lat="43.98423783246504" lon="11.233101766797455"><ele>273.0</ele><time>2026-04-11T13:28:44.018Z</time></trkpt><trkpt lat="43.984140776767525" lon="11.233057493968841"><ele>273.0</ele><time>2026-04-11T13:28:45.018Z</time></trkpt><trkpt lat="43.98403784030696" lon="11.233010951775986"><ele>272.4</ele><time>2026-04-11T13:28:46.018Z</time></trkpt><trkpt lat="43.98394284552904" lon="11.232966944241525"><ele>271.8</ele><time>2026-04-11T13:28:47.018Z</time></trkpt><trkpt lat="43.98384806072887" lon="11.23292303401484"><ele>271.2</ele><time>2026-04-11T13:28:48.018Z</time></trkpt><trkpt lat="43.98374831133514" lon="11.232881482413497"><ele>270.6</ele><time>2026-04-11T13:28:49.018Z</time></trkpt><trkpt lat="43.98366390508868" lon="11.23285408575068"><ele>270.0</ele><time>2026-04-11T13:28:50.018Z</time></trkpt><trkpt lat="43.98357055705901" lon="11.232847620530515"><ele>270.0</ele><time>2026-04-11T13:28:51.018Z</time></trkpt><trkpt lat="43.98348329315624" lon="11.232806095794846"><ele>270.0</ele><time>2026-04-11T13:28:52.018Z</time></trkpt><trkpt lat="43.983392952341696" lon="11.232776400387994"><ele>270.0</ele><time>2026-04-11T13:28:53.018Z</time></trkpt><trkpt lat="43.983296305625416" lon="11.232754869074597"><ele>270.0</ele><time>2026-04-11T13:28:54.018Z</time></trkpt><trkpt lat="43.98320485804711" lon="11.232738812656411"><ele>270.0</ele><time>2026-04-11T13:28:55.019Z</time></trkpt><trkpt lat="43.98311795364692" lon="11.23272190633962"><ele>269.6</ele><time>2026-04-11T13:28:56.019Z</time></trkpt><trkpt lat="43.983023657088566" lon="11.232700269709067"><ele>269.2</ele><time>2026-04-11T13:28:57.019Z</time></trkpt><trkpt lat="43.9829217845159" lon="11.232680622076185"><ele>268.8</ele><time>2026-04-11T13:28:58.019Z</time></trkpt><trkpt lat="43.982817056880705" lon="11.232665552944413"><ele>268.4</ele><time>2026-04-11T13:28:59.019Z</time></trkpt><trkpt lat="43.982711811406574" lon="11.232645554029467"><ele>268.0</ele><time>2026-04-11T13:29:00.019Z</time></trkpt><trkpt lat="43.98260627433842" lon="11.232624710948523"><ele>267.8</ele><time>2026-04-11T13:29:01.019Z</time></trkpt><trkpt lat="43.982500105808406" lon="11.232599785754598"><ele>267.6</ele><time>2026-04-11T13:29:02.019Z</time></trkpt><trkpt lat="43.98240248131237" lon="11.232566200640653"><ele>267.4</ele><time>2026-04-11T13:29:03.019Z</time></trkpt><trkpt lat="43.982301000591555" lon="11.232544186347011"><ele>267.2</ele><time>2026-04-11T13:29:04.019Z</time></trkpt><trkpt lat="43.98220561530656" lon="11.232515979393048"><ele>267.0</ele><time>2026-04-11T13:29:05.019Z</time></trkpt><trkpt lat="43.982109531450824" lon="11.232502015239442"><ele>267.0</ele><time>2026-04-11T13:29:06.019Z</time></trkpt><trkpt lat="43.98201068123076" lon="11.23249459275733"><ele>267.0</ele><time>2026-04-11T13:29:07.019Z</time></trkpt><trkpt lat="43.98191598729487" lon="11.23248174628689"><ele>267.0</ele><time>2026-04-11T13:29:08.019Z</time></trkpt><trkpt lat="43.981829446835675" lon="11.232454405071799"><ele>267.0</ele><time>2026-04-11T13:29:09.019Z</time></trkpt><trkpt lat="43.98174251422564" lon="11.232437719335728"><ele>267.0</ele><time>2026-04-11T13:29:10.019Z</time></trkpt><trkpt lat="43.98164674089874" lon="11.23243122501267"><ele>267.0</ele><time>2026-04-11T13:29:11.019Z</time></trkpt><trkpt lat="43.98155908990517" lon="11.232421474965108"><ele>267.0</ele><time>2026-04-11T13:29:12.019Z</time></trkpt><trkpt lat="43.98147355520242" lon="11.232428058918812"><ele>267.0</ele><time>2026-04-11T13:29:13.019Z</time></trkpt><trkpt lat="43.98140078600751" lon="11.232438171928365"><ele>267.0</ele><time>2026-04-11T13:29:14.019Z</time></trkpt><trkpt lat="43.98129128344804" lon="11.232287184300999"><ele>267.0</ele><time>2026-04-11T13:29:16.019Z</time></trkpt><trkpt lat="43.98121709016169" lon="11.232233994552073"><ele>267.0</ele><time>2026-04-11T13:29:18.019Z</time></trkpt><trkpt lat="43.98109693663608" lon="11.232271380628712"><ele>267.0</ele><time>2026-04-11T13:29:20.019Z</time></trkpt><trkpt lat="43.98102573248442" lon="11.232262096865721"><ele>267.0</ele><time>2026-04-11T13:29:21.019Z</time></trkpt><trkpt lat="43.98095299457992" lon="11.232290979804352"><ele>267.0</ele><time>2026-04-11T13:29:22.019Z</time></trkpt><trkpt lat="43.98086605421507" lon="11.232334338103591"><ele>267.0</ele><time>2026-04-11T13:29:23.019Z</time></trkpt><trkpt lat="43.980768277797864" lon="11.232359746787653"><ele>266.8</ele><time>2026-04-11T13:29:24.019Z</time></trkpt><trkpt lat="43.98066199468264" lon="11.232382017467192"><ele>266.6</ele><time>2026-04-11T13:29:25.019Z</time></trkpt><trkpt lat="43.980552067595106" lon="11.232405413141274"><ele>266.40000000000003</ele><time>2026-04-11T13:29:26.019Z</time></trkpt><trkpt lat="43.9804472191989" lon="11.232399373386448"><ele>266.2</ele><time>2026-04-11T13:29:27.019Z</time></trkpt><trkpt lat="43.98034206646469" lon="11.232363914155686"><ele>266.0</ele><time>2026-04-11T13:29:28.019Z</time></trkpt><trkpt lat="43.980231453076655" lon="11.23230137285103"><ele>265.5</ele><time>2026-04-11T13:29:29.019Z</time></trkpt><trkpt lat="43.980117071681555" lon="11.232232595259035"><ele>265.0</ele><time>2026-04-11T13:29:30.019Z</time></trkpt><trkpt lat="43.98000113625043" lon="11.232161469259701"><ele>264.5</ele><time>2026-04-11T13:29:31.019Z</time></trkpt><trkpt lat="43.97987775157677" lon="11.2320851209352"><ele>264.0</ele><time>2026-04-11T13:29:32.019Z</time></trkpt><trkpt lat="43.97975731468035" lon="11.231999365689234"><ele>262.75</ele><time>2026-04-11T13:29:33.019Z</time></trkpt><trkpt lat="43.979642210715404" lon="11.231923038505682"><ele>261.5</ele><time>2026-04-11T13:29:34.019Z</time></trkpt><trkpt lat="43.97953123221422" lon="11.231842041329347"><ele>260.25</ele><time>2026-04-11T13:29:35.019Z</time></trkpt><trkpt lat="43.97942971492568" lon="11.231762374872824"><ele>259.0</ele><time>2026-04-11T13:29:36.019Z</time></trkpt><trkpt lat="43.9793365544885" lon="11.231685134396768"><ele>259.0</ele><time>2026-04-11T13:29:37.019Z</time></trkpt><trkpt lat="43.97925528275186" lon="11.231600767323068"><ele>259.0</ele><time>2026-04-11T13:29:38.019Z</time></trkpt><trkpt lat="43.9791876025829" lon="11.231496960162533"><ele>259.0</ele><time>2026-04-11T13:29:39.019Z</time></trkpt><trkpt lat="43.9791423687616" lon="11.231371659249941"><ele>259.0</ele><time>2026-04-11T13:29:40.019Z</time></trkpt><trkpt lat="43.97910203844222" lon="11.231239101260073"><ele>259.0</ele><time>2026-04-11T13:29:41.019Z</time></trkpt><trkpt lat="43.97909205497567" lon="11.231116712798304"><ele>258.0</ele><time>2026-04-11T13:29:42.019Z</time></trkpt><trkpt lat="43.9790857686178" lon="11.231008705564536"><ele>257.0</ele><time>2026-04-11T13:29:43.019Z</time></trkpt><trkpt lat="43.97907985141725" lon="11.23091840070316"><ele>256.0</ele><time>2026-04-11T13:29:44.019Z</time></trkpt><trkpt lat="43.97906635498333" lon="11.230803900116072"><ele>255.0</ele><time>2026-04-11T13:29:46.019Z</time></trkpt><trkpt lat="43.97895037355879" lon="11.230767135963733"><ele>253.99999999999997</ele><time>2026-04-11T13:29:48.019Z</time></trkpt><trkpt lat="43.978879551146626" lon="11.230792045737763"><ele>253.0</ele><time>2026-04-11T13:29:49.019Z</time></trkpt><trkpt lat="43.978805896681784" lon="11.230826999264396"><ele>253.0</ele><time>2026-04-11T13:29:50.019Z</time></trkpt><trkpt lat="43.978718583653986" lon="11.230818596190094"><ele>253.0</ele><time>2026-04-11T13:29:51.019Z</time></trkpt><trkpt lat="43.97862175645681" lon="11.230784107526393"><ele>253.0</ele><time>2026-04-11T13:29:52.019Z</time></trkpt><trkpt lat="43.978527375416775" lon="11.230724073023012"><ele>253.0</ele><time>2026-04-11T13:29:53.019Z</time></trkpt><trkpt lat="43.97843531542519" lon="11.230654905267844"><ele>253.0</ele><time>2026-04-11T13:29:54.019Z</time></trkpt><trkpt lat="43.97834421069428" lon="11.230573710888624"><ele>252.8</ele><time>2026-04-11T13:29:55.019Z</time></trkpt><trkpt lat="43.97825079807769" lon="11.23049689507765"><ele>252.60000000000002</ele><time>2026-04-11T13:29:56.018Z</time></trkpt><trkpt lat="43.97815516109275" lon="11.230419199888642"><ele>252.39999999999998</ele><time>2026-04-11T13:29:57.018Z</time></trkpt><trkpt lat="43.978058021764" lon="11.230345654284234"><ele>252.2</ele><time>2026-04-11T13:29:58.018Z</time></trkpt><trkpt lat="43.97795859053972" lon="11.230282358663377"><ele>252.0</ele><time>2026-04-11T13:29:59.019Z</time></trkpt><trkpt lat="43.97785236277374" lon="11.230219888176412"><ele>252.0</ele><time>2026-04-11T13:30:00.018Z</time></trkpt><trkpt lat="43.9777408877922" lon="11.230168503919955"><ele>252.0</ele><time>2026-04-11T13:30:01.018Z</time></trkpt><trkpt lat="43.9776270241899" lon="11.230122728236642"><ele>252.0</ele><time>2026-04-11T13:30:02.018Z</time></trkpt><trkpt lat="43.9775162405185" lon="11.23007339861834"><ele>252.0</ele><time>2026-04-11T13:30:03.018Z</time></trkpt><trkpt lat="43.977400431663156" lon="11.230026766176216"><ele>252.5</ele><time>2026-04-11T13:30:04.018Z</time></trkpt><trkpt lat="43.97728600309574" lon="11.22997519314207"><ele>253.0</ele><time>2026-04-11T13:30:05.018Z</time></trkpt><trkpt lat="43.97717756934867" lon="11.229938438048698"><ele>253.5</ele><time>2026-04-11T13:30:06.019Z</time></trkpt><trkpt lat="43.9770635366123" lon="11.229920630981127"><ele>254.0</ele><time>2026-04-11T13:30:07.019Z</time></trkpt><trkpt lat="43.97694850332245" lon="11.229896483504263"><ele>254.0</ele><time>2026-04-11T13:30:08.018Z</time></trkpt><trkpt lat="43.97681973204604" lon="11.229941436923854"><ele>254.0</ele><time>2026-04-11T13:30:09.018Z</time></trkpt><trkpt lat="43.97670271970862" lon="11.230034871976082"><ele>254.0</ele><time>2026-04-11T13:30:10.019Z</time></trkpt><trkpt lat="43.976595021477024" lon="11.230143402310038"><ele>254.0</ele><time>2026-04-11T13:30:11.019Z</time></trkpt><trkpt lat="43.97648888501921" lon="11.23025839373881"><ele>253.75</ele><time>2026-04-11T13:30:12.019Z</time></trkpt><trkpt lat="43.97637860183902" lon="11.230374610183409"><ele>253.5</ele><time>2026-04-11T13:30:13.019Z</time></trkpt><trkpt lat="43.97626409330642" lon="11.230490482390005"><ele>253.25</ele><time>2026-04-11T13:30:14.019Z</time></trkpt><trkpt lat="43.97614111554539" lon="11.23061139566389"><ele>253.0</ele><time>2026-04-11T13:30:15.019Z</time></trkpt><trkpt lat="43.976024245294155" lon="11.230728824699506"><ele>253.0</ele><time>2026-04-11T13:30:16.019Z</time></trkpt><trkpt lat="43.97590281564157" lon="11.230851160348315"><ele>253.0</ele><time>2026-04-11T13:30:17.019Z</time></trkpt><trkpt lat="43.975788197902055" lon="11.230992090132064"><ele>253.0</ele><time>2026-04-11T13:30:18.019Z</time></trkpt><trkpt lat="43.9756642462105" lon="11.231087706026797"><ele>253.0</ele><time>2026-04-11T13:30:19.019Z</time></trkpt><trkpt lat="43.975563451778974" lon="11.231201554995842"><ele>253.5</ele><time>2026-04-11T13:30:20.019Z</time></trkpt><trkpt lat="43.975484921364156" lon="11.2313437311957"><ele>254.0</ele><time>2026-04-11T13:30:21.019Z</time></trkpt><trkpt lat="43.97542962086001" lon="11.231516545749802"><ele>254.5</ele><time>2026-04-11T13:30:22.019Z</time></trkpt><trkpt lat="43.975395364795254" lon="11.231725283252823"><ele>255.0</ele><time>2026-04-11T13:30:23.019Z</time></trkpt><trkpt lat="43.9754018078982" lon="11.231961456426557"><ele>255.0</ele><time>2026-04-11T13:30:24.019Z</time></trkpt><trkpt lat="43.975445353180824" lon="11.232183175864781"><ele>255.0</ele><time>2026-04-11T13:30:25.019Z</time></trkpt><trkpt lat="43.975498602772014" lon="11.232391397595514"><ele>255.0</ele><time>2026-04-11T13:30:26.019Z</time></trkpt><trkpt lat="43.97555047712867" lon="11.232600593882376"><ele>255.66666666666669</ele><time>2026-04-11T13:30:27.019Z</time></trkpt><trkpt lat="43.97559075085183" lon="11.232809087091375"><ele>256.33333333333337</ele><time>2026-04-11T13:30:28.019Z</time></trkpt><trkpt lat="43.975636101010174" lon="11.23301894323067"><ele>257.0</ele><time>2026-04-11T13:30:29.019Z</time></trkpt><trkpt lat="43.97569203669423" lon="11.233224294678006"><ele>258.6666666666667</ele><time>2026-04-11T13:30:30.019Z</time></trkpt><trkpt lat="43.97576727638374" lon="11.233429320976466"><ele>260.3333333333333</ele><time>2026-04-11T13:30:31.019Z</time></trkpt><trkpt lat="43.975871876335354" lon="11.233639192069226"><ele>262.0</ele><time>2026-04-11T13:30:32.019Z</time></trkpt><trkpt lat="43.975979230318" lon="11.233838209465093"><ele>259.0</ele><time>2026-04-11T13:30:33.019Z</time></trkpt><trkpt lat="43.97609444346151" lon="11.234011337173246"><ele>256.0</ele><time>2026-04-11T13:30:34.019Z</time></trkpt><trkpt lat="43.97620725082144" lon="11.234178647028962"><ele>253.0</ele><time>2026-04-11T13:30:35.019Z</time></trkpt><trkpt lat="43.976317602822114" lon="11.234354335412736"><ele>253.0</ele><time>2026-04-11T13:30:36.019Z</time></trkpt><trkpt lat="43.97643111008257" lon="11.234537861575653"><ele>253.0</ele><time>2026-04-11T13:30:37.019Z</time></trkpt><trkpt lat="43.97654628912144" lon="11.234720541855507"><ele>253.0</ele><time>2026-04-11T13:30:38.019Z</time></trkpt><trkpt lat="43.976666655840354" lon="11.234898893105795"><ele>252.0</ele><time>2026-04-11T13:30:39.019Z</time></trkpt><trkpt lat="43.976790898267915" lon="11.235081367387767"><ele>251.0</ele><time>2026-04-11T13:30:40.019Z</time></trkpt><trkpt lat="43.97690905819052" lon="11.235266270019059"><ele>250.0</ele><time>2026-04-11T13:30:41.019Z</time></trkpt><trkpt lat="43.977033454951275" lon="11.235451168661276"><ele>250.0</ele><time>2026-04-11T13:30:42.019Z</time></trkpt><trkpt lat="43.97715585922505" lon="11.235634951432683"><ele>250.0</ele><time>2026-04-11T13:30:43.019Z</time></trkpt><trkpt lat="43.97727709708123" lon="11.235816924140451"><ele>250.0</ele><time>2026-04-11T13:30:44.019Z</time></trkpt><trkpt lat="43.977394002169376" lon="11.235996066880611"><ele>250.0</ele><time>2026-04-11T13:30:45.019Z</time></trkpt><trkpt lat="43.97750817557426" lon="11.236169945760398"><ele>250.0</ele><time>2026-04-11T13:30:46.019Z</time></trkpt><trkpt lat="43.977612962651314" lon="11.236345786733338"><ele>250.0</ele><time>2026-04-11T13:30:47.019Z</time></trkpt><trkpt lat="43.97768774676115" lon="11.236549115622207"><ele>249.33333333333331</ele><time>2026-04-11T13:30:48.019Z</time></trkpt><trkpt lat="43.97775721375896" lon="11.236754935402178"><ele>248.66666666666669</ele><time>2026-04-11T13:30:49.019Z</time></trkpt><trkpt lat="43.977817776702835" lon="11.236959723228848"><ele>248.0</ele><time>2026-04-11T13:30:50.019Z</time></trkpt><trkpt lat="43.977873646462704" lon="11.237171765551036"><ele>248.75</ele><time>2026-04-11T13:30:51.019Z</time></trkpt><trkpt lat="43.97792580841137" lon="11.237378104706725"><ele>249.5</ele><time>2026-04-11T13:30:52.019Z</time></trkpt><trkpt lat="43.97796351629733" lon="11.237570279873395"><ele>250.25</ele><time>2026-04-11T13:30:53.019Z</time></trkpt><trkpt lat="43.97797638382037" lon="11.237769106962325"><ele>251.0</ele><time>2026-04-11T13:30:54.019Z</time></trkpt><trkpt lat="43.97797313081789" lon="11.237985766458909"><ele>251.33333333333334</ele><time>2026-04-11T13:30:55.019Z</time></trkpt><trkpt lat="43.977902835957615" lon="11.238189163619843"><ele>251.66666666666669</ele><time>2026-04-11T13:30:56.019Z</time></trkpt><trkpt lat="43.97783258820639" lon="11.238383567359133"><ele>252.0</ele><time>2026-04-11T13:30:57.019Z</time></trkpt><trkpt lat="43.97771163272759" lon="11.238537014127074"><ele>252.0</ele><time>2026-04-11T13:30:58.019Z</time></trkpt><trkpt lat="43.977564310629084" lon="11.238655477381913"><ele>252.0</ele><time>2026-04-11T13:30:59.019Z</time></trkpt><trkpt lat="43.97741061676749" lon="11.238733434986932"><ele>252.0</ele><time>2026-04-11T13:31:00.019Z</time></trkpt><trkpt lat="43.97726145766888" lon="11.238797393113568"><ele>252.0</ele><time>2026-04-11T13:31:01.019Z</time></trkpt><trkpt lat="43.977108751617806" lon="11.238864288866703"><ele>252.0</ele><time>2026-04-11T13:31:02.019Z</time></trkpt><trkpt lat="43.9769567509976" lon="11.238927927303921"><ele>252.0</ele><time>2026-04-11T13:31:03.019Z</time></trkpt><trkpt lat="43.97680759600612" lon="11.239001133066845"><ele>254.0</ele><time>2026-04-11T13:31:04.019Z</time></trkpt><trkpt lat="43.97665849567954" lon="11.239066506039535"><ele>256.0</ele><time>2026-04-11T13:31:05.019Z</time></trkpt><trkpt lat="43.97649991551425" lon="11.239143426297023"><ele>258.0</ele><time>2026-04-11T13:31:06.019Z</time></trkpt><trkpt lat="43.97634354823208" lon="11.239215921502923"><ele>258.0</ele><time>2026-04-11T13:31:07.019Z</time></trkpt><trkpt lat="43.976180885104334" lon="11.239286668748958"><ele>258.0</ele><time>2026-04-11T13:31:08.019Z</time></trkpt><trkpt lat="43.97601773777221" lon="11.239355691034943"><ele>258.0</ele><time>2026-04-11T13:31:09.019Z</time></trkpt><trkpt lat="43.97586105455075" lon="11.239422775857646"><ele>261.3333333333333</ele><time>2026-04-11T13:31:10.019Z</time></trkpt><trkpt lat="43.97571034489168" lon="11.239490216706042"><ele>264.66666666666663</ele><time>2026-04-11T13:31:11.019Z</time></trkpt><trkpt lat="43.97556694962426" lon="11.239555357623306"><ele>268.0</ele><time>2026-04-11T13:31:12.019Z</time></trkpt><trkpt lat="43.97542666399598" lon="11.239627137768467"><ele>268.0</ele><time>2026-04-11T13:31:13.02Z</time></trkpt><trkpt lat="43.97528746103551" lon="11.239701681319152"><ele>268.0</ele><time>2026-04-11T13:31:14.02Z</time></trkpt><trkpt lat="43.975140644941625" lon="11.23977513989523"><ele>268.0</ele><time>2026-04-11T13:31:15.02Z</time></trkpt><trkpt lat="43.97500096589692" lon="11.239843921678396"><ele>265.5</ele><time>2026-04-11T13:31:16.02Z</time></trkpt><trkpt lat="43.97486972132599" lon="11.239902935234714"><ele>263.0</ele><time>2026-04-11T13:31:17.02Z</time></trkpt><trkpt lat="43.974732975023514" lon="11.239965959194487"><ele>260.5</ele><time>2026-04-11T13:31:18.02Z</time></trkpt><trkpt lat="43.97458328989933" lon="11.24001582337107"><ele>258.0</ele><time>2026-04-11T13:31:19.02Z</time></trkpt><trkpt lat="43.9744324017339" lon="11.240040279472598"><ele>258.0</ele><time>2026-04-11T13:31:20.02Z</time></trkpt><trkpt lat="43.97427261938912" lon="11.24003389952276"><ele>258.0</ele><time>2026-04-11T13:31:21.02Z</time></trkpt><trkpt lat="43.974116543343214" lon="11.240020377199963"><ele>258.0</ele><time>2026-04-11T13:31:22.02Z</time></trkpt><trkpt lat="43.9739589617826" lon="11.240007375142334"><ele>258.3333333333333</ele><time>2026-04-11T13:31:23.02Z</time></trkpt><trkpt lat="43.97380125777811" lon="11.239994753086357"><ele>258.66666666666663</ele><time>2026-04-11T13:31:24.02Z</time></trkpt><trkpt lat="43.973648995860394" lon="11.239980059445065"><ele>259.0</ele><time>2026-04-11T13:31:25.02Z</time></trkpt><trkpt lat="43.97350538742553" lon="11.23996596897369"><ele>259.0</ele><time>2026-04-11T13:31:26.02Z</time></trkpt><trkpt lat="43.97337301364875" lon="11.239955152538018"><ele>259.0</ele><time>2026-04-11T13:31:27.02Z</time></trkpt><trkpt lat="43.97325149598671" lon="11.239982741522956"><ele>259.0</ele><time>2026-04-11T13:31:28.02Z</time></trkpt><trkpt lat="43.97313041843965" lon="11.240036682704371"><ele>259.0</ele><time>2026-04-11T13:31:29.02Z</time></trkpt><trkpt lat="43.973026086125365" lon="11.24017010740137"><ele>259.0</ele><time>2026-04-11T13:31:30.02Z</time></trkpt><trkpt lat="43.97295908068111" lon="11.24034444871204"><ele>259.0</ele><time>2026-04-11T13:31:31.02Z</time></trkpt><trkpt lat="43.97286840861536" lon="11.24050349597676"><ele>259.0</ele><time>2026-04-11T13:31:32.02Z</time></trkpt><trkpt lat="43.97280413201009" lon="11.240679864911407"><ele>259.0</ele><time>2026-04-11T13:31:33.02Z</time></trkpt><trkpt lat="43.972782831742876" lon="11.240870862096099"><ele>256.66666666666663</ele><time>2026-04-11T13:31:34.02Z</time></trkpt><trkpt lat="43.97281993454758" lon="11.241069998567134"><ele>254.33333333333331</ele><time>2026-04-11T13:31:35.02Z</time></trkpt><trkpt lat="43.972871660439786" lon="11.241278171013905"><ele>252.0</ele><time>2026-04-11T13:31:36.02Z</time></trkpt><trkpt lat="43.9729545829169" lon="11.24151385016896"><ele>252.0</ele><time>2026-04-11T13:31:37.02Z</time></trkpt><trkpt lat="43.97303854225791" lon="11.241732438839838"><ele>252.0</ele><time>2026-04-11T13:31:38.02Z</time></trkpt><trkpt lat="43.97311042284207" lon="11.241941182548116"><ele>252.0</ele><time>2026-04-11T13:31:39.02Z</time></trkpt><trkpt lat="43.97317202834538" lon="11.242136721545757"><ele>251.66666666666669</ele><time>2026-04-11T13:31:40.02Z</time></trkpt><trkpt lat="43.97323704056299" lon="11.242318307235523"><ele>251.33333333333334</ele><time>2026-04-11T13:31:41.02Z</time></trkpt><trkpt lat="43.97331686135706" lon="11.242498522447395"><ele>251.0</ele><time>2026-04-11T13:31:42.02Z</time></trkpt><trkpt lat="43.973419719028485" lon="11.242668649371112"><ele>251.0</ele><time>2026-04-11T13:31:43.02Z</time></trkpt><trkpt lat="43.97352587713548" lon="11.242826017958098"><ele>251.0</ele><time>2026-04-11T13:31:44.02Z</time></trkpt><trkpt lat="43.97363355554123" lon="11.242984501128745"><ele>251.0</ele><time>2026-04-11T13:31:45.02Z</time></trkpt><trkpt lat="43.97374381200659" lon="11.243141122518676"><ele>253.0</ele><time>2026-04-11T13:31:46.02Z</time></trkpt><trkpt lat="43.97385261830002" lon="11.243289356030157"><ele>255.0</ele><time>2026-04-11T13:31:47.02Z</time></trkpt><trkpt lat="43.973962503129286" lon="11.243442897237788"><ele>257.0</ele><time>2026-04-11T13:31:48.02Z</time></trkpt><trkpt lat="43.97406710648696" lon="11.243598054811313"><ele>257.0</ele><time>2026-04-11T13:31:49.02Z</time></trkpt><trkpt lat="43.97416594502364" lon="11.24375935473919"><ele>257.0</ele><time>2026-04-11T13:31:50.02Z</time></trkpt><trkpt lat="43.974272518807176" lon="11.243914888126119"><ele>257.0</ele><time>2026-04-11T13:31:51.02Z</time></trkpt><trkpt lat="43.97437864399125" lon="11.244067516951695"><ele>257.0</ele><time>2026-04-11T13:31:52.02Z</time></trkpt><trkpt lat="43.97450174069838" lon="11.244194006125953"><ele>257.0</ele><time>2026-04-11T13:31:53.02Z</time></trkpt><trkpt lat="43.97464988802784" lon="11.244273553834198"><ele>257.0</ele><time>2026-04-11T13:31:54.02Z</time></trkpt><trkpt lat="43.974811864434834" lon="11.24431226290319"><ele>257.0</ele><time>2026-04-11T13:31:55.02Z</time></trkpt><trkpt lat="43.97497690441527" lon="11.244328279043529"><ele>257.0</ele><time>2026-04-11T13:31:56.02Z</time></trkpt><trkpt lat="43.97513571105148" lon="11.244344293898978"><ele>257.0</ele><time>2026-04-11T13:31:57.02Z</time></trkpt><trkpt lat="43.975286929169286" lon="11.244394116426696"><ele>258.0</ele><time>2026-04-11T13:31:58.02Z</time></trkpt><trkpt lat="43.97543445592384" lon="11.244417878978984"><ele>259.0</ele><time>2026-04-11T13:31:59.02Z</time></trkpt><trkpt lat="43.97556423421689" lon="11.244516446533689"><ele>260.0</ele><time>2026-04-11T13:32:00.02Z</time></trkpt><trkpt lat="43.97567021448826" lon="11.244636549364845"><ele>261.0</ele><time>2026-04-11T13:32:01.02Z</time></trkpt><trkpt lat="43.97575561495924" lon="11.244797706979288"><ele>261.0</ele><time>2026-04-11T13:32:02.018Z</time></trkpt><trkpt lat="43.97583441566295" lon="11.244985734801157"><ele>261.0</ele><time>2026-04-11T13:32:03.018Z</time></trkpt><trkpt lat="43.97591106527825" lon="11.245170356277532"><ele>261.0</ele><time>2026-04-11T13:32:04.018Z</time></trkpt><trkpt lat="43.9759746187876" lon="11.245339877505458"><ele>261.0</ele><time>2026-04-11T13:32:05.018Z</time></trkpt><trkpt lat="43.97601888075965" lon="11.245509660577996"><ele>257.0</ele><time>2026-04-11T13:32:06.018Z</time></trkpt><trkpt lat="43.97602468134111" lon="11.24568292870321"><ele>253.0</ele><time>2026-04-11T13:32:07.018Z</time></trkpt><trkpt lat="43.976001015247725" lon="11.245865712227278"><ele>249.0</ele><time>2026-04-11T13:32:08.018Z</time></trkpt><trkpt lat="43.97594041375814" lon="11.24606041862946"><ele>245.0</ele><time>2026-04-11T13:32:09.018Z</time></trkpt><trkpt lat="43.97586022651535" lon="11.246247365668221"><ele>250.0</ele><time>2026-04-11T13:32:10.018Z</time></trkpt><trkpt lat="43.97576821653656" lon="11.24646704692654"><ele>255.0</ele><time>2026-04-11T13:32:11.019Z</time></trkpt><trkpt lat="43.97567896887306" lon="11.246683728760734"><ele>260.0</ele><time>2026-04-11T13:32:12.018Z</time></trkpt><trkpt lat="43.97558844888733" lon="11.246903705082103"><ele>260.0</ele><time>2026-04-11T13:32:13.018Z</time></trkpt><trkpt lat="43.97550182118392" lon="11.247117191312755"><ele>260.0</ele><time>2026-04-11T13:32:14.018Z</time></trkpt><trkpt lat="43.97541460463156" lon="11.247333611253321"><ele>260.0</ele><time>2026-04-11T13:32:15.018Z</time></trkpt><trkpt lat="43.975327128438295" lon="11.247549016993238"><ele>260.75</ele><time>2026-04-11T13:32:16.018Z</time></trkpt><trkpt lat="43.9752443837288" lon="11.247745984651775"><ele>261.5</ele><time>2026-04-11T13:32:17.018Z</time></trkpt><trkpt lat="43.97516834023715" lon="11.247914206812546"><ele>262.25</ele><time>2026-04-11T13:32:18.018Z</time></trkpt><trkpt lat="43.97507543516427" lon="11.248056217941198"><ele>263.0</ele><time>2026-04-11T13:32:19.018Z</time></trkpt><trkpt lat="43.974975802516866" lon="11.248180221467948"><ele>263.0</ele><time>2026-04-11T13:32:20.018Z</time></trkpt><trkpt lat="43.97484900013846" lon="11.248260169438785"><ele>263.0</ele><time>2026-04-11T13:32:21.018Z</time></trkpt><trkpt lat="43.974721302000866" lon="11.24832065641685"><ele>263.0</ele><time>2026-04-11T13:32:22.018Z</time></trkpt><trkpt lat="43.97460167947171" lon="11.248389447464506"><ele>263.0</ele><time>2026-04-11T13:32:23.018Z</time></trkpt><trkpt lat="43.974497971433436" lon="11.248465090429985"><ele>263.0</ele><time>2026-04-11T13:32:24.018Z</time></trkpt><trkpt lat="43.974395272894675" lon="11.2485584722527"><ele>263.0</ele><time>2026-04-11T13:32:25.018Z</time></trkpt><trkpt lat="43.97432902307418" lon="11.248700021730311"><ele>263.0</ele><time>2026-04-11T13:32:26.018Z</time></trkpt><trkpt lat="43.974272144874526" lon="11.248837436763877"><ele>263.0</ele><time>2026-04-11T13:32:27.018Z</time></trkpt><trkpt lat="43.974239095937975" lon="11.248975812750459"><ele>264.2</ele><time>2026-04-11T13:32:28.018Z</time></trkpt><trkpt lat="43.97417384689468" lon="11.249095889971834"><ele>265.4</ele><time>2026-04-11T13:32:29.018Z</time></trkpt><trkpt lat="43.97411331694319" lon="11.249208558892267"><ele>266.59999999999997</ele><time>2026-04-11T13:32:30.018Z</time></trkpt><trkpt lat="43.974043250900166" lon="11.249305499208297"><ele>267.8</ele><time>2026-04-11T13:32:31.018Z</time></trkpt><trkpt lat="43.973972457171165" lon="11.249377386433824"><ele>269.0</ele><time>2026-04-11T13:32:32.018Z</time></trkpt><trkpt lat="43.9738946872146" lon="11.249410202095225"><ele>269.0</ele><time>2026-04-11T13:32:33.018Z</time></trkpt><trkpt lat="43.97380549970106" lon="11.249423905788518"><ele>269.0</ele><time>2026-04-11T13:32:34.018Z</time></trkpt><trkpt lat="43.97371098565974" lon="11.249407949206377"><ele>269.0</ele><time>2026-04-11T13:32:35.018Z</time></trkpt><trkpt lat="43.97361509304593" lon="11.249393118931286"><ele>269.0</ele><time>2026-04-11T13:32:36.018Z</time></trkpt><trkpt lat="43.97350640720554" lon="11.249366422898257"><ele>269.0</ele><time>2026-04-11T13:32:37.018Z</time></trkpt><trkpt lat="43.973393229318866" lon="11.249341897314276"><ele>270.0</ele><time>2026-04-11T13:32:38.018Z</time></trkpt><trkpt lat="43.9732726312635" lon="11.249312988751571"><ele>271.0</ele><time>2026-04-11T13:32:39.018Z</time></trkpt><trkpt lat="43.97314584825832" lon="11.249267341934301"><ele>272.0</ele><time>2026-04-11T13:32:40.018Z</time></trkpt><trkpt lat="43.97301620740666" lon="11.249226817336057"><ele>273.0</ele><time>2026-04-11T13:32:41.018Z</time></trkpt><trkpt lat="43.972884117395026" lon="11.24918670615098"><ele>273.0</ele><time>2026-04-11T13:32:42.018Z</time></trkpt><trkpt lat="43.972747921865206" lon="11.249155128794065"><ele>273.0</ele><time>2026-04-11T13:32:43.018Z</time></trkpt><trkpt lat="43.97260872341107" lon="11.249121919415103"><ele>273.0</ele><time>2026-04-11T13:32:44.018Z</time></trkpt><trkpt lat="43.9724695103837" lon="11.249087938175437"><ele>273.0</ele><time>2026-04-11T13:32:45.018Z</time></trkpt><trkpt lat="43.97234005963782" lon="11.249053830769265"><ele>272.5</ele><time>2026-04-11T13:32:46.018Z</time></trkpt><trkpt lat="43.972220225080754" lon="11.249012946298038"><ele>272.0</ele><time>2026-04-11T13:32:47.018Z</time></trkpt><trkpt lat="43.97210727306723" lon="11.24898116205135"><ele>271.5</ele><time>2026-04-11T13:32:48.018Z</time></trkpt><trkpt lat="43.971990931111094" lon="11.2489680050973"><ele>271.0</ele><time>2026-04-11T13:32:49.018Z</time></trkpt><trkpt lat="43.97187444054583" lon="11.248990872033836"><ele>271.0</ele><time>2026-04-11T13:32:50.018Z</time></trkpt><trkpt lat="43.9717623815419" lon="11.249052879549904"><ele>271.0</ele><time>2026-04-11T13:32:51.018Z</time></trkpt><trkpt lat="43.971658191759325" lon="11.249142002047437"><ele>271.0</ele><time>2026-04-11T13:32:52.019Z</time></trkpt><trkpt lat="43.97156551047396" lon="11.249241179930184"><ele>271.0</ele><time>2026-04-11T13:32:53.019Z</time></trkpt><trkpt lat="43.971478745882436" lon="11.249345399483367"><ele>270.75</ele><time>2026-04-11T13:32:54.019Z</time></trkpt><trkpt lat="43.971402196815895" lon="11.249469602198877"><ele>270.5</ele><time>2026-04-11T13:32:55.019Z</time></trkpt><trkpt lat="43.971348379946676" lon="11.24960993523603"><ele>270.25</ele><time>2026-04-11T13:32:56.019Z</time></trkpt><trkpt lat="43.97132527729335" lon="11.249771459036094"><ele>270.0</ele><time>2026-04-11T13:32:57.019Z</time></trkpt><trkpt lat="43.971321372572355" lon="11.249927209247533"><ele>269.5</ele><time>2026-04-11T13:32:58.019Z</time></trkpt><trkpt lat="43.971383543513326" lon="11.250089986136553"><ele>269.0</ele><time>2026-04-11T13:32:59.019Z</time></trkpt><trkpt lat="43.97145552509593" lon="11.250213800996644"><ele>268.5</ele><time>2026-04-11T13:33:00.019Z</time></trkpt><trkpt lat="43.97154418879468" lon="11.25032008837366"><ele>268.0</ele><time>2026-04-11T13:33:01.019Z</time></trkpt><trkpt lat="43.97162861762459" lon="11.250426747093329"><ele>268.2</ele><time>2026-04-11T13:33:02.019Z</time></trkpt><trkpt lat="43.97169250228232" lon="11.250537188807447"><ele>268.4</ele><time>2026-04-11T13:33:03.019Z</time></trkpt><trkpt lat="43.97176082124267" lon="11.250658584262549"><ele>268.59999999999997</ele><time>2026-04-11T13:33:04.019Z</time></trkpt><trkpt lat="43.97180543866498" lon="11.250803489675604"><ele>268.8</ele><time>2026-04-11T13:33:05.019Z</time></trkpt><trkpt lat="43.97184730800524" lon="11.25092389961094"><ele>269.0</ele><time>2026-04-11T13:33:06.019Z</time></trkpt><trkpt lat="43.9718462649884" lon="11.25108926753844"><ele>269.0</ele><time>2026-04-11T13:33:07.019Z</time></trkpt><trkpt lat="43.97179896363895" lon="11.251237229315105"><ele>269.0</ele><time>2026-04-11T13:33:08.019Z</time></trkpt><trkpt lat="43.97171985243153" lon="11.251401977943582"><ele>269.0</ele><time>2026-04-11T13:33:09.019Z</time></trkpt><trkpt lat="43.97164600844496" lon="11.251561926393922"><ele>269.0</ele><time>2026-04-11T13:33:10.019Z</time></trkpt><trkpt lat="43.97155342877647" lon="11.251681190684913"><ele>270.5</ele><time>2026-04-11T13:33:11.019Z</time></trkpt><trkpt lat="43.97147193538008" lon="11.251819552533314"><ele>272.0</ele><time>2026-04-11T13:33:12.019Z</time></trkpt><trkpt lat="43.971362123219855" lon="11.251924262571938"><ele>273.5</ele><time>2026-04-11T13:33:13.019Z</time></trkpt><trkpt lat="43.971220403022166" lon="11.251971643033455"><ele>275.0</ele><time>2026-04-11T13:33:14.019Z</time></trkpt><trkpt lat="43.971075194077436" lon="11.25204003676443"><ele>275.0</ele><time>2026-04-11T13:33:15.019Z</time></trkpt><trkpt lat="43.970921208041425" lon="11.25211493738033"><ele>275.0</ele><time>2026-04-11T13:33:16.019Z</time></trkpt><trkpt lat="43.97078973035233" lon="11.252165937901005"><ele>275.0</ele><time>2026-04-11T13:33:17.019Z</time></trkpt><trkpt lat="43.97066488279556" lon="11.252219016814577"><ele>275.0</ele><time>2026-04-11T13:33:18.019Z</time></trkpt><trkpt lat="43.970540308848975" lon="11.25228364117731"><ele>275.75</ele><time>2026-04-11T13:33:19.019Z</time></trkpt><trkpt lat="43.9704255620679" lon="11.25237207915799"><ele>276.5</ele><time>2026-04-11T13:33:20.019Z</time></trkpt><trkpt lat="43.97035152374891" lon="11.25249509542923"><ele>277.25</ele><time>2026-04-11T13:33:21.019Z</time></trkpt><trkpt lat="43.97029984041556" lon="11.252636603678077"><ele>278.0</ele><time>2026-04-11T13:33:22.019Z</time></trkpt><trkpt lat="43.97028625368614" lon="11.252812710966074"><ele>278.0</ele><time>2026-04-11T13:33:23.019Z</time></trkpt><trkpt lat="43.97031883774245" lon="11.252981516925871"><ele>278.0</ele><time>2026-04-11T13:33:24.019Z</time></trkpt><trkpt lat="43.970392318920375" lon="11.253123466646047"><ele>278.0</ele><time>2026-04-11T13:33:25.019Z</time></trkpt><trkpt lat="43.9704969574382" lon="11.25321679331197"><ele>278.0</ele><time>2026-04-11T13:33:26.019Z</time></trkpt><trkpt lat="43.97060926042284" lon="11.253319768554867"><ele>278.75</ele><time>2026-04-11T13:33:27.019Z</time></trkpt><trkpt lat="43.970711981337494" lon="11.253409649704961"><ele>279.5</ele><time>2026-04-11T13:33:28.019Z</time></trkpt><trkpt lat="43.97081176159074" lon="11.253495635823024"><ele>280.25</ele><time>2026-04-11T13:33:29.019Z</time></trkpt><trkpt lat="43.97087217587912" lon="11.253634528458058"><ele>281.0</ele><time>2026-04-11T13:33:30.019Z</time></trkpt><trkpt lat="43.97092016027706" lon="11.253789384298672"><ele>281.0</ele><time>2026-04-11T13:33:31.019Z</time></trkpt><trkpt lat="43.97095827473304" lon="11.253956246434052"><ele>281.0</ele><time>2026-04-11T13:33:32.019Z</time></trkpt><trkpt lat="43.97100688112569" lon="11.254145143431575"><ele>281.0</ele><time>2026-04-11T13:33:33.019Z</time></trkpt><trkpt lat="43.97105899683547" lon="11.254334278552221"><ele>281.0</ele><time>2026-04-11T13:33:34.019Z</time></trkpt><trkpt lat="43.971114562098364" lon="11.254533286483774"><ele>281.0</ele><time>2026-04-11T13:33:35.019Z</time></trkpt><trkpt lat="43.971169886908285" lon="11.254730700770294"><ele>281.0</ele><time>2026-04-11T13:33:36.019Z</time></trkpt><trkpt lat="43.9712237552916" lon="11.254922918093579"><ele>281.0</ele><time>2026-04-11T13:33:37.019Z</time></trkpt><trkpt lat="43.97126950719625" lon="11.255105046035581"><ele>281.0</ele><time>2026-04-11T13:33:38.019Z</time></trkpt><trkpt lat="43.97129885197683" lon="11.25528814286424"><ele>280.5</ele><time>2026-04-11T13:33:39.019Z</time></trkpt><trkpt lat="43.97130121039728" lon="11.255460431627183"><ele>280.0</ele><time>2026-04-11T13:33:40.019Z</time></trkpt><trkpt lat="43.97127123776111" lon="11.255629374003126"><ele>279.5</ele><time>2026-04-11T13:33:41.019Z</time></trkpt><trkpt lat="43.971207996764846" lon="11.255769568542519"><ele>279.0</ele><time>2026-04-11T13:33:42.019Z</time></trkpt><trkpt lat="43.971110778010186" lon="11.255886961916577"><ele>279.5</ele><time>2026-04-11T13:33:43.019Z</time></trkpt><trkpt lat="43.97100999266306" lon="11.25599905594007"><ele>280.0</ele><time>2026-04-11T13:33:44.019Z</time></trkpt><trkpt lat="43.970891635983236" lon="11.256121890134361"><ele>280.5</ele><time>2026-04-11T13:33:45.019Z</time></trkpt><trkpt lat="43.97075234504645" lon="11.256218491802773"><ele>281.0</ele><time>2026-04-11T13:33:46.019Z</time></trkpt><trkpt lat="43.97061446192226" lon="11.256323954598955"><ele>281.0</ele><time>2026-04-11T13:33:47.019Z</time></trkpt><trkpt lat="43.9704737840507" lon="11.256395118746495"><ele>281.0</ele><time>2026-04-11T13:33:48.019Z</time></trkpt><trkpt lat="43.970341384103385" lon="11.256484297167054"><ele>281.0</ele><time>2026-04-11T13:33:49.019Z</time></trkpt><trkpt lat="43.97020772441252" lon="11.256573634420583"><ele>281.0</ele><time>2026-04-11T13:33:50.019Z</time></trkpt><trkpt lat="43.97007741398473" lon="11.256659036142532"><ele>279.25</ele><time>2026-04-11T13:33:51.019Z</time></trkpt><trkpt lat="43.969947907355596" lon="11.256743911183838"><ele>277.5</ele><time>2026-04-11T13:33:52.019Z</time></trkpt><trkpt lat="43.96982631075472" lon="11.256823602191822"><ele>275.75</ele><time>2026-04-11T13:33:53.019Z</time></trkpt><trkpt lat="43.96970653531697" lon="11.256902099695077"><ele>274.0</ele><time>2026-04-11T13:33:54.019Z</time></trkpt><trkpt lat="43.96959254843556" lon="11.256998513057445"><ele>274.0</ele><time>2026-04-11T13:33:55.02Z</time></trkpt><trkpt lat="43.96947197389508" lon="11.257052980131258"><ele>274.0</ele><time>2026-04-11T13:33:56.02Z</time></trkpt><trkpt lat="43.969343776703695" lon="11.257140880645363"><ele>274.0</ele><time>2026-04-11T13:33:57.02Z</time></trkpt><trkpt lat="43.969228197158486" lon="11.257250392344996"><ele>274.0</ele><time>2026-04-11T13:33:58.02Z</time></trkpt><trkpt lat="43.96910353416916" lon="11.257410203880601"><ele>271.5</ele><time>2026-04-11T13:33:59.02Z</time></trkpt><trkpt lat="43.96904877629342" lon="11.25758153346917"><ele>269.0</ele><time>2026-04-11T13:34:00.02Z</time></trkpt><trkpt lat="43.96900318560522" lon="11.257762084660559"><ele>266.5</ele><time>2026-04-11T13:34:01.02Z</time></trkpt><trkpt lat="43.96898699261009" lon="11.257959492504334"><ele>264.0</ele><time>2026-04-11T13:34:02.02Z</time></trkpt><trkpt lat="43.9690088460906" lon="11.258156718986852"><ele>263.75</ele><time>2026-04-11T13:34:03.02Z</time></trkpt><trkpt lat="43.96905679203026" lon="11.258340912254575"><ele>263.5</ele><time>2026-04-11T13:34:04.02Z</time></trkpt><trkpt lat="43.969118144696026" lon="11.258518762386409"><ele>263.25</ele><time>2026-04-11T13:34:05.02Z</time></trkpt><trkpt lat="43.96917726556699" lon="11.258680373818535"><ele>263.0</ele><time>2026-04-11T13:34:06.02Z</time></trkpt><trkpt lat="43.969219233104816" lon="11.258869905512556"><ele>262.8</ele><time>2026-04-11T13:34:07.02Z</time></trkpt><trkpt lat="43.96926341740367" lon="11.259027995703844"><ele>262.6</ele><time>2026-04-11T13:34:08.017Z</time></trkpt><trkpt lat="43.9693052937289" lon="11.259166163089692"><ele>262.4</ele><time>2026-04-11T13:34:09.017Z</time></trkpt><trkpt lat="43.96935035196107" lon="11.259292431386593"><ele>262.2</ele><time>2026-04-11T13:34:10.018Z</time></trkpt><trkpt lat="43.96939356384132" lon="11.259430734013746"><ele>262.0</ele><time>2026-04-11T13:34:11.018Z</time></trkpt><trkpt lat="43.969437263980886" lon="11.259566096486319"><ele>262.0</ele><time>2026-04-11T13:34:12.017Z</time></trkpt><trkpt lat="43.9694727542684" lon="11.259689513834871"><ele>262.0</ele><time>2026-04-11T13:34:13.017Z</time></trkpt><trkpt lat="43.96949616478714" lon="11.259798575302172"><ele>262.0</ele><time>2026-04-11T13:34:14.018Z</time></trkpt><trkpt lat="43.969523013691614" lon="11.259896577718589"><ele>262.0</ele><time>2026-04-11T13:34:15.017Z</time></trkpt><trkpt lat="43.96957406424159" lon="11.260029313317267"><ele>262.0</ele><time>2026-04-11T13:34:17.018Z</time></trkpt><trkpt lat="43.96960941385296" lon="11.260103792230977"><ele>262.0</ele><time>2026-04-11T13:34:20.018Z</time></trkpt><trkpt lat="43.96964753392049" lon="11.260194382716682"><ele>262.66666666666663</ele><time>2026-04-11T13:35:24.018Z</time></trkpt><trkpt lat="43.96972095407344" lon="11.260322306706565"><ele>263.3333333333333</ele><time>2026-04-11T13:35:26.018Z</time></trkpt><trkpt lat="43.969764561771534" lon="11.260398387119572"><ele>264.0</ele><time>2026-04-11T13:35:27.018Z</time></trkpt><trkpt lat="43.96982193210608" lon="11.2604719512399"><ele>264.6666666666667</ele><time>2026-04-11T13:35:28.018Z</time></trkpt><trkpt lat="43.969846068528234" lon="11.26057808145633"><ele>265.33333333333337</ele><time>2026-04-11T13:35:29.018Z</time></trkpt><trkpt lat="43.969806269875896" lon="11.260676910020743"><ele>266.0</ele><time>2026-04-11T13:35:30.018Z</time></trkpt><trkpt lat="43.969786220523254" lon="11.260813184378256"><ele>266.0</ele><time>2026-04-11T13:35:31.018Z</time></trkpt><trkpt lat="43.96980702503716" lon="11.260959329862766"><ele>266.0</ele><time>2026-04-11T13:35:32.018Z</time></trkpt><trkpt lat="43.969936026963424" lon="11.261051720386869"><ele>266.0</ele><time>2026-04-11T13:35:33.018Z</time></trkpt><trkpt lat="43.97001916391572" lon="11.261179161869116"><ele>266.0</ele><time>2026-04-11T13:35:34.018Z</time></trkpt><trkpt lat="43.970055655263835" lon="11.261315546577846"><ele>266.0</ele><time>2026-04-11T13:35:35.019Z</time></trkpt><trkpt lat="43.97010548646704" lon="11.26143460791293"><ele>266.0</ele><time>2026-04-11T13:35:36.019Z</time></trkpt><trkpt lat="43.970125380298974" lon="11.26155738032896"><ele>266.0</ele><time>2026-04-11T13:35:37.019Z</time></trkpt><trkpt lat="43.970077501727246" lon="11.261654747515466"><ele>266.0</ele><time>2026-04-11T13:35:38.019Z</time></trkpt><trkpt lat="43.970031236675155" lon="11.261738835260282"><ele>266.0</ele><time>2026-04-11T13:35:39.019Z</time></trkpt><trkpt lat="43.969981844943106" lon="11.261812770280129"><ele>266.0</ele><time>2026-04-11T13:35:40.019Z</time></trkpt><trkpt lat="43.9699073512959" lon="11.261908584974947"><ele>268.6</ele><time>2026-04-11T13:35:41.019Z</time></trkpt><trkpt lat="43.969829423879595" lon="11.261993412393618"><ele>271.20000000000005</ele><time>2026-04-11T13:35:42.019Z</time></trkpt><trkpt lat="43.96974478047718" lon="11.26210125824156"><ele>273.79999999999995</ele><time>2026-04-11T13:35:43.019Z</time></trkpt><trkpt lat="43.969662193537964" lon="11.26219680286525"><ele>276.4</ele><time>2026-04-11T13:35:44.019Z</time></trkpt><trkpt lat="43.969567229882294" lon="11.262292452225989"><ele>279.0</ele><time>2026-04-11T13:35:45.019Z</time></trkpt><trkpt lat="43.96948955844502" lon="11.262369231455025"><ele>279.0</ele><time>2026-04-11T13:35:46.019Z</time></trkpt><trkpt lat="43.96943430616843" lon="11.262443031732092"><ele>279.0</ele><time>2026-04-11T13:35:47.019Z</time></trkpt><trkpt lat="43.969365462351384" lon="11.262509329946381"><ele>279.0</ele><time>2026-04-11T13:35:48.019Z</time></trkpt><trkpt lat="43.96927924779814" lon="11.26258055581612"><ele>279.0</ele><time>2026-04-11T13:35:49.019Z</time></trkpt><trkpt lat="43.96919733788743" lon="11.26265284166399"><ele>279.0</ele><time>2026-04-11T13:35:50.019Z</time></trkpt><trkpt lat="43.96912252713327" lon="11.262745296006038"><ele>281.4</ele><time>2026-04-11T13:35:51.019Z</time></trkpt><trkpt lat="43.96905985524484" lon="11.26285473193831"><ele>283.79999999999995</ele><time>2026-04-11T13:35:52.019Z</time></trkpt><trkpt lat="43.96899390965436" lon="11.262958205528065"><ele>286.20000000000005</ele><time>2026-04-11T13:35:53.019Z</time></trkpt><trkpt lat="43.9689473479385" lon="11.263080143014095"><ele>288.6</ele><time>2026-04-11T13:35:54.019Z</time></trkpt><trkpt lat="43.96890960876545" lon="11.26322855338315"><ele>291.0</ele><time>2026-04-11T13:35:55.019Z</time></trkpt><trkpt lat="43.96889284274487" lon="11.263388409770606"><ele>291.25</ele><time>2026-04-11T13:35:56.019Z</time></trkpt><trkpt lat="43.96889248007618" lon="11.263556905527745"><ele>291.5</ele><time>2026-04-11T13:35:57.019Z</time></trkpt><trkpt lat="43.96890748039356" lon="11.263726510075669"><ele>291.75</ele><time>2026-04-11T13:35:58.019Z</time></trkpt><trkpt lat="43.96892248879788" lon="11.263896712837306"><ele>292.0</ele><time>2026-04-11T13:35:59.019Z</time></trkpt><trkpt lat="43.968956340952005" lon="11.264060326142259"><ele>293.1428571428571</ele><time>2026-04-11T13:36:00.019Z</time></trkpt><trkpt lat="43.96899693796816" lon="11.26415770102494"><ele>294.2857142857143</ele><time>2026-04-11T13:36:01.019Z</time></trkpt><trkpt lat="43.96902577678102" lon="11.264259002301612"><ele>295.42857142857144</ele><time>2026-04-11T13:36:02.019Z</time></trkpt><trkpt lat="43.96905650224734" lon="11.26433912467481"><ele>296.57142857142856</ele><time>2026-04-11T13:36:03.019Z</time></trkpt><trkpt lat="43.96902769767125" lon="11.264425455063744"><ele>297.7142857142857</ele><time>2026-04-11T13:36:04.019Z</time></trkpt><trkpt lat="43.96897857026066" lon="11.264533532961286"><ele>298.85714285714283</ele><time>2026-04-11T13:36:06.019Z</time></trkpt><trkpt lat="43.96892127710997" lon="11.264495898534035"><ele>300.0</ele><time>2026-04-11T13:36:07.019Z</time></trkpt><trkpt lat="43.96879425066929" lon="11.264476306521047"><ele>300.0</ele><time>2026-04-11T13:36:09.019Z</time></trkpt><trkpt lat="43.96871719339836" lon="11.264513774471215"><ele>300.0</ele><time>2026-04-11T13:36:10.019Z</time></trkpt><trkpt lat="43.968635096295124" lon="11.264562144515725"><ele>300.0</ele><time>2026-04-11T13:36:11.019Z</time></trkpt><trkpt lat="43.96854967912063" lon="11.26460829333745"><ele>300.0</ele><time>2026-04-11T13:36:12.019Z</time></trkpt><trkpt lat="43.96846074583275" lon="11.264654031648613"><ele>300.0</ele><time>2026-04-11T13:36:13.019Z</time></trkpt><trkpt lat="43.96836311146486" lon="11.264684995878527"><ele>302.0</ele><time>2026-04-11T13:36:14.018Z</time></trkpt><trkpt lat="43.96827477343772" lon="11.264699658919929"><ele>304.0</ele><time>2026-04-11T13:36:15.018Z</time></trkpt><trkpt lat="43.968199277845294" lon="11.264730410026209"><ele>306.0</ele><time>2026-04-11T13:36:16.018Z</time></trkpt><trkpt lat="43.96811412902616" lon="11.264762725450796"><ele>308.0</ele><time>2026-04-11T13:36:17.018Z</time></trkpt><trkpt lat="43.96803370544721" lon="11.264786826098046"><ele>310.0</ele><time>2026-04-11T13:36:18.018Z</time></trkpt><trkpt lat="43.967959391192856" lon="11.264807466324438"><ele>312.0</ele><time>2026-04-11T13:36:19.018Z</time></trkpt><trkpt lat="43.96786298674977" lon="11.264820893802112"><ele>312.8</ele><time>2026-04-11T13:36:20.017Z</time></trkpt><trkpt lat="43.96778030242194" lon="11.26485414889032"><ele>313.6</ele><time>2026-04-11T13:36:21.018Z</time></trkpt><trkpt lat="43.967693725416176" lon="11.264906548504975"><ele>314.40000000000003</ele><time>2026-04-11T13:36:22.018Z</time></trkpt><trkpt lat="43.96759624478597" lon="11.264984544874807"><ele>315.2</ele><time>2026-04-11T13:36:23.018Z</time></trkpt><trkpt lat="43.96749377817519" lon="11.265090366683395"><ele>316.0</ele><time>2026-04-11T13:36:24.018Z</time></trkpt><trkpt lat="43.967372201689884" lon="11.265195315138014"><ele>319.0</ele><time>2026-04-11T13:36:25.018Z</time></trkpt><trkpt lat="43.96725753002271" lon="11.265300918292374"><ele>322.0</ele><time>2026-04-11T13:36:26.018Z</time></trkpt><trkpt lat="43.967149087823074" lon="11.265395969132065"><ele>325.0</ele><time>2026-04-11T13:36:27.018Z</time></trkpt><trkpt lat="43.9670547368597" lon="11.265477524291382"><ele>328.0</ele><time>2026-04-11T13:36:28.018Z</time></trkpt><trkpt lat="43.966967159985266" lon="11.265541258966708"><ele>328.0</ele><time>2026-04-11T13:36:29.018Z</time></trkpt><trkpt lat="43.96689205533461" lon="11.265558371044653"><ele>328.0</ele><time>2026-04-11T13:36:30.018Z</time></trkpt><trkpt lat="43.966760404241924" lon="11.265498070437108"><ele>328.0</ele><time>2026-04-11T13:36:32.018Z</time></trkpt><trkpt lat="43.96668367379514" lon="11.265428404815255"><ele>328.0</ele><time>2026-04-11T13:36:33.018Z</time></trkpt><trkpt lat="43.966592941995714" lon="11.265358775789217"><ele>328.0</ele><time>2026-04-11T13:36:34.018Z</time></trkpt><trkpt lat="43.96648791700873" lon="11.265301489852886"><ele>330.75</ele><time>2026-04-11T13:36:35.018Z</time></trkpt><trkpt lat="43.96634638933002" lon="11.265250685842227"><ele>333.5</ele><time>2026-04-11T13:36:36.018Z</time></trkpt><trkpt lat="43.96621742885467" lon="11.265231059412212"><ele>336.25</ele><time>2026-04-11T13:36:37.018Z</time></trkpt><trkpt lat="43.966134388416975" lon="11.265225081468785"><ele>339.0</ele><time>2026-04-11T13:36:38.018Z</time></trkpt><trkpt lat="43.96601239497512" lon="11.265216380477085"><ele>339.0</ele><time>2026-04-11T13:36:39.018Z</time></trkpt><trkpt lat="43.96591673977082" lon="11.265213165022537"><ele>339.0</ele><time>2026-04-11T13:36:40.018Z</time></trkpt><trkpt lat="43.96581306409799" lon="11.265212523593727"><ele>339.0</ele><time>2026-04-11T13:36:41.018Z</time></trkpt><trkpt lat="43.96573471630262" lon="11.265216562103564"><ele>339.0</ele><time>2026-04-11T13:36:42.018Z</time></trkpt><trkpt lat="43.96565720670519" lon="11.265225263466503"><ele>339.0</ele><time>2026-04-11T13:36:43.018Z</time></trkpt><trkpt lat="43.96554365392813" lon="11.265245489165496"><ele>341.4</ele><time>2026-04-11T13:36:44.018Z</time></trkpt><trkpt lat="43.9654502462738" lon="11.265266093815944"><ele>343.79999999999995</ele><time>2026-04-11T13:36:45.018Z</time></trkpt><trkpt lat="43.965363317011345" lon="11.265289935397869"><ele>346.20000000000005</ele><time>2026-04-11T13:36:46.018Z</time></trkpt><trkpt lat="43.9652444290019" lon="11.265337364506605"><ele>348.6</ele><time>2026-04-11T13:36:48.018Z</time></trkpt><trkpt lat="43.965164137414476" lon="11.265434118977874"><ele>351.0</ele><time>2026-04-11T13:36:49.018Z</time></trkpt><trkpt lat="43.96512252929048" lon="11.265605466425344"><ele>351.8</ele><time>2026-04-11T13:36:50.018Z</time></trkpt><trkpt lat="43.96510934967789" lon="11.265764371680842"><ele>352.6</ele><time>2026-04-11T13:36:51.018Z</time></trkpt><trkpt lat="43.96510810311642" lon="11.26593367434077"><ele>353.4</ele><time>2026-04-11T13:36:52.018Z</time></trkpt><trkpt lat="43.9651090780517" lon="11.26607591150035"><ele>354.2</ele><time>2026-04-11T13:36:53.018Z</time></trkpt><trkpt lat="43.96511388038396" lon="11.266177676536955"><ele>355.0</ele><time>2026-04-11T13:36:54.018Z</time></trkpt><trkpt lat="43.96511615951276" lon="11.26632334671358"><ele>356.6</ele><time>2026-04-11T13:36:56.018Z</time></trkpt><trkpt lat="43.96502461281976" lon="11.26633739114655"><ele>358.2</ele><time>2026-04-11T13:36:58.018Z</time></trkpt><trkpt lat="43.96493261555129" lon="11.266342105099032"><ele>359.79999999999995</ele><time>2026-04-11T13:36:59.018Z</time></trkpt><trkpt lat="43.96483937917503" lon="11.266339893941517"><ele>361.4</ele><time>2026-04-11T13:37:00.018Z</time></trkpt><trkpt lat="43.964745909354335" lon="11.266336096773644"><ele>363.0</ele><time>2026-04-11T13:37:01.018Z</time></trkpt><trkpt lat="43.964662208455714" lon="11.266337746574449"><ele>363.0</ele><time>2026-04-11T13:37:02.018Z</time></trkpt><trkpt lat="43.96457726945535" lon="11.266339008705206"><ele>363.0</ele><time>2026-04-11T13:37:03.018Z</time></trkpt><trkpt lat="43.96448097841461" lon="11.266340439512687"><ele>363.0</ele><time>2026-04-11T13:37:04.018Z</time></trkpt><trkpt lat="43.964393378596704" lon="11.266341741178813"><ele>363.0</ele><time>2026-04-11T13:37:05.018Z</time></trkpt><trkpt lat="43.96432192192986" lon="11.266342802965891"><ele>363.0</ele><time>2026-04-11T13:37:06.018Z</time></trkpt><trkpt lat="43.96425536058584" lon="11.266343792012842"><ele>363.0</ele><time>2026-04-11T13:37:07.018Z</time></trkpt><trkpt lat="43.96414852011343" lon="11.266343569554817"><ele>364.2</ele><time>2026-04-11T13:37:09.018Z</time></trkpt><trkpt lat="43.964033948939786" lon="11.266395983015057"><ele>365.4</ele><time>2026-04-11T13:37:11.018Z</time></trkpt><trkpt lat="43.96402440549596" lon="11.266548031244628"><ele>366.59999999999997</ele><time>2026-04-11T13:37:12.018Z</time></trkpt><trkpt lat="43.96404465035497" lon="11.266643731362691"><ele>367.79999999999995</ele><time>2026-04-11T13:37:13.018Z</time></trkpt><trkpt lat="43.964085654420145" lon="11.26676262346165"><ele>369.0</ele><time>2026-04-11T13:37:14.018Z</time></trkpt><trkpt lat="43.9641378917968" lon="11.266892177921147"><ele>368.4</ele><time>2026-04-11T13:37:15.018Z</time></trkpt><trkpt lat="43.96421828555364" lon="11.267044405364619"><ele>367.79999999999995</ele><time>2026-04-11T13:37:16.019Z</time></trkpt><trkpt lat="43.964259039839085" lon="11.267193747253835"><ele>367.20000000000005</ele><time>2026-04-11T13:37:17.019Z</time></trkpt><trkpt lat="43.9643026488716" lon="11.26732080174924"><ele>366.6</ele><time>2026-04-11T13:37:18.019Z</time></trkpt><trkpt lat="43.964330135193244" lon="11.26741928126242"><ele>366.0</ele><time>2026-04-11T13:37:19.019Z</time></trkpt><trkpt lat="43.964349553345265" lon="11.267509313700625"><ele>366.0</ele><time>2026-04-11T13:37:20.019Z</time></trkpt><trkpt lat="43.96436608402167" lon="11.267606322090655"><ele>366.0</ele><time>2026-04-11T13:37:21.019Z</time></trkpt><trkpt lat="43.96438151268007" lon="11.267738462962223"><ele>366.0</ele><time>2026-04-11T13:37:22.019Z</time></trkpt><trkpt lat="43.96438624748739" lon="11.267844979023144"><ele>366.0</ele><time>2026-04-11T13:37:23.019Z</time></trkpt><trkpt lat="43.964388670887764" lon="11.267972251642556"><ele>366.0</ele><time>2026-04-11T13:37:24.019Z</time></trkpt><trkpt lat="43.964387865364515" lon="11.268104168990705"><ele>366.0</ele><time>2026-04-11T13:37:25.019Z</time></trkpt><trkpt lat="43.96439934288868" lon="11.268228094174793"><ele>366.5</ele><time>2026-04-11T13:37:26.019Z</time></trkpt><trkpt lat="43.96440535941265" lon="11.26832736877053"><ele>367.0</ele><time>2026-04-11T13:37:27.019Z</time></trkpt><trkpt lat="43.96441950272946" lon="11.26842862945422"><ele>367.5</ele><time>2026-04-11T13:37:28.019Z</time></trkpt><trkpt lat="43.964454105374095" lon="11.268546388862458"><ele>368.0</ele><time>2026-04-11T13:37:29.019Z</time></trkpt><trkpt lat="43.96450316441948" lon="11.268641464511198"><ele>368.5</ele><time>2026-04-11T13:37:30.019Z</time></trkpt><trkpt lat="43.964528215322474" lon="11.268750791950435"><ele>369.0</ele><time>2026-04-11T13:37:31.019Z</time></trkpt><trkpt lat="43.96456210397028" lon="11.268841752720004"><ele>369.0</ele><time>2026-04-11T13:37:32.019Z</time></trkpt><trkpt lat="43.96460210883975" lon="11.268935967306337"><ele>369.0</ele><time>2026-04-11T13:37:33.019Z</time></trkpt><trkpt lat="43.964660523354006" lon="11.269043161179885"><ele>369.0</ele><time>2026-04-11T13:37:34.019Z</time></trkpt><trkpt lat="43.96470402086041" lon="11.269190395506502"><ele>369.0</ele><time>2026-04-11T13:37:35.019Z</time></trkpt><trkpt lat="43.96473402002694" lon="11.269331641830274"><ele>369.0</ele><time>2026-04-11T13:37:36.019Z</time></trkpt><trkpt lat="43.96473291536838" lon="11.269477705888262"><ele>369.25</ele><time>2026-04-11T13:37:37.019Z</time></trkpt><trkpt lat="43.96469986298295" lon="11.269620389840766"><ele>369.5</ele><time>2026-04-11T13:37:38.019Z</time></trkpt><trkpt lat="43.96468835128084" lon="11.26977947439099"><ele>369.75</ele><time>2026-04-11T13:37:39.019Z</time></trkpt><trkpt lat="43.96468704781957" lon="11.269938862246564"><ele>370.0</ele><time>2026-04-11T13:37:40.019Z</time></trkpt><trkpt lat="43.96470692075578" lon="11.270093053524922"><ele>371.25</ele><time>2026-04-11T13:37:41.019Z</time></trkpt><trkpt lat="43.964752921549824" lon="11.270245290080718"><ele>372.5</ele><time>2026-04-11T13:37:42.019Z</time></trkpt><trkpt lat="43.96481805044943" lon="11.270392894591549"><ele>373.75</ele><time>2026-04-11T13:37:43.019Z</time></trkpt><trkpt lat="43.96488635169455" lon="11.270530168912778"><ele>375.0</ele><time>2026-04-11T13:37:44.019Z</time></trkpt><trkpt lat="43.96496116191849" lon="11.27064624556253"><ele>374.3333333333333</ele><time>2026-04-11T13:37:45.019Z</time></trkpt><trkpt lat="43.965003685359264" lon="11.270739257928462"><ele>373.6666666666667</ele><time>2026-04-11T13:37:46.019Z</time></trkpt><trkpt lat="43.96504596212416" lon="11.270823306837725"><ele>373.0</ele><time>2026-04-11T13:37:47.019Z</time></trkpt><trkpt lat="43.965091746981464" lon="11.270915389583896"><ele>372.33333333333337</ele><time>2026-04-11T13:37:49.019Z</time></trkpt><trkpt lat="43.96509724829444" lon="11.271036576842855"><ele>371.6666666666667</ele><time>2026-04-11T13:37:52.019Z</time></trkpt><trkpt lat="43.96504089728787" lon="11.271150052981206"><ele>371.0</ele><time>2026-04-11T13:37:53.019Z</time></trkpt><trkpt lat="43.96499078801928" lon="11.271295987522459"><ele>373.0</ele><time>2026-04-11T13:37:54.019Z</time></trkpt><trkpt lat="43.96493345656669" lon="11.271471137608481"><ele>375.0</ele><time>2026-04-11T13:37:55.019Z</time></trkpt><trkpt lat="43.96486320845242" lon="11.271631463470857"><ele>377.0</ele><time>2026-04-11T13:37:56.019Z</time></trkpt><trkpt lat="43.96481634568374" lon="11.271756708556666"><ele>379.0</ele><time>2026-04-11T13:37:57.019Z</time></trkpt><trkpt lat="43.96476794738459" lon="11.271813991252998"><ele>381.0</ele><time>2026-04-11T13:37:58.019Z</time></trkpt><trkpt lat="43.96472388056241" lon="11.271906407377069"><ele>381.0</ele><time>2026-04-11T13:37:59.019Z</time></trkpt><trkpt lat="43.96467613617436" lon="11.27202303462305"><ele>381.0</ele><time>2026-04-11T13:38:00.019Z</time></trkpt><trkpt lat="43.96463529390303" lon="11.272149193829833"><ele>381.0</ele><time>2026-04-11T13:38:01.019Z</time></trkpt><trkpt lat="43.96459600705283" lon="11.272306250940385"><ele>381.0</ele><time>2026-04-11T13:38:02.019Z</time></trkpt><trkpt lat="43.96457663816461" lon="11.272460289497566"><ele>381.0</ele><time>2026-04-11T13:38:03.019Z</time></trkpt><trkpt lat="43.96454478930747" lon="11.272615668239212"><ele>380.20000000000005</ele><time>2026-04-11T13:38:04.019Z</time></trkpt><trkpt lat="43.96451358179105" lon="11.272768268753182"><ele>379.40000000000003</ele><time>2026-04-11T13:38:05.019Z</time></trkpt><trkpt lat="43.964485458673245" lon="11.27291903466623"><ele>378.6</ele><time>2026-04-11T13:38:06.019Z</time></trkpt><trkpt lat="43.96446441918725" lon="11.27304891016489"><ele>377.8</ele><time>2026-04-11T13:38:07.019Z</time></trkpt><trkpt lat="43.96443197683982" lon="11.273180723726616"><ele>377.0</ele><time>2026-04-11T13:38:08.019Z</time></trkpt><trkpt lat="43.964392878638456" lon="11.273301194837874"><ele>375.8</ele><time>2026-04-11T13:38:09.019Z</time></trkpt><trkpt lat="43.96434728314234" lon="11.273407472998743"><ele>374.6</ele><time>2026-04-11T13:38:10.019Z</time></trkpt><trkpt lat="43.96427812587977" lon="11.273505194458552"><ele>373.40000000000003</ele><time>2026-04-11T13:38:11.019Z</time></trkpt><trkpt lat="43.96420382293952" lon="11.273574946904183"><ele>372.20000000000005</ele><time>2026-04-11T13:38:12.019Z</time></trkpt><trkpt lat="43.96412976588494" lon="11.273650481282003"><ele>371.0</ele><time>2026-04-11T13:38:13.019Z</time></trkpt><trkpt lat="43.964054417113914" lon="11.273716507044455"><ele>377.0</ele><time>2026-04-11T13:38:14.019Z</time></trkpt><trkpt lat="43.96396323178074" lon="11.273761334505968"><ele>383.0</ele><time>2026-04-11T13:38:15.019Z</time></trkpt><trkpt lat="43.963864462709964" lon="11.273795163436462"><ele>389.0</ele><time>2026-04-11T13:38:16.019Z</time></trkpt><trkpt lat="43.96373561279289" lon="11.273805855733082"><ele>395.0</ele><time>2026-04-11T13:38:17.019Z</time></trkpt><trkpt lat="43.96362735034536" lon="11.27376701774613"><ele>401.0</ele><time>2026-04-11T13:38:18.019Z</time></trkpt><trkpt lat="43.96351861418382" lon="11.273725202719401"><ele>401.0</ele><time>2026-04-11T13:38:19.02Z</time></trkpt><trkpt lat="43.9633836322139" lon="11.273714714475874"><ele>401.0</ele><time>2026-04-11T13:38:20.017Z</time></trkpt><trkpt lat="43.96327018518286" lon="11.273721929363816"><ele>401.0</ele><time>2026-04-11T13:38:21.017Z</time></trkpt><trkpt lat="43.963155547848366" lon="11.273754826842442"><ele>401.0</ele><time>2026-04-11T13:38:22.017Z</time></trkpt><trkpt lat="43.963054437338215" lon="11.273751011071427"><ele>401.16666666666663</ele><time>2026-04-11T13:38:23.017Z</time></trkpt><trkpt lat="43.962965732435705" lon="11.273758397802961"><ele>401.3333333333333</ele><time>2026-04-11T13:38:24.017Z</time></trkpt><trkpt lat="43.96287883013099" lon="11.273778442171775"><ele>401.5</ele><time>2026-04-11T13:38:25.017Z</time></trkpt><trkpt lat="43.96281033786119" lon="11.273833566591076"><ele>401.66666666666663</ele><time>2026-04-11T13:38:26.017Z</time></trkpt><trkpt lat="43.96275027339208" lon="11.273885567132806"><ele>401.8333333333333</ele><time>2026-04-11T13:38:27.017Z</time></trkpt><trkpt lat="43.96267109974692" lon="11.27400449012332"><ele>402.0</ele><time>2026-04-11T13:38:28.017Z</time></trkpt><trkpt lat="43.962597517458256" lon="11.274150729552531"><ele>405.5</ele><time>2026-04-11T13:38:29.017Z</time></trkpt><trkpt lat="43.962524516512325" lon="11.274289117564653"><ele>409.0</ele><time>2026-04-11T13:38:30.017Z</time></trkpt><trkpt lat="43.96244355065699" lon="11.274415204861759"><ele>412.5</ele><time>2026-04-11T13:38:31.017Z</time></trkpt><trkpt lat="43.96236293689083" lon="11.274531618979397"><ele>416.0</ele><time>2026-04-11T13:38:32.017Z</time></trkpt><trkpt lat="43.96228824402097" lon="11.274637853073402"><ele>416.0</ele><time>2026-04-11T13:38:33.017Z</time></trkpt><trkpt lat="43.96219359052977" lon="11.27477068856089"><ele>416.0</ele><time>2026-04-11T13:38:34.017Z</time></trkpt><trkpt lat="43.962098534968476" lon="11.274936774843859"><ele>416.0</ele><time>2026-04-11T13:38:35.017Z</time></trkpt><trkpt lat="43.96198177369231" lon="11.275084224311454"><ele>416.0</ele><time>2026-04-11T13:38:36.017Z</time></trkpt><trkpt lat="43.96188550553916" lon="11.275205937847824"><ele>415.20000000000005</ele><time>2026-04-11T13:38:37.017Z</time></trkpt><trkpt lat="43.961796836205366" lon="11.275314197346125"><ele>414.40000000000003</ele><time>2026-04-11T13:38:38.017Z</time></trkpt><trkpt lat="43.96171695071865" lon="11.27539447514317"><ele>413.6</ele><time>2026-04-11T13:38:39.017Z</time></trkpt><trkpt lat="43.96165066939364" lon="11.275459804745429"><ele>412.8</ele><time>2026-04-11T13:38:40.017Z</time></trkpt><trkpt lat="43.961581601432606" lon="11.275512843434113"><ele>412.0</ele><time>2026-04-11T13:38:41.017Z</time></trkpt><trkpt lat="43.96150833234511" lon="11.275536276626013"><ele>416.6</ele><time>2026-04-11T13:38:42.017Z</time></trkpt><trkpt lat="43.961413096328634" lon="11.275551778600569"><ele>421.20000000000005</ele><time>2026-04-11T13:38:43.017Z</time></trkpt><trkpt lat="43.96132221177063" lon="11.27555986591913"><ele>425.8</ele><time>2026-04-11T13:38:44.017Z</time></trkpt><trkpt lat="43.96122889214568" lon="11.27555083552867"><ele>430.4</ele><time>2026-04-11T13:38:45.017Z</time></trkpt><trkpt lat="43.96113500365058" lon="11.275535500905328"><ele>435.0</ele><time>2026-04-11T13:38:46.017Z</time></trkpt><trkpt lat="43.9610392443895" lon="11.275554267204344"><ele>435.5</ele><time>2026-04-11T13:38:47.017Z</time></trkpt><trkpt lat="43.960972950926184" lon="11.275607447821018"><ele>436.0</ele><time>2026-04-11T13:38:48.017Z</time></trkpt><trkpt lat="43.96091159854419" lon="11.275652190679049"><ele>436.5</ele><time>2026-04-11T13:38:49.017Z</time></trkpt><trkpt lat="43.96082835928831" lon="11.275683277660306"><ele>437.0</ele><time>2026-04-11T13:38:51.017Z</time></trkpt><trkpt lat="43.9607457652961" lon="11.275778709028266"><ele>437.5</ele><time>2026-04-11T13:38:53.017Z</time></trkpt><trkpt lat="43.96068633182013" lon="11.275831207794202"><ele>438.0</ele><time>2026-04-11T13:39:01.017Z</time></trkpt><trkpt lat="43.9606601517307" lon="11.27591658325549"><ele>438.0</ele><time>2026-04-11T13:39:12.017Z</time></trkpt><trkpt lat="43.96061807148222" lon="11.276001558768131"><ele>437.99999999999994</ele><time>2026-04-11T13:41:36.017Z</time></trkpt><trkpt lat="43.960574253932876" lon="11.276071438021624"><ele>437.99999999999994</ele><time>2026-04-11T13:41:38.017Z</time></trkpt><trkpt lat="43.960545821390376" lon="11.276214422909879"><ele>438.0</ele><time>2026-04-11T13:41:40.017Z</time></trkpt><trkpt lat="43.960498415483194" lon="11.276346065615375"><ele>438.0</ele><time>2026-04-11T13:41:42.017Z</time></trkpt><trkpt lat="43.96045385629582" lon="11.276481693895896"><ele>438.0</ele><time>2026-04-11T13:41:44.017Z</time></trkpt><trkpt lat="43.96016757834913" lon="11.276287270792205"><ele>438.0</ele><time>2026-04-11T13:41:47.017Z</time></trkpt><trkpt lat="43.96010282160739" lon="11.276219748686994"><ele>438.0</ele><time>2026-04-11T13:41:49.017Z</time></trkpt><trkpt lat="43.96004595737153" lon="11.276143715511914"><ele>438.79999999999995</ele><time>2026-04-11T13:41:51.017Z</time></trkpt><trkpt lat="43.96000894093715" lon="11.276028581897547"><ele>439.59999999999997</ele><time>2026-04-11T13:41:55.017Z</time></trkpt><trkpt lat="43.959944482978514" lon="11.27592415814257"><ele>440.40000000000003</ele><time>2026-04-11T13:41:57.017Z</time></trkpt><trkpt lat="43.95988323364502" lon="11.275827351773316"><ele>441.20000000000005</ele><time>2026-04-11T13:41:59.017Z</time></trkpt><trkpt lat="43.9598042026587" lon="11.275707865760221"><ele>442.0</ele><time>2026-04-11T13:42:03.017Z</time></trkpt><trkpt lat="43.95975050715537" lon="11.275627723631736"><ele>445.8</ele><time>2026-04-11T13:42:05.017Z</time></trkpt><trkpt lat="43.95965369637497" lon="11.275544017762458"><ele>449.6</ele><time>2026-04-11T13:42:07.017Z</time></trkpt><trkpt lat="43.95954954783556" lon="11.2754804207717"><ele>453.40000000000003</ele><time>2026-04-11T13:42:09.017Z</time></trkpt><trkpt lat="43.95948264154881" lon="11.27543128753613"><ele>457.20000000000005</ele><time>2026-04-11T13:42:10.017Z</time></trkpt><trkpt lat="43.95940120704512" lon="11.275366617382073"><ele>461.0</ele><time>2026-04-11T13:42:11.017Z</time></trkpt><trkpt lat="43.95932996459599" lon="11.275330135455087"><ele>460.99999999999994</ele><time>2026-04-11T13:42:12.017Z</time></trkpt><trkpt lat="43.95926659865359" lon="11.275304994794572"><ele>461.0</ele><time>2026-04-11T13:42:13.017Z</time></trkpt><trkpt lat="43.95920071730669" lon="11.275304348686745"><ele>461.0</ele><time>2026-04-11T13:42:14.017Z</time></trkpt><trkpt lat="43.9590993495835" lon="11.27531592501984"><ele>461.0</ele><time>2026-04-11T13:42:15.017Z</time></trkpt><trkpt lat="43.95900303520902" lon="11.275297978184678"><ele>460.99999999999994</ele><time>2026-04-11T13:42:16.017Z</time></trkpt><trkpt lat="43.958923090589195" lon="11.275274579937676"><ele>461.0</ele><time>2026-04-11T13:42:17.017Z</time></trkpt><trkpt lat="43.958820955188614" lon="11.275194308522101"><ele>459.0</ele><time>2026-04-11T13:42:19.017Z</time></trkpt><trkpt lat="43.95873751763973" lon="11.275056635951673"><ele>457.0</ele><time>2026-04-11T13:42:21.017Z</time></trkpt><trkpt lat="43.958666917320464" lon="11.274991194168084"><ele>455.0</ele><time>2026-04-11T13:42:22.017Z</time></trkpt><trkpt lat="43.958579012901374" lon="11.274903142532262"><ele>453.0</ele><time>2026-04-11T13:42:23.017Z</time></trkpt><trkpt lat="43.95850039667885" lon="11.274845821999108"><ele>451.0</ele><time>2026-04-11T13:42:24.017Z</time></trkpt><trkpt lat="43.95844509607631" lon="11.274782069555412"><ele>453.00000000000006</ele><time>2026-04-11T13:42:25.017Z</time></trkpt><trkpt lat="43.9583664692556" lon="11.274717979077714"><ele>455.0</ele><time>2026-04-11T13:42:26.017Z</time></trkpt><trkpt lat="43.958291352617515" lon="11.274686917752552"><ele>457.0</ele><time>2026-04-11T13:42:27.017Z</time></trkpt><trkpt lat="43.95819206160028" lon="11.27467494420067"><ele>459.0</ele><time>2026-04-11T13:42:29.017Z</time></trkpt><trkpt lat="43.95811318309355" lon="11.274633684685357"><ele>461.00000000000006</ele><time>2026-04-11T13:42:31.017Z</time></trkpt><trkpt lat="43.95805702259605" lon="11.274587442346231"><ele>463.0</ele><time>2026-04-11T13:42:33.016Z</time></trkpt><trkpt lat="43.957999662951515" lon="11.274545014913972"><ele>463.0</ele><time>2026-04-11T13:42:36.016Z</time></trkpt><trkpt lat="43.95795986576834" lon="11.274475371770123"><ele>462.99999999999994</ele><time>2026-04-11T13:42:38.016Z</time></trkpt><trkpt lat="43.957892871018345" lon="11.274391347634312"><ele>462.99999999999994</ele><time>2026-04-11T13:42:40.017Z</time></trkpt><trkpt lat="43.95778965751901" lon="11.274305459201013"><ele>463.0</ele><time>2026-04-11T13:42:42.016Z</time></trkpt><trkpt lat="43.95769959119222" lon="11.274251598477527"><ele>463.0</ele><time>2026-04-11T13:42:43.016Z</time></trkpt><trkpt lat="43.95760961027616" lon="11.274189021949852"><ele>464.2</ele><time>2026-04-11T13:42:44.016Z</time></trkpt><trkpt lat="43.95751204362423" lon="11.274121430635423"><ele>465.4</ele><time>2026-04-11T13:42:45.016Z</time></trkpt><trkpt lat="43.95740906021772" lon="11.27403454123494"><ele>466.59999999999997</ele><time>2026-04-11T13:42:46.016Z</time></trkpt><trkpt lat="43.957322827460544" lon="11.273949771641137"><ele>467.79999999999995</ele><time>2026-04-11T13:42:47.016Z</time></trkpt><trkpt lat="43.95726238349934" lon="11.273862674481668"><ele>469.0</ele><time>2026-04-11T13:42:48.016Z</time></trkpt><trkpt lat="43.957230183420634" lon="11.273758098079362"><ele>469.00000000000006</ele><time>2026-04-11T13:42:49.016Z</time></trkpt><trkpt lat="43.9572270557809" lon="11.273652064563349"><ele>469.0</ele><time>2026-04-11T13:42:50.016Z</time></trkpt><trkpt lat="43.95716309842248" lon="11.273532209515052"><ele>469.0</ele><time>2026-04-11T13:42:51.016Z</time></trkpt><trkpt lat="43.95711357076786" lon="11.27340819868913"><ele>469.0</ele><time>2026-04-11T13:42:52.016Z</time></trkpt><trkpt lat="43.957082989943565" lon="11.27330862077768"><ele>469.00000000000006</ele><time>2026-04-11T13:42:53.016Z</time></trkpt><trkpt lat="43.9570512773685" lon="11.27321187485431"><ele>469.0</ele><time>2026-04-11T13:42:54.016Z</time></trkpt><trkpt lat="43.957026761971846" lon="11.273083215206743"><ele>470.00000000000006</ele><time>2026-04-11T13:42:55.016Z</time></trkpt><trkpt lat="43.95703612464236" lon="11.272993354267717"><ele>471.0</ele><time>2026-04-11T13:42:56.016Z</time></trkpt><trkpt lat="43.95702912853998" lon="11.272885624774196"><ele>472.0</ele><time>2026-04-11T13:42:57.017Z</time></trkpt><trkpt lat="43.957017311402794" lon="11.272786213151475"><ele>473.0</ele><time>2026-04-11T13:42:58.017Z</time></trkpt><trkpt lat="43.95695488579229" lon="11.272654958590325"><ele>474.00000000000006</ele><time>2026-04-11T13:43:00.017Z</time></trkpt><trkpt lat="43.95689043077319" lon="11.272589197408283"><ele>475.0</ele><time>2026-04-11T13:43:02.017Z</time></trkpt><trkpt lat="43.95680575491805" lon="11.272642319721404"><ele>475.0</ele><time>2026-04-11T13:43:04.017Z</time></trkpt><trkpt lat="43.95673299496583" lon="11.272660814385045"><ele>475.0</ele><time>2026-04-11T13:43:06.017Z</time></trkpt><trkpt lat="43.95663580522974" lon="11.27260741045711"><ele>475.0</ele><time>2026-04-11T13:43:09.017Z</time></trkpt><trkpt lat="43.95656451096573" lon="11.272636972858072"><ele>475.0</ele><time>2026-04-11T13:43:10.017Z</time></trkpt><trkpt lat="43.95645169450301" lon="11.272773137157007"><ele>475.0</ele><time>2026-04-11T13:43:12.017Z</time></trkpt><trkpt lat="43.956405366706434" lon="11.272844113212717"><ele>474.1666666666667</ele><time>2026-04-11T13:43:14.017Z</time></trkpt><trkpt lat="43.95633433404972" lon="11.272857761040168"><ele>473.33333333333337</ele><time>2026-04-11T13:43:15.017Z</time></trkpt><trkpt lat="43.95623016592631" lon="11.272837700130458"><ele>472.5</ele><time>2026-04-11T13:43:17.017Z</time></trkpt><trkpt lat="43.9561858032644" lon="11.272922788723376"><ele>471.66666666666663</ele><time>2026-04-11T13:43:19.017Z</time></trkpt><trkpt lat="43.956110429762774" lon="11.272945019332292"><ele>470.8333333333333</ele><time>2026-04-11T13:43:21.017Z</time></trkpt><trkpt lat="43.956023438055276" lon="11.272981049163267"><ele>470.0</ele><time>2026-04-11T13:43:23.017Z</time></trkpt><trkpt lat="43.95597856277178" lon="11.272885769410236"><ele>470.0</ele><time>2026-04-11T13:43:25.017Z</time></trkpt><trkpt lat="43.95592450919152" lon="11.272777397217233"><ele>470.0</ele><time>2026-04-11T13:43:26.017Z</time></trkpt><trkpt lat="43.95585385258746" lon="11.272701878916953"><ele>470.0</ele><time>2026-04-11T13:43:28.017Z</time></trkpt><trkpt lat="43.95578772546996" lon="11.272592284510148"><ele>470.0</ele><time>2026-04-11T13:43:30.017Z</time></trkpt><trkpt lat="43.95572985677241" lon="11.272534065819348"><ele>470.0</ele><time>2026-04-11T13:43:32.017Z</time></trkpt><trkpt lat="43.95564624457337" lon="11.272469995302009"><ele>470.6</ele><time>2026-04-11T13:43:34.017Z</time></trkpt><trkpt lat="43.95556267742802" lon="11.27239977008747"><ele>471.2</ele><time>2026-04-11T13:43:36.017Z</time></trkpt><trkpt lat="43.955485381516695" lon="11.272356734992098"><ele>471.79999999999995</ele><time>2026-04-11T13:43:37.017Z</time></trkpt><trkpt lat="43.955398354200156" lon="11.27236013093416"><ele>472.4</ele><time>2026-04-11T13:43:38.017Z</time></trkpt><trkpt lat="43.95533191544917" lon="11.272348731410043"><ele>473.0</ele><time>2026-04-11T13:43:39.017Z</time></trkpt><trkpt lat="43.95518461726528" lon="11.27235101514239"><ele>473.0</ele><time>2026-04-11T13:43:41.017Z</time></trkpt><trkpt lat="43.9551196887964" lon="11.272391850776902"><ele>472.99999999999994</ele><time>2026-04-11T13:43:42.017Z</time></trkpt><trkpt lat="43.955083918979255" lon="11.272467580084438"><ele>472.99999999999994</ele><time>2026-04-11T13:43:43.017Z</time></trkpt><trkpt lat="43.95505339523242" lon="11.272549915298804"><ele>473.0</ele><time>2026-04-11T13:43:44.017Z</time></trkpt><trkpt lat="43.95500472926897" lon="11.272757174185202"><ele>473.0</ele><time>2026-04-11T13:43:46.017Z</time></trkpt><trkpt lat="43.95499415867084" lon="11.272885397060422"><ele>472.79999999999995</ele><time>2026-04-11T13:43:47.017Z</time></trkpt><trkpt lat="43.95496812193908" lon="11.273047980028762"><ele>472.59999999999997</ele><time>2026-04-11T13:43:48.017Z</time></trkpt><trkpt lat="43.95488963182591" lon="11.273152346394612"><ele>472.40000000000003</ele><time>2026-04-11T13:43:50.017Z</time></trkpt><trkpt lat="43.95479751279577" lon="11.27321295147116"><ele>472.20000000000005</ele><time>2026-04-11T13:43:52.017Z</time></trkpt><trkpt lat="43.95469792180659" lon="11.27325893879079"><ele>472.0</ele><time>2026-04-11T13:43:55.017Z</time></trkpt><trkpt lat="43.95450701458691" lon="11.273316673230564"><ele>472.50000000000006</ele><time>2026-04-11T13:43:56.017Z</time></trkpt><trkpt lat="43.95439047122919" lon="11.27338002273587"><ele>473.0</ele><time>2026-04-11T13:43:57.017Z</time></trkpt><trkpt lat="43.954320798076374" lon="11.273441606918688"><ele>473.5</ele><time>2026-04-11T13:43:58.017Z</time></trkpt><trkpt lat="43.954253393910435" lon="11.273499556584637"><ele>474.0</ele><time>2026-04-11T13:43:59.017Z</time></trkpt><trkpt lat="43.954200634712464" lon="11.273561979023508"><ele>474.50000000000006</ele><time>2026-04-11T13:44:00.017Z</time></trkpt><trkpt lat="43.95414556287818" lon="11.273622204708046"><ele>475.0</ele><time>2026-04-11T13:44:01.017Z</time></trkpt><trkpt lat="43.95409391990022" lon="11.27369470651424"><ele>475.00000000000006</ele><time>2026-04-11T13:44:02.017Z</time></trkpt><trkpt lat="43.95403658812298" lon="11.27376070604773"><ele>475.0</ele><time>2026-04-11T13:44:03.018Z</time></trkpt><trkpt lat="43.95398736393407" lon="11.273821843633595"><ele>475.0</ele><time>2026-04-11T13:44:04.018Z</time></trkpt><trkpt lat="43.9539173766423" lon="11.27391534910283"><ele>475.0</ele><time>2026-04-11T13:44:06.018Z</time></trkpt><trkpt lat="43.953858906614975" lon="11.274003127448777"><ele>475.00000000000006</ele><time>2026-04-11T13:44:08.018Z</time></trkpt><trkpt lat="43.95381528685604" lon="11.274079707740224"><ele>475.0</ele><time>2026-04-11T13:44:10.018Z</time></trkpt><trkpt lat="43.95376268120264" lon="11.274137124737312"><ele>471.50000000000006</ele><time>2026-04-11T13:44:12.018Z</time></trkpt><trkpt lat="43.95370580979588" lon="11.274194759152257"><ele>468.0</ele><time>2026-04-11T13:44:14.018Z</time></trkpt><trkpt lat="43.95366540082355" lon="11.274274389691863"><ele>464.5</ele><time>2026-04-11T13:44:16.018Z</time></trkpt><trkpt lat="43.953658726770016" lon="11.274363523337126"><ele>461.0</ele><time>2026-04-11T13:44:18.018Z</time></trkpt><trkpt lat="43.95367832319825" lon="11.274507970354417"><ele>457.50000000000006</ele><time>2026-04-11T13:45:51.016Z</time></trkpt><trkpt lat="43.95366445902298" lon="11.27466336444599"><ele>454.0</ele><time>2026-04-11T13:45:53.016Z</time></trkpt><trkpt lat="43.953677037854085" lon="11.274751602413392"><ele>452.33333333333337</ele><time>2026-04-11T13:45:54.016Z</time></trkpt><trkpt lat="43.95369108315925" lon="11.274850127403873"><ele>450.6666666666667</ele><time>2026-04-11T13:45:55.016Z</time></trkpt><trkpt lat="43.953722907940794" lon="11.27495261149407"><ele>449.0</ele><time>2026-04-11T13:45:56.016Z</time></trkpt><trkpt lat="43.95372234966859" lon="11.275040470947198"><ele>447.33333333333337</ele><time>2026-04-11T13:45:57.016Z</time></trkpt><trkpt lat="43.95375031386849" lon="11.275208559178735"><ele>445.6666666666667</ele><time>2026-04-11T13:45:59.016Z</time></trkpt><trkpt lat="43.95376460152889" lon="11.275302679728439"><ele>444.0</ele><time>2026-04-11T13:46:00.016Z</time></trkpt><trkpt lat="43.953759168607526" lon="11.275465014026786"><ele>444.0</ele><time>2026-04-11T13:46:02.016Z</time></trkpt><trkpt lat="43.95372890109638" lon="11.27556034886481"><ele>444.0</ele><time>2026-04-11T13:46:03.016Z</time></trkpt><trkpt lat="43.95369776081849" lon="11.275651113674028"><ele>444.0</ele><time>2026-04-11T13:46:04.016Z</time></trkpt><trkpt lat="43.95366416193623" lon="11.2757438049108"><ele>444.0</ele><time>2026-04-11T13:46:05.016Z</time></trkpt><trkpt lat="43.953617499286366" lon="11.275811933277291"><ele>444.0</ele><time>2026-04-11T13:46:06.016Z</time></trkpt><trkpt lat="43.95358189164805" lon="11.275914127775762"><ele>444.0</ele><time>2026-04-11T13:46:07.016Z</time></trkpt><trkpt lat="43.95355316354294" lon="11.275998825504713"><ele>444.0</ele><time>2026-04-11T13:46:08.016Z</time></trkpt><trkpt lat="43.953521955654416" lon="11.276083217644972"><ele>444.2857142857143</ele><time>2026-04-11T13:46:09.016Z</time></trkpt><trkpt lat="43.95348979074729" lon="11.27617511399504"><ele>444.5714285714286</ele><time>2026-04-11T13:46:10.016Z</time></trkpt><trkpt lat="43.95344375881583" lon="11.276256882354609"><ele>444.8571428571429</ele><time>2026-04-11T13:46:11.016Z</time></trkpt><trkpt lat="43.95340532097531" lon="11.27634061029513"><ele>445.1428571428571</ele><time>2026-04-11T13:46:12.016Z</time></trkpt><trkpt lat="43.95335972432311" lon="11.276428351769335"><ele>445.42857142857144</ele><time>2026-04-11T13:46:13.016Z</time></trkpt><trkpt lat="43.95332018310319" lon="11.276515448037559"><ele>445.7142857142857</ele><time>2026-04-11T13:46:14.016Z</time></trkpt><trkpt lat="43.953278723442295" lon="11.27660142793074"><ele>446.0</ele><time>2026-04-11T13:46:15.016Z</time></trkpt><trkpt lat="43.95324384216985" lon="11.27670158196572"><ele>446.0</ele><time>2026-04-11T13:46:16.016Z</time></trkpt><trkpt lat="43.9532113470932" lon="11.276776811410338"><ele>446.0</ele><time>2026-04-11T13:46:17.016Z</time></trkpt><trkpt lat="43.953183275186724" lon="11.276864120481731"><ele>446.0</ele><time>2026-04-11T13:46:18.016Z</time></trkpt><trkpt lat="43.953166719040716" lon="11.276953966243099"><ele>446.0</ele><time>2026-04-11T13:46:19.016Z</time></trkpt><trkpt lat="43.953140036467964" lon="11.27704443461119"><ele>446.0</ele><time>2026-04-11T13:46:20.016Z</time></trkpt><trkpt lat="43.95308476968054" lon="11.277116718009696"><ele>446.0</ele><time>2026-04-11T13:46:21.016Z</time></trkpt><trkpt lat="43.95303373390308" lon="11.277193582914762"><ele>446.0</ele><time>2026-04-11T13:46:22.016Z</time></trkpt><trkpt lat="43.952972042087545" lon="11.277250516165267"><ele>443.8</ele><time>2026-04-11T13:46:23.016Z</time></trkpt><trkpt lat="43.952923807025925" lon="11.277319540159475"><ele>441.6</ele><time>2026-04-11T13:46:24.016Z</time></trkpt><trkpt lat="43.95287512951377" lon="11.277378135128862"><ele>439.4</ele><time>2026-04-11T13:46:25.016Z</time></trkpt><trkpt lat="43.95285444070735" lon="11.27753796746257"><ele>437.2</ele><time>2026-04-11T13:46:27.016Z</time></trkpt><trkpt lat="43.952880773734115" lon="11.277717531968598"><ele>435.0</ele><time>2026-04-11T13:46:29.016Z</time></trkpt><trkpt lat="43.952881751930974" lon="11.277821383759633"><ele>435.0</ele><time>2026-04-11T13:46:30.016Z</time></trkpt><trkpt lat="43.9528620264103" lon="11.277916855388739"><ele>435.0</ele><time>2026-04-11T13:46:31.016Z</time></trkpt><trkpt lat="43.95283362221763" lon="11.278021100293465"><ele>435.0</ele><time>2026-04-11T13:46:32.016Z</time></trkpt><trkpt lat="43.95278250544333" lon="11.278131083574424"><ele>435.0</ele><time>2026-04-11T13:46:33.016Z</time></trkpt><trkpt lat="43.952740780550165" lon="11.278264422471574"><ele>435.0</ele><time>2026-04-11T13:46:34.016Z</time></trkpt><trkpt lat="43.95271534184563" lon="11.278403719784496"><ele>435.0</ele><time>2026-04-11T13:46:35.016Z</time></trkpt><trkpt lat="43.95268218909663" lon="11.278520024562683"><ele>435.0</ele><time>2026-04-11T13:46:36.016Z</time></trkpt><trkpt lat="43.95265231968051" lon="11.2786192543304"><ele>435.0</ele><time>2026-04-11T13:46:37.016Z</time></trkpt><trkpt lat="43.952611669733706" lon="11.27870029405419"><ele>435.0</ele><time>2026-04-11T13:46:38.016Z</time></trkpt><trkpt lat="43.95256669460382" lon="11.278798865531657"><ele>435.0</ele><time>2026-04-11T13:46:39.016Z</time></trkpt><trkpt lat="43.9525206756508" lon="11.278906783551724"><ele>435.0</ele><time>2026-04-11T13:46:40.016Z</time></trkpt><trkpt lat="43.952495377805086" lon="11.279014682248961"><ele>433.6</ele><time>2026-04-11T13:46:41.016Z</time></trkpt><trkpt lat="43.95245788789492" lon="11.279114605115586"><ele>432.2</ele><time>2026-04-11T13:46:42.017Z</time></trkpt><trkpt lat="43.952411425785016" lon="11.279222081525997"><ele>430.79999999999995</ele><time>2026-04-11T13:46:43.017Z</time></trkpt><trkpt lat="43.9523704354013" lon="11.279337019035832"><ele>429.4</ele><time>2026-04-11T13:46:44.015Z</time></trkpt><trkpt lat="43.952324083329785" lon="11.27946667709615"><ele>428.0</ele><time>2026-04-11T13:46:45.016Z</time></trkpt><trkpt lat="43.952278902180126" lon="11.279576830117765"><ele>427.99999999999994</ele><time>2026-04-11T13:46:46.016Z</time></trkpt><trkpt lat="43.95225537475565" lon="11.27967989338072"><ele>428.0</ele><time>2026-04-11T13:46:47.015Z</time></trkpt><trkpt lat="43.95225014651888" lon="11.279792987942468"><ele>428.0</ele><time>2026-04-11T13:46:48.015Z</time></trkpt><trkpt lat="43.952233836798456" lon="11.279904996041736"><ele>428.0</ele><time>2026-04-11T13:46:49.015Z</time></trkpt><trkpt lat="43.952268612087146" lon="11.280046656940163"><ele>427.99999999999994</ele><time>2026-04-11T13:46:50.015Z</time></trkpt><trkpt lat="43.95230185344335" lon="11.280158392527632"><ele>428.0</ele><time>2026-04-11T13:46:51.016Z</time></trkpt><trkpt lat="43.952358150040084" lon="11.280311388264456"><ele>429.0</ele><time>2026-04-11T13:46:52.016Z</time></trkpt><trkpt lat="43.9524118210618" lon="11.280477091247624"><ele>430.0</ele><time>2026-04-11T13:46:53.015Z</time></trkpt><trkpt lat="43.95248512126784" lon="11.280640877812893"><ele>431.0</ele><time>2026-04-11T13:46:54.015Z</time></trkpt><trkpt lat="43.9525315680498" lon="11.280769315569414"><ele>432.0</ele><time>2026-04-11T13:46:55.015Z</time></trkpt><trkpt lat="43.95257631423684" lon="11.280869169508124"><ele>433.8</ele><time>2026-04-11T13:46:56.015Z</time></trkpt><trkpt lat="43.952582105804744" lon="11.281045637793522"><ele>435.6</ele><time>2026-04-11T13:46:58.015Z</time></trkpt><trkpt lat="43.95254966777844" lon="11.281160264066889"><ele>437.40000000000003</ele><time>2026-04-11T13:46:59.015Z</time></trkpt><trkpt lat="43.95250290438772" lon="11.281289548308381"><ele>439.20000000000005</ele><time>2026-04-11T13:47:00.015Z</time></trkpt><trkpt lat="43.952476662623994" lon="11.281383593669048"><ele>441.0</ele><time>2026-04-11T13:47:01.015Z</time></trkpt><trkpt lat="43.952475561769575" lon="11.281506789944363"><ele>441.0</ele><time>2026-04-11T13:47:02.015Z</time></trkpt><trkpt lat="43.95244074371405" lon="11.281654446394644"><ele>441.0</ele><time>2026-04-11T13:47:03.015Z</time></trkpt><trkpt lat="43.95234053877939" lon="11.281830499169793"><ele>441.0</ele><time>2026-04-11T13:47:05.015Z</time></trkpt><trkpt lat="43.95228424704012" lon="11.281988856866292"><ele>441.0</ele><time>2026-04-11T13:47:06.015Z</time></trkpt><trkpt lat="43.95224220657996" lon="11.28213668917457"><ele>441.0</ele><time>2026-04-11T13:47:07.015Z</time></trkpt><trkpt lat="43.95219194835481" lon="11.282261826860262"><ele>441.0</ele><time>2026-04-11T13:47:08.015Z</time></trkpt><trkpt lat="43.952138755424635" lon="11.282372157566627"><ele>441.0</ele><time>2026-04-11T13:47:09.015Z</time></trkpt><trkpt lat="43.9520810117771" lon="11.282472829120135"><ele>441.0</ele><time>2026-04-11T13:47:10.015Z</time></trkpt><trkpt lat="43.95200800721397" lon="11.282585626438813"><ele>441.0</ele><time>2026-04-11T13:47:11.015Z</time></trkpt><trkpt lat="43.951943668289374" lon="11.282681567151311"><ele>440.6</ele><time>2026-04-11T13:47:12.015Z</time></trkpt><trkpt lat="43.95188465936103" lon="11.282781799260192"><ele>440.20000000000005</ele><time>2026-04-11T13:47:13.015Z</time></trkpt><trkpt lat="43.95183494806926" lon="11.282889906775099"><ele>439.79999999999995</ele><time>2026-04-11T13:47:14.015Z</time></trkpt><trkpt lat="43.951787106045806" lon="11.28301503276292"><ele>439.4</ele><time>2026-04-11T13:47:15.015Z</time></trkpt><trkpt lat="43.95175940574256" lon="11.28314692095344"><ele>439.0</ele><time>2026-04-11T13:47:16.015Z</time></trkpt><trkpt lat="43.951739517431456" lon="11.283294686456419"><ele>438.2</ele><time>2026-04-11T13:47:17.015Z</time></trkpt><trkpt lat="43.95169633632772" lon="11.283443292182001"><ele>437.4</ele><time>2026-04-11T13:47:18.015Z</time></trkpt><trkpt lat="43.951684283543145" lon="11.28356960499381"><ele>436.6</ele><time>2026-04-11T13:47:19.015Z</time></trkpt><trkpt lat="43.951685443136036" lon="11.283704959590262"><ele>435.8</ele><time>2026-04-11T13:47:20.015Z</time></trkpt><trkpt lat="43.951721261665675" lon="11.283838859418918"><ele>435.0</ele><time>2026-04-11T13:47:21.015Z</time></trkpt><trkpt lat="43.95176246130509" lon="11.283950333242032"><ele>434.4</ele><time>2026-04-11T13:47:22.015Z</time></trkpt><trkpt lat="43.95180756648317" lon="11.2840599286781"><ele>433.8</ele><time>2026-04-11T13:47:23.015Z</time></trkpt><trkpt lat="43.95185197992148" lon="11.28418702776063"><ele>433.20000000000005</ele><time>2026-04-11T13:47:24.015Z</time></trkpt><trkpt lat="43.9518882729548" lon="11.284270755872983"><ele>432.6</ele><time>2026-04-11T13:47:25.015Z</time></trkpt><trkpt lat="43.95194099930909" lon="11.284389017386362"><ele>432.0</ele><time>2026-04-11T13:47:26.015Z</time></trkpt><trkpt lat="43.95198627058796" lon="11.28449472048267"><ele>432.0</ele><time>2026-04-11T13:47:27.015Z</time></trkpt><trkpt lat="43.9520302424185" lon="11.28459446340119"><ele>432.0</ele><time>2026-04-11T13:47:28.015Z</time></trkpt><trkpt lat="43.95207298752972" lon="11.284675663388366"><ele>432.0</ele><time>2026-04-11T13:47:29.015Z</time></trkpt><trkpt lat="43.95210923746824" lon="11.284757288803366"><ele>432.0</ele><time>2026-04-11T13:47:30.015Z</time></trkpt><trkpt lat="43.95215028090675" lon="11.284841938417628"><ele>432.0</ele><time>2026-04-11T13:47:31.015Z</time></trkpt><trkpt lat="43.95218562535819" lon="11.284930678723702"><ele>432.0</ele><time>2026-04-11T13:47:32.015Z</time></trkpt><trkpt lat="43.952222495351435" lon="11.285003779700808"><ele>432.0</ele><time>2026-04-11T13:47:33.015Z</time></trkpt><trkpt lat="43.95228415070453" lon="11.285119731936756"><ele>432.20000000000005</ele><time>2026-04-11T13:47:35.015Z</time></trkpt><trkpt lat="43.95235059328502" lon="11.285251463134669"><ele>432.40000000000003</ele><time>2026-04-11T13:47:37.015Z</time></trkpt><trkpt lat="43.95239188861479" lon="11.28534888832533"><ele>432.59999999999997</ele><time>2026-04-11T13:47:39.015Z</time></trkpt><trkpt lat="43.95241305750945" lon="11.285448503570795"><ele>432.79999999999995</ele><time>2026-04-11T13:47:41.015Z</time></trkpt><trkpt lat="43.952437430509924" lon="11.285586450624319"><ele>433.0</ele><time>2026-04-11T13:47:43.015Z</time></trkpt><trkpt lat="43.952444610528836" lon="11.28573873279238"><ele>433.59999999999997</ele><time>2026-04-11T13:47:45.015Z</time></trkpt><trkpt lat="43.95251526293544" lon="11.285836555907576"><ele>434.19999999999993</ele><time>2026-04-11T13:47:46.015Z</time></trkpt><trkpt lat="43.95253269081841" lon="11.285940918791157"><ele>434.8</ele><time>2026-04-11T13:47:47.015Z</time></trkpt><trkpt lat="43.952493925213304" lon="11.286075338046484"><ele>435.4</ele><time>2026-04-11T13:47:48.015Z</time></trkpt><trkpt lat="43.952517580509706" lon="11.286191426456476"><ele>436.0</ele><time>2026-04-11T13:47:49.015Z</time></trkpt><trkpt lat="43.95252557199755" lon="11.28631835501939"><ele>436.00000000000006</ele><time>2026-04-11T13:47:50.015Z</time></trkpt><trkpt lat="43.95253338692589" lon="11.286426771187633"><ele>436.0</ele><time>2026-04-11T13:47:51.015Z</time></trkpt><trkpt lat="43.95254698389594" lon="11.286553516128235"><ele>436.0</ele><time>2026-04-11T13:47:52.015Z</time></trkpt><trkpt lat="43.95249900292885" lon="11.286661629149727"><ele>436.0</ele><time>2026-04-11T13:47:53.015Z</time></trkpt><trkpt lat="43.95250555184904" lon="11.286774499661409"><ele>436.00000000000006</ele><time>2026-04-11T13:47:54.016Z</time></trkpt><trkpt lat="43.9525041935273" lon="11.286889470918"><ele>436.0</ele><time>2026-04-11T13:47:55.016Z</time></trkpt><trkpt lat="43.952518319294654" lon="11.286990070100886"><ele>436.50000000000006</ele><time>2026-04-11T13:47:56.016Z</time></trkpt><trkpt lat="43.95253711235971" lon="11.287088858940518"><ele>437.0</ele><time>2026-04-11T13:47:57.016Z</time></trkpt><trkpt lat="43.95257698360564" lon="11.287195488210687"><ele>437.5</ele><time>2026-04-11T13:47:58.016Z</time></trkpt><trkpt lat="43.952595025628696" lon="11.287310933289357"><ele>438.0</ele><time>2026-04-11T13:47:59.016Z</time></trkpt><trkpt lat="43.95264872631377" lon="11.287404890712954"><ele>438.50000000000006</ele><time>2026-04-11T13:48:00.016Z</time></trkpt><trkpt lat="43.952664447924725" lon="11.287524233691023"><ele>439.0</ele><time>2026-04-11T13:48:01.016Z</time></trkpt><trkpt lat="43.952692574091756" lon="11.287634128073641"><ele>439.50000000000006</ele><time>2026-04-11T13:48:02.016Z</time></trkpt><trkpt lat="43.952718425641656" lon="11.28774057938077"><ele>440.0</ele><time>2026-04-11T13:48:03.016Z</time></trkpt><trkpt lat="43.952734999111044" lon="11.287835314316514"><ele>440.5</ele><time>2026-04-11T13:48:04.016Z</time></trkpt><trkpt lat="43.95279384748069" lon="11.287891454394183"><ele>441.0</ele><time>2026-04-11T13:48:05.016Z</time></trkpt><trkpt lat="43.95284858241595" lon="11.287967677868286"><ele>441.50000000000006</ele><time>2026-04-11T13:48:06.016Z</time></trkpt><trkpt lat="43.95293014039069" lon="11.288037620061969"><ele>442.0</ele><time>2026-04-11T13:48:07.016Z</time></trkpt><trkpt lat="43.952993461883956" lon="11.288080897106965"><ele>439.1666666666667</ele><time>2026-04-11T13:48:08.016Z</time></trkpt><trkpt lat="43.95305261793969" lon="11.288116005272789"><ele>436.33333333333337</ele><time>2026-04-11T13:48:09.016Z</time></trkpt><trkpt lat="43.95313195769769" lon="11.288130350523916"><ele>433.5</ele><time>2026-04-11T13:48:10.016Z</time></trkpt><trkpt lat="43.95320510670561" lon="11.288155403831224"><ele>430.66666666666663</ele><time>2026-04-11T13:48:11.016Z</time></trkpt><trkpt lat="43.953277385335795" lon="11.288216117054578"><ele>427.8333333333333</ele><time>2026-04-11T13:48:12.016Z</time></trkpt><trkpt lat="43.95336434223725" lon="11.288266884955153"><ele>425.0</ele><time>2026-04-11T13:48:13.016Z</time></trkpt><trkpt lat="43.95344222333862" lon="11.28832946198967"><ele>421.3333333333333</ele><time>2026-04-11T13:48:14.016Z</time></trkpt><trkpt lat="43.953507137084245" lon="11.288411816397977"><ele>417.66666666666663</ele><time>2026-04-11T13:48:15.016Z</time></trkpt><trkpt lat="43.953570824265455" lon="11.288505796977894"><ele>414.0</ele><time>2026-04-11T13:48:16.016Z</time></trkpt><trkpt lat="43.95363454306169" lon="11.288597423882686"><ele>410.33333333333337</ele><time>2026-04-11T13:48:17.016Z</time></trkpt><trkpt lat="43.95369274369615" lon="11.288686157819582"><ele>406.6666666666667</ele><time>2026-04-11T13:48:18.016Z</time></trkpt><trkpt lat="43.95373949513821" lon="11.288755192780995"><ele>403.0</ele><time>2026-04-11T13:48:19.016Z</time></trkpt><trkpt lat="43.953785875952796" lon="11.28883478651433"><ele>402.79999999999995</ele><time>2026-04-11T13:48:20.016Z</time></trkpt><trkpt lat="43.95382566606089" lon="11.288936525617824"><ele>402.6</ele><time>2026-04-11T13:48:21.016Z</time></trkpt><trkpt lat="43.95387879435899" lon="11.289059292274851"><ele>402.4</ele><time>2026-04-11T13:48:22.016Z</time></trkpt><trkpt lat="43.95392534383995" lon="11.289207351857314"><ele>402.20000000000005</ele><time>2026-04-11T13:48:23.016Z</time></trkpt><trkpt lat="43.95397089680547" lon="11.289326919568605"><ele>402.0</ele><time>2026-04-11T13:48:24.016Z</time></trkpt><trkpt lat="43.95402049101971" lon="11.28947254538145"><ele>402.0</ele><time>2026-04-11T13:48:25.016Z</time></trkpt><trkpt lat="43.95407105862182" lon="11.289600373418448"><ele>402.0</ele><time>2026-04-11T13:48:26.016Z</time></trkpt><trkpt lat="43.95411401702277" lon="11.289721513976192"><ele>402.0</ele><time>2026-04-11T13:48:27.016Z</time></trkpt><trkpt lat="43.95416455616245" lon="11.289839975706252"><ele>402.0</ele><time>2026-04-11T13:48:28.016Z</time></trkpt><trkpt lat="43.95420031164782" lon="11.28995701892323"><ele>402.0</ele><time>2026-04-11T13:48:29.016Z</time></trkpt><trkpt lat="43.95424570060127" lon="11.290073147065"><ele>401.1666666666667</ele><time>2026-04-11T13:48:30.016Z</time></trkpt><trkpt lat="43.95429733945594" lon="11.29018487326943"><ele>400.33333333333337</ele><time>2026-04-11T13:48:31.016Z</time></trkpt><trkpt lat="43.95426313632331" lon="11.290329613475393"><ele>399.5</ele><time>2026-04-11T13:48:32.016Z</time></trkpt><trkpt lat="43.954293873723564" lon="11.2904382365936"><ele>398.6666666666667</ele><time>2026-04-11T13:48:33.016Z</time></trkpt><trkpt lat="43.95431072823375" lon="11.29052479323828"><ele>397.83333333333337</ele><time>2026-04-11T13:48:34.016Z</time></trkpt><trkpt lat="43.95432601127422" lon="11.290651123944073"><ele>397.0</ele><time>2026-04-11T13:48:35.016Z</time></trkpt><trkpt lat="43.95432849472088" lon="11.290781617408376"><ele>397.0</ele><time>2026-04-11T13:48:36.016Z</time></trkpt><trkpt lat="43.95432677621575" lon="11.290938226580034"><ele>397.0</ele><time>2026-04-11T13:48:37.016Z</time></trkpt><trkpt lat="43.95433973082844" lon="11.291079373380965"><ele>397.0</ele><time>2026-04-11T13:48:38.016Z</time></trkpt><trkpt lat="43.95431984232145" lon="11.291225463013753"><ele>397.0</ele><time>2026-04-11T13:48:39.016Z</time></trkpt><trkpt lat="43.95431481556529" lon="11.291373986359186"><ele>397.0</ele><time>2026-04-11T13:48:40.016Z</time></trkpt><trkpt lat="43.95432021114903" lon="11.291503290069715"><ele>395.40000000000003</ele><time>2026-04-11T13:48:41.016Z</time></trkpt><trkpt lat="43.95432381209889" lon="11.291647708486037"><ele>393.8</ele><time>2026-04-11T13:48:42.016Z</time></trkpt><trkpt lat="43.954318950455075" lon="11.291798712951266"><ele>392.2</ele><time>2026-04-11T13:48:43.016Z</time></trkpt><trkpt lat="43.95431680467354" lon="11.291952159550812"><ele>390.6</ele><time>2026-04-11T13:48:44.016Z</time></trkpt><trkpt lat="43.95432499482399" lon="11.29208354142406"><ele>389.0</ele><time>2026-04-11T13:48:45.016Z</time></trkpt><trkpt lat="43.95431488529016" lon="11.292230803500415"><ele>389.3333333333333</ele><time>2026-04-11T13:48:46.016Z</time></trkpt><trkpt lat="43.954299209534675" lon="11.292352876584117"><ele>389.66666666666663</ele><time>2026-04-11T13:48:47.016Z</time></trkpt><trkpt lat="43.95429775590954" lon="11.292459214142141"><ele>390.0</ele><time>2026-04-11T13:48:48.016Z</time></trkpt><trkpt lat="43.95430129665457" lon="11.292587237914994"><ele>390.33333333333337</ele><time>2026-04-11T13:48:49.016Z</time></trkpt><trkpt lat="43.95432292602621" lon="11.292699855616014"><ele>390.6666666666667</ele><time>2026-04-11T13:48:50.015Z</time></trkpt><trkpt lat="43.954323492993225" lon="11.292812167006298"><ele>391.0</ele><time>2026-04-11T13:48:51.015Z</time></trkpt><trkpt lat="43.954338765693564" lon="11.29292171911096"><ele>391.00000000000006</ele><time>2026-04-11T13:48:52.015Z</time></trkpt><trkpt lat="43.954365061205614" lon="11.293052691805299"><ele>391.0</ele><time>2026-04-11T13:48:53.015Z</time></trkpt><trkpt lat="43.95440390022613" lon="11.293159019156644"><ele>391.0</ele><time>2026-04-11T13:48:54.014Z</time></trkpt><trkpt lat="43.954420949268346" lon="11.293277058300658"><ele>391.0</ele><time>2026-04-11T13:48:55.014Z</time></trkpt><trkpt lat="43.95443922947354" lon="11.293394395618574"><ele>391.00000000000006</ele><time>2026-04-11T13:48:56.014Z</time></trkpt><trkpt lat="43.95445123777058" lon="11.293499244823106"><ele>391.0</ele><time>2026-04-11T13:48:57.015Z</time></trkpt><trkpt lat="43.95442492662125" lon="11.293595057152437"><ele>391.6</ele><time>2026-04-11T13:48:58.015Z</time></trkpt><trkpt lat="43.954403964738944" lon="11.293680227211636"><ele>392.20000000000005</ele><time>2026-04-11T13:48:59.014Z</time></trkpt><trkpt lat="43.954362862382794" lon="11.293866278028336"><ele>392.79999999999995</ele><time>2026-04-11T13:49:01.015Z</time></trkpt><trkpt lat="43.9543575821609" lon="11.293995830232127"><ele>393.4</ele><time>2026-04-11T13:49:02.015Z</time></trkpt><trkpt lat="43.95435565159016" lon="11.294111815517129"><ele>394.0</ele><time>2026-04-11T13:49:03.014Z</time></trkpt><trkpt lat="43.95435519249573" lon="11.294222025444808"><ele>394.83333333333337</ele><time>2026-04-11T13:49:04.014Z</time></trkpt><trkpt lat="43.95437063260342" lon="11.29433978076512"><ele>395.6666666666667</ele><time>2026-04-11T13:49:05.014Z</time></trkpt><trkpt lat="43.95435909237334" lon="11.29446782642326"><ele>396.5</ele><time>2026-04-11T13:49:06.014Z</time></trkpt><trkpt lat="43.954352588833316" lon="11.294590186941932"><ele>397.33333333333337</ele><time>2026-04-11T13:49:07.014Z</time></trkpt><trkpt lat="43.95435410021556" lon="11.294704243563613"><ele>398.1666666666667</ele><time>2026-04-11T13:49:08.014Z</time></trkpt><trkpt lat="43.95435812485991" lon="11.294797982845074"><ele>399.0</ele><time>2026-04-11T13:49:09.014Z</time></trkpt><trkpt lat="43.95442550068252" lon="11.294957904634293"><ele>396.8333333333333</ele><time>2026-04-11T13:49:11.014Z</time></trkpt><trkpt lat="43.95448335062122" lon="11.295029593334256"><ele>394.66666666666663</ele><time>2026-04-11T13:49:12.014Z</time></trkpt><trkpt lat="43.954548285320875" lon="11.29511488826553"><ele>392.5</ele><time>2026-04-11T13:49:13.014Z</time></trkpt><trkpt lat="43.95461006492543" lon="11.295204619239794"><ele>390.3333333333333</ele><time>2026-04-11T13:49:14.014Z</time></trkpt><trkpt lat="43.9546686278408" lon="11.295289678176278"><ele>388.16666666666663</ele><time>2026-04-11T13:49:15.014Z</time></trkpt><trkpt lat="43.95472441221124" lon="11.295370701451786"><ele>386.0</ele><time>2026-04-11T13:49:16.014Z</time></trkpt><trkpt lat="43.954797903472574" lon="11.295445302877516"><ele>386.0</ele><time>2026-04-11T13:49:17.014Z</time></trkpt><trkpt lat="43.954858182898306" lon="11.295559509451595"><ele>386.0</ele><time>2026-04-11T13:49:18.014Z</time></trkpt><trkpt lat="43.95491844183837" lon="11.29566239200371"><ele>386.0</ele><time>2026-04-11T13:49:19.014Z</time></trkpt><trkpt lat="43.9549768813563" lon="11.295763363720921"><ele>386.0</ele><time>2026-04-11T13:49:20.014Z</time></trkpt><trkpt lat="43.955021977443685" lon="11.29586612298967"><ele>386.0</ele><time>2026-04-11T13:49:21.014Z</time></trkpt><trkpt lat="43.95505516456365" lon="11.29595941575123"><ele>384.3333333333333</ele><time>2026-04-11T13:49:22.014Z</time></trkpt><trkpt lat="43.95508100181335" lon="11.296075743630558"><ele>382.66666666666663</ele><time>2026-04-11T13:49:23.014Z</time></trkpt><trkpt lat="43.95508290509875" lon="11.29618772562841"><ele>381.0</ele><time>2026-04-11T13:49:24.014Z</time></trkpt><trkpt lat="43.95505369909636" lon="11.296268954182263"><ele>379.3333333333333</ele><time>2026-04-11T13:49:25.014Z</time></trkpt><trkpt lat="43.95501397721613" lon="11.296348310998988"><ele>377.66666666666663</ele><time>2026-04-11T13:49:26.014Z</time></trkpt><trkpt lat="43.95499231722858" lon="11.29646145569441"><ele>376.0</ele><time>2026-04-11T13:49:27.014Z</time></trkpt><trkpt lat="43.9549864909368" lon="11.29660201003058"><ele>374.8</ele><time>2026-04-11T13:49:28.014Z</time></trkpt><trkpt lat="43.95501571713622" lon="11.296749636860554"><ele>373.6</ele><time>2026-04-11T13:49:29.014Z</time></trkpt><trkpt lat="43.955065747481356" lon="11.296879015317543"><ele>372.4</ele><time>2026-04-11T13:49:30.014Z</time></trkpt><trkpt lat="43.955107520198574" lon="11.297001989575154"><ele>371.2</ele><time>2026-04-11T13:49:31.014Z</time></trkpt><trkpt lat="43.95512766090863" lon="11.297136626126916"><ele>370.0</ele><time>2026-04-11T13:49:32.014Z</time></trkpt><trkpt lat="43.955138048830186" lon="11.297274626979652"><ele>369.2</ele><time>2026-04-11T13:49:33.014Z</time></trkpt><trkpt lat="43.95515443409441" lon="11.297421808657312"><ele>368.4</ele><time>2026-04-11T13:49:34.014Z</time></trkpt><trkpt lat="43.95517162988027" lon="11.297569030476266"><ele>367.6</ele><time>2026-04-11T13:49:35.014Z</time></trkpt><trkpt lat="43.95518785603325" lon="11.29770795077837"><ele>366.8</ele><time>2026-04-11T13:49:36.014Z</time></trkpt><trkpt lat="43.95520008867842" lon="11.297826037935785"><ele>366.0</ele><time>2026-04-11T13:49:37.014Z</time></trkpt><trkpt lat="43.955212844136994" lon="11.297950607010554"><ele>366.0</ele><time>2026-04-11T13:49:38.014Z</time></trkpt><trkpt lat="43.95522677288617" lon="11.298073072496708"><ele>366.0</ele><time>2026-04-11T13:49:39.014Z</time></trkpt><trkpt lat="43.955241834608415" lon="11.29819097125714"><ele>366.0</ele><time>2026-04-11T13:49:40.014Z</time></trkpt><trkpt lat="43.95523242191876" lon="11.298298075277492"><ele>366.0</ele><time>2026-04-11T13:49:41.014Z</time></trkpt><trkpt lat="43.955187966925884" lon="11.298393007756363"><ele>366.0</ele><time>2026-04-11T13:49:42.014Z</time></trkpt><trkpt lat="43.955137162421636" lon="11.298528958310802"><ele>366.0</ele><time>2026-04-11T13:49:43.014Z</time></trkpt><trkpt lat="43.95508624305933" lon="11.298646514195584"><ele>359.0</ele><time>2026-04-11T13:49:44.014Z</time></trkpt><trkpt lat="43.95502880808447" lon="11.29878011534518"><ele>352.0</ele><time>2026-04-11T13:49:45.014Z</time></trkpt><trkpt lat="43.9549779725905" lon="11.298905789450103"><ele>345.0</ele><time>2026-04-11T13:49:46.014Z</time></trkpt><trkpt lat="43.954928515379116" lon="11.299027243239093"><ele>338.0</ele><time>2026-04-11T13:49:47.014Z</time></trkpt><trkpt lat="43.95489470179916" lon="11.29912693015201"><ele>331.0</ele><time>2026-04-11T13:49:48.014Z</time></trkpt><trkpt lat="43.954859223124195" lon="11.299214068141714"><ele>329.6</ele><time>2026-04-11T13:49:49.014Z</time></trkpt><trkpt lat="43.95478529102906" lon="11.299379529795191"><ele>328.20000000000005</ele><time>2026-04-11T13:49:51.014Z</time></trkpt><trkpt lat="43.95476444477523" lon="11.299476230709583"><ele>326.79999999999995</ele><time>2026-04-11T13:49:52.014Z</time></trkpt><trkpt lat="43.954757387388966" lon="11.29956972603293"><ele>325.4</ele><time>2026-04-11T13:49:53.014Z</time></trkpt><trkpt lat="43.95483252528361" lon="11.29971386390677"><ele>324.0</ele><time>2026-04-11T13:49:55.014Z</time></trkpt><trkpt lat="43.95491571348589" lon="11.299753642603015"><ele>324.0</ele><time>2026-04-11T13:49:56.014Z</time></trkpt><trkpt lat="43.954992436402826" lon="11.299736115004778"><ele>324.0</ele><time>2026-04-11T13:49:57.014Z</time></trkpt><trkpt lat="43.95508407111454" lon="11.299701391925302"><ele>324.0</ele><time>2026-04-11T13:49:58.014Z</time></trkpt><trkpt lat="43.9551800704508" lon="11.299646562714829"><ele>324.0</ele><time>2026-04-11T13:49:59.014Z</time></trkpt><trkpt lat="43.95527857997826" lon="11.29957523918472"><ele>324.0</ele><time>2026-04-11T13:50:00.014Z</time></trkpt><trkpt lat="43.955366078526815" lon="11.2995697765297"><ele>325.2857142857143</ele><time>2026-04-11T13:50:01.014Z</time></trkpt><trkpt lat="43.95545746813265" lon="11.299562830620205"><ele>326.57142857142856</ele><time>2026-04-11T13:50:02.014Z</time></trkpt><trkpt lat="43.95554139633464" lon="11.299575004724632"><ele>327.8571428571429</ele><time>2026-04-11T13:50:03.015Z</time></trkpt><trkpt lat="43.95560710540117" lon="11.299599908012661"><ele>329.1428571428571</ele><time>2026-04-11T13:50:04.015Z</time></trkpt><trkpt lat="43.95566318028402" lon="11.2996542075409"><ele>330.4285714285714</ele><time>2026-04-11T13:50:05.015Z</time></trkpt><trkpt lat="43.95569072727611" lon="11.299734584241062"><ele>331.7142857142857</ele><time>2026-04-11T13:50:06.015Z</time></trkpt><trkpt lat="43.9556817358545" lon="11.299826208239812"><ele>333.0</ele><time>2026-04-11T13:50:07.015Z</time></trkpt><trkpt lat="43.95564596678615" lon="11.299916605718783"><ele>328.59999999999997</ele><time>2026-04-11T13:50:08.015Z</time></trkpt><trkpt lat="43.95562753609649" lon="11.30006028980467"><ele>324.2</ele><time>2026-04-11T13:50:09.015Z</time></trkpt><trkpt lat="43.95563598436113" lon="11.300191235136804"><ele>319.8</ele><time>2026-04-11T13:50:10.015Z</time></trkpt><trkpt lat="43.95562930600191" lon="11.300317206038917"><ele>315.4</ele><time>2026-04-11T13:50:11.015Z</time></trkpt><trkpt lat="43.95563608019402" lon="11.300445089103077"><ele>311.0</ele><time>2026-04-11T13:50:12.015Z</time></trkpt><trkpt lat="43.95564569817829" lon="11.30057108799556"><ele>308.0</ele><time>2026-04-11T13:50:13.015Z</time></trkpt><trkpt lat="43.955653233834546" lon="11.300675419343166"><ele>305.0</ele><time>2026-04-11T13:50:14.015Z</time></trkpt><trkpt lat="43.95565341658314" lon="11.30079336426794"><ele>302.0</ele><time>2026-04-11T13:50:15.015Z</time></trkpt><trkpt lat="43.95560106467888" lon="11.300944230037882"><ele>299.0</ele><time>2026-04-11T13:50:17.015Z</time></trkpt><trkpt lat="43.955469164041006" lon="11.300920337242326"><ele>296.0</ele><time>2026-04-11T13:50:19.015Z</time></trkpt><trkpt lat="43.955342512941705" lon="11.300902023669591"><ele>296.0</ele><time>2026-04-11T13:50:21.015Z</time></trkpt><trkpt lat="43.95526756128745" lon="11.301044141704027"><ele>296.0</ele><time>2026-04-11T13:50:22.015Z</time></trkpt><trkpt lat="43.955202965421314" lon="11.301166764091256"><ele>296.0</ele><time>2026-04-11T13:50:23.015Z</time></trkpt><trkpt lat="43.955141786814465" lon="11.301280646929149"><ele>296.0</ele><time>2026-04-11T13:50:24.015Z</time></trkpt><trkpt lat="43.955079013825824" lon="11.301377418298552"><ele>296.0</ele><time>2026-04-11T13:50:25.015Z</time></trkpt><trkpt lat="43.955001055992895" lon="11.301461045838371"><ele>294.0</ele><time>2026-04-11T13:50:26.015Z</time></trkpt><trkpt lat="43.95492007852235" lon="11.301546868229172"><ele>292.0</ele><time>2026-04-11T13:50:27.015Z</time></trkpt><trkpt lat="43.954843474498254" lon="11.301611411440552"><ele>290.0</ele><time>2026-04-11T13:50:28.015Z</time></trkpt><trkpt lat="43.954775194124736" lon="11.301662603537993"><ele>288.0</ele><time>2026-04-11T13:50:29.015Z</time></trkpt><trkpt lat="43.9546996282943" lon="11.301710524008515"><ele>286.0</ele><time>2026-04-11T13:50:30.015Z</time></trkpt><trkpt lat="43.954622735254034" lon="11.301751944227197"><ele>284.0</ele><time>2026-04-11T13:50:31.015Z</time></trkpt><trkpt lat="43.95453774339708" lon="11.301806190571302"><ele>284.0</ele><time>2026-04-11T13:50:32.015Z</time></trkpt><trkpt lat="43.954461186279865" lon="11.301855224381573"><ele>284.0</ele><time>2026-04-11T13:50:33.015Z</time></trkpt><trkpt lat="43.95439779843463" lon="11.301919288482656"><ele>284.0</ele><time>2026-04-11T13:50:34.015Z</time></trkpt><trkpt lat="43.95432722466553" lon="11.30196969821863"><ele>284.0</ele><time>2026-04-11T13:50:35.015Z</time></trkpt><trkpt lat="43.95427003562783" lon="11.302058511427502"><ele>284.0</ele><time>2026-04-11T13:50:36.015Z</time></trkpt><trkpt lat="43.95424663262955" lon="11.302176103996597"><ele>284.0</ele><time>2026-04-11T13:50:37.015Z</time></trkpt><trkpt lat="43.95425374724692" lon="11.30230561502229"><ele>282.2</ele><time>2026-04-11T13:50:38.015Z</time></trkpt><trkpt lat="43.95426956278305" lon="11.302437480444022"><ele>280.4</ele><time>2026-04-11T13:50:39.015Z</time></trkpt><trkpt lat="43.95428785549007" lon="11.302555258700353"><ele>278.6</ele><time>2026-04-11T13:50:40.015Z</time></trkpt><trkpt lat="43.954307800265966" lon="11.302671812264906"><ele>276.8</ele><time>2026-04-11T13:50:41.015Z</time></trkpt><trkpt lat="43.954329004373044" lon="11.30279572512608"><ele>275.0</ele><time>2026-04-11T13:50:42.015Z</time></trkpt><trkpt lat="43.954349070688224" lon="11.30291925600836"><ele>275.0</ele><time>2026-04-11T13:50:43.015Z</time></trkpt><trkpt lat="43.95438192243818" lon="11.303043236058096"><ele>275.0</ele><time>2026-04-11T13:50:44.015Z</time></trkpt><trkpt lat="43.954514637498995" lon="11.303079437990904"><ele>275.0</ele><time>2026-04-11T13:50:45.015Z</time></trkpt><trkpt lat="43.954525754076904" lon="11.303188423643695"><ele>275.0</ele><time>2026-04-11T13:50:46.015Z</time></trkpt><trkpt lat="43.95453235169224" lon="11.303294052875913"><ele>275.0</ele><time>2026-04-11T13:50:47.015Z</time></trkpt><trkpt lat="43.954564953326646" lon="11.303436888675348"><ele>273.5</ele><time>2026-04-11T13:50:48.015Z</time></trkpt><trkpt lat="43.95460523339488" lon="11.303553827016358"><ele>272.0</ele><time>2026-04-11T13:50:49.015Z</time></trkpt><trkpt lat="43.95464635348679" lon="11.303662463475334"><ele>270.5</ele><time>2026-04-11T13:50:50.015Z</time></trkpt><trkpt lat="43.95467988051772" lon="11.303763178335755"><ele>269.0</ele><time>2026-04-11T13:50:51.015Z</time></trkpt><trkpt lat="43.95472150150576" lon="11.303858145861374"><ele>267.5</ele><time>2026-04-11T13:50:52.015Z</time></trkpt><trkpt lat="43.95474660039777" lon="11.30395539068198"><ele>266.0</ele><time>2026-04-11T13:50:53.015Z</time></trkpt><trkpt lat="43.9547535695714" lon="11.30408005381651"><ele>265.40000000000003</ele><time>2026-04-11T13:50:54.015Z</time></trkpt><trkpt lat="43.954753863505516" lon="11.30420899545141"><ele>264.8</ele><time>2026-04-11T13:50:55.015Z</time></trkpt><trkpt lat="43.954768150427626" lon="11.304346929935187"><ele>264.20000000000005</ele><time>2026-04-11T13:50:56.013Z</time></trkpt><trkpt lat="43.95480307351372" lon="11.30448063617483"><ele>263.6</ele><time>2026-04-11T13:50:57.013Z</time></trkpt><trkpt lat="43.9548402715779" lon="11.304615628090744"><ele>263.0</ele><time>2026-04-11T13:50:58.013Z</time></trkpt><trkpt lat="43.954878825527445" lon="11.30472581442075"><ele>262.2</ele><time>2026-04-11T13:50:59.013Z</time></trkpt><trkpt lat="43.95490832745128" lon="11.304827554910203"><ele>261.4</ele><time>2026-04-11T13:51:00.013Z</time></trkpt><trkpt lat="43.95493461282481" lon="11.304945774114223"><ele>260.59999999999997</ele><time>2026-04-11T13:51:01.013Z</time></trkpt><trkpt lat="43.95495930681339" lon="11.305055902379115"><ele>259.8</ele><time>2026-04-11T13:51:02.013Z</time></trkpt><trkpt lat="43.95498130260294" lon="11.305183794609446"><ele>259.0</ele><time>2026-04-11T13:51:03.013Z</time></trkpt><trkpt lat="43.95498666839821" lon="11.305332741436045"><ele>259.0</ele><time>2026-04-11T13:51:04.013Z</time></trkpt><trkpt lat="43.95497815738079" lon="11.305473149167923"><ele>259.0</ele><time>2026-04-11T13:51:05.013Z</time></trkpt><trkpt lat="43.954969193170676" lon="11.305576355031802"><ele>259.0</ele><time>2026-04-11T13:51:06.013Z</time></trkpt><trkpt lat="43.95500226003574" lon="11.305721152266798"><ele>259.0</ele><time>2026-04-11T13:51:08.014Z</time></trkpt><trkpt lat="43.95507230364275" lon="11.305780644130008"><ele>259.0</ele><time>2026-04-11T13:51:09.013Z</time></trkpt><trkpt lat="43.95516393410519" lon="11.305792656808322"><ele>257.5</ele><time>2026-04-11T13:51:10.013Z</time></trkpt><trkpt lat="43.955255301111535" lon="11.305753130634514"><ele>256.0</ele><time>2026-04-11T13:51:11.013Z</time></trkpt><trkpt lat="43.95534580759893" lon="11.305690816841146"><ele>254.5</ele><time>2026-04-11T13:51:12.013Z</time></trkpt><trkpt lat="43.95541106700803" lon="11.305635494393174"><ele>253.0</ele><time>2026-04-11T13:51:13.013Z</time></trkpt><trkpt lat="43.95547710175829" lon="11.305613203081267"><ele>251.49999999999997</ele><time>2026-04-11T13:51:15.013Z</time></trkpt><trkpt lat="43.9555137639777" lon="11.305703951736648"><ele>250.0</ele><time>2026-04-11T13:52:15.014Z</time></trkpt><trkpt lat="43.95542159974043" lon="11.305794995093136"><ele>250.0</ele><time>2026-04-11T13:52:17.014Z</time></trkpt><trkpt lat="43.955321228868875" lon="11.305826249314757"><ele>250.0</ele><time>2026-04-11T13:52:18.014Z</time></trkpt><trkpt lat="43.955237600249525" lon="11.30583273487848"><ele>250.0</ele><time>2026-04-11T13:52:19.014Z</time></trkpt><trkpt lat="43.95515346786257" lon="11.305870034750399"><ele>250.0</ele><time>2026-04-11T13:52:20.014Z</time></trkpt><trkpt lat="43.955075311908715" lon="11.305918429949223"><ele>250.0</ele><time>2026-04-11T13:52:21.014Z</time></trkpt><trkpt lat="43.95498925020284" lon="11.305955850176886"><ele>251.5</ele><time>2026-04-11T13:52:22.014Z</time></trkpt><trkpt lat="43.954892038034686" lon="11.306005399945398"><ele>253.0</ele><time>2026-04-11T13:52:23.014Z</time></trkpt><trkpt lat="43.954783650832944" lon="11.306037179810959"><ele>254.5</ele><time>2026-04-11T13:52:24.014Z</time></trkpt><trkpt lat="43.954680997269904" lon="11.306103375018306"><ele>256.0</ele><time>2026-04-11T13:52:25.014Z</time></trkpt><trkpt lat="43.95456801424651" lon="11.306168377663443"><ele>256.0</ele><time>2026-04-11T13:52:26.014Z</time></trkpt><trkpt lat="43.954448025175985" lon="11.306206781735277"><ele>256.0</ele><time>2026-04-11T13:52:27.014Z</time></trkpt><trkpt lat="43.95432838298971" lon="11.306257786509237"><ele>256.0</ele><time>2026-04-11T13:52:28.014Z</time></trkpt><trkpt lat="43.954213801132" lon="11.30630285177724"><ele>256.0</ele><time>2026-04-11T13:52:29.014Z</time></trkpt><trkpt lat="43.95407391725626" lon="11.306324420617125"><ele>255.75</ele><time>2026-04-11T13:52:30.014Z</time></trkpt><trkpt lat="43.95392303070432" lon="11.30633210319087"><ele>255.5</ele><time>2026-04-11T13:52:31.014Z</time></trkpt><trkpt lat="43.953790897382206" lon="11.306348740217622"><ele>255.25</ele><time>2026-04-11T13:52:32.014Z</time></trkpt><trkpt lat="43.95365997704134" lon="11.306361345683065"><ele>255.0</ele><time>2026-04-11T13:52:33.014Z</time></trkpt><trkpt lat="43.95352140814838" lon="11.306380873177963"><ele>254.5</ele><time>2026-04-11T13:52:34.014Z</time></trkpt><trkpt lat="43.95340628695832" lon="11.30642549077157"><ele>254.0</ele><time>2026-04-11T13:52:35.014Z</time></trkpt><trkpt lat="43.95325792204531" lon="11.306518305326142"><ele>253.5</ele><time>2026-04-11T13:52:36.014Z</time></trkpt><trkpt lat="43.95313122666749" lon="11.306613475081807"><ele>253.0</ele><time>2026-04-11T13:52:37.014Z</time></trkpt><trkpt lat="43.95299141858026" lon="11.306720765877712"><ele>253.0</ele><time>2026-04-11T13:52:38.014Z</time></trkpt><trkpt lat="43.9528670461389" lon="11.306837940235106"><ele>253.0</ele><time>2026-04-11T13:52:39.014Z</time></trkpt><trkpt lat="43.952728845363616" lon="11.306928366771261"><ele>253.0</ele><time>2026-04-11T13:52:40.014Z</time></trkpt><trkpt lat="43.95259235384362" lon="11.307032096419206"><ele>250.5</ele><time>2026-04-11T13:52:41.014Z</time></trkpt><trkpt lat="43.95246401217636" lon="11.307130832327811"><ele>248.0</ele><time>2026-04-11T13:52:42.014Z</time></trkpt><trkpt lat="43.9523473575284" lon="11.30723876804232"><ele>245.5</ele><time>2026-04-11T13:52:43.014Z</time></trkpt><trkpt lat="43.95223725729264" lon="11.307364246789204"><ele>243.0</ele><time>2026-04-11T13:52:44.014Z</time></trkpt><trkpt lat="43.95214062523086" lon="11.307526791301525"><ele>242.33333333333331</ele><time>2026-04-11T13:52:45.014Z</time></trkpt><trkpt lat="43.95207647027326" lon="11.307714896786116"><ele>241.66666666666666</ele><time>2026-04-11T13:52:46.014Z</time></trkpt><trkpt lat="43.95204580912081" lon="11.3079214612699"><ele>241.0</ele><time>2026-04-11T13:52:47.014Z</time></trkpt><trkpt lat="43.952041015699514" lon="11.30813195005296"><ele>241.0</ele><time>2026-04-11T13:52:48.014Z</time></trkpt><trkpt lat="43.95206797472777" lon="11.308340480978234"><ele>241.0</ele><time>2026-04-11T13:52:49.014Z</time></trkpt><trkpt lat="43.95209906193779" lon="11.30853693575546"><ele>241.0</ele><time>2026-04-11T13:52:50.014Z</time></trkpt><trkpt lat="43.952131206231435" lon="11.30872724682907"><ele>241.0</ele><time>2026-04-11T13:52:51.014Z</time></trkpt><trkpt lat="43.95216429187889" lon="11.308922577775624"><ele>240.0</ele><time>2026-04-11T13:52:52.014Z</time></trkpt><trkpt lat="43.952196744539215" lon="11.30911403103766"><ele>239.0</ele><time>2026-04-11T13:52:53.014Z</time></trkpt><trkpt lat="43.95222673430746" lon="11.309290954580039"><ele>238.0</ele><time>2026-04-11T13:52:54.014Z</time></trkpt><trkpt lat="43.95225607643131" lon="11.309464057349102"><ele>237.0</ele><time>2026-04-11T13:52:55.014Z</time></trkpt><trkpt lat="43.95229965211434" lon="11.309624159210124"><ele>235.39999999999998</ele><time>2026-04-11T13:52:56.014Z</time></trkpt><trkpt lat="43.952304633878676" lon="11.309786617927019"><ele>233.79999999999998</ele><time>2026-04-11T13:52:57.014Z</time></trkpt><trkpt lat="43.95232679089173" lon="11.30993217706005"><ele>232.2</ele><time>2026-04-11T13:52:58.014Z</time></trkpt><trkpt lat="43.952354390308564" lon="11.310071579113831"><ele>230.6</ele><time>2026-04-11T13:52:59.014Z</time></trkpt><trkpt lat="43.95238028622303" lon="11.310208272934084"><ele>229.0</ele><time>2026-04-11T13:53:00.014Z</time></trkpt><trkpt lat="43.95240385538284" lon="11.310337619205814"><ele>228.99999999999997</ele><time>2026-04-11T13:53:01.014Z</time></trkpt><trkpt lat="43.95242636469057" lon="11.310460121770118"><ele>229.0</ele><time>2026-04-11T13:53:02.013Z</time></trkpt><trkpt lat="43.95244671593883" lon="11.310572725992596"><ele>229.0</ele><time>2026-04-11T13:53:03.012Z</time></trkpt><trkpt lat="43.952463310962585" lon="11.31068595783695"><ele>229.0</ele><time>2026-04-11T13:53:04.012Z</time></trkpt><trkpt lat="43.95245491799605" lon="11.310805087569273"><ele>228.99999999999997</ele><time>2026-04-11T13:53:05.013Z</time></trkpt><trkpt lat="43.952422528358376" lon="11.310928413257336"><ele>229.0</ele><time>2026-04-11T13:53:06.012Z</time></trkpt><trkpt lat="43.95238903768573" lon="11.311052039354951"><ele>228.99999999999997</ele><time>2026-04-11T13:53:07.012Z</time></trkpt><trkpt lat="43.95236137888342" lon="11.311170923363026"><ele>229.0</ele><time>2026-04-11T13:53:08.012Z</time></trkpt><trkpt lat="43.952355064667714" lon="11.311295882920955"><ele>229.0</ele><time>2026-04-11T13:53:09.013Z</time></trkpt><trkpt lat="43.95238293869418" lon="11.311409588069058"><ele>229.0</ele><time>2026-04-11T13:53:10.013Z</time></trkpt><trkpt lat="43.9524447012855" lon="11.31149644306391"><ele>228.99999999999997</ele><time>2026-04-11T13:53:11.013Z</time></trkpt><trkpt lat="43.952523870347555" lon="11.311554257047666"><ele>229.0</ele><time>2026-04-11T13:53:12.012Z</time></trkpt><trkpt lat="43.952620960537516" lon="11.311557890874177"><ele>229.0</ele><time>2026-04-11T13:53:13.012Z</time></trkpt><trkpt lat="43.95271352224769" lon="11.311518734774369"><ele>228.99999999999997</ele><time>2026-04-11T13:53:14.012Z</time></trkpt><trkpt lat="43.95280554149142" lon="11.311463543373405"><ele>228.99999999999997</ele><time>2026-04-11T13:53:15.013Z</time></trkpt><trkpt lat="43.9528748550204" lon="11.311386493195787"><ele>229.0</ele><time>2026-04-11T13:53:16.013Z</time></trkpt><trkpt lat="43.95300598257497" lon="11.311430783637524"><ele>229.0</ele><time>2026-04-11T13:53:17.013Z</time></trkpt><trkpt lat="43.95312921306304" lon="11.311468740299105"><ele>227.75</ele><time>2026-04-11T13:53:18.013Z</time></trkpt><trkpt lat="43.953259722392" lon="11.31152379053347"><ele>226.5</ele><time>2026-04-11T13:53:19.013Z</time></trkpt><trkpt lat="43.953398034717694" lon="11.311586473253593"><ele>225.25</ele><time>2026-04-11T13:53:20.013Z</time></trkpt><trkpt lat="43.95353595191717" lon="11.311645127420583"><ele>224.0</ele><time>2026-04-11T13:53:21.013Z</time></trkpt><trkpt lat="43.953672856391854" lon="11.31170284418748"><ele>223.5</ele><time>2026-04-11T13:53:22.013Z</time></trkpt><trkpt lat="43.95381124088533" lon="11.311760139760343"><ele>223.0</ele><time>2026-04-11T13:53:23.013Z</time></trkpt><trkpt lat="43.953943615093756" lon="11.311822139599753"><ele>222.5</ele><time>2026-04-11T13:53:24.013Z</time></trkpt><trkpt lat="43.954068384890284" lon="11.311889434993374"><ele>222.0</ele><time>2026-04-11T13:53:25.013Z</time></trkpt><trkpt lat="43.954189943444085" lon="11.31196407999877"><ele>222.5</ele><time>2026-04-11T13:53:26.013Z</time></trkpt><trkpt lat="43.95429906627604" lon="11.312058896054207"><ele>223.0</ele><time>2026-04-11T13:53:27.013Z</time></trkpt><trkpt lat="43.9543943136376" lon="11.312158076016342"><ele>223.5</ele><time>2026-04-11T13:53:28.013Z</time></trkpt><trkpt lat="43.954483062362485" lon="11.312273739343105"><ele>224.0</ele><time>2026-04-11T13:53:29.013Z</time></trkpt><trkpt lat="43.95456212267826" lon="11.312391413334277"><ele>222.79999999999998</ele><time>2026-04-11T13:53:30.013Z</time></trkpt><trkpt lat="43.95464173601728" lon="11.312514543657956"><ele>221.59999999999997</ele><time>2026-04-11T13:53:31.013Z</time></trkpt><trkpt lat="43.95469309967342" lon="11.312656063746184"><ele>220.4</ele><time>2026-04-11T13:53:32.013Z</time></trkpt><trkpt lat="43.95475638561529" lon="11.312762341288362"><ele>219.2</ele><time>2026-04-11T13:53:33.013Z</time></trkpt><trkpt lat="43.954816753272986" lon="11.312865257276826"><ele>218.0</ele><time>2026-04-11T13:53:34.013Z</time></trkpt><trkpt lat="43.95487529711178" lon="11.312959654148367"><ele>218.0</ele><time>2026-04-11T13:53:35.013Z</time></trkpt><trkpt lat="43.95492434303514" lon="11.313039541517254"><ele>218.0</ele><time>2026-04-11T13:53:36.013Z</time></trkpt><trkpt lat="43.954992878500455" lon="11.313153507657567"><ele>217.0</ele><time>2026-04-11T13:53:38.013Z</time></trkpt><trkpt lat="43.95504735080833" lon="11.31323473659835"><ele>217.0</ele><time>2026-04-11T13:53:40.013Z</time></trkpt></trkseg></trk></gpx>